<?xml version="1.0" encoding="UTF-8" standalone="no" ?>
<gpx xmlns="http://www.topografix.com/GPX/1/1" xmlns:xsi="http://www.w3.org/2001/XMLSchema-instance" xsi:schemaLocation="http://www.topografix.com/GPX/1/1 http://www.topografix.com/GPX/1/1/gpx.xsd" version="1.1" creator="VisuGPX - https://www.visugpx.com">
  <metadata>
    <name>CAMINS DE TRAMUNTANA</name>
    <desc><![CDATA[CAMINS DE TRAMUNTANA------------]]></desc>
  </metadata>
  <trk>
    <name><![CDATA[camins-de-tramuntana1]]></name>
    <trkseg>
      <trkpt lat="42.3054" lon="2.71888">
        <ele>242.5</ele>
        <time>2018-11-27T23:02:56Z</time>
      </trkpt>
      <trkpt lat="42.3054" lon="2.71883">
        <ele>239.6</ele>
        <time>2018-11-27T23:02:57Z</time>
      </trkpt>
      <trkpt lat="42.3054" lon="2.71851">
        <ele>239.5</ele>
        <time>2018-11-27T23:03:06Z</time>
      </trkpt>
      <trkpt lat="42.30542" lon="2.71816">
        <ele>240</ele>
        <time>2018-11-27T23:03:17Z</time>
      </trkpt>
      <trkpt lat="42.30548" lon="2.71776">
        <ele>239.6</ele>
        <time>2018-11-27T23:03:29Z</time>
      </trkpt>
      <trkpt lat="42.30562" lon="2.71736">
        <ele>239.6</ele>
        <time>2018-11-27T23:03:42Z</time>
      </trkpt>
      <trkpt lat="42.30566" lon="2.71729">
        <ele>239.5</ele>
        <time>2018-11-27T23:03:45Z</time>
      </trkpt>
      <trkpt lat="42.30574" lon="2.71717">
        <ele>239.5</ele>
        <time>2018-11-27T23:03:50Z</time>
      </trkpt>
      <trkpt lat="42.30597" lon="2.71692">
        <ele>238.5</ele>
        <time>2018-11-27T23:04:01Z</time>
      </trkpt>
      <trkpt lat="42.30614" lon="2.71668">
        <ele>237.6</ele>
        <time>2018-11-27T23:04:11Z</time>
      </trkpt>
      <trkpt lat="42.30614" lon="2.71638">
        <ele>237.2</ele>
        <time>2018-11-27T23:04:20Z</time>
      </trkpt>
      <trkpt lat="42.30605" lon="2.71604">
        <ele>236.7</ele>
        <time>2018-11-27T23:04:31Z</time>
      </trkpt>
      <trkpt lat="42.30605" lon="2.71581">
        <ele>237.7</ele>
        <time>2018-11-27T23:04:38Z</time>
      </trkpt>
      <trkpt lat="42.30603" lon="2.71546">
        <ele>240.1</ele>
        <time>2018-11-27T23:04:48Z</time>
      </trkpt>
      <trkpt lat="42.30603" lon="2.71543">
        <ele>240.5</ele>
        <time>2018-11-27T23:04:49Z</time>
      </trkpt>
      <trkpt lat="42.30613" lon="2.71531">
        <ele>241.4</ele>
        <time>2018-11-27T23:04:54Z</time>
      </trkpt>
      <trkpt lat="42.3063" lon="2.71508">
        <ele>241.9</ele>
        <time>2018-11-27T23:05:04Z</time>
      </trkpt>
      <trkpt lat="42.30629" lon="2.71481">
        <ele>243.8</ele>
        <time>2018-11-27T23:05:12Z</time>
      </trkpt>
      <trkpt lat="42.30629" lon="2.71447">
        <ele>245.4</ele>
        <time>2018-11-27T23:05:22Z</time>
      </trkpt>
      <trkpt lat="42.3063" lon="2.71419">
        <ele>246.8</ele>
        <time>2018-11-27T23:05:30Z</time>
      </trkpt>
      <trkpt lat="42.30632" lon="2.71389">
        <ele>247.3</ele>
        <time>2018-11-27T23:05:39Z</time>
      </trkpt>
      <trkpt lat="42.30633" lon="2.71385">
        <ele>247.8</ele>
        <time>2018-11-27T23:05:40Z</time>
      </trkpt>
      <trkpt lat="42.30633" lon="2.71381">
        <ele>247.8</ele>
        <time>2018-11-27T23:05:41Z</time>
      </trkpt>
      <trkpt lat="42.30635" lon="2.71354">
        <ele>248.3</ele>
        <time>2018-11-27T23:05:50Z</time>
      </trkpt>
      <trkpt lat="42.30639" lon="2.71322">
        <ele>248.6</ele>
        <time>2018-11-27T23:05:59Z</time>
      </trkpt>
      <trkpt lat="42.30639" lon="2.71298">
        <ele>249.2</ele>
        <time>2018-11-27T23:06:06Z</time>
      </trkpt>
      <trkpt lat="42.3064" lon="2.71268">
        <ele>249.1</ele>
        <time>2018-11-27T23:06:15Z</time>
      </trkpt>
      <trkpt lat="42.30637" lon="2.71236">
        <ele>249.6</ele>
        <time>2018-11-27T23:06:25Z</time>
      </trkpt>
      <trkpt lat="42.30636" lon="2.71229">
        <ele>249.6</ele>
        <time>2018-11-27T23:06:27Z</time>
      </trkpt>
      <trkpt lat="42.30637" lon="2.71225">
        <ele>250.1</ele>
        <time>2018-11-27T23:06:28Z</time>
      </trkpt>
      <trkpt lat="42.30634" lon="2.71206">
        <ele>250.1</ele>
        <time>2018-11-27T23:06:34Z</time>
      </trkpt>
      <trkpt lat="42.30633" lon="2.71186">
        <ele>251.5</ele>
        <time>2018-11-27T23:06:40Z</time>
      </trkpt>
      <trkpt lat="42.3063" lon="2.71164">
        <ele>253.1</ele>
        <time>2018-11-27T23:06:46Z</time>
      </trkpt>
      <trkpt lat="42.30626" lon="2.71136">
        <ele>253.9</ele>
        <time>2018-11-27T23:06:55Z</time>
      </trkpt>
      <trkpt lat="42.30624" lon="2.71117">
        <ele>254.4</ele>
        <time>2018-11-27T23:07:00Z</time>
      </trkpt>
      <trkpt lat="42.30622" lon="2.71093">
        <ele>254.4</ele>
        <time>2018-11-27T23:07:07Z</time>
      </trkpt>
      <trkpt lat="42.30625" lon="2.71065">
        <ele>255</ele>
        <time>2018-11-27T23:07:16Z</time>
      </trkpt>
      <trkpt lat="42.30627" lon="2.71061">
        <ele>254.9</ele>
        <time>2018-11-27T23:07:17Z</time>
      </trkpt>
      <trkpt lat="42.30628" lon="2.71031">
        <ele>254.4</ele>
        <time>2018-11-27T23:07:26Z</time>
      </trkpt>
      <trkpt lat="42.30629" lon="2.71025">
        <ele>254.4</ele>
        <time>2018-11-27T23:07:28Z</time>
      </trkpt>
      <trkpt lat="42.30631" lon="2.71002">
        <ele>254.9</ele>
        <time>2018-11-27T23:07:35Z</time>
      </trkpt>
      <trkpt lat="42.30638" lon="2.70974">
        <ele>254.4</ele>
        <time>2018-11-27T23:07:44Z</time>
      </trkpt>
      <trkpt lat="42.30641" lon="2.70947">
        <ele>252</ele>
        <time>2018-11-27T23:07:51Z</time>
      </trkpt>
      <trkpt lat="42.30653" lon="2.70925">
        <ele>250.7</ele>
        <time>2018-11-27T23:08:00Z</time>
      </trkpt>
      <trkpt lat="42.30668" lon="2.70914">
        <ele>249.2</ele>
        <time>2018-11-27T23:08:06Z</time>
      </trkpt>
      <trkpt lat="42.30679" lon="2.70911">
        <ele>247.7</ele>
        <time>2018-11-27T23:08:11Z</time>
      </trkpt>
      <trkpt lat="42.30695" lon="2.70913">
        <ele>247.2</ele>
        <time>2018-11-27T23:08:17Z</time>
      </trkpt>
      <trkpt lat="42.30721" lon="2.70925">
        <ele>247.7</ele>
        <time>2018-11-27T23:08:28Z</time>
      </trkpt>
      <trkpt lat="42.30741" lon="2.70916">
        <ele>247.8</ele>
        <time>2018-11-27T23:08:37Z</time>
      </trkpt>
      <trkpt lat="42.30752" lon="2.70889">
        <ele>247.3</ele>
        <time>2018-11-27T23:08:46Z</time>
      </trkpt>
      <trkpt lat="42.30756" lon="2.70872">
        <ele>247.2</ele>
        <time>2018-11-27T23:08:51Z</time>
      </trkpt>
      <trkpt lat="42.30758" lon="2.70847">
        <ele>246.7</ele>
        <time>2018-11-27T23:08:59Z</time>
      </trkpt>
      <trkpt lat="42.3076" lon="2.70817">
        <ele>246.7</ele>
        <time>2018-11-27T23:09:08Z</time>
      </trkpt>
      <trkpt lat="42.30762" lon="2.70782">
        <ele>246.3</ele>
        <time>2018-11-27T23:09:18Z</time>
      </trkpt>
      <trkpt lat="42.30764" lon="2.70739">
        <ele>246.8</ele>
        <time>2018-11-27T23:09:31Z</time>
      </trkpt>
      <trkpt lat="42.30756" lon="2.70718">
        <ele>245.3</ele>
        <time>2018-11-27T23:09:38Z</time>
      </trkpt>
      <trkpt lat="42.30747" lon="2.70697">
        <ele>243.4</ele>
        <time>2018-11-27T23:09:45Z</time>
      </trkpt>
      <trkpt lat="42.30741" lon="2.70679">
        <ele>242</ele>
        <time>2018-11-27T23:09:51Z</time>
      </trkpt>
      <trkpt lat="42.30737" lon="2.70655">
        <ele>241.9</ele>
        <time>2018-11-27T23:09:58Z</time>
      </trkpt>
      <trkpt lat="42.30734" lon="2.70637">
        <ele>241.4</ele>
        <time>2018-11-27T23:10:03Z</time>
      </trkpt>
      <trkpt lat="42.30727" lon="2.70609">
        <ele>240.9</ele>
        <time>2018-11-27T23:10:12Z</time>
      </trkpt>
      <trkpt lat="42.30726" lon="2.70604">
        <ele>242</ele>
        <time>2018-11-27T23:10:14Z</time>
      </trkpt>
      <trkpt lat="42.30722" lon="2.70593">
        <ele>242.4</ele>
        <time>2018-11-27T23:10:17Z</time>
      </trkpt>
      <trkpt lat="42.30721" lon="2.70581">
        <ele>242.9</ele>
        <time>2018-11-27T23:10:21Z</time>
      </trkpt>
      <trkpt lat="42.30719" lon="2.70551">
        <ele>244.4</ele>
        <time>2018-11-27T23:10:30Z</time>
      </trkpt>
      <trkpt lat="42.30738" lon="2.70528">
        <ele>245.4</ele>
        <time>2018-11-27T23:10:40Z</time>
      </trkpt>
      <trkpt lat="42.30767" lon="2.70513">
        <ele>248.7</ele>
        <time>2018-11-27T23:10:53Z</time>
      </trkpt>
      <trkpt lat="42.30787" lon="2.70499">
        <ele>251</ele>
        <time>2018-11-27T23:11:02Z</time>
      </trkpt>
      <trkpt lat="42.30812" lon="2.70489">
        <ele>252</ele>
        <time>2018-11-27T23:11:12Z</time>
      </trkpt>
      <trkpt lat="42.30829" lon="2.70478">
        <ele>251.6</ele>
        <time>2018-11-27T23:11:20Z</time>
      </trkpt>
      <trkpt lat="42.30845" lon="2.70462">
        <ele>251.1</ele>
        <time>2018-11-27T23:11:28Z</time>
      </trkpt>
      <trkpt lat="42.30861" lon="2.70446">
        <ele>248.6</ele>
        <time>2018-11-27T23:11:35Z</time>
      </trkpt>
      <trkpt lat="42.30876" lon="2.70432">
        <ele>248.2</ele>
        <time>2018-11-27T23:11:43Z</time>
      </trkpt>
      <trkpt lat="42.30893" lon="2.70423">
        <ele>248.2</ele>
        <time>2018-11-27T23:11:50Z</time>
      </trkpt>
      <trkpt lat="42.30912" lon="2.70413">
        <ele>249.6</ele>
        <time>2018-11-27T23:11:59Z</time>
      </trkpt>
      <trkpt lat="42.30933" lon="2.70409">
        <ele>250.1</ele>
        <time>2018-11-27T23:12:07Z</time>
      </trkpt>
      <trkpt lat="42.30951" lon="2.70404">
        <ele>250.6</ele>
        <time>2018-11-27T23:12:14Z</time>
      </trkpt>
      <trkpt lat="42.30977" lon="2.70398">
        <ele>250.6</ele>
        <time>2018-11-27T23:12:25Z</time>
      </trkpt>
      <trkpt lat="42.31001" lon="2.70391">
        <ele>252</ele>
        <time>2018-11-27T23:12:34Z</time>
      </trkpt>
      <trkpt lat="42.31023" lon="2.70385">
        <ele>254.4</ele>
        <time>2018-11-27T23:12:43Z</time>
      </trkpt>
      <trkpt lat="42.31043" lon="2.70384">
        <ele>255.9</ele>
        <time>2018-11-27T23:12:51Z</time>
      </trkpt>
      <trkpt lat="42.31059" lon="2.70382">
        <ele>256.3</ele>
        <time>2018-11-27T23:12:58Z</time>
      </trkpt>
      <trkpt lat="42.31068" lon="2.70383">
        <ele>256.9</ele>
        <time>2018-11-27T23:13:02Z</time>
      </trkpt>
      <trkpt lat="42.31081" lon="2.70386">
        <ele>257.4</ele>
        <time>2018-11-27T23:13:07Z</time>
      </trkpt>
      <trkpt lat="42.31097" lon="2.70386">
        <ele>257.3</ele>
        <time>2018-11-27T23:13:14Z</time>
      </trkpt>
      <trkpt lat="42.31116" lon="2.70376">
        <ele>256.9</ele>
        <time>2018-11-27T23:13:22Z</time>
      </trkpt>
      <trkpt lat="42.31131" lon="2.7036">
        <ele>255.4</ele>
        <time>2018-11-27T23:13:29Z</time>
      </trkpt>
      <trkpt lat="42.31147" lon="2.70336">
        <ele>254.9</ele>
        <time>2018-11-27T23:13:39Z</time>
      </trkpt>
      <trkpt lat="42.31161" lon="2.70305">
        <ele>254.9</ele>
        <time>2018-11-27T23:13:50Z</time>
      </trkpt>
      <trkpt lat="42.31176" lon="2.70279">
        <ele>255.5</ele>
        <time>2018-11-27T23:13:59Z</time>
      </trkpt>
      <trkpt lat="42.31192" lon="2.70248">
        <ele>256.3</ele>
        <time>2018-11-27T23:14:10Z</time>
      </trkpt>
      <trkpt lat="42.3121" lon="2.70227">
        <ele>257.9</ele>
        <time>2018-11-27T23:14:20Z</time>
      </trkpt>
      <trkpt lat="42.31229" lon="2.70215">
        <ele>255.8</ele>
        <time>2018-11-27T23:14:28Z</time>
      </trkpt>
      <trkpt lat="42.31251" lon="2.70201">
        <ele>255.5</ele>
        <time>2018-11-27T23:14:38Z</time>
      </trkpt>
      <trkpt lat="42.31273" lon="2.70196">
        <ele>254.4</ele>
        <time>2018-11-27T23:14:47Z</time>
      </trkpt>
      <trkpt lat="42.31293" lon="2.70209">
        <ele>254.4</ele>
        <time>2018-11-27T23:14:56Z</time>
      </trkpt>
      <trkpt lat="42.31314" lon="2.70228">
        <ele>255.8</ele>
        <time>2018-11-27T23:15:06Z</time>
      </trkpt>
      <trkpt lat="42.3132" lon="2.70244">
        <ele>257.3</ele>
        <time>2018-11-27T23:15:11Z</time>
      </trkpt>
      <trkpt lat="42.31321" lon="2.70252">
        <ele>257.8</ele>
        <time>2018-11-27T23:15:14Z</time>
      </trkpt>
      <trkpt lat="42.31317" lon="2.70287">
        <ele>260.7</ele>
        <time>2018-11-27T23:15:24Z</time>
      </trkpt>
      <trkpt lat="42.31317" lon="2.70319">
        <ele>261.7</ele>
        <time>2018-11-27T23:15:34Z</time>
      </trkpt>
      <trkpt lat="42.31333" lon="2.7035">
        <ele>261.6</ele>
        <time>2018-11-27T23:15:45Z</time>
      </trkpt>
      <trkpt lat="42.31355" lon="2.70369">
        <ele>262.1</ele>
        <time>2018-11-27T23:15:55Z</time>
      </trkpt>
      <trkpt lat="42.31376" lon="2.70382">
        <ele>263.1</ele>
        <time>2018-11-27T23:16:05Z</time>
      </trkpt>
      <trkpt lat="42.31401" lon="2.70392">
        <ele>263.5</ele>
        <time>2018-11-27T23:16:15Z</time>
      </trkpt>
      <trkpt lat="42.31426" lon="2.70392">
        <ele>264.1</ele>
        <time>2018-11-27T23:16:25Z</time>
      </trkpt>
      <trkpt lat="42.31445" lon="2.70386">
        <ele>263.6</ele>
        <time>2018-11-27T23:16:33Z</time>
      </trkpt>
      <trkpt lat="42.31469" lon="2.70385">
        <ele>264.5</ele>
        <time>2018-11-27T23:16:42Z</time>
      </trkpt>
      <trkpt lat="42.31491" lon="2.70373">
        <ele>265</ele>
        <time>2018-11-27T23:16:52Z</time>
      </trkpt>
      <trkpt lat="42.31504" lon="2.7036">
        <ele>264.5</ele>
        <time>2018-11-27T23:16:58Z</time>
      </trkpt>
      <trkpt lat="42.31523" lon="2.70355">
        <ele>262.1</ele>
        <time>2018-11-27T23:17:06Z</time>
      </trkpt>
      <trkpt lat="42.31541" lon="2.70336">
        <ele>261.1</ele>
        <time>2018-11-27T23:17:15Z</time>
      </trkpt>
      <trkpt lat="42.31553" lon="2.7032">
        <ele>260.7</ele>
        <time>2018-11-27T23:17:22Z</time>
      </trkpt>
      <trkpt lat="42.3157" lon="2.70299">
        <ele>259.3</ele>
        <time>2018-11-27T23:17:31Z</time>
      </trkpt>
      <trkpt lat="42.31589" lon="2.70281">
        <ele>259.3</ele>
        <time>2018-11-27T23:17:40Z</time>
      </trkpt>
      <trkpt lat="42.31604" lon="2.7027">
        <ele>259.3</ele>
        <time>2018-11-27T23:17:47Z</time>
      </trkpt>
      <trkpt lat="42.31621" lon="2.70271">
        <ele>259.2</ele>
        <time>2018-11-27T23:17:54Z</time>
      </trkpt>
      <trkpt lat="42.3164" lon="2.7025">
        <ele>259.8</ele>
        <time>2018-11-27T23:18:04Z</time>
      </trkpt>
      <trkpt lat="42.3166" lon="2.70245">
        <ele>261.6</ele>
        <time>2018-11-27T23:18:12Z</time>
      </trkpt>
      <trkpt lat="42.31677" lon="2.70242">
        <ele>263.5</ele>
        <time>2018-11-27T23:18:19Z</time>
      </trkpt>
      <trkpt lat="42.31682" lon="2.70244">
        <ele>264.1</ele>
        <time>2018-11-27T23:18:21Z</time>
      </trkpt>
      <trkpt lat="42.31684" lon="2.70241">
        <ele>264.5</ele>
        <time>2018-11-27T23:18:22Z</time>
      </trkpt>
      <trkpt lat="42.31688" lon="2.70245">
        <ele>264</ele>
        <time>2018-11-27T23:18:24Z</time>
      </trkpt>
      <trkpt lat="42.31694" lon="2.7025">
        <ele>263.5</ele>
        <time>2018-11-27T23:18:27Z</time>
      </trkpt>
      <trkpt lat="42.31704" lon="2.70261">
        <ele>262.1</ele>
        <time>2018-11-27T23:18:32Z</time>
      </trkpt>
      <trkpt lat="42.3171" lon="2.7027">
        <ele>260.8</ele>
        <time>2018-11-27T23:18:35Z</time>
      </trkpt>
      <trkpt lat="42.31708" lon="2.70281">
        <ele>259.3</ele>
        <time>2018-11-27T23:18:39Z</time>
      </trkpt>
      <trkpt lat="42.31705" lon="2.70284">
        <ele>259.2</ele>
        <time>2018-11-27T23:18:40Z</time>
      </trkpt>
      <trkpt lat="42.31708" lon="2.70295">
        <ele>259.3</ele>
        <time>2018-11-27T23:18:44Z</time>
      </trkpt>
      <trkpt lat="42.31714" lon="2.70302">
        <ele>260.3</ele>
        <time>2018-11-27T23:18:47Z</time>
      </trkpt>
      <trkpt lat="42.31716" lon="2.70305">
        <ele>260.3</ele>
        <time>2018-11-27T23:18:48Z</time>
      </trkpt>
      <trkpt lat="42.31725" lon="2.70316">
        <ele>260.3</ele>
        <time>2018-11-27T23:18:53Z</time>
      </trkpt>
      <trkpt lat="42.31725" lon="2.70334">
        <ele>260.7</ele>
        <time>2018-11-27T23:18:58Z</time>
      </trkpt>
      <trkpt lat="42.31725" lon="2.70342">
        <ele>261.6</ele>
        <time>2018-11-27T23:19:01Z</time>
      </trkpt>
      <trkpt lat="42.31729" lon="2.70346">
        <ele>262.1</ele>
        <time>2018-11-27T23:19:03Z</time>
      </trkpt>
      <trkpt lat="42.31739" lon="2.70349">
        <ele>259.7</ele>
        <time>2018-11-27T23:19:07Z</time>
      </trkpt>
      <trkpt lat="42.31737" lon="2.70348">
        <ele>260.7</ele>
        <time>2018-11-27T23:19:08Z</time>
      </trkpt>
      <trkpt lat="42.31737" lon="2.70349">
        <ele>259.8</ele>
        <time>2018-11-27T23:19:08Z</time>
      </trkpt>
      <trkpt lat="42.31737" lon="2.70349">
        <ele>260.3</ele>
        <time>2018-11-27T23:19:08Z</time>
      </trkpt>
      <trkpt lat="42.31741" lon="2.70348">
        <ele>259.7</ele>
        <time>2018-11-27T23:19:10Z</time>
      </trkpt>
      <trkpt lat="42.31743" lon="2.70347">
        <ele>259.7</ele>
        <time>2018-11-27T23:19:11Z</time>
      </trkpt>
      <trkpt lat="42.31742" lon="2.70364">
        <ele>260.2</ele>
        <time>2018-11-27T23:19:15Z</time>
      </trkpt>
      <trkpt lat="42.31744" lon="2.70369">
        <ele>261.1</ele>
        <time>2018-11-27T23:19:17Z</time>
      </trkpt>
      <trkpt lat="42.31749" lon="2.70384">
        <ele>261.1</ele>
        <time>2018-11-27T23:19:22Z</time>
      </trkpt>
      <trkpt lat="42.31752" lon="2.70396">
        <ele>261.2</ele>
        <time>2018-11-27T23:19:26Z</time>
      </trkpt>
      <trkpt lat="42.3175" lon="2.70403">
        <ele>261.1</ele>
        <time>2018-11-27T23:19:28Z</time>
      </trkpt>
      <trkpt lat="42.31749" lon="2.70402">
        <ele>260.7</ele>
        <time>2018-11-27T23:19:29Z</time>
      </trkpt>
      <trkpt lat="42.31752" lon="2.70396">
        <ele>261.6</ele>
        <time>2018-11-27T23:19:31Z</time>
      </trkpt>
      <trkpt lat="42.31755" lon="2.70393">
        <ele>261.2</ele>
        <time>2018-11-27T23:19:33Z</time>
      </trkpt>
      <trkpt lat="42.31755" lon="2.7039">
        <ele>261.1</ele>
        <time>2018-11-27T23:19:33Z</time>
      </trkpt>
      <trkpt lat="42.31756" lon="2.70395">
        <ele>261.2</ele>
        <time>2018-11-27T23:19:35Z</time>
      </trkpt>
      <trkpt lat="42.31755" lon="2.70402">
        <ele>261.2</ele>
        <time>2018-11-27T23:19:37Z</time>
      </trkpt>
      <trkpt lat="42.31752" lon="2.70401">
        <ele>260.8</ele>
        <time>2018-11-27T23:19:38Z</time>
      </trkpt>
      <trkpt lat="42.31751" lon="2.70394">
        <ele>260.8</ele>
        <time>2018-11-27T23:19:40Z</time>
      </trkpt>
      <trkpt lat="42.3175" lon="2.70384">
        <ele>260.2</ele>
        <time>2018-11-27T23:19:43Z</time>
      </trkpt>
      <trkpt lat="42.31752" lon="2.7038">
        <ele>260.3</ele>
        <time>2018-11-27T23:19:45Z</time>
      </trkpt>
      <trkpt lat="42.31757" lon="2.70392">
        <ele>259.7</ele>
        <time>2018-11-27T23:19:48Z</time>
      </trkpt>
      <trkpt lat="42.31755" lon="2.70397">
        <ele>260.7</ele>
        <time>2018-11-27T23:19:50Z</time>
      </trkpt>
      <trkpt lat="42.31753" lon="2.70404">
        <ele>261.1</ele>
        <time>2018-11-27T23:19:52Z</time>
      </trkpt>
      <trkpt lat="42.31757" lon="2.70409">
        <ele>261.1</ele>
        <time>2018-11-27T23:19:54Z</time>
      </trkpt>
      <trkpt lat="42.3176" lon="2.70415">
        <ele>261.2</ele>
        <time>2018-11-27T23:19:56Z</time>
      </trkpt>
      <trkpt lat="42.3176" lon="2.70423">
        <ele>263.1</ele>
        <time>2018-11-27T23:19:59Z</time>
      </trkpt>
      <trkpt lat="42.31763" lon="2.70429">
        <ele>262.6</ele>
        <time>2018-11-27T23:20:01Z</time>
      </trkpt>
      <trkpt lat="42.31766" lon="2.70434">
        <ele>263.5</ele>
        <time>2018-11-27T23:20:03Z</time>
      </trkpt>
      <trkpt lat="42.31771" lon="2.7044">
        <ele>263.2</ele>
        <time>2018-11-27T23:20:06Z</time>
      </trkpt>
      <trkpt lat="42.31772" lon="2.70452">
        <ele>263.6</ele>
        <time>2018-11-27T23:20:09Z</time>
      </trkpt>
      <trkpt lat="42.31769" lon="2.70458">
        <ele>264.5</ele>
        <time>2018-11-27T23:20:11Z</time>
      </trkpt>
      <trkpt lat="42.31766" lon="2.70459">
        <ele>265</ele>
        <time>2018-11-27T23:20:12Z</time>
      </trkpt>
      <trkpt lat="42.31764" lon="2.70456">
        <ele>267.4</ele>
        <time>2018-11-27T23:20:13Z</time>
      </trkpt>
      <trkpt lat="42.31761" lon="2.70455">
        <ele>269.8</ele>
        <time>2018-11-27T23:20:15Z</time>
      </trkpt>
      <trkpt lat="42.31759" lon="2.7046">
        <ele>271.7</ele>
        <time>2018-11-27T23:20:16Z</time>
      </trkpt>
      <trkpt lat="42.31758" lon="2.70462">
        <ele>272.2</ele>
        <time>2018-11-27T23:20:17Z</time>
      </trkpt>
      <trkpt lat="42.31756" lon="2.70462">
        <ele>271.8</ele>
        <time>2018-11-27T23:20:18Z</time>
      </trkpt>
      <trkpt lat="42.31754" lon="2.70464">
        <ele>272.2</ele>
        <time>2018-11-27T23:20:19Z</time>
      </trkpt>
      <trkpt lat="42.31761" lon="2.70473">
        <ele>271.7</ele>
        <time>2018-11-27T23:20:22Z</time>
      </trkpt>
      <trkpt lat="42.31769" lon="2.70497">
        <ele>272.7</ele>
        <time>2018-11-27T23:20:30Z</time>
      </trkpt>
      <trkpt lat="42.3177" lon="2.705">
        <ele>272.2</ele>
        <time>2018-11-27T23:20:31Z</time>
      </trkpt>
      <trkpt lat="42.31772" lon="2.70511">
        <ele>272.7</ele>
        <time>2018-11-27T23:20:35Z</time>
      </trkpt>
      <trkpt lat="42.31783" lon="2.70523">
        <ele>272.3</ele>
        <time>2018-11-27T23:20:40Z</time>
      </trkpt>
      <trkpt lat="42.31794" lon="2.70524">
        <ele>270.7</ele>
        <time>2018-11-27T23:20:44Z</time>
      </trkpt>
      <trkpt lat="42.3181" lon="2.70525">
        <ele>269.8</ele>
        <time>2018-11-27T23:20:51Z</time>
      </trkpt>
      <trkpt lat="42.31835" lon="2.70531">
        <ele>269.9</ele>
        <time>2018-11-27T23:21:01Z</time>
      </trkpt>
      <trkpt lat="42.31847" lon="2.70533">
        <ele>270.3</ele>
        <time>2018-11-27T23:21:06Z</time>
      </trkpt>
      <trkpt lat="42.31871" lon="2.70535">
        <ele>271.2</ele>
        <time>2018-11-27T23:21:15Z</time>
      </trkpt>
      <trkpt lat="42.31889" lon="2.70535">
        <ele>271.8</ele>
        <time>2018-11-27T23:21:23Z</time>
      </trkpt>
      <trkpt lat="42.31902" lon="2.70532">
        <ele>272.8</ele>
        <time>2018-11-27T23:21:28Z</time>
      </trkpt>
      <trkpt lat="42.31921" lon="2.70523">
        <ele>272.7</ele>
        <time>2018-11-27T23:21:36Z</time>
      </trkpt>
      <trkpt lat="42.31926" lon="2.70519">
        <ele>272.7</ele>
        <time>2018-11-27T23:21:38Z</time>
      </trkpt>
      <trkpt lat="42.31943" lon="2.70505">
        <ele>273.7</ele>
        <time>2018-11-27T23:21:47Z</time>
      </trkpt>
      <trkpt lat="42.31959" lon="2.7049">
        <ele>274.2</ele>
        <time>2018-11-27T23:21:54Z</time>
      </trkpt>
      <trkpt lat="42.31974" lon="2.70476">
        <ele>274.1</ele>
        <time>2018-11-27T23:22:01Z</time>
      </trkpt>
      <trkpt lat="42.31985" lon="2.70481">
        <ele>276.1</ele>
        <time>2018-11-27T23:22:06Z</time>
      </trkpt>
      <trkpt lat="42.31993" lon="2.70494">
        <ele>276.1</ele>
        <time>2018-11-27T23:22:11Z</time>
      </trkpt>
      <trkpt lat="42.31998" lon="2.70509">
        <ele>276.1</ele>
        <time>2018-11-27T23:22:16Z</time>
      </trkpt>
      <trkpt lat="42.32004" lon="2.70518">
        <ele>276.5</ele>
        <time>2018-11-27T23:22:20Z</time>
      </trkpt>
      <trkpt lat="42.32006" lon="2.70525">
        <ele>275.1</ele>
        <time>2018-11-27T23:22:22Z</time>
      </trkpt>
      <trkpt lat="42.32002" lon="2.70532">
        <ele>275.7</ele>
        <time>2018-11-27T23:22:24Z</time>
      </trkpt>
      <trkpt lat="42.32003" lon="2.7054">
        <ele>276.5</ele>
        <time>2018-11-27T23:22:27Z</time>
      </trkpt>
      <trkpt lat="42.32005" lon="2.70548">
        <ele>276.1</ele>
        <time>2018-11-27T23:22:29Z</time>
      </trkpt>
      <trkpt lat="42.32009" lon="2.70555">
        <ele>276</ele>
        <time>2018-11-27T23:22:32Z</time>
      </trkpt>
      <trkpt lat="42.32003" lon="2.70566">
        <ele>275.2</ele>
        <time>2018-11-27T23:22:36Z</time>
      </trkpt>
      <trkpt lat="42.32002" lon="2.70577">
        <ele>275.6</ele>
        <time>2018-11-27T23:22:39Z</time>
      </trkpt>
      <trkpt lat="42.32004" lon="2.70585">
        <ele>275.1</ele>
        <time>2018-11-27T23:22:41Z</time>
      </trkpt>
      <trkpt lat="42.32004" lon="2.70596">
        <ele>275.7</ele>
        <time>2018-11-27T23:22:45Z</time>
      </trkpt>
      <trkpt lat="42.32001" lon="2.70605">
        <ele>275.7</ele>
        <time>2018-11-27T23:22:48Z</time>
      </trkpt>
      <trkpt lat="42.32002" lon="2.70608">
        <ele>275.7</ele>
        <time>2018-11-27T23:22:49Z</time>
      </trkpt>
      <trkpt lat="42.32001" lon="2.70616">
        <ele>275.6</ele>
        <time>2018-11-27T23:22:51Z</time>
      </trkpt>
      <trkpt lat="42.32004" lon="2.70623">
        <ele>277</ele>
        <time>2018-11-27T23:22:53Z</time>
      </trkpt>
      <trkpt lat="42.32006" lon="2.70629">
        <ele>276.6</ele>
        <time>2018-11-27T23:22:55Z</time>
      </trkpt>
      <trkpt lat="42.32012" lon="2.70633">
        <ele>277.1</ele>
        <time>2018-11-27T23:22:58Z</time>
      </trkpt>
      <trkpt lat="42.32014" lon="2.70628">
        <ele>276.6</ele>
        <time>2018-11-27T23:23:00Z</time>
      </trkpt>
      <trkpt lat="42.32037" lon="2.70639">
        <ele>276</ele>
        <time>2018-11-27T23:23:09Z</time>
      </trkpt>
      <trkpt lat="42.32039" lon="2.7064">
        <ele>276.6</ele>
        <time>2018-11-27T23:23:10Z</time>
      </trkpt>
      <trkpt lat="42.3204" lon="2.70641">
        <ele>276.5</ele>
        <time>2018-11-27T23:23:11Z</time>
      </trkpt>
      <trkpt lat="42.32058" lon="2.70646">
        <ele>277.1</ele>
        <time>2018-11-27T23:23:18Z</time>
      </trkpt>
      <trkpt lat="42.32076" lon="2.70645">
        <ele>277.5</ele>
        <time>2018-11-27T23:23:26Z</time>
      </trkpt>
      <trkpt lat="42.32091" lon="2.70637">
        <ele>277.5</ele>
        <time>2018-11-27T23:23:32Z</time>
      </trkpt>
      <trkpt lat="42.32111" lon="2.70631">
        <ele>279</ele>
        <time>2018-11-27T23:23:40Z</time>
      </trkpt>
      <trkpt lat="42.32127" lon="2.70622">
        <ele>278.4</ele>
        <time>2018-11-27T23:23:47Z</time>
      </trkpt>
      <trkpt lat="42.32145" lon="2.70613">
        <ele>278.4</ele>
        <time>2018-11-27T23:23:55Z</time>
      </trkpt>
      <trkpt lat="42.3216" lon="2.70609">
        <ele>278.5</ele>
        <time>2018-11-27T23:24:01Z</time>
      </trkpt>
      <trkpt lat="42.32174" lon="2.70603">
        <ele>278.4</ele>
        <time>2018-11-27T23:24:07Z</time>
      </trkpt>
      <trkpt lat="42.32189" lon="2.70608">
        <ele>278.5</ele>
        <time>2018-11-27T23:24:13Z</time>
      </trkpt>
      <trkpt lat="42.32198" lon="2.70604">
        <ele>279</ele>
        <time>2018-11-27T23:24:17Z</time>
      </trkpt>
      <trkpt lat="42.32206" lon="2.70599">
        <ele>278.9</ele>
        <time>2018-11-27T23:24:20Z</time>
      </trkpt>
      <trkpt lat="42.32225" lon="2.70589">
        <ele>280</ele>
        <time>2018-11-27T23:24:28Z</time>
      </trkpt>
      <trkpt lat="42.32243" lon="2.70579">
        <ele>280.4</ele>
        <time>2018-11-27T23:24:36Z</time>
      </trkpt>
      <trkpt lat="42.32258" lon="2.70567">
        <ele>280.5</ele>
        <time>2018-11-27T23:24:43Z</time>
      </trkpt>
      <trkpt lat="42.32265" lon="2.70562">
        <ele>280.9</ele>
        <time>2018-11-27T23:24:46Z</time>
      </trkpt>
      <trkpt lat="42.32272" lon="2.70558">
        <ele>282.4</ele>
        <time>2018-11-27T23:24:49Z</time>
      </trkpt>
      <trkpt lat="42.32274" lon="2.70557">
        <ele>281.3</ele>
        <time>2018-11-27T23:24:50Z</time>
      </trkpt>
      <trkpt lat="42.32292" lon="2.70552">
        <ele>281.8</ele>
        <time>2018-11-27T23:24:58Z</time>
      </trkpt>
      <trkpt lat="42.32296" lon="2.70552">
        <ele>282.3</ele>
        <time>2018-11-27T23:24:59Z</time>
      </trkpt>
      <trkpt lat="42.32309" lon="2.70559">
        <ele>284.7</ele>
        <time>2018-11-27T23:25:05Z</time>
      </trkpt>
      <trkpt lat="42.32313" lon="2.70555">
        <ele>288.2</ele>
        <time>2018-11-27T23:25:07Z</time>
      </trkpt>
      <trkpt lat="42.32317" lon="2.70551">
        <ele>289</ele>
        <time>2018-11-27T23:25:09Z</time>
      </trkpt>
      <trkpt lat="42.32323" lon="2.70547">
        <ele>290.9</ele>
        <time>2018-11-27T23:25:12Z</time>
      </trkpt>
      <trkpt lat="42.32326" lon="2.70554">
        <ele>293.3</ele>
        <time>2018-11-27T23:25:14Z</time>
      </trkpt>
      <trkpt lat="42.3232" lon="2.70558">
        <ele>295.8</ele>
        <time>2018-11-27T23:25:17Z</time>
      </trkpt>
      <trkpt lat="42.3232" lon="2.70563">
        <ele>298.1</ele>
        <time>2018-11-27T23:25:18Z</time>
      </trkpt>
      <trkpt lat="42.32318" lon="2.70571">
        <ele>299.7</ele>
        <time>2018-11-27T23:25:21Z</time>
      </trkpt>
      <trkpt lat="42.32313" lon="2.70588">
        <ele>302.1</ele>
        <time>2018-11-27T23:25:26Z</time>
      </trkpt>
      <trkpt lat="42.32311" lon="2.706">
        <ele>303</ele>
        <time>2018-11-27T23:25:30Z</time>
      </trkpt>
      <trkpt lat="42.32307" lon="2.70613">
        <ele>304.4</ele>
        <time>2018-11-27T23:25:34Z</time>
      </trkpt>
      <trkpt lat="42.3231" lon="2.70625">
        <ele>305.8</ele>
        <time>2018-11-27T23:25:38Z</time>
      </trkpt>
      <trkpt lat="42.3231" lon="2.7064">
        <ele>306.9</ele>
        <time>2018-11-27T23:25:42Z</time>
      </trkpt>
      <trkpt lat="42.32312" lon="2.70658">
        <ele>309.3</ele>
        <time>2018-11-27T23:25:47Z</time>
      </trkpt>
      <trkpt lat="42.32319" lon="2.70664">
        <ele>311.6</ele>
        <time>2018-11-27T23:25:51Z</time>
      </trkpt>
      <trkpt lat="42.32321" lon="2.70663">
        <ele>313.1</ele>
        <time>2018-11-27T23:25:51Z</time>
      </trkpt>
      <trkpt lat="42.3233" lon="2.70668">
        <ele>315.9</ele>
        <time>2018-11-27T23:25:56Z</time>
      </trkpt>
      <trkpt lat="42.32339" lon="2.70678">
        <ele>316.9</ele>
        <time>2018-11-27T23:26:00Z</time>
      </trkpt>
      <trkpt lat="42.32349" lon="2.70693">
        <ele>314.5</ele>
        <time>2018-11-27T23:26:06Z</time>
      </trkpt>
      <trkpt lat="42.32359" lon="2.70706">
        <ele>313.6</ele>
        <time>2018-11-27T23:26:12Z</time>
      </trkpt>
      <trkpt lat="42.32373" lon="2.70718">
        <ele>312.7</ele>
        <time>2018-11-27T23:26:18Z</time>
      </trkpt>
      <trkpt lat="42.32372" lon="2.70721">
        <ele>312.1</ele>
        <time>2018-11-27T23:26:19Z</time>
      </trkpt>
      <trkpt lat="42.32376" lon="2.70725">
        <ele>311.6</ele>
        <time>2018-11-27T23:26:21Z</time>
      </trkpt>
      <trkpt lat="42.32382" lon="2.70731">
        <ele>311.6</ele>
        <time>2018-11-27T23:26:24Z</time>
      </trkpt>
      <trkpt lat="42.32389" lon="2.70736">
        <ele>310.3</ele>
        <time>2018-11-27T23:26:27Z</time>
      </trkpt>
      <trkpt lat="42.32396" lon="2.70738">
        <ele>309.7</ele>
        <time>2018-11-27T23:26:30Z</time>
      </trkpt>
      <trkpt lat="42.32397" lon="2.70733">
        <ele>306.3</ele>
        <time>2018-11-27T23:26:31Z</time>
      </trkpt>
      <trkpt lat="42.32395" lon="2.70723">
        <ele>303.5</ele>
        <time>2018-11-27T23:26:34Z</time>
      </trkpt>
      <trkpt lat="42.32407" lon="2.70727">
        <ele>302.6</ele>
        <time>2018-11-27T23:26:39Z</time>
      </trkpt>
      <trkpt lat="42.32419" lon="2.70728">
        <ele>299.7</ele>
        <time>2018-11-27T23:26:44Z</time>
      </trkpt>
      <trkpt lat="42.32429" lon="2.70726">
        <ele>298.2</ele>
        <time>2018-11-27T23:26:48Z</time>
      </trkpt>
      <trkpt lat="42.32438" lon="2.70721">
        <ele>296.2</ele>
        <time>2018-11-27T23:26:52Z</time>
      </trkpt>
      <trkpt lat="42.32447" lon="2.70718">
        <ele>293.8</ele>
        <time>2018-11-27T23:26:56Z</time>
      </trkpt>
      <trkpt lat="42.32455" lon="2.7071">
        <ele>293.8</ele>
        <time>2018-11-27T23:27:00Z</time>
      </trkpt>
      <trkpt lat="42.32458" lon="2.70706">
        <ele>293.3</ele>
        <time>2018-11-27T23:27:01Z</time>
      </trkpt>
      <trkpt lat="42.32462" lon="2.707">
        <ele>292.9</ele>
        <time>2018-11-27T23:27:04Z</time>
      </trkpt>
      <trkpt lat="42.32469" lon="2.70701">
        <ele>293.3</ele>
        <time>2018-11-27T23:27:06Z</time>
      </trkpt>
      <trkpt lat="42.32475" lon="2.70704">
        <ele>295.7</ele>
        <time>2018-11-27T23:27:09Z</time>
      </trkpt>
      <trkpt lat="42.32478" lon="2.70701">
        <ele>295.4</ele>
        <time>2018-11-27T23:27:11Z</time>
      </trkpt>
      <trkpt lat="42.3249" lon="2.70683">
        <ele>293.9</ele>
        <time>2018-11-27T23:27:18Z</time>
      </trkpt>
      <trkpt lat="42.32495" lon="2.70678">
        <ele>293.4</ele>
        <time>2018-11-27T23:27:20Z</time>
      </trkpt>
      <trkpt lat="42.32505" lon="2.70669">
        <ele>292.9</ele>
        <time>2018-11-27T23:27:25Z</time>
      </trkpt>
      <trkpt lat="42.32522" lon="2.7065">
        <ele>293.9</ele>
        <time>2018-11-27T23:27:34Z</time>
      </trkpt>
      <trkpt lat="42.32545" lon="2.70645">
        <ele>293</ele>
        <time>2018-11-27T23:27:43Z</time>
      </trkpt>
      <trkpt lat="42.32567" lon="2.7065">
        <ele>290.5</ele>
        <time>2018-11-27T23:27:52Z</time>
      </trkpt>
      <trkpt lat="42.32589" lon="2.70661">
        <ele>290</ele>
        <time>2018-11-27T23:28:02Z</time>
      </trkpt>
      <trkpt lat="42.32608" lon="2.70649">
        <ele>290</ele>
        <time>2018-11-27T23:28:10Z</time>
      </trkpt>
      <trkpt lat="42.3263" lon="2.70638">
        <ele>291.4</ele>
        <time>2018-11-27T23:28:19Z</time>
      </trkpt>
      <trkpt lat="42.32644" lon="2.70626">
        <ele>293.4</ele>
        <time>2018-11-27T23:28:26Z</time>
      </trkpt>
      <trkpt lat="42.32658" lon="2.70609">
        <ele>293</ele>
        <time>2018-11-27T23:28:34Z</time>
      </trkpt>
      <trkpt lat="42.32677" lon="2.70594">
        <ele>292.5</ele>
        <time>2018-11-27T23:28:42Z</time>
      </trkpt>
      <trkpt lat="42.32677" lon="2.70593">
        <ele>292.5</ele>
        <time>2018-11-27T23:28:42Z</time>
      </trkpt>
      <trkpt lat="42.32678" lon="2.70591">
        <ele>292.5</ele>
        <time>2018-11-27T23:28:43Z</time>
      </trkpt>
      <trkpt lat="42.32691" lon="2.70579">
        <ele>291.9</ele>
        <time>2018-11-27T23:28:50Z</time>
      </trkpt>
      <trkpt lat="42.32715" lon="2.70563">
        <ele>292</ele>
        <time>2018-11-27T23:29:00Z</time>
      </trkpt>
      <trkpt lat="42.32721" lon="2.70561">
        <ele>291.4</ele>
        <time>2018-11-27T23:29:02Z</time>
      </trkpt>
      <trkpt lat="42.32731" lon="2.70555">
        <ele>292.5</ele>
        <time>2018-11-27T23:29:07Z</time>
      </trkpt>
      <trkpt lat="42.32753" lon="2.70548">
        <ele>293.8</ele>
        <time>2018-11-27T23:29:16Z</time>
      </trkpt>
      <trkpt lat="42.32757" lon="2.70545">
        <ele>294.3</ele>
        <time>2018-11-27T23:29:18Z</time>
      </trkpt>
      <trkpt lat="42.32768" lon="2.70529">
        <ele>292.9</ele>
        <time>2018-11-27T23:29:25Z</time>
      </trkpt>
      <trkpt lat="42.32773" lon="2.70515">
        <ele>293</ele>
        <time>2018-11-27T23:29:29Z</time>
      </trkpt>
      <trkpt lat="42.32773" lon="2.70511">
        <ele>293.3</ele>
        <time>2018-11-27T23:29:30Z</time>
      </trkpt>
      <trkpt lat="42.32772" lon="2.70504">
        <ele>292.4</ele>
        <time>2018-11-27T23:29:32Z</time>
      </trkpt>
      <trkpt lat="42.32762" lon="2.70481">
        <ele>292</ele>
        <time>2018-11-27T23:29:40Z</time>
      </trkpt>
      <trkpt lat="42.32742" lon="2.70458">
        <ele>292.4</ele>
        <time>2018-11-27T23:29:51Z</time>
      </trkpt>
      <trkpt lat="42.32738" lon="2.70455">
        <ele>293.3</ele>
        <time>2018-11-27T23:29:53Z</time>
      </trkpt>
      <trkpt lat="42.32725" lon="2.70435">
        <ele>296.3</ele>
        <time>2018-11-27T23:30:01Z</time>
      </trkpt>
      <trkpt lat="42.3271" lon="2.70412">
        <ele>299.6</ele>
        <time>2018-11-27T23:30:10Z</time>
      </trkpt>
      <trkpt lat="42.32702" lon="2.70394">
        <ele>302.5</ele>
        <time>2018-11-27T23:30:16Z</time>
      </trkpt>
      <trkpt lat="42.32709" lon="2.70375">
        <ele>305.8</ele>
        <time>2018-11-27T23:30:22Z</time>
      </trkpt>
      <trkpt lat="42.3273" lon="2.70363">
        <ele>305.4</ele>
        <time>2018-11-27T23:30:31Z</time>
      </trkpt>
      <trkpt lat="42.32744" lon="2.70336">
        <ele>305.5</ele>
        <time>2018-11-27T23:30:41Z</time>
      </trkpt>
      <trkpt lat="42.32754" lon="2.70306">
        <ele>307.4</ele>
        <time>2018-11-27T23:30:51Z</time>
      </trkpt>
      <trkpt lat="42.32755" lon="2.70302">
        <ele>307.3</ele>
        <time>2018-11-27T23:30:52Z</time>
      </trkpt>
      <trkpt lat="42.32754" lon="2.70279">
        <ele>305.8</ele>
        <time>2018-11-27T23:30:59Z</time>
      </trkpt>
      <trkpt lat="42.32756" lon="2.70251">
        <ele>305</ele>
        <time>2018-11-27T23:31:07Z</time>
      </trkpt>
      <trkpt lat="42.32758" lon="2.70224">
        <ele>306.9</ele>
        <time>2018-11-27T23:31:15Z</time>
      </trkpt>
      <trkpt lat="42.3276" lon="2.70212">
        <ele>306.9</ele>
        <time>2018-11-27T23:31:19Z</time>
      </trkpt>
      <trkpt lat="42.3276" lon="2.7021">
        <ele>307.4</ele>
        <time>2018-11-27T23:31:19Z</time>
      </trkpt>
      <trkpt lat="42.3276" lon="2.70208">
        <ele>306.8</ele>
        <time>2018-11-27T23:31:20Z</time>
      </trkpt>
      <trkpt lat="42.32774" lon="2.70187">
        <ele>308.7</ele>
        <time>2018-11-27T23:31:28Z</time>
      </trkpt>
      <trkpt lat="42.32798" lon="2.7017">
        <ele>308.7</ele>
        <time>2018-11-27T23:31:39Z</time>
      </trkpt>
      <trkpt lat="42.32803" lon="2.70167">
        <ele>308.7</ele>
        <time>2018-11-27T23:31:41Z</time>
      </trkpt>
      <trkpt lat="42.32814" lon="2.70161">
        <ele>308.3</ele>
        <time>2018-11-27T23:31:46Z</time>
      </trkpt>
      <trkpt lat="42.32821" lon="2.70158">
        <ele>307.4</ele>
        <time>2018-11-27T23:31:49Z</time>
      </trkpt>
      <trkpt lat="42.32833" lon="2.70154">
        <ele>305.9</ele>
        <time>2018-11-27T23:31:54Z</time>
      </trkpt>
      <trkpt lat="42.32848" lon="2.70142">
        <ele>303.9</ele>
        <time>2018-11-27T23:32:01Z</time>
      </trkpt>
      <trkpt lat="42.32863" lon="2.70134">
        <ele>304.9</ele>
        <time>2018-11-27T23:32:07Z</time>
      </trkpt>
      <trkpt lat="42.32879" lon="2.70128">
        <ele>306.8</ele>
        <time>2018-11-27T23:32:14Z</time>
      </trkpt>
      <trkpt lat="42.32889" lon="2.70121">
        <ele>307.9</ele>
        <time>2018-11-27T23:32:19Z</time>
      </trkpt>
      <trkpt lat="42.32898" lon="2.70116">
        <ele>308.8</ele>
        <time>2018-11-27T23:32:22Z</time>
      </trkpt>
      <trkpt lat="42.32911" lon="2.70109">
        <ele>310.7</ele>
        <time>2018-11-27T23:32:28Z</time>
      </trkpt>
      <trkpt lat="42.32914" lon="2.70106">
        <ele>310.6</ele>
        <time>2018-11-27T23:32:30Z</time>
      </trkpt>
      <trkpt lat="42.32916" lon="2.70101">
        <ele>310.6</ele>
        <time>2018-11-27T23:32:31Z</time>
      </trkpt>
      <trkpt lat="42.32915" lon="2.70099">
        <ele>310.2</ele>
        <time>2018-11-27T23:32:32Z</time>
      </trkpt>
      <trkpt lat="42.32914" lon="2.701">
        <ele>310.7</ele>
        <time>2018-11-27T23:32:32Z</time>
      </trkpt>
      <trkpt lat="42.32915" lon="2.70099">
        <ele>310.7</ele>
        <time>2018-11-27T23:32:33Z</time>
      </trkpt>
      <trkpt lat="42.32915" lon="2.70097">
        <ele>310.7</ele>
        <time>2018-11-27T23:32:33Z</time>
      </trkpt>
      <trkpt lat="42.32915" lon="2.70095">
        <ele>310.6</ele>
        <time>2018-11-27T23:32:34Z</time>
      </trkpt>
      <trkpt lat="42.32914" lon="2.70094">
        <ele>310.6</ele>
        <time>2018-11-27T23:32:34Z</time>
      </trkpt>
      <trkpt lat="42.32915" lon="2.70094">
        <ele>310.7</ele>
        <time>2018-11-27T23:32:35Z</time>
      </trkpt>
      <trkpt lat="42.32914" lon="2.70098">
        <ele>310.6</ele>
        <time>2018-11-27T23:32:36Z</time>
      </trkpt>
      <trkpt lat="42.32915" lon="2.70097">
        <ele>310.3</ele>
        <time>2018-11-27T23:32:36Z</time>
      </trkpt>
      <trkpt lat="42.32915" lon="2.70098">
        <ele>311.2</ele>
        <time>2018-11-27T23:32:36Z</time>
      </trkpt>
      <trkpt lat="42.32915" lon="2.70098">
        <ele>311.1</ele>
        <time>2018-11-27T23:32:36Z</time>
      </trkpt>
      <trkpt lat="42.32915" lon="2.70091">
        <ele>310.2</ele>
        <time>2018-11-27T23:32:38Z</time>
      </trkpt>
      <trkpt lat="42.32915" lon="2.70092">
        <ele>309.7</ele>
        <time>2018-11-27T23:32:39Z</time>
      </trkpt>
      <trkpt lat="42.32915" lon="2.70086">
        <ele>309.3</ele>
        <time>2018-11-27T23:32:40Z</time>
      </trkpt>
      <trkpt lat="42.32914" lon="2.70078">
        <ele>307.8</ele>
        <time>2018-11-27T23:32:43Z</time>
      </trkpt>
      <trkpt lat="42.32912" lon="2.70075">
        <ele>305.4</ele>
        <time>2018-11-27T23:32:44Z</time>
      </trkpt>
      <trkpt lat="42.32903" lon="2.7007">
        <ele>304.4</ele>
        <time>2018-11-27T23:32:48Z</time>
      </trkpt>
      <trkpt lat="42.32905" lon="2.70073">
        <ele>305</ele>
        <time>2018-11-27T23:32:49Z</time>
      </trkpt>
      <trkpt lat="42.32908" lon="2.70075">
        <ele>305</ele>
        <time>2018-11-27T23:32:50Z</time>
      </trkpt>
      <trkpt lat="42.32913" lon="2.70077">
        <ele>306.8</ele>
        <time>2018-11-27T23:32:52Z</time>
      </trkpt>
      <trkpt lat="42.32914" lon="2.70076">
        <ele>306.4</ele>
        <time>2018-11-27T23:32:53Z</time>
      </trkpt>
      <trkpt lat="42.32906" lon="2.70074">
        <ele>305</ele>
        <time>2018-11-27T23:32:56Z</time>
      </trkpt>
      <trkpt lat="42.32906" lon="2.70074">
        <ele>305.4</ele>
        <time>2018-11-27T23:32:57Z</time>
      </trkpt>
      <trkpt lat="42.32908" lon="2.70079">
        <ele>304.4</ele>
        <time>2018-11-27T23:32:58Z</time>
      </trkpt>
      <trkpt lat="42.32908" lon="2.70087">
        <ele>306.3</ele>
        <time>2018-11-27T23:33:01Z</time>
      </trkpt>
      <trkpt lat="42.3291" lon="2.70087">
        <ele>308.3</ele>
        <time>2018-11-27T23:33:02Z</time>
      </trkpt>
      <trkpt lat="42.32914" lon="2.70085">
        <ele>309.2</ele>
        <time>2018-11-27T23:33:03Z</time>
      </trkpt>
      <trkpt lat="42.32915" lon="2.70092">
        <ele>311.1</ele>
        <time>2018-11-27T23:33:05Z</time>
      </trkpt>
      <trkpt lat="42.32916" lon="2.70095">
        <ele>312.2</ele>
        <time>2018-11-27T23:33:06Z</time>
      </trkpt>
      <trkpt lat="42.32916" lon="2.70099">
        <ele>311.7</ele>
        <time>2018-11-27T23:33:07Z</time>
      </trkpt>
      <trkpt lat="42.32929" lon="2.70096">
        <ele>312.1</ele>
        <time>2018-11-27T23:33:13Z</time>
      </trkpt>
      <trkpt lat="42.32949" lon="2.70089">
        <ele>313</ele>
        <time>2018-11-27T23:33:21Z</time>
      </trkpt>
      <trkpt lat="42.32963" lon="2.70071">
        <ele>314</ele>
        <time>2018-11-27T23:33:29Z</time>
      </trkpt>
      <trkpt lat="42.32971" lon="2.70054">
        <ele>315.1</ele>
        <time>2018-11-27T23:33:35Z</time>
      </trkpt>
      <trkpt lat="42.32976" lon="2.7003">
        <ele>316.9</ele>
        <time>2018-11-27T23:33:42Z</time>
      </trkpt>
      <trkpt lat="42.32981" lon="2.70011">
        <ele>317.4</ele>
        <time>2018-11-27T23:33:48Z</time>
      </trkpt>
      <trkpt lat="42.32986" lon="2.70006">
        <ele>318.3</ele>
        <time>2018-11-27T23:33:50Z</time>
      </trkpt>
      <trkpt lat="42.3299" lon="2.69997">
        <ele>318.8</ele>
        <time>2018-11-27T23:33:54Z</time>
      </trkpt>
      <trkpt lat="42.3301" lon="2.69977">
        <ele>321.2</ele>
        <time>2018-11-27T23:34:03Z</time>
      </trkpt>
      <trkpt lat="42.33027" lon="2.6997">
        <ele>323.2</ele>
        <time>2018-11-27T23:34:11Z</time>
      </trkpt>
      <trkpt lat="42.33035" lon="2.69973">
        <ele>325.2</ele>
        <time>2018-11-27T23:34:14Z</time>
      </trkpt>
      <trkpt lat="42.33035" lon="2.69973">
        <ele>325.1</ele>
        <time>2018-11-27T23:34:14Z</time>
      </trkpt>
      <trkpt lat="42.33048" lon="2.69965">
        <ele>326.6</ele>
        <time>2018-11-27T23:34:20Z</time>
      </trkpt>
      <trkpt lat="42.33063" lon="2.69963">
        <ele>328.9</ele>
        <time>2018-11-27T23:34:26Z</time>
      </trkpt>
      <trkpt lat="42.33072" lon="2.69956">
        <ele>329.4</ele>
        <time>2018-11-27T23:34:30Z</time>
      </trkpt>
      <trkpt lat="42.33084" lon="2.69947">
        <ele>329</ele>
        <time>2018-11-27T23:34:35Z</time>
      </trkpt>
      <trkpt lat="42.33097" lon="2.69946">
        <ele>328.4</ele>
        <time>2018-11-27T23:34:40Z</time>
      </trkpt>
      <trkpt lat="42.33109" lon="2.69949">
        <ele>327.5</ele>
        <time>2018-11-27T23:34:45Z</time>
      </trkpt>
      <trkpt lat="42.33121" lon="2.69954">
        <ele>325.1</ele>
        <time>2018-11-27T23:34:50Z</time>
      </trkpt>
      <trkpt lat="42.33129" lon="2.69964">
        <ele>323.6</ele>
        <time>2018-11-27T23:34:55Z</time>
      </trkpt>
      <trkpt lat="42.33139" lon="2.69972">
        <ele>321.3</ele>
        <time>2018-11-27T23:34:59Z</time>
      </trkpt>
      <trkpt lat="42.33152" lon="2.69983">
        <ele>319.9</ele>
        <time>2018-11-27T23:35:06Z</time>
      </trkpt>
      <trkpt lat="42.33158" lon="2.69991">
        <ele>320.3</ele>
        <time>2018-11-27T23:35:09Z</time>
      </trkpt>
      <trkpt lat="42.33166" lon="2.69997">
        <ele>319.9</ele>
        <time>2018-11-27T23:35:12Z</time>
      </trkpt>
      <trkpt lat="42.33171" lon="2.69999">
        <ele>317.9</ele>
        <time>2018-11-27T23:35:15Z</time>
      </trkpt>
      <trkpt lat="42.33178" lon="2.70003">
        <ele>317</ele>
        <time>2018-11-27T23:35:18Z</time>
      </trkpt>
      <trkpt lat="42.33187" lon="2.70013">
        <ele>316.9</ele>
        <time>2018-11-27T23:35:22Z</time>
      </trkpt>
      <trkpt lat="42.33193" lon="2.70014">
        <ele>317.4</ele>
        <time>2018-11-27T23:35:25Z</time>
      </trkpt>
      <trkpt lat="42.33198" lon="2.70016">
        <ele>317.5</ele>
        <time>2018-11-27T23:35:27Z</time>
      </trkpt>
      <trkpt lat="42.3321" lon="2.70024">
        <ele>317.9</ele>
        <time>2018-11-27T23:35:32Z</time>
      </trkpt>
      <trkpt lat="42.33215" lon="2.70025">
        <ele>317.9</ele>
        <time>2018-11-27T23:35:34Z</time>
      </trkpt>
      <trkpt lat="42.33219" lon="2.70035">
        <ele>318</ele>
        <time>2018-11-27T23:35:37Z</time>
      </trkpt>
      <trkpt lat="42.33227" lon="2.70033">
        <ele>318.4</ele>
        <time>2018-11-27T23:35:41Z</time>
      </trkpt>
      <trkpt lat="42.33235" lon="2.70037">
        <ele>318.3</ele>
        <time>2018-11-27T23:35:44Z</time>
      </trkpt>
      <trkpt lat="42.33244" lon="2.70046">
        <ele>318.4</ele>
        <time>2018-11-27T23:35:48Z</time>
      </trkpt>
      <trkpt lat="42.33249" lon="2.70044">
        <ele>318.9</ele>
        <time>2018-11-27T23:35:51Z</time>
      </trkpt>
      <trkpt lat="42.33256" lon="2.7004">
        <ele>318.3</ele>
        <time>2018-11-27T23:35:54Z</time>
      </trkpt>
      <trkpt lat="42.33265" lon="2.7002">
        <ele>318.4</ele>
        <time>2018-11-27T23:36:01Z</time>
      </trkpt>
      <trkpt lat="42.33268" lon="2.70009">
        <ele>318.8</ele>
        <time>2018-11-27T23:36:04Z</time>
      </trkpt>
      <trkpt lat="42.33269" lon="2.70006">
        <ele>317.4</ele>
        <time>2018-11-27T23:36:05Z</time>
      </trkpt>
      <trkpt lat="42.33276" lon="2.70022">
        <ele>317.9</ele>
        <time>2018-11-27T23:36:10Z</time>
      </trkpt>
      <trkpt lat="42.33277" lon="2.70018">
        <ele>317.4</ele>
        <time>2018-11-27T23:36:12Z</time>
      </trkpt>
      <trkpt lat="42.33277" lon="2.70018">
        <ele>317.4</ele>
        <time>2018-11-27T23:36:12Z</time>
      </trkpt>
      <trkpt lat="42.33278" lon="2.70017">
        <ele>316.9</ele>
        <time>2018-11-27T23:36:12Z</time>
      </trkpt>
      <trkpt lat="42.33276" lon="2.70013">
        <ele>317.4</ele>
        <time>2018-11-27T23:36:14Z</time>
      </trkpt>
      <trkpt lat="42.33275" lon="2.70012">
        <ele>317.4</ele>
        <time>2018-11-27T23:36:14Z</time>
      </trkpt>
      <trkpt lat="42.33276" lon="2.7001">
        <ele>317.5</ele>
        <time>2018-11-27T23:36:15Z</time>
      </trkpt>
      <trkpt lat="42.3328" lon="2.70011">
        <ele>318.4</ele>
        <time>2018-11-27T23:36:16Z</time>
      </trkpt>
      <trkpt lat="42.33276" lon="2.70016">
        <ele>318</ele>
        <time>2018-11-27T23:36:18Z</time>
      </trkpt>
      <trkpt lat="42.33275" lon="2.70017">
        <ele>316.4</ele>
        <time>2018-11-27T23:36:19Z</time>
      </trkpt>
      <trkpt lat="42.33275" lon="2.70018">
        <ele>316</ele>
        <time>2018-11-27T23:36:19Z</time>
      </trkpt>
      <trkpt lat="42.33273" lon="2.70015">
        <ele>316.9</ele>
        <time>2018-11-27T23:36:20Z</time>
      </trkpt>
      <trkpt lat="42.33276" lon="2.70013">
        <ele>316.4</ele>
        <time>2018-11-27T23:36:21Z</time>
      </trkpt>
      <trkpt lat="42.33279" lon="2.70013">
        <ele>317.4</ele>
        <time>2018-11-27T23:36:23Z</time>
      </trkpt>
      <trkpt lat="42.33287" lon="2.70011">
        <ele>318.8</ele>
        <time>2018-11-27T23:36:26Z</time>
      </trkpt>
      <trkpt lat="42.33295" lon="2.70002">
        <ele>319.9</ele>
        <time>2018-11-27T23:36:30Z</time>
      </trkpt>
      <trkpt lat="42.33299" lon="2.69992">
        <ele>320.4</ele>
        <time>2018-11-27T23:36:33Z</time>
      </trkpt>
      <trkpt lat="42.33302" lon="2.69983">
        <ele>321.3</ele>
        <time>2018-11-27T23:36:36Z</time>
      </trkpt>
      <trkpt lat="42.33307" lon="2.69972">
        <ele>321.8</ele>
        <time>2018-11-27T23:36:40Z</time>
      </trkpt>
      <trkpt lat="42.33315" lon="2.69959">
        <ele>323.1</ele>
        <time>2018-11-27T23:36:45Z</time>
      </trkpt>
      <trkpt lat="42.33321" lon="2.69955">
        <ele>323.2</ele>
        <time>2018-11-27T23:36:47Z</time>
      </trkpt>
      <trkpt lat="42.33329" lon="2.69941">
        <ele>325.1</ele>
        <time>2018-11-27T23:36:53Z</time>
      </trkpt>
      <trkpt lat="42.33329" lon="2.6994">
        <ele>325.1</ele>
        <time>2018-11-27T23:36:53Z</time>
      </trkpt>
      <trkpt lat="42.33336" lon="2.69923">
        <ele>327.6</ele>
        <time>2018-11-27T23:36:59Z</time>
      </trkpt>
      <trkpt lat="42.33339" lon="2.69918">
        <ele>327.9</ele>
        <time>2018-11-27T23:37:01Z</time>
      </trkpt>
      <trkpt lat="42.33344" lon="2.69902">
        <ele>329.4</ele>
        <time>2018-11-27T23:37:06Z</time>
      </trkpt>
      <trkpt lat="42.3335" lon="2.69893">
        <ele>329.9</ele>
        <time>2018-11-27T23:37:09Z</time>
      </trkpt>
      <trkpt lat="42.3336" lon="2.69889">
        <ele>332.4</ele>
        <time>2018-11-27T23:37:13Z</time>
      </trkpt>
      <trkpt lat="42.3337" lon="2.69886">
        <ele>334.2</ele>
        <time>2018-11-27T23:37:18Z</time>
      </trkpt>
      <trkpt lat="42.33378" lon="2.69883">
        <ele>335.6</ele>
        <time>2018-11-27T23:37:21Z</time>
      </trkpt>
      <trkpt lat="42.33384" lon="2.69876">
        <ele>338</ele>
        <time>2018-11-27T23:37:24Z</time>
      </trkpt>
      <trkpt lat="42.33394" lon="2.69874">
        <ele>339.6</ele>
        <time>2018-11-27T23:37:28Z</time>
      </trkpt>
      <trkpt lat="42.33396" lon="2.69873">
        <ele>340</ele>
        <time>2018-11-27T23:37:29Z</time>
      </trkpt>
      <trkpt lat="42.33406" lon="2.69863">
        <ele>340.5</ele>
        <time>2018-11-27T23:37:34Z</time>
      </trkpt>
      <trkpt lat="42.33409" lon="2.69859">
        <ele>341</ele>
        <time>2018-11-27T23:37:36Z</time>
      </trkpt>
      <trkpt lat="42.33422" lon="2.6986">
        <ele>343.9</ele>
        <time>2018-11-27T23:37:41Z</time>
      </trkpt>
      <trkpt lat="42.33434" lon="2.69861">
        <ele>343.9</ele>
        <time>2018-11-27T23:37:46Z</time>
      </trkpt>
      <trkpt lat="42.33443" lon="2.69862">
        <ele>344.3</ele>
        <time>2018-11-27T23:37:50Z</time>
      </trkpt>
      <trkpt lat="42.33451" lon="2.69865">
        <ele>343.8</ele>
        <time>2018-11-27T23:37:53Z</time>
      </trkpt>
      <trkpt lat="42.33455" lon="2.69862">
        <ele>343.3</ele>
        <time>2018-11-27T23:37:54Z</time>
      </trkpt>
      <trkpt lat="42.33464" lon="2.69857">
        <ele>342.4</ele>
        <time>2018-11-27T23:37:58Z</time>
      </trkpt>
      <trkpt lat="42.33475" lon="2.69853">
        <ele>342.5</ele>
        <time>2018-11-27T23:38:03Z</time>
      </trkpt>
      <trkpt lat="42.33484" lon="2.69853">
        <ele>343.4</ele>
        <time>2018-11-27T23:38:06Z</time>
      </trkpt>
      <trkpt lat="42.33491" lon="2.69848">
        <ele>344.9</ele>
        <time>2018-11-27T23:38:09Z</time>
      </trkpt>
      <trkpt lat="42.33499" lon="2.69842">
        <ele>345.8</ele>
        <time>2018-11-27T23:38:13Z</time>
      </trkpt>
      <trkpt lat="42.33509" lon="2.69841">
        <ele>345.7</ele>
        <time>2018-11-27T23:38:17Z</time>
      </trkpt>
      <trkpt lat="42.33517" lon="2.69835">
        <ele>347.3</ele>
        <time>2018-11-27T23:38:21Z</time>
      </trkpt>
      <trkpt lat="42.33525" lon="2.69829">
        <ele>347.7</ele>
        <time>2018-11-27T23:38:24Z</time>
      </trkpt>
      <trkpt lat="42.33532" lon="2.6982">
        <ele>349.7</ele>
        <time>2018-11-27T23:38:28Z</time>
      </trkpt>
      <trkpt lat="42.33539" lon="2.69819">
        <ele>351</ele>
        <time>2018-11-27T23:38:31Z</time>
      </trkpt>
      <trkpt lat="42.33546" lon="2.69808">
        <ele>353.4</ele>
        <time>2018-11-27T23:38:35Z</time>
      </trkpt>
      <trkpt lat="42.3355" lon="2.69803">
        <ele>355</ele>
        <time>2018-11-27T23:38:38Z</time>
      </trkpt>
      <trkpt lat="42.33556" lon="2.69795">
        <ele>356.3</ele>
        <time>2018-11-27T23:38:41Z</time>
      </trkpt>
      <trkpt lat="42.3356" lon="2.69779">
        <ele>356.3</ele>
        <time>2018-11-27T23:38:46Z</time>
      </trkpt>
      <trkpt lat="42.33566" lon="2.69766">
        <ele>355.9</ele>
        <time>2018-11-27T23:38:51Z</time>
      </trkpt>
      <trkpt lat="42.33569" lon="2.69755">
        <ele>355.3</ele>
        <time>2018-11-27T23:38:54Z</time>
      </trkpt>
      <trkpt lat="42.33574" lon="2.6975">
        <ele>355.3</ele>
        <time>2018-11-27T23:38:56Z</time>
      </trkpt>
      <trkpt lat="42.3358" lon="2.69739">
        <ele>354.9</ele>
        <time>2018-11-27T23:39:00Z</time>
      </trkpt>
      <trkpt lat="42.33586" lon="2.69728">
        <ele>355.9</ele>
        <time>2018-11-27T23:39:04Z</time>
      </trkpt>
      <trkpt lat="42.33592" lon="2.69718">
        <ele>355.9</ele>
        <time>2018-11-27T23:39:08Z</time>
      </trkpt>
      <trkpt lat="42.33595" lon="2.69713">
        <ele>356.9</ele>
        <time>2018-11-27T23:39:10Z</time>
      </trkpt>
      <trkpt lat="42.33598" lon="2.69702">
        <ele>355.3</ele>
        <time>2018-11-27T23:39:14Z</time>
      </trkpt>
      <trkpt lat="42.33606" lon="2.69695">
        <ele>355.8</ele>
        <time>2018-11-27T23:39:18Z</time>
      </trkpt>
      <trkpt lat="42.33612" lon="2.6969">
        <ele>358.2</ele>
        <time>2018-11-27T23:39:20Z</time>
      </trkpt>
      <trkpt lat="42.33617" lon="2.69687">
        <ele>359.7</ele>
        <time>2018-11-27T23:39:23Z</time>
      </trkpt>
      <trkpt lat="42.33624" lon="2.69687">
        <ele>360.2</ele>
        <time>2018-11-27T23:39:25Z</time>
      </trkpt>
      <trkpt lat="42.33633" lon="2.69683">
        <ele>360.3</ele>
        <time>2018-11-27T23:39:29Z</time>
      </trkpt>
      <trkpt lat="42.33648" lon="2.69673">
        <ele>361.6</ele>
        <time>2018-11-27T23:39:36Z</time>
      </trkpt>
      <trkpt lat="42.33661" lon="2.69662">
        <ele>361.7</ele>
        <time>2018-11-27T23:39:42Z</time>
      </trkpt>
      <trkpt lat="42.33666" lon="2.69657">
        <ele>361.7</ele>
        <time>2018-11-27T23:39:44Z</time>
      </trkpt>
      <trkpt lat="42.33679" lon="2.69648">
        <ele>360.7</ele>
        <time>2018-11-27T23:39:50Z</time>
      </trkpt>
      <trkpt lat="42.33679" lon="2.69646">
        <ele>361.1</ele>
        <time>2018-11-27T23:39:51Z</time>
      </trkpt>
      <trkpt lat="42.3368" lon="2.69643">
        <ele>361.1</ele>
        <time>2018-11-27T23:39:52Z</time>
      </trkpt>
      <trkpt lat="42.33684" lon="2.69641">
        <ele>360.2</ele>
        <time>2018-11-27T23:39:54Z</time>
      </trkpt>
      <trkpt lat="42.33684" lon="2.69635">
        <ele>358.2</ele>
        <time>2018-11-27T23:39:55Z</time>
      </trkpt>
      <trkpt lat="42.33683" lon="2.69629">
        <ele>356.9</ele>
        <time>2018-11-27T23:39:57Z</time>
      </trkpt>
      <trkpt lat="42.33687" lon="2.69623">
        <ele>354.5</ele>
        <time>2018-11-27T23:40:00Z</time>
      </trkpt>
      <trkpt lat="42.33688" lon="2.69617">
        <ele>353.9</ele>
        <time>2018-11-27T23:40:01Z</time>
      </trkpt>
      <trkpt lat="42.33693" lon="2.69613">
        <ele>352.5</ele>
        <time>2018-11-27T23:40:04Z</time>
      </trkpt>
      <trkpt lat="42.33701" lon="2.69612">
        <ele>351</ele>
        <time>2018-11-27T23:40:07Z</time>
      </trkpt>
      <trkpt lat="42.33711" lon="2.69617">
        <ele>348.1</ele>
        <time>2018-11-27T23:40:11Z</time>
      </trkpt>
      <trkpt lat="42.33712" lon="2.69624">
        <ele>346.2</ele>
        <time>2018-11-27T23:40:13Z</time>
      </trkpt>
      <trkpt lat="42.33721" lon="2.69631">
        <ele>344.9</ele>
        <time>2018-11-27T23:40:17Z</time>
      </trkpt>
      <trkpt lat="42.33731" lon="2.69636">
        <ele>344.4</ele>
        <time>2018-11-27T23:40:21Z</time>
      </trkpt>
      <trkpt lat="42.33738" lon="2.69639">
        <ele>344.3</ele>
        <time>2018-11-27T23:40:24Z</time>
      </trkpt>
      <trkpt lat="42.33737" lon="2.69638">
        <ele>343.3</ele>
        <time>2018-11-27T23:40:25Z</time>
      </trkpt>
      <trkpt lat="42.33742" lon="2.69643">
        <ele>342.4</ele>
        <time>2018-11-27T23:40:27Z</time>
      </trkpt>
      <trkpt lat="42.33745" lon="2.69641">
        <ele>340</ele>
        <time>2018-11-27T23:40:29Z</time>
      </trkpt>
      <trkpt lat="42.33749" lon="2.69641">
        <ele>340.5</ele>
        <time>2018-11-27T23:40:30Z</time>
      </trkpt>
      <trkpt lat="42.33753" lon="2.69638">
        <ele>339.5</ele>
        <time>2018-11-27T23:40:32Z</time>
      </trkpt>
      <trkpt lat="42.33742" lon="2.69637">
        <ele>340.4</ele>
        <time>2018-11-27T23:40:36Z</time>
      </trkpt>
      <trkpt lat="42.33746" lon="2.6964">
        <ele>340</ele>
        <time>2018-11-27T23:40:38Z</time>
      </trkpt>
      <trkpt lat="42.33743" lon="2.69642">
        <ele>340.1</ele>
        <time>2018-11-27T23:40:40Z</time>
      </trkpt>
      <trkpt lat="42.33744" lon="2.69642">
        <ele>340</ele>
        <time>2018-11-27T23:40:40Z</time>
      </trkpt>
      <trkpt lat="42.33747" lon="2.69639">
        <ele>340</ele>
        <time>2018-11-27T23:40:41Z</time>
      </trkpt>
      <trkpt lat="42.33749" lon="2.69635">
        <ele>339.1</ele>
        <time>2018-11-27T23:40:43Z</time>
      </trkpt>
      <trkpt lat="42.33749" lon="2.69633">
        <ele>339.6</ele>
        <time>2018-11-27T23:40:43Z</time>
      </trkpt>
      <trkpt lat="42.33749" lon="2.69624">
        <ele>341.4</ele>
        <time>2018-11-27T23:40:46Z</time>
      </trkpt>
      <trkpt lat="42.3374" lon="2.69614">
        <ele>341.4</ele>
        <time>2018-11-27T23:40:51Z</time>
      </trkpt>
      <trkpt lat="42.33738" lon="2.69602">
        <ele>341.9</ele>
        <time>2018-11-27T23:40:54Z</time>
      </trkpt>
      <trkpt lat="42.33742" lon="2.69599">
        <ele>344.4</ele>
        <time>2018-11-27T23:40:56Z</time>
      </trkpt>
      <trkpt lat="42.33745" lon="2.69593">
        <ele>346.3</ele>
        <time>2018-11-27T23:40:58Z</time>
      </trkpt>
      <trkpt lat="42.33754" lon="2.69593">
        <ele>349.6</ele>
        <time>2018-11-27T23:41:02Z</time>
      </trkpt>
      <trkpt lat="42.33759" lon="2.69595">
        <ele>351</ele>
        <time>2018-11-27T23:41:04Z</time>
      </trkpt>
      <trkpt lat="42.33762" lon="2.69584">
        <ele>353.9</ele>
        <time>2018-11-27T23:41:08Z</time>
      </trkpt>
      <trkpt lat="42.33767" lon="2.69581">
        <ele>355.8</ele>
        <time>2018-11-27T23:41:10Z</time>
      </trkpt>
      <trkpt lat="42.3377" lon="2.69579">
        <ele>358.7</ele>
        <time>2018-11-27T23:41:11Z</time>
      </trkpt>
      <trkpt lat="42.33773" lon="2.69572">
        <ele>361.7</ele>
        <time>2018-11-27T23:41:14Z</time>
      </trkpt>
      <trkpt lat="42.33776" lon="2.69565">
        <ele>364.1</ele>
        <time>2018-11-27T23:41:16Z</time>
      </trkpt>
      <trkpt lat="42.33779" lon="2.69561">
        <ele>366.4</ele>
        <time>2018-11-27T23:41:18Z</time>
      </trkpt>
      <trkpt lat="42.33783" lon="2.69562">
        <ele>368.8</ele>
        <time>2018-11-27T23:41:19Z</time>
      </trkpt>
      <trkpt lat="42.33787" lon="2.6956">
        <ele>371.2</ele>
        <time>2018-11-27T23:41:21Z</time>
      </trkpt>
      <trkpt lat="42.33784" lon="2.69552">
        <ele>371.2</ele>
        <time>2018-11-27T23:41:24Z</time>
      </trkpt>
      <trkpt lat="42.3377" lon="2.69532">
        <ele>372.2</ele>
        <time>2018-11-27T23:41:32Z</time>
      </trkpt>
      <trkpt lat="42.33769" lon="2.69526">
        <ele>372.3</ele>
        <time>2018-11-27T23:41:34Z</time>
      </trkpt>
      <trkpt lat="42.33772" lon="2.69519">
        <ele>371.2</ele>
        <time>2018-11-27T23:41:36Z</time>
      </trkpt>
      <trkpt lat="42.33789" lon="2.69499">
        <ele>368.9</ele>
        <time>2018-11-27T23:41:45Z</time>
      </trkpt>
      <trkpt lat="42.33805" lon="2.69478">
        <ele>367.9</ele>
        <time>2018-11-27T23:41:54Z</time>
      </trkpt>
      <trkpt lat="42.33806" lon="2.69474">
        <ele>368.3</ele>
        <time>2018-11-27T23:41:55Z</time>
      </trkpt>
      <trkpt lat="42.33809" lon="2.69447">
        <ele>367.9</ele>
        <time>2018-11-27T23:42:04Z</time>
      </trkpt>
      <trkpt lat="42.33811" lon="2.69413">
        <ele>366.9</ele>
        <time>2018-11-27T23:42:13Z</time>
      </trkpt>
      <trkpt lat="42.33811" lon="2.69409">
        <ele>367.4</ele>
        <time>2018-11-27T23:42:15Z</time>
      </trkpt>
      <trkpt lat="42.3381" lon="2.69373">
        <ele>367.8</ele>
        <time>2018-11-27T23:42:25Z</time>
      </trkpt>
      <trkpt lat="42.33812" lon="2.69347">
        <ele>365.9</ele>
        <time>2018-11-27T23:42:33Z</time>
      </trkpt>
      <trkpt lat="42.33816" lon="2.69331">
        <ele>365.5</ele>
        <time>2018-11-27T23:42:38Z</time>
      </trkpt>
      <trkpt lat="42.33823" lon="2.69313">
        <ele>363.5</ele>
        <time>2018-11-27T23:42:44Z</time>
      </trkpt>
      <trkpt lat="42.33826" lon="2.69306">
        <ele>362.7</ele>
        <time>2018-11-27T23:42:46Z</time>
      </trkpt>
      <trkpt lat="42.33831" lon="2.69292">
        <ele>362.1</ele>
        <time>2018-11-27T23:42:51Z</time>
      </trkpt>
      <trkpt lat="42.33832" lon="2.69282">
        <ele>361.6</ele>
        <time>2018-11-27T23:42:54Z</time>
      </trkpt>
      <trkpt lat="42.33829" lon="2.69278">
        <ele>361.6</ele>
        <time>2018-11-27T23:42:56Z</time>
      </trkpt>
      <trkpt lat="42.33828" lon="2.69272">
        <ele>361.2</ele>
        <time>2018-11-27T23:42:57Z</time>
      </trkpt>
      <trkpt lat="42.33823" lon="2.69246">
        <ele>360.7</ele>
        <time>2018-11-27T23:43:05Z</time>
      </trkpt>
      <trkpt lat="42.33831" lon="2.69217">
        <ele>359.8</ele>
        <time>2018-11-27T23:43:14Z</time>
      </trkpt>
      <trkpt lat="42.33816" lon="2.69204">
        <ele>361.1</ele>
        <time>2018-11-27T23:43:21Z</time>
      </trkpt>
      <trkpt lat="42.33809" lon="2.69193">
        <ele>361.1</ele>
        <time>2018-11-27T23:43:26Z</time>
      </trkpt>
      <trkpt lat="42.33808" lon="2.6919">
        <ele>360.7</ele>
        <time>2018-11-27T23:43:27Z</time>
      </trkpt>
      <trkpt lat="42.33797" lon="2.69168">
        <ele>361.2</ele>
        <time>2018-11-27T23:43:35Z</time>
      </trkpt>
      <trkpt lat="42.33794" lon="2.69164">
        <ele>360.7</ele>
        <time>2018-11-27T23:43:36Z</time>
      </trkpt>
      <trkpt lat="42.33787" lon="2.69155">
        <ele>361.2</ele>
        <time>2018-11-27T23:43:40Z</time>
      </trkpt>
      <trkpt lat="42.33782" lon="2.69146">
        <ele>361.1</ele>
        <time>2018-11-27T23:43:44Z</time>
      </trkpt>
      <trkpt lat="42.33772" lon="2.69127">
        <ele>360.3</ele>
        <time>2018-11-27T23:43:50Z</time>
      </trkpt>
      <trkpt lat="42.33767" lon="2.69119">
        <ele>360.7</ele>
        <time>2018-11-27T23:43:53Z</time>
      </trkpt>
      <trkpt lat="42.33751" lon="2.69093">
        <ele>360.6</ele>
        <time>2018-11-27T23:44:03Z</time>
      </trkpt>
      <trkpt lat="42.33744" lon="2.69078">
        <ele>362.7</ele>
        <time>2018-11-27T23:44:09Z</time>
      </trkpt>
      <trkpt lat="42.33733" lon="2.69056">
        <ele>360.7</ele>
        <time>2018-11-27T23:44:17Z</time>
      </trkpt>
      <trkpt lat="42.33728" lon="2.69043">
        <ele>360.6</ele>
        <time>2018-11-27T23:44:21Z</time>
      </trkpt>
      <trkpt lat="42.33723" lon="2.69024">
        <ele>359.2</ele>
        <time>2018-11-27T23:44:27Z</time>
      </trkpt>
      <trkpt lat="42.33716" lon="2.68997">
        <ele>357.8</ele>
        <time>2018-11-27T23:44:36Z</time>
      </trkpt>
      <trkpt lat="42.33708" lon="2.68966">
        <ele>358.2</ele>
        <time>2018-11-27T23:44:45Z</time>
      </trkpt>
      <trkpt lat="42.33708" lon="2.68963">
        <ele>358.7</ele>
        <time>2018-11-27T23:44:46Z</time>
      </trkpt>
      <trkpt lat="42.33711" lon="2.68936">
        <ele>357.7</ele>
        <time>2018-11-27T23:44:54Z</time>
      </trkpt>
      <trkpt lat="42.33716" lon="2.68906">
        <ele>356.4</ele>
        <time>2018-11-27T23:45:03Z</time>
      </trkpt>
      <trkpt lat="42.33698" lon="2.68904">
        <ele>358.2</ele>
        <time>2018-11-27T23:45:10Z</time>
      </trkpt>
      <trkpt lat="42.33684" lon="2.68892">
        <ele>359.2</ele>
        <time>2018-11-27T23:45:17Z</time>
      </trkpt>
      <trkpt lat="42.33679" lon="2.68863">
        <ele>360.7</ele>
        <time>2018-11-27T23:45:26Z</time>
      </trkpt>
      <trkpt lat="42.33672" lon="2.68838">
        <ele>364.1</ele>
        <time>2018-11-27T23:45:34Z</time>
      </trkpt>
      <trkpt lat="42.33653" lon="2.6881">
        <ele>366.4</ele>
        <time>2018-11-27T23:45:45Z</time>
      </trkpt>
      <trkpt lat="42.33645" lon="2.68783">
        <ele>369.8</ele>
        <time>2018-11-27T23:45:54Z</time>
      </trkpt>
      <trkpt lat="42.33643" lon="2.68761">
        <ele>373.1</ele>
        <time>2018-11-27T23:46:00Z</time>
      </trkpt>
      <trkpt lat="42.33657" lon="2.68744">
        <ele>376.1</ele>
        <time>2018-11-27T23:46:08Z</time>
      </trkpt>
      <trkpt lat="42.33674" lon="2.68732">
        <ele>378.4</ele>
        <time>2018-11-27T23:46:16Z</time>
      </trkpt>
      <trkpt lat="42.33693" lon="2.68725">
        <ele>381.9</ele>
        <time>2018-11-27T23:46:24Z</time>
      </trkpt>
      <trkpt lat="42.33709" lon="2.6871">
        <ele>383.8</ele>
        <time>2018-11-27T23:46:31Z</time>
      </trkpt>
      <trkpt lat="42.33711" lon="2.68706">
        <ele>369.4</ele>
        <time>2018-11-27T23:46:33Z</time>
      </trkpt>
      <trkpt lat="42.3372" lon="2.68688">
        <ele>369.5</ele>
        <time>2018-11-27T23:46:39Z</time>
      </trkpt>
      <trkpt lat="42.33725" lon="2.68663">
        <ele>367</ele>
        <time>2018-11-27T23:46:47Z</time>
      </trkpt>
      <trkpt lat="42.33726" lon="2.68635">
        <ele>362.4</ele>
        <time>2018-11-27T23:46:55Z</time>
      </trkpt>
      <trkpt lat="42.33733" lon="2.68613">
        <ele>361.4</ele>
        <time>2018-11-27T23:47:02Z</time>
      </trkpt>
      <trkpt lat="42.33738" lon="2.68588">
        <ele>359.5</ele>
        <time>2018-11-27T23:47:10Z</time>
      </trkpt>
      <trkpt lat="42.33745" lon="2.68567">
        <ele>359.1</ele>
        <time>2018-11-27T23:47:17Z</time>
      </trkpt>
      <trkpt lat="42.33751" lon="2.68544">
        <ele>356.6</ele>
        <time>2018-11-27T23:47:24Z</time>
      </trkpt>
      <trkpt lat="42.33759" lon="2.68524">
        <ele>356.6</ele>
        <time>2018-11-27T23:47:31Z</time>
      </trkpt>
      <trkpt lat="42.33746" lon="2.6851">
        <ele>350.1</ele>
        <time>2018-11-27T23:47:37Z</time>
      </trkpt>
      <trkpt lat="42.33732" lon="2.68522">
        <ele>348.6</ele>
        <time>2018-11-27T23:47:44Z</time>
      </trkpt>
      <trkpt lat="42.33723" lon="2.6854">
        <ele>348.4</ele>
        <time>2018-11-27T23:47:50Z</time>
      </trkpt>
      <trkpt lat="42.33723" lon="2.68511">
        <ele>346</ele>
        <time>2018-11-27T23:47:59Z</time>
      </trkpt>
      <trkpt lat="42.33726" lon="2.68484">
        <ele>349.5</ele>
        <time>2018-11-27T23:48:07Z</time>
      </trkpt>
      <trkpt lat="42.3371" lon="2.68493">
        <ele>350.6</ele>
        <time>2018-11-27T23:48:14Z</time>
      </trkpt>
      <trkpt lat="42.33698" lon="2.68508">
        <ele>349.1</ele>
        <time>2018-11-27T23:48:20Z</time>
      </trkpt>
      <trkpt lat="42.33683" lon="2.68519">
        <ele>351.9</ele>
        <time>2018-11-27T23:48:27Z</time>
      </trkpt>
      <trkpt lat="42.33668" lon="2.68529">
        <ele>353.3</ele>
        <time>2018-11-27T23:48:34Z</time>
      </trkpt>
      <trkpt lat="42.33652" lon="2.68539">
        <ele>353.6</ele>
        <time>2018-11-27T23:48:41Z</time>
      </trkpt>
      <trkpt lat="42.33636" lon="2.68548">
        <ele>354.6</ele>
        <time>2018-11-27T23:48:48Z</time>
      </trkpt>
      <trkpt lat="42.3362" lon="2.68557">
        <ele>354.5</ele>
        <time>2018-11-27T23:48:55Z</time>
      </trkpt>
      <trkpt lat="42.33604" lon="2.68567">
        <ele>352.3</ele>
        <time>2018-11-27T23:49:02Z</time>
      </trkpt>
      <trkpt lat="42.33584" lon="2.68572">
        <ele>350.2</ele>
        <time>2018-11-27T23:49:10Z</time>
      </trkpt>
      <trkpt lat="42.3357" lon="2.68559">
        <ele>349.7</ele>
        <time>2018-11-27T23:49:17Z</time>
      </trkpt>
      <trkpt lat="42.33558" lon="2.68545">
        <ele>349</ele>
        <time>2018-11-27T23:49:23Z</time>
      </trkpt>
      <trkpt lat="42.33546" lon="2.6853">
        <ele>349</ele>
        <time>2018-11-27T23:49:30Z</time>
      </trkpt>
      <trkpt lat="42.33536" lon="2.68511">
        <ele>347.9</ele>
        <time>2018-11-27T23:49:37Z</time>
      </trkpt>
      <trkpt lat="42.33529" lon="2.68488">
        <ele>348</ele>
        <time>2018-11-27T23:49:44Z</time>
      </trkpt>
      <trkpt lat="42.33524" lon="2.68464">
        <ele>348.5</ele>
        <time>2018-11-27T23:49:52Z</time>
      </trkpt>
      <trkpt lat="42.33519" lon="2.68436">
        <ele>348.5</ele>
        <time>2018-11-27T23:50:00Z</time>
      </trkpt>
      <trkpt lat="42.33515" lon="2.68409">
        <ele>348.1</ele>
        <time>2018-11-27T23:50:08Z</time>
      </trkpt>
      <trkpt lat="42.33513" lon="2.68381">
        <ele>348</ele>
        <time>2018-11-27T23:50:17Z</time>
      </trkpt>
      <trkpt lat="42.33506" lon="2.68357">
        <ele>345.5</ele>
        <time>2018-11-27T23:50:24Z</time>
      </trkpt>
      <trkpt lat="42.33501" lon="2.68333">
        <ele>344.9</ele>
        <time>2018-11-27T23:50:32Z</time>
      </trkpt>
      <trkpt lat="42.33498" lon="2.68305">
        <ele>345</ele>
        <time>2018-11-27T23:50:40Z</time>
      </trkpt>
      <trkpt lat="42.33499" lon="2.68274">
        <ele>346.3</ele>
        <time>2018-11-27T23:50:49Z</time>
      </trkpt>
      <trkpt lat="42.33495" lon="2.68249">
        <ele>346.8</ele>
        <time>2018-11-27T23:50:57Z</time>
      </trkpt>
      <trkpt lat="42.33493" lon="2.68219">
        <ele>347.1</ele>
        <time>2018-11-27T23:51:06Z</time>
      </trkpt>
      <trkpt lat="42.33486" lon="2.68196">
        <ele>345.9</ele>
        <time>2018-11-27T23:51:13Z</time>
      </trkpt>
      <trkpt lat="42.33477" lon="2.68179">
        <ele>344.8</ele>
        <time>2018-11-27T23:51:19Z</time>
      </trkpt>
      <trkpt lat="42.33463" lon="2.68166">
        <ele>345.5</ele>
        <time>2018-11-27T23:51:26Z</time>
      </trkpt>
      <trkpt lat="42.33445" lon="2.6816">
        <ele>346.7</ele>
        <time>2018-11-27T23:51:33Z</time>
      </trkpt>
      <trkpt lat="42.33421" lon="2.68158">
        <ele>349</ele>
        <time>2018-11-27T23:51:43Z</time>
      </trkpt>
      <trkpt lat="42.33407" lon="2.68143">
        <ele>348.4</ele>
        <time>2018-11-27T23:51:50Z</time>
      </trkpt>
      <trkpt lat="42.33401" lon="2.68121">
        <ele>347.5</ele>
        <time>2018-11-27T23:51:57Z</time>
      </trkpt>
      <trkpt lat="42.33393" lon="2.681">
        <ele>347.6</ele>
        <time>2018-11-27T23:52:04Z</time>
      </trkpt>
      <trkpt lat="42.33387" lon="2.68077">
        <ele>348.1</ele>
        <time>2018-11-27T23:52:11Z</time>
      </trkpt>
      <trkpt lat="42.33384" lon="2.68051">
        <ele>349.5</ele>
        <time>2018-11-27T23:52:19Z</time>
      </trkpt>
      <trkpt lat="42.3338" lon="2.68024">
        <ele>352.1</ele>
        <time>2018-11-27T23:52:27Z</time>
      </trkpt>
      <trkpt lat="42.33383" lon="2.67998">
        <ele>355.7</ele>
        <time>2018-11-27T23:52:35Z</time>
      </trkpt>
      <trkpt lat="42.33391" lon="2.67979">
        <ele>357.9</ele>
        <time>2018-11-27T23:52:42Z</time>
      </trkpt>
      <trkpt lat="42.33403" lon="2.67963">
        <ele>358.8</ele>
        <time>2018-11-27T23:52:48Z</time>
      </trkpt>
      <trkpt lat="42.3341" lon="2.6794">
        <ele>361.3</ele>
        <time>2018-11-27T23:52:56Z</time>
      </trkpt>
      <trkpt lat="42.33419" lon="2.67921">
        <ele>362.3</ele>
        <time>2018-11-27T23:53:02Z</time>
      </trkpt>
      <trkpt lat="42.33404" lon="2.6791">
        <ele>367.8</ele>
        <time>2018-11-27T23:53:09Z</time>
      </trkpt>
      <trkpt lat="42.33388" lon="2.6792">
        <ele>368.5</ele>
        <time>2018-11-27T23:53:16Z</time>
      </trkpt>
      <trkpt lat="42.33371" lon="2.67927">
        <ele>371.3</ele>
        <time>2018-11-27T23:53:23Z</time>
      </trkpt>
      <trkpt lat="42.33355" lon="2.67938">
        <ele>374</ele>
        <time>2018-11-27T23:53:30Z</time>
      </trkpt>
      <trkpt lat="42.33346" lon="2.6792">
        <ele>379.7</ele>
        <time>2018-11-27T23:53:37Z</time>
      </trkpt>
      <trkpt lat="42.33357" lon="2.67904">
        <ele>377.9</ele>
        <time>2018-11-27T23:53:43Z</time>
      </trkpt>
      <trkpt lat="42.33357" lon="2.67874">
        <ele>381.7</ele>
        <time>2018-11-27T23:53:52Z</time>
      </trkpt>
      <trkpt lat="42.33346" lon="2.67857">
        <ele>384.5</ele>
        <time>2018-11-27T23:53:59Z</time>
      </trkpt>
      <trkpt lat="42.33326" lon="2.67853">
        <ele>387.4</ele>
        <time>2018-11-27T23:54:07Z</time>
      </trkpt>
      <trkpt lat="42.33308" lon="2.67847">
        <ele>389.2</ele>
        <time>2018-11-27T23:54:14Z</time>
      </trkpt>
      <trkpt lat="42.33324" lon="2.67838">
        <ele>389.4</ele>
        <time>2018-11-27T23:54:22Z</time>
      </trkpt>
      <trkpt lat="42.33342" lon="2.6783">
        <ele>389.7</ele>
        <time>2018-11-27T23:54:29Z</time>
      </trkpt>
      <trkpt lat="42.33357" lon="2.6782">
        <ele>390.5</ele>
        <time>2018-11-27T23:54:36Z</time>
      </trkpt>
      <trkpt lat="42.33372" lon="2.67807">
        <ele>391.4</ele>
        <time>2018-11-27T23:54:43Z</time>
      </trkpt>
      <trkpt lat="42.33382" lon="2.6779">
        <ele>394.4</ele>
        <time>2018-11-27T23:54:49Z</time>
      </trkpt>
      <trkpt lat="42.33389" lon="2.67769">
        <ele>397.4</ele>
        <time>2018-11-27T23:54:56Z</time>
      </trkpt>
      <trkpt lat="42.33391" lon="2.6774">
        <ele>401.5</ele>
        <time>2018-11-27T23:55:05Z</time>
      </trkpt>
      <trkpt lat="42.33391" lon="2.6771">
        <ele>405.8</ele>
        <time>2018-11-27T23:55:14Z</time>
      </trkpt>
      <trkpt lat="42.33401" lon="2.67692">
        <ele>405.7</ele>
        <time>2018-11-27T23:55:20Z</time>
      </trkpt>
      <trkpt lat="42.33417" lon="2.67683">
        <ele>405.5</ele>
        <time>2018-11-27T23:55:27Z</time>
      </trkpt>
      <trkpt lat="42.33437" lon="2.67688">
        <ele>404.3</ele>
        <time>2018-11-27T23:55:35Z</time>
      </trkpt>
      <trkpt lat="42.33449" lon="2.67675">
        <ele>409.9</ele>
        <time>2018-11-27T23:55:42Z</time>
      </trkpt>
      <trkpt lat="42.3346" lon="2.67658">
        <ele>415.2</ele>
        <time>2018-11-27T23:55:48Z</time>
      </trkpt>
      <trkpt lat="42.33466" lon="2.67636">
        <ele>419.5</ele>
        <time>2018-11-27T23:55:55Z</time>
      </trkpt>
      <trkpt lat="42.33465" lon="2.67631">
        <ele>405.6</ele>
        <time>2018-11-27T23:55:57Z</time>
      </trkpt>
      <trkpt lat="42.33473" lon="2.67628">
        <ele>405.9</ele>
        <time>2018-11-27T23:56:00Z</time>
      </trkpt>
      <trkpt lat="42.33479" lon="2.6762">
        <ele>405.4</ele>
        <time>2018-11-27T23:56:03Z</time>
      </trkpt>
      <trkpt lat="42.33481" lon="2.6762">
        <ele>405.1</ele>
        <time>2018-11-27T23:56:04Z</time>
      </trkpt>
      <trkpt lat="42.33485" lon="2.67623">
        <ele>405.9</ele>
        <time>2018-11-27T23:56:06Z</time>
      </trkpt>
      <trkpt lat="42.33492" lon="2.67617">
        <ele>405.7</ele>
        <time>2018-11-27T23:56:09Z</time>
      </trkpt>
      <trkpt lat="42.33506" lon="2.67611">
        <ele>405.3</ele>
        <time>2018-11-27T23:56:15Z</time>
      </trkpt>
      <trkpt lat="42.3352" lon="2.67608">
        <ele>402.6</ele>
        <time>2018-11-27T23:56:21Z</time>
      </trkpt>
      <trkpt lat="42.33532" lon="2.67602">
        <ele>399.5</ele>
        <time>2018-11-27T23:56:26Z</time>
      </trkpt>
      <trkpt lat="42.33536" lon="2.67603">
        <ele>398.6</ele>
        <time>2018-11-27T23:56:27Z</time>
      </trkpt>
      <trkpt lat="42.33544" lon="2.67609">
        <ele>396.9</ele>
        <time>2018-11-27T23:56:31Z</time>
      </trkpt>
      <trkpt lat="42.3355" lon="2.6761">
        <ele>396</ele>
        <time>2018-11-27T23:56:34Z</time>
      </trkpt>
      <trkpt lat="42.33551" lon="2.67606">
        <ele>395.8</ele>
        <time>2018-11-27T23:56:35Z</time>
      </trkpt>
      <trkpt lat="42.33549" lon="2.67599">
        <ele>395.4</ele>
        <time>2018-11-27T23:56:37Z</time>
      </trkpt>
      <trkpt lat="42.33535" lon="2.67574">
        <ele>393.2</ele>
        <time>2018-11-27T23:56:46Z</time>
      </trkpt>
      <trkpt lat="42.33533" lon="2.67572">
        <ele>393.3</ele>
        <time>2018-11-27T23:56:47Z</time>
      </trkpt>
      <trkpt lat="42.33527" lon="2.67559">
        <ele>392.2</ele>
        <time>2018-11-27T23:56:52Z</time>
      </trkpt>
      <trkpt lat="42.33512" lon="2.6754">
        <ele>390.7</ele>
        <time>2018-11-27T23:57:00Z</time>
      </trkpt>
      <trkpt lat="42.33511" lon="2.67538">
        <ele>390.8</ele>
        <time>2018-11-27T23:57:01Z</time>
      </trkpt>
      <trkpt lat="42.33501" lon="2.67522">
        <ele>389.2</ele>
        <time>2018-11-27T23:57:07Z</time>
      </trkpt>
      <trkpt lat="42.33488" lon="2.67511">
        <ele>388.5</ele>
        <time>2018-11-27T23:57:13Z</time>
      </trkpt>
      <trkpt lat="42.33477" lon="2.67499">
        <ele>387.7</ele>
        <time>2018-11-27T23:57:19Z</time>
      </trkpt>
      <trkpt lat="42.33474" lon="2.67495">
        <ele>387.1</ele>
        <time>2018-11-27T23:57:20Z</time>
      </trkpt>
      <trkpt lat="42.33459" lon="2.67477">
        <ele>385.7</ele>
        <time>2018-11-27T23:57:29Z</time>
      </trkpt>
      <trkpt lat="42.33445" lon="2.67447">
        <ele>384.8</ele>
        <time>2018-11-27T23:57:39Z</time>
      </trkpt>
      <trkpt lat="42.33442" lon="2.67432">
        <ele>385</ele>
        <time>2018-11-27T23:57:44Z</time>
      </trkpt>
      <trkpt lat="42.33435" lon="2.67417">
        <ele>383.7</ele>
        <time>2018-11-27T23:57:49Z</time>
      </trkpt>
      <trkpt lat="42.33427" lon="2.67408">
        <ele>382.2</ele>
        <time>2018-11-27T23:57:53Z</time>
      </trkpt>
      <trkpt lat="42.33422" lon="2.67406">
        <ele>380.9</ele>
        <time>2018-11-27T23:57:55Z</time>
      </trkpt>
      <trkpt lat="42.33414" lon="2.67407">
        <ele>380</ele>
        <time>2018-11-27T23:57:58Z</time>
      </trkpt>
      <trkpt lat="42.33404" lon="2.67404">
        <ele>379.6</ele>
        <time>2018-11-27T23:58:02Z</time>
      </trkpt>
      <trkpt lat="42.3341" lon="2.67394">
        <ele>380.5</ele>
        <time>2018-11-27T23:58:06Z</time>
      </trkpt>
      <trkpt lat="42.33418" lon="2.6739">
        <ele>381.2</ele>
        <time>2018-11-27T23:58:10Z</time>
      </trkpt>
      <trkpt lat="42.33427" lon="2.67395">
        <ele>382.6</ele>
        <time>2018-11-27T23:58:14Z</time>
      </trkpt>
      <trkpt lat="42.3344" lon="2.6739">
        <ele>382.9</ele>
        <time>2018-11-27T23:58:19Z</time>
      </trkpt>
      <trkpt lat="42.33444" lon="2.67392">
        <ele>383.5</ele>
        <time>2018-11-27T23:58:21Z</time>
      </trkpt>
      <trkpt lat="42.33456" lon="2.67386">
        <ele>385</ele>
        <time>2018-11-27T23:58:26Z</time>
      </trkpt>
      <trkpt lat="42.33462" lon="2.67379">
        <ele>386.1</ele>
        <time>2018-11-27T23:58:29Z</time>
      </trkpt>
      <trkpt lat="42.33467" lon="2.67379">
        <ele>386.8</ele>
        <time>2018-11-27T23:58:31Z</time>
      </trkpt>
      <trkpt lat="42.33476" lon="2.67375">
        <ele>387.4</ele>
        <time>2018-11-27T23:58:35Z</time>
      </trkpt>
      <trkpt lat="42.33479" lon="2.67372">
        <ele>387.7</ele>
        <time>2018-11-27T23:58:36Z</time>
      </trkpt>
      <trkpt lat="42.33495" lon="2.67369">
        <ele>390.2</ele>
        <time>2018-11-27T23:58:43Z</time>
      </trkpt>
      <trkpt lat="42.3351" lon="2.67365">
        <ele>390.7</ele>
        <time>2018-11-27T23:58:49Z</time>
      </trkpt>
      <trkpt lat="42.33517" lon="2.67366">
        <ele>391.1</ele>
        <time>2018-11-27T23:58:52Z</time>
      </trkpt>
      <trkpt lat="42.33518" lon="2.67369">
        <ele>391.1</ele>
        <time>2018-11-27T23:58:52Z</time>
      </trkpt>
      <trkpt lat="42.33521" lon="2.6737">
        <ele>390</ele>
        <time>2018-11-27T23:58:54Z</time>
      </trkpt>
      <trkpt lat="42.33522" lon="2.67377">
        <ele>387.9</ele>
        <time>2018-11-27T23:58:56Z</time>
      </trkpt>
      <trkpt lat="42.33529" lon="2.67389">
        <ele>382</ele>
        <time>2018-11-27T23:59:00Z</time>
      </trkpt>
      <trkpt lat="42.33528" lon="2.67397">
        <ele>380.4</ele>
        <time>2018-11-27T23:59:03Z</time>
      </trkpt>
      <trkpt lat="42.33529" lon="2.67404">
        <ele>380.2</ele>
        <time>2018-11-27T23:59:05Z</time>
      </trkpt>
      <trkpt lat="42.33534" lon="2.67407">
        <ele>379.2</ele>
        <time>2018-11-27T23:59:07Z</time>
      </trkpt>
      <trkpt lat="42.3354" lon="2.67413">
        <ele>378</ele>
        <time>2018-11-27T23:59:10Z</time>
      </trkpt>
      <trkpt lat="42.3355" lon="2.67416">
        <ele>377</ele>
        <time>2018-11-27T23:59:14Z</time>
      </trkpt>
      <trkpt lat="42.33555" lon="2.67413">
        <ele>375.1</ele>
        <time>2018-11-27T23:59:16Z</time>
      </trkpt>
      <trkpt lat="42.33558" lon="2.67414">
        <ele>373.9</ele>
        <time>2018-11-27T23:59:18Z</time>
      </trkpt>
      <trkpt lat="42.33564" lon="2.67411">
        <ele>372.3</ele>
        <time>2018-11-27T23:59:20Z</time>
      </trkpt>
      <trkpt lat="42.33568" lon="2.67396">
        <ele>368.3</ele>
        <time>2018-11-27T23:59:25Z</time>
      </trkpt>
      <trkpt lat="42.3357" lon="2.67387">
        <ele>366.5</ele>
        <time>2018-11-27T23:59:28Z</time>
      </trkpt>
      <trkpt lat="42.33576" lon="2.67389">
        <ele>364.1</ele>
        <time>2018-11-27T23:59:30Z</time>
      </trkpt>
      <trkpt lat="42.33587" lon="2.67398">
        <ele>362.2</ele>
        <time>2018-11-27T23:59:35Z</time>
      </trkpt>
      <trkpt lat="42.33596" lon="2.67394">
        <ele>361.9</ele>
        <time>2018-11-27T23:59:39Z</time>
      </trkpt>
      <trkpt lat="42.33599" lon="2.67393">
        <ele>361.8</ele>
        <time>2018-11-27T23:59:40Z</time>
      </trkpt>
      <trkpt lat="42.33602" lon="2.67387">
        <ele>361.9</ele>
        <time>2018-11-27T23:59:42Z</time>
      </trkpt>
      <trkpt lat="42.33603" lon="2.67379">
        <ele>362.6</ele>
        <time>2018-11-27T23:59:44Z</time>
      </trkpt>
      <trkpt lat="42.33605" lon="2.67374">
        <ele>362.7</ele>
        <time>2018-11-27T23:59:46Z</time>
      </trkpt>
      <trkpt lat="42.33618" lon="2.67364">
        <ele>362.6</ele>
        <time>2018-11-27T23:59:52Z</time>
      </trkpt>
      <trkpt lat="42.33625" lon="2.67354">
        <ele>363</ele>
        <time>2018-11-27T23:59:56Z</time>
      </trkpt>
      <trkpt lat="42.33634" lon="2.67347">
        <ele>362.9</ele>
        <time>2018-11-28T00:00:00Z</time>
      </trkpt>
      <trkpt lat="42.33636" lon="2.67343">
        <ele>363.1</ele>
        <time>2018-11-28T00:00:02Z</time>
      </trkpt>
      <trkpt lat="42.33641" lon="2.67336">
        <ele>363.6</ele>
        <time>2018-11-28T00:00:05Z</time>
      </trkpt>
      <trkpt lat="42.33641" lon="2.67326">
        <ele>363.7</ele>
        <time>2018-11-28T00:00:08Z</time>
      </trkpt>
      <trkpt lat="42.33649" lon="2.67314">
        <ele>364</ele>
        <time>2018-11-28T00:00:13Z</time>
      </trkpt>
      <trkpt lat="42.33659" lon="2.67308">
        <ele>363.5</ele>
        <time>2018-11-28T00:00:17Z</time>
      </trkpt>
      <trkpt lat="42.33666" lon="2.673">
        <ele>362.3</ele>
        <time>2018-11-28T00:00:21Z</time>
      </trkpt>
      <trkpt lat="42.33668" lon="2.67303">
        <ele>361.3</ele>
        <time>2018-11-28T00:00:22Z</time>
      </trkpt>
      <trkpt lat="42.33667" lon="2.67308">
        <ele>360.9</ele>
        <time>2018-11-28T00:00:23Z</time>
      </trkpt>
      <trkpt lat="42.33671" lon="2.67308">
        <ele>361</ele>
        <time>2018-11-28T00:00:25Z</time>
      </trkpt>
      <trkpt lat="42.33674" lon="2.67302">
        <ele>361</ele>
        <time>2018-11-28T00:00:27Z</time>
      </trkpt>
      <trkpt lat="42.33693" lon="2.67281">
        <ele>361</ele>
        <time>2018-11-28T00:00:37Z</time>
      </trkpt>
      <trkpt lat="42.33696" lon="2.67271">
        <ele>361.3</ele>
        <time>2018-11-28T00:00:40Z</time>
      </trkpt>
      <trkpt lat="42.33694" lon="2.67263">
        <ele>362</ele>
        <time>2018-11-28T00:00:42Z</time>
      </trkpt>
      <trkpt lat="42.33696" lon="2.67257">
        <ele>362.2</ele>
        <time>2018-11-28T00:00:44Z</time>
      </trkpt>
      <trkpt lat="42.33708" lon="2.67245">
        <ele>364</ele>
        <time>2018-11-28T00:00:50Z</time>
      </trkpt>
      <trkpt lat="42.33712" lon="2.67238">
        <ele>364</ele>
        <time>2018-11-28T00:00:53Z</time>
      </trkpt>
      <trkpt lat="42.33719" lon="2.67222">
        <ele>365</ele>
        <time>2018-11-28T00:00:58Z</time>
      </trkpt>
      <trkpt lat="42.33723" lon="2.67217">
        <ele>365.7</ele>
        <time>2018-11-28T00:01:00Z</time>
      </trkpt>
      <trkpt lat="42.33724" lon="2.67209">
        <ele>366.2</ele>
        <time>2018-11-28T00:01:03Z</time>
      </trkpt>
      <trkpt lat="42.33727" lon="2.67202">
        <ele>366.9</ele>
        <time>2018-11-28T00:01:05Z</time>
      </trkpt>
      <trkpt lat="42.33732" lon="2.67195">
        <ele>368.4</ele>
        <time>2018-11-28T00:01:08Z</time>
      </trkpt>
      <trkpt lat="42.33742" lon="2.67193">
        <ele>370.9</ele>
        <time>2018-11-28T00:01:12Z</time>
      </trkpt>
      <trkpt lat="42.33746" lon="2.67185">
        <ele>373.1</ele>
        <time>2018-11-28T00:01:15Z</time>
      </trkpt>
      <trkpt lat="42.33747" lon="2.67181">
        <ele>374.8</ele>
        <time>2018-11-28T00:01:16Z</time>
      </trkpt>
      <trkpt lat="42.33752" lon="2.67163">
        <ele>383</ele>
        <time>2018-11-28T00:01:22Z</time>
      </trkpt>
      <trkpt lat="42.33761" lon="2.67158">
        <ele>386.5</ele>
        <time>2018-11-28T00:01:26Z</time>
      </trkpt>
      <trkpt lat="42.33764" lon="2.67149">
        <ele>389.1</ele>
        <time>2018-11-28T00:01:28Z</time>
      </trkpt>
      <trkpt lat="42.33767" lon="2.6715">
        <ele>391.7</ele>
        <time>2018-11-28T00:01:30Z</time>
      </trkpt>
      <trkpt lat="42.33769" lon="2.67154">
        <ele>393.3</ele>
        <time>2018-11-28T00:01:31Z</time>
      </trkpt>
      <trkpt lat="42.33771" lon="2.67168">
        <ele>397.2</ele>
        <time>2018-11-28T00:01:36Z</time>
      </trkpt>
      <trkpt lat="42.33769" lon="2.67178">
        <ele>400.3</ele>
        <time>2018-11-28T00:01:38Z</time>
      </trkpt>
      <trkpt lat="42.33772" lon="2.67181">
        <ele>402.5</ele>
        <time>2018-11-28T00:01:40Z</time>
      </trkpt>
      <trkpt lat="42.33771" lon="2.67191">
        <ele>407.5</ele>
        <time>2018-11-28T00:01:43Z</time>
      </trkpt>
      <trkpt lat="42.33772" lon="2.67194">
        <ele>408.8</ele>
        <time>2018-11-28T00:01:44Z</time>
      </trkpt>
      <trkpt lat="42.3377" lon="2.67202">
        <ele>412.4</ele>
        <time>2018-11-28T00:01:46Z</time>
      </trkpt>
      <trkpt lat="42.33774" lon="2.67213">
        <ele>418</ele>
        <time>2018-11-28T00:01:50Z</time>
      </trkpt>
      <trkpt lat="42.33773" lon="2.67219">
        <ele>419.7</ele>
        <time>2018-11-28T00:01:52Z</time>
      </trkpt>
      <trkpt lat="42.33775" lon="2.67227">
        <ele>422.1</ele>
        <time>2018-11-28T00:01:54Z</time>
      </trkpt>
      <trkpt lat="42.33778" lon="2.6723">
        <ele>423.6</ele>
        <time>2018-11-28T00:01:56Z</time>
      </trkpt>
      <trkpt lat="42.33775" lon="2.67234">
        <ele>423.5</ele>
        <time>2018-11-28T00:01:57Z</time>
      </trkpt>
      <trkpt lat="42.33773" lon="2.67233">
        <ele>423.6</ele>
        <time>2018-11-28T00:01:58Z</time>
      </trkpt>
      <trkpt lat="42.33773" lon="2.67241">
        <ele>425.7</ele>
        <time>2018-11-28T00:02:01Z</time>
      </trkpt>
      <trkpt lat="42.33774" lon="2.67244">
        <ele>427.2</ele>
        <time>2018-11-28T00:02:02Z</time>
      </trkpt>
      <trkpt lat="42.33774" lon="2.67249">
        <ele>428.1</ele>
        <time>2018-11-28T00:02:03Z</time>
      </trkpt>
      <trkpt lat="42.33777" lon="2.67257">
        <ele>429.7</ele>
        <time>2018-11-28T00:02:06Z</time>
      </trkpt>
      <trkpt lat="42.33779" lon="2.67256">
        <ele>429</ele>
        <time>2018-11-28T00:02:07Z</time>
      </trkpt>
      <trkpt lat="42.33777" lon="2.67255">
        <ele>429</ele>
        <time>2018-11-28T00:02:08Z</time>
      </trkpt>
      <trkpt lat="42.33776" lon="2.67259">
        <ele>430.8</ele>
        <time>2018-11-28T00:02:09Z</time>
      </trkpt>
      <trkpt lat="42.3378" lon="2.67271">
        <ele>434.5</ele>
        <time>2018-11-28T00:02:13Z</time>
      </trkpt>
      <trkpt lat="42.33783" lon="2.67282">
        <ele>438.7</ele>
        <time>2018-11-28T00:02:16Z</time>
      </trkpt>
      <trkpt lat="42.33781" lon="2.67289">
        <ele>441.2</ele>
        <time>2018-11-28T00:02:19Z</time>
      </trkpt>
      <trkpt lat="42.33783" lon="2.67303">
        <ele>444.3</ele>
        <time>2018-11-28T00:02:23Z</time>
      </trkpt>
      <trkpt lat="42.33781" lon="2.67306">
        <ele>444.9</ele>
        <time>2018-11-28T00:02:24Z</time>
      </trkpt>
      <trkpt lat="42.33783" lon="2.67309">
        <ele>446.9</ele>
        <time>2018-11-28T00:02:25Z</time>
      </trkpt>
      <trkpt lat="42.33784" lon="2.67318">
        <ele>449.2</ele>
        <time>2018-11-28T00:02:28Z</time>
      </trkpt>
      <trkpt lat="42.33785" lon="2.67333">
        <ele>452.4</ele>
        <time>2018-11-28T00:02:32Z</time>
      </trkpt>
      <trkpt lat="42.33785" lon="2.67338">
        <ele>453.8</ele>
        <time>2018-11-28T00:02:33Z</time>
      </trkpt>
      <trkpt lat="42.33787" lon="2.67345">
        <ele>455.8</ele>
        <time>2018-11-28T00:02:36Z</time>
      </trkpt>
      <trkpt lat="42.33792" lon="2.67352">
        <ele>457.4</ele>
        <time>2018-11-28T00:02:39Z</time>
      </trkpt>
      <trkpt lat="42.33805" lon="2.67359">
        <ele>463</ele>
        <time>2018-11-28T00:02:44Z</time>
      </trkpt>
      <trkpt lat="42.33815" lon="2.67356">
        <ele>466.1</ele>
        <time>2018-11-28T00:02:48Z</time>
      </trkpt>
      <trkpt lat="42.33818" lon="2.67358">
        <ele>467.8</ele>
        <time>2018-11-28T00:02:50Z</time>
      </trkpt>
      <trkpt lat="42.33831" lon="2.6735">
        <ele>472.2</ele>
        <time>2018-11-28T00:02:55Z</time>
      </trkpt>
      <trkpt lat="42.33838" lon="2.67354">
        <ele>474.4</ele>
        <time>2018-11-28T00:02:58Z</time>
      </trkpt>
      <trkpt lat="42.33848" lon="2.67362">
        <ele>475.7</ele>
        <time>2018-11-28T00:03:03Z</time>
      </trkpt>
      <trkpt lat="42.33851" lon="2.67361">
        <ele>477.6</ele>
        <time>2018-11-28T00:03:04Z</time>
      </trkpt>
      <trkpt lat="42.33854" lon="2.67363">
        <ele>479.7</ele>
        <time>2018-11-28T00:03:05Z</time>
      </trkpt>
      <trkpt lat="42.33859" lon="2.67371">
        <ele>481.5</ele>
        <time>2018-11-28T00:03:08Z</time>
      </trkpt>
      <trkpt lat="42.33864" lon="2.67371">
        <ele>483.4</ele>
        <time>2018-11-28T00:03:11Z</time>
      </trkpt>
      <trkpt lat="42.33867" lon="2.6737">
        <ele>485.7</ele>
        <time>2018-11-28T00:03:12Z</time>
      </trkpt>
      <trkpt lat="42.33886" lon="2.67369">
        <ele>491.2</ele>
        <time>2018-11-28T00:03:20Z</time>
      </trkpt>
      <trkpt lat="42.3389" lon="2.67371">
        <ele>491.6</ele>
        <time>2018-11-28T00:03:21Z</time>
      </trkpt>
      <trkpt lat="42.33895" lon="2.6737">
        <ele>492.6</ele>
        <time>2018-11-28T00:03:23Z</time>
      </trkpt>
      <trkpt lat="42.33897" lon="2.67365">
        <ele>493.8</ele>
        <time>2018-11-28T00:03:25Z</time>
      </trkpt>
      <trkpt lat="42.33896" lon="2.67365">
        <ele>494.7</ele>
        <time>2018-11-28T00:03:25Z</time>
      </trkpt>
      <trkpt lat="42.33892" lon="2.67365">
        <ele>495.7</ele>
        <time>2018-11-28T00:03:27Z</time>
      </trkpt>
      <trkpt lat="42.339" lon="2.67356">
        <ele>500.4</ele>
        <time>2018-11-28T00:03:31Z</time>
      </trkpt>
      <trkpt lat="42.33899" lon="2.67354">
        <ele>502.5</ele>
        <time>2018-11-28T00:03:31Z</time>
      </trkpt>
      <trkpt lat="42.33902" lon="2.67349">
        <ele>504</ele>
        <time>2018-11-28T00:03:33Z</time>
      </trkpt>
      <trkpt lat="42.33906" lon="2.67344">
        <ele>508.9</ele>
        <time>2018-11-28T00:03:36Z</time>
      </trkpt>
      <trkpt lat="42.33907" lon="2.67339">
        <ele>510.3</ele>
        <time>2018-11-28T00:03:37Z</time>
      </trkpt>
      <trkpt lat="42.33903" lon="2.67324">
        <ele>514.4</ele>
        <time>2018-11-28T00:03:42Z</time>
      </trkpt>
      <trkpt lat="42.33906" lon="2.67317">
        <ele>516.5</ele>
        <time>2018-11-28T00:03:44Z</time>
      </trkpt>
      <trkpt lat="42.3391" lon="2.67313">
        <ele>518.2</ele>
        <time>2018-11-28T00:03:46Z</time>
      </trkpt>
      <trkpt lat="42.33908" lon="2.67305">
        <ele>521.4</ele>
        <time>2018-11-28T00:03:49Z</time>
      </trkpt>
      <trkpt lat="42.33912" lon="2.67297">
        <ele>524</ele>
        <time>2018-11-28T00:03:52Z</time>
      </trkpt>
      <trkpt lat="42.33915" lon="2.67296">
        <ele>525.2</ele>
        <time>2018-11-28T00:03:53Z</time>
      </trkpt>
      <trkpt lat="42.33922" lon="2.67284">
        <ele>526.5</ele>
        <time>2018-11-28T00:03:58Z</time>
      </trkpt>
      <trkpt lat="42.3394" lon="2.67275">
        <ele>526.2</ele>
        <time>2018-11-28T00:04:05Z</time>
      </trkpt>
      <trkpt lat="42.33947" lon="2.67275">
        <ele>526.2</ele>
        <time>2018-11-28T00:04:08Z</time>
      </trkpt>
      <trkpt lat="42.33964" lon="2.67265">
        <ele>528.8</ele>
        <time>2018-11-28T00:04:15Z</time>
      </trkpt>
      <trkpt lat="42.3397" lon="2.67267">
        <ele>530.6</ele>
        <time>2018-11-28T00:04:18Z</time>
      </trkpt>
      <trkpt lat="42.33973" lon="2.67271">
        <ele>532</ele>
        <time>2018-11-28T00:04:19Z</time>
      </trkpt>
      <trkpt lat="42.33978" lon="2.6727">
        <ele>533.7</ele>
        <time>2018-11-28T00:04:21Z</time>
      </trkpt>
      <trkpt lat="42.33981" lon="2.67263">
        <ele>536.8</ele>
        <time>2018-11-28T00:04:24Z</time>
      </trkpt>
      <trkpt lat="42.33991" lon="2.67254">
        <ele>538.5</ele>
        <time>2018-11-28T00:04:29Z</time>
      </trkpt>
      <trkpt lat="42.34003" lon="2.67244">
        <ele>539.3</ele>
        <time>2018-11-28T00:04:34Z</time>
      </trkpt>
      <trkpt lat="42.34007" lon="2.67242">
        <ele>540</ele>
        <time>2018-11-28T00:04:36Z</time>
      </trkpt>
      <trkpt lat="42.3401" lon="2.67239">
        <ele>541.4</ele>
        <time>2018-11-28T00:04:37Z</time>
      </trkpt>
      <trkpt lat="42.34016" lon="2.6724">
        <ele>542.5</ele>
        <time>2018-11-28T00:04:40Z</time>
      </trkpt>
      <trkpt lat="42.34021" lon="2.67237">
        <ele>544.2</ele>
        <time>2018-11-28T00:04:42Z</time>
      </trkpt>
      <trkpt lat="42.34027" lon="2.67237">
        <ele>546.1</ele>
        <time>2018-11-28T00:04:45Z</time>
      </trkpt>
      <trkpt lat="42.34036" lon="2.6723">
        <ele>550.3</ele>
        <time>2018-11-28T00:04:49Z</time>
      </trkpt>
      <trkpt lat="42.34042" lon="2.67229">
        <ele>553.7</ele>
        <time>2018-11-28T00:04:51Z</time>
      </trkpt>
      <trkpt lat="42.34048" lon="2.67225">
        <ele>556.4</ele>
        <time>2018-11-28T00:04:54Z</time>
      </trkpt>
      <trkpt lat="42.34052" lon="2.67227">
        <ele>557.6</ele>
        <time>2018-11-28T00:04:56Z</time>
      </trkpt>
      <trkpt lat="42.3406" lon="2.67225">
        <ele>560.9</ele>
        <time>2018-11-28T00:04:59Z</time>
      </trkpt>
      <trkpt lat="42.34068" lon="2.67217">
        <ele>565.1</ele>
        <time>2018-11-28T00:05:03Z</time>
      </trkpt>
      <trkpt lat="42.34076" lon="2.67217">
        <ele>567.3</ele>
        <time>2018-11-28T00:05:06Z</time>
      </trkpt>
      <trkpt lat="42.3408" lon="2.67214">
        <ele>569.3</ele>
        <time>2018-11-28T00:05:08Z</time>
      </trkpt>
      <trkpt lat="42.34093" lon="2.67208">
        <ele>573.8</ele>
        <time>2018-11-28T00:05:13Z</time>
      </trkpt>
      <trkpt lat="42.34095" lon="2.67208">
        <ele>574.6</ele>
        <time>2018-11-28T00:05:14Z</time>
      </trkpt>
      <trkpt lat="42.34102" lon="2.67203">
        <ele>576.6</ele>
        <time>2018-11-28T00:05:17Z</time>
      </trkpt>
      <trkpt lat="42.34106" lon="2.67207">
        <ele>579.7</ele>
        <time>2018-11-28T00:05:19Z</time>
      </trkpt>
      <trkpt lat="42.34105" lon="2.67206">
        <ele>579.6</ele>
        <time>2018-11-28T00:05:20Z</time>
      </trkpt>
      <trkpt lat="42.34105" lon="2.67205">
        <ele>579.9</ele>
        <time>2018-11-28T00:05:20Z</time>
      </trkpt>
      <trkpt lat="42.34104" lon="2.67196">
        <ele>581.6</ele>
        <time>2018-11-28T00:05:23Z</time>
      </trkpt>
      <trkpt lat="42.34107" lon="2.67194">
        <ele>581.3</ele>
        <time>2018-11-28T00:05:24Z</time>
      </trkpt>
      <trkpt lat="42.34108" lon="2.67189">
        <ele>583.5</ele>
        <time>2018-11-28T00:05:26Z</time>
      </trkpt>
      <trkpt lat="42.34111" lon="2.67186">
        <ele>585.8</ele>
        <time>2018-11-28T00:05:27Z</time>
      </trkpt>
      <trkpt lat="42.34115" lon="2.67189">
        <ele>585.6</ele>
        <time>2018-11-28T00:05:29Z</time>
      </trkpt>
      <trkpt lat="42.34118" lon="2.67194">
        <ele>585.5</ele>
        <time>2018-11-28T00:05:31Z</time>
      </trkpt>
      <trkpt lat="42.34121" lon="2.67208">
        <ele>588.1</ele>
        <time>2018-11-28T00:05:35Z</time>
      </trkpt>
      <trkpt lat="42.34121" lon="2.6721">
        <ele>589.9</ele>
        <time>2018-11-28T00:05:36Z</time>
      </trkpt>
      <trkpt lat="42.34123" lon="2.67207">
        <ele>586.8</ele>
        <time>2018-11-28T00:05:37Z</time>
      </trkpt>
      <trkpt lat="42.34124" lon="2.67207">
        <ele>587.4</ele>
        <time>2018-11-28T00:05:37Z</time>
      </trkpt>
      <trkpt lat="42.34122" lon="2.67207">
        <ele>588.1</ele>
        <time>2018-11-28T00:05:37Z</time>
      </trkpt>
      <trkpt lat="42.34121" lon="2.67205">
        <ele>588.6</ele>
        <time>2018-11-28T00:05:38Z</time>
      </trkpt>
      <trkpt lat="42.34121" lon="2.67205">
        <ele>587.2</ele>
        <time>2018-11-28T00:05:38Z</time>
      </trkpt>
      <trkpt lat="42.34116" lon="2.67191">
        <ele>588.3</ele>
        <time>2018-11-28T00:05:43Z</time>
      </trkpt>
      <trkpt lat="42.34121" lon="2.67189">
        <ele>588.8</ele>
        <time>2018-11-28T00:05:45Z</time>
      </trkpt>
      <trkpt lat="42.34131" lon="2.67191">
        <ele>589.9</ele>
        <time>2018-11-28T00:05:49Z</time>
      </trkpt>
      <trkpt lat="42.34145" lon="2.67186">
        <ele>592.2</ele>
        <time>2018-11-28T00:05:55Z</time>
      </trkpt>
      <trkpt lat="42.34154" lon="2.67171">
        <ele>595.2</ele>
        <time>2018-11-28T00:06:01Z</time>
      </trkpt>
      <trkpt lat="42.34155" lon="2.67169">
        <ele>595.5</ele>
        <time>2018-11-28T00:06:01Z</time>
      </trkpt>
      <trkpt lat="42.34162" lon="2.67166">
        <ele>598.3</ele>
        <time>2018-11-28T00:06:04Z</time>
      </trkpt>
      <trkpt lat="42.34164" lon="2.67162">
        <ele>599.5</ele>
        <time>2018-11-28T00:06:06Z</time>
      </trkpt>
      <trkpt lat="42.3417" lon="2.6716">
        <ele>601.6</ele>
        <time>2018-11-28T00:06:08Z</time>
      </trkpt>
      <trkpt lat="42.34174" lon="2.6716">
        <ele>603.1</ele>
        <time>2018-11-28T00:06:10Z</time>
      </trkpt>
      <trkpt lat="42.34181" lon="2.67149">
        <ele>607.1</ele>
        <time>2018-11-28T00:06:14Z</time>
      </trkpt>
      <trkpt lat="42.34184" lon="2.67141">
        <ele>610.4</ele>
        <time>2018-11-28T00:06:17Z</time>
      </trkpt>
      <trkpt lat="42.34187" lon="2.67128">
        <ele>614</ele>
        <time>2018-11-28T00:06:21Z</time>
      </trkpt>
      <trkpt lat="42.34197" lon="2.67125">
        <ele>615</ele>
        <time>2018-11-28T00:06:25Z</time>
      </trkpt>
      <trkpt lat="42.3421" lon="2.67125">
        <ele>616.9</ele>
        <time>2018-11-28T00:06:30Z</time>
      </trkpt>
      <trkpt lat="42.34217" lon="2.67122">
        <ele>617.7</ele>
        <time>2018-11-28T00:06:33Z</time>
      </trkpt>
      <trkpt lat="42.34233" lon="2.67117">
        <ele>622.3</ele>
        <time>2018-11-28T00:06:40Z</time>
      </trkpt>
      <trkpt lat="42.34236" lon="2.67113">
        <ele>623.2</ele>
        <time>2018-11-28T00:06:41Z</time>
      </trkpt>
      <trkpt lat="42.34237" lon="2.67107">
        <ele>624.4</ele>
        <time>2018-11-28T00:06:43Z</time>
      </trkpt>
      <trkpt lat="42.34239" lon="2.67105">
        <ele>624.8</ele>
        <time>2018-11-28T00:06:44Z</time>
      </trkpt>
      <trkpt lat="42.34243" lon="2.67098">
        <ele>626</ele>
        <time>2018-11-28T00:06:47Z</time>
      </trkpt>
      <trkpt lat="42.34242" lon="2.67091">
        <ele>626.8</ele>
        <time>2018-11-28T00:06:49Z</time>
      </trkpt>
      <trkpt lat="42.34246" lon="2.67074">
        <ele>630.9</ele>
        <time>2018-11-28T00:06:54Z</time>
      </trkpt>
      <trkpt lat="42.34249" lon="2.67068">
        <ele>631.5</ele>
        <time>2018-11-28T00:06:56Z</time>
      </trkpt>
      <trkpt lat="42.34257" lon="2.6706">
        <ele>636</ele>
        <time>2018-11-28T00:07:00Z</time>
      </trkpt>
      <trkpt lat="42.34265" lon="2.67055">
        <ele>639.5</ele>
        <time>2018-11-28T00:07:04Z</time>
      </trkpt>
      <trkpt lat="42.34269" lon="2.67051">
        <ele>641.8</ele>
        <time>2018-11-28T00:07:06Z</time>
      </trkpt>
      <trkpt lat="42.34279" lon="2.67036">
        <ele>646.4</ele>
        <time>2018-11-28T00:07:12Z</time>
      </trkpt>
      <trkpt lat="42.34285" lon="2.67025">
        <ele>646.4</ele>
        <time>2018-11-28T00:07:15Z</time>
      </trkpt>
      <trkpt lat="42.34293" lon="2.67003">
        <ele>646.7</ele>
        <time>2018-11-28T00:07:23Z</time>
      </trkpt>
      <trkpt lat="42.34299" lon="2.66991">
        <ele>647.8</ele>
        <time>2018-11-28T00:07:27Z</time>
      </trkpt>
      <trkpt lat="42.34305" lon="2.66986">
        <ele>649.2</ele>
        <time>2018-11-28T00:07:30Z</time>
      </trkpt>
      <trkpt lat="42.34306" lon="2.66984">
        <ele>646.6</ele>
        <time>2018-11-28T00:07:31Z</time>
      </trkpt>
      <trkpt lat="42.34314" lon="2.66983">
        <ele>646.7</ele>
        <time>2018-11-28T00:07:34Z</time>
      </trkpt>
      <trkpt lat="42.34329" lon="2.66976">
        <ele>648.7</ele>
        <time>2018-11-28T00:07:40Z</time>
      </trkpt>
      <trkpt lat="42.34345" lon="2.66977">
        <ele>651.3</ele>
        <time>2018-11-28T00:07:47Z</time>
      </trkpt>
      <trkpt lat="42.34348" lon="2.66978">
        <ele>651.8</ele>
        <time>2018-11-28T00:07:48Z</time>
      </trkpt>
      <trkpt lat="42.34353" lon="2.66978">
        <ele>652.2</ele>
        <time>2018-11-28T00:07:50Z</time>
      </trkpt>
      <trkpt lat="42.34368" lon="2.66975">
        <ele>654</ele>
        <time>2018-11-28T00:07:56Z</time>
      </trkpt>
      <trkpt lat="42.34382" lon="2.66976">
        <ele>654.8</ele>
        <time>2018-11-28T00:08:02Z</time>
      </trkpt>
      <trkpt lat="42.34385" lon="2.66975">
        <ele>655.3</ele>
        <time>2018-11-28T00:08:03Z</time>
      </trkpt>
      <trkpt lat="42.34391" lon="2.66975">
        <ele>655.7</ele>
        <time>2018-11-28T00:08:05Z</time>
      </trkpt>
      <trkpt lat="42.34395" lon="2.66978">
        <ele>655.8</ele>
        <time>2018-11-28T00:08:07Z</time>
      </trkpt>
      <trkpt lat="42.34401" lon="2.66978">
        <ele>656</ele>
        <time>2018-11-28T00:08:09Z</time>
      </trkpt>
      <trkpt lat="42.34403" lon="2.66977">
        <ele>655.8</ele>
        <time>2018-11-28T00:08:10Z</time>
      </trkpt>
      <trkpt lat="42.34404" lon="2.66976">
        <ele>655.3</ele>
        <time>2018-11-28T00:08:11Z</time>
      </trkpt>
      <trkpt lat="42.34405" lon="2.6698">
        <ele>654.7</ele>
        <time>2018-11-28T00:08:12Z</time>
      </trkpt>
      <trkpt lat="42.34414" lon="2.66982">
        <ele>655.2</ele>
        <time>2018-11-28T00:08:16Z</time>
      </trkpt>
      <trkpt lat="42.3443" lon="2.66982">
        <ele>656.2</ele>
        <time>2018-11-28T00:08:22Z</time>
      </trkpt>
      <trkpt lat="42.3445" lon="2.66975">
        <ele>655.8</ele>
        <time>2018-11-28T00:08:30Z</time>
      </trkpt>
      <trkpt lat="42.34465" lon="2.66968">
        <ele>656</ele>
        <time>2018-11-28T00:08:36Z</time>
      </trkpt>
      <trkpt lat="42.34476" lon="2.66961">
        <ele>657.9</ele>
        <time>2018-11-28T00:08:41Z</time>
      </trkpt>
      <trkpt lat="42.34488" lon="2.66956">
        <ele>659.7</ele>
        <time>2018-11-28T00:08:46Z</time>
      </trkpt>
      <trkpt lat="42.3449" lon="2.66952">
        <ele>659.4</ele>
        <time>2018-11-28T00:08:48Z</time>
      </trkpt>
      <trkpt lat="42.34503" lon="2.66939">
        <ele>659.4</ele>
        <time>2018-11-28T00:08:54Z</time>
      </trkpt>
      <trkpt lat="42.3451" lon="2.66918">
        <ele>662</ele>
        <time>2018-11-28T00:09:01Z</time>
      </trkpt>
      <trkpt lat="42.34511" lon="2.6691">
        <ele>662.2</ele>
        <time>2018-11-28T00:09:03Z</time>
      </trkpt>
      <trkpt lat="42.34509" lon="2.66904">
        <ele>662.2</ele>
        <time>2018-11-28T00:09:05Z</time>
      </trkpt>
      <trkpt lat="42.34511" lon="2.66895">
        <ele>661.7</ele>
        <time>2018-11-28T00:09:08Z</time>
      </trkpt>
      <trkpt lat="42.34517" lon="2.66885">
        <ele>665.3</ele>
        <time>2018-11-28T00:09:12Z</time>
      </trkpt>
      <trkpt lat="42.34517" lon="2.66882">
        <ele>666.3</ele>
        <time>2018-11-28T00:09:13Z</time>
      </trkpt>
      <trkpt lat="42.34515" lon="2.66873">
        <ele>667</ele>
        <time>2018-11-28T00:09:15Z</time>
      </trkpt>
      <trkpt lat="42.34519" lon="2.6687">
        <ele>667.1</ele>
        <time>2018-11-28T00:09:17Z</time>
      </trkpt>
      <trkpt lat="42.34525" lon="2.66854">
        <ele>669.6</ele>
        <time>2018-11-28T00:09:22Z</time>
      </trkpt>
      <trkpt lat="42.34527" lon="2.66831">
        <ele>672</ele>
        <time>2018-11-28T00:09:29Z</time>
      </trkpt>
      <trkpt lat="42.34526" lon="2.66826">
        <ele>672</ele>
        <time>2018-11-28T00:09:31Z</time>
      </trkpt>
      <trkpt lat="42.34525" lon="2.66811">
        <ele>673.7</ele>
        <time>2018-11-28T00:09:35Z</time>
      </trkpt>
      <trkpt lat="42.34526" lon="2.66798">
        <ele>675</ele>
        <time>2018-11-28T00:09:39Z</time>
      </trkpt>
      <trkpt lat="42.34528" lon="2.66797">
        <ele>675.1</ele>
        <time>2018-11-28T00:09:40Z</time>
      </trkpt>
      <trkpt lat="42.34529" lon="2.66787">
        <ele>676</ele>
        <time>2018-11-28T00:09:43Z</time>
      </trkpt>
      <trkpt lat="42.34529" lon="2.66785">
        <ele>676</ele>
        <time>2018-11-28T00:09:44Z</time>
      </trkpt>
      <trkpt lat="42.34533" lon="2.6677">
        <ele>677.2</ele>
        <time>2018-11-28T00:09:48Z</time>
      </trkpt>
      <trkpt lat="42.34544" lon="2.66755">
        <ele>678.9</ele>
        <time>2018-11-28T00:09:55Z</time>
      </trkpt>
      <trkpt lat="42.34565" lon="2.66748">
        <ele>676.3</ele>
        <time>2018-11-28T00:10:03Z</time>
      </trkpt>
      <trkpt lat="42.34569" lon="2.66745">
        <ele>675.7</ele>
        <time>2018-11-28T00:10:05Z</time>
      </trkpt>
      <trkpt lat="42.34573" lon="2.66745">
        <ele>675.2</ele>
        <time>2018-11-28T00:10:07Z</time>
      </trkpt>
      <trkpt lat="42.34581" lon="2.66742">
        <ele>675</ele>
        <time>2018-11-28T00:10:10Z</time>
      </trkpt>
      <trkpt lat="42.34591" lon="2.66735">
        <ele>671.9</ele>
        <time>2018-11-28T00:10:15Z</time>
      </trkpt>
      <trkpt lat="42.34597" lon="2.66737">
        <ele>671.1</ele>
        <time>2018-11-28T00:10:17Z</time>
      </trkpt>
      <trkpt lat="42.3461" lon="2.66734">
        <ele>674.5</ele>
        <time>2018-11-28T00:10:22Z</time>
      </trkpt>
      <trkpt lat="42.34624" lon="2.66736">
        <ele>673.5</ele>
        <time>2018-11-28T00:10:28Z</time>
      </trkpt>
      <trkpt lat="42.34642" lon="2.66726">
        <ele>671.1</ele>
        <time>2018-11-28T00:10:36Z</time>
      </trkpt>
      <trkpt lat="42.34653" lon="2.66721">
        <ele>671.3</ele>
        <time>2018-11-28T00:10:40Z</time>
      </trkpt>
      <trkpt lat="42.34657" lon="2.66722">
        <ele>671.9</ele>
        <time>2018-11-28T00:10:42Z</time>
      </trkpt>
      <trkpt lat="42.34664" lon="2.66717">
        <ele>671.7</ele>
        <time>2018-11-28T00:10:45Z</time>
      </trkpt>
      <trkpt lat="42.34681" lon="2.6672">
        <ele>670.3</ele>
        <time>2018-11-28T00:10:52Z</time>
      </trkpt>
      <trkpt lat="42.34696" lon="2.66716">
        <ele>669.5</ele>
        <time>2018-11-28T00:10:58Z</time>
      </trkpt>
      <trkpt lat="42.34707" lon="2.6671">
        <ele>669.5</ele>
        <time>2018-11-28T00:11:03Z</time>
      </trkpt>
      <trkpt lat="42.34716" lon="2.66698">
        <ele>668.7</ele>
        <time>2018-11-28T00:11:08Z</time>
      </trkpt>
      <trkpt lat="42.34726" lon="2.66685">
        <ele>669.6</ele>
        <time>2018-11-28T00:11:14Z</time>
      </trkpt>
      <trkpt lat="42.34737" lon="2.66676">
        <ele>670.8</ele>
        <time>2018-11-28T00:11:18Z</time>
      </trkpt>
      <trkpt lat="42.34742" lon="2.66675">
        <ele>671.5</ele>
        <time>2018-11-28T00:11:21Z</time>
      </trkpt>
      <trkpt lat="42.34746" lon="2.6668">
        <ele>672.5</ele>
        <time>2018-11-28T00:11:23Z</time>
      </trkpt>
      <trkpt lat="42.34748" lon="2.66678">
        <ele>672.5</ele>
        <time>2018-11-28T00:11:24Z</time>
      </trkpt>
      <trkpt lat="42.34749" lon="2.66675">
        <ele>671.8</ele>
        <time>2018-11-28T00:11:25Z</time>
      </trkpt>
      <trkpt lat="42.3476" lon="2.66659">
        <ele>672.2</ele>
        <time>2018-11-28T00:11:31Z</time>
      </trkpt>
      <trkpt lat="42.34761" lon="2.66651">
        <ele>672.6</ele>
        <time>2018-11-28T00:11:33Z</time>
      </trkpt>
      <trkpt lat="42.34767" lon="2.66642">
        <ele>672</ele>
        <time>2018-11-28T00:11:37Z</time>
      </trkpt>
      <trkpt lat="42.34778" lon="2.66627">
        <ele>675</ele>
        <time>2018-11-28T00:11:43Z</time>
      </trkpt>
      <trkpt lat="42.34783" lon="2.66625">
        <ele>676.5</ele>
        <time>2018-11-28T00:11:45Z</time>
      </trkpt>
      <trkpt lat="42.3479" lon="2.66624">
        <ele>677.4</ele>
        <time>2018-11-28T00:11:48Z</time>
      </trkpt>
      <trkpt lat="42.348" lon="2.6661">
        <ele>680.6</ele>
        <time>2018-11-28T00:11:54Z</time>
      </trkpt>
      <trkpt lat="42.34802" lon="2.66602">
        <ele>681.1</ele>
        <time>2018-11-28T00:11:57Z</time>
      </trkpt>
      <trkpt lat="42.34802" lon="2.66602">
        <ele>680.6</ele>
        <time>2018-11-28T00:11:57Z</time>
      </trkpt>
      <trkpt lat="42.34804" lon="2.66606">
        <ele>681.3</ele>
        <time>2018-11-28T00:11:58Z</time>
      </trkpt>
      <trkpt lat="42.3481" lon="2.66602">
        <ele>682.7</ele>
        <time>2018-11-28T00:12:01Z</time>
      </trkpt>
      <trkpt lat="42.34813" lon="2.66595">
        <ele>683.2</ele>
        <time>2018-11-28T00:12:03Z</time>
      </trkpt>
      <trkpt lat="42.34818" lon="2.6659">
        <ele>684.4</ele>
        <time>2018-11-28T00:12:06Z</time>
      </trkpt>
      <trkpt lat="42.34824" lon="2.66579">
        <ele>687.4</ele>
        <time>2018-11-28T00:12:10Z</time>
      </trkpt>
      <trkpt lat="42.34838" lon="2.66563">
        <ele>691.9</ele>
        <time>2018-11-28T00:12:17Z</time>
      </trkpt>
      <trkpt lat="42.34843" lon="2.66561">
        <ele>692.2</ele>
        <time>2018-11-28T00:12:19Z</time>
      </trkpt>
      <trkpt lat="42.34856" lon="2.66548">
        <ele>694.5</ele>
        <time>2018-11-28T00:12:26Z</time>
      </trkpt>
      <trkpt lat="42.34863" lon="2.66539">
        <ele>696.4</ele>
        <time>2018-11-28T00:12:30Z</time>
      </trkpt>
      <trkpt lat="42.34864" lon="2.66536">
        <ele>696.3</ele>
        <time>2018-11-28T00:12:31Z</time>
      </trkpt>
      <trkpt lat="42.3488" lon="2.66516">
        <ele>700.1</ele>
        <time>2018-11-28T00:12:39Z</time>
      </trkpt>
      <trkpt lat="42.34887" lon="2.66498">
        <ele>705.8</ele>
        <time>2018-11-28T00:12:45Z</time>
      </trkpt>
      <trkpt lat="42.34893" lon="2.66489">
        <ele>707.3</ele>
        <time>2018-11-28T00:12:49Z</time>
      </trkpt>
      <trkpt lat="42.34894" lon="2.66486">
        <ele>709</ele>
        <time>2018-11-28T00:12:50Z</time>
      </trkpt>
      <trkpt lat="42.34898" lon="2.6648">
        <ele>711.4</ele>
        <time>2018-11-28T00:12:52Z</time>
      </trkpt>
      <trkpt lat="42.34909" lon="2.66465">
        <ele>716.3</ele>
        <time>2018-11-28T00:12:58Z</time>
      </trkpt>
      <trkpt lat="42.34912" lon="2.66458">
        <ele>716.9</ele>
        <time>2018-11-28T00:13:01Z</time>
      </trkpt>
      <trkpt lat="42.34919" lon="2.66452">
        <ele>718.4</ele>
        <time>2018-11-28T00:13:04Z</time>
      </trkpt>
      <trkpt lat="42.34927" lon="2.66437">
        <ele>721.3</ele>
        <time>2018-11-28T00:13:10Z</time>
      </trkpt>
      <trkpt lat="42.34936" lon="2.66426">
        <ele>724.6</ele>
        <time>2018-11-28T00:13:15Z</time>
      </trkpt>
      <trkpt lat="42.3494" lon="2.66417">
        <ele>725.4</ele>
        <time>2018-11-28T00:13:18Z</time>
      </trkpt>
      <trkpt lat="42.34941" lon="2.66416">
        <ele>725.6</ele>
        <time>2018-11-28T00:13:18Z</time>
      </trkpt>
      <trkpt lat="42.34947" lon="2.66408">
        <ele>725.9</ele>
        <time>2018-11-28T00:13:22Z</time>
      </trkpt>
      <trkpt lat="42.3495" lon="2.66406">
        <ele>725.9</ele>
        <time>2018-11-28T00:13:23Z</time>
      </trkpt>
      <trkpt lat="42.34961" lon="2.6638">
        <ele>732.6</ele>
        <time>2018-11-28T00:13:32Z</time>
      </trkpt>
      <trkpt lat="42.34962" lon="2.66371">
        <ele>733.7</ele>
        <time>2018-11-28T00:13:35Z</time>
      </trkpt>
      <trkpt lat="42.34965" lon="2.66365">
        <ele>735.1</ele>
        <time>2018-11-28T00:13:36Z</time>
      </trkpt>
      <trkpt lat="42.34969" lon="2.6635">
        <ele>736.7</ele>
        <time>2018-11-28T00:13:41Z</time>
      </trkpt>
      <trkpt lat="42.34978" lon="2.66337">
        <ele>738.2</ele>
        <time>2018-11-28T00:13:47Z</time>
      </trkpt>
      <trkpt lat="42.34984" lon="2.66322">
        <ele>743.2</ele>
        <time>2018-11-28T00:13:52Z</time>
      </trkpt>
      <trkpt lat="42.34996" lon="2.66311">
        <ele>743.9</ele>
        <time>2018-11-28T00:13:57Z</time>
      </trkpt>
      <trkpt lat="42.3503" lon="2.66298">
        <ele>752.3</ele>
        <time>2018-11-28T00:14:12Z</time>
      </trkpt>
      <trkpt lat="42.35079" lon="2.66298">
        <ele>758.5</ele>
        <time>2018-11-28T00:14:31Z</time>
      </trkpt>
      <trkpt lat="42.35086" lon="2.66296">
        <ele>758.2</ele>
        <time>2018-11-28T00:14:34Z</time>
      </trkpt>
      <trkpt lat="42.351" lon="2.66285">
        <ele>756.2</ele>
        <time>2018-11-28T00:14:40Z</time>
      </trkpt>
      <trkpt lat="42.35101" lon="2.66282">
        <ele>755.9</ele>
        <time>2018-11-28T00:14:41Z</time>
      </trkpt>
      <trkpt lat="42.35128" lon="2.66262">
        <ele>751.6</ele>
        <time>2018-11-28T00:14:54Z</time>
      </trkpt>
      <trkpt lat="42.35132" lon="2.66261">
        <ele>751.4</ele>
        <time>2018-11-28T00:14:55Z</time>
      </trkpt>
      <trkpt lat="42.35142" lon="2.66251">
        <ele>751.6</ele>
        <time>2018-11-28T00:15:00Z</time>
      </trkpt>
      <trkpt lat="42.35143" lon="2.66254">
        <ele>751.3</ele>
        <time>2018-11-28T00:15:01Z</time>
      </trkpt>
      <trkpt lat="42.35145" lon="2.66253">
        <ele>751.8</ele>
        <time>2018-11-28T00:15:02Z</time>
      </trkpt>
      <trkpt lat="42.35151" lon="2.66247">
        <ele>750.6</ele>
        <time>2018-11-28T00:15:05Z</time>
      </trkpt>
      <trkpt lat="42.35161" lon="2.66238">
        <ele>748</ele>
        <time>2018-11-28T00:15:10Z</time>
      </trkpt>
      <trkpt lat="42.35197" lon="2.66222">
        <ele>744.5</ele>
        <time>2018-11-28T00:15:25Z</time>
      </trkpt>
      <trkpt lat="42.35216" lon="2.66204">
        <ele>743.2</ele>
        <time>2018-11-28T00:15:34Z</time>
      </trkpt>
      <trkpt lat="42.35219" lon="2.66199">
        <ele>742.8</ele>
        <time>2018-11-28T00:15:36Z</time>
      </trkpt>
      <trkpt lat="42.3523" lon="2.66189">
        <ele>742.6</ele>
        <time>2018-11-28T00:15:41Z</time>
      </trkpt>
      <trkpt lat="42.35233" lon="2.66189">
        <ele>742.7</ele>
        <time>2018-11-28T00:15:42Z</time>
      </trkpt>
      <trkpt lat="42.35253" lon="2.66179">
        <ele>742.9</ele>
        <time>2018-11-28T00:15:51Z</time>
      </trkpt>
      <trkpt lat="42.35272" lon="2.66166">
        <ele>740.9</ele>
        <time>2018-11-28T00:16:00Z</time>
      </trkpt>
      <trkpt lat="42.35293" lon="2.6617">
        <ele>739.9</ele>
        <time>2018-11-28T00:16:08Z</time>
      </trkpt>
      <trkpt lat="42.35299" lon="2.66168">
        <ele>740</ele>
        <time>2018-11-28T00:16:11Z</time>
      </trkpt>
      <trkpt lat="42.3534" lon="2.66192">
        <ele>737.4</ele>
        <time>2018-11-28T00:16:28Z</time>
      </trkpt>
      <trkpt lat="42.35381" lon="2.66239">
        <ele>740.6</ele>
        <time>2018-11-28T00:16:50Z</time>
      </trkpt>
      <trkpt lat="42.35399" lon="2.66287">
        <ele>745.6</ele>
        <time>2018-11-28T00:17:06Z</time>
      </trkpt>
      <trkpt lat="42.35407" lon="2.66295">
        <ele>746.2</ele>
        <time>2018-11-28T00:17:10Z</time>
      </trkpt>
      <trkpt lat="42.35431" lon="2.66303">
        <ele>752.1</ele>
        <time>2018-11-28T00:17:20Z</time>
      </trkpt>
      <trkpt lat="42.35437" lon="2.66306">
        <ele>752.4</ele>
        <time>2018-11-28T00:17:22Z</time>
      </trkpt>
      <trkpt lat="42.3544" lon="2.66306">
        <ele>752.7</ele>
        <time>2018-11-28T00:17:23Z</time>
      </trkpt>
      <trkpt lat="42.35443" lon="2.66307">
        <ele>752</ele>
        <time>2018-11-28T00:17:24Z</time>
      </trkpt>
      <trkpt lat="42.35453" lon="2.66317">
        <ele>752.8</ele>
        <time>2018-11-28T00:17:30Z</time>
      </trkpt>
      <trkpt lat="42.35454" lon="2.66318">
        <ele>756.1</ele>
        <time>2018-11-28T00:17:30Z</time>
      </trkpt>
      <trkpt lat="42.35457" lon="2.66326">
        <ele>755.5</ele>
        <time>2018-11-28T00:17:33Z</time>
      </trkpt>
      <trkpt lat="42.35467" lon="2.66342">
        <ele>755.9</ele>
        <time>2018-11-28T00:17:39Z</time>
      </trkpt>
      <trkpt lat="42.3547" lon="2.66344">
        <ele>755.9</ele>
        <time>2018-11-28T00:17:40Z</time>
      </trkpt>
      <trkpt lat="42.35476" lon="2.66376">
        <ele>756.7</ele>
        <time>2018-11-28T00:17:50Z</time>
      </trkpt>
      <trkpt lat="42.35475" lon="2.66404">
        <ele>758.7</ele>
        <time>2018-11-28T00:17:59Z</time>
      </trkpt>
      <trkpt lat="42.3547" lon="2.6642">
        <ele>758</ele>
        <time>2018-11-28T00:18:04Z</time>
      </trkpt>
      <trkpt lat="42.35466" lon="2.66438">
        <ele>756.3</ele>
        <time>2018-11-28T00:18:09Z</time>
      </trkpt>
      <trkpt lat="42.35467" lon="2.66452">
        <ele>756.4</ele>
        <time>2018-11-28T00:18:13Z</time>
      </trkpt>
      <trkpt lat="42.35467" lon="2.66453">
        <ele>755</ele>
        <time>2018-11-28T00:18:14Z</time>
      </trkpt>
      <trkpt lat="42.35479" lon="2.66485">
        <ele>760</ele>
        <time>2018-11-28T00:18:24Z</time>
      </trkpt>
      <trkpt lat="42.35482" lon="2.66492">
        <ele>760.6</ele>
        <time>2018-11-28T00:18:27Z</time>
      </trkpt>
      <trkpt lat="42.35482" lon="2.66498">
        <ele>761.2</ele>
        <time>2018-11-28T00:18:28Z</time>
      </trkpt>
      <trkpt lat="42.35484" lon="2.66498">
        <ele>761.7</ele>
        <time>2018-11-28T00:18:29Z</time>
      </trkpt>
      <trkpt lat="42.35495" lon="2.66516">
        <ele>767.4</ele>
        <time>2018-11-28T00:18:36Z</time>
      </trkpt>
      <trkpt lat="42.35499" lon="2.6652">
        <ele>766.6</ele>
        <time>2018-11-28T00:18:38Z</time>
      </trkpt>
      <trkpt lat="42.355" lon="2.66524">
        <ele>766.3</ele>
        <time>2018-11-28T00:18:40Z</time>
      </trkpt>
      <trkpt lat="42.35505" lon="2.66531">
        <ele>767.3</ele>
        <time>2018-11-28T00:18:42Z</time>
      </trkpt>
      <trkpt lat="42.35517" lon="2.66538">
        <ele>766.3</ele>
        <time>2018-11-28T00:18:47Z</time>
      </trkpt>
      <trkpt lat="42.35517" lon="2.66539">
        <ele>766</ele>
        <time>2018-11-28T00:18:48Z</time>
      </trkpt>
      <trkpt lat="42.35522" lon="2.66549">
        <ele>765.2</ele>
        <time>2018-11-28T00:18:51Z</time>
      </trkpt>
      <trkpt lat="42.35523" lon="2.6656">
        <ele>765.8</ele>
        <time>2018-11-28T00:18:55Z</time>
      </trkpt>
      <trkpt lat="42.35527" lon="2.66572">
        <ele>766.3</ele>
        <time>2018-11-28T00:18:58Z</time>
      </trkpt>
      <trkpt lat="42.35529" lon="2.66593">
        <ele>766.5</ele>
        <time>2018-11-28T00:19:04Z</time>
      </trkpt>
      <trkpt lat="42.35532" lon="2.66601">
        <ele>765.9</ele>
        <time>2018-11-28T00:19:07Z</time>
      </trkpt>
      <trkpt lat="42.35539" lon="2.66603">
        <ele>765.8</ele>
        <time>2018-11-28T00:19:10Z</time>
      </trkpt>
      <trkpt lat="42.35542" lon="2.66601">
        <ele>766</ele>
        <time>2018-11-28T00:19:11Z</time>
      </trkpt>
      <trkpt lat="42.35572" lon="2.66568">
        <ele>766.3</ele>
        <time>2018-11-28T00:19:27Z</time>
      </trkpt>
      <trkpt lat="42.35573" lon="2.66557">
        <ele>766.3</ele>
        <time>2018-11-28T00:19:30Z</time>
      </trkpt>
      <trkpt lat="42.35572" lon="2.66557">
        <ele>768.3</ele>
        <time>2018-11-28T00:19:30Z</time>
      </trkpt>
      <trkpt lat="42.3557" lon="2.66548">
        <ele>767.6</ele>
        <time>2018-11-28T00:19:33Z</time>
      </trkpt>
      <trkpt lat="42.35573" lon="2.66515">
        <ele>768.9</ele>
        <time>2018-11-28T00:19:43Z</time>
      </trkpt>
      <trkpt lat="42.35583" lon="2.66494">
        <ele>770.2</ele>
        <time>2018-11-28T00:19:50Z</time>
      </trkpt>
      <trkpt lat="42.35631" lon="2.66444">
        <ele>774.5</ele>
        <time>2018-11-28T00:20:14Z</time>
      </trkpt>
      <trkpt lat="42.35639" lon="2.66431">
        <ele>774.2</ele>
        <time>2018-11-28T00:20:20Z</time>
      </trkpt>
      <trkpt lat="42.35645" lon="2.66402">
        <ele>773.9</ele>
        <time>2018-11-28T00:20:28Z</time>
      </trkpt>
      <trkpt lat="42.35646" lon="2.66362">
        <ele>774</ele>
        <time>2018-11-28T00:20:40Z</time>
      </trkpt>
      <trkpt lat="42.35649" lon="2.6635">
        <ele>773.6</ele>
        <time>2018-11-28T00:20:44Z</time>
      </trkpt>
      <trkpt lat="42.35668" lon="2.66317">
        <ele>775.5</ele>
        <time>2018-11-28T00:20:56Z</time>
      </trkpt>
      <trkpt lat="42.35694" lon="2.66221">
        <ele>780.8</ele>
        <time>2018-11-28T00:21:27Z</time>
      </trkpt>
      <trkpt lat="42.35697" lon="2.66193">
        <ele>784.1</ele>
        <time>2018-11-28T00:21:35Z</time>
      </trkpt>
      <trkpt lat="42.357" lon="2.66187">
        <ele>785.6</ele>
        <time>2018-11-28T00:21:37Z</time>
      </trkpt>
      <trkpt lat="42.35707" lon="2.6618">
        <ele>787.4</ele>
        <time>2018-11-28T00:21:41Z</time>
      </trkpt>
      <trkpt lat="42.35746" lon="2.66158">
        <ele>790.1</ele>
        <time>2018-11-28T00:21:57Z</time>
      </trkpt>
      <trkpt lat="42.35751" lon="2.66158">
        <ele>789.7</ele>
        <time>2018-11-28T00:21:59Z</time>
      </trkpt>
      <trkpt lat="42.3581" lon="2.66179">
        <ele>793.7</ele>
        <time>2018-11-28T00:22:24Z</time>
      </trkpt>
      <trkpt lat="42.35846" lon="2.66197">
        <ele>792.8</ele>
        <time>2018-11-28T00:22:39Z</time>
      </trkpt>
      <trkpt lat="42.35853" lon="2.66194">
        <ele>793.8</ele>
        <time>2018-11-28T00:22:42Z</time>
      </trkpt>
      <trkpt lat="42.3586" lon="2.66187">
        <ele>794.4</ele>
        <time>2018-11-28T00:22:46Z</time>
      </trkpt>
      <trkpt lat="42.35863" lon="2.66175">
        <ele>794.6</ele>
        <time>2018-11-28T00:22:49Z</time>
      </trkpt>
      <trkpt lat="42.35864" lon="2.6617">
        <ele>794.2</ele>
        <time>2018-11-28T00:22:51Z</time>
      </trkpt>
      <trkpt lat="42.3586" lon="2.66158">
        <ele>793.5</ele>
        <time>2018-11-28T00:22:55Z</time>
      </trkpt>
      <trkpt lat="42.35861" lon="2.66151">
        <ele>793.5</ele>
        <time>2018-11-28T00:22:57Z</time>
      </trkpt>
      <trkpt lat="42.3586" lon="2.66147">
        <ele>794.2</ele>
        <time>2018-11-28T00:22:58Z</time>
      </trkpt>
      <trkpt lat="42.35859" lon="2.66146">
        <ele>793.3</ele>
        <time>2018-11-28T00:22:59Z</time>
      </trkpt>
      <trkpt lat="42.35857" lon="2.66142">
        <ele>793.4</ele>
        <time>2018-11-28T00:23:00Z</time>
      </trkpt>
      <trkpt lat="42.35854" lon="2.66127">
        <ele>793</ele>
        <time>2018-11-28T00:23:05Z</time>
      </trkpt>
      <trkpt lat="42.3586" lon="2.66088">
        <ele>793.8</ele>
        <time>2018-11-28T00:23:16Z</time>
      </trkpt>
      <trkpt lat="42.35866" lon="2.66077">
        <ele>794.9</ele>
        <time>2018-11-28T00:23:20Z</time>
      </trkpt>
      <trkpt lat="42.35896" lon="2.6604">
        <ele>794.8</ele>
        <time>2018-11-28T00:23:37Z</time>
      </trkpt>
      <trkpt lat="42.35907" lon="2.66023">
        <ele>794.1</ele>
        <time>2018-11-28T00:23:43Z</time>
      </trkpt>
      <trkpt lat="42.35926" lon="2.66006">
        <ele>794.2</ele>
        <time>2018-11-28T00:23:52Z</time>
      </trkpt>
      <trkpt lat="42.35934" lon="2.65983">
        <ele>794.1</ele>
        <time>2018-11-28T00:24:00Z</time>
      </trkpt>
      <trkpt lat="42.35934" lon="2.65975">
        <ele>794.5</ele>
        <time>2018-11-28T00:24:02Z</time>
      </trkpt>
      <trkpt lat="42.3595" lon="2.65925">
        <ele>798.7</ele>
        <time>2018-11-28T00:24:18Z</time>
      </trkpt>
      <trkpt lat="42.35959" lon="2.65909">
        <ele>799.6</ele>
        <time>2018-11-28T00:24:24Z</time>
      </trkpt>
      <trkpt lat="42.35969" lon="2.65899">
        <ele>800.3</ele>
        <time>2018-11-28T00:24:29Z</time>
      </trkpt>
      <trkpt lat="42.35978" lon="2.65885">
        <ele>801.7</ele>
        <time>2018-11-28T00:24:35Z</time>
      </trkpt>
      <trkpt lat="42.3599" lon="2.65856">
        <ele>804.1</ele>
        <time>2018-11-28T00:24:45Z</time>
      </trkpt>
      <trkpt lat="42.35996" lon="2.65837">
        <ele>806</ele>
        <time>2018-11-28T00:24:51Z</time>
      </trkpt>
      <trkpt lat="42.36059" lon="2.6579">
        <ele>804.9</ele>
        <time>2018-11-28T00:25:20Z</time>
      </trkpt>
      <trkpt lat="42.3606" lon="2.65788">
        <ele>805.2</ele>
        <time>2018-11-28T00:25:20Z</time>
      </trkpt>
      <trkpt lat="42.36092" lon="2.65758">
        <ele>810.3</ele>
        <time>2018-11-28T00:25:36Z</time>
      </trkpt>
      <trkpt lat="42.36099" lon="2.65754">
        <ele>811.6</ele>
        <time>2018-11-28T00:25:39Z</time>
      </trkpt>
      <trkpt lat="42.36115" lon="2.65755">
        <ele>812.9</ele>
        <time>2018-11-28T00:25:45Z</time>
      </trkpt>
      <trkpt lat="42.36149" lon="2.65779">
        <ele>814.5</ele>
        <time>2018-11-28T00:26:01Z</time>
      </trkpt>
      <trkpt lat="42.36158" lon="2.65781">
        <ele>815.6</ele>
        <time>2018-11-28T00:26:04Z</time>
      </trkpt>
      <trkpt lat="42.36214" lon="2.65817">
        <ele>818</ele>
        <time>2018-11-28T00:26:29Z</time>
      </trkpt>
      <trkpt lat="42.36234" lon="2.65816">
        <ele>817.2</ele>
        <time>2018-11-28T00:26:37Z</time>
      </trkpt>
      <trkpt lat="42.36246" lon="2.65807">
        <ele>816.7</ele>
        <time>2018-11-28T00:26:43Z</time>
      </trkpt>
      <trkpt lat="42.36271" lon="2.65769">
        <ele>815.8</ele>
        <time>2018-11-28T00:26:57Z</time>
      </trkpt>
      <trkpt lat="42.36286" lon="2.65757">
        <ele>815.6</ele>
        <time>2018-11-28T00:27:05Z</time>
      </trkpt>
      <trkpt lat="42.36329" lon="2.65758">
        <ele>819.4</ele>
        <time>2018-11-28T00:27:22Z</time>
      </trkpt>
      <trkpt lat="42.36348" lon="2.65749">
        <ele>820.5</ele>
        <time>2018-11-28T00:27:30Z</time>
      </trkpt>
      <trkpt lat="42.36378" lon="2.65738">
        <ele>824.6</ele>
        <time>2018-11-28T00:27:42Z</time>
      </trkpt>
      <trkpt lat="42.36392" lon="2.65729">
        <ele>823.6</ele>
        <time>2018-11-28T00:27:49Z</time>
      </trkpt>
      <trkpt lat="42.36445" lon="2.65655">
        <ele>822.6</ele>
        <time>2018-11-28T00:28:19Z</time>
      </trkpt>
      <trkpt lat="42.3647" lon="2.65629">
        <ele>824.9</ele>
        <time>2018-11-28T00:28:31Z</time>
      </trkpt>
      <trkpt lat="42.36507" lon="2.65589">
        <ele>818.3</ele>
        <time>2018-11-28T00:28:51Z</time>
      </trkpt>
      <trkpt lat="42.36545" lon="2.65551">
        <ele>812.9</ele>
        <time>2018-11-28T00:29:10Z</time>
      </trkpt>
      <trkpt lat="42.36546" lon="2.65549">
        <ele>812.9</ele>
        <time>2018-11-28T00:29:10Z</time>
      </trkpt>
      <trkpt lat="42.36559" lon="2.65538">
        <ele>813.1</ele>
        <time>2018-11-28T00:29:16Z</time>
      </trkpt>
      <trkpt lat="42.36565" lon="2.65528">
        <ele>812.5</ele>
        <time>2018-11-28T00:29:20Z</time>
      </trkpt>
      <trkpt lat="42.36604" lon="2.65444">
        <ele>811.9</ele>
        <time>2018-11-28T00:29:49Z</time>
      </trkpt>
      <trkpt lat="42.36608" lon="2.65441">
        <ele>812.1</ele>
        <time>2018-11-28T00:29:51Z</time>
      </trkpt>
      <trkpt lat="42.36622" lon="2.65442">
        <ele>811.1</ele>
        <time>2018-11-28T00:29:57Z</time>
      </trkpt>
      <trkpt lat="42.36623" lon="2.6544">
        <ele>811.4</ele>
        <time>2018-11-28T00:29:57Z</time>
      </trkpt>
      <trkpt lat="42.3662" lon="2.65425">
        <ele>814.4</ele>
        <time>2018-11-28T00:30:02Z</time>
      </trkpt>
      <trkpt lat="42.36631" lon="2.65363">
        <ele>817.9</ele>
        <time>2018-11-28T00:30:21Z</time>
      </trkpt>
      <trkpt lat="42.36626" lon="2.6524">
        <ele>821</ele>
        <time>2018-11-28T00:30:57Z</time>
      </trkpt>
      <trkpt lat="42.36631" lon="2.65232">
        <ele>821</ele>
        <time>2018-11-28T00:31:00Z</time>
      </trkpt>
      <trkpt lat="42.36632" lon="2.6521">
        <ele>824.2</ele>
        <time>2018-11-28T00:31:07Z</time>
      </trkpt>
      <trkpt lat="42.36635" lon="2.65204">
        <ele>825</ele>
        <time>2018-11-28T00:31:09Z</time>
      </trkpt>
      <trkpt lat="42.36634" lon="2.65198">
        <ele>824.8</ele>
        <time>2018-11-28T00:31:11Z</time>
      </trkpt>
      <trkpt lat="42.36639" lon="2.65175">
        <ele>823.9</ele>
        <time>2018-11-28T00:31:18Z</time>
      </trkpt>
      <trkpt lat="42.36644" lon="2.65164">
        <ele>824</ele>
        <time>2018-11-28T00:31:22Z</time>
      </trkpt>
      <trkpt lat="42.36643" lon="2.65159">
        <ele>824.2</ele>
        <time>2018-11-28T00:31:23Z</time>
      </trkpt>
      <trkpt lat="42.36644" lon="2.65152">
        <ele>825</ele>
        <time>2018-11-28T00:31:25Z</time>
      </trkpt>
      <trkpt lat="42.36648" lon="2.65148">
        <ele>825.9</ele>
        <time>2018-11-28T00:31:27Z</time>
      </trkpt>
      <trkpt lat="42.36652" lon="2.65135">
        <ele>826.6</ele>
        <time>2018-11-28T00:31:32Z</time>
      </trkpt>
      <trkpt lat="42.36661" lon="2.65098">
        <ele>825.1</ele>
        <time>2018-11-28T00:31:43Z</time>
      </trkpt>
      <trkpt lat="42.36665" lon="2.65095">
        <ele>824.7</ele>
        <time>2018-11-28T00:31:44Z</time>
      </trkpt>
      <trkpt lat="42.3667" lon="2.65081">
        <ele>823.6</ele>
        <time>2018-11-28T00:31:49Z</time>
      </trkpt>
      <trkpt lat="42.36681" lon="2.65065">
        <ele>821</ele>
        <time>2018-11-28T00:31:56Z</time>
      </trkpt>
      <trkpt lat="42.36683" lon="2.65056">
        <ele>820.7</ele>
        <time>2018-11-28T00:31:58Z</time>
      </trkpt>
      <trkpt lat="42.36677" lon="2.65053">
        <ele>821.1</ele>
        <time>2018-11-28T00:32:01Z</time>
      </trkpt>
      <trkpt lat="42.3668" lon="2.6504">
        <ele>820.6</ele>
        <time>2018-11-28T00:32:05Z</time>
      </trkpt>
      <trkpt lat="42.36678" lon="2.65031">
        <ele>822.1</ele>
        <time>2018-11-28T00:32:08Z</time>
      </trkpt>
      <trkpt lat="42.36686" lon="2.65031">
        <ele>822.2</ele>
        <time>2018-11-28T00:32:11Z</time>
      </trkpt>
      <trkpt lat="42.36688" lon="2.65029">
        <ele>822.1</ele>
        <time>2018-11-28T00:32:12Z</time>
      </trkpt>
      <trkpt lat="42.36697" lon="2.65026">
        <ele>820.2</ele>
        <time>2018-11-28T00:32:16Z</time>
      </trkpt>
      <trkpt lat="42.36698" lon="2.65015">
        <ele>817</ele>
        <time>2018-11-28T00:32:19Z</time>
      </trkpt>
      <trkpt lat="42.36689" lon="2.65001">
        <ele>816.9</ele>
        <time>2018-11-28T00:32:25Z</time>
      </trkpt>
      <trkpt lat="42.36691" lon="2.64993">
        <ele>817.1</ele>
        <time>2018-11-28T00:32:27Z</time>
      </trkpt>
      <trkpt lat="42.36688" lon="2.64981">
        <ele>818.5</ele>
        <time>2018-11-28T00:32:31Z</time>
      </trkpt>
      <trkpt lat="42.36673" lon="2.64968">
        <ele>821.8</ele>
        <time>2018-11-28T00:32:38Z</time>
      </trkpt>
      <trkpt lat="42.3668" lon="2.64964">
        <ele>822.7</ele>
        <time>2018-11-28T00:32:41Z</time>
      </trkpt>
      <trkpt lat="42.36681" lon="2.64967">
        <ele>824.9</ele>
        <time>2018-11-28T00:32:41Z</time>
      </trkpt>
      <trkpt lat="42.36694" lon="2.64966">
        <ele>820.1</ele>
        <time>2018-11-28T00:32:47Z</time>
      </trkpt>
      <trkpt lat="42.36696" lon="2.64975">
        <ele>820</ele>
        <time>2018-11-28T00:32:50Z</time>
      </trkpt>
      <trkpt lat="42.36692" lon="2.64964">
        <ele>809</ele>
        <time>2018-11-28T00:32:53Z</time>
      </trkpt>
      <trkpt lat="42.36692" lon="2.64966">
        <ele>817</ele>
        <time>2018-11-28T00:32:54Z</time>
      </trkpt>
      <trkpt lat="42.36685" lon="2.6497">
        <ele>822.1</ele>
        <time>2018-11-28T00:32:57Z</time>
      </trkpt>
      <trkpt lat="42.36688" lon="2.64974">
        <ele>821.1</ele>
        <time>2018-11-28T00:32:58Z</time>
      </trkpt>
      <trkpt lat="42.36698" lon="2.64975">
        <ele>821</ele>
        <time>2018-11-28T00:33:03Z</time>
      </trkpt>
      <trkpt lat="42.36695" lon="2.64971">
        <ele>828.1</ele>
        <time>2018-11-28T00:33:04Z</time>
      </trkpt>
      <trkpt lat="42.36698" lon="2.64973">
        <ele>823</ele>
        <time>2018-11-28T00:33:06Z</time>
      </trkpt>
      <trkpt lat="42.36699" lon="2.64971">
        <ele>817.1</ele>
        <time>2018-11-28T00:33:07Z</time>
      </trkpt>
      <trkpt lat="42.36694" lon="2.64971">
        <ele>825.1</ele>
        <time>2018-11-28T00:33:08Z</time>
      </trkpt>
      <trkpt lat="42.36699" lon="2.64977">
        <ele>830</ele>
        <time>2018-11-28T00:33:11Z</time>
      </trkpt>
      <trkpt lat="42.367" lon="2.64999">
        <ele>821.3</ele>
        <time>2018-11-28T00:33:17Z</time>
      </trkpt>
      <trkpt lat="42.36706" lon="2.6501">
        <ele>822.2</ele>
        <time>2018-11-28T00:33:22Z</time>
      </trkpt>
      <trkpt lat="42.36719" lon="2.65015">
        <ele>823.1</ele>
        <time>2018-11-28T00:33:27Z</time>
      </trkpt>
      <trkpt lat="42.36731" lon="2.6502">
        <ele>823.9</ele>
        <time>2018-11-28T00:33:32Z</time>
      </trkpt>
      <trkpt lat="42.36738" lon="2.6501">
        <ele>823.5</ele>
        <time>2018-11-28T00:33:36Z</time>
      </trkpt>
      <trkpt lat="42.36753" lon="2.65014">
        <ele>825</ele>
        <time>2018-11-28T00:33:42Z</time>
      </trkpt>
      <trkpt lat="42.36763" lon="2.65021">
        <ele>826.5</ele>
        <time>2018-11-28T00:33:47Z</time>
      </trkpt>
      <trkpt lat="42.36778" lon="2.65024">
        <ele>827.8</ele>
        <time>2018-11-28T00:33:53Z</time>
      </trkpt>
      <trkpt lat="42.36784" lon="2.65011">
        <ele>827.9</ele>
        <time>2018-11-28T00:33:57Z</time>
      </trkpt>
      <trkpt lat="42.3679" lon="2.64998">
        <ele>828.5</ele>
        <time>2018-11-28T00:34:02Z</time>
      </trkpt>
      <trkpt lat="42.36794" lon="2.64984">
        <ele>829.1</ele>
        <time>2018-11-28T00:34:06Z</time>
      </trkpt>
      <trkpt lat="42.36797" lon="2.6497">
        <ele>829.3</ele>
        <time>2018-11-28T00:34:11Z</time>
      </trkpt>
      <trkpt lat="42.36799" lon="2.64954">
        <ele>829.5</ele>
        <time>2018-11-28T00:34:15Z</time>
      </trkpt>
      <trkpt lat="42.36803" lon="2.64939">
        <ele>829.6</ele>
        <time>2018-11-28T00:34:20Z</time>
      </trkpt>
      <trkpt lat="42.36811" lon="2.64929">
        <ele>830.6</ele>
        <time>2018-11-28T00:34:24Z</time>
      </trkpt>
      <trkpt lat="42.3682" lon="2.6492">
        <ele>832.2</ele>
        <time>2018-11-28T00:34:29Z</time>
      </trkpt>
      <trkpt lat="42.36827" lon="2.64909">
        <ele>833</ele>
        <time>2018-11-28T00:34:33Z</time>
      </trkpt>
      <trkpt lat="42.36836" lon="2.64897">
        <ele>833.5</ele>
        <time>2018-11-28T00:34:38Z</time>
      </trkpt>
      <trkpt lat="42.36844" lon="2.64887">
        <ele>833.9</ele>
        <time>2018-11-28T00:34:42Z</time>
      </trkpt>
      <trkpt lat="42.36852" lon="2.64878">
        <ele>834.5</ele>
        <time>2018-11-28T00:34:47Z</time>
      </trkpt>
      <trkpt lat="42.36861" lon="2.64868">
        <ele>835</ele>
        <time>2018-11-28T00:34:51Z</time>
      </trkpt>
      <trkpt lat="42.3687" lon="2.6486">
        <ele>835.9</ele>
        <time>2018-11-28T00:34:56Z</time>
      </trkpt>
      <trkpt lat="42.3688" lon="2.64852">
        <ele>836.6</ele>
        <time>2018-11-28T00:35:00Z</time>
      </trkpt>
      <trkpt lat="42.36892" lon="2.64846">
        <ele>838.4</ele>
        <time>2018-11-28T00:35:05Z</time>
      </trkpt>
      <trkpt lat="42.36901" lon="2.64837">
        <ele>839.4</ele>
        <time>2018-11-28T00:35:10Z</time>
      </trkpt>
      <trkpt lat="42.36907" lon="2.64826">
        <ele>841</ele>
        <time>2018-11-28T00:35:14Z</time>
      </trkpt>
      <trkpt lat="42.36914" lon="2.64814">
        <ele>842.4</ele>
        <time>2018-11-28T00:35:18Z</time>
      </trkpt>
      <trkpt lat="42.36919" lon="2.64801">
        <ele>842.9</ele>
        <time>2018-11-28T00:35:23Z</time>
      </trkpt>
      <trkpt lat="42.36926" lon="2.6479">
        <ele>844.2</ele>
        <time>2018-11-28T00:35:27Z</time>
      </trkpt>
      <trkpt lat="42.36932" lon="2.64777">
        <ele>845.7</ele>
        <time>2018-11-28T00:35:32Z</time>
      </trkpt>
      <trkpt lat="42.36937" lon="2.64764">
        <ele>846.9</ele>
        <time>2018-11-28T00:35:36Z</time>
      </trkpt>
      <trkpt lat="42.3694" lon="2.64749">
        <ele>846.8</ele>
        <time>2018-11-28T00:35:41Z</time>
      </trkpt>
      <trkpt lat="42.36944" lon="2.64734">
        <ele>847</ele>
        <time>2018-11-28T00:35:45Z</time>
      </trkpt>
      <trkpt lat="42.36947" lon="2.64719">
        <ele>847.2</ele>
        <time>2018-11-28T00:35:50Z</time>
      </trkpt>
      <trkpt lat="42.36951" lon="2.64706">
        <ele>848.5</ele>
        <time>2018-11-28T00:35:54Z</time>
      </trkpt>
      <trkpt lat="42.36975" lon="2.64683">
        <ele>856.9</ele>
        <time>2018-11-28T00:36:06Z</time>
      </trkpt>
      <trkpt lat="42.36984" lon="2.64649">
        <ele>857.8</ele>
        <time>2018-11-28T00:36:17Z</time>
      </trkpt>
      <trkpt lat="42.36986" lon="2.64608">
        <ele>855.4</ele>
        <time>2018-11-28T00:36:29Z</time>
      </trkpt>
      <trkpt lat="42.36991" lon="2.64571">
        <ele>832.3</ele>
        <time>2018-11-28T00:36:40Z</time>
      </trkpt>
      <trkpt lat="42.36998" lon="2.64535">
        <ele>831.5</ele>
        <time>2018-11-28T00:36:51Z</time>
      </trkpt>
      <trkpt lat="42.37009" lon="2.64503">
        <ele>833.6</ele>
        <time>2018-11-28T00:37:01Z</time>
      </trkpt>
      <trkpt lat="42.3701" lon="2.6446">
        <ele>831.1</ele>
        <time>2018-11-28T00:37:14Z</time>
      </trkpt>
      <trkpt lat="42.37039" lon="2.64473">
        <ele>842.9</ele>
        <time>2018-11-28T00:37:26Z</time>
      </trkpt>
      <trkpt lat="42.37072" lon="2.64482">
        <ele>845.5</ele>
        <time>2018-11-28T00:37:40Z</time>
      </trkpt>
      <trkpt lat="42.3711" lon="2.64487">
        <ele>847.8</ele>
        <time>2018-11-28T00:37:55Z</time>
      </trkpt>
      <trkpt lat="42.3714" lon="2.64499">
        <ele>849.4</ele>
        <time>2018-11-28T00:38:08Z</time>
      </trkpt>
      <trkpt lat="42.3717" lon="2.64511">
        <ele>849.3</ele>
        <time>2018-11-28T00:38:20Z</time>
      </trkpt>
      <trkpt lat="42.372" lon="2.64524">
        <ele>850</ele>
        <time>2018-11-28T00:38:33Z</time>
      </trkpt>
      <trkpt lat="42.3723" lon="2.64536">
        <ele>850.5</ele>
        <time>2018-11-28T00:38:45Z</time>
      </trkpt>
      <trkpt lat="42.37262" lon="2.6455">
        <ele>851.2</ele>
        <time>2018-11-28T00:38:58Z</time>
      </trkpt>
      <trkpt lat="42.37289" lon="2.64565">
        <ele>852.4</ele>
        <time>2018-11-28T00:39:10Z</time>
      </trkpt>
      <trkpt lat="42.37316" lon="2.64582">
        <ele>852.1</ele>
        <time>2018-11-28T00:39:22Z</time>
      </trkpt>
      <trkpt lat="42.37332" lon="2.64608">
        <ele>848.3</ele>
        <time>2018-11-28T00:39:32Z</time>
      </trkpt>
      <trkpt lat="42.3736" lon="2.64628">
        <ele>841.1</ele>
        <time>2018-11-28T00:39:45Z</time>
      </trkpt>
      <trkpt lat="42.37379" lon="2.64651">
        <ele>837.5</ele>
        <time>2018-11-28T00:39:55Z</time>
      </trkpt>
      <trkpt lat="42.3741" lon="2.64662">
        <ele>838.7</ele>
        <time>2018-11-28T00:40:08Z</time>
      </trkpt>
      <trkpt lat="42.37448" lon="2.64658">
        <ele>846.8</ele>
        <time>2018-11-28T00:40:23Z</time>
      </trkpt>
      <trkpt lat="42.37483" lon="2.64651">
        <ele>853.3</ele>
        <time>2018-11-28T00:40:37Z</time>
      </trkpt>
      <trkpt lat="42.37518" lon="2.64643">
        <ele>855.4</ele>
        <time>2018-11-28T00:40:52Z</time>
      </trkpt>
      <trkpt lat="42.37532" lon="2.64615">
        <ele>852.4</ele>
        <time>2018-11-28T00:41:02Z</time>
      </trkpt>
      <trkpt lat="42.37548" lon="2.64588">
        <ele>856.3</ele>
        <time>2018-11-28T00:41:12Z</time>
      </trkpt>
      <trkpt lat="42.37585" lon="2.64583">
        <ele>861.9</ele>
        <time>2018-11-28T00:41:27Z</time>
      </trkpt>
      <trkpt lat="42.37619" lon="2.64591">
        <ele>859.7</ele>
        <time>2018-11-28T00:41:40Z</time>
      </trkpt>
      <trkpt lat="42.37661" lon="2.64599">
        <ele>852.5</ele>
        <time>2018-11-28T00:41:57Z</time>
      </trkpt>
      <trkpt lat="42.37696" lon="2.64606">
        <ele>852.4</ele>
        <time>2018-11-28T00:42:12Z</time>
      </trkpt>
      <trkpt lat="42.37711" lon="2.64579">
        <ele>852</ele>
        <time>2018-11-28T00:42:22Z</time>
      </trkpt>
      <trkpt lat="42.37735" lon="2.64561">
        <ele>854.3</ele>
        <time>2018-11-28T00:42:33Z</time>
      </trkpt>
      <trkpt lat="42.3778" lon="2.64559">
        <ele>860.5</ele>
        <time>2018-11-28T00:42:51Z</time>
      </trkpt>
      <trkpt lat="42.37768" lon="2.64529">
        <ele>858.5</ele>
        <time>2018-11-28T00:43:01Z</time>
      </trkpt>
      <trkpt lat="42.37761" lon="2.64494">
        <ele>857.8</ele>
        <time>2018-11-28T00:43:11Z</time>
      </trkpt>
      <trkpt lat="42.37776" lon="2.64465">
        <ele>860.5</ele>
        <time>2018-11-28T00:43:22Z</time>
      </trkpt>
      <trkpt lat="42.37803" lon="2.64451">
        <ele>865.8</ele>
        <time>2018-11-28T00:43:33Z</time>
      </trkpt>
      <trkpt lat="42.37815" lon="2.64482">
        <ele>866.9</ele>
        <time>2018-11-28T00:43:44Z</time>
      </trkpt>
      <trkpt lat="42.37815" lon="2.64524">
        <ele>866.6</ele>
        <time>2018-11-28T00:43:56Z</time>
      </trkpt>
      <trkpt lat="42.37827" lon="2.64554">
        <ele>869</ele>
        <time>2018-11-28T00:44:06Z</time>
      </trkpt>
      <trkpt lat="42.37845" lon="2.64529">
        <ele>872.2</ele>
        <time>2018-11-28T00:44:16Z</time>
      </trkpt>
      <trkpt lat="42.37855" lon="2.64497">
        <ele>873.9</ele>
        <time>2018-11-28T00:44:27Z</time>
      </trkpt>
      <trkpt lat="42.37868" lon="2.64528">
        <ele>876.5</ele>
        <time>2018-11-28T00:44:37Z</time>
      </trkpt>
      <trkpt lat="42.37877" lon="2.64563">
        <ele>878.9</ele>
        <time>2018-11-28T00:44:49Z</time>
      </trkpt>
      <trkpt lat="42.37901" lon="2.64544">
        <ele>884.4</ele>
        <time>2018-11-28T00:44:59Z</time>
      </trkpt>
      <trkpt lat="42.37911" lon="2.64513">
        <ele>886.8</ele>
        <time>2018-11-28T00:45:10Z</time>
      </trkpt>
      <trkpt lat="42.37921" lon="2.64481">
        <ele>888.5</ele>
        <time>2018-11-28T00:45:20Z</time>
      </trkpt>
      <trkpt lat="42.37921" lon="2.64438">
        <ele>889</ele>
        <time>2018-11-28T00:45:33Z</time>
      </trkpt>
      <trkpt lat="42.37927" lon="2.64401">
        <ele>891.5</ele>
        <time>2018-11-28T00:45:44Z</time>
      </trkpt>
      <trkpt lat="42.37926" lon="2.64364">
        <ele>893.3</ele>
        <time>2018-11-28T00:45:55Z</time>
      </trkpt>
      <trkpt lat="42.37924" lon="2.64324">
        <ele>897.5</ele>
        <time>2018-11-28T00:46:07Z</time>
      </trkpt>
      <trkpt lat="42.37922" lon="2.64285">
        <ele>901.1</ele>
        <time>2018-11-28T00:46:18Z</time>
      </trkpt>
      <trkpt lat="42.37921" lon="2.64243">
        <ele>904.9</ele>
        <time>2018-11-28T00:46:31Z</time>
      </trkpt>
      <trkpt lat="42.3792" lon="2.64198">
        <ele>908.7</ele>
        <time>2018-11-28T00:46:44Z</time>
      </trkpt>
      <trkpt lat="42.37922" lon="2.64156">
        <ele>911</ele>
        <time>2018-11-28T00:46:56Z</time>
      </trkpt>
      <trkpt lat="42.37924" lon="2.64115">
        <ele>913.9</ele>
        <time>2018-11-28T00:47:08Z</time>
      </trkpt>
      <trkpt lat="42.37937" lon="2.64087">
        <ele>916</ele>
        <time>2018-11-28T00:47:18Z</time>
      </trkpt>
      <trkpt lat="42.37947" lon="2.64053">
        <ele>918.3</ele>
        <time>2018-11-28T00:47:29Z</time>
      </trkpt>
      <trkpt lat="42.37959" lon="2.64022">
        <ele>921.3</ele>
        <time>2018-11-28T00:47:40Z</time>
      </trkpt>
      <trkpt lat="42.37966" lon="2.63987">
        <ele>927.2</ele>
        <time>2018-11-28T00:47:50Z</time>
      </trkpt>
      <trkpt lat="42.37976" lon="2.63953">
        <ele>930.4</ele>
        <time>2018-11-28T00:48:01Z</time>
      </trkpt>
      <trkpt lat="42.37984" lon="2.63919">
        <ele>931.3</ele>
        <time>2018-11-28T00:48:12Z</time>
      </trkpt>
      <trkpt lat="42.37991" lon="2.63884">
        <ele>932.4</ele>
        <time>2018-11-28T00:48:22Z</time>
      </trkpt>
      <trkpt lat="42.37997" lon="2.63847">
        <ele>928.9</ele>
        <time>2018-11-28T00:48:33Z</time>
      </trkpt>
      <trkpt lat="42.38001" lon="2.63809">
        <ele>924.5</ele>
        <time>2018-11-28T00:48:45Z</time>
      </trkpt>
      <trkpt lat="42.38005" lon="2.63772">
        <ele>919.6</ele>
        <time>2018-11-28T00:48:56Z</time>
      </trkpt>
      <trkpt lat="42.37996" lon="2.63739">
        <ele>918.9</ele>
        <time>2018-11-28T00:49:06Z</time>
      </trkpt>
      <trkpt lat="42.37986" lon="2.63705">
        <ele>917.7</ele>
        <time>2018-11-28T00:49:17Z</time>
      </trkpt>
      <trkpt lat="42.37982" lon="2.63665">
        <ele>914.2</ele>
        <time>2018-11-28T00:49:29Z</time>
      </trkpt>
      <trkpt lat="42.38003" lon="2.63643">
        <ele>908.5</ele>
        <time>2018-11-28T00:49:39Z</time>
      </trkpt>
      <trkpt lat="42.38007" lon="2.63605">
        <ele>903.6</ele>
        <time>2018-11-28T00:49:51Z</time>
      </trkpt>
      <trkpt lat="42.38007" lon="2.63563">
        <ele>897.5</ele>
        <time>2018-11-28T00:50:03Z</time>
      </trkpt>
      <trkpt lat="42.38006" lon="2.63522">
        <ele>890.2</ele>
        <time>2018-11-28T00:50:15Z</time>
      </trkpt>
      <trkpt lat="42.37995" lon="2.63491">
        <ele>885.2</ele>
        <time>2018-11-28T00:50:25Z</time>
      </trkpt>
      <trkpt lat="42.37971" lon="2.63472">
        <ele>885.9</ele>
        <time>2018-11-28T00:50:37Z</time>
      </trkpt>
      <trkpt lat="42.37941" lon="2.6346">
        <ele>893.8</ele>
        <time>2018-11-28T00:50:49Z</time>
      </trkpt>
      <trkpt lat="42.37937" lon="2.63422">
        <ele>891.7</ele>
        <time>2018-11-28T00:51:00Z</time>
      </trkpt>
      <trkpt lat="42.37938" lon="2.6338">
        <ele>887.5</ele>
        <time>2018-11-28T00:51:13Z</time>
      </trkpt>
      <trkpt lat="42.3794" lon="2.63338">
        <ele>883</ele>
        <time>2018-11-28T00:51:25Z</time>
      </trkpt>
      <trkpt lat="42.3794" lon="2.63296">
        <ele>879.9</ele>
        <time>2018-11-28T00:51:38Z</time>
      </trkpt>
      <trkpt lat="42.37954" lon="2.63265">
        <ele>871.9</ele>
        <time>2018-11-28T00:51:48Z</time>
      </trkpt>
      <trkpt lat="42.37972" lon="2.63238">
        <ele>864.5</ele>
        <time>2018-11-28T00:51:59Z</time>
      </trkpt>
      <trkpt lat="42.37988" lon="2.63212">
        <ele>858.9</ele>
        <time>2018-11-28T00:52:09Z</time>
      </trkpt>
      <trkpt lat="42.38006" lon="2.63188">
        <ele>852.2</ele>
        <time>2018-11-28T00:52:19Z</time>
      </trkpt>
      <trkpt lat="42.3801" lon="2.63149">
        <ele>846.9</ele>
        <time>2018-11-28T00:52:31Z</time>
      </trkpt>
      <trkpt lat="42.3801" lon="2.63107">
        <ele>841.9</ele>
        <time>2018-11-28T00:52:43Z</time>
      </trkpt>
      <trkpt lat="42.3801" lon="2.63061">
        <ele>836.5</ele>
        <time>2018-11-28T00:52:57Z</time>
      </trkpt>
      <trkpt lat="42.38011" lon="2.63019">
        <ele>831.9</ele>
        <time>2018-11-28T00:53:09Z</time>
      </trkpt>
      <trkpt lat="42.38012" lon="2.62974">
        <ele>827.3</ele>
        <time>2018-11-28T00:53:23Z</time>
      </trkpt>
      <trkpt lat="42.38014" lon="2.62933">
        <ele>823.1</ele>
        <time>2018-11-28T00:53:35Z</time>
      </trkpt>
      <trkpt lat="42.38021" lon="2.62898">
        <ele>818.9</ele>
        <time>2018-11-28T00:53:45Z</time>
      </trkpt>
      <trkpt lat="42.38034" lon="2.6287">
        <ele>815.5</ele>
        <time>2018-11-28T00:53:55Z</time>
      </trkpt>
      <trkpt lat="42.38064" lon="2.62858">
        <ele>812.6</ele>
        <time>2018-11-28T00:54:08Z</time>
      </trkpt>
      <trkpt lat="42.38076" lon="2.62827">
        <ele>807.6</ele>
        <time>2018-11-28T00:54:18Z</time>
      </trkpt>
      <trkpt lat="42.38083" lon="2.6279">
        <ele>801.7</ele>
        <time>2018-11-28T00:54:29Z</time>
      </trkpt>
      <trkpt lat="42.3811" lon="2.62775">
        <ele>796.3</ele>
        <time>2018-11-28T00:54:41Z</time>
      </trkpt>
      <trkpt lat="42.38135" lon="2.62758">
        <ele>791.6</ele>
        <time>2018-11-28T00:54:52Z</time>
      </trkpt>
      <trkpt lat="42.38166" lon="2.62782">
        <ele>797</ele>
        <time>2018-11-28T00:55:07Z</time>
      </trkpt>
      <trkpt lat="42.38196" lon="2.6277">
        <ele>795.1</ele>
        <time>2018-11-28T00:55:19Z</time>
      </trkpt>
      <trkpt lat="42.38205" lon="2.62738">
        <ele>788.3</ele>
        <time>2018-11-28T00:55:29Z</time>
      </trkpt>
      <trkpt lat="42.38212" lon="2.62703">
        <ele>781.6</ele>
        <time>2018-11-28T00:55:40Z</time>
      </trkpt>
      <trkpt lat="42.38212" lon="2.62661">
        <ele>778.1</ele>
        <time>2018-11-28T00:55:53Z</time>
      </trkpt>
      <trkpt lat="42.38213" lon="2.62617">
        <ele>774.8</ele>
        <time>2018-11-28T00:56:05Z</time>
      </trkpt>
      <trkpt lat="42.3821" lon="2.62578">
        <ele>773.4</ele>
        <time>2018-11-28T00:56:17Z</time>
      </trkpt>
      <trkpt lat="42.38201" lon="2.62545">
        <ele>770.8</ele>
        <time>2018-11-28T00:56:27Z</time>
      </trkpt>
      <trkpt lat="42.38185" lon="2.62518">
        <ele>767</ele>
        <time>2018-11-28T00:56:38Z</time>
      </trkpt>
      <trkpt lat="42.38177" lon="2.62483">
        <ele>764.3</ele>
        <time>2018-11-28T00:56:49Z</time>
      </trkpt>
      <trkpt lat="42.38145" lon="2.62494">
        <ele>758.9</ele>
        <time>2018-11-28T00:57:02Z</time>
      </trkpt>
      <trkpt lat="42.38114" lon="2.62481">
        <ele>752.6</ele>
        <time>2018-11-28T00:57:14Z</time>
      </trkpt>
      <trkpt lat="42.38109" lon="2.62443">
        <ele>748.7</ele>
        <time>2018-11-28T00:57:26Z</time>
      </trkpt>
      <trkpt lat="42.38113" lon="2.62406">
        <ele>745.9</ele>
        <time>2018-11-28T00:57:37Z</time>
      </trkpt>
      <trkpt lat="42.38124" lon="2.62374">
        <ele>744.8</ele>
        <time>2018-11-28T00:57:47Z</time>
      </trkpt>
      <trkpt lat="42.3814" lon="2.62349">
        <ele>744.5</ele>
        <time>2018-11-28T00:57:57Z</time>
      </trkpt>
      <trkpt lat="42.38157" lon="2.62322">
        <ele>743.1</ele>
        <time>2018-11-28T00:58:08Z</time>
      </trkpt>
      <trkpt lat="42.38172" lon="2.62292">
        <ele>740.1</ele>
        <time>2018-11-28T00:58:18Z</time>
      </trkpt>
      <trkpt lat="42.38184" lon="2.62262">
        <ele>735.5</ele>
        <time>2018-11-28T00:58:28Z</time>
      </trkpt>
      <trkpt lat="42.38195" lon="2.6223">
        <ele>729.8</ele>
        <time>2018-11-28T00:58:39Z</time>
      </trkpt>
      <trkpt lat="42.38211" lon="2.62201">
        <ele>725.6</ele>
        <time>2018-11-28T00:58:50Z</time>
      </trkpt>
      <trkpt lat="42.38231" lon="2.6217">
        <ele>724.8</ele>
        <time>2018-11-28T00:59:02Z</time>
      </trkpt>
      <trkpt lat="42.38247" lon="2.62142">
        <ele>723.6</ele>
        <time>2018-11-28T00:59:12Z</time>
      </trkpt>
      <trkpt lat="42.38265" lon="2.62114">
        <ele>722.3</ele>
        <time>2018-11-28T00:59:23Z</time>
      </trkpt>
      <trkpt lat="42.38284" lon="2.62091">
        <ele>720.7</ele>
        <time>2018-11-28T00:59:33Z</time>
      </trkpt>
      <trkpt lat="42.38303" lon="2.62064">
        <ele>717.5</ele>
        <time>2018-11-28T00:59:45Z</time>
      </trkpt>
      <trkpt lat="42.38323" lon="2.62039">
        <ele>716.5</ele>
        <time>2018-11-28T00:59:55Z</time>
      </trkpt>
      <trkpt lat="42.38327" lon="2.62">
        <ele>715.1</ele>
        <time>2018-11-28T01:00:07Z</time>
      </trkpt>
      <trkpt lat="42.3833" lon="2.61959">
        <ele>713.5</ele>
        <time>2018-11-28T01:00:19Z</time>
      </trkpt>
      <trkpt lat="42.38322" lon="2.61926">
        <ele>709.2</ele>
        <time>2018-11-28T01:00:30Z</time>
      </trkpt>
      <trkpt lat="42.38302" lon="2.61904">
        <ele>704.3</ele>
        <time>2018-11-28T01:00:40Z</time>
      </trkpt>
      <trkpt lat="42.3827" lon="2.61894">
        <ele>699</ele>
        <time>2018-11-28T01:00:53Z</time>
      </trkpt>
      <trkpt lat="42.38248" lon="2.61914">
        <ele>697.6</ele>
        <time>2018-11-28T01:01:04Z</time>
      </trkpt>
      <trkpt lat="42.38248" lon="2.61956">
        <ele>701.2</ele>
        <time>2018-11-28T01:01:16Z</time>
      </trkpt>
      <trkpt lat="42.38248" lon="2.61998">
        <ele>705.3</ele>
        <time>2018-11-28T01:01:29Z</time>
      </trkpt>
      <trkpt lat="42.38219" lon="2.61983">
        <ele>701.2</ele>
        <time>2018-11-28T01:01:41Z</time>
      </trkpt>
      <trkpt lat="42.38204" lon="2.61956">
        <ele>696.6</ele>
        <time>2018-11-28T01:01:51Z</time>
      </trkpt>
      <trkpt lat="42.38192" lon="2.61926">
        <ele>691.8</ele>
        <time>2018-11-28T01:02:01Z</time>
      </trkpt>
      <trkpt lat="42.38182" lon="2.61894">
        <ele>685.9</ele>
        <time>2018-11-28T01:02:12Z</time>
      </trkpt>
      <trkpt lat="42.38175" lon="2.61859">
        <ele>679.6</ele>
        <time>2018-11-28T01:02:22Z</time>
      </trkpt>
      <trkpt lat="42.38166" lon="2.61826">
        <ele>673.4</ele>
        <time>2018-11-28T01:02:33Z</time>
      </trkpt>
      <trkpt lat="42.38175" lon="2.61794">
        <ele>670.1</ele>
        <time>2018-11-28T01:02:43Z</time>
      </trkpt>
      <trkpt lat="42.3819" lon="2.61767">
        <ele>669.5</ele>
        <time>2018-11-28T01:02:53Z</time>
      </trkpt>
      <trkpt lat="42.38212" lon="2.61746">
        <ele>670.1</ele>
        <time>2018-11-28T01:03:04Z</time>
      </trkpt>
      <trkpt lat="42.38217" lon="2.61706">
        <ele>666</ele>
        <time>2018-11-28T01:03:16Z</time>
      </trkpt>
      <trkpt lat="42.3822" lon="2.61667">
        <ele>663.8</ele>
        <time>2018-11-28T01:03:27Z</time>
      </trkpt>
      <trkpt lat="42.3822" lon="2.61622">
        <ele>661</ele>
        <time>2018-11-28T01:03:41Z</time>
      </trkpt>
      <trkpt lat="42.38221" lon="2.61577">
        <ele>658</ele>
        <time>2018-11-28T01:03:54Z</time>
      </trkpt>
      <trkpt lat="42.38221" lon="2.61535">
        <ele>655.3</ele>
        <time>2018-11-28T01:04:06Z</time>
      </trkpt>
      <trkpt lat="42.38222" lon="2.61495">
        <ele>653.4</ele>
        <time>2018-11-28T01:04:18Z</time>
      </trkpt>
      <trkpt lat="42.38237" lon="2.61466">
        <ele>652.5</ele>
        <time>2018-11-28T01:04:29Z</time>
      </trkpt>
      <trkpt lat="42.3826" lon="2.61447">
        <ele>652.9</ele>
        <time>2018-11-28T01:04:39Z</time>
      </trkpt>
      <trkpt lat="42.38273" lon="2.61477">
        <ele>655.2</ele>
        <time>2018-11-28T01:04:49Z</time>
      </trkpt>
      <trkpt lat="42.38298" lon="2.61493">
        <ele>658.3</ele>
        <time>2018-11-28T01:05:01Z</time>
      </trkpt>
      <trkpt lat="42.38341" lon="2.615">
        <ele>658.5</ele>
        <time>2018-11-28T01:05:18Z</time>
      </trkpt>
      <trkpt lat="42.38526" lon="2.61193">
        <ele>664.5</ele>
        <time>2018-11-28T01:07:15Z</time>
      </trkpt>
      <trkpt lat="42.38517" lon="2.61181">
        <ele>664.5</ele>
        <time>2018-11-28T01:07:21Z</time>
      </trkpt>
      <trkpt lat="42.38505" lon="2.61163">
        <ele>663.9</ele>
        <time>2018-11-28T01:07:27Z</time>
      </trkpt>
      <trkpt lat="42.38505" lon="2.61162">
        <ele>663.9</ele>
        <time>2018-11-28T01:07:28Z</time>
      </trkpt>
      <trkpt lat="42.38489" lon="2.61146">
        <ele>663.1</ele>
        <time>2018-11-28T01:07:36Z</time>
      </trkpt>
      <trkpt lat="42.38479" lon="2.61145">
        <ele>664</ele>
        <time>2018-11-28T01:07:40Z</time>
      </trkpt>
      <trkpt lat="42.38472" lon="2.61148">
        <ele>663.6</ele>
        <time>2018-11-28T01:07:43Z</time>
      </trkpt>
      <trkpt lat="42.38456" lon="2.61154">
        <ele>663.9</ele>
        <time>2018-11-28T01:07:49Z</time>
      </trkpt>
      <trkpt lat="42.38451" lon="2.61163">
        <ele>663.1</ele>
        <time>2018-11-28T01:07:53Z</time>
      </trkpt>
      <trkpt lat="42.3845" lon="2.61166">
        <ele>663.1</ele>
        <time>2018-11-28T01:07:54Z</time>
      </trkpt>
      <trkpt lat="42.38439" lon="2.61177">
        <ele>662.6</ele>
        <time>2018-11-28T01:07:59Z</time>
      </trkpt>
      <trkpt lat="42.38421" lon="2.61191">
        <ele>661.6</ele>
        <time>2018-11-28T01:08:07Z</time>
      </trkpt>
      <trkpt lat="42.38409" lon="2.61207">
        <ele>661.6</ele>
        <time>2018-11-28T01:08:14Z</time>
      </trkpt>
      <trkpt lat="42.38409" lon="2.6122">
        <ele>661</ele>
        <time>2018-11-28T01:08:18Z</time>
      </trkpt>
      <trkpt lat="42.384" lon="2.61252">
        <ele>660.1</ele>
        <time>2018-11-28T01:08:28Z</time>
      </trkpt>
      <trkpt lat="42.38394" lon="2.61262">
        <ele>659.6</ele>
        <time>2018-11-28T01:08:32Z</time>
      </trkpt>
      <trkpt lat="42.38388" lon="2.6127">
        <ele>659.1</ele>
        <time>2018-11-28T01:08:35Z</time>
      </trkpt>
      <trkpt lat="42.38385" lon="2.61285">
        <ele>658.6</ele>
        <time>2018-11-28T01:08:40Z</time>
      </trkpt>
      <trkpt lat="42.3839" lon="2.61266">
        <ele>656.7</ele>
        <time>2018-11-28T01:08:46Z</time>
      </trkpt>
      <trkpt lat="42.38388" lon="2.61254">
        <ele>655.8</ele>
        <time>2018-11-28T01:08:49Z</time>
      </trkpt>
      <trkpt lat="42.38387" lon="2.61248">
        <ele>654.8</ele>
        <time>2018-11-28T01:08:51Z</time>
      </trkpt>
      <trkpt lat="42.38386" lon="2.61243">
        <ele>655.4</ele>
        <time>2018-11-28T01:08:53Z</time>
      </trkpt>
      <trkpt lat="42.38396" lon="2.61221">
        <ele>655.3</ele>
        <time>2018-11-28T01:09:00Z</time>
      </trkpt>
      <trkpt lat="42.38395" lon="2.61219">
        <ele>656.3</ele>
        <time>2018-11-28T01:09:01Z</time>
      </trkpt>
      <trkpt lat="42.38396" lon="2.61199">
        <ele>657.8</ele>
        <time>2018-11-28T01:09:07Z</time>
      </trkpt>
      <trkpt lat="42.38404" lon="2.61189">
        <ele>657.3</ele>
        <time>2018-11-28T01:09:11Z</time>
      </trkpt>
      <trkpt lat="42.38411" lon="2.61181">
        <ele>656.7</ele>
        <time>2018-11-28T01:09:15Z</time>
      </trkpt>
      <trkpt lat="42.38412" lon="2.61171">
        <ele>655.8</ele>
        <time>2018-11-28T01:09:18Z</time>
      </trkpt>
      <trkpt lat="42.38414" lon="2.61161">
        <ele>655.4</ele>
        <time>2018-11-28T01:09:21Z</time>
      </trkpt>
      <trkpt lat="42.38415" lon="2.6116">
        <ele>654.9</ele>
        <time>2018-11-28T01:09:21Z</time>
      </trkpt>
      <trkpt lat="42.38418" lon="2.61138">
        <ele>653.4</ele>
        <time>2018-11-28T01:09:28Z</time>
      </trkpt>
      <trkpt lat="42.38423" lon="2.61115">
        <ele>652.4</ele>
        <time>2018-11-28T01:09:35Z</time>
      </trkpt>
      <trkpt lat="42.38426" lon="2.61104">
        <ele>652</ele>
        <time>2018-11-28T01:09:39Z</time>
      </trkpt>
      <trkpt lat="42.38428" lon="2.61096">
        <ele>651.1</ele>
        <time>2018-11-28T01:09:41Z</time>
      </trkpt>
      <trkpt lat="42.38434" lon="2.61078">
        <ele>648.6</ele>
        <time>2018-11-28T01:09:47Z</time>
      </trkpt>
      <trkpt lat="42.3844" lon="2.61062">
        <ele>646.7</ele>
        <time>2018-11-28T01:09:52Z</time>
      </trkpt>
      <trkpt lat="42.38445" lon="2.61044">
        <ele>645.3</ele>
        <time>2018-11-28T01:09:58Z</time>
      </trkpt>
      <trkpt lat="42.38452" lon="2.61026">
        <ele>644.8</ele>
        <time>2018-11-28T01:10:04Z</time>
      </trkpt>
      <trkpt lat="42.38453" lon="2.61018">
        <ele>644.7</ele>
        <time>2018-11-28T01:10:06Z</time>
      </trkpt>
      <trkpt lat="42.38455" lon="2.61011">
        <ele>644.2</ele>
        <time>2018-11-28T01:10:08Z</time>
      </trkpt>
      <trkpt lat="42.38455" lon="2.6101">
        <ele>644.2</ele>
        <time>2018-11-28T01:10:09Z</time>
      </trkpt>
      <trkpt lat="42.38457" lon="2.60988">
        <ele>642.8</ele>
        <time>2018-11-28T01:10:15Z</time>
      </trkpt>
      <trkpt lat="42.38465" lon="2.60976">
        <ele>639.4</ele>
        <time>2018-11-28T01:10:20Z</time>
      </trkpt>
      <trkpt lat="42.3847" lon="2.6096">
        <ele>639</ele>
        <time>2018-11-28T01:10:25Z</time>
      </trkpt>
      <trkpt lat="42.38466" lon="2.60937">
        <ele>639.4</ele>
        <time>2018-11-28T01:10:32Z</time>
      </trkpt>
      <trkpt lat="42.38463" lon="2.60935">
        <ele>639.5</ele>
        <time>2018-11-28T01:10:33Z</time>
      </trkpt>
      <trkpt lat="42.38457" lon="2.60928">
        <ele>640.9</ele>
        <time>2018-11-28T01:10:36Z</time>
      </trkpt>
      <trkpt lat="42.38457" lon="2.60923">
        <ele>641.3</ele>
        <time>2018-11-28T01:10:38Z</time>
      </trkpt>
      <trkpt lat="42.38462" lon="2.60921">
        <ele>641.9</ele>
        <time>2018-11-28T01:10:40Z</time>
      </trkpt>
      <trkpt lat="42.38482" lon="2.60924">
        <ele>644.7</ele>
        <time>2018-11-28T01:10:48Z</time>
      </trkpt>
      <trkpt lat="42.38496" lon="2.60924">
        <ele>645.7</ele>
        <time>2018-11-28T01:10:54Z</time>
      </trkpt>
      <trkpt lat="42.38502" lon="2.60924">
        <ele>646.1</ele>
        <time>2018-11-28T01:10:56Z</time>
      </trkpt>
      <trkpt lat="42.3851" lon="2.60925">
        <ele>647.1</ele>
        <time>2018-11-28T01:10:59Z</time>
      </trkpt>
      <trkpt lat="42.38525" lon="2.60927">
        <ele>649</ele>
        <time>2018-11-28T01:11:05Z</time>
      </trkpt>
      <trkpt lat="42.38541" lon="2.60934">
        <ele>650</ele>
        <time>2018-11-28T01:11:12Z</time>
      </trkpt>
      <trkpt lat="42.38545" lon="2.60935">
        <ele>650.1</ele>
        <time>2018-11-28T01:11:14Z</time>
      </trkpt>
      <trkpt lat="42.38554" lon="2.60936">
        <ele>650.1</ele>
        <time>2018-11-28T01:11:17Z</time>
      </trkpt>
      <trkpt lat="42.38579" lon="2.60937">
        <ele>650.6</ele>
        <time>2018-11-28T01:11:27Z</time>
      </trkpt>
      <trkpt lat="42.38588" lon="2.60926">
        <ele>651.5</ele>
        <time>2018-11-28T01:11:32Z</time>
      </trkpt>
      <trkpt lat="42.38598" lon="2.60908">
        <ele>652.4</ele>
        <time>2018-11-28T01:11:39Z</time>
      </trkpt>
      <trkpt lat="42.38608" lon="2.60886">
        <ele>653.5</ele>
        <time>2018-11-28T01:11:46Z</time>
      </trkpt>
      <trkpt lat="42.38611" lon="2.60879">
        <ele>653.8</ele>
        <time>2018-11-28T01:11:49Z</time>
      </trkpt>
      <trkpt lat="42.38613" lon="2.60874">
        <ele>653.8</ele>
        <time>2018-11-28T01:11:50Z</time>
      </trkpt>
      <trkpt lat="42.38616" lon="2.60856">
        <ele>654.8</ele>
        <time>2018-11-28T01:11:56Z</time>
      </trkpt>
      <trkpt lat="42.38619" lon="2.60836">
        <ele>655.8</ele>
        <time>2018-11-28T01:12:02Z</time>
      </trkpt>
      <trkpt lat="42.38622" lon="2.60811">
        <ele>657.3</ele>
        <time>2018-11-28T01:12:09Z</time>
      </trkpt>
      <trkpt lat="42.38623" lon="2.60805">
        <ele>656.8</ele>
        <time>2018-11-28T01:12:11Z</time>
      </trkpt>
      <trkpt lat="42.38624" lon="2.60802">
        <ele>656.7</ele>
        <time>2018-11-28T01:12:12Z</time>
      </trkpt>
      <trkpt lat="42.38624" lon="2.60799">
        <ele>656.8</ele>
        <time>2018-11-28T01:12:13Z</time>
      </trkpt>
      <trkpt lat="42.38623" lon="2.60788">
        <ele>656.8</ele>
        <time>2018-11-28T01:12:17Z</time>
      </trkpt>
      <trkpt lat="42.3862" lon="2.6078">
        <ele>655.9</ele>
        <time>2018-11-28T01:12:19Z</time>
      </trkpt>
      <trkpt lat="42.3861" lon="2.60767">
        <ele>655.4</ele>
        <time>2018-11-28T01:12:25Z</time>
      </trkpt>
      <trkpt lat="42.38608" lon="2.60764">
        <ele>654.9</ele>
        <time>2018-11-28T01:12:26Z</time>
      </trkpt>
      <trkpt lat="42.38607" lon="2.60763">
        <ele>654.9</ele>
        <time>2018-11-28T01:12:26Z</time>
      </trkpt>
      <trkpt lat="42.38597" lon="2.60754">
        <ele>653.4</ele>
        <time>2018-11-28T01:12:31Z</time>
      </trkpt>
      <trkpt lat="42.38584" lon="2.6074">
        <ele>651.9</ele>
        <time>2018-11-28T01:12:38Z</time>
      </trkpt>
      <trkpt lat="42.3858" lon="2.60735">
        <ele>651</ele>
        <time>2018-11-28T01:12:40Z</time>
      </trkpt>
      <trkpt lat="42.3858" lon="2.60731">
        <ele>651</ele>
        <time>2018-11-28T01:12:41Z</time>
      </trkpt>
      <trkpt lat="42.38579" lon="2.60723">
        <ele>651</ele>
        <time>2018-11-28T01:12:43Z</time>
      </trkpt>
      <trkpt lat="42.38578" lon="2.60714">
        <ele>650.1</ele>
        <time>2018-11-28T01:12:46Z</time>
      </trkpt>
      <trkpt lat="42.38574" lon="2.60707">
        <ele>649.1</ele>
        <time>2018-11-28T01:12:49Z</time>
      </trkpt>
      <trkpt lat="42.38575" lon="2.60703">
        <ele>648.7</ele>
        <time>2018-11-28T01:12:50Z</time>
      </trkpt>
      <trkpt lat="42.38576" lon="2.60682">
        <ele>648.2</ele>
        <time>2018-11-28T01:12:56Z</time>
      </trkpt>
      <trkpt lat="42.38573" lon="2.60676">
        <ele>648.2</ele>
        <time>2018-11-28T01:12:58Z</time>
      </trkpt>
      <trkpt lat="42.38571" lon="2.60671">
        <ele>647.2</ele>
        <time>2018-11-28T01:13:00Z</time>
      </trkpt>
      <trkpt lat="42.38576" lon="2.60663">
        <ele>648.1</ele>
        <time>2018-11-28T01:13:03Z</time>
      </trkpt>
      <trkpt lat="42.38576" lon="2.60657">
        <ele>647.6</ele>
        <time>2018-11-28T01:13:05Z</time>
      </trkpt>
      <trkpt lat="42.38577" lon="2.6065">
        <ele>647.1</ele>
        <time>2018-11-28T01:13:07Z</time>
      </trkpt>
      <trkpt lat="42.38576" lon="2.60642">
        <ele>645.8</ele>
        <time>2018-11-28T01:13:09Z</time>
      </trkpt>
      <trkpt lat="42.38576" lon="2.60639">
        <ele>645.3</ele>
        <time>2018-11-28T01:13:10Z</time>
      </trkpt>
      <trkpt lat="42.38564" lon="2.60635">
        <ele>643.7</ele>
        <time>2018-11-28T01:13:15Z</time>
      </trkpt>
      <trkpt lat="42.38558" lon="2.60636">
        <ele>643.8</ele>
        <time>2018-11-28T01:13:17Z</time>
      </trkpt>
      <trkpt lat="42.38554" lon="2.60622">
        <ele>642.8</ele>
        <time>2018-11-28T01:13:22Z</time>
      </trkpt>
      <trkpt lat="42.38555" lon="2.60617">
        <ele>643.4</ele>
        <time>2018-11-28T01:13:23Z</time>
      </trkpt>
      <trkpt lat="42.38577" lon="2.606">
        <ele>644.3</ele>
        <time>2018-11-28T01:13:33Z</time>
      </trkpt>
      <trkpt lat="42.3859" lon="2.6059">
        <ele>645.3</ele>
        <time>2018-11-28T01:13:39Z</time>
      </trkpt>
      <trkpt lat="42.386" lon="2.60573">
        <ele>646.6</ele>
        <time>2018-11-28T01:13:46Z</time>
      </trkpt>
      <trkpt lat="42.38615" lon="2.60563">
        <ele>648.1</ele>
        <time>2018-11-28T01:13:53Z</time>
      </trkpt>
      <trkpt lat="42.38625" lon="2.60553">
        <ele>649.5</ele>
        <time>2018-11-28T01:13:57Z</time>
      </trkpt>
      <trkpt lat="42.38637" lon="2.60541">
        <ele>650.5</ele>
        <time>2018-11-28T01:14:03Z</time>
      </trkpt>
      <trkpt lat="42.38638" lon="2.60539">
        <ele>650.5</ele>
        <time>2018-11-28T01:14:04Z</time>
      </trkpt>
      <trkpt lat="42.3864" lon="2.60531">
        <ele>651.1</ele>
        <time>2018-11-28T01:14:06Z</time>
      </trkpt>
      <trkpt lat="42.38642" lon="2.60526">
        <ele>651.5</ele>
        <time>2018-11-28T01:14:08Z</time>
      </trkpt>
      <trkpt lat="42.38643" lon="2.60525">
        <ele>652</ele>
        <time>2018-11-28T01:14:09Z</time>
      </trkpt>
      <trkpt lat="42.38654" lon="2.60505">
        <ele>652.5</ele>
        <time>2018-11-28T01:14:16Z</time>
      </trkpt>
      <trkpt lat="42.38659" lon="2.60488">
        <ele>653.4</ele>
        <time>2018-11-28T01:14:21Z</time>
      </trkpt>
      <trkpt lat="42.38665" lon="2.60466">
        <ele>654.9</ele>
        <time>2018-11-28T01:14:28Z</time>
      </trkpt>
      <trkpt lat="42.3866" lon="2.60447">
        <ele>657.8</ele>
        <time>2018-11-28T01:14:34Z</time>
      </trkpt>
      <trkpt lat="42.38654" lon="2.6043">
        <ele>659.6</ele>
        <time>2018-11-28T01:14:40Z</time>
      </trkpt>
      <trkpt lat="42.38646" lon="2.60422">
        <ele>660.6</ele>
        <time>2018-11-28T01:14:44Z</time>
      </trkpt>
      <trkpt lat="42.3863" lon="2.60424">
        <ele>662.5</ele>
        <time>2018-11-28T01:14:50Z</time>
      </trkpt>
      <trkpt lat="42.3861" lon="2.60425">
        <ele>664.4</ele>
        <time>2018-11-28T01:14:58Z</time>
      </trkpt>
      <trkpt lat="42.38592" lon="2.60424">
        <ele>666.9</ele>
        <time>2018-11-28T01:15:06Z</time>
      </trkpt>
      <trkpt lat="42.38576" lon="2.60422">
        <ele>668.8</ele>
        <time>2018-11-28T01:15:12Z</time>
      </trkpt>
      <trkpt lat="42.38557" lon="2.60419">
        <ele>671.6</ele>
        <time>2018-11-28T01:15:20Z</time>
      </trkpt>
      <trkpt lat="42.38539" lon="2.60415">
        <ele>674.6</ele>
        <time>2018-11-28T01:15:27Z</time>
      </trkpt>
      <trkpt lat="42.38516" lon="2.60407">
        <ele>677</ele>
        <time>2018-11-28T01:15:36Z</time>
      </trkpt>
      <trkpt lat="42.38516" lon="2.60384">
        <ele>679.4</ele>
        <time>2018-11-28T01:15:43Z</time>
      </trkpt>
      <trkpt lat="42.38513" lon="2.60378">
        <ele>680.4</ele>
        <time>2018-11-28T01:15:45Z</time>
      </trkpt>
      <trkpt lat="42.38513" lon="2.60375">
        <ele>680.4</ele>
        <time>2018-11-28T01:15:46Z</time>
      </trkpt>
      <trkpt lat="42.3851" lon="2.60372">
        <ele>680.8</ele>
        <time>2018-11-28T01:15:47Z</time>
      </trkpt>
      <trkpt lat="42.38506" lon="2.60357">
        <ele>682.3</ele>
        <time>2018-11-28T01:15:52Z</time>
      </trkpt>
      <trkpt lat="42.38506" lon="2.60355">
        <ele>682.2</ele>
        <time>2018-11-28T01:15:53Z</time>
      </trkpt>
      <trkpt lat="42.38498" lon="2.6034">
        <ele>685.6</ele>
        <time>2018-11-28T01:15:58Z</time>
      </trkpt>
      <trkpt lat="42.38497" lon="2.60339">
        <ele>685.6</ele>
        <time>2018-11-28T01:15:58Z</time>
      </trkpt>
      <trkpt lat="42.38484" lon="2.60332">
        <ele>688.4</ele>
        <time>2018-11-28T01:16:04Z</time>
      </trkpt>
      <trkpt lat="42.38466" lon="2.60328">
        <ele>691.4</ele>
        <time>2018-11-28T01:16:11Z</time>
      </trkpt>
      <trkpt lat="42.38456" lon="2.60316">
        <ele>692.9</ele>
        <time>2018-11-28T01:16:17Z</time>
      </trkpt>
      <trkpt lat="42.38452" lon="2.60291">
        <ele>695.8</ele>
        <time>2018-11-28T01:16:24Z</time>
      </trkpt>
      <trkpt lat="42.3845" lon="2.60282">
        <ele>697.1</ele>
        <time>2018-11-28T01:16:27Z</time>
      </trkpt>
      <trkpt lat="42.38441" lon="2.6026">
        <ele>699.6</ele>
        <time>2018-11-28T01:16:35Z</time>
      </trkpt>
      <trkpt lat="42.38436" lon="2.60249">
        <ele>701</ele>
        <time>2018-11-28T01:16:38Z</time>
      </trkpt>
      <trkpt lat="42.38431" lon="2.60224">
        <ele>704.8</ele>
        <time>2018-11-28T01:16:46Z</time>
      </trkpt>
      <trkpt lat="42.38431" lon="2.60223">
        <ele>704.3</ele>
        <time>2018-11-28T01:16:46Z</time>
      </trkpt>
      <trkpt lat="42.38424" lon="2.60202">
        <ele>705.8</ele>
        <time>2018-11-28T01:16:53Z</time>
      </trkpt>
      <trkpt lat="42.38415" lon="2.60183">
        <ele>707.7</ele>
        <time>2018-11-28T01:17:00Z</time>
      </trkpt>
      <trkpt lat="42.38414" lon="2.6018">
        <ele>707.8</ele>
        <time>2018-11-28T01:17:01Z</time>
      </trkpt>
      <trkpt lat="42.38403" lon="2.6016">
        <ele>710.7</ele>
        <time>2018-11-28T01:17:08Z</time>
      </trkpt>
      <trkpt lat="42.38397" lon="2.60142">
        <ele>712.5</ele>
        <time>2018-11-28T01:17:14Z</time>
      </trkpt>
      <trkpt lat="42.38391" lon="2.6013">
        <ele>714</ele>
        <time>2018-11-28T01:17:18Z</time>
      </trkpt>
      <trkpt lat="42.38386" lon="2.60122">
        <ele>715</ele>
        <time>2018-11-28T01:17:21Z</time>
      </trkpt>
      <trkpt lat="42.38375" lon="2.60107">
        <ele>716.4</ele>
        <time>2018-11-28T01:17:28Z</time>
      </trkpt>
      <trkpt lat="42.3836" lon="2.601">
        <ele>719.7</ele>
        <time>2018-11-28T01:17:34Z</time>
      </trkpt>
      <trkpt lat="42.38354" lon="2.60095">
        <ele>720.8</ele>
        <time>2018-11-28T01:17:37Z</time>
      </trkpt>
      <trkpt lat="42.3835" lon="2.60091">
        <ele>720.8</ele>
        <time>2018-11-28T01:17:39Z</time>
      </trkpt>
      <trkpt lat="42.38342" lon="2.60079">
        <ele>722.2</ele>
        <time>2018-11-28T01:17:43Z</time>
      </trkpt>
      <trkpt lat="42.38333" lon="2.60066">
        <ele>723.5</ele>
        <time>2018-11-28T01:17:48Z</time>
      </trkpt>
      <trkpt lat="42.38319" lon="2.6005">
        <ele>725.9</ele>
        <time>2018-11-28T01:17:56Z</time>
      </trkpt>
      <trkpt lat="42.38317" lon="2.60048">
        <ele>726</ele>
        <time>2018-11-28T01:17:57Z</time>
      </trkpt>
      <trkpt lat="42.38305" lon="2.60026">
        <ele>727.4</ele>
        <time>2018-11-28T01:18:05Z</time>
      </trkpt>
      <trkpt lat="42.38298" lon="2.59999">
        <ele>728.8</ele>
        <time>2018-11-28T01:18:13Z</time>
      </trkpt>
      <trkpt lat="42.38289" lon="2.59973">
        <ele>730.7</ele>
        <time>2018-11-28T01:18:22Z</time>
      </trkpt>
      <trkpt lat="42.38279" lon="2.59947">
        <ele>732.8</ele>
        <time>2018-11-28T01:18:31Z</time>
      </trkpt>
      <trkpt lat="42.38277" lon="2.59942">
        <ele>732.7</ele>
        <time>2018-11-28T01:18:32Z</time>
      </trkpt>
      <trkpt lat="42.38272" lon="2.59928">
        <ele>734.6</ele>
        <time>2018-11-28T01:18:37Z</time>
      </trkpt>
      <trkpt lat="42.38266" lon="2.59917">
        <ele>735.6</ele>
        <time>2018-11-28T01:18:41Z</time>
      </trkpt>
      <trkpt lat="42.38266" lon="2.59912">
        <ele>737.1</ele>
        <time>2018-11-28T01:18:42Z</time>
      </trkpt>
      <trkpt lat="42.38265" lon="2.59904">
        <ele>737.6</ele>
        <time>2018-11-28T01:18:45Z</time>
      </trkpt>
      <trkpt lat="42.38264" lon="2.59901">
        <ele>738</ele>
        <time>2018-11-28T01:18:46Z</time>
      </trkpt>
      <trkpt lat="42.38263" lon="2.59878">
        <ele>740.4</ele>
        <time>2018-11-28T01:18:53Z</time>
      </trkpt>
      <trkpt lat="42.3826" lon="2.59862">
        <ele>742.3</ele>
        <time>2018-11-28T01:18:57Z</time>
      </trkpt>
      <trkpt lat="42.38259" lon="2.59856">
        <ele>743.2</ele>
        <time>2018-11-28T01:18:59Z</time>
      </trkpt>
      <trkpt lat="42.38258" lon="2.5984">
        <ele>745.3</ele>
        <time>2018-11-28T01:19:04Z</time>
      </trkpt>
      <trkpt lat="42.38256" lon="2.59838">
        <ele>745.2</ele>
        <time>2018-11-28T01:19:05Z</time>
      </trkpt>
      <trkpt lat="42.38255" lon="2.5983">
        <ele>746.1</ele>
        <time>2018-11-28T01:19:07Z</time>
      </trkpt>
      <trkpt lat="42.38257" lon="2.59823">
        <ele>746.6</ele>
        <time>2018-11-28T01:19:10Z</time>
      </trkpt>
      <trkpt lat="42.38271" lon="2.59821">
        <ele>747.2</ele>
        <time>2018-11-28T01:19:15Z</time>
      </trkpt>
      <trkpt lat="42.38275" lon="2.59818">
        <ele>747.7</ele>
        <time>2018-11-28T01:19:17Z</time>
      </trkpt>
      <trkpt lat="42.38291" lon="2.59803">
        <ele>748.5</ele>
        <time>2018-11-28T01:19:25Z</time>
      </trkpt>
      <trkpt lat="42.38303" lon="2.59785">
        <ele>748.6</ele>
        <time>2018-11-28T01:19:32Z</time>
      </trkpt>
      <trkpt lat="42.38312" lon="2.59761">
        <ele>748.5</ele>
        <time>2018-11-28T01:19:40Z</time>
      </trkpt>
      <trkpt lat="42.38323" lon="2.59739">
        <ele>748</ele>
        <time>2018-11-28T01:19:48Z</time>
      </trkpt>
      <trkpt lat="42.38334" lon="2.59717">
        <ele>747.1</ele>
        <time>2018-11-28T01:19:55Z</time>
      </trkpt>
      <trkpt lat="42.38341" lon="2.597">
        <ele>746.2</ele>
        <time>2018-11-28T01:20:01Z</time>
      </trkpt>
      <trkpt lat="42.38348" lon="2.59684">
        <ele>745.3</ele>
        <time>2018-11-28T01:20:07Z</time>
      </trkpt>
      <trkpt lat="42.38353" lon="2.5966">
        <ele>744.3</ele>
        <time>2018-11-28T01:20:14Z</time>
      </trkpt>
      <trkpt lat="42.38356" lon="2.59653">
        <ele>743.8</ele>
        <time>2018-11-28T01:20:16Z</time>
      </trkpt>
      <trkpt lat="42.38363" lon="2.5963">
        <ele>743.2</ele>
        <time>2018-11-28T01:20:24Z</time>
      </trkpt>
      <trkpt lat="42.38361" lon="2.59624">
        <ele>743.3</ele>
        <time>2018-11-28T01:20:26Z</time>
      </trkpt>
      <trkpt lat="42.38358" lon="2.59611">
        <ele>742.9</ele>
        <time>2018-11-28T01:20:30Z</time>
      </trkpt>
      <trkpt lat="42.38348" lon="2.59589">
        <ele>742.3</ele>
        <time>2018-11-28T01:20:37Z</time>
      </trkpt>
      <trkpt lat="42.38346" lon="2.59585">
        <ele>742.3</ele>
        <time>2018-11-28T01:20:39Z</time>
      </trkpt>
      <trkpt lat="42.38341" lon="2.59577">
        <ele>742.8</ele>
        <time>2018-11-28T01:20:42Z</time>
      </trkpt>
      <trkpt lat="42.38337" lon="2.59572">
        <ele>742.8</ele>
        <time>2018-11-28T01:20:44Z</time>
      </trkpt>
      <trkpt lat="42.38335" lon="2.59563">
        <ele>742.3</ele>
        <time>2018-11-28T01:20:47Z</time>
      </trkpt>
      <trkpt lat="42.38331" lon="2.59559">
        <ele>742.4</ele>
        <time>2018-11-28T01:20:49Z</time>
      </trkpt>
      <trkpt lat="42.38328" lon="2.59554">
        <ele>742.9</ele>
        <time>2018-11-28T01:20:51Z</time>
      </trkpt>
      <trkpt lat="42.38315" lon="2.59534">
        <ele>741.4</ele>
        <time>2018-11-28T01:20:59Z</time>
      </trkpt>
      <trkpt lat="42.38315" lon="2.59522">
        <ele>740.9</ele>
        <time>2018-11-28T01:21:02Z</time>
      </trkpt>
      <trkpt lat="42.38314" lon="2.59508">
        <ele>740</ele>
        <time>2018-11-28T01:21:06Z</time>
      </trkpt>
      <trkpt lat="42.38314" lon="2.59507">
        <ele>740.4</ele>
        <time>2018-11-28T01:21:07Z</time>
      </trkpt>
      <trkpt lat="42.3833" lon="2.59508">
        <ele>740.9</ele>
        <time>2018-11-28T01:21:13Z</time>
      </trkpt>
      <trkpt lat="42.38338" lon="2.59509">
        <ele>741.3</ele>
        <time>2018-11-28T01:21:16Z</time>
      </trkpt>
      <trkpt lat="42.38364" lon="2.59509">
        <ele>742.3</ele>
        <time>2018-11-28T01:21:27Z</time>
      </trkpt>
      <trkpt lat="42.38371" lon="2.5951">
        <ele>742.3</ele>
        <time>2018-11-28T01:21:29Z</time>
      </trkpt>
      <trkpt lat="42.38374" lon="2.59511">
        <ele>742.8</ele>
        <time>2018-11-28T01:21:30Z</time>
      </trkpt>
      <trkpt lat="42.38376" lon="2.59512">
        <ele>742.9</ele>
        <time>2018-11-28T01:21:31Z</time>
      </trkpt>
      <trkpt lat="42.38376" lon="2.59511">
        <ele>742.9</ele>
        <time>2018-11-28T01:21:32Z</time>
      </trkpt>
      <trkpt lat="42.3839" lon="2.59504">
        <ele>744.8</ele>
        <time>2018-11-28T01:21:38Z</time>
      </trkpt>
      <trkpt lat="42.38394" lon="2.59489">
        <ele>748.1</ele>
        <time>2018-11-28T01:21:42Z</time>
      </trkpt>
      <trkpt lat="42.38398" lon="2.59472">
        <ele>751</ele>
        <time>2018-11-28T01:21:48Z</time>
      </trkpt>
      <trkpt lat="42.384" lon="2.59467">
        <ele>751.5</ele>
        <time>2018-11-28T01:21:49Z</time>
      </trkpt>
      <trkpt lat="42.384" lon="2.59466">
        <ele>750.9</ele>
        <time>2018-11-28T01:21:50Z</time>
      </trkpt>
      <trkpt lat="42.38402" lon="2.59461">
        <ele>752</ele>
        <time>2018-11-28T01:21:51Z</time>
      </trkpt>
      <trkpt lat="42.38407" lon="2.59443">
        <ele>753.9</ele>
        <time>2018-11-28T01:21:57Z</time>
      </trkpt>
      <trkpt lat="42.3841" lon="2.5943">
        <ele>754.4</ele>
        <time>2018-11-28T01:22:01Z</time>
      </trkpt>
      <trkpt lat="42.38409" lon="2.5941">
        <ele>755.3</ele>
        <time>2018-11-28T01:22:07Z</time>
      </trkpt>
      <trkpt lat="42.38411" lon="2.59395">
        <ele>756.2</ele>
        <time>2018-11-28T01:22:11Z</time>
      </trkpt>
      <trkpt lat="42.38411" lon="2.59387">
        <ele>756.3</ele>
        <time>2018-11-28T01:22:14Z</time>
      </trkpt>
      <trkpt lat="42.38413" lon="2.59375">
        <ele>755.8</ele>
        <time>2018-11-28T01:22:17Z</time>
      </trkpt>
      <trkpt lat="42.38424" lon="2.59365">
        <ele>753.8</ele>
        <time>2018-11-28T01:22:23Z</time>
      </trkpt>
      <trkpt lat="42.38426" lon="2.59364">
        <ele>753</ele>
        <time>2018-11-28T01:22:24Z</time>
      </trkpt>
      <trkpt lat="42.38429" lon="2.5936">
        <ele>751.9</ele>
        <time>2018-11-28T01:22:25Z</time>
      </trkpt>
      <trkpt lat="42.38429" lon="2.5936">
        <ele>751.4</ele>
        <time>2018-11-28T01:22:25Z</time>
      </trkpt>
      <trkpt lat="42.38429" lon="2.5936">
        <ele>751.4</ele>
        <time>2018-11-28T01:22:25Z</time>
      </trkpt>
      <trkpt lat="42.38429" lon="2.5936">
        <ele>754.3</ele>
        <time>2018-11-28T01:22:25Z</time>
      </trkpt>
      <trkpt lat="42.38429" lon="2.5936">
        <ele>751.4</ele>
        <time>2018-11-28T01:22:25Z</time>
      </trkpt>
      <trkpt lat="42.38429" lon="2.5936">
        <ele>753</ele>
        <time>2018-11-28T01:22:25Z</time>
      </trkpt>
      <trkpt lat="42.38429" lon="2.5936">
        <ele>754.8</ele>
        <time>2018-11-28T01:22:25Z</time>
      </trkpt>
      <trkpt lat="42.38428" lon="2.5936">
        <ele>751.4</ele>
        <time>2018-11-28T01:22:26Z</time>
      </trkpt>
      <trkpt lat="42.38428" lon="2.59358">
        <ele>751</ele>
        <time>2018-11-28T01:22:26Z</time>
      </trkpt>
      <trkpt lat="42.38429" lon="2.59359">
        <ele>752.5</ele>
        <time>2018-11-28T01:22:26Z</time>
      </trkpt>
      <trkpt lat="42.38429" lon="2.59359">
        <ele>748</ele>
        <time>2018-11-28T01:22:26Z</time>
      </trkpt>
      <trkpt lat="42.38429" lon="2.59359">
        <ele>751.9</ele>
        <time>2018-11-28T01:22:26Z</time>
      </trkpt>
      <trkpt lat="42.38429" lon="2.59359">
        <ele>748.5</ele>
        <time>2018-11-28T01:22:26Z</time>
      </trkpt>
      <trkpt lat="42.38429" lon="2.59359">
        <ele>752.4</ele>
        <time>2018-11-28T01:22:26Z</time>
      </trkpt>
      <trkpt lat="42.38429" lon="2.59359">
        <ele>746.6</ele>
        <time>2018-11-28T01:22:26Z</time>
      </trkpt>
      <trkpt lat="42.38429" lon="2.59359">
        <ele>751.4</ele>
        <time>2018-11-28T01:22:26Z</time>
      </trkpt>
      <trkpt lat="42.38429" lon="2.59358">
        <ele>749</ele>
        <time>2018-11-28T01:22:27Z</time>
      </trkpt>
      <trkpt lat="42.38428" lon="2.59356">
        <ele>751</ele>
        <time>2018-11-28T01:22:27Z</time>
      </trkpt>
      <trkpt lat="42.38422" lon="2.59355">
        <ele>750.9</ele>
        <time>2018-11-28T01:22:30Z</time>
      </trkpt>
      <trkpt lat="42.38422" lon="2.59355">
        <ele>750.9</ele>
        <time>2018-11-28T01:22:30Z</time>
      </trkpt>
      <trkpt lat="42.38413" lon="2.59343">
        <ele>752.5</ele>
        <time>2018-11-28T01:22:35Z</time>
      </trkpt>
      <trkpt lat="42.38411" lon="2.59333">
        <ele>752.9</ele>
        <time>2018-11-28T01:22:38Z</time>
      </trkpt>
      <trkpt lat="42.38401" lon="2.59324">
        <ele>754.3</ele>
        <time>2018-11-28T01:22:43Z</time>
      </trkpt>
      <trkpt lat="42.38398" lon="2.59324">
        <ele>754.9</ele>
        <time>2018-11-28T01:22:44Z</time>
      </trkpt>
      <trkpt lat="42.38388" lon="2.59321">
        <ele>755.7</ele>
        <time>2018-11-28T01:22:48Z</time>
      </trkpt>
      <trkpt lat="42.38384" lon="2.5932">
        <ele>757.3</ele>
        <time>2018-11-28T01:22:49Z</time>
      </trkpt>
      <trkpt lat="42.38383" lon="2.59317">
        <ele>757.2</ele>
        <time>2018-11-28T01:22:51Z</time>
      </trkpt>
      <trkpt lat="42.38375" lon="2.59308">
        <ele>757.7</ele>
        <time>2018-11-28T01:22:55Z</time>
      </trkpt>
      <trkpt lat="42.38368" lon="2.59298">
        <ele>759.1</ele>
        <time>2018-11-28T01:22:59Z</time>
      </trkpt>
      <trkpt lat="42.38357" lon="2.59285">
        <ele>760.5</ele>
        <time>2018-11-28T01:23:04Z</time>
      </trkpt>
      <trkpt lat="42.38346" lon="2.59272">
        <ele>762.5</ele>
        <time>2018-11-28T01:23:10Z</time>
      </trkpt>
      <trkpt lat="42.38332" lon="2.59256">
        <ele>764.4</ele>
        <time>2018-11-28T01:23:18Z</time>
      </trkpt>
      <trkpt lat="42.38319" lon="2.59246">
        <ele>766.4</ele>
        <time>2018-11-28T01:23:24Z</time>
      </trkpt>
      <trkpt lat="42.38308" lon="2.59233">
        <ele>767.4</ele>
        <time>2018-11-28T01:23:30Z</time>
      </trkpt>
      <trkpt lat="42.38293" lon="2.59218">
        <ele>769.2</ele>
        <time>2018-11-28T01:23:37Z</time>
      </trkpt>
      <trkpt lat="42.38293" lon="2.59216">
        <ele>769.7</ele>
        <time>2018-11-28T01:23:37Z</time>
      </trkpt>
      <trkpt lat="42.38286" lon="2.5921">
        <ele>771.2</ele>
        <time>2018-11-28T01:23:41Z</time>
      </trkpt>
      <trkpt lat="42.38276" lon="2.59197">
        <ele>773.6</ele>
        <time>2018-11-28T01:23:46Z</time>
      </trkpt>
      <trkpt lat="42.38268" lon="2.59188">
        <ele>775.5</ele>
        <time>2018-11-28T01:23:51Z</time>
      </trkpt>
      <trkpt lat="42.38261" lon="2.59182">
        <ele>776.4</ele>
        <time>2018-11-28T01:23:54Z</time>
      </trkpt>
      <trkpt lat="42.38259" lon="2.59179">
        <ele>777</ele>
        <time>2018-11-28T01:23:55Z</time>
      </trkpt>
      <trkpt lat="42.38252" lon="2.5917">
        <ele>779.4</ele>
        <time>2018-11-28T01:23:59Z</time>
      </trkpt>
      <trkpt lat="42.38246" lon="2.59162">
        <ele>782.7</ele>
        <time>2018-11-28T01:24:02Z</time>
      </trkpt>
      <trkpt lat="42.38246" lon="2.59144">
        <ele>783.6</ele>
        <time>2018-11-28T01:24:08Z</time>
      </trkpt>
      <trkpt lat="42.38248" lon="2.59139">
        <ele>784.1</ele>
        <time>2018-11-28T01:24:09Z</time>
      </trkpt>
      <trkpt lat="42.38246" lon="2.59118">
        <ele>787.1</ele>
        <time>2018-11-28T01:24:16Z</time>
      </trkpt>
      <trkpt lat="42.38245" lon="2.59108">
        <ele>787.9</ele>
        <time>2018-11-28T01:24:18Z</time>
      </trkpt>
      <trkpt lat="42.38246" lon="2.591">
        <ele>788.5</ele>
        <time>2018-11-28T01:24:21Z</time>
      </trkpt>
      <trkpt lat="42.38243" lon="2.59088">
        <ele>788.9</ele>
        <time>2018-11-28T01:24:25Z</time>
      </trkpt>
      <trkpt lat="42.3824" lon="2.59078">
        <ele>789.4</ele>
        <time>2018-11-28T01:24:28Z</time>
      </trkpt>
      <trkpt lat="42.38238" lon="2.59073">
        <ele>789.4</ele>
        <time>2018-11-28T01:24:29Z</time>
      </trkpt>
      <trkpt lat="42.38237" lon="2.59066">
        <ele>789.5</ele>
        <time>2018-11-28T01:24:31Z</time>
      </trkpt>
      <trkpt lat="42.38233" lon="2.5905">
        <ele>790</ele>
        <time>2018-11-28T01:24:37Z</time>
      </trkpt>
      <trkpt lat="42.38233" lon="2.5903">
        <ele>789.4</ele>
        <time>2018-11-28T01:24:42Z</time>
      </trkpt>
      <trkpt lat="42.38233" lon="2.59014">
        <ele>789.9</ele>
        <time>2018-11-28T01:24:47Z</time>
      </trkpt>
      <trkpt lat="42.38231" lon="2.59007">
        <ele>789.9</ele>
        <time>2018-11-28T01:24:49Z</time>
      </trkpt>
      <trkpt lat="42.3823" lon="2.59004">
        <ele>790.3</ele>
        <time>2018-11-28T01:24:50Z</time>
      </trkpt>
      <trkpt lat="42.3823" lon="2.58995">
        <ele>790.4</ele>
        <time>2018-11-28T01:24:53Z</time>
      </trkpt>
      <trkpt lat="42.38231" lon="2.58979">
        <ele>790.9</ele>
        <time>2018-11-28T01:24:58Z</time>
      </trkpt>
      <trkpt lat="42.38229" lon="2.58962">
        <ele>791.3</ele>
        <time>2018-11-28T01:25:03Z</time>
      </trkpt>
      <trkpt lat="42.38228" lon="2.58945">
        <ele>792.4</ele>
        <time>2018-11-28T01:25:08Z</time>
      </trkpt>
      <trkpt lat="42.38222" lon="2.5893">
        <ele>793.8</ele>
        <time>2018-11-28T01:25:13Z</time>
      </trkpt>
      <trkpt lat="42.3822" lon="2.58921">
        <ele>794.8</ele>
        <time>2018-11-28T01:25:16Z</time>
      </trkpt>
      <trkpt lat="42.38217" lon="2.58912">
        <ele>795.3</ele>
        <time>2018-11-28T01:25:19Z</time>
      </trkpt>
      <trkpt lat="42.38214" lon="2.58897">
        <ele>796.1</ele>
        <time>2018-11-28T01:25:23Z</time>
      </trkpt>
      <trkpt lat="42.38208" lon="2.58876">
        <ele>797.7</ele>
        <time>2018-11-28T01:25:30Z</time>
      </trkpt>
      <trkpt lat="42.38206" lon="2.58863">
        <ele>798</ele>
        <time>2018-11-28T01:25:34Z</time>
      </trkpt>
      <trkpt lat="42.38207" lon="2.58858">
        <ele>798.5</ele>
        <time>2018-11-28T01:25:35Z</time>
      </trkpt>
      <trkpt lat="42.38206" lon="2.58845">
        <ele>800</ele>
        <time>2018-11-28T01:25:39Z</time>
      </trkpt>
      <trkpt lat="42.382" lon="2.58828">
        <ele>801</ele>
        <time>2018-11-28T01:25:45Z</time>
      </trkpt>
      <trkpt lat="42.38201" lon="2.58808">
        <ele>801.5</ele>
        <time>2018-11-28T01:25:51Z</time>
      </trkpt>
      <trkpt lat="42.38207" lon="2.58795">
        <ele>803.4</ele>
        <time>2018-11-28T01:25:55Z</time>
      </trkpt>
      <trkpt lat="42.38207" lon="2.58781">
        <ele>805.3</ele>
        <time>2018-11-28T01:25:59Z</time>
      </trkpt>
      <trkpt lat="42.38207" lon="2.58777">
        <ele>805.3</ele>
        <time>2018-11-28T01:26:00Z</time>
      </trkpt>
      <trkpt lat="42.38207" lon="2.58776">
        <ele>805.8</ele>
        <time>2018-11-28T01:26:01Z</time>
      </trkpt>
      <trkpt lat="42.38203" lon="2.5876">
        <ele>808.1</ele>
        <time>2018-11-28T01:26:06Z</time>
      </trkpt>
      <trkpt lat="42.38192" lon="2.58754">
        <ele>810.1</ele>
        <time>2018-11-28T01:26:11Z</time>
      </trkpt>
      <trkpt lat="42.38191" lon="2.58739">
        <ele>812.1</ele>
        <time>2018-11-28T01:26:15Z</time>
      </trkpt>
      <trkpt lat="42.38191" lon="2.58738">
        <ele>812</ele>
        <time>2018-11-28T01:26:15Z</time>
      </trkpt>
      <trkpt lat="42.38186" lon="2.58731">
        <ele>812.9</ele>
        <time>2018-11-28T01:26:18Z</time>
      </trkpt>
      <trkpt lat="42.38184" lon="2.58726">
        <ele>813.4</ele>
        <time>2018-11-28T01:26:20Z</time>
      </trkpt>
      <trkpt lat="42.38178" lon="2.5872">
        <ele>813.4</ele>
        <time>2018-11-28T01:26:23Z</time>
      </trkpt>
      <trkpt lat="42.38164" lon="2.58711">
        <ele>812.6</ele>
        <time>2018-11-28T01:26:29Z</time>
      </trkpt>
      <trkpt lat="42.38158" lon="2.58706">
        <ele>812.1</ele>
        <time>2018-11-28T01:26:32Z</time>
      </trkpt>
      <trkpt lat="42.38156" lon="2.58702">
        <ele>812</ele>
        <time>2018-11-28T01:26:33Z</time>
      </trkpt>
      <trkpt lat="42.38151" lon="2.58694">
        <ele>811</ele>
        <time>2018-11-28T01:26:36Z</time>
      </trkpt>
      <trkpt lat="42.38146" lon="2.58689">
        <ele>810.6</ele>
        <time>2018-11-28T01:26:39Z</time>
      </trkpt>
      <trkpt lat="42.38137" lon="2.58679">
        <ele>809.2</ele>
        <time>2018-11-28T01:26:43Z</time>
      </trkpt>
      <trkpt lat="42.3813" lon="2.58672">
        <ele>807.7</ele>
        <time>2018-11-28T01:26:47Z</time>
      </trkpt>
      <trkpt lat="42.38115" lon="2.58673">
        <ele>806.3</ele>
        <time>2018-11-28T01:26:53Z</time>
      </trkpt>
      <trkpt lat="42.38112" lon="2.58673">
        <ele>805.2</ele>
        <time>2018-11-28T01:26:54Z</time>
      </trkpt>
      <trkpt lat="42.38116" lon="2.58666">
        <ele>803.8</ele>
        <time>2018-11-28T01:26:57Z</time>
      </trkpt>
      <trkpt lat="42.38118" lon="2.5866">
        <ele>805.3</ele>
        <time>2018-11-28T01:26:59Z</time>
      </trkpt>
      <trkpt lat="42.38117" lon="2.58641">
        <ele>806.3</ele>
        <time>2018-11-28T01:27:04Z</time>
      </trkpt>
      <trkpt lat="42.38116" lon="2.58634">
        <ele>809.1</ele>
        <time>2018-11-28T01:27:07Z</time>
      </trkpt>
      <trkpt lat="42.38115" lon="2.58613">
        <ele>811.1</ele>
        <time>2018-11-28T01:27:13Z</time>
      </trkpt>
      <trkpt lat="42.38118" lon="2.58599">
        <ele>811</ele>
        <time>2018-11-28T01:27:17Z</time>
      </trkpt>
      <trkpt lat="42.38122" lon="2.58582">
        <ele>812</ele>
        <time>2018-11-28T01:27:22Z</time>
      </trkpt>
      <trkpt lat="42.38126" lon="2.58576">
        <ele>811.6</ele>
        <time>2018-11-28T01:27:25Z</time>
      </trkpt>
      <trkpt lat="42.38129" lon="2.58571">
        <ele>812.5</ele>
        <time>2018-11-28T01:27:27Z</time>
      </trkpt>
      <trkpt lat="42.38136" lon="2.58562">
        <ele>813.4</ele>
        <time>2018-11-28T01:27:31Z</time>
      </trkpt>
      <trkpt lat="42.38142" lon="2.58551">
        <ele>814.5</ele>
        <time>2018-11-28T01:27:35Z</time>
      </trkpt>
      <trkpt lat="42.3815" lon="2.58537">
        <ele>816.3</ele>
        <time>2018-11-28T01:27:40Z</time>
      </trkpt>
      <trkpt lat="42.38151" lon="2.58527">
        <ele>817.3</ele>
        <time>2018-11-28T01:27:43Z</time>
      </trkpt>
      <trkpt lat="42.38158" lon="2.58514">
        <ele>818.7</ele>
        <time>2018-11-28T01:27:47Z</time>
      </trkpt>
      <trkpt lat="42.3816" lon="2.58496">
        <ele>819.2</ele>
        <time>2018-11-28T01:27:53Z</time>
      </trkpt>
      <trkpt lat="42.38167" lon="2.58469">
        <ele>818.8</ele>
        <time>2018-11-28T01:28:01Z</time>
      </trkpt>
      <trkpt lat="42.38167" lon="2.58465">
        <ele>818.2</ele>
        <time>2018-11-28T01:28:02Z</time>
      </trkpt>
      <trkpt lat="42.38167" lon="2.58453">
        <ele>818.7</ele>
        <time>2018-11-28T01:28:06Z</time>
      </trkpt>
      <trkpt lat="42.38169" lon="2.5844">
        <ele>817.8</ele>
        <time>2018-11-28T01:28:10Z</time>
      </trkpt>
      <trkpt lat="42.38168" lon="2.58428">
        <ele>816.9</ele>
        <time>2018-11-28T01:28:14Z</time>
      </trkpt>
      <trkpt lat="42.38183" lon="2.58376">
        <ele>814.9</ele>
        <time>2018-11-28T01:28:30Z</time>
      </trkpt>
      <trkpt lat="42.38184" lon="2.58374">
        <ele>815</ele>
        <time>2018-11-28T01:28:31Z</time>
      </trkpt>
      <trkpt lat="42.38197" lon="2.58367">
        <ele>816.3</ele>
        <time>2018-11-28T01:28:36Z</time>
      </trkpt>
      <trkpt lat="42.38199" lon="2.58369">
        <ele>816.8</ele>
        <time>2018-11-28T01:28:37Z</time>
      </trkpt>
      <trkpt lat="42.38207" lon="2.58363">
        <ele>817.3</ele>
        <time>2018-11-28T01:28:41Z</time>
      </trkpt>
      <trkpt lat="42.38212" lon="2.58356">
        <ele>817.4</ele>
        <time>2018-11-28T01:28:44Z</time>
      </trkpt>
      <trkpt lat="42.38221" lon="2.58345">
        <ele>817.7</ele>
        <time>2018-11-28T01:28:49Z</time>
      </trkpt>
      <trkpt lat="42.38228" lon="2.58335">
        <ele>818.7</ele>
        <time>2018-11-28T01:28:53Z</time>
      </trkpt>
      <trkpt lat="42.38234" lon="2.58329">
        <ele>818.7</ele>
        <time>2018-11-28T01:28:56Z</time>
      </trkpt>
      <trkpt lat="42.38243" lon="2.58322">
        <ele>818.8</ele>
        <time>2018-11-28T01:29:00Z</time>
      </trkpt>
      <trkpt lat="42.3825" lon="2.58318">
        <ele>819.2</ele>
        <time>2018-11-28T01:29:03Z</time>
      </trkpt>
      <trkpt lat="42.3826" lon="2.5831">
        <ele>820.6</ele>
        <time>2018-11-28T01:29:08Z</time>
      </trkpt>
      <trkpt lat="42.38268" lon="2.58308">
        <ele>821.6</ele>
        <time>2018-11-28T01:29:11Z</time>
      </trkpt>
      <trkpt lat="42.38276" lon="2.58306">
        <ele>824</ele>
        <time>2018-11-28T01:29:14Z</time>
      </trkpt>
      <trkpt lat="42.38284" lon="2.58297">
        <ele>825.4</ele>
        <time>2018-11-28T01:29:18Z</time>
      </trkpt>
      <trkpt lat="42.38293" lon="2.58285">
        <ele>826.4</ele>
        <time>2018-11-28T01:29:23Z</time>
      </trkpt>
      <trkpt lat="42.38302" lon="2.58268">
        <ele>825.4</ele>
        <time>2018-11-28T01:29:30Z</time>
      </trkpt>
      <trkpt lat="42.38313" lon="2.58252">
        <ele>825</ele>
        <time>2018-11-28T01:29:36Z</time>
      </trkpt>
      <trkpt lat="42.38319" lon="2.58237">
        <ele>825.1</ele>
        <time>2018-11-28T01:29:41Z</time>
      </trkpt>
      <trkpt lat="42.38321" lon="2.58217">
        <ele>824.5</ele>
        <time>2018-11-28T01:29:47Z</time>
      </trkpt>
      <trkpt lat="42.38322" lon="2.5821">
        <ele>825</ele>
        <time>2018-11-28T01:29:49Z</time>
      </trkpt>
      <trkpt lat="42.3833" lon="2.58192">
        <ele>827.5</ele>
        <time>2018-11-28T01:29:55Z</time>
      </trkpt>
      <trkpt lat="42.3834" lon="2.58175">
        <ele>827.9</ele>
        <time>2018-11-28T01:30:02Z</time>
      </trkpt>
      <trkpt lat="42.3834" lon="2.58174">
        <ele>827.9</ele>
        <time>2018-11-28T01:30:02Z</time>
      </trkpt>
      <trkpt lat="42.38347" lon="2.58154">
        <ele>828.4</ele>
        <time>2018-11-28T01:30:09Z</time>
      </trkpt>
      <trkpt lat="42.38353" lon="2.5814">
        <ele>827.8</ele>
        <time>2018-11-28T01:30:13Z</time>
      </trkpt>
      <trkpt lat="42.38353" lon="2.58138">
        <ele>827.8</ele>
        <time>2018-11-28T01:30:14Z</time>
      </trkpt>
      <trkpt lat="42.3836" lon="2.5812">
        <ele>828.3</ele>
        <time>2018-11-28T01:30:20Z</time>
      </trkpt>
      <trkpt lat="42.38361" lon="2.58106">
        <ele>828.8</ele>
        <time>2018-11-28T01:30:24Z</time>
      </trkpt>
      <trkpt lat="42.38364" lon="2.5809">
        <ele>829.8</ele>
        <time>2018-11-28T01:30:29Z</time>
      </trkpt>
      <trkpt lat="42.38371" lon="2.5808">
        <ele>831.2</ele>
        <time>2018-11-28T01:30:33Z</time>
      </trkpt>
      <trkpt lat="42.38386" lon="2.58079">
        <ele>832.3</ele>
        <time>2018-11-28T01:30:39Z</time>
      </trkpt>
      <trkpt lat="42.38389" lon="2.58078">
        <ele>832.3</ele>
        <time>2018-11-28T01:30:40Z</time>
      </trkpt>
      <trkpt lat="42.38398" lon="2.58072">
        <ele>834.7</ele>
        <time>2018-11-28T01:30:44Z</time>
      </trkpt>
      <trkpt lat="42.38397" lon="2.58057">
        <ele>836.5</ele>
        <time>2018-11-28T01:30:49Z</time>
      </trkpt>
      <trkpt lat="42.38392" lon="2.5805">
        <ele>839</ele>
        <time>2018-11-28T01:30:51Z</time>
      </trkpt>
      <trkpt lat="42.38392" lon="2.58047">
        <ele>838.9</ele>
        <time>2018-11-28T01:30:52Z</time>
      </trkpt>
      <trkpt lat="42.38392" lon="2.58047">
        <ele>838.5</ele>
        <time>2018-11-28T01:30:52Z</time>
      </trkpt>
      <trkpt lat="42.38392" lon="2.58047">
        <ele>837</ele>
        <time>2018-11-28T01:30:52Z</time>
      </trkpt>
      <trkpt lat="42.38392" lon="2.58047">
        <ele>837</ele>
        <time>2018-11-28T01:30:52Z</time>
      </trkpt>
      <trkpt lat="42.38392" lon="2.58047">
        <ele>837.5</ele>
        <time>2018-11-28T01:30:53Z</time>
      </trkpt>
      <trkpt lat="42.38392" lon="2.58047">
        <ele>836.6</ele>
        <time>2018-11-28T01:30:53Z</time>
      </trkpt>
      <trkpt lat="42.38392" lon="2.58047">
        <ele>839</ele>
        <time>2018-11-28T01:30:53Z</time>
      </trkpt>
      <trkpt lat="42.38392" lon="2.58047">
        <ele>836.1</ele>
        <time>2018-11-28T01:30:53Z</time>
      </trkpt>
      <trkpt lat="42.38392" lon="2.58047">
        <ele>840</ele>
        <time>2018-11-28T01:30:53Z</time>
      </trkpt>
      <trkpt lat="42.38392" lon="2.58047">
        <ele>834.7</ele>
        <time>2018-11-28T01:30:53Z</time>
      </trkpt>
      <trkpt lat="42.38392" lon="2.58046">
        <ele>839.9</ele>
        <time>2018-11-28T01:30:53Z</time>
      </trkpt>
      <trkpt lat="42.38392" lon="2.58046">
        <ele>836.6</ele>
        <time>2018-11-28T01:30:53Z</time>
      </trkpt>
      <trkpt lat="42.38393" lon="2.58045">
        <ele>838.5</ele>
        <time>2018-11-28T01:30:53Z</time>
      </trkpt>
      <trkpt lat="42.38393" lon="2.58045">
        <ele>838.9</ele>
        <time>2018-11-28T01:30:53Z</time>
      </trkpt>
      <trkpt lat="42.38393" lon="2.58045">
        <ele>838.4</ele>
        <time>2018-11-28T01:30:54Z</time>
      </trkpt>
      <trkpt lat="42.38393" lon="2.58045">
        <ele>838.9</ele>
        <time>2018-11-28T01:30:54Z</time>
      </trkpt>
      <trkpt lat="42.38391" lon="2.58042">
        <ele>839.4</ele>
        <time>2018-11-28T01:30:55Z</time>
      </trkpt>
      <trkpt lat="42.38386" lon="2.58025">
        <ele>839.5</ele>
        <time>2018-11-28T01:31:00Z</time>
      </trkpt>
      <trkpt lat="42.38385" lon="2.5802">
        <ele>840</ele>
        <time>2018-11-28T01:31:02Z</time>
      </trkpt>
      <trkpt lat="42.38386" lon="2.58013">
        <ele>840</ele>
        <time>2018-11-28T01:31:04Z</time>
      </trkpt>
      <trkpt lat="42.38386" lon="2.58006">
        <ele>839.9</ele>
        <time>2018-11-28T01:31:06Z</time>
      </trkpt>
      <trkpt lat="42.38384" lon="2.57978">
        <ele>840.9</ele>
        <time>2018-11-28T01:31:14Z</time>
      </trkpt>
      <trkpt lat="42.38384" lon="2.57967">
        <ele>841.9</ele>
        <time>2018-11-28T01:31:18Z</time>
      </trkpt>
      <trkpt lat="42.38386" lon="2.57949">
        <ele>841.9</ele>
        <time>2018-11-28T01:31:23Z</time>
      </trkpt>
      <trkpt lat="42.38388" lon="2.57931">
        <ele>842.8</ele>
        <time>2018-11-28T01:31:28Z</time>
      </trkpt>
      <trkpt lat="42.38388" lon="2.57925">
        <ele>843.2</ele>
        <time>2018-11-28T01:31:30Z</time>
      </trkpt>
      <trkpt lat="42.38389" lon="2.57915">
        <ele>843.7</ele>
        <time>2018-11-28T01:31:33Z</time>
      </trkpt>
      <trkpt lat="42.38391" lon="2.57892">
        <ele>844.2</ele>
        <time>2018-11-28T01:31:40Z</time>
      </trkpt>
      <trkpt lat="42.38392" lon="2.57863">
        <ele>845.6</ele>
        <time>2018-11-28T01:31:49Z</time>
      </trkpt>
      <trkpt lat="42.38392" lon="2.57853">
        <ele>845.6</ele>
        <time>2018-11-28T01:31:51Z</time>
      </trkpt>
      <trkpt lat="42.38393" lon="2.57847">
        <ele>846.1</ele>
        <time>2018-11-28T01:31:53Z</time>
      </trkpt>
      <trkpt lat="42.384" lon="2.57822">
        <ele>847.1</ele>
        <time>2018-11-28T01:32:01Z</time>
      </trkpt>
      <trkpt lat="42.38404" lon="2.57814">
        <ele>847.1</ele>
        <time>2018-11-28T01:32:04Z</time>
      </trkpt>
      <trkpt lat="42.38415" lon="2.57796">
        <ele>848</ele>
        <time>2018-11-28T01:32:11Z</time>
      </trkpt>
      <trkpt lat="42.38413" lon="2.57782">
        <ele>849</ele>
        <time>2018-11-28T01:32:15Z</time>
      </trkpt>
      <trkpt lat="42.3841" lon="2.57777">
        <ele>850</ele>
        <time>2018-11-28T01:32:17Z</time>
      </trkpt>
      <trkpt lat="42.38392" lon="2.57769">
        <ele>852</ele>
        <time>2018-11-28T01:32:25Z</time>
      </trkpt>
      <trkpt lat="42.38371" lon="2.57773">
        <ele>852.8</ele>
        <time>2018-11-28T01:32:33Z</time>
      </trkpt>
      <trkpt lat="42.38352" lon="2.57773">
        <ele>853.3</ele>
        <time>2018-11-28T01:32:41Z</time>
      </trkpt>
      <trkpt lat="42.38348" lon="2.57769">
        <ele>853.8</ele>
        <time>2018-11-28T01:32:43Z</time>
      </trkpt>
      <trkpt lat="42.38331" lon="2.57754">
        <ele>854.8</ele>
        <time>2018-11-28T01:32:51Z</time>
      </trkpt>
      <trkpt lat="42.38325" lon="2.5775">
        <ele>855.8</ele>
        <time>2018-11-28T01:32:54Z</time>
      </trkpt>
      <trkpt lat="42.38323" lon="2.57747">
        <ele>855.8</ele>
        <time>2018-11-28T01:32:55Z</time>
      </trkpt>
      <trkpt lat="42.38322" lon="2.57723">
        <ele>856.8</ele>
        <time>2018-11-28T01:33:02Z</time>
      </trkpt>
      <trkpt lat="42.38325" lon="2.57715">
        <ele>857.2</ele>
        <time>2018-11-28T01:33:05Z</time>
      </trkpt>
      <trkpt lat="42.38327" lon="2.57709">
        <ele>857.3</ele>
        <time>2018-11-28T01:33:07Z</time>
      </trkpt>
      <trkpt lat="42.38328" lon="2.57701">
        <ele>857.7</ele>
        <time>2018-11-28T01:33:09Z</time>
      </trkpt>
      <trkpt lat="42.38327" lon="2.57679">
        <ele>858.2</ele>
        <time>2018-11-28T01:33:16Z</time>
      </trkpt>
      <trkpt lat="42.38319" lon="2.57659">
        <ele>858.6</ele>
        <time>2018-11-28T01:33:22Z</time>
      </trkpt>
      <trkpt lat="42.38306" lon="2.5764">
        <ele>860.1</ele>
        <time>2018-11-28T01:33:30Z</time>
      </trkpt>
      <trkpt lat="42.38299" lon="2.57631">
        <ele>860.5</ele>
        <time>2018-11-28T01:33:34Z</time>
      </trkpt>
      <trkpt lat="42.38287" lon="2.57613">
        <ele>861.5</ele>
        <time>2018-11-28T01:33:41Z</time>
      </trkpt>
      <trkpt lat="42.38269" lon="2.5759">
        <ele>862.4</ele>
        <time>2018-11-28T01:33:51Z</time>
      </trkpt>
      <trkpt lat="42.38254" lon="2.5759">
        <ele>863.4</ele>
        <time>2018-11-28T01:33:57Z</time>
      </trkpt>
      <trkpt lat="42.38245" lon="2.57598">
        <ele>863.5</ele>
        <time>2018-11-28T01:34:01Z</time>
      </trkpt>
      <trkpt lat="42.38231" lon="2.5761">
        <ele>864.9</ele>
        <time>2018-11-28T01:34:08Z</time>
      </trkpt>
      <trkpt lat="42.38213" lon="2.57621">
        <ele>865.4</ele>
        <time>2018-11-28T01:34:16Z</time>
      </trkpt>
      <trkpt lat="42.38191" lon="2.57635">
        <ele>867.3</ele>
        <time>2018-11-28T01:34:26Z</time>
      </trkpt>
      <trkpt lat="42.38173" lon="2.57651">
        <ele>868.2</ele>
        <time>2018-11-28T01:34:34Z</time>
      </trkpt>
      <trkpt lat="42.38161" lon="2.57656">
        <ele>868.2</ele>
        <time>2018-11-28T01:34:39Z</time>
      </trkpt>
      <trkpt lat="42.38154" lon="2.5766">
        <ele>869.3</ele>
        <time>2018-11-28T01:34:42Z</time>
      </trkpt>
      <trkpt lat="42.38139" lon="2.57672">
        <ele>870.6</ele>
        <time>2018-11-28T01:34:49Z</time>
      </trkpt>
      <trkpt lat="42.38126" lon="2.57671">
        <ele>871.2</ele>
        <time>2018-11-28T01:34:55Z</time>
      </trkpt>
      <trkpt lat="42.38109" lon="2.57666">
        <ele>872.1</ele>
        <time>2018-11-28T01:35:01Z</time>
      </trkpt>
      <trkpt lat="42.38093" lon="2.57673">
        <ele>873</ele>
        <time>2018-11-28T01:35:08Z</time>
      </trkpt>
      <trkpt lat="42.38071" lon="2.57671">
        <ele>873.6</ele>
        <time>2018-11-28T01:35:17Z</time>
      </trkpt>
      <trkpt lat="42.38051" lon="2.57668">
        <ele>874.9</ele>
        <time>2018-11-28T01:35:25Z</time>
      </trkpt>
      <trkpt lat="42.38027" lon="2.57665">
        <ele>876.5</ele>
        <time>2018-11-28T01:35:35Z</time>
      </trkpt>
      <trkpt lat="42.38008" lon="2.57669">
        <ele>876.9</ele>
        <time>2018-11-28T01:35:42Z</time>
      </trkpt>
      <trkpt lat="42.37993" lon="2.57682">
        <ele>877.4</ele>
        <time>2018-11-28T01:35:50Z</time>
      </trkpt>
      <trkpt lat="42.37984" lon="2.57702">
        <ele>878.9</ele>
        <time>2018-11-28T01:35:56Z</time>
      </trkpt>
      <trkpt lat="42.37973" lon="2.5772">
        <ele>880.8</ele>
        <time>2018-11-28T01:36:03Z</time>
      </trkpt>
      <trkpt lat="42.37964" lon="2.5774">
        <ele>881.8</ele>
        <time>2018-11-28T01:36:10Z</time>
      </trkpt>
      <trkpt lat="42.3796" lon="2.57765">
        <ele>882.3</ele>
        <time>2018-11-28T01:36:18Z</time>
      </trkpt>
      <trkpt lat="42.37956" lon="2.57772">
        <ele>882.3</ele>
        <time>2018-11-28T01:36:21Z</time>
      </trkpt>
      <trkpt lat="42.37947" lon="2.57766">
        <ele>881.7</ele>
        <time>2018-11-28T01:36:25Z</time>
      </trkpt>
      <trkpt lat="42.37943" lon="2.57745">
        <ele>882.2</ele>
        <time>2018-11-28T01:36:31Z</time>
      </trkpt>
      <trkpt lat="42.37942" lon="2.57728">
        <ele>882.3</ele>
        <time>2018-11-28T01:36:36Z</time>
      </trkpt>
      <trkpt lat="42.37941" lon="2.5772">
        <ele>881.8</ele>
        <time>2018-11-28T01:36:39Z</time>
      </trkpt>
      <trkpt lat="42.37939" lon="2.57701">
        <ele>881.3</ele>
        <time>2018-11-28T01:36:44Z</time>
      </trkpt>
      <trkpt lat="42.37945" lon="2.57677">
        <ele>881.2</ele>
        <time>2018-11-28T01:36:52Z</time>
      </trkpt>
      <trkpt lat="42.37943" lon="2.57654">
        <ele>881.3</ele>
        <time>2018-11-28T01:36:59Z</time>
      </trkpt>
      <trkpt lat="42.37945" lon="2.57644">
        <ele>882.2</ele>
        <time>2018-11-28T01:37:02Z</time>
      </trkpt>
      <trkpt lat="42.3795" lon="2.57624">
        <ele>882.6</ele>
        <time>2018-11-28T01:37:08Z</time>
      </trkpt>
      <trkpt lat="42.37951" lon="2.57622">
        <ele>882.6</ele>
        <time>2018-11-28T01:37:08Z</time>
      </trkpt>
      <trkpt lat="42.37951" lon="2.57599">
        <ele>884.2</ele>
        <time>2018-11-28T01:37:15Z</time>
      </trkpt>
      <trkpt lat="42.37951" lon="2.57592">
        <ele>885</ele>
        <time>2018-11-28T01:37:18Z</time>
      </trkpt>
      <trkpt lat="42.37951" lon="2.5759">
        <ele>885</ele>
        <time>2018-11-28T01:37:18Z</time>
      </trkpt>
      <trkpt lat="42.37953" lon="2.57587">
        <ele>885</ele>
        <time>2018-11-28T01:37:19Z</time>
      </trkpt>
      <trkpt lat="42.37954" lon="2.57584">
        <ele>885.5</ele>
        <time>2018-11-28T01:37:20Z</time>
      </trkpt>
      <trkpt lat="42.37959" lon="2.57566">
        <ele>887.5</ele>
        <time>2018-11-28T01:37:26Z</time>
      </trkpt>
      <trkpt lat="42.37961" lon="2.5755">
        <ele>889</ele>
        <time>2018-11-28T01:37:31Z</time>
      </trkpt>
      <trkpt lat="42.37975" lon="2.57524">
        <ele>890.3</ele>
        <time>2018-11-28T01:37:40Z</time>
      </trkpt>
      <trkpt lat="42.37993" lon="2.57526">
        <ele>890.3</ele>
        <time>2018-11-28T01:37:48Z</time>
      </trkpt>
      <trkpt lat="42.37996" lon="2.57526">
        <ele>890.8</ele>
        <time>2018-11-28T01:37:49Z</time>
      </trkpt>
      <trkpt lat="42.38005" lon="2.57515">
        <ele>890.9</ele>
        <time>2018-11-28T01:37:53Z</time>
      </trkpt>
      <trkpt lat="42.38007" lon="2.57501">
        <ele>891.3</ele>
        <time>2018-11-28T01:37:58Z</time>
      </trkpt>
      <trkpt lat="42.3801" lon="2.57492">
        <ele>891.9</ele>
        <time>2018-11-28T01:38:01Z</time>
      </trkpt>
      <trkpt lat="42.38012" lon="2.57486">
        <ele>891.8</ele>
        <time>2018-11-28T01:38:02Z</time>
      </trkpt>
      <trkpt lat="42.38013" lon="2.57485">
        <ele>892.2</ele>
        <time>2018-11-28T01:38:03Z</time>
      </trkpt>
      <trkpt lat="42.38023" lon="2.57466">
        <ele>893.2</ele>
        <time>2018-11-28T01:38:10Z</time>
      </trkpt>
      <trkpt lat="42.38028" lon="2.57462">
        <ele>894.3</ele>
        <time>2018-11-28T01:38:12Z</time>
      </trkpt>
      <trkpt lat="42.38042" lon="2.57444">
        <ele>894.6</ele>
        <time>2018-11-28T01:38:20Z</time>
      </trkpt>
      <trkpt lat="42.38047" lon="2.57415">
        <ele>895.7</ele>
        <time>2018-11-28T01:38:29Z</time>
      </trkpt>
      <trkpt lat="42.38048" lon="2.57403">
        <ele>895.7</ele>
        <time>2018-11-28T01:38:32Z</time>
      </trkpt>
      <trkpt lat="42.38047" lon="2.57398">
        <ele>896.1</ele>
        <time>2018-11-28T01:38:34Z</time>
      </trkpt>
      <trkpt lat="42.38046" lon="2.57376">
        <ele>897.2</ele>
        <time>2018-11-28T01:38:40Z</time>
      </trkpt>
      <trkpt lat="42.38046" lon="2.57349">
        <ele>897.6</ele>
        <time>2018-11-28T01:38:48Z</time>
      </trkpt>
      <trkpt lat="42.38044" lon="2.57326">
        <ele>898.5</ele>
        <time>2018-11-28T01:38:55Z</time>
      </trkpt>
      <trkpt lat="42.38042" lon="2.57306">
        <ele>899.9</ele>
        <time>2018-11-28T01:39:01Z</time>
      </trkpt>
      <trkpt lat="42.38044" lon="2.57296">
        <ele>899.9</ele>
        <time>2018-11-28T01:39:04Z</time>
      </trkpt>
      <trkpt lat="42.38049" lon="2.57279">
        <ele>901.9</ele>
        <time>2018-11-28T01:39:10Z</time>
      </trkpt>
      <trkpt lat="42.38057" lon="2.57263">
        <ele>903.3</ele>
        <time>2018-11-28T01:39:15Z</time>
      </trkpt>
      <trkpt lat="42.38062" lon="2.57257">
        <ele>903.9</ele>
        <time>2018-11-28T01:39:18Z</time>
      </trkpt>
      <trkpt lat="42.38063" lon="2.57256">
        <ele>904.4</ele>
        <time>2018-11-28T01:39:19Z</time>
      </trkpt>
      <trkpt lat="42.38069" lon="2.57242">
        <ele>905.2</ele>
        <time>2018-11-28T01:39:23Z</time>
      </trkpt>
      <trkpt lat="42.38072" lon="2.57228">
        <ele>906.3</ele>
        <time>2018-11-28T01:39:27Z</time>
      </trkpt>
      <trkpt lat="42.38072" lon="2.57225">
        <ele>906.2</ele>
        <time>2018-11-28T01:39:28Z</time>
      </trkpt>
      <trkpt lat="42.38075" lon="2.57204">
        <ele>907.6</ele>
        <time>2018-11-28T01:39:35Z</time>
      </trkpt>
      <trkpt lat="42.38074" lon="2.57182">
        <ele>909.6</ele>
        <time>2018-11-28T01:39:41Z</time>
      </trkpt>
      <trkpt lat="42.38076" lon="2.5716">
        <ele>912.1</ele>
        <time>2018-11-28T01:39:48Z</time>
      </trkpt>
      <trkpt lat="42.38076" lon="2.57152">
        <ele>912.4</ele>
        <time>2018-11-28T01:39:50Z</time>
      </trkpt>
      <trkpt lat="42.38076" lon="2.57142">
        <ele>913</ele>
        <time>2018-11-28T01:39:53Z</time>
      </trkpt>
      <trkpt lat="42.38074" lon="2.57122">
        <ele>914.4</ele>
        <time>2018-11-28T01:39:59Z</time>
      </trkpt>
      <trkpt lat="42.38067" lon="2.57114">
        <ele>914.4</ele>
        <time>2018-11-28T01:40:03Z</time>
      </trkpt>
      <trkpt lat="42.38048" lon="2.57107">
        <ele>916.9</ele>
        <time>2018-11-28T01:40:10Z</time>
      </trkpt>
      <trkpt lat="42.38032" lon="2.57109">
        <ele>917.7</ele>
        <time>2018-11-28T01:40:17Z</time>
      </trkpt>
      <trkpt lat="42.38023" lon="2.57112">
        <ele>919.7</ele>
        <time>2018-11-28T01:40:21Z</time>
      </trkpt>
      <trkpt lat="42.38008" lon="2.57117">
        <ele>920.6</ele>
        <time>2018-11-28T01:40:27Z</time>
      </trkpt>
      <trkpt lat="42.37998" lon="2.57122">
        <ele>921.6</ele>
        <time>2018-11-28T01:40:31Z</time>
      </trkpt>
      <trkpt lat="42.37988" lon="2.57122">
        <ele>921.7</ele>
        <time>2018-11-28T01:40:35Z</time>
      </trkpt>
      <trkpt lat="42.37974" lon="2.57126">
        <ele>923.1</ele>
        <time>2018-11-28T01:40:41Z</time>
      </trkpt>
      <trkpt lat="42.37958" lon="2.5713">
        <ele>924.5</ele>
        <time>2018-11-28T01:40:47Z</time>
      </trkpt>
      <trkpt lat="42.37937" lon="2.57126">
        <ele>926</ele>
        <time>2018-11-28T01:40:56Z</time>
      </trkpt>
      <trkpt lat="42.3792" lon="2.57122">
        <ele>927.8</ele>
        <time>2018-11-28T01:41:03Z</time>
      </trkpt>
      <trkpt lat="42.37916" lon="2.57122">
        <ele>928.3</ele>
        <time>2018-11-28T01:41:04Z</time>
      </trkpt>
      <trkpt lat="42.37903" lon="2.57119">
        <ele>929.3</ele>
        <time>2018-11-28T01:41:09Z</time>
      </trkpt>
      <trkpt lat="42.37887" lon="2.57108">
        <ele>930.8</ele>
        <time>2018-11-28T01:41:17Z</time>
      </trkpt>
      <trkpt lat="42.37874" lon="2.57096">
        <ele>932.7</ele>
        <time>2018-11-28T01:41:23Z</time>
      </trkpt>
      <trkpt lat="42.37868" lon="2.57097">
        <ele>932.6</ele>
        <time>2018-11-28T01:41:25Z</time>
      </trkpt>
      <trkpt lat="42.37863" lon="2.571">
        <ele>933.7</ele>
        <time>2018-11-28T01:41:28Z</time>
      </trkpt>
      <trkpt lat="42.3785" lon="2.57109">
        <ele>934.6</ele>
        <time>2018-11-28T01:41:34Z</time>
      </trkpt>
      <trkpt lat="42.37834" lon="2.57119">
        <ele>935.6</ele>
        <time>2018-11-28T01:41:41Z</time>
      </trkpt>
      <trkpt lat="42.37833" lon="2.5712">
        <ele>935</ele>
        <time>2018-11-28T01:41:41Z</time>
      </trkpt>
      <trkpt lat="42.3782" lon="2.57137">
        <ele>936</ele>
        <time>2018-11-28T01:41:48Z</time>
      </trkpt>
      <trkpt lat="42.37805" lon="2.57152">
        <ele>936.6</ele>
        <time>2018-11-28T01:41:56Z</time>
      </trkpt>
      <trkpt lat="42.378" lon="2.57165">
        <ele>936.5</ele>
        <time>2018-11-28T01:42:00Z</time>
      </trkpt>
      <trkpt lat="42.37798" lon="2.57185">
        <ele>936.5</ele>
        <time>2018-11-28T01:42:06Z</time>
      </trkpt>
      <trkpt lat="42.37792" lon="2.57203">
        <ele>937.4</ele>
        <time>2018-11-28T01:42:12Z</time>
      </trkpt>
      <trkpt lat="42.37785" lon="2.57217">
        <ele>937.9</ele>
        <time>2018-11-28T01:42:17Z</time>
      </trkpt>
      <trkpt lat="42.37783" lon="2.57224">
        <ele>938.5</ele>
        <time>2018-11-28T01:42:19Z</time>
      </trkpt>
      <trkpt lat="42.37777" lon="2.57241">
        <ele>939.5</ele>
        <time>2018-11-28T01:42:25Z</time>
      </trkpt>
      <trkpt lat="42.37773" lon="2.57254">
        <ele>940.3</ele>
        <time>2018-11-28T01:42:29Z</time>
      </trkpt>
      <trkpt lat="42.37758" lon="2.57276">
        <ele>941.8</ele>
        <time>2018-11-28T01:42:37Z</time>
      </trkpt>
      <trkpt lat="42.37743" lon="2.57294">
        <ele>943.3</ele>
        <time>2018-11-28T01:42:46Z</time>
      </trkpt>
      <trkpt lat="42.37738" lon="2.57301">
        <ele>943.3</ele>
        <time>2018-11-28T01:42:49Z</time>
      </trkpt>
      <trkpt lat="42.37726" lon="2.57325">
        <ele>944.3</ele>
        <time>2018-11-28T01:42:57Z</time>
      </trkpt>
      <trkpt lat="42.37719" lon="2.57337">
        <ele>945.2</ele>
        <time>2018-11-28T01:43:01Z</time>
      </trkpt>
      <trkpt lat="42.37716" lon="2.57346">
        <ele>945.6</ele>
        <time>2018-11-28T01:43:04Z</time>
      </trkpt>
      <trkpt lat="42.37715" lon="2.57349">
        <ele>945.6</ele>
        <time>2018-11-28T01:43:05Z</time>
      </trkpt>
      <trkpt lat="42.37701" lon="2.57365">
        <ele>946.6</ele>
        <time>2018-11-28T01:43:13Z</time>
      </trkpt>
      <trkpt lat="42.37682" lon="2.57369">
        <ele>946.1</ele>
        <time>2018-11-28T01:43:21Z</time>
      </trkpt>
      <trkpt lat="42.37678" lon="2.57371">
        <ele>945.1</ele>
        <time>2018-11-28T01:43:22Z</time>
      </trkpt>
      <trkpt lat="42.37661" lon="2.57375">
        <ele>943.2</ele>
        <time>2018-11-28T01:43:29Z</time>
      </trkpt>
      <trkpt lat="42.37643" lon="2.57382">
        <ele>941.8</ele>
        <time>2018-11-28T01:43:37Z</time>
      </trkpt>
      <trkpt lat="42.37635" lon="2.57387">
        <ele>940.9</ele>
        <time>2018-11-28T01:43:40Z</time>
      </trkpt>
      <trkpt lat="42.37628" lon="2.57391">
        <ele>939.9</ele>
        <time>2018-11-28T01:43:43Z</time>
      </trkpt>
      <trkpt lat="42.37623" lon="2.57397">
        <ele>939.9</ele>
        <time>2018-11-28T01:43:46Z</time>
      </trkpt>
      <trkpt lat="42.37618" lon="2.57403">
        <ele>939.5</ele>
        <time>2018-11-28T01:43:48Z</time>
      </trkpt>
      <trkpt lat="42.37616" lon="2.57405">
        <ele>939.4</ele>
        <time>2018-11-28T01:43:50Z</time>
      </trkpt>
      <trkpt lat="42.37613" lon="2.57413">
        <ele>938.9</ele>
        <time>2018-11-28T01:43:52Z</time>
      </trkpt>
      <trkpt lat="42.37606" lon="2.57424">
        <ele>937.9</ele>
        <time>2018-11-28T01:43:57Z</time>
      </trkpt>
      <trkpt lat="42.37601" lon="2.5743">
        <ele>937.9</ele>
        <time>2018-11-28T01:43:59Z</time>
      </trkpt>
      <trkpt lat="42.37596" lon="2.5744">
        <ele>937</ele>
        <time>2018-11-28T01:44:03Z</time>
      </trkpt>
      <trkpt lat="42.37584" lon="2.57455">
        <ele>936.1</ele>
        <time>2018-11-28T01:44:09Z</time>
      </trkpt>
      <trkpt lat="42.37569" lon="2.57469">
        <ele>934.6</ele>
        <time>2018-11-28T01:44:16Z</time>
      </trkpt>
      <trkpt lat="42.37552" lon="2.57482">
        <ele>934.6</ele>
        <time>2018-11-28T01:44:24Z</time>
      </trkpt>
      <trkpt lat="42.37542" lon="2.57481">
        <ele>933.6</ele>
        <time>2018-11-28T01:44:29Z</time>
      </trkpt>
      <trkpt lat="42.37535" lon="2.57478">
        <ele>933.2</ele>
        <time>2018-11-28T01:44:31Z</time>
      </trkpt>
      <trkpt lat="42.37528" lon="2.57474">
        <ele>933.1</ele>
        <time>2018-11-28T01:44:34Z</time>
      </trkpt>
      <trkpt lat="42.37524" lon="2.57473">
        <ele>932.6</ele>
        <time>2018-11-28T01:44:36Z</time>
      </trkpt>
      <trkpt lat="42.37521" lon="2.57472">
        <ele>932.6</ele>
        <time>2018-11-28T01:44:37Z</time>
      </trkpt>
      <trkpt lat="42.3751" lon="2.57466">
        <ele>931.8</ele>
        <time>2018-11-28T01:44:42Z</time>
      </trkpt>
      <trkpt lat="42.3751" lon="2.57466">
        <ele>931.7</ele>
        <time>2018-11-28T01:44:42Z</time>
      </trkpt>
      <trkpt lat="42.37502" lon="2.57466">
        <ele>931.2</ele>
        <time>2018-11-28T01:44:45Z</time>
      </trkpt>
      <trkpt lat="42.37501" lon="2.57464">
        <ele>931.2</ele>
        <time>2018-11-28T01:44:46Z</time>
      </trkpt>
      <trkpt lat="42.3749" lon="2.57471">
        <ele>932.7</ele>
        <time>2018-11-28T01:44:51Z</time>
      </trkpt>
      <trkpt lat="42.37488" lon="2.57472">
        <ele>933.7</ele>
        <time>2018-11-28T01:44:52Z</time>
      </trkpt>
      <trkpt lat="42.37482" lon="2.57465">
        <ele>934.2</ele>
        <time>2018-11-28T01:44:55Z</time>
      </trkpt>
      <trkpt lat="42.3747" lon="2.57462">
        <ele>934.5</ele>
        <time>2018-11-28T01:45:00Z</time>
      </trkpt>
      <trkpt lat="42.37463" lon="2.57465">
        <ele>937</ele>
        <time>2018-11-28T01:45:03Z</time>
      </trkpt>
      <trkpt lat="42.37461" lon="2.57467">
        <ele>938</ele>
        <time>2018-11-28T01:45:04Z</time>
      </trkpt>
      <trkpt lat="42.37456" lon="2.57466">
        <ele>938.5</ele>
        <time>2018-11-28T01:45:06Z</time>
      </trkpt>
      <trkpt lat="42.37451" lon="2.57462">
        <ele>938.5</ele>
        <time>2018-11-28T01:45:08Z</time>
      </trkpt>
      <trkpt lat="42.37446" lon="2.5746">
        <ele>938.4</ele>
        <time>2018-11-28T01:45:10Z</time>
      </trkpt>
      <trkpt lat="42.37444" lon="2.5746">
        <ele>938.4</ele>
        <time>2018-11-28T01:45:11Z</time>
      </trkpt>
      <trkpt lat="42.37434" lon="2.57471">
        <ele>939.8</ele>
        <time>2018-11-28T01:45:16Z</time>
      </trkpt>
      <trkpt lat="42.37431" lon="2.57475">
        <ele>940.9</ele>
        <time>2018-11-28T01:45:18Z</time>
      </trkpt>
      <trkpt lat="42.37424" lon="2.57489">
        <ele>941.4</ele>
        <time>2018-11-28T01:45:23Z</time>
      </trkpt>
      <trkpt lat="42.37421" lon="2.57495">
        <ele>941.3</ele>
        <time>2018-11-28T01:45:25Z</time>
      </trkpt>
      <trkpt lat="42.37414" lon="2.57515">
        <ele>941.3</ele>
        <time>2018-11-28T01:45:32Z</time>
      </trkpt>
      <trkpt lat="42.3741" lon="2.5753">
        <ele>941.8</ele>
        <time>2018-11-28T01:45:36Z</time>
      </trkpt>
      <trkpt lat="42.37405" lon="2.57539">
        <ele>942.2</ele>
        <time>2018-11-28T01:45:39Z</time>
      </trkpt>
      <trkpt lat="42.37399" lon="2.57551">
        <ele>943.3</ele>
        <time>2018-11-28T01:45:44Z</time>
      </trkpt>
      <trkpt lat="42.37384" lon="2.57554">
        <ele>942.7</ele>
        <time>2018-11-28T01:45:50Z</time>
      </trkpt>
      <trkpt lat="42.37382" lon="2.57555">
        <ele>943.2</ele>
        <time>2018-11-28T01:45:51Z</time>
      </trkpt>
      <trkpt lat="42.37379" lon="2.57556">
        <ele>943.3</ele>
        <time>2018-11-28T01:45:52Z</time>
      </trkpt>
      <trkpt lat="42.37362" lon="2.57555">
        <ele>946.1</ele>
        <time>2018-11-28T01:45:59Z</time>
      </trkpt>
      <trkpt lat="42.37358" lon="2.57553">
        <ele>946.6</ele>
        <time>2018-11-28T01:46:00Z</time>
      </trkpt>
      <trkpt lat="42.37351" lon="2.57557">
        <ele>948.6</ele>
        <time>2018-11-28T01:46:03Z</time>
      </trkpt>
      <trkpt lat="42.37338" lon="2.57562">
        <ele>950.9</ele>
        <time>2018-11-28T01:46:09Z</time>
      </trkpt>
      <trkpt lat="42.37334" lon="2.57565">
        <ele>951.8</ele>
        <time>2018-11-28T01:46:10Z</time>
      </trkpt>
      <trkpt lat="42.37327" lon="2.57579">
        <ele>953.3</ele>
        <time>2018-11-28T01:46:15Z</time>
      </trkpt>
      <trkpt lat="42.37321" lon="2.57592">
        <ele>954.4</ele>
        <time>2018-11-28T01:46:20Z</time>
      </trkpt>
      <trkpt lat="42.37318" lon="2.57598">
        <ele>954.3</ele>
        <time>2018-11-28T01:46:22Z</time>
      </trkpt>
      <trkpt lat="42.37316" lon="2.57602">
        <ele>953.8</ele>
        <time>2018-11-28T01:46:24Z</time>
      </trkpt>
      <trkpt lat="42.3731" lon="2.57614">
        <ele>954.3</ele>
        <time>2018-11-28T01:46:28Z</time>
      </trkpt>
      <trkpt lat="42.37303" lon="2.57626">
        <ele>954.8</ele>
        <time>2018-11-28T01:46:32Z</time>
      </trkpt>
      <trkpt lat="42.37301" lon="2.5763">
        <ele>955.7</ele>
        <time>2018-11-28T01:46:34Z</time>
      </trkpt>
      <trkpt lat="42.373" lon="2.57635">
        <ele>955.7</ele>
        <time>2018-11-28T01:46:35Z</time>
      </trkpt>
      <trkpt lat="42.37296" lon="2.57645">
        <ele>956.7</ele>
        <time>2018-11-28T01:46:39Z</time>
      </trkpt>
      <trkpt lat="42.37294" lon="2.57651">
        <ele>956.7</ele>
        <time>2018-11-28T01:46:41Z</time>
      </trkpt>
      <trkpt lat="42.37291" lon="2.57655">
        <ele>957.7</ele>
        <time>2018-11-28T01:46:42Z</time>
      </trkpt>
      <trkpt lat="42.37288" lon="2.57663">
        <ele>958.1</ele>
        <time>2018-11-28T01:46:45Z</time>
      </trkpt>
      <trkpt lat="42.37287" lon="2.57668">
        <ele>958.2</ele>
        <time>2018-11-28T01:46:47Z</time>
      </trkpt>
      <trkpt lat="42.37282" lon="2.57677">
        <ele>956.8</ele>
        <time>2018-11-28T01:46:50Z</time>
      </trkpt>
      <trkpt lat="42.37276" lon="2.57677">
        <ele>957.7</ele>
        <time>2018-11-28T01:46:52Z</time>
      </trkpt>
      <trkpt lat="42.37266" lon="2.57672">
        <ele>957.6</ele>
        <time>2018-11-28T01:46:57Z</time>
      </trkpt>
      <trkpt lat="42.37257" lon="2.57672">
        <ele>958.2</ele>
        <time>2018-11-28T01:47:00Z</time>
      </trkpt>
      <trkpt lat="42.37256" lon="2.57672">
        <ele>958.2</ele>
        <time>2018-11-28T01:47:01Z</time>
      </trkpt>
      <trkpt lat="42.37252" lon="2.57671">
        <ele>957.6</ele>
        <time>2018-11-28T01:47:02Z</time>
      </trkpt>
      <trkpt lat="42.3725" lon="2.57672">
        <ele>958.1</ele>
        <time>2018-11-28T01:47:03Z</time>
      </trkpt>
      <trkpt lat="42.37243" lon="2.57671">
        <ele>961</ele>
        <time>2018-11-28T01:47:06Z</time>
      </trkpt>
      <trkpt lat="42.37239" lon="2.57662">
        <ele>963.4</ele>
        <time>2018-11-28T01:47:09Z</time>
      </trkpt>
      <trkpt lat="42.37235" lon="2.57654">
        <ele>966.4</ele>
        <time>2018-11-28T01:47:12Z</time>
      </trkpt>
      <trkpt lat="42.37227" lon="2.57651">
        <ele>968.8</ele>
        <time>2018-11-28T01:47:15Z</time>
      </trkpt>
      <trkpt lat="42.37223" lon="2.57649">
        <ele>970.2</ele>
        <time>2018-11-28T01:47:17Z</time>
      </trkpt>
      <trkpt lat="42.37217" lon="2.57645">
        <ele>972.6</ele>
        <time>2018-11-28T01:47:20Z</time>
      </trkpt>
      <trkpt lat="42.37207" lon="2.57639">
        <ele>974.4</ele>
        <time>2018-11-28T01:47:24Z</time>
      </trkpt>
      <trkpt lat="42.37198" lon="2.57633">
        <ele>976.9</ele>
        <time>2018-11-28T01:47:28Z</time>
      </trkpt>
      <trkpt lat="42.37189" lon="2.57627">
        <ele>978.9</ele>
        <time>2018-11-28T01:47:32Z</time>
      </trkpt>
      <trkpt lat="42.3718" lon="2.57631">
        <ele>980.2</ele>
        <time>2018-11-28T01:47:36Z</time>
      </trkpt>
      <trkpt lat="42.37178" lon="2.57635">
        <ele>983.1</ele>
        <time>2018-11-28T01:47:37Z</time>
      </trkpt>
      <trkpt lat="42.37178" lon="2.57638">
        <ele>986</ele>
        <time>2018-11-28T01:47:38Z</time>
      </trkpt>
      <trkpt lat="42.37172" lon="2.57639">
        <ele>988.4</ele>
        <time>2018-11-28T01:47:40Z</time>
      </trkpt>
      <trkpt lat="42.37166" lon="2.57644">
        <ele>991.4</ele>
        <time>2018-11-28T01:47:43Z</time>
      </trkpt>
      <trkpt lat="42.37165" lon="2.57649">
        <ele>993.2</ele>
        <time>2018-11-28T01:47:45Z</time>
      </trkpt>
      <trkpt lat="42.37161" lon="2.57651">
        <ele>995.7</ele>
        <time>2018-11-28T01:47:46Z</time>
      </trkpt>
      <trkpt lat="42.37159" lon="2.57651">
        <ele>997</ele>
        <time>2018-11-28T01:47:47Z</time>
      </trkpt>
      <trkpt lat="42.37151" lon="2.57649">
        <ele>998</ele>
        <time>2018-11-28T01:47:50Z</time>
      </trkpt>
      <trkpt lat="42.37142" lon="2.57648">
        <ele>999.5</ele>
        <time>2018-11-28T01:47:54Z</time>
      </trkpt>
      <trkpt lat="42.37138" lon="2.57647">
        <ele>999.4</ele>
        <time>2018-11-28T01:47:56Z</time>
      </trkpt>
      <trkpt lat="42.3713" lon="2.57643">
        <ele>1001.5</ele>
        <time>2018-11-28T01:47:59Z</time>
      </trkpt>
      <trkpt lat="42.37128" lon="2.57641">
        <ele>1001.9</ele>
        <time>2018-11-28T01:48:00Z</time>
      </trkpt>
      <trkpt lat="42.37124" lon="2.57635">
        <ele>1003.3</ele>
        <time>2018-11-28T01:48:02Z</time>
      </trkpt>
      <trkpt lat="42.37119" lon="2.5763">
        <ele>1003.8</ele>
        <time>2018-11-28T01:48:05Z</time>
      </trkpt>
      <trkpt lat="42.37113" lon="2.57624">
        <ele>1005.7</ele>
        <time>2018-11-28T01:48:08Z</time>
      </trkpt>
      <trkpt lat="42.37112" lon="2.57619">
        <ele>1006.3</ele>
        <time>2018-11-28T01:48:09Z</time>
      </trkpt>
      <trkpt lat="42.37111" lon="2.57617">
        <ele>1007.2</ele>
        <time>2018-11-28T01:48:10Z</time>
      </trkpt>
      <trkpt lat="42.37103" lon="2.57598">
        <ele>1009.5</ele>
        <time>2018-11-28T01:48:16Z</time>
      </trkpt>
      <trkpt lat="42.371" lon="2.57593">
        <ele>1010.6</ele>
        <time>2018-11-28T01:48:18Z</time>
      </trkpt>
      <trkpt lat="42.37101" lon="2.57589">
        <ele>1011.4</ele>
        <time>2018-11-28T01:48:20Z</time>
      </trkpt>
      <trkpt lat="42.37102" lon="2.57581">
        <ele>1012.5</ele>
        <time>2018-11-28T01:48:22Z</time>
      </trkpt>
      <trkpt lat="42.37099" lon="2.57574">
        <ele>1013.5</ele>
        <time>2018-11-28T01:48:24Z</time>
      </trkpt>
      <trkpt lat="42.3709" lon="2.5757">
        <ele>1013.5</ele>
        <time>2018-11-28T01:48:28Z</time>
      </trkpt>
      <trkpt lat="42.3709" lon="2.5757">
        <ele>1010</ele>
        <time>2018-11-28T01:48:28Z</time>
      </trkpt>
      <trkpt lat="42.3709" lon="2.5757">
        <ele>1013</ele>
        <time>2018-11-28T01:48:28Z</time>
      </trkpt>
      <trkpt lat="42.3709" lon="2.5757">
        <ele>1009.5</ele>
        <time>2018-11-28T01:48:28Z</time>
      </trkpt>
      <trkpt lat="42.3709" lon="2.5757">
        <ele>1012.9</ele>
        <time>2018-11-28T01:48:28Z</time>
      </trkpt>
      <trkpt lat="42.3709" lon="2.5757">
        <ele>1017.3</ele>
        <time>2018-11-28T01:48:28Z</time>
      </trkpt>
      <trkpt lat="42.3709" lon="2.5757">
        <ele>1012.9</ele>
        <time>2018-11-28T01:48:28Z</time>
      </trkpt>
      <trkpt lat="42.37089" lon="2.5757">
        <ele>1013</ele>
        <time>2018-11-28T01:48:29Z</time>
      </trkpt>
      <trkpt lat="42.37078" lon="2.57569">
        <ele>1012</ele>
        <time>2018-11-28T01:48:33Z</time>
      </trkpt>
      <trkpt lat="42.37072" lon="2.57573">
        <ele>1011.1</ele>
        <time>2018-11-28T01:48:36Z</time>
      </trkpt>
      <trkpt lat="42.37063" lon="2.57574">
        <ele>1010.6</ele>
        <time>2018-11-28T01:48:39Z</time>
      </trkpt>
      <trkpt lat="42.37055" lon="2.57581">
        <ele>1009.1</ele>
        <time>2018-11-28T01:48:43Z</time>
      </trkpt>
      <trkpt lat="42.37051" lon="2.57591">
        <ele>1009.1</ele>
        <time>2018-11-28T01:48:46Z</time>
      </trkpt>
      <trkpt lat="42.37043" lon="2.57601">
        <ele>1008.1</ele>
        <time>2018-11-28T01:48:51Z</time>
      </trkpt>
      <trkpt lat="42.3704" lon="2.57602">
        <ele>1007.1</ele>
        <time>2018-11-28T01:48:52Z</time>
      </trkpt>
      <trkpt lat="42.37033" lon="2.57612">
        <ele>1005.2</ele>
        <time>2018-11-28T01:48:56Z</time>
      </trkpt>
      <trkpt lat="42.37031" lon="2.57619">
        <ele>1004.7</ele>
        <time>2018-11-28T01:48:58Z</time>
      </trkpt>
      <trkpt lat="42.37025" lon="2.57617">
        <ele>1004.3</ele>
        <time>2018-11-28T01:49:01Z</time>
      </trkpt>
      <trkpt lat="42.37021" lon="2.57608">
        <ele>1004.2</ele>
        <time>2018-11-28T01:49:04Z</time>
      </trkpt>
      <trkpt lat="42.37019" lon="2.57602">
        <ele>1004.3</ele>
        <time>2018-11-28T01:49:06Z</time>
      </trkpt>
      <trkpt lat="42.37015" lon="2.57595">
        <ele>1004.3</ele>
        <time>2018-11-28T01:49:08Z</time>
      </trkpt>
      <trkpt lat="42.37014" lon="2.57593">
        <ele>1004.3</ele>
        <time>2018-11-28T01:49:09Z</time>
      </trkpt>
      <trkpt lat="42.37008" lon="2.5758">
        <ele>1003.8</ele>
        <time>2018-11-28T01:49:14Z</time>
      </trkpt>
      <trkpt lat="42.37006" lon="2.57576">
        <ele>1003.8</ele>
        <time>2018-11-28T01:49:15Z</time>
      </trkpt>
      <trkpt lat="42.37001" lon="2.57567">
        <ele>1004.7</ele>
        <time>2018-11-28T01:49:19Z</time>
      </trkpt>
      <trkpt lat="42.3699" lon="2.57559">
        <ele>1004.8</ele>
        <time>2018-11-28T01:49:24Z</time>
      </trkpt>
      <trkpt lat="42.36981" lon="2.57553">
        <ele>1004.2</ele>
        <time>2018-11-28T01:49:28Z</time>
      </trkpt>
      <trkpt lat="42.36965" lon="2.57548">
        <ele>1004.7</ele>
        <time>2018-11-28T01:49:34Z</time>
      </trkpt>
      <trkpt lat="42.3696" lon="2.57549">
        <ele>1005.7</ele>
        <time>2018-11-28T01:49:36Z</time>
      </trkpt>
      <trkpt lat="42.36953" lon="2.57551">
        <ele>1006.6</ele>
        <time>2018-11-28T01:49:39Z</time>
      </trkpt>
      <trkpt lat="42.3695" lon="2.57551">
        <ele>1006.7</ele>
        <time>2018-11-28T01:49:40Z</time>
      </trkpt>
      <trkpt lat="42.36946" lon="2.57545">
        <ele>1005.3</ele>
        <time>2018-11-28T01:49:43Z</time>
      </trkpt>
      <trkpt lat="42.36939" lon="2.5754">
        <ele>1007.1</ele>
        <time>2018-11-28T01:49:46Z</time>
      </trkpt>
      <trkpt lat="42.36927" lon="2.57544">
        <ele>1010</ele>
        <time>2018-11-28T01:49:51Z</time>
      </trkpt>
      <trkpt lat="42.36924" lon="2.57544">
        <ele>1011.1</ele>
        <time>2018-11-28T01:49:52Z</time>
      </trkpt>
      <trkpt lat="42.36919" lon="2.57551">
        <ele>1012.9</ele>
        <time>2018-11-28T01:49:55Z</time>
      </trkpt>
      <trkpt lat="42.36915" lon="2.57554">
        <ele>1014.3</ele>
        <time>2018-11-28T01:49:57Z</time>
      </trkpt>
      <trkpt lat="42.36911" lon="2.5756">
        <ele>1015.3</ele>
        <time>2018-11-28T01:49:59Z</time>
      </trkpt>
      <trkpt lat="42.36902" lon="2.57571">
        <ele>1018.3</ele>
        <time>2018-11-28T01:50:04Z</time>
      </trkpt>
      <trkpt lat="42.36902" lon="2.57574">
        <ele>1019.6</ele>
        <time>2018-11-28T01:50:05Z</time>
      </trkpt>
      <trkpt lat="42.36897" lon="2.57581">
        <ele>1022</ele>
        <time>2018-11-28T01:50:08Z</time>
      </trkpt>
      <trkpt lat="42.36894" lon="2.57583">
        <ele>1022.1</ele>
        <time>2018-11-28T01:50:09Z</time>
      </trkpt>
      <trkpt lat="42.36888" lon="2.57587">
        <ele>1020.6</ele>
        <time>2018-11-28T01:50:11Z</time>
      </trkpt>
      <trkpt lat="42.36877" lon="2.57589">
        <ele>1017.7</ele>
        <time>2018-11-28T01:50:16Z</time>
      </trkpt>
      <trkpt lat="42.36875" lon="2.57591">
        <ele>1016.7</ele>
        <time>2018-11-28T01:50:17Z</time>
      </trkpt>
      <trkpt lat="42.36871" lon="2.57587">
        <ele>1015.8</ele>
        <time>2018-11-28T01:50:19Z</time>
      </trkpt>
      <trkpt lat="42.36864" lon="2.57589">
        <ele>1014.9</ele>
        <time>2018-11-28T01:50:22Z</time>
      </trkpt>
      <trkpt lat="42.36857" lon="2.57582">
        <ele>1013.5</ele>
        <time>2018-11-28T01:50:25Z</time>
      </trkpt>
      <trkpt lat="42.36852" lon="2.57575">
        <ele>1016.8</ele>
        <time>2018-11-28T01:50:28Z</time>
      </trkpt>
      <trkpt lat="42.3685" lon="2.57573">
        <ele>1016.7</ele>
        <time>2018-11-28T01:50:29Z</time>
      </trkpt>
      <trkpt lat="42.36848" lon="2.57569">
        <ele>1018.2</ele>
        <time>2018-11-28T01:50:31Z</time>
      </trkpt>
      <trkpt lat="42.36847" lon="2.57565">
        <ele>1019.1</ele>
        <time>2018-11-28T01:50:32Z</time>
      </trkpt>
      <trkpt lat="42.36846" lon="2.57562">
        <ele>1019.1</ele>
        <time>2018-11-28T01:50:33Z</time>
      </trkpt>
      <trkpt lat="42.36846" lon="2.57562">
        <ele>1019.2</ele>
        <time>2018-11-28T01:50:33Z</time>
      </trkpt>
      <trkpt lat="42.36846" lon="2.57562">
        <ele>1019.7</ele>
        <time>2018-11-28T01:50:33Z</time>
      </trkpt>
      <trkpt lat="42.36847" lon="2.57561">
        <ele>1020.7</ele>
        <time>2018-11-28T01:50:33Z</time>
      </trkpt>
      <trkpt lat="42.36855" lon="2.57549">
        <ele>1021.1</ele>
        <time>2018-11-28T01:50:38Z</time>
      </trkpt>
      <trkpt lat="42.36864" lon="2.57538">
        <ele>1021.2</ele>
        <time>2018-11-28T01:50:43Z</time>
      </trkpt>
      <trkpt lat="42.36878" lon="2.57522">
        <ele>1021.5</ele>
        <time>2018-11-28T01:50:50Z</time>
      </trkpt>
      <trkpt lat="42.36881" lon="2.5752">
        <ele>1022.6</ele>
        <time>2018-11-28T01:50:51Z</time>
      </trkpt>
      <trkpt lat="42.36892" lon="2.57511">
        <ele>1023</ele>
        <time>2018-11-28T01:50:57Z</time>
      </trkpt>
      <trkpt lat="42.36906" lon="2.57499">
        <ele>1024</ele>
        <time>2018-11-28T01:51:03Z</time>
      </trkpt>
      <trkpt lat="42.36907" lon="2.57497">
        <ele>1023.9</ele>
        <time>2018-11-28T01:51:04Z</time>
      </trkpt>
      <trkpt lat="42.36922" lon="2.57482">
        <ele>1025.4</ele>
        <time>2018-11-28T01:51:11Z</time>
      </trkpt>
      <trkpt lat="42.36925" lon="2.57479">
        <ele>1025.9</ele>
        <time>2018-11-28T01:51:13Z</time>
      </trkpt>
      <trkpt lat="42.36932" lon="2.5746">
        <ele>1026.3</ele>
        <time>2018-11-28T01:51:19Z</time>
      </trkpt>
      <trkpt lat="42.3693" lon="2.57432">
        <ele>1026.4</ele>
        <time>2018-11-28T01:51:28Z</time>
      </trkpt>
      <trkpt lat="42.36923" lon="2.57417">
        <ele>1027.4</ele>
        <time>2018-11-28T01:51:33Z</time>
      </trkpt>
      <trkpt lat="42.36922" lon="2.57414">
        <ele>1027.3</ele>
        <time>2018-11-28T01:51:34Z</time>
      </trkpt>
      <trkpt lat="42.3692" lon="2.5741">
        <ele>1027.8</ele>
        <time>2018-11-28T01:51:35Z</time>
      </trkpt>
      <trkpt lat="42.36913" lon="2.57393">
        <ele>1029.2</ele>
        <time>2018-11-28T01:51:41Z</time>
      </trkpt>
      <trkpt lat="42.3691" lon="2.57376">
        <ele>1030.7</ele>
        <time>2018-11-28T01:51:46Z</time>
      </trkpt>
      <trkpt lat="42.36905" lon="2.57352">
        <ele>1032.2</ele>
        <time>2018-11-28T01:51:54Z</time>
      </trkpt>
      <trkpt lat="42.36904" lon="2.57333">
        <ele>1034.1</ele>
        <time>2018-11-28T01:51:59Z</time>
      </trkpt>
      <trkpt lat="42.36902" lon="2.57312">
        <ele>1035.5</ele>
        <time>2018-11-28T01:52:06Z</time>
      </trkpt>
      <trkpt lat="42.36902" lon="2.57308">
        <ele>1036</ele>
        <time>2018-11-28T01:52:07Z</time>
      </trkpt>
      <trkpt lat="42.36901" lon="2.57289">
        <ele>1037.4</ele>
        <time>2018-11-28T01:52:12Z</time>
      </trkpt>
      <trkpt lat="42.36901" lon="2.57286">
        <ele>1037.9</ele>
        <time>2018-11-28T01:52:13Z</time>
      </trkpt>
      <trkpt lat="42.36901" lon="2.57286">
        <ele>1038</ele>
        <time>2018-11-28T01:52:13Z</time>
      </trkpt>
      <trkpt lat="42.36901" lon="2.57284">
        <ele>1037.9</ele>
        <time>2018-11-28T01:52:14Z</time>
      </trkpt>
      <trkpt lat="42.369" lon="2.57284">
        <ele>1037.9</ele>
        <time>2018-11-28T01:52:14Z</time>
      </trkpt>
      <trkpt lat="42.369" lon="2.57284">
        <ele>1038.5</ele>
        <time>2018-11-28T01:52:14Z</time>
      </trkpt>
      <trkpt lat="42.36904" lon="2.57281">
        <ele>1039.4</ele>
        <time>2018-11-28T01:52:16Z</time>
      </trkpt>
      <trkpt lat="42.36904" lon="2.5728">
        <ele>1038.5</ele>
        <time>2018-11-28T01:52:16Z</time>
      </trkpt>
      <trkpt lat="42.36899" lon="2.5728">
        <ele>1038.5</ele>
        <time>2018-11-28T01:52:18Z</time>
      </trkpt>
      <trkpt lat="42.36894" lon="2.57277">
        <ele>1038.9</ele>
        <time>2018-11-28T01:52:20Z</time>
      </trkpt>
      <trkpt lat="42.36875" lon="2.57262">
        <ele>1039.9</ele>
        <time>2018-11-28T01:52:29Z</time>
      </trkpt>
      <trkpt lat="42.36868" lon="2.57258">
        <ele>1039.8</ele>
        <time>2018-11-28T01:52:32Z</time>
      </trkpt>
      <trkpt lat="42.36851" lon="2.57248">
        <ele>1041.7</ele>
        <time>2018-11-28T01:52:39Z</time>
      </trkpt>
      <trkpt lat="42.36849" lon="2.57246">
        <ele>1042.2</ele>
        <time>2018-11-28T01:52:40Z</time>
      </trkpt>
      <trkpt lat="42.36847" lon="2.57244">
        <ele>1041.7</ele>
        <time>2018-11-28T01:52:41Z</time>
      </trkpt>
      <trkpt lat="42.36833" lon="2.57233">
        <ele>1043.8</ele>
        <time>2018-11-28T01:52:48Z</time>
      </trkpt>
      <trkpt lat="42.36816" lon="2.57226">
        <ele>1045.1</ele>
        <time>2018-11-28T01:52:55Z</time>
      </trkpt>
      <trkpt lat="42.36796" lon="2.57215">
        <ele>1046.6</ele>
        <time>2018-11-28T01:53:04Z</time>
      </trkpt>
      <trkpt lat="42.36775" lon="2.57206">
        <ele>1049</ele>
        <time>2018-11-28T01:53:12Z</time>
      </trkpt>
      <trkpt lat="42.36773" lon="2.57203">
        <ele>1048.9</ele>
        <time>2018-11-28T01:53:13Z</time>
      </trkpt>
      <trkpt lat="42.36767" lon="2.57201">
        <ele>1049.5</ele>
        <time>2018-11-28T01:53:16Z</time>
      </trkpt>
      <trkpt lat="42.3675" lon="2.57187">
        <ele>1051.4</ele>
        <time>2018-11-28T01:53:24Z</time>
      </trkpt>
      <trkpt lat="42.36748" lon="2.57186">
        <ele>1052.8</ele>
        <time>2018-11-28T01:53:25Z</time>
      </trkpt>
      <trkpt lat="42.3674" lon="2.57182">
        <ele>1051.3</ele>
        <time>2018-11-28T01:53:28Z</time>
      </trkpt>
      <trkpt lat="42.36737" lon="2.57181">
        <ele>1051.3</ele>
        <time>2018-11-28T01:53:29Z</time>
      </trkpt>
      <trkpt lat="42.36721" lon="2.57178">
        <ele>1052.9</ele>
        <time>2018-11-28T01:53:36Z</time>
      </trkpt>
      <trkpt lat="42.36713" lon="2.57176">
        <ele>1054.3</ele>
        <time>2018-11-28T01:53:39Z</time>
      </trkpt>
      <trkpt lat="42.36705" lon="2.57178">
        <ele>1054.3</ele>
        <time>2018-11-28T01:53:43Z</time>
      </trkpt>
      <trkpt lat="42.36686" lon="2.5718">
        <ele>1055.8</ele>
        <time>2018-11-28T01:53:50Z</time>
      </trkpt>
      <trkpt lat="42.36668" lon="2.57185">
        <ele>1057.1</ele>
        <time>2018-11-28T01:53:57Z</time>
      </trkpt>
      <trkpt lat="42.36665" lon="2.57186">
        <ele>1056.6</ele>
        <time>2018-11-28T01:53:59Z</time>
      </trkpt>
      <trkpt lat="42.36654" lon="2.57191">
        <ele>1058.1</ele>
        <time>2018-11-28T01:54:03Z</time>
      </trkpt>
      <trkpt lat="42.36653" lon="2.57192">
        <ele>1056.3</ele>
        <time>2018-11-28T01:54:04Z</time>
      </trkpt>
      <trkpt lat="42.36637" lon="2.57197">
        <ele>1059.5</ele>
        <time>2018-11-28T01:54:10Z</time>
      </trkpt>
      <trkpt lat="42.36624" lon="2.57198">
        <ele>1061</ele>
        <time>2018-11-28T01:54:16Z</time>
      </trkpt>
      <trkpt lat="42.36609" lon="2.57195">
        <ele>1062.4</ele>
        <time>2018-11-28T01:54:22Z</time>
      </trkpt>
      <trkpt lat="42.36608" lon="2.57195">
        <ele>1059.5</ele>
        <time>2018-11-28T01:54:22Z</time>
      </trkpt>
      <trkpt lat="42.36605" lon="2.57195">
        <ele>1064.3</ele>
        <time>2018-11-28T01:54:23Z</time>
      </trkpt>
      <trkpt lat="42.36594" lon="2.57194">
        <ele>1063.5</ele>
        <time>2018-11-28T01:54:28Z</time>
      </trkpt>
      <trkpt lat="42.36593" lon="2.57194">
        <ele>1063.5</ele>
        <time>2018-11-28T01:54:28Z</time>
      </trkpt>
      <trkpt lat="42.36592" lon="2.57193">
        <ele>1067.3</ele>
        <time>2018-11-28T01:54:29Z</time>
      </trkpt>
      <trkpt lat="42.36582" lon="2.57189">
        <ele>1063.4</ele>
        <time>2018-11-28T01:54:33Z</time>
      </trkpt>
      <trkpt lat="42.36581" lon="2.57187">
        <ele>1062.9</ele>
        <time>2018-11-28T01:54:34Z</time>
      </trkpt>
      <trkpt lat="42.36581" lon="2.57187">
        <ele>1068.2</ele>
        <time>2018-11-28T01:54:34Z</time>
      </trkpt>
      <trkpt lat="42.36581" lon="2.57187">
        <ele>1063</ele>
        <time>2018-11-28T01:54:34Z</time>
      </trkpt>
      <trkpt lat="42.36581" lon="2.57187">
        <ele>1063.9</ele>
        <time>2018-11-28T01:54:34Z</time>
      </trkpt>
      <trkpt lat="42.36581" lon="2.57187">
        <ele>1064.3</ele>
        <time>2018-11-28T01:54:34Z</time>
      </trkpt>
      <trkpt lat="42.36581" lon="2.57187">
        <ele>1063.8</ele>
        <time>2018-11-28T01:54:34Z</time>
      </trkpt>
      <trkpt lat="42.36581" lon="2.57188">
        <ele>1064.3</ele>
        <time>2018-11-28T01:54:34Z</time>
      </trkpt>
      <trkpt lat="42.36583" lon="2.5719">
        <ele>1064.4</ele>
        <time>2018-11-28T01:54:35Z</time>
      </trkpt>
      <trkpt lat="42.36583" lon="2.57191">
        <ele>1064.4</ele>
        <time>2018-11-28T01:54:35Z</time>
      </trkpt>
      <trkpt lat="42.36583" lon="2.57198">
        <ele>1065.8</ele>
        <time>2018-11-28T01:54:37Z</time>
      </trkpt>
      <trkpt lat="42.36584" lon="2.57199">
        <ele>1066.3</ele>
        <time>2018-11-28T01:54:37Z</time>
      </trkpt>
      <trkpt lat="42.36582" lon="2.57202">
        <ele>1067.7</ele>
        <time>2018-11-28T01:54:39Z</time>
      </trkpt>
      <trkpt lat="42.3658" lon="2.57204">
        <ele>1068.6</ele>
        <time>2018-11-28T01:54:40Z</time>
      </trkpt>
      <trkpt lat="42.36578" lon="2.57212">
        <ele>1071.2</ele>
        <time>2018-11-28T01:54:42Z</time>
      </trkpt>
      <trkpt lat="42.36576" lon="2.57218">
        <ele>1073.9</ele>
        <time>2018-11-28T01:54:44Z</time>
      </trkpt>
      <trkpt lat="42.36578" lon="2.57225">
        <ele>1076.9</ele>
        <time>2018-11-28T01:54:46Z</time>
      </trkpt>
      <trkpt lat="42.36577" lon="2.57232">
        <ele>1080.3</ele>
        <time>2018-11-28T01:54:48Z</time>
      </trkpt>
      <trkpt lat="42.36577" lon="2.57239">
        <ele>1081.6</ele>
        <time>2018-11-28T01:54:50Z</time>
      </trkpt>
      <trkpt lat="42.36577" lon="2.5724">
        <ele>1081.6</ele>
        <time>2018-11-28T01:54:51Z</time>
      </trkpt>
      <trkpt lat="42.36578" lon="2.57241">
        <ele>1084.6</ele>
        <time>2018-11-28T01:54:51Z</time>
      </trkpt>
      <trkpt lat="42.36584" lon="2.57247">
        <ele>1085.6</ele>
        <time>2018-11-28T01:54:54Z</time>
      </trkpt>
      <trkpt lat="42.36596" lon="2.5725">
        <ele>1086.1</ele>
        <time>2018-11-28T01:54:59Z</time>
      </trkpt>
      <trkpt lat="42.3661" lon="2.57265">
        <ele>1086.1</ele>
        <time>2018-11-28T01:55:06Z</time>
      </trkpt>
      <trkpt lat="42.36611" lon="2.57269">
        <ele>1086.1</ele>
        <time>2018-11-28T01:55:07Z</time>
      </trkpt>
      <trkpt lat="42.36613" lon="2.57274">
        <ele>1086.4</ele>
        <time>2018-11-28T01:55:09Z</time>
      </trkpt>
      <trkpt lat="42.36612" lon="2.57276">
        <ele>1086.1</ele>
        <time>2018-11-28T01:55:10Z</time>
      </trkpt>
      <trkpt lat="42.36603" lon="2.57274">
        <ele>1086.9</ele>
        <time>2018-11-28T01:55:13Z</time>
      </trkpt>
      <trkpt lat="42.36598" lon="2.5727">
        <ele>1088.4</ele>
        <time>2018-11-28T01:55:16Z</time>
      </trkpt>
      <trkpt lat="42.36593" lon="2.5727">
        <ele>1089.3</ele>
        <time>2018-11-28T01:55:18Z</time>
      </trkpt>
      <trkpt lat="42.36578" lon="2.57277">
        <ele>1092.2</ele>
        <time>2018-11-28T01:55:24Z</time>
      </trkpt>
      <trkpt lat="42.36576" lon="2.57277">
        <ele>1092.7</ele>
        <time>2018-11-28T01:55:25Z</time>
      </trkpt>
      <trkpt lat="42.36564" lon="2.57279">
        <ele>1095.6</ele>
        <time>2018-11-28T01:55:29Z</time>
      </trkpt>
      <trkpt lat="42.36549" lon="2.57272">
        <ele>1098</ele>
        <time>2018-11-28T01:55:36Z</time>
      </trkpt>
      <trkpt lat="42.36547" lon="2.57272">
        <ele>1098.9</ele>
        <time>2018-11-28T01:55:37Z</time>
      </trkpt>
      <trkpt lat="42.36535" lon="2.57273">
        <ele>1100</ele>
        <time>2018-11-28T01:55:41Z</time>
      </trkpt>
      <trkpt lat="42.3653" lon="2.57272">
        <ele>1100.5</ele>
        <time>2018-11-28T01:55:43Z</time>
      </trkpt>
      <trkpt lat="42.36512" lon="2.57263">
        <ele>1101.8</ele>
        <time>2018-11-28T01:55:51Z</time>
      </trkpt>
      <trkpt lat="42.36497" lon="2.57249">
        <ele>1104.3</ele>
        <time>2018-11-28T01:55:58Z</time>
      </trkpt>
      <trkpt lat="42.36492" lon="2.57245">
        <ele>1105.3</ele>
        <time>2018-11-28T01:56:01Z</time>
      </trkpt>
      <trkpt lat="42.36481" lon="2.57246">
        <ele>1107.2</ele>
        <time>2018-11-28T01:56:05Z</time>
      </trkpt>
      <trkpt lat="42.36473" lon="2.57253">
        <ele>1108.1</ele>
        <time>2018-11-28T01:56:09Z</time>
      </trkpt>
      <trkpt lat="42.36468" lon="2.57251">
        <ele>1109</ele>
        <time>2018-11-28T01:56:11Z</time>
      </trkpt>
      <trkpt lat="42.36459" lon="2.57251">
        <ele>1111.4</ele>
        <time>2018-11-28T01:56:15Z</time>
      </trkpt>
      <trkpt lat="42.36453" lon="2.57252">
        <ele>1113.8</ele>
        <time>2018-11-28T01:56:17Z</time>
      </trkpt>
      <trkpt lat="42.36441" lon="2.57242">
        <ele>1116.2</ele>
        <time>2018-11-28T01:56:22Z</time>
      </trkpt>
      <trkpt lat="42.36433" lon="2.57234">
        <ele>1118.6</ele>
        <time>2018-11-28T01:56:26Z</time>
      </trkpt>
      <trkpt lat="42.3642" lon="2.57224">
        <ele>1121.1</ele>
        <time>2018-11-28T01:56:33Z</time>
      </trkpt>
      <trkpt lat="42.36411" lon="2.57219">
        <ele>1123.1</ele>
        <time>2018-11-28T01:56:36Z</time>
      </trkpt>
      <trkpt lat="42.36401" lon="2.57213">
        <ele>1125</ele>
        <time>2018-11-28T01:56:41Z</time>
      </trkpt>
      <trkpt lat="42.3639" lon="2.57199">
        <ele>1127.4</ele>
        <time>2018-11-28T01:56:47Z</time>
      </trkpt>
      <trkpt lat="42.36389" lon="2.57198">
        <ele>1127.9</ele>
        <time>2018-11-28T01:56:47Z</time>
      </trkpt>
      <trkpt lat="42.36377" lon="2.57191">
        <ele>1128.8</ele>
        <time>2018-11-28T01:56:53Z</time>
      </trkpt>
      <trkpt lat="42.36367" lon="2.57192">
        <ele>1131.6</ele>
        <time>2018-11-28T01:56:57Z</time>
      </trkpt>
      <trkpt lat="42.36352" lon="2.57187">
        <ele>1133.1</ele>
        <time>2018-11-28T01:57:03Z</time>
      </trkpt>
      <trkpt lat="42.36338" lon="2.57181">
        <ele>1135.5</ele>
        <time>2018-11-28T01:57:09Z</time>
      </trkpt>
      <trkpt lat="42.36315" lon="2.57189">
        <ele>1136.4</ele>
        <time>2018-11-28T01:57:18Z</time>
      </trkpt>
      <trkpt lat="42.36314" lon="2.57189">
        <ele>1136.4</ele>
        <time>2018-11-28T01:57:19Z</time>
      </trkpt>
      <trkpt lat="42.36304" lon="2.57192">
        <ele>1138</ele>
        <time>2018-11-28T01:57:23Z</time>
      </trkpt>
      <trkpt lat="42.36293" lon="2.5719">
        <ele>1138.4</ele>
        <time>2018-11-28T01:57:27Z</time>
      </trkpt>
      <trkpt lat="42.36293" lon="2.5719">
        <ele>1138.9</ele>
        <time>2018-11-28T01:57:27Z</time>
      </trkpt>
      <trkpt lat="42.36293" lon="2.5719">
        <ele>1139.4</ele>
        <time>2018-11-28T01:57:27Z</time>
      </trkpt>
      <trkpt lat="42.36293" lon="2.5719">
        <ele>1138.9</ele>
        <time>2018-11-28T01:57:27Z</time>
      </trkpt>
      <trkpt lat="42.36293" lon="2.5719">
        <ele>1139.4</ele>
        <time>2018-11-28T01:57:27Z</time>
      </trkpt>
      <trkpt lat="42.36294" lon="2.5719">
        <ele>1138.9</ele>
        <time>2018-11-28T01:57:27Z</time>
      </trkpt>
      <trkpt lat="42.36294" lon="2.5719">
        <ele>1138.8</ele>
        <time>2018-11-28T01:57:27Z</time>
      </trkpt>
      <trkpt lat="42.36291" lon="2.5719">
        <ele>1139.3</ele>
        <time>2018-11-28T01:57:28Z</time>
      </trkpt>
      <trkpt lat="42.36276" lon="2.57179">
        <ele>1140.3</ele>
        <time>2018-11-28T01:57:35Z</time>
      </trkpt>
      <trkpt lat="42.36274" lon="2.57178">
        <ele>1141.2</ele>
        <time>2018-11-28T01:57:36Z</time>
      </trkpt>
      <trkpt lat="42.36264" lon="2.57171">
        <ele>1141.8</ele>
        <time>2018-11-28T01:57:40Z</time>
      </trkpt>
      <trkpt lat="42.3625" lon="2.57159">
        <ele>1142.7</ele>
        <time>2018-11-28T01:57:47Z</time>
      </trkpt>
      <trkpt lat="42.36239" lon="2.57149">
        <ele>1142.8</ele>
        <time>2018-11-28T01:57:52Z</time>
      </trkpt>
      <trkpt lat="42.36227" lon="2.57134">
        <ele>1144.2</ele>
        <time>2018-11-28T01:57:59Z</time>
      </trkpt>
      <trkpt lat="42.36217" lon="2.57121">
        <ele>1145.2</ele>
        <time>2018-11-28T01:58:04Z</time>
      </trkpt>
      <trkpt lat="42.36215" lon="2.57118">
        <ele>1145.2</ele>
        <time>2018-11-28T01:58:06Z</time>
      </trkpt>
      <trkpt lat="42.36208" lon="2.57107">
        <ele>1147</ele>
        <time>2018-11-28T01:58:10Z</time>
      </trkpt>
      <trkpt lat="42.36199" lon="2.57091">
        <ele>1149</ele>
        <time>2018-11-28T01:58:16Z</time>
      </trkpt>
      <trkpt lat="42.36193" lon="2.57085">
        <ele>1150.9</ele>
        <time>2018-11-28T01:58:19Z</time>
      </trkpt>
      <trkpt lat="42.36185" lon="2.57069">
        <ele>1151.8</ele>
        <time>2018-11-28T01:58:25Z</time>
      </trkpt>
      <trkpt lat="42.36184" lon="2.57064">
        <ele>1153.2</ele>
        <time>2018-11-28T01:58:26Z</time>
      </trkpt>
      <trkpt lat="42.3618" lon="2.57061">
        <ele>1153.8</ele>
        <time>2018-11-28T01:58:28Z</time>
      </trkpt>
      <trkpt lat="42.36169" lon="2.57052">
        <ele>1156.1</ele>
        <time>2018-11-28T01:58:33Z</time>
      </trkpt>
      <trkpt lat="42.36168" lon="2.57048">
        <ele>1156.7</ele>
        <time>2018-11-28T01:58:34Z</time>
      </trkpt>
      <trkpt lat="42.36164" lon="2.57046">
        <ele>1157.1</ele>
        <time>2018-11-28T01:58:36Z</time>
      </trkpt>
      <trkpt lat="42.36156" lon="2.57039">
        <ele>1158.2</ele>
        <time>2018-11-28T01:58:40Z</time>
      </trkpt>
      <trkpt lat="42.36154" lon="2.57034">
        <ele>1159.6</ele>
        <time>2018-11-28T01:58:41Z</time>
      </trkpt>
      <trkpt lat="42.36153" lon="2.57032">
        <ele>1160.6</ele>
        <time>2018-11-28T01:58:42Z</time>
      </trkpt>
      <trkpt lat="42.36151" lon="2.57025">
        <ele>1161</ele>
        <time>2018-11-28T01:58:44Z</time>
      </trkpt>
      <trkpt lat="42.36141" lon="2.5702">
        <ele>1164.3</ele>
        <time>2018-11-28T01:58:48Z</time>
      </trkpt>
      <trkpt lat="42.3614" lon="2.57019">
        <ele>1162.5</ele>
        <time>2018-11-28T01:58:49Z</time>
      </trkpt>
      <trkpt lat="42.36136" lon="2.57016">
        <ele>1162.9</ele>
        <time>2018-11-28T01:58:51Z</time>
      </trkpt>
      <trkpt lat="42.36126" lon="2.57004">
        <ele>1164.3</ele>
        <time>2018-11-28T01:58:56Z</time>
      </trkpt>
      <trkpt lat="42.36122" lon="2.56999">
        <ele>1164.9</ele>
        <time>2018-11-28T01:58:58Z</time>
      </trkpt>
      <trkpt lat="42.36111" lon="2.56997">
        <ele>1166.2</ele>
        <time>2018-11-28T01:59:03Z</time>
      </trkpt>
      <trkpt lat="42.36097" lon="2.56996">
        <ele>1167.2</ele>
        <time>2018-11-28T01:59:08Z</time>
      </trkpt>
      <trkpt lat="42.36086" lon="2.56992">
        <ele>1167.8</ele>
        <time>2018-11-28T01:59:13Z</time>
      </trkpt>
      <trkpt lat="42.36077" lon="2.56985">
        <ele>1169.2</ele>
        <time>2018-11-28T01:59:17Z</time>
      </trkpt>
      <trkpt lat="42.36076" lon="2.56983">
        <ele>1169.2</ele>
        <time>2018-11-28T01:59:18Z</time>
      </trkpt>
      <trkpt lat="42.36067" lon="2.56977">
        <ele>1170.6</ele>
        <time>2018-11-28T01:59:22Z</time>
      </trkpt>
      <trkpt lat="42.36055" lon="2.56972">
        <ele>1171.5</ele>
        <time>2018-11-28T01:59:27Z</time>
      </trkpt>
      <trkpt lat="42.36045" lon="2.56965">
        <ele>1173.1</ele>
        <time>2018-11-28T01:59:31Z</time>
      </trkpt>
      <trkpt lat="42.36032" lon="2.56955">
        <ele>1173</ele>
        <time>2018-11-28T01:59:37Z</time>
      </trkpt>
      <trkpt lat="42.36021" lon="2.56952">
        <ele>1172.5</ele>
        <time>2018-11-28T01:59:42Z</time>
      </trkpt>
      <trkpt lat="42.36014" lon="2.56944">
        <ele>1173</ele>
        <time>2018-11-28T01:59:46Z</time>
      </trkpt>
      <trkpt lat="42.3601" lon="2.56942">
        <ele>1172.6</ele>
        <time>2018-11-28T01:59:47Z</time>
      </trkpt>
      <trkpt lat="42.36005" lon="2.56938">
        <ele>1172.1</ele>
        <time>2018-11-28T01:59:49Z</time>
      </trkpt>
      <trkpt lat="42.36002" lon="2.56932">
        <ele>1172</ele>
        <time>2018-11-28T01:59:51Z</time>
      </trkpt>
      <trkpt lat="42.35991" lon="2.56922">
        <ele>1172.6</ele>
        <time>2018-11-28T01:59:57Z</time>
      </trkpt>
      <trkpt lat="42.35985" lon="2.5692">
        <ele>1172.6</ele>
        <time>2018-11-28T01:59:59Z</time>
      </trkpt>
      <trkpt lat="42.35977" lon="2.5692">
        <ele>1173</ele>
        <time>2018-11-28T02:00:02Z</time>
      </trkpt>
      <trkpt lat="42.35975" lon="2.56917">
        <ele>1173</ele>
        <time>2018-11-28T02:00:04Z</time>
      </trkpt>
      <trkpt lat="42.3597" lon="2.56917">
        <ele>1172.6</ele>
        <time>2018-11-28T02:00:06Z</time>
      </trkpt>
      <trkpt lat="42.35967" lon="2.56912">
        <ele>1173.1</ele>
        <time>2018-11-28T02:00:07Z</time>
      </trkpt>
      <trkpt lat="42.35967" lon="2.56907">
        <ele>1173</ele>
        <time>2018-11-28T02:00:09Z</time>
      </trkpt>
      <trkpt lat="42.35964" lon="2.56893">
        <ele>1172.5</ele>
        <time>2018-11-28T02:00:13Z</time>
      </trkpt>
      <trkpt lat="42.35957" lon="2.56883">
        <ele>1173</ele>
        <time>2018-11-28T02:00:17Z</time>
      </trkpt>
      <trkpt lat="42.3595" lon="2.56873">
        <ele>1172.6</ele>
        <time>2018-11-28T02:00:21Z</time>
      </trkpt>
      <trkpt lat="42.35943" lon="2.56864">
        <ele>1173</ele>
        <time>2018-11-28T02:00:25Z</time>
      </trkpt>
      <trkpt lat="42.35933" lon="2.56857">
        <ele>1173.9</ele>
        <time>2018-11-28T02:00:30Z</time>
      </trkpt>
      <trkpt lat="42.35921" lon="2.56848">
        <ele>1175.5</ele>
        <time>2018-11-28T02:00:35Z</time>
      </trkpt>
      <trkpt lat="42.35908" lon="2.5684">
        <ele>1176.3</ele>
        <time>2018-11-28T02:00:41Z</time>
      </trkpt>
      <trkpt lat="42.35901" lon="2.56829">
        <ele>1177.4</ele>
        <time>2018-11-28T02:00:45Z</time>
      </trkpt>
      <trkpt lat="42.35887" lon="2.56818">
        <ele>1177.3</ele>
        <time>2018-11-28T02:00:52Z</time>
      </trkpt>
      <trkpt lat="42.35876" lon="2.56807">
        <ele>1178.2</ele>
        <time>2018-11-28T02:00:57Z</time>
      </trkpt>
      <trkpt lat="42.35859" lon="2.56792">
        <ele>1178.8</ele>
        <time>2018-11-28T02:01:05Z</time>
      </trkpt>
      <trkpt lat="42.35855" lon="2.5679">
        <ele>1178.7</ele>
        <time>2018-11-28T02:01:07Z</time>
      </trkpt>
      <trkpt lat="42.35837" lon="2.56785">
        <ele>1179.2</ele>
        <time>2018-11-28T02:01:15Z</time>
      </trkpt>
      <trkpt lat="42.35829" lon="2.56783">
        <ele>1179.7</ele>
        <time>2018-11-28T02:01:18Z</time>
      </trkpt>
      <trkpt lat="42.35816" lon="2.56782">
        <ele>1180.3</ele>
        <time>2018-11-28T02:01:23Z</time>
      </trkpt>
      <trkpt lat="42.35804" lon="2.5678">
        <ele>1180.7</ele>
        <time>2018-11-28T02:01:28Z</time>
      </trkpt>
      <trkpt lat="42.35795" lon="2.5678">
        <ele>1180.6</ele>
        <time>2018-11-28T02:01:31Z</time>
      </trkpt>
      <trkpt lat="42.35789" lon="2.56777">
        <ele>1180.6</ele>
        <time>2018-11-28T02:01:34Z</time>
      </trkpt>
      <trkpt lat="42.35783" lon="2.56776">
        <ele>1180.3</ele>
        <time>2018-11-28T02:01:36Z</time>
      </trkpt>
      <trkpt lat="42.35783" lon="2.56776">
        <ele>1180.3</ele>
        <time>2018-11-28T02:01:36Z</time>
      </trkpt>
      <trkpt lat="42.35773" lon="2.56767">
        <ele>1180.2</ele>
        <time>2018-11-28T02:01:41Z</time>
      </trkpt>
      <trkpt lat="42.35769" lon="2.56767">
        <ele>1180.6</ele>
        <time>2018-11-28T02:01:43Z</time>
      </trkpt>
      <trkpt lat="42.35757" lon="2.56761">
        <ele>1181.6</ele>
        <time>2018-11-28T02:01:48Z</time>
      </trkpt>
      <trkpt lat="42.35745" lon="2.5676">
        <ele>1182.7</ele>
        <time>2018-11-28T02:01:53Z</time>
      </trkpt>
      <trkpt lat="42.35741" lon="2.5676">
        <ele>1182.6</ele>
        <time>2018-11-28T02:01:54Z</time>
      </trkpt>
      <trkpt lat="42.35728" lon="2.56763">
        <ele>1183</ele>
        <time>2018-11-28T02:01:59Z</time>
      </trkpt>
      <trkpt lat="42.35721" lon="2.56759">
        <ele>1183.5</ele>
        <time>2018-11-28T02:02:03Z</time>
      </trkpt>
      <trkpt lat="42.3572" lon="2.5676">
        <ele>1183.1</ele>
        <time>2018-11-28T02:02:03Z</time>
      </trkpt>
      <trkpt lat="42.35717" lon="2.56761">
        <ele>1183.1</ele>
        <time>2018-11-28T02:02:04Z</time>
      </trkpt>
      <trkpt lat="42.35716" lon="2.56761">
        <ele>1182.6</ele>
        <time>2018-11-28T02:02:05Z</time>
      </trkpt>
      <trkpt lat="42.35716" lon="2.56761">
        <ele>1182.6</ele>
        <time>2018-11-28T02:02:05Z</time>
      </trkpt>
      <trkpt lat="42.35714" lon="2.56758">
        <ele>1183.5</ele>
        <time>2018-11-28T02:02:06Z</time>
      </trkpt>
      <trkpt lat="42.35713" lon="2.56758">
        <ele>1183.5</ele>
        <time>2018-11-28T02:02:06Z</time>
      </trkpt>
      <trkpt lat="42.35705" lon="2.56752">
        <ele>1184.1</ele>
        <time>2018-11-28T02:02:10Z</time>
      </trkpt>
      <trkpt lat="42.35696" lon="2.56737">
        <ele>1185.1</ele>
        <time>2018-11-28T02:02:15Z</time>
      </trkpt>
      <trkpt lat="42.35684" lon="2.56727">
        <ele>1185.1</ele>
        <time>2018-11-28T02:02:21Z</time>
      </trkpt>
      <trkpt lat="42.35672" lon="2.56718">
        <ele>1184.5</ele>
        <time>2018-11-28T02:02:27Z</time>
      </trkpt>
      <trkpt lat="42.35668" lon="2.56714">
        <ele>1184</ele>
        <time>2018-11-28T02:02:29Z</time>
      </trkpt>
      <trkpt lat="42.35663" lon="2.56706">
        <ele>1183</ele>
        <time>2018-11-28T02:02:32Z</time>
      </trkpt>
      <trkpt lat="42.35657" lon="2.56702">
        <ele>1180.7</ele>
        <time>2018-11-28T02:02:34Z</time>
      </trkpt>
      <trkpt lat="42.3565" lon="2.56698">
        <ele>1180.3</ele>
        <time>2018-11-28T02:02:38Z</time>
      </trkpt>
      <trkpt lat="42.35647" lon="2.56683">
        <ele>1180.6</ele>
        <time>2018-11-28T02:02:42Z</time>
      </trkpt>
      <trkpt lat="42.35647" lon="2.56672">
        <ele>1182.2</ele>
        <time>2018-11-28T02:02:46Z</time>
      </trkpt>
      <trkpt lat="42.35645" lon="2.56658">
        <ele>1183</ele>
        <time>2018-11-28T02:02:50Z</time>
      </trkpt>
      <trkpt lat="42.35644" lon="2.56654">
        <ele>1182.6</ele>
        <time>2018-11-28T02:02:51Z</time>
      </trkpt>
      <trkpt lat="42.35641" lon="2.5665">
        <ele>1184</ele>
        <time>2018-11-28T02:02:53Z</time>
      </trkpt>
      <trkpt lat="42.35631" lon="2.56644">
        <ele>1185.4</ele>
        <time>2018-11-28T02:02:57Z</time>
      </trkpt>
      <trkpt lat="42.35628" lon="2.56644">
        <ele>1186</ele>
        <time>2018-11-28T02:02:58Z</time>
      </trkpt>
      <trkpt lat="42.35622" lon="2.56649">
        <ele>1185.9</ele>
        <time>2018-11-28T02:03:01Z</time>
      </trkpt>
      <trkpt lat="42.35612" lon="2.5667">
        <ele>1188.3</ele>
        <time>2018-11-28T02:03:08Z</time>
      </trkpt>
      <trkpt lat="42.35612" lon="2.56693">
        <ele>1186.5</ele>
        <time>2018-11-28T02:03:15Z</time>
      </trkpt>
      <trkpt lat="42.3561" lon="2.56695">
        <ele>1185.4</ele>
        <time>2018-11-28T02:03:16Z</time>
      </trkpt>
      <trkpt lat="42.35609" lon="2.56696">
        <ele>1185.9</ele>
        <time>2018-11-28T02:03:16Z</time>
      </trkpt>
      <trkpt lat="42.35609" lon="2.567">
        <ele>1185.4</ele>
        <time>2018-11-28T02:03:18Z</time>
      </trkpt>
      <trkpt lat="42.3561" lon="2.56701">
        <ele>1185.1</ele>
        <time>2018-11-28T02:03:18Z</time>
      </trkpt>
      <trkpt lat="42.3561" lon="2.56702">
        <ele>1185</ele>
        <time>2018-11-28T02:03:18Z</time>
      </trkpt>
      <trkpt lat="42.35611" lon="2.56704">
        <ele>1184.5</ele>
        <time>2018-11-28T02:03:19Z</time>
      </trkpt>
      <trkpt lat="42.35611" lon="2.56704">
        <ele>1184.1</ele>
        <time>2018-11-28T02:03:19Z</time>
      </trkpt>
      <trkpt lat="42.35611" lon="2.56704">
        <ele>1183.6</ele>
        <time>2018-11-28T02:03:19Z</time>
      </trkpt>
      <trkpt lat="42.35611" lon="2.56704">
        <ele>1184.1</ele>
        <time>2018-11-28T02:03:19Z</time>
      </trkpt>
      <trkpt lat="42.35611" lon="2.56704">
        <ele>1185</ele>
        <time>2018-11-28T02:03:20Z</time>
      </trkpt>
      <trkpt lat="42.35611" lon="2.56704">
        <ele>1185</ele>
        <time>2018-11-28T02:03:20Z</time>
      </trkpt>
      <trkpt lat="42.3561" lon="2.56705">
        <ele>1184.5</ele>
        <time>2018-11-28T02:03:20Z</time>
      </trkpt>
      <trkpt lat="42.3561" lon="2.56704">
        <ele>1184.5</ele>
        <time>2018-11-28T02:03:20Z</time>
      </trkpt>
      <trkpt lat="42.3561" lon="2.56704">
        <ele>1184.6</ele>
        <time>2018-11-28T02:03:20Z</time>
      </trkpt>
      <trkpt lat="42.3561" lon="2.56704">
        <ele>1185</ele>
        <time>2018-11-28T02:03:20Z</time>
      </trkpt>
      <trkpt lat="42.35611" lon="2.56698">
        <ele>1185.9</ele>
        <time>2018-11-28T02:03:22Z</time>
      </trkpt>
      <trkpt lat="42.35613" lon="2.56694">
        <ele>1186.4</ele>
        <time>2018-11-28T02:03:23Z</time>
      </trkpt>
      <trkpt lat="42.35613" lon="2.56694">
        <ele>1186.5</ele>
        <time>2018-11-28T02:03:23Z</time>
      </trkpt>
      <trkpt lat="42.35613" lon="2.56687">
        <ele>1187.4</ele>
        <time>2018-11-28T02:03:26Z</time>
      </trkpt>
      <trkpt lat="42.35613" lon="2.5668">
        <ele>1187.5</ele>
        <time>2018-11-28T02:03:28Z</time>
      </trkpt>
      <trkpt lat="42.35613" lon="2.56672">
        <ele>1188.3</ele>
        <time>2018-11-28T02:03:30Z</time>
      </trkpt>
      <trkpt lat="42.35607" lon="2.56665">
        <ele>1189.8</ele>
        <time>2018-11-28T02:03:33Z</time>
      </trkpt>
      <trkpt lat="42.35598" lon="2.56652">
        <ele>1191.7</ele>
        <time>2018-11-28T02:03:39Z</time>
      </trkpt>
      <trkpt lat="42.3559" lon="2.56653">
        <ele>1192.7</ele>
        <time>2018-11-28T02:03:42Z</time>
      </trkpt>
      <trkpt lat="42.35581" lon="2.56665">
        <ele>1194.2</ele>
        <time>2018-11-28T02:03:47Z</time>
      </trkpt>
      <trkpt lat="42.3558" lon="2.56666">
        <ele>1194.1</ele>
        <time>2018-11-28T02:03:47Z</time>
      </trkpt>
      <trkpt lat="42.35578" lon="2.56672">
        <ele>1194.7</ele>
        <time>2018-11-28T02:03:49Z</time>
      </trkpt>
      <trkpt lat="42.35571" lon="2.56679">
        <ele>1196.1</ele>
        <time>2018-11-28T02:03:53Z</time>
      </trkpt>
      <trkpt lat="42.35555" lon="2.56691">
        <ele>1196.5</ele>
        <time>2018-11-28T02:04:00Z</time>
      </trkpt>
      <trkpt lat="42.35532" lon="2.56703">
        <ele>1197</ele>
        <time>2018-11-28T02:04:10Z</time>
      </trkpt>
      <trkpt lat="42.35525" lon="2.56707">
        <ele>1197.1</ele>
        <time>2018-11-28T02:04:13Z</time>
      </trkpt>
      <trkpt lat="42.35523" lon="2.56707">
        <ele>1198.5</ele>
        <time>2018-11-28T02:04:14Z</time>
      </trkpt>
      <trkpt lat="42.35512" lon="2.56706">
        <ele>1198.9</ele>
        <time>2018-11-28T02:04:18Z</time>
      </trkpt>
      <trkpt lat="42.35497" lon="2.567">
        <ele>1199.4</ele>
        <time>2018-11-28T02:04:24Z</time>
      </trkpt>
      <trkpt lat="42.3548" lon="2.567">
        <ele>1198.9</ele>
        <time>2018-11-28T02:04:31Z</time>
      </trkpt>
      <trkpt lat="42.35469" lon="2.56707">
        <ele>1199</ele>
        <time>2018-11-28T02:04:36Z</time>
      </trkpt>
      <trkpt lat="42.35465" lon="2.5671">
        <ele>1198.4</ele>
        <time>2018-11-28T02:04:38Z</time>
      </trkpt>
      <trkpt lat="42.3546" lon="2.56714">
        <ele>1195.1</ele>
        <time>2018-11-28T02:04:40Z</time>
      </trkpt>
      <trkpt lat="42.3546" lon="2.56715">
        <ele>1196</ele>
        <time>2018-11-28T02:04:40Z</time>
      </trkpt>
      <trkpt lat="42.3546" lon="2.56715">
        <ele>1196</ele>
        <time>2018-11-28T02:04:40Z</time>
      </trkpt>
      <trkpt lat="42.35465" lon="2.56707">
        <ele>1196.1</ele>
        <time>2018-11-28T02:04:43Z</time>
      </trkpt>
      <trkpt lat="42.35467" lon="2.56699">
        <ele>1196.5</ele>
        <time>2018-11-28T02:04:46Z</time>
      </trkpt>
      <trkpt lat="42.35467" lon="2.56696">
        <ele>1196.6</ele>
        <time>2018-11-28T02:04:47Z</time>
      </trkpt>
      <trkpt lat="42.35465" lon="2.56691">
        <ele>1197.1</ele>
        <time>2018-11-28T02:04:48Z</time>
      </trkpt>
      <trkpt lat="42.35456" lon="2.56678">
        <ele>1197.9</ele>
        <time>2018-11-28T02:04:54Z</time>
      </trkpt>
      <trkpt lat="42.35452" lon="2.56671">
        <ele>1198.4</ele>
        <time>2018-11-28T02:04:56Z</time>
      </trkpt>
      <trkpt lat="42.35443" lon="2.56666">
        <ele>1198.4</ele>
        <time>2018-11-28T02:05:00Z</time>
      </trkpt>
      <trkpt lat="42.35433" lon="2.56655">
        <ele>1199</ele>
        <time>2018-11-28T02:05:05Z</time>
      </trkpt>
      <trkpt lat="42.35431" lon="2.56652">
        <ele>1198.9</ele>
        <time>2018-11-28T02:05:06Z</time>
      </trkpt>
      <trkpt lat="42.35428" lon="2.56647">
        <ele>1199.5</ele>
        <time>2018-11-28T02:05:08Z</time>
      </trkpt>
      <trkpt lat="42.35425" lon="2.56641">
        <ele>1199.5</ele>
        <time>2018-11-28T02:05:11Z</time>
      </trkpt>
      <trkpt lat="42.35417" lon="2.56629">
        <ele>1201.4</ele>
        <time>2018-11-28T02:05:15Z</time>
      </trkpt>
      <trkpt lat="42.35414" lon="2.56624">
        <ele>1201.8</ele>
        <time>2018-11-28T02:05:17Z</time>
      </trkpt>
      <trkpt lat="42.35411" lon="2.56613">
        <ele>1202.9</ele>
        <time>2018-11-28T02:05:21Z</time>
      </trkpt>
      <trkpt lat="42.35411" lon="2.56608">
        <ele>1203.3</ele>
        <time>2018-11-28T02:05:22Z</time>
      </trkpt>
      <trkpt lat="42.3541" lon="2.56606">
        <ele>1202.9</ele>
        <time>2018-11-28T02:05:23Z</time>
      </trkpt>
      <trkpt lat="42.35403" lon="2.56594">
        <ele>1202.3</ele>
        <time>2018-11-28T02:05:27Z</time>
      </trkpt>
      <trkpt lat="42.35402" lon="2.56593">
        <ele>1201.8</ele>
        <time>2018-11-28T02:05:28Z</time>
      </trkpt>
      <trkpt lat="42.35398" lon="2.56587">
        <ele>1199.9</ele>
        <time>2018-11-28T02:05:30Z</time>
      </trkpt>
      <trkpt lat="42.35393" lon="2.56573">
        <ele>1197.9</ele>
        <time>2018-11-28T02:05:35Z</time>
      </trkpt>
      <trkpt lat="42.35392" lon="2.56568">
        <ele>1197.9</ele>
        <time>2018-11-28T02:05:36Z</time>
      </trkpt>
      <trkpt lat="42.35387" lon="2.56554">
        <ele>1196.5</ele>
        <time>2018-11-28T02:05:41Z</time>
      </trkpt>
      <trkpt lat="42.35384" lon="2.56548">
        <ele>1196.5</ele>
        <time>2018-11-28T02:05:43Z</time>
      </trkpt>
      <trkpt lat="42.35383" lon="2.56544">
        <ele>1196.5</ele>
        <time>2018-11-28T02:05:44Z</time>
      </trkpt>
      <trkpt lat="42.35376" lon="2.5653">
        <ele>1195.2</ele>
        <time>2018-11-28T02:05:50Z</time>
      </trkpt>
      <trkpt lat="42.35373" lon="2.56522">
        <ele>1195.2</ele>
        <time>2018-11-28T02:05:52Z</time>
      </trkpt>
      <trkpt lat="42.35368" lon="2.56509">
        <ele>1194.1</ele>
        <time>2018-11-28T02:05:56Z</time>
      </trkpt>
      <trkpt lat="42.35365" lon="2.56502">
        <ele>1193.7</ele>
        <time>2018-11-28T02:05:59Z</time>
      </trkpt>
      <trkpt lat="42.35364" lon="2.56482">
        <ele>1191.8</ele>
        <time>2018-11-28T02:06:05Z</time>
      </trkpt>
      <trkpt lat="42.35365" lon="2.56467">
        <ele>1190.7</ele>
        <time>2018-11-28T02:06:09Z</time>
      </trkpt>
      <trkpt lat="42.35365" lon="2.5646">
        <ele>1190.3</ele>
        <time>2018-11-28T02:06:11Z</time>
      </trkpt>
      <trkpt lat="42.35366" lon="2.56438">
        <ele>1188.8</ele>
        <time>2018-11-28T02:06:18Z</time>
      </trkpt>
      <trkpt lat="42.35365" lon="2.56432">
        <ele>1188.4</ele>
        <time>2018-11-28T02:06:20Z</time>
      </trkpt>
      <trkpt lat="42.35366" lon="2.56412">
        <ele>1186.9</ele>
        <time>2018-11-28T02:06:26Z</time>
      </trkpt>
      <trkpt lat="42.35369" lon="2.56395">
        <ele>1185.5</ele>
        <time>2018-11-28T02:06:31Z</time>
      </trkpt>
      <trkpt lat="42.35364" lon="2.56381">
        <ele>1184.1</ele>
        <time>2018-11-28T02:06:36Z</time>
      </trkpt>
      <trkpt lat="42.35358" lon="2.56365">
        <ele>1183.6</ele>
        <time>2018-11-28T02:06:41Z</time>
      </trkpt>
      <trkpt lat="42.35354" lon="2.56346">
        <ele>1183.6</ele>
        <time>2018-11-28T02:06:46Z</time>
      </trkpt>
      <trkpt lat="42.35348" lon="2.5633">
        <ele>1183</ele>
        <time>2018-11-28T02:06:52Z</time>
      </trkpt>
      <trkpt lat="42.35342" lon="2.56311">
        <ele>1183</ele>
        <time>2018-11-28T02:06:58Z</time>
      </trkpt>
      <trkpt lat="42.35337" lon="2.56304">
        <ele>1182.7</ele>
        <time>2018-11-28T02:07:01Z</time>
      </trkpt>
      <trkpt lat="42.35324" lon="2.56286">
        <ele>1184</ele>
        <time>2018-11-28T02:07:08Z</time>
      </trkpt>
      <trkpt lat="42.3532" lon="2.56279">
        <ele>1184</ele>
        <time>2018-11-28T02:07:11Z</time>
      </trkpt>
      <trkpt lat="42.35321" lon="2.56268">
        <ele>1183</ele>
        <time>2018-11-28T02:07:14Z</time>
      </trkpt>
      <trkpt lat="42.35321" lon="2.56251">
        <ele>1182.7</ele>
        <time>2018-11-28T02:07:19Z</time>
      </trkpt>
      <trkpt lat="42.3532" lon="2.56237">
        <ele>1182.1</ele>
        <time>2018-11-28T02:07:23Z</time>
      </trkpt>
      <trkpt lat="42.3532" lon="2.56215">
        <ele>1182.2</ele>
        <time>2018-11-28T02:07:30Z</time>
      </trkpt>
      <trkpt lat="42.35319" lon="2.562">
        <ele>1180.7</ele>
        <time>2018-11-28T02:07:34Z</time>
      </trkpt>
      <trkpt lat="42.35319" lon="2.56199">
        <ele>1180.6</ele>
        <time>2018-11-28T02:07:35Z</time>
      </trkpt>
      <trkpt lat="42.35312" lon="2.56183">
        <ele>1179.3</ele>
        <time>2018-11-28T02:07:40Z</time>
      </trkpt>
      <trkpt lat="42.3531" lon="2.56177">
        <ele>1179.8</ele>
        <time>2018-11-28T02:07:42Z</time>
      </trkpt>
      <trkpt lat="42.35306" lon="2.56156">
        <ele>1177.9</ele>
        <time>2018-11-28T02:07:48Z</time>
      </trkpt>
      <trkpt lat="42.35305" lon="2.56149">
        <ele>1177.4</ele>
        <time>2018-11-28T02:07:50Z</time>
      </trkpt>
      <trkpt lat="42.35304" lon="2.56144">
        <ele>1176.8</ele>
        <time>2018-11-28T02:07:52Z</time>
      </trkpt>
      <trkpt lat="42.35302" lon="2.56139">
        <ele>1176.3</ele>
        <time>2018-11-28T02:07:54Z</time>
      </trkpt>
      <trkpt lat="42.35302" lon="2.56133">
        <ele>1175.8</ele>
        <time>2018-11-28T02:07:56Z</time>
      </trkpt>
      <trkpt lat="42.353" lon="2.56113">
        <ele>1175</ele>
        <time>2018-11-28T02:08:01Z</time>
      </trkpt>
      <trkpt lat="42.35296" lon="2.5609">
        <ele>1173.1</ele>
        <time>2018-11-28T02:08:08Z</time>
      </trkpt>
      <trkpt lat="42.35296" lon="2.56084">
        <ele>1173.1</ele>
        <time>2018-11-28T02:08:10Z</time>
      </trkpt>
      <trkpt lat="42.35298" lon="2.56059">
        <ele>1171.5</ele>
        <time>2018-11-28T02:08:18Z</time>
      </trkpt>
      <trkpt lat="42.35298" lon="2.56053">
        <ele>1171.6</ele>
        <time>2018-11-28T02:08:19Z</time>
      </trkpt>
      <trkpt lat="42.35299" lon="2.56047">
        <ele>1171.6</ele>
        <time>2018-11-28T02:08:21Z</time>
      </trkpt>
      <trkpt lat="42.35299" lon="2.56047">
        <ele>1171.1</ele>
        <time>2018-11-28T02:08:21Z</time>
      </trkpt>
      <trkpt lat="42.35298" lon="2.56035">
        <ele>1170.1</ele>
        <time>2018-11-28T02:08:25Z</time>
      </trkpt>
      <trkpt lat="42.353" lon="2.56015">
        <ele>1169.2</ele>
        <time>2018-11-28T02:08:31Z</time>
      </trkpt>
      <trkpt lat="42.353" lon="2.56013">
        <ele>1169.1</ele>
        <time>2018-11-28T02:08:31Z</time>
      </trkpt>
      <trkpt lat="42.35301" lon="2.55993">
        <ele>1169.1</ele>
        <time>2018-11-28T02:08:37Z</time>
      </trkpt>
      <trkpt lat="42.35302" lon="2.55975">
        <ele>1168.7</ele>
        <time>2018-11-28T02:08:42Z</time>
      </trkpt>
      <trkpt lat="42.35299" lon="2.5596">
        <ele>1167.8</ele>
        <time>2018-11-28T02:08:47Z</time>
      </trkpt>
      <trkpt lat="42.35297" lon="2.55939">
        <ele>1166.7</ele>
        <time>2018-11-28T02:08:53Z</time>
      </trkpt>
      <trkpt lat="42.35293" lon="2.55927">
        <ele>1165.7</ele>
        <time>2018-11-28T02:08:57Z</time>
      </trkpt>
      <trkpt lat="42.35291" lon="2.55906">
        <ele>1165.3</ele>
        <time>2018-11-28T02:09:04Z</time>
      </trkpt>
      <trkpt lat="42.35288" lon="2.55901">
        <ele>1165.4</ele>
        <time>2018-11-28T02:09:06Z</time>
      </trkpt>
      <trkpt lat="42.3528" lon="2.55883">
        <ele>1164.4</ele>
        <time>2018-11-28T02:09:12Z</time>
      </trkpt>
      <trkpt lat="42.35277" lon="2.55875">
        <ele>1163</ele>
        <time>2018-11-28T02:09:14Z</time>
      </trkpt>
      <trkpt lat="42.35268" lon="2.55861">
        <ele>1162.5</ele>
        <time>2018-11-28T02:09:20Z</time>
      </trkpt>
      <trkpt lat="42.35258" lon="2.55849">
        <ele>1160.6</ele>
        <time>2018-11-28T02:09:25Z</time>
      </trkpt>
      <trkpt lat="42.35246" lon="2.55839">
        <ele>1159</ele>
        <time>2018-11-28T02:09:31Z</time>
      </trkpt>
      <trkpt lat="42.35236" lon="2.55834">
        <ele>1158.1</ele>
        <time>2018-11-28T02:09:35Z</time>
      </trkpt>
      <trkpt lat="42.35228" lon="2.5582">
        <ele>1156.6</ele>
        <time>2018-11-28T02:09:40Z</time>
      </trkpt>
      <trkpt lat="42.35216" lon="2.55811">
        <ele>1155.3</ele>
        <time>2018-11-28T02:09:46Z</time>
      </trkpt>
      <trkpt lat="42.35214" lon="2.55811">
        <ele>1155.3</ele>
        <time>2018-11-28T02:09:47Z</time>
      </trkpt>
      <trkpt lat="42.35205" lon="2.55796">
        <ele>1153.7</ele>
        <time>2018-11-28T02:09:52Z</time>
      </trkpt>
      <trkpt lat="42.352" lon="2.55784">
        <ele>1153.3</ele>
        <time>2018-11-28T02:09:56Z</time>
      </trkpt>
      <trkpt lat="42.352" lon="2.55781">
        <ele>1153.2</ele>
        <time>2018-11-28T02:09:57Z</time>
      </trkpt>
      <trkpt lat="42.35196" lon="2.55766">
        <ele>1152.4</ele>
        <time>2018-11-28T02:10:02Z</time>
      </trkpt>
      <trkpt lat="42.35196" lon="2.5576">
        <ele>1151.8</ele>
        <time>2018-11-28T02:10:04Z</time>
      </trkpt>
      <trkpt lat="42.3519" lon="2.55741">
        <ele>1151.4</ele>
        <time>2018-11-28T02:10:10Z</time>
      </trkpt>
      <trkpt lat="42.35188" lon="2.55724">
        <ele>1150.9</ele>
        <time>2018-11-28T02:10:15Z</time>
      </trkpt>
      <trkpt lat="42.35189" lon="2.55716">
        <ele>1150.4</ele>
        <time>2018-11-28T02:10:17Z</time>
      </trkpt>
      <trkpt lat="42.35189" lon="2.55702">
        <ele>1150.4</ele>
        <time>2018-11-28T02:10:21Z</time>
      </trkpt>
      <trkpt lat="42.35188" lon="2.55692">
        <ele>1149.4</ele>
        <time>2018-11-28T02:10:24Z</time>
      </trkpt>
      <trkpt lat="42.35184" lon="2.55681">
        <ele>1149.4</ele>
        <time>2018-11-28T02:10:28Z</time>
      </trkpt>
      <trkpt lat="42.35185" lon="2.55675">
        <ele>1148.9</ele>
        <time>2018-11-28T02:10:30Z</time>
      </trkpt>
      <trkpt lat="42.35185" lon="2.55667">
        <ele>1149</ele>
        <time>2018-11-28T02:10:32Z</time>
      </trkpt>
      <trkpt lat="42.35185" lon="2.55664">
        <ele>1149</ele>
        <time>2018-11-28T02:10:33Z</time>
      </trkpt>
      <trkpt lat="42.35184" lon="2.55654">
        <ele>1148</ele>
        <time>2018-11-28T02:10:36Z</time>
      </trkpt>
      <trkpt lat="42.35179" lon="2.55639">
        <ele>1148</ele>
        <time>2018-11-28T02:10:41Z</time>
      </trkpt>
      <trkpt lat="42.35165" lon="2.55635">
        <ele>1147</ele>
        <time>2018-11-28T02:10:46Z</time>
      </trkpt>
      <trkpt lat="42.35161" lon="2.55632">
        <ele>1146.5</ele>
        <time>2018-11-28T02:10:48Z</time>
      </trkpt>
      <trkpt lat="42.35156" lon="2.55623">
        <ele>1146</ele>
        <time>2018-11-28T02:10:51Z</time>
      </trkpt>
      <trkpt lat="42.35152" lon="2.55617">
        <ele>1145.6</ele>
        <time>2018-11-28T02:10:54Z</time>
      </trkpt>
      <trkpt lat="42.35147" lon="2.55599">
        <ele>1144.6</ele>
        <time>2018-11-28T02:11:00Z</time>
      </trkpt>
      <trkpt lat="42.35147" lon="2.55595">
        <ele>1144.6</ele>
        <time>2018-11-28T02:11:01Z</time>
      </trkpt>
      <trkpt lat="42.35145" lon="2.55584">
        <ele>1144.2</ele>
        <time>2018-11-28T02:11:04Z</time>
      </trkpt>
      <trkpt lat="42.35146" lon="2.55577">
        <ele>1143.6</ele>
        <time>2018-11-28T02:11:06Z</time>
      </trkpt>
      <trkpt lat="42.35143" lon="2.55574">
        <ele>1143.7</ele>
        <time>2018-11-28T02:11:08Z</time>
      </trkpt>
      <trkpt lat="42.35143" lon="2.55572">
        <ele>1143.1</ele>
        <time>2018-11-28T02:11:08Z</time>
      </trkpt>
      <trkpt lat="42.35136" lon="2.5555">
        <ele>1141.7</ele>
        <time>2018-11-28T02:11:15Z</time>
      </trkpt>
      <trkpt lat="42.35134" lon="2.55543">
        <ele>1141.3</ele>
        <time>2018-11-28T02:11:17Z</time>
      </trkpt>
      <trkpt lat="42.35127" lon="2.55519">
        <ele>1140.4</ele>
        <time>2018-11-28T02:11:25Z</time>
      </trkpt>
      <trkpt lat="42.35125" lon="2.55511">
        <ele>1140.4</ele>
        <time>2018-11-28T02:11:28Z</time>
      </trkpt>
      <trkpt lat="42.35122" lon="2.55506">
        <ele>1140.4</ele>
        <time>2018-11-28T02:11:30Z</time>
      </trkpt>
      <trkpt lat="42.35122" lon="2.55503">
        <ele>1139.3</ele>
        <time>2018-11-28T02:11:30Z</time>
      </trkpt>
      <trkpt lat="42.35121" lon="2.55502">
        <ele>1139.3</ele>
        <time>2018-11-28T02:11:31Z</time>
      </trkpt>
      <trkpt lat="42.35121" lon="2.55502">
        <ele>1139.4</ele>
        <time>2018-11-28T02:11:31Z</time>
      </trkpt>
      <trkpt lat="42.35121" lon="2.55502">
        <ele>1138.9</ele>
        <time>2018-11-28T02:11:31Z</time>
      </trkpt>
      <trkpt lat="42.3512" lon="2.55503">
        <ele>1139.4</ele>
        <time>2018-11-28T02:11:31Z</time>
      </trkpt>
      <trkpt lat="42.35121" lon="2.55504">
        <ele>1139.3</ele>
        <time>2018-11-28T02:11:31Z</time>
      </trkpt>
      <trkpt lat="42.35121" lon="2.55502">
        <ele>1139.4</ele>
        <time>2018-11-28T02:11:32Z</time>
      </trkpt>
      <trkpt lat="42.3512" lon="2.55502">
        <ele>1138.8</ele>
        <time>2018-11-28T02:11:32Z</time>
      </trkpt>
      <trkpt lat="42.3512" lon="2.55502">
        <ele>1138.8</ele>
        <time>2018-11-28T02:11:32Z</time>
      </trkpt>
      <trkpt lat="42.35117" lon="2.55499">
        <ele>1139.4</ele>
        <time>2018-11-28T02:11:34Z</time>
      </trkpt>
      <trkpt lat="42.35117" lon="2.55499">
        <ele>1139.8</ele>
        <time>2018-11-28T02:11:34Z</time>
      </trkpt>
      <trkpt lat="42.35117" lon="2.55499">
        <ele>1140.3</ele>
        <time>2018-11-28T02:11:34Z</time>
      </trkpt>
      <trkpt lat="42.35117" lon="2.55499">
        <ele>1142.2</ele>
        <time>2018-11-28T02:11:34Z</time>
      </trkpt>
      <trkpt lat="42.35117" lon="2.55499">
        <ele>1136.4</ele>
        <time>2018-11-28T02:11:34Z</time>
      </trkpt>
      <trkpt lat="42.35117" lon="2.55499">
        <ele>1139.9</ele>
        <time>2018-11-28T02:11:34Z</time>
      </trkpt>
      <trkpt lat="42.35116" lon="2.55494">
        <ele>1139.3</ele>
        <time>2018-11-28T02:11:36Z</time>
      </trkpt>
      <trkpt lat="42.35114" lon="2.55477">
        <ele>1137.9</ele>
        <time>2018-11-28T02:11:41Z</time>
      </trkpt>
      <trkpt lat="42.35108" lon="2.55457">
        <ele>1137</ele>
        <time>2018-11-28T02:11:47Z</time>
      </trkpt>
      <trkpt lat="42.35103" lon="2.55442">
        <ele>1136.5</ele>
        <time>2018-11-28T02:11:52Z</time>
      </trkpt>
      <trkpt lat="42.35101" lon="2.55436">
        <ele>1135.6</ele>
        <time>2018-11-28T02:11:54Z</time>
      </trkpt>
      <trkpt lat="42.35088" lon="2.55431">
        <ele>1136.5</ele>
        <time>2018-11-28T02:11:59Z</time>
      </trkpt>
      <trkpt lat="42.35073" lon="2.55435">
        <ele>1138</ele>
        <time>2018-11-28T02:12:05Z</time>
      </trkpt>
      <trkpt lat="42.35062" lon="2.55441">
        <ele>1137</ele>
        <time>2018-11-28T02:12:10Z</time>
      </trkpt>
      <trkpt lat="42.3506" lon="2.55443">
        <ele>1136.9</ele>
        <time>2018-11-28T02:12:11Z</time>
      </trkpt>
      <trkpt lat="42.35055" lon="2.55449">
        <ele>1135.9</ele>
        <time>2018-11-28T02:12:14Z</time>
      </trkpt>
      <trkpt lat="42.3504" lon="2.55459">
        <ele>1134.5</ele>
        <time>2018-11-28T02:12:20Z</time>
      </trkpt>
      <trkpt lat="42.35023" lon="2.55467">
        <ele>1134.6</ele>
        <time>2018-11-28T02:12:28Z</time>
      </trkpt>
      <trkpt lat="42.35009" lon="2.55471">
        <ele>1135.1</ele>
        <time>2018-11-28T02:12:34Z</time>
      </trkpt>
      <trkpt lat="42.34992" lon="2.55475">
        <ele>1135</ele>
        <time>2018-11-28T02:12:40Z</time>
      </trkpt>
      <trkpt lat="42.34978" lon="2.55484">
        <ele>1136.4</ele>
        <time>2018-11-28T02:12:47Z</time>
      </trkpt>
      <trkpt lat="42.3496" lon="2.55496">
        <ele>1137.9</ele>
        <time>2018-11-28T02:12:54Z</time>
      </trkpt>
      <trkpt lat="42.34958" lon="2.55496">
        <ele>1137.9</ele>
        <time>2018-11-28T02:12:55Z</time>
      </trkpt>
      <trkpt lat="42.34949" lon="2.55498">
        <ele>1138.4</ele>
        <time>2018-11-28T02:12:59Z</time>
      </trkpt>
      <trkpt lat="42.34933" lon="2.55498">
        <ele>1137.5</ele>
        <time>2018-11-28T02:13:06Z</time>
      </trkpt>
      <trkpt lat="42.34915" lon="2.55491">
        <ele>1138.4</ele>
        <time>2018-11-28T02:13:13Z</time>
      </trkpt>
      <trkpt lat="42.34896" lon="2.55495">
        <ele>1138.4</ele>
        <time>2018-11-28T02:13:21Z</time>
      </trkpt>
      <trkpt lat="42.34891" lon="2.55495">
        <ele>1138.3</ele>
        <time>2018-11-28T02:13:23Z</time>
      </trkpt>
      <trkpt lat="42.34885" lon="2.55495">
        <ele>1138.3</ele>
        <time>2018-11-28T02:13:25Z</time>
      </trkpt>
      <trkpt lat="42.34882" lon="2.55495">
        <ele>1138.4</ele>
        <time>2018-11-28T02:13:26Z</time>
      </trkpt>
      <trkpt lat="42.34864" lon="2.55493">
        <ele>1138.9</ele>
        <time>2018-11-28T02:13:33Z</time>
      </trkpt>
      <trkpt lat="42.34861" lon="2.55493">
        <ele>1138.3</ele>
        <time>2018-11-28T02:13:35Z</time>
      </trkpt>
      <trkpt lat="42.34849" lon="2.55497">
        <ele>1138.3</ele>
        <time>2018-11-28T02:13:40Z</time>
      </trkpt>
      <trkpt lat="42.34838" lon="2.55504">
        <ele>1138.8</ele>
        <time>2018-11-28T02:13:45Z</time>
      </trkpt>
      <trkpt lat="42.34828" lon="2.55509">
        <ele>1137.9</ele>
        <time>2018-11-28T02:13:49Z</time>
      </trkpt>
      <trkpt lat="42.34826" lon="2.55509">
        <ele>1138</ele>
        <time>2018-11-28T02:13:50Z</time>
      </trkpt>
      <trkpt lat="42.34821" lon="2.55513">
        <ele>1136.5</ele>
        <time>2018-11-28T02:13:52Z</time>
      </trkpt>
      <trkpt lat="42.34817" lon="2.55517">
        <ele>1136</ele>
        <time>2018-11-28T02:13:54Z</time>
      </trkpt>
      <trkpt lat="42.34808" lon="2.55525">
        <ele>1134</ele>
        <time>2018-11-28T02:13:58Z</time>
      </trkpt>
      <trkpt lat="42.34795" lon="2.55511">
        <ele>1132.6</ele>
        <time>2018-11-28T02:14:05Z</time>
      </trkpt>
      <trkpt lat="42.34794" lon="2.55505">
        <ele>1132.6</ele>
        <time>2018-11-28T02:14:06Z</time>
      </trkpt>
      <trkpt lat="42.34793" lon="2.55503">
        <ele>1132.7</ele>
        <time>2018-11-28T02:14:07Z</time>
      </trkpt>
      <trkpt lat="42.34789" lon="2.55484">
        <ele>1131.7</ele>
        <time>2018-11-28T02:14:13Z</time>
      </trkpt>
      <trkpt lat="42.34785" lon="2.55467">
        <ele>1130.7</ele>
        <time>2018-11-28T02:14:18Z</time>
      </trkpt>
      <trkpt lat="42.34776" lon="2.55466">
        <ele>1128.7</ele>
        <time>2018-11-28T02:14:22Z</time>
      </trkpt>
      <trkpt lat="42.34767" lon="2.55471">
        <ele>1126.8</ele>
        <time>2018-11-28T02:14:25Z</time>
      </trkpt>
      <trkpt lat="42.34759" lon="2.55471">
        <ele>1125.4</ele>
        <time>2018-11-28T02:14:29Z</time>
      </trkpt>
      <trkpt lat="42.34748" lon="2.5546">
        <ele>1124.4</ele>
        <time>2018-11-28T02:14:34Z</time>
      </trkpt>
      <trkpt lat="42.34743" lon="2.55449">
        <ele>1122.5</ele>
        <time>2018-11-28T02:14:38Z</time>
      </trkpt>
      <trkpt lat="42.34735" lon="2.55436">
        <ele>1121.1</ele>
        <time>2018-11-28T02:14:43Z</time>
      </trkpt>
      <trkpt lat="42.34732" lon="2.55433">
        <ele>1120.2</ele>
        <time>2018-11-28T02:14:45Z</time>
      </trkpt>
      <trkpt lat="42.34721" lon="2.55427">
        <ele>1118.2</ele>
        <time>2018-11-28T02:14:49Z</time>
      </trkpt>
      <trkpt lat="42.34713" lon="2.55416">
        <ele>1116.7</ele>
        <time>2018-11-28T02:14:54Z</time>
      </trkpt>
      <trkpt lat="42.347" lon="2.5541">
        <ele>1114.4</ele>
        <time>2018-11-28T02:14:59Z</time>
      </trkpt>
      <trkpt lat="42.34688" lon="2.55402">
        <ele>1112.5</ele>
        <time>2018-11-28T02:15:05Z</time>
      </trkpt>
      <trkpt lat="42.34669" lon="2.55402">
        <ele>1110</ele>
        <time>2018-11-28T02:15:12Z</time>
      </trkpt>
      <trkpt lat="42.3465" lon="2.55402">
        <ele>1108.1</ele>
        <time>2018-11-28T02:15:20Z</time>
      </trkpt>
      <trkpt lat="42.34644" lon="2.55403">
        <ele>1107.1</ele>
        <time>2018-11-28T02:15:22Z</time>
      </trkpt>
      <trkpt lat="42.34631" lon="2.55406">
        <ele>1105.2</ele>
        <time>2018-11-28T02:15:28Z</time>
      </trkpt>
      <trkpt lat="42.34636" lon="2.55411">
        <ele>1103.3</ele>
        <time>2018-11-28T02:15:30Z</time>
      </trkpt>
      <trkpt lat="42.34649" lon="2.55414">
        <ele>1102.9</ele>
        <time>2018-11-28T02:15:36Z</time>
      </trkpt>
      <trkpt lat="42.34663" lon="2.55416">
        <ele>1102.9</ele>
        <time>2018-11-28T02:15:41Z</time>
      </trkpt>
      <trkpt lat="42.34678" lon="2.5542">
        <ele>1102.3</ele>
        <time>2018-11-28T02:15:47Z</time>
      </trkpt>
      <trkpt lat="42.3469" lon="2.55433">
        <ele>1100.4</ele>
        <time>2018-11-28T02:15:53Z</time>
      </trkpt>
      <trkpt lat="42.34692" lon="2.55435">
        <ele>1099.9</ele>
        <time>2018-11-28T02:15:54Z</time>
      </trkpt>
      <trkpt lat="42.347" lon="2.55445">
        <ele>1099.4</ele>
        <time>2018-11-28T02:15:59Z</time>
      </trkpt>
      <trkpt lat="42.34698" lon="2.55448">
        <ele>1097</ele>
        <time>2018-11-28T02:16:00Z</time>
      </trkpt>
      <trkpt lat="42.3469" lon="2.55442">
        <ele>1096.1</ele>
        <time>2018-11-28T02:16:04Z</time>
      </trkpt>
      <trkpt lat="42.34687" lon="2.55441">
        <ele>1096</ele>
        <time>2018-11-28T02:16:05Z</time>
      </trkpt>
      <trkpt lat="42.34681" lon="2.55441">
        <ele>1095.2</ele>
        <time>2018-11-28T02:16:08Z</time>
      </trkpt>
      <trkpt lat="42.34673" lon="2.55442">
        <ele>1093.6</ele>
        <time>2018-11-28T02:16:11Z</time>
      </trkpt>
      <trkpt lat="42.34667" lon="2.5544">
        <ele>1092.8</ele>
        <time>2018-11-28T02:16:13Z</time>
      </trkpt>
      <trkpt lat="42.34661" lon="2.55437">
        <ele>1091.7</ele>
        <time>2018-11-28T02:16:16Z</time>
      </trkpt>
      <trkpt lat="42.34647" lon="2.55438">
        <ele>1089.3</ele>
        <time>2018-11-28T02:16:21Z</time>
      </trkpt>
      <trkpt lat="42.34634" lon="2.55441">
        <ele>1088</ele>
        <time>2018-11-28T02:16:27Z</time>
      </trkpt>
      <trkpt lat="42.34623" lon="2.55444">
        <ele>1086</ele>
        <time>2018-11-28T02:16:31Z</time>
      </trkpt>
      <trkpt lat="42.3461" lon="2.55448">
        <ele>1084</ele>
        <time>2018-11-28T02:16:36Z</time>
      </trkpt>
      <trkpt lat="42.34597" lon="2.5545">
        <ele>1082.7</ele>
        <time>2018-11-28T02:16:41Z</time>
      </trkpt>
      <trkpt lat="42.34586" lon="2.55441">
        <ele>1082.7</ele>
        <time>2018-11-28T02:16:47Z</time>
      </trkpt>
      <trkpt lat="42.34584" lon="2.55434">
        <ele>1082.2</ele>
        <time>2018-11-28T02:16:49Z</time>
      </trkpt>
      <trkpt lat="42.34582" lon="2.55428">
        <ele>1081.1</ele>
        <time>2018-11-28T02:16:51Z</time>
      </trkpt>
      <trkpt lat="42.34582" lon="2.55425">
        <ele>1080.8</ele>
        <time>2018-11-28T02:16:52Z</time>
      </trkpt>
      <trkpt lat="42.3458" lon="2.55414">
        <ele>1080.2</ele>
        <time>2018-11-28T02:16:55Z</time>
      </trkpt>
      <trkpt lat="42.3458" lon="2.55398">
        <ele>1080.2</ele>
        <time>2018-11-28T02:17:00Z</time>
      </trkpt>
      <trkpt lat="42.34575" lon="2.55387">
        <ele>1078.3</ele>
        <time>2018-11-28T02:17:04Z</time>
      </trkpt>
      <trkpt lat="42.34573" lon="2.55385">
        <ele>1078.7</ele>
        <time>2018-11-28T02:17:05Z</time>
      </trkpt>
      <trkpt lat="42.34573" lon="2.55385">
        <ele>1078.8</ele>
        <time>2018-11-28T02:17:05Z</time>
      </trkpt>
      <trkpt lat="42.34573" lon="2.55385">
        <ele>1078.3</ele>
        <time>2018-11-28T02:17:05Z</time>
      </trkpt>
      <trkpt lat="42.34573" lon="2.55384">
        <ele>1077.8</ele>
        <time>2018-11-28T02:17:05Z</time>
      </trkpt>
      <trkpt lat="42.34573" lon="2.55384">
        <ele>1078.3</ele>
        <time>2018-11-28T02:17:05Z</time>
      </trkpt>
      <trkpt lat="42.34573" lon="2.55384">
        <ele>1078.3</ele>
        <time>2018-11-28T02:17:05Z</time>
      </trkpt>
      <trkpt lat="42.34573" lon="2.55384">
        <ele>1078.4</ele>
        <time>2018-11-28T02:17:05Z</time>
      </trkpt>
      <trkpt lat="42.34573" lon="2.55384">
        <ele>1077.8</ele>
        <time>2018-11-28T02:17:05Z</time>
      </trkpt>
      <trkpt lat="42.34572" lon="2.55385">
        <ele>1078.3</ele>
        <time>2018-11-28T02:17:06Z</time>
      </trkpt>
      <trkpt lat="42.34572" lon="2.55384">
        <ele>1077.8</ele>
        <time>2018-11-28T02:17:06Z</time>
      </trkpt>
      <trkpt lat="42.34572" lon="2.55384">
        <ele>1077.3</ele>
        <time>2018-11-28T02:17:06Z</time>
      </trkpt>
      <trkpt lat="42.34572" lon="2.55384">
        <ele>1077.3</ele>
        <time>2018-11-28T02:17:06Z</time>
      </trkpt>
      <trkpt lat="42.34572" lon="2.55384">
        <ele>1077.8</ele>
        <time>2018-11-28T02:17:06Z</time>
      </trkpt>
      <trkpt lat="42.34572" lon="2.55384">
        <ele>1077.9</ele>
        <time>2018-11-28T02:17:06Z</time>
      </trkpt>
      <trkpt lat="42.34571" lon="2.55384">
        <ele>1077.3</ele>
        <time>2018-11-28T02:17:06Z</time>
      </trkpt>
      <trkpt lat="42.3457" lon="2.55383">
        <ele>1077.3</ele>
        <time>2018-11-28T02:17:07Z</time>
      </trkpt>
      <trkpt lat="42.34561" lon="2.55375">
        <ele>1077.9</ele>
        <time>2018-11-28T02:17:11Z</time>
      </trkpt>
      <trkpt lat="42.34558" lon="2.55375">
        <ele>1077.8</ele>
        <time>2018-11-28T02:17:12Z</time>
      </trkpt>
      <trkpt lat="42.34536" lon="2.55385">
        <ele>1079.3</ele>
        <time>2018-11-28T02:17:22Z</time>
      </trkpt>
      <trkpt lat="42.34529" lon="2.55381">
        <ele>1078.7</ele>
        <time>2018-11-28T02:17:25Z</time>
      </trkpt>
      <trkpt lat="42.34512" lon="2.55373">
        <ele>1080.3</ele>
        <time>2018-11-28T02:17:32Z</time>
      </trkpt>
      <trkpt lat="42.34505" lon="2.55372">
        <ele>1080.7</ele>
        <time>2018-11-28T02:17:35Z</time>
      </trkpt>
      <trkpt lat="42.34484" lon="2.55368">
        <ele>1081.1</ele>
        <time>2018-11-28T02:17:43Z</time>
      </trkpt>
      <trkpt lat="42.34475" lon="2.55365">
        <ele>1081.7</ele>
        <time>2018-11-28T02:17:47Z</time>
      </trkpt>
      <trkpt lat="42.3446" lon="2.55367">
        <ele>1083.2</ele>
        <time>2018-11-28T02:17:53Z</time>
      </trkpt>
      <trkpt lat="42.34447" lon="2.55376">
        <ele>1084.5</ele>
        <time>2018-11-28T02:17:59Z</time>
      </trkpt>
      <trkpt lat="42.34442" lon="2.5538">
        <ele>1085</ele>
        <time>2018-11-28T02:18:01Z</time>
      </trkpt>
      <trkpt lat="42.34427" lon="2.55395">
        <ele>1086.9</ele>
        <time>2018-11-28T02:18:08Z</time>
      </trkpt>
      <trkpt lat="42.34411" lon="2.55412">
        <ele>1089.3</ele>
        <time>2018-11-28T02:18:17Z</time>
      </trkpt>
      <trkpt lat="42.34395" lon="2.55427">
        <ele>1089.3</ele>
        <time>2018-11-28T02:18:25Z</time>
      </trkpt>
      <trkpt lat="42.34379" lon="2.55435">
        <ele>1089.4</ele>
        <time>2018-11-28T02:18:31Z</time>
      </trkpt>
      <trkpt lat="42.34373" lon="2.55439">
        <ele>1089.4</ele>
        <time>2018-11-28T02:18:34Z</time>
      </trkpt>
      <trkpt lat="42.34357" lon="2.55454">
        <ele>1090.4</ele>
        <time>2018-11-28T02:18:42Z</time>
      </trkpt>
      <trkpt lat="42.3434" lon="2.55467">
        <ele>1089.8</ele>
        <time>2018-11-28T02:18:50Z</time>
      </trkpt>
      <trkpt lat="42.34316" lon="2.5548">
        <ele>1088.9</ele>
        <time>2018-11-28T02:19:00Z</time>
      </trkpt>
      <trkpt lat="42.34314" lon="2.55482">
        <ele>1088.4</ele>
        <time>2018-11-28T02:19:01Z</time>
      </trkpt>
      <trkpt lat="42.34313" lon="2.55484">
        <ele>1088.9</ele>
        <time>2018-11-28T02:19:02Z</time>
      </trkpt>
      <trkpt lat="42.34294" lon="2.55488">
        <ele>1088.5</ele>
        <time>2018-11-28T02:19:09Z</time>
      </trkpt>
      <trkpt lat="42.34288" lon="2.55467">
        <ele>1087.9</ele>
        <time>2018-11-28T02:19:16Z</time>
      </trkpt>
      <trkpt lat="42.34276" lon="2.55464">
        <ele>1087.4</ele>
        <time>2018-11-28T02:19:21Z</time>
      </trkpt>
      <trkpt lat="42.34272" lon="2.55447">
        <ele>1087.4</ele>
        <time>2018-11-28T02:19:26Z</time>
      </trkpt>
      <trkpt lat="42.3427" lon="2.5543">
        <ele>1087.9</ele>
        <time>2018-11-28T02:19:31Z</time>
      </trkpt>
      <trkpt lat="42.34265" lon="2.55405">
        <ele>1088.9</ele>
        <time>2018-11-28T02:19:39Z</time>
      </trkpt>
      <trkpt lat="42.34264" lon="2.55402">
        <ele>1088.4</ele>
        <time>2018-11-28T02:19:40Z</time>
      </trkpt>
      <trkpt lat="42.3426" lon="2.55383">
        <ele>1089.4</ele>
        <time>2018-11-28T02:19:46Z</time>
      </trkpt>
      <trkpt lat="42.34251" lon="2.55369">
        <ele>1090.4</ele>
        <time>2018-11-28T02:19:51Z</time>
      </trkpt>
      <trkpt lat="42.3425" lon="2.55366">
        <ele>1090.4</ele>
        <time>2018-11-28T02:19:52Z</time>
      </trkpt>
      <trkpt lat="42.34238" lon="2.55358">
        <ele>1091.3</ele>
        <time>2018-11-28T02:19:57Z</time>
      </trkpt>
      <trkpt lat="42.34223" lon="2.5535">
        <ele>1091.2</ele>
        <time>2018-11-28T02:20:04Z</time>
      </trkpt>
      <trkpt lat="42.34212" lon="2.55348">
        <ele>1091.8</ele>
        <time>2018-11-28T02:20:08Z</time>
      </trkpt>
      <trkpt lat="42.34193" lon="2.55346">
        <ele>1091.7</ele>
        <time>2018-11-28T02:20:16Z</time>
      </trkpt>
      <trkpt lat="42.34183" lon="2.55346">
        <ele>1091.7</ele>
        <time>2018-11-28T02:20:20Z</time>
      </trkpt>
      <trkpt lat="42.3418" lon="2.55346">
        <ele>1092.2</ele>
        <time>2018-11-28T02:20:21Z</time>
      </trkpt>
      <trkpt lat="42.34176" lon="2.55346">
        <ele>1091.8</ele>
        <time>2018-11-28T02:20:23Z</time>
      </trkpt>
      <trkpt lat="42.34158" lon="2.55348">
        <ele>1090.8</ele>
        <time>2018-11-28T02:20:30Z</time>
      </trkpt>
      <trkpt lat="42.34148" lon="2.55345">
        <ele>1091.3</ele>
        <time>2018-11-28T02:20:34Z</time>
      </trkpt>
      <trkpt lat="42.34134" lon="2.55333">
        <ele>1092.3</ele>
        <time>2018-11-28T02:20:41Z</time>
      </trkpt>
      <trkpt lat="42.34131" lon="2.55329">
        <ele>1093.2</ele>
        <time>2018-11-28T02:20:42Z</time>
      </trkpt>
      <trkpt lat="42.34127" lon="2.55324">
        <ele>1092.7</ele>
        <time>2018-11-28T02:20:45Z</time>
      </trkpt>
      <trkpt lat="42.34122" lon="2.55322">
        <ele>1092.2</ele>
        <time>2018-11-28T02:20:47Z</time>
      </trkpt>
      <trkpt lat="42.34117" lon="2.55322">
        <ele>1092.8</ele>
        <time>2018-11-28T02:20:49Z</time>
      </trkpt>
      <trkpt lat="42.34113" lon="2.55323">
        <ele>1093.2</ele>
        <time>2018-11-28T02:20:51Z</time>
      </trkpt>
      <trkpt lat="42.34094" lon="2.55324">
        <ele>1093.2</ele>
        <time>2018-11-28T02:20:58Z</time>
      </trkpt>
      <trkpt lat="42.34091" lon="2.55323">
        <ele>1093.2</ele>
        <time>2018-11-28T02:20:59Z</time>
      </trkpt>
      <trkpt lat="42.34076" lon="2.55326">
        <ele>1093.6</ele>
        <time>2018-11-28T02:21:05Z</time>
      </trkpt>
      <trkpt lat="42.34074" lon="2.55327">
        <ele>1093.6</ele>
        <time>2018-11-28T02:21:06Z</time>
      </trkpt>
      <trkpt lat="42.3406" lon="2.55335">
        <ele>1093.7</ele>
        <time>2018-11-28T02:21:12Z</time>
      </trkpt>
      <trkpt lat="42.34049" lon="2.55338">
        <ele>1094.2</ele>
        <time>2018-11-28T02:21:17Z</time>
      </trkpt>
      <trkpt lat="42.34037" lon="2.55334">
        <ele>1094.2</ele>
        <time>2018-11-28T02:21:22Z</time>
      </trkpt>
      <trkpt lat="42.34033" lon="2.55332">
        <ele>1094.7</ele>
        <time>2018-11-28T02:21:23Z</time>
      </trkpt>
      <trkpt lat="42.34032" lon="2.55332">
        <ele>1094.7</ele>
        <time>2018-11-28T02:21:24Z</time>
      </trkpt>
      <trkpt lat="42.34018" lon="2.55328">
        <ele>1095.7</ele>
        <time>2018-11-28T02:21:29Z</time>
      </trkpt>
      <trkpt lat="42.34008" lon="2.55325">
        <ele>1095.7</ele>
        <time>2018-11-28T02:21:33Z</time>
      </trkpt>
      <trkpt lat="42.34007" lon="2.55324">
        <ele>1096</ele>
        <time>2018-11-28T02:21:34Z</time>
      </trkpt>
      <trkpt lat="42.33994" lon="2.55316">
        <ele>1098.4</ele>
        <time>2018-11-28T02:21:40Z</time>
      </trkpt>
      <trkpt lat="42.33987" lon="2.55311">
        <ele>1100.9</ele>
        <time>2018-11-28T02:21:43Z</time>
      </trkpt>
      <trkpt lat="42.33982" lon="2.55305">
        <ele>1102.3</ele>
        <time>2018-11-28T02:21:46Z</time>
      </trkpt>
      <trkpt lat="42.33978" lon="2.55299">
        <ele>1102.8</ele>
        <time>2018-11-28T02:21:48Z</time>
      </trkpt>
      <trkpt lat="42.33974" lon="2.55295">
        <ele>1103.8</ele>
        <time>2018-11-28T02:21:50Z</time>
      </trkpt>
      <trkpt lat="42.33967" lon="2.55286">
        <ele>1105.2</ele>
        <time>2018-11-28T02:21:54Z</time>
      </trkpt>
      <trkpt lat="42.33967" lon="2.55286">
        <ele>1105.2</ele>
        <time>2018-11-28T02:21:54Z</time>
      </trkpt>
      <trkpt lat="42.3396" lon="2.5528">
        <ele>1106.7</ele>
        <time>2018-11-28T02:21:57Z</time>
      </trkpt>
      <trkpt lat="42.3396" lon="2.5528">
        <ele>1105.7</ele>
        <time>2018-11-28T02:21:57Z</time>
      </trkpt>
      <trkpt lat="42.3396" lon="2.5528">
        <ele>1105.7</ele>
        <time>2018-11-28T02:21:57Z</time>
      </trkpt>
      <trkpt lat="42.33961" lon="2.55281">
        <ele>1106.7</ele>
        <time>2018-11-28T02:21:57Z</time>
      </trkpt>
      <trkpt lat="42.33961" lon="2.5528">
        <ele>1106.6</ele>
        <time>2018-11-28T02:21:58Z</time>
      </trkpt>
      <trkpt lat="42.33961" lon="2.5528">
        <ele>1106.6</ele>
        <time>2018-11-28T02:21:58Z</time>
      </trkpt>
      <trkpt lat="42.33961" lon="2.5528">
        <ele>1106.6</ele>
        <time>2018-11-28T02:21:58Z</time>
      </trkpt>
      <trkpt lat="42.33961" lon="2.55279">
        <ele>1106.6</ele>
        <time>2018-11-28T02:21:58Z</time>
      </trkpt>
      <trkpt lat="42.33967" lon="2.55266">
        <ele>1106.6</ele>
        <time>2018-11-28T02:22:02Z</time>
      </trkpt>
      <trkpt lat="42.33974" lon="2.5525">
        <ele>1107.1</ele>
        <time>2018-11-28T02:22:08Z</time>
      </trkpt>
      <trkpt lat="42.33976" lon="2.55243">
        <ele>1107.6</ele>
        <time>2018-11-28T02:22:10Z</time>
      </trkpt>
      <trkpt lat="42.3398" lon="2.55232">
        <ele>1107.6</ele>
        <time>2018-11-28T02:22:14Z</time>
      </trkpt>
      <trkpt lat="42.33986" lon="2.55212">
        <ele>1108.6</ele>
        <time>2018-11-28T02:22:20Z</time>
      </trkpt>
      <trkpt lat="42.33988" lon="2.55201">
        <ele>1108.5</ele>
        <time>2018-11-28T02:22:24Z</time>
      </trkpt>
      <trkpt lat="42.33988" lon="2.55198">
        <ele>1108.5</ele>
        <time>2018-11-28T02:22:24Z</time>
      </trkpt>
      <trkpt lat="42.33989" lon="2.55175">
        <ele>1108.6</ele>
        <time>2018-11-28T02:22:31Z</time>
      </trkpt>
      <trkpt lat="42.33989" lon="2.55173">
        <ele>1109</ele>
        <time>2018-11-28T02:22:32Z</time>
      </trkpt>
      <trkpt lat="42.33993" lon="2.55158">
        <ele>1109.5</ele>
        <time>2018-11-28T02:22:37Z</time>
      </trkpt>
      <trkpt lat="42.33994" lon="2.55155">
        <ele>1109</ele>
        <time>2018-11-28T02:22:37Z</time>
      </trkpt>
      <trkpt lat="42.33998" lon="2.55148">
        <ele>1108.5</ele>
        <time>2018-11-28T02:22:40Z</time>
      </trkpt>
      <trkpt lat="42.34" lon="2.55141">
        <ele>1109.1</ele>
        <time>2018-11-28T02:22:42Z</time>
      </trkpt>
      <trkpt lat="42.34008" lon="2.55127">
        <ele>1109.1</ele>
        <time>2018-11-28T02:22:47Z</time>
      </trkpt>
      <trkpt lat="42.34009" lon="2.55126">
        <ele>1109.1</ele>
        <time>2018-11-28T02:22:48Z</time>
      </trkpt>
      <trkpt lat="42.34015" lon="2.55108">
        <ele>1110.1</ele>
        <time>2018-11-28T02:22:54Z</time>
      </trkpt>
      <trkpt lat="42.34016" lon="2.55081">
        <ele>1109.6</ele>
        <time>2018-11-28T02:23:02Z</time>
      </trkpt>
      <trkpt lat="42.34015" lon="2.55057">
        <ele>1110.6</ele>
        <time>2018-11-28T02:23:09Z</time>
      </trkpt>
      <trkpt lat="42.34015" lon="2.55034">
        <ele>1110.6</ele>
        <time>2018-11-28T02:23:16Z</time>
      </trkpt>
      <trkpt lat="42.34015" lon="2.5503">
        <ele>1110.5</ele>
        <time>2018-11-28T02:23:17Z</time>
      </trkpt>
      <trkpt lat="42.34015" lon="2.55026">
        <ele>1111</ele>
        <time>2018-11-28T02:23:18Z</time>
      </trkpt>
      <trkpt lat="42.34017" lon="2.55004">
        <ele>1110.9</ele>
        <time>2018-11-28T02:23:25Z</time>
      </trkpt>
      <trkpt lat="42.34016" lon="2.54998">
        <ele>1110.9</ele>
        <time>2018-11-28T02:23:26Z</time>
      </trkpt>
      <trkpt lat="42.34015" lon="2.54993">
        <ele>1111</ele>
        <time>2018-11-28T02:23:28Z</time>
      </trkpt>
      <trkpt lat="42.34012" lon="2.54973">
        <ele>1110.1</ele>
        <time>2018-11-28T02:23:34Z</time>
      </trkpt>
      <trkpt lat="42.34009" lon="2.54969">
        <ele>1110</ele>
        <time>2018-11-28T02:23:36Z</time>
      </trkpt>
      <trkpt lat="42.34008" lon="2.54966">
        <ele>1110</ele>
        <time>2018-11-28T02:23:37Z</time>
      </trkpt>
      <trkpt lat="42.34002" lon="2.54946">
        <ele>1109.5</ele>
        <time>2018-11-28T02:23:43Z</time>
      </trkpt>
      <trkpt lat="42.33993" lon="2.5493">
        <ele>1110.1</ele>
        <time>2018-11-28T02:23:49Z</time>
      </trkpt>
      <trkpt lat="42.33979" lon="2.54911">
        <ele>1109.5</ele>
        <time>2018-11-28T02:23:57Z</time>
      </trkpt>
      <trkpt lat="42.33972" lon="2.54906">
        <ele>1109.5</ele>
        <time>2018-11-28T02:24:00Z</time>
      </trkpt>
      <trkpt lat="42.33969" lon="2.54906">
        <ele>1110.1</ele>
        <time>2018-11-28T02:24:01Z</time>
      </trkpt>
      <trkpt lat="42.33948" lon="2.54901">
        <ele>1111.9</ele>
        <time>2018-11-28T02:24:10Z</time>
      </trkpt>
      <trkpt lat="42.33934" lon="2.54899">
        <ele>1112.9</ele>
        <time>2018-11-28T02:24:16Z</time>
      </trkpt>
      <trkpt lat="42.33921" lon="2.54889">
        <ele>1113.3</ele>
        <time>2018-11-28T02:24:21Z</time>
      </trkpt>
      <trkpt lat="42.33911" lon="2.54875">
        <ele>1113.4</ele>
        <time>2018-11-28T02:24:27Z</time>
      </trkpt>
      <trkpt lat="42.339" lon="2.54859">
        <ele>1113</ele>
        <time>2018-11-28T02:24:34Z</time>
      </trkpt>
      <trkpt lat="42.33897" lon="2.54846">
        <ele>1112</ele>
        <time>2018-11-28T02:24:38Z</time>
      </trkpt>
      <trkpt lat="42.33896" lon="2.54838">
        <ele>1111.9</ele>
        <time>2018-11-28T02:24:40Z</time>
      </trkpt>
      <trkpt lat="42.33894" lon="2.54824">
        <ele>1110.9</ele>
        <time>2018-11-28T02:24:44Z</time>
      </trkpt>
      <trkpt lat="42.33901" lon="2.54803">
        <ele>1110.6</ele>
        <time>2018-11-28T02:24:51Z</time>
      </trkpt>
      <trkpt lat="42.33907" lon="2.54795">
        <ele>1110.1</ele>
        <time>2018-11-28T02:24:55Z</time>
      </trkpt>
      <trkpt lat="42.33912" lon="2.54787">
        <ele>1110</ele>
        <time>2018-11-28T02:24:58Z</time>
      </trkpt>
      <trkpt lat="42.33922" lon="2.5478">
        <ele>1111</ele>
        <time>2018-11-28T02:25:02Z</time>
      </trkpt>
      <trkpt lat="42.33933" lon="2.54765">
        <ele>1110.5</ele>
        <time>2018-11-28T02:25:09Z</time>
      </trkpt>
      <trkpt lat="42.33949" lon="2.5475">
        <ele>1110</ele>
        <time>2018-11-28T02:25:16Z</time>
      </trkpt>
      <trkpt lat="42.33952" lon="2.54735">
        <ele>1109</ele>
        <time>2018-11-28T02:25:21Z</time>
      </trkpt>
      <trkpt lat="42.33955" lon="2.54718">
        <ele>1107.7</ele>
        <time>2018-11-28T02:25:26Z</time>
      </trkpt>
      <trkpt lat="42.33952" lon="2.54713">
        <ele>1108.6</ele>
        <time>2018-11-28T02:25:28Z</time>
      </trkpt>
      <trkpt lat="42.33952" lon="2.54713">
        <ele>1111.4</ele>
        <time>2018-11-28T02:25:28Z</time>
      </trkpt>
      <trkpt lat="42.33946" lon="2.54701">
        <ele>1109</ele>
        <time>2018-11-28T02:25:32Z</time>
      </trkpt>
      <trkpt lat="42.33938" lon="2.54693">
        <ele>1108.2</ele>
        <time>2018-11-28T02:25:36Z</time>
      </trkpt>
      <trkpt lat="42.33936" lon="2.54676">
        <ele>1108.6</ele>
        <time>2018-11-28T02:25:41Z</time>
      </trkpt>
      <trkpt lat="42.33935" lon="2.54663">
        <ele>1110</ele>
        <time>2018-11-28T02:25:45Z</time>
      </trkpt>
      <trkpt lat="42.33936" lon="2.54658">
        <ele>1110.1</ele>
        <time>2018-11-28T02:25:47Z</time>
      </trkpt>
      <trkpt lat="42.33932" lon="2.54639">
        <ele>1112</ele>
        <time>2018-11-28T02:25:52Z</time>
      </trkpt>
      <trkpt lat="42.3393" lon="2.54628">
        <ele>1113.4</ele>
        <time>2018-11-28T02:25:56Z</time>
      </trkpt>
      <trkpt lat="42.33927" lon="2.54619">
        <ele>1113.8</ele>
        <time>2018-11-28T02:25:59Z</time>
      </trkpt>
      <trkpt lat="42.33926" lon="2.5461">
        <ele>1114.8</ele>
        <time>2018-11-28T02:26:01Z</time>
      </trkpt>
      <trkpt lat="42.33923" lon="2.54585">
        <ele>1117.2</ele>
        <time>2018-11-28T02:26:09Z</time>
      </trkpt>
      <trkpt lat="42.33922" lon="2.54575">
        <ele>1116.8</ele>
        <time>2018-11-28T02:26:12Z</time>
      </trkpt>
      <trkpt lat="42.33916" lon="2.54567">
        <ele>1117.3</ele>
        <time>2018-11-28T02:26:15Z</time>
      </trkpt>
      <trkpt lat="42.33911" lon="2.54553">
        <ele>1117.2</ele>
        <time>2018-11-28T02:26:20Z</time>
      </trkpt>
      <trkpt lat="42.33909" lon="2.54547">
        <ele>1118.3</ele>
        <time>2018-11-28T02:26:22Z</time>
      </trkpt>
      <trkpt lat="42.33909" lon="2.54548">
        <ele>1118.3</ele>
        <time>2018-11-28T02:26:22Z</time>
      </trkpt>
      <trkpt lat="42.33909" lon="2.54548">
        <ele>1116.3</ele>
        <time>2018-11-28T02:26:22Z</time>
      </trkpt>
      <trkpt lat="42.33909" lon="2.54548">
        <ele>1119.6</ele>
        <time>2018-11-28T02:26:22Z</time>
      </trkpt>
      <trkpt lat="42.33909" lon="2.54548">
        <ele>1113</ele>
        <time>2018-11-28T02:26:22Z</time>
      </trkpt>
      <trkpt lat="42.33909" lon="2.54548">
        <ele>1120.6</ele>
        <time>2018-11-28T02:26:22Z</time>
      </trkpt>
      <trkpt lat="42.33909" lon="2.54548">
        <ele>1116.7</ele>
        <time>2018-11-28T02:26:22Z</time>
      </trkpt>
      <trkpt lat="42.33909" lon="2.54548">
        <ele>1123.4</ele>
        <time>2018-11-28T02:26:22Z</time>
      </trkpt>
      <trkpt lat="42.33909" lon="2.54548">
        <ele>1118.7</ele>
        <time>2018-11-28T02:26:22Z</time>
      </trkpt>
      <trkpt lat="42.33909" lon="2.54548">
        <ele>1115.4</ele>
        <time>2018-11-28T02:26:22Z</time>
      </trkpt>
      <trkpt lat="42.33909" lon="2.54548">
        <ele>1125.4</ele>
        <time>2018-11-28T02:26:22Z</time>
      </trkpt>
      <trkpt lat="42.33909" lon="2.54547">
        <ele>1118.3</ele>
        <time>2018-11-28T02:26:22Z</time>
      </trkpt>
      <trkpt lat="42.33909" lon="2.54548">
        <ele>1118.2</ele>
        <time>2018-11-28T02:26:22Z</time>
      </trkpt>
      <trkpt lat="42.33909" lon="2.54548">
        <ele>1114.8</ele>
        <time>2018-11-28T02:26:22Z</time>
      </trkpt>
      <trkpt lat="42.33909" lon="2.54548">
        <ele>1118.7</ele>
        <time>2018-11-28T02:26:22Z</time>
      </trkpt>
      <trkpt lat="42.33909" lon="2.54548">
        <ele>1112.4</ele>
        <time>2018-11-28T02:26:22Z</time>
      </trkpt>
      <trkpt lat="42.33909" lon="2.54548">
        <ele>1119.1</ele>
        <time>2018-11-28T02:26:22Z</time>
      </trkpt>
      <trkpt lat="42.33909" lon="2.54548">
        <ele>1112.9</ele>
        <time>2018-11-28T02:26:22Z</time>
      </trkpt>
      <trkpt lat="42.33909" lon="2.54548">
        <ele>1117.7</ele>
        <time>2018-11-28T02:26:22Z</time>
      </trkpt>
      <trkpt lat="42.33909" lon="2.54548">
        <ele>1121</ele>
        <time>2018-11-28T02:26:22Z</time>
      </trkpt>
      <trkpt lat="42.33909" lon="2.54548">
        <ele>1117.7</ele>
        <time>2018-11-28T02:26:22Z</time>
      </trkpt>
      <trkpt lat="42.33909" lon="2.54548">
        <ele>1117.3</ele>
        <time>2018-11-28T02:26:22Z</time>
      </trkpt>
      <trkpt lat="42.33909" lon="2.5455">
        <ele>1116.8</ele>
        <time>2018-11-28T02:26:23Z</time>
      </trkpt>
      <trkpt lat="42.33907" lon="2.54542">
        <ele>1117.3</ele>
        <time>2018-11-28T02:26:25Z</time>
      </trkpt>
      <trkpt lat="42.33909" lon="2.54535">
        <ele>1118.3</ele>
        <time>2018-11-28T02:26:28Z</time>
      </trkpt>
      <trkpt lat="42.3391" lon="2.54527">
        <ele>1118.6</ele>
        <time>2018-11-28T02:26:30Z</time>
      </trkpt>
      <trkpt lat="42.33909" lon="2.54508">
        <ele>1119.7</ele>
        <time>2018-11-28T02:26:36Z</time>
      </trkpt>
      <trkpt lat="42.33909" lon="2.54506">
        <ele>1119.6</ele>
        <time>2018-11-28T02:26:36Z</time>
      </trkpt>
      <trkpt lat="42.33907" lon="2.54494">
        <ele>1118.6</ele>
        <time>2018-11-28T02:26:40Z</time>
      </trkpt>
      <trkpt lat="42.33907" lon="2.54494">
        <ele>1123.1</ele>
        <time>2018-11-28T02:26:40Z</time>
      </trkpt>
      <trkpt lat="42.33907" lon="2.54493">
        <ele>1120.1</ele>
        <time>2018-11-28T02:26:40Z</time>
      </trkpt>
      <trkpt lat="42.33907" lon="2.54493">
        <ele>1114.8</ele>
        <time>2018-11-28T02:26:40Z</time>
      </trkpt>
      <trkpt lat="42.33905" lon="2.54492">
        <ele>1120.2</ele>
        <time>2018-11-28T02:26:41Z</time>
      </trkpt>
      <trkpt lat="42.33905" lon="2.54491">
        <ele>1114.8</ele>
        <time>2018-11-28T02:26:41Z</time>
      </trkpt>
      <trkpt lat="42.33899" lon="2.54485">
        <ele>1119.6</ele>
        <time>2018-11-28T02:26:44Z</time>
      </trkpt>
      <trkpt lat="42.33899" lon="2.54485">
        <ele>1120.6</ele>
        <time>2018-11-28T02:26:44Z</time>
      </trkpt>
      <trkpt lat="42.33894" lon="2.54491">
        <ele>1118.6</ele>
        <time>2018-11-28T02:26:47Z</time>
      </trkpt>
      <trkpt lat="42.33893" lon="2.54493">
        <ele>1119.2</ele>
        <time>2018-11-28T02:26:48Z</time>
      </trkpt>
      <trkpt lat="42.3388" lon="2.54506">
        <ele>1117.8</ele>
        <time>2018-11-28T02:26:54Z</time>
      </trkpt>
      <trkpt lat="42.33866" lon="2.54506">
        <ele>1121.1</ele>
        <time>2018-11-28T02:27:00Z</time>
      </trkpt>
      <trkpt lat="42.33864" lon="2.54507">
        <ele>1121.1</ele>
        <time>2018-11-28T02:27:01Z</time>
      </trkpt>
      <trkpt lat="42.33861" lon="2.54506">
        <ele>1122.1</ele>
        <time>2018-11-28T02:27:02Z</time>
      </trkpt>
      <trkpt lat="42.33859" lon="2.54505">
        <ele>1122</ele>
        <time>2018-11-28T02:27:03Z</time>
      </trkpt>
      <trkpt lat="42.33854" lon="2.54498">
        <ele>1122</ele>
        <time>2018-11-28T02:27:05Z</time>
      </trkpt>
      <trkpt lat="42.33848" lon="2.54488">
        <ele>1121</ele>
        <time>2018-11-28T02:27:09Z</time>
      </trkpt>
      <trkpt lat="42.33842" lon="2.54469">
        <ele>1121.1</ele>
        <time>2018-11-28T02:27:15Z</time>
      </trkpt>
      <trkpt lat="42.33838" lon="2.54461">
        <ele>1120.7</ele>
        <time>2018-11-28T02:27:18Z</time>
      </trkpt>
      <trkpt lat="42.33836" lon="2.54456">
        <ele>1121.6</ele>
        <time>2018-11-28T02:27:20Z</time>
      </trkpt>
      <trkpt lat="42.33835" lon="2.54454">
        <ele>1121.6</ele>
        <time>2018-11-28T02:27:21Z</time>
      </trkpt>
      <trkpt lat="42.33835" lon="2.54448">
        <ele>1122.1</ele>
        <time>2018-11-28T02:27:22Z</time>
      </trkpt>
      <trkpt lat="42.33836" lon="2.54437">
        <ele>1123.1</ele>
        <time>2018-11-28T02:27:26Z</time>
      </trkpt>
      <trkpt lat="42.33834" lon="2.54433">
        <ele>1123.1</ele>
        <time>2018-11-28T02:27:27Z</time>
      </trkpt>
      <trkpt lat="42.33833" lon="2.54421">
        <ele>1123.1</ele>
        <time>2018-11-28T02:27:31Z</time>
      </trkpt>
      <trkpt lat="42.3383" lon="2.54416">
        <ele>1123</ele>
        <time>2018-11-28T02:27:32Z</time>
      </trkpt>
      <trkpt lat="42.33825" lon="2.54415">
        <ele>1123</ele>
        <time>2018-11-28T02:27:35Z</time>
      </trkpt>
      <trkpt lat="42.33818" lon="2.54416">
        <ele>1123</ele>
        <time>2018-11-28T02:27:37Z</time>
      </trkpt>
      <trkpt lat="42.33807" lon="2.54417">
        <ele>1124</ele>
        <time>2018-11-28T02:27:42Z</time>
      </trkpt>
      <trkpt lat="42.33801" lon="2.54415">
        <ele>1125</ele>
        <time>2018-11-28T02:27:45Z</time>
      </trkpt>
      <trkpt lat="42.33785" lon="2.54403">
        <ele>1126.8</ele>
        <time>2018-11-28T02:27:52Z</time>
      </trkpt>
      <trkpt lat="42.33772" lon="2.54382">
        <ele>1128.8</ele>
        <time>2018-11-28T02:28:00Z</time>
      </trkpt>
      <trkpt lat="42.3377" lon="2.54376">
        <ele>1129.2</ele>
        <time>2018-11-28T02:28:02Z</time>
      </trkpt>
      <trkpt lat="42.33764" lon="2.54374">
        <ele>1129.3</ele>
        <time>2018-11-28T02:28:04Z</time>
      </trkpt>
      <trkpt lat="42.33751" lon="2.54387">
        <ele>1129.8</ele>
        <time>2018-11-28T02:28:11Z</time>
      </trkpt>
      <trkpt lat="42.33749" lon="2.54391">
        <ele>1129.7</ele>
        <time>2018-11-28T02:28:12Z</time>
      </trkpt>
      <trkpt lat="42.3374" lon="2.54397">
        <ele>1131.7</ele>
        <time>2018-11-28T02:28:16Z</time>
      </trkpt>
      <trkpt lat="42.33737" lon="2.54396">
        <ele>1131.7</ele>
        <time>2018-11-28T02:28:17Z</time>
      </trkpt>
      <trkpt lat="42.33737" lon="2.54396">
        <ele>1124.4</ele>
        <time>2018-11-28T02:28:17Z</time>
      </trkpt>
      <trkpt lat="42.33737" lon="2.54396">
        <ele>1130.7</ele>
        <time>2018-11-28T02:28:17Z</time>
      </trkpt>
      <trkpt lat="42.33737" lon="2.54396">
        <ele>1130.8</ele>
        <time>2018-11-28T02:28:17Z</time>
      </trkpt>
      <trkpt lat="42.33737" lon="2.54395">
        <ele>1131.2</ele>
        <time>2018-11-28T02:28:17Z</time>
      </trkpt>
      <trkpt lat="42.33737" lon="2.54395">
        <ele>1133.6</ele>
        <time>2018-11-28T02:28:17Z</time>
      </trkpt>
      <trkpt lat="42.33737" lon="2.54395">
        <ele>1127.9</ele>
        <time>2018-11-28T02:28:17Z</time>
      </trkpt>
      <trkpt lat="42.33737" lon="2.54395">
        <ele>1131.2</ele>
        <time>2018-11-28T02:28:17Z</time>
      </trkpt>
      <trkpt lat="42.33737" lon="2.54395">
        <ele>1130.7</ele>
        <time>2018-11-28T02:28:18Z</time>
      </trkpt>
      <trkpt lat="42.33732" lon="2.54397">
        <ele>1129.8</ele>
        <time>2018-11-28T02:28:20Z</time>
      </trkpt>
      <trkpt lat="42.33732" lon="2.54397">
        <ele>1131.7</ele>
        <time>2018-11-28T02:28:20Z</time>
      </trkpt>
      <trkpt lat="42.33732" lon="2.54397">
        <ele>1126.3</ele>
        <time>2018-11-28T02:28:20Z</time>
      </trkpt>
      <trkpt lat="42.33732" lon="2.54397">
        <ele>1126.3</ele>
        <time>2018-11-28T02:28:20Z</time>
      </trkpt>
      <trkpt lat="42.33732" lon="2.54397">
        <ele>1130.7</ele>
        <time>2018-11-28T02:28:20Z</time>
      </trkpt>
      <trkpt lat="42.33732" lon="2.54397">
        <ele>1127.8</ele>
        <time>2018-11-28T02:28:20Z</time>
      </trkpt>
      <trkpt lat="42.33732" lon="2.54397">
        <ele>1131.1</ele>
        <time>2018-11-28T02:28:20Z</time>
      </trkpt>
      <trkpt lat="42.33732" lon="2.54397">
        <ele>1128.3</ele>
        <time>2018-11-28T02:28:20Z</time>
      </trkpt>
      <trkpt lat="42.33732" lon="2.54397">
        <ele>1131.2</ele>
        <time>2018-11-28T02:28:20Z</time>
      </trkpt>
      <trkpt lat="42.33732" lon="2.54397">
        <ele>1130.8</ele>
        <time>2018-11-28T02:28:20Z</time>
      </trkpt>
      <trkpt lat="42.33732" lon="2.54397">
        <ele>1130.7</ele>
        <time>2018-11-28T02:28:20Z</time>
      </trkpt>
      <trkpt lat="42.33732" lon="2.544">
        <ele>1129.3</ele>
        <time>2018-11-28T02:28:21Z</time>
      </trkpt>
      <trkpt lat="42.33733" lon="2.54401">
        <ele>1129.7</ele>
        <time>2018-11-28T02:28:21Z</time>
      </trkpt>
      <trkpt lat="42.33733" lon="2.54401">
        <ele>1130.3</ele>
        <time>2018-11-28T02:28:21Z</time>
      </trkpt>
      <trkpt lat="42.33732" lon="2.54403">
        <ele>1131.2</ele>
        <time>2018-11-28T02:28:22Z</time>
      </trkpt>
      <trkpt lat="42.33729" lon="2.54407">
        <ele>1130.7</ele>
        <time>2018-11-28T02:28:24Z</time>
      </trkpt>
      <trkpt lat="42.33724" lon="2.54417">
        <ele>1129.7</ele>
        <time>2018-11-28T02:28:27Z</time>
      </trkpt>
      <trkpt lat="42.33722" lon="2.54426">
        <ele>1128.2</ele>
        <time>2018-11-28T02:28:30Z</time>
      </trkpt>
      <trkpt lat="42.33719" lon="2.54442">
        <ele>1126.3</ele>
        <time>2018-11-28T02:28:35Z</time>
      </trkpt>
      <trkpt lat="42.33715" lon="2.54457">
        <ele>1125</ele>
        <time>2018-11-28T02:28:40Z</time>
      </trkpt>
      <trkpt lat="42.33715" lon="2.54472">
        <ele>1123.1</ele>
        <time>2018-11-28T02:28:44Z</time>
      </trkpt>
      <trkpt lat="42.33716" lon="2.54489">
        <ele>1121.1</ele>
        <time>2018-11-28T02:28:49Z</time>
      </trkpt>
      <trkpt lat="42.33719" lon="2.54505">
        <ele>1118.6</ele>
        <time>2018-11-28T02:28:54Z</time>
      </trkpt>
      <trkpt lat="42.33717" lon="2.54509">
        <ele>1116.8</ele>
        <time>2018-11-28T02:28:56Z</time>
      </trkpt>
      <trkpt lat="42.33716" lon="2.54514">
        <ele>1115.8</ele>
        <time>2018-11-28T02:28:57Z</time>
      </trkpt>
      <trkpt lat="42.33707" lon="2.54525">
        <ele>1114.3</ele>
        <time>2018-11-28T02:29:02Z</time>
      </trkpt>
      <trkpt lat="42.33703" lon="2.54534">
        <ele>1112.5</ele>
        <time>2018-11-28T02:29:05Z</time>
      </trkpt>
      <trkpt lat="42.33702" lon="2.54538">
        <ele>1111.4</ele>
        <time>2018-11-28T02:29:06Z</time>
      </trkpt>
      <trkpt lat="42.33701" lon="2.54551">
        <ele>1109.5</ele>
        <time>2018-11-28T02:29:10Z</time>
      </trkpt>
      <trkpt lat="42.33695" lon="2.54562">
        <ele>1107.1</ele>
        <time>2018-11-28T02:29:14Z</time>
      </trkpt>
      <trkpt lat="42.3369" lon="2.54572">
        <ele>1104.8</ele>
        <time>2018-11-28T02:29:18Z</time>
      </trkpt>
      <trkpt lat="42.33686" lon="2.54578">
        <ele>1102.4</ele>
        <time>2018-11-28T02:29:20Z</time>
      </trkpt>
      <trkpt lat="42.33676" lon="2.5459">
        <ele>1099.9</ele>
        <time>2018-11-28T02:29:26Z</time>
      </trkpt>
      <trkpt lat="42.33671" lon="2.54603">
        <ele>1097.1</ele>
        <time>2018-11-28T02:29:30Z</time>
      </trkpt>
      <trkpt lat="42.33664" lon="2.54612">
        <ele>1095.2</ele>
        <time>2018-11-28T02:29:34Z</time>
      </trkpt>
      <trkpt lat="42.33657" lon="2.5462">
        <ele>1092.8</ele>
        <time>2018-11-28T02:29:38Z</time>
      </trkpt>
      <trkpt lat="42.33653" lon="2.54626">
        <ele>1090.9</ele>
        <time>2018-11-28T02:29:40Z</time>
      </trkpt>
      <trkpt lat="42.33648" lon="2.54632">
        <ele>1088.5</ele>
        <time>2018-11-28T02:29:43Z</time>
      </trkpt>
      <trkpt lat="42.33644" lon="2.54641">
        <ele>1086.1</ele>
        <time>2018-11-28T02:29:46Z</time>
      </trkpt>
      <trkpt lat="42.33639" lon="2.54652">
        <ele>1083.5</ele>
        <time>2018-11-28T02:29:50Z</time>
      </trkpt>
      <trkpt lat="42.33632" lon="2.54663">
        <ele>1081.1</ele>
        <time>2018-11-28T02:29:54Z</time>
      </trkpt>
      <trkpt lat="42.33622" lon="2.54673">
        <ele>1079.2</ele>
        <time>2018-11-28T02:29:59Z</time>
      </trkpt>
      <trkpt lat="42.33612" lon="2.54682">
        <ele>1076.9</ele>
        <time>2018-11-28T02:30:04Z</time>
      </trkpt>
      <trkpt lat="42.33601" lon="2.54692">
        <ele>1074.4</ele>
        <time>2018-11-28T02:30:09Z</time>
      </trkpt>
      <trkpt lat="42.33597" lon="2.54694">
        <ele>1074.5</ele>
        <time>2018-11-28T02:30:11Z</time>
      </trkpt>
      <trkpt lat="42.33595" lon="2.54696">
        <ele>1073.5</ele>
        <time>2018-11-28T02:30:12Z</time>
      </trkpt>
      <trkpt lat="42.33584" lon="2.54692">
        <ele>1071.5</ele>
        <time>2018-11-28T02:30:16Z</time>
      </trkpt>
      <trkpt lat="42.33583" lon="2.54691">
        <ele>1071.2</ele>
        <time>2018-11-28T02:30:17Z</time>
      </trkpt>
      <trkpt lat="42.33575" lon="2.54684">
        <ele>1069.1</ele>
        <time>2018-11-28T02:30:21Z</time>
      </trkpt>
      <trkpt lat="42.33572" lon="2.54687">
        <ele>1066.8</ele>
        <time>2018-11-28T02:30:22Z</time>
      </trkpt>
      <trkpt lat="42.33569" lon="2.54699">
        <ele>1063.8</ele>
        <time>2018-11-28T02:30:26Z</time>
      </trkpt>
      <trkpt lat="42.33566" lon="2.54707">
        <ele>1060.6</ele>
        <time>2018-11-28T02:30:29Z</time>
      </trkpt>
      <trkpt lat="42.3356" lon="2.54709">
        <ele>1058.6</ele>
        <time>2018-11-28T02:30:31Z</time>
      </trkpt>
      <trkpt lat="42.33553" lon="2.54713">
        <ele>1057.6</ele>
        <time>2018-11-28T02:30:34Z</time>
      </trkpt>
      <trkpt lat="42.33551" lon="2.54714">
        <ele>1056.3</ele>
        <time>2018-11-28T02:30:35Z</time>
      </trkpt>
      <trkpt lat="42.33543" lon="2.54718">
        <ele>1054.3</ele>
        <time>2018-11-28T02:30:39Z</time>
      </trkpt>
      <trkpt lat="42.33536" lon="2.54722">
        <ele>1053.7</ele>
        <time>2018-11-28T02:30:41Z</time>
      </trkpt>
      <trkpt lat="42.33531" lon="2.54742">
        <ele>1051.8</ele>
        <time>2018-11-28T02:30:48Z</time>
      </trkpt>
      <trkpt lat="42.33526" lon="2.54755">
        <ele>1050</ele>
        <time>2018-11-28T02:30:52Z</time>
      </trkpt>
      <trkpt lat="42.33526" lon="2.54767">
        <ele>1048</ele>
        <time>2018-11-28T02:30:56Z</time>
      </trkpt>
      <trkpt lat="42.33517" lon="2.54782">
        <ele>1046.2</ele>
        <time>2018-11-28T02:31:01Z</time>
      </trkpt>
      <trkpt lat="42.33511" lon="2.54801">
        <ele>1043.7</ele>
        <time>2018-11-28T02:31:07Z</time>
      </trkpt>
      <trkpt lat="42.33507" lon="2.54809">
        <ele>1043.3</ele>
        <time>2018-11-28T02:31:10Z</time>
      </trkpt>
      <trkpt lat="42.33505" lon="2.54814">
        <ele>1043.3</ele>
        <time>2018-11-28T02:31:12Z</time>
      </trkpt>
      <trkpt lat="42.33496" lon="2.54832">
        <ele>1042.2</ele>
        <time>2018-11-28T02:31:18Z</time>
      </trkpt>
      <trkpt lat="42.33491" lon="2.5484">
        <ele>1042.7</ele>
        <time>2018-11-28T02:31:22Z</time>
      </trkpt>
      <trkpt lat="42.33482" lon="2.54851">
        <ele>1042.7</ele>
        <time>2018-11-28T02:31:26Z</time>
      </trkpt>
      <trkpt lat="42.33467" lon="2.54857">
        <ele>1041.3</ele>
        <time>2018-11-28T02:31:33Z</time>
      </trkpt>
      <trkpt lat="42.33447" lon="2.54869">
        <ele>1041.3</ele>
        <time>2018-11-28T02:31:41Z</time>
      </trkpt>
      <trkpt lat="42.33437" lon="2.54879">
        <ele>1041.3</ele>
        <time>2018-11-28T02:31:46Z</time>
      </trkpt>
      <trkpt lat="42.33431" lon="2.54885">
        <ele>1041.4</ele>
        <time>2018-11-28T02:31:49Z</time>
      </trkpt>
      <trkpt lat="42.33429" lon="2.54886">
        <ele>1040.4</ele>
        <time>2018-11-28T02:31:50Z</time>
      </trkpt>
      <trkpt lat="42.33429" lon="2.54886">
        <ele>1039.8</ele>
        <time>2018-11-28T02:31:50Z</time>
      </trkpt>
      <trkpt lat="42.33429" lon="2.54886">
        <ele>1039.9</ele>
        <time>2018-11-28T02:31:50Z</time>
      </trkpt>
      <trkpt lat="42.33418" lon="2.54891">
        <ele>1039.4</ele>
        <time>2018-11-28T02:31:55Z</time>
      </trkpt>
      <trkpt lat="42.33411" lon="2.54894">
        <ele>1039.8</ele>
        <time>2018-11-28T02:31:58Z</time>
      </trkpt>
      <trkpt lat="42.3341" lon="2.54899">
        <ele>1039.3</ele>
        <time>2018-11-28T02:31:59Z</time>
      </trkpt>
      <trkpt lat="42.33412" lon="2.54904">
        <ele>1038.8</ele>
        <time>2018-11-28T02:32:01Z</time>
      </trkpt>
      <trkpt lat="42.33412" lon="2.54904">
        <ele>1040.9</ele>
        <time>2018-11-28T02:32:01Z</time>
      </trkpt>
      <trkpt lat="42.3341" lon="2.54911">
        <ele>1040.4</ele>
        <time>2018-11-28T02:32:03Z</time>
      </trkpt>
      <trkpt lat="42.33408" lon="2.54921">
        <ele>1041.4</ele>
        <time>2018-11-28T02:32:06Z</time>
      </trkpt>
      <trkpt lat="42.33398" lon="2.54939">
        <ele>1042.3</ele>
        <time>2018-11-28T02:32:13Z</time>
      </trkpt>
      <trkpt lat="42.33392" lon="2.54949">
        <ele>1041.4</ele>
        <time>2018-11-28T02:32:17Z</time>
      </trkpt>
      <trkpt lat="42.33384" lon="2.54963">
        <ele>1038.9</ele>
        <time>2018-11-28T02:32:22Z</time>
      </trkpt>
      <trkpt lat="42.33372" lon="2.54983">
        <ele>1036.9</ele>
        <time>2018-11-28T02:32:30Z</time>
      </trkpt>
      <trkpt lat="42.33356" lon="2.55002">
        <ele>1036.1</ele>
        <time>2018-11-28T02:32:38Z</time>
      </trkpt>
      <trkpt lat="42.33346" lon="2.55013">
        <ele>1034.5</ele>
        <time>2018-11-28T02:32:43Z</time>
      </trkpt>
      <trkpt lat="42.33342" lon="2.55017">
        <ele>1034.5</ele>
        <time>2018-11-28T02:32:45Z</time>
      </trkpt>
      <trkpt lat="42.33341" lon="2.55019">
        <ele>1035</ele>
        <time>2018-11-28T02:32:46Z</time>
      </trkpt>
      <trkpt lat="42.3334" lon="2.55021">
        <ele>1034</ele>
        <time>2018-11-28T02:32:47Z</time>
      </trkpt>
      <trkpt lat="42.33338" lon="2.55025">
        <ele>1031.7</ele>
        <time>2018-11-28T02:32:48Z</time>
      </trkpt>
      <trkpt lat="42.33332" lon="2.55037">
        <ele>1030.3</ele>
        <time>2018-11-28T02:32:52Z</time>
      </trkpt>
      <trkpt lat="42.3333" lon="2.55039">
        <ele>1028.9</ele>
        <time>2018-11-28T02:32:53Z</time>
      </trkpt>
      <trkpt lat="42.3332" lon="2.55059">
        <ele>1026.4</ele>
        <time>2018-11-28T02:33:00Z</time>
      </trkpt>
      <trkpt lat="42.3332" lon="2.5506">
        <ele>1025.9</ele>
        <time>2018-11-28T02:33:01Z</time>
      </trkpt>
      <trkpt lat="42.33315" lon="2.55066">
        <ele>1025.4</ele>
        <time>2018-11-28T02:33:03Z</time>
      </trkpt>
      <trkpt lat="42.33314" lon="2.55071">
        <ele>1026</ele>
        <time>2018-11-28T02:33:05Z</time>
      </trkpt>
      <trkpt lat="42.33313" lon="2.55071">
        <ele>1025</ele>
        <time>2018-11-28T02:33:05Z</time>
      </trkpt>
      <trkpt lat="42.33314" lon="2.55074">
        <ele>1024.4</ele>
        <time>2018-11-28T02:33:06Z</time>
      </trkpt>
      <trkpt lat="42.33315" lon="2.5509">
        <ele>1023.1</ele>
        <time>2018-11-28T02:33:11Z</time>
      </trkpt>
      <trkpt lat="42.33313" lon="2.55112">
        <ele>1021.5</ele>
        <time>2018-11-28T02:33:17Z</time>
      </trkpt>
      <trkpt lat="42.3331" lon="2.55116">
        <ele>1020.6</ele>
        <time>2018-11-28T02:33:19Z</time>
      </trkpt>
      <trkpt lat="42.333" lon="2.55131">
        <ele>1020.1</ele>
        <time>2018-11-28T02:33:25Z</time>
      </trkpt>
      <trkpt lat="42.33281" lon="2.55136">
        <ele>1018.7</ele>
        <time>2018-11-28T02:33:33Z</time>
      </trkpt>
      <trkpt lat="42.33278" lon="2.55137">
        <ele>1019.1</ele>
        <time>2018-11-28T02:33:34Z</time>
      </trkpt>
      <trkpt lat="42.33276" lon="2.55136">
        <ele>1019.2</ele>
        <time>2018-11-28T02:33:35Z</time>
      </trkpt>
      <trkpt lat="42.33275" lon="2.55142">
        <ele>1018.2</ele>
        <time>2018-11-28T02:33:36Z</time>
      </trkpt>
      <trkpt lat="42.33274" lon="2.55143">
        <ele>1018.3</ele>
        <time>2018-11-28T02:33:37Z</time>
      </trkpt>
      <trkpt lat="42.33274" lon="2.55145">
        <ele>1017.7</ele>
        <time>2018-11-28T02:33:37Z</time>
      </trkpt>
      <trkpt lat="42.33274" lon="2.55145">
        <ele>1017.7</ele>
        <time>2018-11-28T02:33:38Z</time>
      </trkpt>
      <trkpt lat="42.33274" lon="2.55149">
        <ele>1018.8</ele>
        <time>2018-11-28T02:33:39Z</time>
      </trkpt>
      <trkpt lat="42.33268" lon="2.55157">
        <ele>1016.7</ele>
        <time>2018-11-28T02:33:42Z</time>
      </trkpt>
      <trkpt lat="42.33268" lon="2.55158">
        <ele>1016.7</ele>
        <time>2018-11-28T02:33:42Z</time>
      </trkpt>
      <trkpt lat="42.33265" lon="2.5518">
        <ele>1016.3</ele>
        <time>2018-11-28T02:33:49Z</time>
      </trkpt>
      <trkpt lat="42.33262" lon="2.55201">
        <ele>1015.8</ele>
        <time>2018-11-28T02:33:55Z</time>
      </trkpt>
      <trkpt lat="42.33259" lon="2.55206">
        <ele>1016.3</ele>
        <time>2018-11-28T02:33:57Z</time>
      </trkpt>
      <trkpt lat="42.33259" lon="2.55206">
        <ele>1016.4</ele>
        <time>2018-11-28T02:33:57Z</time>
      </trkpt>
      <trkpt lat="42.3326" lon="2.55206">
        <ele>1016.7</ele>
        <time>2018-11-28T02:33:57Z</time>
      </trkpt>
      <trkpt lat="42.3326" lon="2.55206">
        <ele>1016.7</ele>
        <time>2018-11-28T02:33:57Z</time>
      </trkpt>
      <trkpt lat="42.33257" lon="2.55223">
        <ele>1016.7</ele>
        <time>2018-11-28T02:34:02Z</time>
      </trkpt>
      <trkpt lat="42.33251" lon="2.55242">
        <ele>1016.7</ele>
        <time>2018-11-28T02:34:09Z</time>
      </trkpt>
      <trkpt lat="42.33246" lon="2.55265">
        <ele>1015.8</ele>
        <time>2018-11-28T02:34:16Z</time>
      </trkpt>
      <trkpt lat="42.33238" lon="2.55278">
        <ele>1016.4</ele>
        <time>2018-11-28T02:34:21Z</time>
      </trkpt>
      <trkpt lat="42.33233" lon="2.55285">
        <ele>1019.1</ele>
        <time>2018-11-28T02:34:23Z</time>
      </trkpt>
      <trkpt lat="42.33232" lon="2.55286">
        <ele>1022</ele>
        <time>2018-11-28T02:34:24Z</time>
      </trkpt>
      <trkpt lat="42.33226" lon="2.55297">
        <ele>1015.8</ele>
        <time>2018-11-28T02:34:28Z</time>
      </trkpt>
      <trkpt lat="42.33221" lon="2.55304">
        <ele>1015.3</ele>
        <time>2018-11-28T02:34:31Z</time>
      </trkpt>
      <trkpt lat="42.33217" lon="2.5531">
        <ele>1014.9</ele>
        <time>2018-11-28T02:34:33Z</time>
      </trkpt>
      <trkpt lat="42.33205" lon="2.55311">
        <ele>1012.5</ele>
        <time>2018-11-28T02:34:38Z</time>
      </trkpt>
      <trkpt lat="42.33191" lon="2.55311">
        <ele>1011.5</ele>
        <time>2018-11-28T02:34:44Z</time>
      </trkpt>
      <trkpt lat="42.3318" lon="2.55314">
        <ele>1012</ele>
        <time>2018-11-28T02:34:48Z</time>
      </trkpt>
      <trkpt lat="42.33171" lon="2.55317">
        <ele>1011.9</ele>
        <time>2018-11-28T02:34:52Z</time>
      </trkpt>
      <trkpt lat="42.33166" lon="2.55326">
        <ele>1012.4</ele>
        <time>2018-11-28T02:34:55Z</time>
      </trkpt>
      <trkpt lat="42.3316" lon="2.55344">
        <ele>1011</ele>
        <time>2018-11-28T02:35:01Z</time>
      </trkpt>
      <trkpt lat="42.33159" lon="2.55348">
        <ele>1014</ele>
        <time>2018-11-28T02:35:02Z</time>
      </trkpt>
      <trkpt lat="42.33159" lon="2.5536">
        <ele>1010.5</ele>
        <time>2018-11-28T02:35:06Z</time>
      </trkpt>
      <trkpt lat="42.33158" lon="2.55362">
        <ele>1011.4</ele>
        <time>2018-11-28T02:35:07Z</time>
      </trkpt>
      <trkpt lat="42.33158" lon="2.55362">
        <ele>1010.5</ele>
        <time>2018-11-28T02:35:07Z</time>
      </trkpt>
      <trkpt lat="42.33157" lon="2.55364">
        <ele>1010.6</ele>
        <time>2018-11-28T02:35:07Z</time>
      </trkpt>
      <trkpt lat="42.33156" lon="2.5538">
        <ele>1010.6</ele>
        <time>2018-11-28T02:35:12Z</time>
      </trkpt>
      <trkpt lat="42.33155" lon="2.55394">
        <ele>1011</ele>
        <time>2018-11-28T02:35:16Z</time>
      </trkpt>
      <trkpt lat="42.33152" lon="2.55408">
        <ele>1010.6</ele>
        <time>2018-11-28T02:35:21Z</time>
      </trkpt>
      <trkpt lat="42.33149" lon="2.55414">
        <ele>1009.5</ele>
        <time>2018-11-28T02:35:23Z</time>
      </trkpt>
      <trkpt lat="42.33149" lon="2.55421">
        <ele>1009.6</ele>
        <time>2018-11-28T02:35:25Z</time>
      </trkpt>
      <trkpt lat="42.33145" lon="2.55431">
        <ele>1008.2</ele>
        <time>2018-11-28T02:35:28Z</time>
      </trkpt>
      <trkpt lat="42.33139" lon="2.55447">
        <ele>1007.2</ele>
        <time>2018-11-28T02:35:33Z</time>
      </trkpt>
      <trkpt lat="42.33137" lon="2.55448">
        <ele>1007.1</ele>
        <time>2018-11-28T02:35:34Z</time>
      </trkpt>
      <trkpt lat="42.33134" lon="2.55448">
        <ele>1006.2</ele>
        <time>2018-11-28T02:35:35Z</time>
      </trkpt>
      <trkpt lat="42.33125" lon="2.55452">
        <ele>1003.3</ele>
        <time>2018-11-28T02:35:39Z</time>
      </trkpt>
      <trkpt lat="42.33114" lon="2.55461">
        <ele>1002.3</ele>
        <time>2018-11-28T02:35:44Z</time>
      </trkpt>
      <trkpt lat="42.33106" lon="2.55479">
        <ele>1002.3</ele>
        <time>2018-11-28T02:35:51Z</time>
      </trkpt>
      <trkpt lat="42.33101" lon="2.55487">
        <ele>1000.5</ele>
        <time>2018-11-28T02:35:54Z</time>
      </trkpt>
      <trkpt lat="42.33085" lon="2.55481">
        <ele>999.5</ele>
        <time>2018-11-28T02:36:00Z</time>
      </trkpt>
      <trkpt lat="42.33075" lon="2.55477">
        <ele>998.6</ele>
        <time>2018-11-28T02:36:05Z</time>
      </trkpt>
      <trkpt lat="42.33056" lon="2.55476">
        <ele>997</ele>
        <time>2018-11-28T02:36:12Z</time>
      </trkpt>
      <trkpt lat="42.33046" lon="2.55477">
        <ele>996.5</ele>
        <time>2018-11-28T02:36:16Z</time>
      </trkpt>
      <trkpt lat="42.33038" lon="2.55486">
        <ele>997</ele>
        <time>2018-11-28T02:36:20Z</time>
      </trkpt>
      <trkpt lat="42.33036" lon="2.55492">
        <ele>997</ele>
        <time>2018-11-28T02:36:22Z</time>
      </trkpt>
      <trkpt lat="42.33033" lon="2.55497">
        <ele>997</ele>
        <time>2018-11-28T02:36:24Z</time>
      </trkpt>
      <trkpt lat="42.33032" lon="2.55498">
        <ele>995.6</ele>
        <time>2018-11-28T02:36:25Z</time>
      </trkpt>
      <trkpt lat="42.33032" lon="2.55498">
        <ele>997</ele>
        <time>2018-11-28T02:36:25Z</time>
      </trkpt>
      <trkpt lat="42.3303" lon="2.55499">
        <ele>996.5</ele>
        <time>2018-11-28T02:36:25Z</time>
      </trkpt>
      <trkpt lat="42.33017" lon="2.55498">
        <ele>995.7</ele>
        <time>2018-11-28T02:36:30Z</time>
      </trkpt>
      <trkpt lat="42.33003" lon="2.55499">
        <ele>996.6</ele>
        <time>2018-11-28T02:36:36Z</time>
      </trkpt>
      <trkpt lat="42.33003" lon="2.55499">
        <ele>996.6</ele>
        <time>2018-11-28T02:36:36Z</time>
      </trkpt>
      <trkpt lat="42.32998" lon="2.55499">
        <ele>996.5</ele>
        <time>2018-11-28T02:36:38Z</time>
      </trkpt>
      <trkpt lat="42.32997" lon="2.555">
        <ele>997</ele>
        <time>2018-11-28T02:36:39Z</time>
      </trkpt>
      <trkpt lat="42.32998" lon="2.55501">
        <ele>998.6</ele>
        <time>2018-11-28T02:36:39Z</time>
      </trkpt>
      <trkpt lat="42.32999" lon="2.55501">
        <ele>998.6</ele>
        <time>2018-11-28T02:36:40Z</time>
      </trkpt>
      <trkpt lat="42.32999" lon="2.55501">
        <ele>998</ele>
        <time>2018-11-28T02:36:40Z</time>
      </trkpt>
      <trkpt lat="42.32999" lon="2.55501">
        <ele>999.1</ele>
        <time>2018-11-28T02:36:40Z</time>
      </trkpt>
      <trkpt lat="42.32996" lon="2.55511">
        <ele>999</ele>
        <time>2018-11-28T02:36:43Z</time>
      </trkpt>
      <trkpt lat="42.32989" lon="2.55526">
        <ele>998</ele>
        <time>2018-11-28T02:36:48Z</time>
      </trkpt>
      <trkpt lat="42.32987" lon="2.55533">
        <ele>998</ele>
        <time>2018-11-28T02:36:50Z</time>
      </trkpt>
      <trkpt lat="42.32982" lon="2.55548">
        <ele>998.1</ele>
        <time>2018-11-28T02:36:56Z</time>
      </trkpt>
      <trkpt lat="42.3298" lon="2.55562">
        <ele>997.6</ele>
        <time>2018-11-28T02:37:00Z</time>
      </trkpt>
      <trkpt lat="42.32977" lon="2.55584">
        <ele>998.6</ele>
        <time>2018-11-28T02:37:06Z</time>
      </trkpt>
      <trkpt lat="42.32971" lon="2.55603">
        <ele>998</ele>
        <time>2018-11-28T02:37:12Z</time>
      </trkpt>
      <trkpt lat="42.32969" lon="2.55608">
        <ele>998</ele>
        <time>2018-11-28T02:37:14Z</time>
      </trkpt>
      <trkpt lat="42.32967" lon="2.55625">
        <ele>996.6</ele>
        <time>2018-11-28T02:37:19Z</time>
      </trkpt>
      <trkpt lat="42.32967" lon="2.5563">
        <ele>995.1</ele>
        <time>2018-11-28T02:37:21Z</time>
      </trkpt>
      <trkpt lat="42.32966" lon="2.5564">
        <ele>994.2</ele>
        <time>2018-11-28T02:37:24Z</time>
      </trkpt>
      <trkpt lat="42.32973" lon="2.55655">
        <ele>996.2</ele>
        <time>2018-11-28T02:37:29Z</time>
      </trkpt>
      <trkpt lat="42.32974" lon="2.55659">
        <ele>998.6</ele>
        <time>2018-11-28T02:37:30Z</time>
      </trkpt>
      <trkpt lat="42.32973" lon="2.55671">
        <ele>1000.4</ele>
        <time>2018-11-28T02:37:34Z</time>
      </trkpt>
      <trkpt lat="42.32981" lon="2.55682">
        <ele>1000.9</ele>
        <time>2018-11-28T02:37:38Z</time>
      </trkpt>
      <trkpt lat="42.32983" lon="2.55693">
        <ele>1002.9</ele>
        <time>2018-11-28T02:37:42Z</time>
      </trkpt>
      <trkpt lat="42.32985" lon="2.55704">
        <ele>1004.3</ele>
        <time>2018-11-28T02:37:45Z</time>
      </trkpt>
      <trkpt lat="42.32988" lon="2.55721">
        <ele>1006.2</ele>
        <time>2018-11-28T02:37:50Z</time>
      </trkpt>
      <trkpt lat="42.32993" lon="2.55733">
        <ele>1007.1</ele>
        <time>2018-11-28T02:37:54Z</time>
      </trkpt>
      <trkpt lat="42.32991" lon="2.55746">
        <ele>1008.1</ele>
        <time>2018-11-28T02:37:58Z</time>
      </trkpt>
      <trkpt lat="42.32991" lon="2.55747">
        <ele>1008.7</ele>
        <time>2018-11-28T02:37:58Z</time>
      </trkpt>
      <trkpt lat="42.32984" lon="2.55761">
        <ele>1011.4</ele>
        <time>2018-11-28T02:38:03Z</time>
      </trkpt>
      <trkpt lat="42.32969" lon="2.5577">
        <ele>1012.5</ele>
        <time>2018-11-28T02:38:10Z</time>
      </trkpt>
      <trkpt lat="42.32962" lon="2.55774">
        <ele>1013</ele>
        <time>2018-11-28T02:38:13Z</time>
      </trkpt>
      <trkpt lat="42.32955" lon="2.55776">
        <ele>1013.4</ele>
        <time>2018-11-28T02:38:16Z</time>
      </trkpt>
      <trkpt lat="42.32951" lon="2.55778">
        <ele>1013.9</ele>
        <time>2018-11-28T02:38:17Z</time>
      </trkpt>
      <trkpt lat="42.32947" lon="2.55781">
        <ele>1014.8</ele>
        <time>2018-11-28T02:38:19Z</time>
      </trkpt>
      <trkpt lat="42.32937" lon="2.55795">
        <ele>1014.9</ele>
        <time>2018-11-28T02:38:25Z</time>
      </trkpt>
      <trkpt lat="42.32929" lon="2.55805">
        <ele>1015.3</ele>
        <time>2018-11-28T02:38:29Z</time>
      </trkpt>
      <trkpt lat="42.32916" lon="2.55818">
        <ele>1014.8</ele>
        <time>2018-11-28T02:38:36Z</time>
      </trkpt>
      <trkpt lat="42.32912" lon="2.55822">
        <ele>1016.3</ele>
        <time>2018-11-28T02:38:38Z</time>
      </trkpt>
      <trkpt lat="42.32913" lon="2.55826">
        <ele>1015.4</ele>
        <time>2018-11-28T02:38:39Z</time>
      </trkpt>
      <trkpt lat="42.32911" lon="2.55835">
        <ele>1017.8</ele>
        <time>2018-11-28T02:38:42Z</time>
      </trkpt>
      <trkpt lat="42.32913" lon="2.55847">
        <ele>1020.7</ele>
        <time>2018-11-28T02:38:46Z</time>
      </trkpt>
      <trkpt lat="42.32918" lon="2.55862">
        <ele>1022.1</ele>
        <time>2018-11-28T02:38:50Z</time>
      </trkpt>
      <trkpt lat="42.32919" lon="2.55867">
        <ele>1022.5</ele>
        <time>2018-11-28T02:38:52Z</time>
      </trkpt>
      <trkpt lat="42.32917" lon="2.55875">
        <ele>1023.1</ele>
        <time>2018-11-28T02:38:54Z</time>
      </trkpt>
      <trkpt lat="42.32909" lon="2.55892">
        <ele>1023.9</ele>
        <time>2018-11-28T02:39:00Z</time>
      </trkpt>
      <trkpt lat="42.32906" lon="2.55906">
        <ele>1025.4</ele>
        <time>2018-11-28T02:39:05Z</time>
      </trkpt>
      <trkpt lat="42.32905" lon="2.55916">
        <ele>1026.8</ele>
        <time>2018-11-28T02:39:08Z</time>
      </trkpt>
      <trkpt lat="42.32905" lon="2.55928">
        <ele>1028.4</ele>
        <time>2018-11-28T02:39:11Z</time>
      </trkpt>
      <trkpt lat="42.32905" lon="2.55937">
        <ele>1031.2</ele>
        <time>2018-11-28T02:39:14Z</time>
      </trkpt>
      <trkpt lat="42.32905" lon="2.55943">
        <ele>1032.1</ele>
        <time>2018-11-28T02:39:16Z</time>
      </trkpt>
      <trkpt lat="42.32901" lon="2.55955">
        <ele>1034.1</ele>
        <time>2018-11-28T02:39:20Z</time>
      </trkpt>
      <trkpt lat="42.32898" lon="2.5596">
        <ele>1034.6</ele>
        <time>2018-11-28T02:39:21Z</time>
      </trkpt>
      <trkpt lat="42.32888" lon="2.55978">
        <ele>1036.4</ele>
        <time>2018-11-28T02:39:28Z</time>
      </trkpt>
      <trkpt lat="42.32884" lon="2.55983">
        <ele>1036.9</ele>
        <time>2018-11-28T02:39:30Z</time>
      </trkpt>
      <trkpt lat="42.32883" lon="2.55986">
        <ele>1037.5</ele>
        <time>2018-11-28T02:39:31Z</time>
      </trkpt>
      <trkpt lat="42.32881" lon="2.55994">
        <ele>1040.3</ele>
        <time>2018-11-28T02:39:34Z</time>
      </trkpt>
      <trkpt lat="42.32876" lon="2.56005">
        <ele>1041.3</ele>
        <time>2018-11-28T02:39:38Z</time>
      </trkpt>
      <trkpt lat="42.32874" lon="2.56018">
        <ele>1042.2</ele>
        <time>2018-11-28T02:39:41Z</time>
      </trkpt>
      <trkpt lat="42.32871" lon="2.56026">
        <ele>1044.2</ele>
        <time>2018-11-28T02:39:44Z</time>
      </trkpt>
      <trkpt lat="42.32867" lon="2.56037">
        <ele>1045.2</ele>
        <time>2018-11-28T02:39:48Z</time>
      </trkpt>
      <trkpt lat="42.32866" lon="2.56051">
        <ele>1046.6</ele>
        <time>2018-11-28T02:39:52Z</time>
      </trkpt>
      <trkpt lat="42.32862" lon="2.56069">
        <ele>1048.6</ele>
        <time>2018-11-28T02:39:58Z</time>
      </trkpt>
      <trkpt lat="42.32858" lon="2.56088">
        <ele>1050</ele>
        <time>2018-11-28T02:40:03Z</time>
      </trkpt>
      <trkpt lat="42.32855" lon="2.56106">
        <ele>1052.3</ele>
        <time>2018-11-28T02:40:09Z</time>
      </trkpt>
      <trkpt lat="42.3285" lon="2.56122">
        <ele>1054.2</ele>
        <time>2018-11-28T02:40:14Z</time>
      </trkpt>
      <trkpt lat="42.32851" lon="2.56133">
        <ele>1055.3</ele>
        <time>2018-11-28T02:40:17Z</time>
      </trkpt>
      <trkpt lat="42.32851" lon="2.56143">
        <ele>1056.6</ele>
        <time>2018-11-28T02:40:20Z</time>
      </trkpt>
      <trkpt lat="42.32851" lon="2.56144">
        <ele>1057.7</ele>
        <time>2018-11-28T02:40:21Z</time>
      </trkpt>
      <trkpt lat="42.32845" lon="2.56164">
        <ele>1060</ele>
        <time>2018-11-28T02:40:27Z</time>
      </trkpt>
      <trkpt lat="42.32842" lon="2.56172">
        <ele>1062.4</ele>
        <time>2018-11-28T02:40:30Z</time>
      </trkpt>
      <trkpt lat="42.32841" lon="2.56173">
        <ele>1062.4</ele>
        <time>2018-11-28T02:40:30Z</time>
      </trkpt>
      <trkpt lat="42.32841" lon="2.56174">
        <ele>1063.9</ele>
        <time>2018-11-28T02:40:30Z</time>
      </trkpt>
      <trkpt lat="42.32835" lon="2.5618">
        <ele>1066.3</ele>
        <time>2018-11-28T02:40:33Z</time>
      </trkpt>
      <trkpt lat="42.32831" lon="2.56186">
        <ele>1067.8</ele>
        <time>2018-11-28T02:40:36Z</time>
      </trkpt>
      <trkpt lat="42.32829" lon="2.56201">
        <ele>1068.6</ele>
        <time>2018-11-28T02:40:40Z</time>
      </trkpt>
      <trkpt lat="42.32828" lon="2.56203">
        <ele>1069.2</ele>
        <time>2018-11-28T02:40:41Z</time>
      </trkpt>
      <trkpt lat="42.32828" lon="2.56203">
        <ele>1068.7</ele>
        <time>2018-11-28T02:40:41Z</time>
      </trkpt>
      <trkpt lat="42.32828" lon="2.56202">
        <ele>1068.7</ele>
        <time>2018-11-28T02:40:42Z</time>
      </trkpt>
      <trkpt lat="42.32828" lon="2.56202">
        <ele>1068.6</ele>
        <time>2018-11-28T02:40:42Z</time>
      </trkpt>
      <trkpt lat="42.32828" lon="2.56201">
        <ele>1068.6</ele>
        <time>2018-11-28T02:40:42Z</time>
      </trkpt>
      <trkpt lat="42.32827" lon="2.56199">
        <ele>1068.6</ele>
        <time>2018-11-28T02:40:42Z</time>
      </trkpt>
      <trkpt lat="42.32827" lon="2.562">
        <ele>1068.6</ele>
        <time>2018-11-28T02:40:43Z</time>
      </trkpt>
      <trkpt lat="42.32827" lon="2.562">
        <ele>1068.3</ele>
        <time>2018-11-28T02:40:43Z</time>
      </trkpt>
      <trkpt lat="42.32827" lon="2.562">
        <ele>1068.2</ele>
        <time>2018-11-28T02:40:43Z</time>
      </trkpt>
      <trkpt lat="42.32827" lon="2.562">
        <ele>1067.8</ele>
        <time>2018-11-28T02:40:43Z</time>
      </trkpt>
      <trkpt lat="42.32827" lon="2.562">
        <ele>1067.8</ele>
        <time>2018-11-28T02:40:43Z</time>
      </trkpt>
      <trkpt lat="42.32827" lon="2.562">
        <ele>1066.7</ele>
        <time>2018-11-28T02:40:43Z</time>
      </trkpt>
      <trkpt lat="42.32827" lon="2.562">
        <ele>1066.7</ele>
        <time>2018-11-28T02:40:43Z</time>
      </trkpt>
      <trkpt lat="42.32827" lon="2.562">
        <ele>1066.7</ele>
        <time>2018-11-28T02:40:43Z</time>
      </trkpt>
      <trkpt lat="42.32824" lon="2.56201">
        <ele>1067.2</ele>
        <time>2018-11-28T02:40:44Z</time>
      </trkpt>
      <trkpt lat="42.32812" lon="2.56201">
        <ele>1065.9</ele>
        <time>2018-11-28T02:40:49Z</time>
      </trkpt>
      <trkpt lat="42.32809" lon="2.56198">
        <ele>1064.8</ele>
        <time>2018-11-28T02:40:51Z</time>
      </trkpt>
      <trkpt lat="42.32808" lon="2.56197">
        <ele>1063.8</ele>
        <time>2018-11-28T02:40:51Z</time>
      </trkpt>
      <trkpt lat="42.32797" lon="2.56189">
        <ele>1061.9</ele>
        <time>2018-11-28T02:40:56Z</time>
      </trkpt>
      <trkpt lat="42.32785" lon="2.56188">
        <ele>1060.5</ele>
        <time>2018-11-28T02:41:01Z</time>
      </trkpt>
      <trkpt lat="42.32772" lon="2.56188">
        <ele>1059.6</ele>
        <time>2018-11-28T02:41:06Z</time>
      </trkpt>
      <trkpt lat="42.32772" lon="2.56188">
        <ele>1060</ele>
        <time>2018-11-28T02:41:06Z</time>
      </trkpt>
      <trkpt lat="42.32766" lon="2.56185">
        <ele>1059.1</ele>
        <time>2018-11-28T02:41:09Z</time>
      </trkpt>
      <trkpt lat="42.32764" lon="2.56182">
        <ele>1059.1</ele>
        <time>2018-11-28T02:41:10Z</time>
      </trkpt>
      <trkpt lat="42.32757" lon="2.56177">
        <ele>1059.1</ele>
        <time>2018-11-28T02:41:13Z</time>
      </trkpt>
      <trkpt lat="42.32747" lon="2.56167">
        <ele>1060.1</ele>
        <time>2018-11-28T02:41:18Z</time>
      </trkpt>
      <trkpt lat="42.3274" lon="2.56162">
        <ele>1060.5</ele>
        <time>2018-11-28T02:41:21Z</time>
      </trkpt>
      <trkpt lat="42.32729" lon="2.56153">
        <ele>1061</ele>
        <time>2018-11-28T02:41:26Z</time>
      </trkpt>
      <trkpt lat="42.32717" lon="2.56154">
        <ele>1060.6</ele>
        <time>2018-11-28T02:41:31Z</time>
      </trkpt>
      <trkpt lat="42.32708" lon="2.56152">
        <ele>1060</ele>
        <time>2018-11-28T02:41:35Z</time>
      </trkpt>
      <trkpt lat="42.32696" lon="2.56152">
        <ele>1059.5</ele>
        <time>2018-11-28T02:41:39Z</time>
      </trkpt>
      <trkpt lat="42.32688" lon="2.56148">
        <ele>1059.6</ele>
        <time>2018-11-28T02:41:43Z</time>
      </trkpt>
      <trkpt lat="42.32683" lon="2.56146">
        <ele>1059.1</ele>
        <time>2018-11-28T02:41:45Z</time>
      </trkpt>
      <trkpt lat="42.32674" lon="2.56137">
        <ele>1058.2</ele>
        <time>2018-11-28T02:41:49Z</time>
      </trkpt>
      <trkpt lat="42.32664" lon="2.56128">
        <ele>1056.3</ele>
        <time>2018-11-28T02:41:54Z</time>
      </trkpt>
      <trkpt lat="42.32655" lon="2.56123">
        <ele>1055.2</ele>
        <time>2018-11-28T02:41:58Z</time>
      </trkpt>
      <trkpt lat="42.32644" lon="2.56117">
        <ele>1056.3</ele>
        <time>2018-11-28T02:42:03Z</time>
      </trkpt>
      <trkpt lat="42.32633" lon="2.56115">
        <ele>1056.3</ele>
        <time>2018-11-28T02:42:07Z</time>
      </trkpt>
      <trkpt lat="42.32621" lon="2.56114">
        <ele>1056.3</ele>
        <time>2018-11-28T02:42:12Z</time>
      </trkpt>
      <trkpt lat="42.32614" lon="2.56113">
        <ele>1056.7</ele>
        <time>2018-11-28T02:42:15Z</time>
      </trkpt>
      <trkpt lat="42.32612" lon="2.56114">
        <ele>1056.2</ele>
        <time>2018-11-28T02:42:16Z</time>
      </trkpt>
      <trkpt lat="42.32602" lon="2.56112">
        <ele>1056.2</ele>
        <time>2018-11-28T02:42:20Z</time>
      </trkpt>
      <trkpt lat="42.32564" lon="2.56117">
        <ele>1056.2</ele>
        <time>2018-11-28T02:42:35Z</time>
      </trkpt>
      <trkpt lat="42.32555" lon="2.5612">
        <ele>1056.7</ele>
        <time>2018-11-28T02:42:39Z</time>
      </trkpt>
      <trkpt lat="42.32555" lon="2.5612">
        <ele>1056.2</ele>
        <time>2018-11-28T02:42:39Z</time>
      </trkpt>
      <trkpt lat="42.32554" lon="2.5612">
        <ele>1055.8</ele>
        <time>2018-11-28T02:42:39Z</time>
      </trkpt>
      <trkpt lat="42.32543" lon="2.56122">
        <ele>1053.8</ele>
        <time>2018-11-28T02:42:44Z</time>
      </trkpt>
      <trkpt lat="42.32531" lon="2.56124">
        <ele>1052.8</ele>
        <time>2018-11-28T02:42:49Z</time>
      </trkpt>
      <trkpt lat="42.32525" lon="2.56124">
        <ele>1053.3</ele>
        <time>2018-11-28T02:42:51Z</time>
      </trkpt>
      <trkpt lat="42.3252" lon="2.56126">
        <ele>1052.4</ele>
        <time>2018-11-28T02:42:53Z</time>
      </trkpt>
      <trkpt lat="42.3252" lon="2.56126">
        <ele>1052.4</ele>
        <time>2018-11-28T02:42:53Z</time>
      </trkpt>
      <trkpt lat="42.32518" lon="2.56126">
        <ele>1051.4</ele>
        <time>2018-11-28T02:42:54Z</time>
      </trkpt>
      <trkpt lat="42.32511" lon="2.56125">
        <ele>1049.9</ele>
        <time>2018-11-28T02:42:57Z</time>
      </trkpt>
      <trkpt lat="42.32507" lon="2.56125">
        <ele>1049.4</ele>
        <time>2018-11-28T02:42:58Z</time>
      </trkpt>
      <trkpt lat="42.32499" lon="2.56116">
        <ele>1049.9</ele>
        <time>2018-11-28T02:43:02Z</time>
      </trkpt>
      <trkpt lat="42.32492" lon="2.56108">
        <ele>1049</ele>
        <time>2018-11-28T02:43:06Z</time>
      </trkpt>
      <trkpt lat="42.32479" lon="2.56093">
        <ele>1048.9</ele>
        <time>2018-11-28T02:43:13Z</time>
      </trkpt>
      <trkpt lat="42.32476" lon="2.56091">
        <ele>1048.9</ele>
        <time>2018-11-28T02:43:14Z</time>
      </trkpt>
      <trkpt lat="42.32468" lon="2.56092">
        <ele>1048.9</ele>
        <time>2018-11-28T02:43:17Z</time>
      </trkpt>
      <trkpt lat="42.32468" lon="2.56092">
        <ele>1049.4</ele>
        <time>2018-11-28T02:43:17Z</time>
      </trkpt>
      <trkpt lat="42.32464" lon="2.56095">
        <ele>1048.9</ele>
        <time>2018-11-28T02:43:19Z</time>
      </trkpt>
      <trkpt lat="42.32453" lon="2.56104">
        <ele>1049.5</ele>
        <time>2018-11-28T02:43:24Z</time>
      </trkpt>
      <trkpt lat="42.32442" lon="2.56102">
        <ele>1049.9</ele>
        <time>2018-11-28T02:43:29Z</time>
      </trkpt>
      <trkpt lat="42.32433" lon="2.56093">
        <ele>1051</ele>
        <time>2018-11-28T02:43:33Z</time>
      </trkpt>
      <trkpt lat="42.32429" lon="2.56088">
        <ele>1051.3</ele>
        <time>2018-11-28T02:43:36Z</time>
      </trkpt>
      <trkpt lat="42.32426" lon="2.56083">
        <ele>1051.3</ele>
        <time>2018-11-28T02:43:38Z</time>
      </trkpt>
      <trkpt lat="42.32423" lon="2.56082">
        <ele>1051.8</ele>
        <time>2018-11-28T02:43:39Z</time>
      </trkpt>
      <trkpt lat="42.32409" lon="2.56072">
        <ele>1053.3</ele>
        <time>2018-11-28T02:43:45Z</time>
      </trkpt>
      <trkpt lat="42.32393" lon="2.56077">
        <ele>1054.7</ele>
        <time>2018-11-28T02:43:52Z</time>
      </trkpt>
      <trkpt lat="42.32388" lon="2.56081">
        <ele>1054.8</ele>
        <time>2018-11-28T02:43:54Z</time>
      </trkpt>
      <trkpt lat="42.32377" lon="2.56094">
        <ele>1056.3</ele>
        <time>2018-11-28T02:44:00Z</time>
      </trkpt>
      <trkpt lat="42.32361" lon="2.56099">
        <ele>1058.2</ele>
        <time>2018-11-28T02:44:06Z</time>
      </trkpt>
      <trkpt lat="42.32346" lon="2.56098">
        <ele>1059.1</ele>
        <time>2018-11-28T02:44:12Z</time>
      </trkpt>
      <trkpt lat="42.32341" lon="2.561">
        <ele>1058.6</ele>
        <time>2018-11-28T02:44:15Z</time>
      </trkpt>
      <trkpt lat="42.32339" lon="2.56113">
        <ele>1057.2</ele>
        <time>2018-11-28T02:44:18Z</time>
      </trkpt>
      <trkpt lat="42.32339" lon="2.56115">
        <ele>1056.2</ele>
        <time>2018-11-28T02:44:19Z</time>
      </trkpt>
      <trkpt lat="42.32339" lon="2.56115">
        <ele>1056.2</ele>
        <time>2018-11-28T02:44:19Z</time>
      </trkpt>
      <trkpt lat="42.32339" lon="2.56115">
        <ele>1056.2</ele>
        <time>2018-11-28T02:44:19Z</time>
      </trkpt>
      <trkpt lat="42.32338" lon="2.56117">
        <ele>1056.6</ele>
        <time>2018-11-28T02:44:20Z</time>
      </trkpt>
      <trkpt lat="42.32335" lon="2.56133">
        <ele>1054.8</ele>
        <time>2018-11-28T02:44:25Z</time>
      </trkpt>
      <trkpt lat="42.32335" lon="2.56145">
        <ele>1053.8</ele>
        <time>2018-11-28T02:44:28Z</time>
      </trkpt>
      <trkpt lat="42.32335" lon="2.56163">
        <ele>1051.8</ele>
        <time>2018-11-28T02:44:34Z</time>
      </trkpt>
      <trkpt lat="42.32332" lon="2.56178">
        <ele>1051</ele>
        <time>2018-11-28T02:44:38Z</time>
      </trkpt>
      <trkpt lat="42.3232" lon="2.56193">
        <ele>1050.4</ele>
        <time>2018-11-28T02:44:45Z</time>
      </trkpt>
      <trkpt lat="42.32315" lon="2.56219">
        <ele>1048.6</ele>
        <time>2018-11-28T02:44:53Z</time>
      </trkpt>
      <trkpt lat="42.32314" lon="2.56221">
        <ele>1049</ele>
        <time>2018-11-28T02:44:53Z</time>
      </trkpt>
      <trkpt lat="42.32308" lon="2.5623">
        <ele>1050.4</ele>
        <time>2018-11-28T02:44:57Z</time>
      </trkpt>
      <trkpt lat="42.32306" lon="2.56233">
        <ele>1050.9</ele>
        <time>2018-11-28T02:44:58Z</time>
      </trkpt>
      <trkpt lat="42.32301" lon="2.56243">
        <ele>1048.5</ele>
        <time>2018-11-28T02:45:02Z</time>
      </trkpt>
      <trkpt lat="42.32296" lon="2.56262">
        <ele>1047.5</ele>
        <time>2018-11-28T02:45:08Z</time>
      </trkpt>
      <trkpt lat="42.32296" lon="2.56262">
        <ele>1047.5</ele>
        <time>2018-11-28T02:45:08Z</time>
      </trkpt>
      <trkpt lat="42.32294" lon="2.56267">
        <ele>1046.1</ele>
        <time>2018-11-28T02:45:10Z</time>
      </trkpt>
      <trkpt lat="42.32294" lon="2.5627">
        <ele>1046.2</ele>
        <time>2018-11-28T02:45:10Z</time>
      </trkpt>
      <trkpt lat="42.32292" lon="2.56285">
        <ele>1046.5</ele>
        <time>2018-11-28T02:45:15Z</time>
      </trkpt>
      <trkpt lat="42.32291" lon="2.56303">
        <ele>1047.5</ele>
        <time>2018-11-28T02:45:20Z</time>
      </trkpt>
      <trkpt lat="42.32279" lon="2.56322">
        <ele>1047</ele>
        <time>2018-11-28T02:45:28Z</time>
      </trkpt>
      <trkpt lat="42.32264" lon="2.56336">
        <ele>1047.5</ele>
        <time>2018-11-28T02:45:35Z</time>
      </trkpt>
      <trkpt lat="42.32259" lon="2.56349">
        <ele>1048</ele>
        <time>2018-11-28T02:45:39Z</time>
      </trkpt>
      <trkpt lat="42.32247" lon="2.56367">
        <ele>1047.6</ele>
        <time>2018-11-28T02:45:46Z</time>
      </trkpt>
      <trkpt lat="42.32244" lon="2.56378">
        <ele>1047.1</ele>
        <time>2018-11-28T02:45:50Z</time>
      </trkpt>
      <trkpt lat="42.32248" lon="2.56388">
        <ele>1045.2</ele>
        <time>2018-11-28T02:45:53Z</time>
      </trkpt>
      <trkpt lat="42.32249" lon="2.564">
        <ele>1043.7</ele>
        <time>2018-11-28T02:45:57Z</time>
      </trkpt>
      <trkpt lat="42.32243" lon="2.56415">
        <ele>1043.2</ele>
        <time>2018-11-28T02:46:02Z</time>
      </trkpt>
      <trkpt lat="42.32231" lon="2.56433">
        <ele>1041.8</ele>
        <time>2018-11-28T02:46:09Z</time>
      </trkpt>
      <trkpt lat="42.32231" lon="2.56438">
        <ele>1041.3</ele>
        <time>2018-11-28T02:46:11Z</time>
      </trkpt>
      <trkpt lat="42.32231" lon="2.56438">
        <ele>1041.3</ele>
        <time>2018-11-28T02:46:11Z</time>
      </trkpt>
      <trkpt lat="42.32228" lon="2.56442">
        <ele>1040.8</ele>
        <time>2018-11-28T02:46:12Z</time>
      </trkpt>
      <trkpt lat="42.32223" lon="2.56442">
        <ele>1041.7</ele>
        <time>2018-11-28T02:46:14Z</time>
      </trkpt>
      <trkpt lat="42.32207" lon="2.56448">
        <ele>1039.8</ele>
        <time>2018-11-28T02:46:21Z</time>
      </trkpt>
      <trkpt lat="42.32206" lon="2.56454">
        <ele>1040.9</ele>
        <time>2018-11-28T02:46:22Z</time>
      </trkpt>
      <trkpt lat="42.32203" lon="2.56463">
        <ele>1042.3</ele>
        <time>2018-11-28T02:46:26Z</time>
      </trkpt>
      <trkpt lat="42.32201" lon="2.56468">
        <ele>1042.8</ele>
        <time>2018-11-28T02:46:27Z</time>
      </trkpt>
      <trkpt lat="42.32197" lon="2.56484">
        <ele>1043.8</ele>
        <time>2018-11-28T02:46:32Z</time>
      </trkpt>
      <trkpt lat="42.322" lon="2.56491">
        <ele>1044.1</ele>
        <time>2018-11-28T02:46:35Z</time>
      </trkpt>
      <trkpt lat="42.32203" lon="2.56495">
        <ele>1044.1</ele>
        <time>2018-11-28T02:46:36Z</time>
      </trkpt>
      <trkpt lat="42.32205" lon="2.565">
        <ele>1044.6</ele>
        <time>2018-11-28T02:46:38Z</time>
      </trkpt>
      <trkpt lat="42.32206" lon="2.56502">
        <ele>1045.2</ele>
        <time>2018-11-28T02:46:39Z</time>
      </trkpt>
      <trkpt lat="42.32215" lon="2.56515">
        <ele>1045.1</ele>
        <time>2018-11-28T02:46:44Z</time>
      </trkpt>
      <trkpt lat="42.32221" lon="2.56528">
        <ele>1044.6</ele>
        <time>2018-11-28T02:46:49Z</time>
      </trkpt>
      <trkpt lat="42.32225" lon="2.56542">
        <ele>1045.7</ele>
        <time>2018-11-28T02:46:53Z</time>
      </trkpt>
      <trkpt lat="42.32228" lon="2.56565">
        <ele>1046.1</ele>
        <time>2018-11-28T02:47:00Z</time>
      </trkpt>
      <trkpt lat="42.32232" lon="2.56581">
        <ele>1047</ele>
        <time>2018-11-28T02:47:05Z</time>
      </trkpt>
      <trkpt lat="42.32238" lon="2.56596">
        <ele>1047.5</ele>
        <time>2018-11-28T02:47:10Z</time>
      </trkpt>
      <trkpt lat="42.32238" lon="2.56597">
        <ele>1047</ele>
        <time>2018-11-28T02:47:10Z</time>
      </trkpt>
      <trkpt lat="42.32239" lon="2.56602">
        <ele>1047.1</ele>
        <time>2018-11-28T02:47:12Z</time>
      </trkpt>
      <trkpt lat="42.32245" lon="2.56614">
        <ele>1045.6</ele>
        <time>2018-11-28T02:47:16Z</time>
      </trkpt>
      <trkpt lat="42.32243" lon="2.56626">
        <ele>1043.2</ele>
        <time>2018-11-28T02:47:20Z</time>
      </trkpt>
      <trkpt lat="42.32243" lon="2.56638">
        <ele>1042.3</ele>
        <time>2018-11-28T02:47:23Z</time>
      </trkpt>
      <trkpt lat="42.32243" lon="2.56647">
        <ele>1040.9</ele>
        <time>2018-11-28T02:47:26Z</time>
      </trkpt>
      <trkpt lat="42.32244" lon="2.56662">
        <ele>1038.5</ele>
        <time>2018-11-28T02:47:30Z</time>
      </trkpt>
      <trkpt lat="42.32241" lon="2.56674">
        <ele>1036.4</ele>
        <time>2018-11-28T02:47:34Z</time>
      </trkpt>
      <trkpt lat="42.32242" lon="2.56688">
        <ele>1034.6</ele>
        <time>2018-11-28T02:47:38Z</time>
      </trkpt>
      <trkpt lat="42.32245" lon="2.56704">
        <ele>1032.7</ele>
        <time>2018-11-28T02:47:43Z</time>
      </trkpt>
      <trkpt lat="42.32245" lon="2.56706">
        <ele>1032.2</ele>
        <time>2018-11-28T02:47:44Z</time>
      </trkpt>
      <trkpt lat="42.32244" lon="2.56725">
        <ele>1029.3</ele>
        <time>2018-11-28T02:47:50Z</time>
      </trkpt>
      <trkpt lat="42.32245" lon="2.56738">
        <ele>1026.8</ele>
        <time>2018-11-28T02:47:54Z</time>
      </trkpt>
      <trkpt lat="42.32245" lon="2.56739">
        <ele>1027.8</ele>
        <time>2018-11-28T02:47:54Z</time>
      </trkpt>
      <trkpt lat="42.32245" lon="2.56739">
        <ele>1021.1</ele>
        <time>2018-11-28T02:47:54Z</time>
      </trkpt>
      <trkpt lat="42.32244" lon="2.56742">
        <ele>1025.4</ele>
        <time>2018-11-28T02:47:55Z</time>
      </trkpt>
      <trkpt lat="42.32246" lon="2.56751">
        <ele>1024.4</ele>
        <time>2018-11-28T02:47:57Z</time>
      </trkpt>
      <trkpt lat="42.32247" lon="2.56758">
        <ele>1023.1</ele>
        <time>2018-11-28T02:47:59Z</time>
      </trkpt>
      <trkpt lat="42.32246" lon="2.56771">
        <ele>1020.6</ele>
        <time>2018-11-28T02:48:04Z</time>
      </trkpt>
      <trkpt lat="42.32241" lon="2.56778">
        <ele>1019.7</ele>
        <time>2018-11-28T02:48:06Z</time>
      </trkpt>
      <trkpt lat="42.32239" lon="2.5678">
        <ele>1019.7</ele>
        <time>2018-11-28T02:48:07Z</time>
      </trkpt>
      <trkpt lat="42.32234" lon="2.56785">
        <ele>1017.7</ele>
        <time>2018-11-28T02:48:10Z</time>
      </trkpt>
      <trkpt lat="42.32228" lon="2.5679">
        <ele>1016.7</ele>
        <time>2018-11-28T02:48:13Z</time>
      </trkpt>
      <trkpt lat="42.32221" lon="2.56795">
        <ele>1014.9</ele>
        <time>2018-11-28T02:48:16Z</time>
      </trkpt>
      <trkpt lat="42.32221" lon="2.56806">
        <ele>1012.5</ele>
        <time>2018-11-28T02:48:19Z</time>
      </trkpt>
      <trkpt lat="42.32217" lon="2.56814">
        <ele>1011</ele>
        <time>2018-11-28T02:48:22Z</time>
      </trkpt>
      <trkpt lat="42.32216" lon="2.56824">
        <ele>1008.6</ele>
        <time>2018-11-28T02:48:25Z</time>
      </trkpt>
      <trkpt lat="42.32216" lon="2.56826">
        <ele>1008.1</ele>
        <time>2018-11-28T02:48:25Z</time>
      </trkpt>
      <trkpt lat="42.32214" lon="2.56834">
        <ele>1006.2</ele>
        <time>2018-11-28T02:48:28Z</time>
      </trkpt>
      <trkpt lat="42.32219" lon="2.56836">
        <ele>1004.3</ele>
        <time>2018-11-28T02:48:30Z</time>
      </trkpt>
      <trkpt lat="42.32225" lon="2.5683">
        <ele>1002.8</ele>
        <time>2018-11-28T02:48:33Z</time>
      </trkpt>
      <trkpt lat="42.32229" lon="2.56827">
        <ele>1002.3</ele>
        <time>2018-11-28T02:48:35Z</time>
      </trkpt>
      <trkpt lat="42.32237" lon="2.56826">
        <ele>1000.5</ele>
        <time>2018-11-28T02:48:38Z</time>
      </trkpt>
      <trkpt lat="42.32238" lon="2.56826">
        <ele>1000.5</ele>
        <time>2018-11-28T02:48:38Z</time>
      </trkpt>
      <trkpt lat="42.32246" lon="2.56828">
        <ele>998.1</ele>
        <time>2018-11-28T02:48:42Z</time>
      </trkpt>
      <trkpt lat="42.32253" lon="2.5683">
        <ele>997.1</ele>
        <time>2018-11-28T02:48:44Z</time>
      </trkpt>
      <trkpt lat="42.32266" lon="2.56838">
        <ele>994.2</ele>
        <time>2018-11-28T02:48:50Z</time>
      </trkpt>
      <trkpt lat="42.32266" lon="2.56838">
        <ele>994.6</ele>
        <time>2018-11-28T02:48:50Z</time>
      </trkpt>
      <trkpt lat="42.32265" lon="2.56838">
        <ele>994.1</ele>
        <time>2018-11-28T02:48:50Z</time>
      </trkpt>
      <trkpt lat="42.32265" lon="2.56838">
        <ele>994.1</ele>
        <time>2018-11-28T02:48:51Z</time>
      </trkpt>
      <trkpt lat="42.32265" lon="2.56839">
        <ele>994.6</ele>
        <time>2018-11-28T02:48:51Z</time>
      </trkpt>
      <trkpt lat="42.32265" lon="2.56839">
        <ele>995.1</ele>
        <time>2018-11-28T02:48:51Z</time>
      </trkpt>
      <trkpt lat="42.32264" lon="2.56839">
        <ele>994.6</ele>
        <time>2018-11-28T02:48:51Z</time>
      </trkpt>
      <trkpt lat="42.32263" lon="2.56837">
        <ele>995.1</ele>
        <time>2018-11-28T02:48:52Z</time>
      </trkpt>
      <trkpt lat="42.32262" lon="2.56832">
        <ele>996.1</ele>
        <time>2018-11-28T02:48:53Z</time>
      </trkpt>
      <trkpt lat="42.32262" lon="2.56832">
        <ele>996.6</ele>
        <time>2018-11-28T02:48:53Z</time>
      </trkpt>
      <trkpt lat="42.32261" lon="2.56833">
        <ele>996.5</ele>
        <time>2018-11-28T02:48:54Z</time>
      </trkpt>
      <trkpt lat="42.32257" lon="2.56831">
        <ele>997.6</ele>
        <time>2018-11-28T02:48:55Z</time>
      </trkpt>
      <trkpt lat="42.32257" lon="2.5683">
        <ele>997.5</ele>
        <time>2018-11-28T02:48:55Z</time>
      </trkpt>
      <trkpt lat="42.32257" lon="2.5683">
        <ele>997</ele>
        <time>2018-11-28T02:48:55Z</time>
      </trkpt>
      <trkpt lat="42.32257" lon="2.5683">
        <ele>997.5</ele>
        <time>2018-11-28T02:48:55Z</time>
      </trkpt>
      <trkpt lat="42.32257" lon="2.56831">
        <ele>997.5</ele>
        <time>2018-11-28T02:48:55Z</time>
      </trkpt>
      <trkpt lat="42.32257" lon="2.56831">
        <ele>997.6</ele>
        <time>2018-11-28T02:48:55Z</time>
      </trkpt>
      <trkpt lat="42.32257" lon="2.56831">
        <ele>997.6</ele>
        <time>2018-11-28T02:48:55Z</time>
      </trkpt>
      <trkpt lat="42.32257" lon="2.56831">
        <ele>996.5</ele>
        <time>2018-11-28T02:48:55Z</time>
      </trkpt>
      <trkpt lat="42.32257" lon="2.56831">
        <ele>997.5</ele>
        <time>2018-11-28T02:48:55Z</time>
      </trkpt>
      <trkpt lat="42.32255" lon="2.56833">
        <ele>997.5</ele>
        <time>2018-11-28T02:48:56Z</time>
      </trkpt>
      <trkpt lat="42.3225" lon="2.56836">
        <ele>998</ele>
        <time>2018-11-28T02:48:59Z</time>
      </trkpt>
      <trkpt lat="42.3225" lon="2.56836">
        <ele>998.6</ele>
        <time>2018-11-28T02:48:59Z</time>
      </trkpt>
      <trkpt lat="42.32249" lon="2.56836">
        <ele>998.5</ele>
        <time>2018-11-28T02:48:59Z</time>
      </trkpt>
      <trkpt lat="42.32249" lon="2.56836">
        <ele>999.1</ele>
        <time>2018-11-28T02:48:59Z</time>
      </trkpt>
      <trkpt lat="42.32249" lon="2.56836">
        <ele>999</ele>
        <time>2018-11-28T02:48:59Z</time>
      </trkpt>
      <trkpt lat="42.32248" lon="2.56837">
        <ele>999.4</ele>
        <time>2018-11-28T02:49:00Z</time>
      </trkpt>
      <trkpt lat="42.32239" lon="2.56838">
        <ele>999</ele>
        <time>2018-11-28T02:49:03Z</time>
      </trkpt>
      <trkpt lat="42.32231" lon="2.56838">
        <ele>998.1</ele>
        <time>2018-11-28T02:49:06Z</time>
      </trkpt>
      <trkpt lat="42.32223" lon="2.56842">
        <ele>998.6</ele>
        <time>2018-11-28T02:49:10Z</time>
      </trkpt>
      <trkpt lat="42.32213" lon="2.5685">
        <ele>1000</ele>
        <time>2018-11-28T02:49:14Z</time>
      </trkpt>
      <trkpt lat="42.32202" lon="2.56861">
        <ele>1001.5</ele>
        <time>2018-11-28T02:49:20Z</time>
      </trkpt>
      <trkpt lat="42.32201" lon="2.56864">
        <ele>1000.5</ele>
        <time>2018-11-28T02:49:21Z</time>
      </trkpt>
      <trkpt lat="42.322" lon="2.56866">
        <ele>1001.5</ele>
        <time>2018-11-28T02:49:22Z</time>
      </trkpt>
      <trkpt lat="42.32198" lon="2.56869">
        <ele>1000.5</ele>
        <time>2018-11-28T02:49:23Z</time>
      </trkpt>
      <trkpt lat="42.3219" lon="2.56878">
        <ele>1002.4</ele>
        <time>2018-11-28T02:49:27Z</time>
      </trkpt>
      <trkpt lat="42.32174" lon="2.56879">
        <ele>1003.8</ele>
        <time>2018-11-28T02:49:33Z</time>
      </trkpt>
      <trkpt lat="42.32165" lon="2.56872">
        <ele>1006.3</ele>
        <time>2018-11-28T02:49:37Z</time>
      </trkpt>
      <trkpt lat="42.32162" lon="2.5687">
        <ele>1007.1</ele>
        <time>2018-11-28T02:49:38Z</time>
      </trkpt>
      <trkpt lat="42.3215" lon="2.56855">
        <ele>1008.1</ele>
        <time>2018-11-28T02:49:45Z</time>
      </trkpt>
      <trkpt lat="42.32137" lon="2.56845">
        <ele>1007.2</ele>
        <time>2018-11-28T02:49:51Z</time>
      </trkpt>
      <trkpt lat="42.32116" lon="2.56849">
        <ele>1008.2</ele>
        <time>2018-11-28T02:50:00Z</time>
      </trkpt>
      <trkpt lat="42.32102" lon="2.56852">
        <ele>1011.5</ele>
        <time>2018-11-28T02:50:05Z</time>
      </trkpt>
      <trkpt lat="42.32096" lon="2.56854">
        <ele>1014</ele>
        <time>2018-11-28T02:50:08Z</time>
      </trkpt>
      <trkpt lat="42.32087" lon="2.56853">
        <ele>1015.3</ele>
        <time>2018-11-28T02:50:12Z</time>
      </trkpt>
      <trkpt lat="42.32084" lon="2.56876">
        <ele>1014.9</ele>
        <time>2018-11-28T02:50:18Z</time>
      </trkpt>
      <trkpt lat="42.32082" lon="2.56891">
        <ele>1013.5</ele>
        <time>2018-11-28T02:50:23Z</time>
      </trkpt>
      <trkpt lat="42.32083" lon="2.569">
        <ele>1012</ele>
        <time>2018-11-28T02:50:26Z</time>
      </trkpt>
      <trkpt lat="42.32085" lon="2.56922">
        <ele>1010.6</ele>
        <time>2018-11-28T02:50:32Z</time>
      </trkpt>
      <trkpt lat="42.32085" lon="2.56938">
        <ele>1008.1</ele>
        <time>2018-11-28T02:50:37Z</time>
      </trkpt>
      <trkpt lat="42.32085" lon="2.56971">
        <ele>1006.2</ele>
        <time>2018-11-28T02:50:47Z</time>
      </trkpt>
      <trkpt lat="42.32075" lon="2.56973">
        <ele>1004.7</ele>
        <time>2018-11-28T02:50:50Z</time>
      </trkpt>
      <trkpt lat="42.32054" lon="2.56991">
        <ele>1003.8</ele>
        <time>2018-11-28T02:51:01Z</time>
      </trkpt>
      <trkpt lat="42.32051" lon="2.56996">
        <ele>1003.3</ele>
        <time>2018-11-28T02:51:02Z</time>
      </trkpt>
      <trkpt lat="42.32047" lon="2.57014">
        <ele>1003.3</ele>
        <time>2018-11-28T02:51:08Z</time>
      </trkpt>
      <trkpt lat="42.32045" lon="2.57022">
        <ele>1004.8</ele>
        <time>2018-11-28T02:51:10Z</time>
      </trkpt>
      <trkpt lat="42.32044" lon="2.57026">
        <ele>1005.2</ele>
        <time>2018-11-28T02:51:12Z</time>
      </trkpt>
      <trkpt lat="42.32038" lon="2.57046">
        <ele>1007.7</ele>
        <time>2018-11-28T02:51:18Z</time>
      </trkpt>
      <trkpt lat="42.32036" lon="2.57049">
        <ele>1008.7</ele>
        <time>2018-11-28T02:51:19Z</time>
      </trkpt>
      <trkpt lat="42.32026" lon="2.57055">
        <ele>1011.1</ele>
        <time>2018-11-28T02:51:24Z</time>
      </trkpt>
      <trkpt lat="42.32024" lon="2.57055">
        <ele>1012.4</ele>
        <time>2018-11-28T02:51:25Z</time>
      </trkpt>
      <trkpt lat="42.32024" lon="2.57055">
        <ele>1011.5</ele>
        <time>2018-11-28T02:51:25Z</time>
      </trkpt>
      <trkpt lat="42.32023" lon="2.57055">
        <ele>1012.4</ele>
        <time>2018-11-28T02:51:25Z</time>
      </trkpt>
      <trkpt lat="42.32023" lon="2.57055">
        <ele>1011.9</ele>
        <time>2018-11-28T02:51:25Z</time>
      </trkpt>
      <trkpt lat="42.32019" lon="2.57054">
        <ele>1011.5</ele>
        <time>2018-11-28T02:51:26Z</time>
      </trkpt>
      <trkpt lat="42.32019" lon="2.57054">
        <ele>1010</ele>
        <time>2018-11-28T02:51:27Z</time>
      </trkpt>
      <trkpt lat="42.32014" lon="2.57049">
        <ele>1009.1</ele>
        <time>2018-11-28T02:51:29Z</time>
      </trkpt>
      <trkpt lat="42.32006" lon="2.57045">
        <ele>1006.2</ele>
        <time>2018-11-28T02:51:32Z</time>
      </trkpt>
      <trkpt lat="42.31997" lon="2.5704">
        <ele>1004.7</ele>
        <time>2018-11-28T02:51:36Z</time>
      </trkpt>
      <trkpt lat="42.31982" lon="2.57043">
        <ele>1002.4</ele>
        <time>2018-11-28T02:51:42Z</time>
      </trkpt>
      <trkpt lat="42.31974" lon="2.57045">
        <ele>1000.4</ele>
        <time>2018-11-28T02:51:46Z</time>
      </trkpt>
      <trkpt lat="42.31963" lon="2.57043">
        <ele>999.5</ele>
        <time>2018-11-28T02:51:50Z</time>
      </trkpt>
      <trkpt lat="42.31949" lon="2.57034">
        <ele>998.6</ele>
        <time>2018-11-28T02:51:56Z</time>
      </trkpt>
      <trkpt lat="42.31937" lon="2.57029">
        <ele>998.5</ele>
        <time>2018-11-28T02:52:01Z</time>
      </trkpt>
      <trkpt lat="42.31934" lon="2.57026">
        <ele>999</ele>
        <time>2018-11-28T02:52:03Z</time>
      </trkpt>
      <trkpt lat="42.31933" lon="2.57022">
        <ele>998.5</ele>
        <time>2018-11-28T02:52:04Z</time>
      </trkpt>
      <trkpt lat="42.31931" lon="2.57014">
        <ele>999.9</ele>
        <time>2018-11-28T02:52:07Z</time>
      </trkpt>
      <trkpt lat="42.31929" lon="2.56996">
        <ele>1000.4</ele>
        <time>2018-11-28T02:52:12Z</time>
      </trkpt>
      <trkpt lat="42.31929" lon="2.5699">
        <ele>999.5</ele>
        <time>2018-11-28T02:52:14Z</time>
      </trkpt>
      <trkpt lat="42.31927" lon="2.56983">
        <ele>999.5</ele>
        <time>2018-11-28T02:52:16Z</time>
      </trkpt>
      <trkpt lat="42.31925" lon="2.5697">
        <ele>997.5</ele>
        <time>2018-11-28T02:52:20Z</time>
      </trkpt>
      <trkpt lat="42.31925" lon="2.56967">
        <ele>997.6</ele>
        <time>2018-11-28T02:52:21Z</time>
      </trkpt>
      <trkpt lat="42.31925" lon="2.56967">
        <ele>997.6</ele>
        <time>2018-11-28T02:52:21Z</time>
      </trkpt>
      <trkpt lat="42.31924" lon="2.56968">
        <ele>998</ele>
        <time>2018-11-28T02:52:21Z</time>
      </trkpt>
      <trkpt lat="42.31924" lon="2.56968">
        <ele>998.6</ele>
        <time>2018-11-28T02:52:21Z</time>
      </trkpt>
      <trkpt lat="42.31924" lon="2.56968">
        <ele>998.1</ele>
        <time>2018-11-28T02:52:21Z</time>
      </trkpt>
      <trkpt lat="42.31924" lon="2.56968">
        <ele>998</ele>
        <time>2018-11-28T02:52:21Z</time>
      </trkpt>
      <trkpt lat="42.31924" lon="2.56968">
        <ele>998.5</ele>
        <time>2018-11-28T02:52:22Z</time>
      </trkpt>
      <trkpt lat="42.31924" lon="2.56969">
        <ele>998.6</ele>
        <time>2018-11-28T02:52:22Z</time>
      </trkpt>
      <trkpt lat="42.31923" lon="2.56969">
        <ele>996.5</ele>
        <time>2018-11-28T02:52:22Z</time>
      </trkpt>
      <trkpt lat="42.31923" lon="2.56969">
        <ele>998.6</ele>
        <time>2018-11-28T02:52:22Z</time>
      </trkpt>
      <trkpt lat="42.31923" lon="2.56969">
        <ele>994.7</ele>
        <time>2018-11-28T02:52:22Z</time>
      </trkpt>
      <trkpt lat="42.31923" lon="2.56969">
        <ele>998.6</ele>
        <time>2018-11-28T02:52:22Z</time>
      </trkpt>
      <trkpt lat="42.31922" lon="2.5697">
        <ele>998.1</ele>
        <time>2018-11-28T02:52:23Z</time>
      </trkpt>
      <trkpt lat="42.31921" lon="2.56973">
        <ele>998</ele>
        <time>2018-11-28T02:52:24Z</time>
      </trkpt>
      <trkpt lat="42.31921" lon="2.56973">
        <ele>998</ele>
        <time>2018-11-28T02:52:24Z</time>
      </trkpt>
      <trkpt lat="42.31921" lon="2.56981">
        <ele>995.1</ele>
        <time>2018-11-28T02:52:26Z</time>
      </trkpt>
      <trkpt lat="42.3192" lon="2.56991">
        <ele>992.7</ele>
        <time>2018-11-28T02:52:29Z</time>
      </trkpt>
      <trkpt lat="42.31917" lon="2.56999">
        <ele>992.2</ele>
        <time>2018-11-28T02:52:32Z</time>
      </trkpt>
      <trkpt lat="42.31915" lon="2.57004">
        <ele>989.8</ele>
        <time>2018-11-28T02:52:33Z</time>
      </trkpt>
      <trkpt lat="42.31914" lon="2.57019">
        <ele>988.5</ele>
        <time>2018-11-28T02:52:38Z</time>
      </trkpt>
      <trkpt lat="42.31914" lon="2.57026">
        <ele>988.5</ele>
        <time>2018-11-28T02:52:40Z</time>
      </trkpt>
      <trkpt lat="42.31918" lon="2.5704">
        <ele>986.6</ele>
        <time>2018-11-28T02:52:44Z</time>
      </trkpt>
      <trkpt lat="42.31923" lon="2.5705">
        <ele>985.6</ele>
        <time>2018-11-28T02:52:48Z</time>
      </trkpt>
      <trkpt lat="42.31926" lon="2.57054">
        <ele>984.6</ele>
        <time>2018-11-28T02:52:49Z</time>
      </trkpt>
      <trkpt lat="42.31923" lon="2.57055">
        <ele>982.2</ele>
        <time>2018-11-28T02:52:50Z</time>
      </trkpt>
      <trkpt lat="42.31914" lon="2.57054">
        <ele>980.8</ele>
        <time>2018-11-28T02:52:54Z</time>
      </trkpt>
      <trkpt lat="42.31903" lon="2.57045">
        <ele>977.9</ele>
        <time>2018-11-28T02:52:59Z</time>
      </trkpt>
      <trkpt lat="42.31898" lon="2.57039">
        <ele>975.9</ele>
        <time>2018-11-28T02:53:02Z</time>
      </trkpt>
      <trkpt lat="42.31896" lon="2.57033">
        <ele>974.5</ele>
        <time>2018-11-28T02:53:04Z</time>
      </trkpt>
      <trkpt lat="42.31895" lon="2.57048">
        <ele>972</ele>
        <time>2018-11-28T02:53:09Z</time>
      </trkpt>
      <trkpt lat="42.319" lon="2.57069">
        <ele>972</ele>
        <time>2018-11-28T02:53:15Z</time>
      </trkpt>
      <trkpt lat="42.31905" lon="2.57073">
        <ele>971.1</ele>
        <time>2018-11-28T02:53:17Z</time>
      </trkpt>
      <trkpt lat="42.31915" lon="2.57081">
        <ele>969.3</ele>
        <time>2018-11-28T02:53:22Z</time>
      </trkpt>
      <trkpt lat="42.31926" lon="2.57091">
        <ele>966.7</ele>
        <time>2018-11-28T02:53:27Z</time>
      </trkpt>
      <trkpt lat="42.31934" lon="2.57101">
        <ele>965.4</ele>
        <time>2018-11-28T02:53:32Z</time>
      </trkpt>
      <trkpt lat="42.31941" lon="2.57107">
        <ele>962.4</ele>
        <time>2018-11-28T02:53:35Z</time>
      </trkpt>
      <trkpt lat="42.3195" lon="2.57116">
        <ele>961.1</ele>
        <time>2018-11-28T02:53:39Z</time>
      </trkpt>
      <trkpt lat="42.31955" lon="2.57121">
        <ele>959.6</ele>
        <time>2018-11-28T02:53:42Z</time>
      </trkpt>
      <trkpt lat="42.31959" lon="2.57128">
        <ele>957.1</ele>
        <time>2018-11-28T02:53:44Z</time>
      </trkpt>
      <trkpt lat="42.31965" lon="2.57132">
        <ele>955.7</ele>
        <time>2018-11-28T02:53:47Z</time>
      </trkpt>
      <trkpt lat="42.31966" lon="2.57135">
        <ele>953.4</ele>
        <time>2018-11-28T02:53:48Z</time>
      </trkpt>
      <trkpt lat="42.31964" lon="2.57136">
        <ele>950.9</ele>
        <time>2018-11-28T02:53:49Z</time>
      </trkpt>
      <trkpt lat="42.31962" lon="2.57133">
        <ele>949</ele>
        <time>2018-11-28T02:53:50Z</time>
      </trkpt>
      <trkpt lat="42.31958" lon="2.57131">
        <ele>946.1</ele>
        <time>2018-11-28T02:53:52Z</time>
      </trkpt>
      <trkpt lat="42.31955" lon="2.57129">
        <ele>944.7</ele>
        <time>2018-11-28T02:53:53Z</time>
      </trkpt>
      <trkpt lat="42.31954" lon="2.57128">
        <ele>944.2</ele>
        <time>2018-11-28T02:53:54Z</time>
      </trkpt>
      <trkpt lat="42.3195" lon="2.57123">
        <ele>943.2</ele>
        <time>2018-11-28T02:53:56Z</time>
      </trkpt>
      <trkpt lat="42.31949" lon="2.57122">
        <ele>940.8</ele>
        <time>2018-11-28T02:53:57Z</time>
      </trkpt>
      <trkpt lat="42.31945" lon="2.57119">
        <ele>938.4</ele>
        <time>2018-11-28T02:53:58Z</time>
      </trkpt>
      <trkpt lat="42.31939" lon="2.57119">
        <ele>936</ele>
        <time>2018-11-28T02:54:01Z</time>
      </trkpt>
      <trkpt lat="42.31927" lon="2.57119">
        <ele>933.6</ele>
        <time>2018-11-28T02:54:05Z</time>
      </trkpt>
      <trkpt lat="42.31921" lon="2.57119">
        <ele>932.1</ele>
        <time>2018-11-28T02:54:08Z</time>
      </trkpt>
      <trkpt lat="42.31908" lon="2.57123">
        <ele>930.7</ele>
        <time>2018-11-28T02:54:13Z</time>
      </trkpt>
      <trkpt lat="42.31901" lon="2.57123">
        <ele>931.2</ele>
        <time>2018-11-28T02:54:16Z</time>
      </trkpt>
      <trkpt lat="42.31897" lon="2.57122">
        <ele>931.2</ele>
        <time>2018-11-28T02:54:18Z</time>
      </trkpt>
      <trkpt lat="42.31892" lon="2.57121">
        <ele>931.3</ele>
        <time>2018-11-28T02:54:20Z</time>
      </trkpt>
      <trkpt lat="42.31886" lon="2.57124">
        <ele>929.7</ele>
        <time>2018-11-28T02:54:22Z</time>
      </trkpt>
      <trkpt lat="42.31883" lon="2.57125">
        <ele>929.4</ele>
        <time>2018-11-28T02:54:23Z</time>
      </trkpt>
      <trkpt lat="42.31877" lon="2.57124">
        <ele>928.9</ele>
        <time>2018-11-28T02:54:26Z</time>
      </trkpt>
      <trkpt lat="42.31872" lon="2.57121">
        <ele>927.3</ele>
        <time>2018-11-28T02:54:28Z</time>
      </trkpt>
      <trkpt lat="42.31868" lon="2.57113">
        <ele>926.4</ele>
        <time>2018-11-28T02:54:31Z</time>
      </trkpt>
      <trkpt lat="42.31867" lon="2.57109">
        <ele>927</ele>
        <time>2018-11-28T02:54:32Z</time>
      </trkpt>
      <trkpt lat="42.31866" lon="2.57107">
        <ele>926</ele>
        <time>2018-11-28T02:54:33Z</time>
      </trkpt>
      <trkpt lat="42.3186" lon="2.57105">
        <ele>924.6</ele>
        <time>2018-11-28T02:54:35Z</time>
      </trkpt>
      <trkpt lat="42.31858" lon="2.57105">
        <ele>924.5</ele>
        <time>2018-11-28T02:54:36Z</time>
      </trkpt>
      <trkpt lat="42.31859" lon="2.57106">
        <ele>924.5</ele>
        <time>2018-11-28T02:54:36Z</time>
      </trkpt>
      <trkpt lat="42.31856" lon="2.57105">
        <ele>923.5</ele>
        <time>2018-11-28T02:54:37Z</time>
      </trkpt>
      <trkpt lat="42.31848" lon="2.57105">
        <ele>922</ele>
        <time>2018-11-28T02:54:40Z</time>
      </trkpt>
      <trkpt lat="42.3184" lon="2.57106">
        <ele>919.2</ele>
        <time>2018-11-28T02:54:43Z</time>
      </trkpt>
      <trkpt lat="42.31838" lon="2.57098">
        <ele>917.2</ele>
        <time>2018-11-28T02:54:46Z</time>
      </trkpt>
      <trkpt lat="42.3184" lon="2.57096">
        <ele>914.5</ele>
        <time>2018-11-28T02:54:47Z</time>
      </trkpt>
      <trkpt lat="42.31835" lon="2.57097">
        <ele>911.5</ele>
        <time>2018-11-28T02:54:49Z</time>
      </trkpt>
      <trkpt lat="42.31831" lon="2.57095">
        <ele>909.1</ele>
        <time>2018-11-28T02:54:50Z</time>
      </trkpt>
      <trkpt lat="42.31829" lon="2.57093">
        <ele>906.7</ele>
        <time>2018-11-28T02:54:51Z</time>
      </trkpt>
      <trkpt lat="42.31826" lon="2.57095">
        <ele>904.8</ele>
        <time>2018-11-28T02:54:53Z</time>
      </trkpt>
      <trkpt lat="42.31825" lon="2.57104">
        <ele>903.4</ele>
        <time>2018-11-28T02:54:55Z</time>
      </trkpt>
      <trkpt lat="42.31824" lon="2.57109">
        <ele>901.4</ele>
        <time>2018-11-28T02:54:57Z</time>
      </trkpt>
      <trkpt lat="42.31823" lon="2.57111">
        <ele>899.9</ele>
        <time>2018-11-28T02:54:57Z</time>
      </trkpt>
      <trkpt lat="42.3182" lon="2.57114">
        <ele>897.5</ele>
        <time>2018-11-28T02:54:59Z</time>
      </trkpt>
      <trkpt lat="42.31819" lon="2.57122">
        <ele>895.1</ele>
        <time>2018-11-28T02:55:01Z</time>
      </trkpt>
      <trkpt lat="42.31818" lon="2.57124">
        <ele>893.2</ele>
        <time>2018-11-28T02:55:02Z</time>
      </trkpt>
      <trkpt lat="42.31815" lon="2.57127">
        <ele>890.8</ele>
        <time>2018-11-28T02:55:04Z</time>
      </trkpt>
      <trkpt lat="42.31814" lon="2.57128">
        <ele>889.9</ele>
        <time>2018-11-28T02:55:04Z</time>
      </trkpt>
      <trkpt lat="42.31814" lon="2.57128">
        <ele>890.3</ele>
        <time>2018-11-28T02:55:04Z</time>
      </trkpt>
      <trkpt lat="42.3181" lon="2.57128">
        <ele>888.5</ele>
        <time>2018-11-28T02:55:06Z</time>
      </trkpt>
      <trkpt lat="42.31807" lon="2.57122">
        <ele>887.1</ele>
        <time>2018-11-28T02:55:08Z</time>
      </trkpt>
      <trkpt lat="42.31806" lon="2.57111">
        <ele>884.7</ele>
        <time>2018-11-28T02:55:11Z</time>
      </trkpt>
      <trkpt lat="42.31805" lon="2.57108">
        <ele>883.1</ele>
        <time>2018-11-28T02:55:12Z</time>
      </trkpt>
      <trkpt lat="42.31805" lon="2.57105">
        <ele>881.7</ele>
        <time>2018-11-28T02:55:13Z</time>
      </trkpt>
      <trkpt lat="42.31804" lon="2.57104">
        <ele>880.2</ele>
        <time>2018-11-28T02:55:14Z</time>
      </trkpt>
      <trkpt lat="42.31804" lon="2.57099">
        <ele>877.8</ele>
        <time>2018-11-28T02:55:15Z</time>
      </trkpt>
      <trkpt lat="42.31801" lon="2.57105">
        <ele>876.4</ele>
        <time>2018-11-28T02:55:17Z</time>
      </trkpt>
      <trkpt lat="42.31801" lon="2.57106">
        <ele>874.6</ele>
        <time>2018-11-28T02:55:17Z</time>
      </trkpt>
      <trkpt lat="42.31799" lon="2.57108">
        <ele>872.1</ele>
        <time>2018-11-28T02:55:18Z</time>
      </trkpt>
      <trkpt lat="42.31796" lon="2.57112">
        <ele>868.8</ele>
        <time>2018-11-28T02:55:20Z</time>
      </trkpt>
      <trkpt lat="42.31789" lon="2.5711">
        <ele>865.9</ele>
        <time>2018-11-28T02:55:23Z</time>
      </trkpt>
      <trkpt lat="42.31788" lon="2.57105">
        <ele>864.5</ele>
        <time>2018-11-28T02:55:24Z</time>
      </trkpt>
      <trkpt lat="42.31785" lon="2.57102">
        <ele>863</ele>
        <time>2018-11-28T02:55:26Z</time>
      </trkpt>
      <trkpt lat="42.31786" lon="2.57091">
        <ele>860.6</ele>
        <time>2018-11-28T02:55:29Z</time>
      </trkpt>
      <trkpt lat="42.31785" lon="2.57082">
        <ele>859.1</ele>
        <time>2018-11-28T02:55:32Z</time>
      </trkpt>
      <trkpt lat="42.31782" lon="2.57078">
        <ele>858.1</ele>
        <time>2018-11-28T02:55:33Z</time>
      </trkpt>
      <trkpt lat="42.31775" lon="2.57078">
        <ele>857.6</ele>
        <time>2018-11-28T02:55:36Z</time>
      </trkpt>
      <trkpt lat="42.3177" lon="2.57077">
        <ele>859.6</ele>
        <time>2018-11-28T02:55:38Z</time>
      </trkpt>
      <trkpt lat="42.31765" lon="2.57074">
        <ele>858.6</ele>
        <time>2018-11-28T02:55:40Z</time>
      </trkpt>
      <trkpt lat="42.31764" lon="2.57074">
        <ele>857.3</ele>
        <time>2018-11-28T02:55:41Z</time>
      </trkpt>
      <trkpt lat="42.31764" lon="2.57075">
        <ele>858.2</ele>
        <time>2018-11-28T02:55:41Z</time>
      </trkpt>
      <trkpt lat="42.31764" lon="2.57075">
        <ele>858.2</ele>
        <time>2018-11-28T02:55:41Z</time>
      </trkpt>
      <trkpt lat="42.31763" lon="2.57076">
        <ele>858.2</ele>
        <time>2018-11-28T02:55:42Z</time>
      </trkpt>
      <trkpt lat="42.31763" lon="2.57076">
        <ele>858.6</ele>
        <time>2018-11-28T02:55:42Z</time>
      </trkpt>
      <trkpt lat="42.31763" lon="2.57076">
        <ele>858.6</ele>
        <time>2018-11-28T02:55:42Z</time>
      </trkpt>
      <trkpt lat="42.31763" lon="2.57077">
        <ele>858.7</ele>
        <time>2018-11-28T02:55:42Z</time>
      </trkpt>
      <trkpt lat="42.31763" lon="2.57077">
        <ele>858.1</ele>
        <time>2018-11-28T02:55:42Z</time>
      </trkpt>
      <trkpt lat="42.31763" lon="2.57077">
        <ele>857.6</ele>
        <time>2018-11-28T02:55:42Z</time>
      </trkpt>
      <trkpt lat="42.31762" lon="2.57078">
        <ele>858.6</ele>
        <time>2018-11-28T02:55:42Z</time>
      </trkpt>
      <trkpt lat="42.31762" lon="2.57078">
        <ele>858.6</ele>
        <time>2018-11-28T02:55:42Z</time>
      </trkpt>
      <trkpt lat="42.31761" lon="2.57079">
        <ele>856.2</ele>
        <time>2018-11-28T02:55:43Z</time>
      </trkpt>
      <trkpt lat="42.31761" lon="2.57079">
        <ele>856.3</ele>
        <time>2018-11-28T02:55:43Z</time>
      </trkpt>
      <trkpt lat="42.31759" lon="2.57082">
        <ele>857.2</ele>
        <time>2018-11-28T02:55:44Z</time>
      </trkpt>
      <trkpt lat="42.31759" lon="2.57081">
        <ele>857.7</ele>
        <time>2018-11-28T02:55:44Z</time>
      </trkpt>
      <trkpt lat="42.31758" lon="2.57082">
        <ele>857.6</ele>
        <time>2018-11-28T02:55:45Z</time>
      </trkpt>
      <trkpt lat="42.31757" lon="2.57082">
        <ele>856.8</ele>
        <time>2018-11-28T02:55:45Z</time>
      </trkpt>
      <trkpt lat="42.31753" lon="2.57079">
        <ele>857.7</ele>
        <time>2018-11-28T02:55:47Z</time>
      </trkpt>
      <trkpt lat="42.31753" lon="2.57079">
        <ele>857.2</ele>
        <time>2018-11-28T02:55:47Z</time>
      </trkpt>
      <trkpt lat="42.31753" lon="2.5708">
        <ele>856.8</ele>
        <time>2018-11-28T02:55:47Z</time>
      </trkpt>
      <trkpt lat="42.3175" lon="2.57075">
        <ele>854.4</ele>
        <time>2018-11-28T02:55:49Z</time>
      </trkpt>
      <trkpt lat="42.31743" lon="2.57069">
        <ele>851.9</ele>
        <time>2018-11-28T02:55:53Z</time>
      </trkpt>
      <trkpt lat="42.31742" lon="2.57065">
        <ele>849</ele>
        <time>2018-11-28T02:55:54Z</time>
      </trkpt>
      <trkpt lat="42.31742" lon="2.57062">
        <ele>847.2</ele>
        <time>2018-11-28T02:55:55Z</time>
      </trkpt>
      <trkpt lat="42.31742" lon="2.57059">
        <ele>845.6</ele>
        <time>2018-11-28T02:55:56Z</time>
      </trkpt>
      <trkpt lat="42.31742" lon="2.57059">
        <ele>845.6</ele>
        <time>2018-11-28T02:55:56Z</time>
      </trkpt>
      <trkpt lat="42.31742" lon="2.57059">
        <ele>842.7</ele>
        <time>2018-11-28T02:55:56Z</time>
      </trkpt>
      <trkpt lat="42.3174" lon="2.57062">
        <ele>840.4</ele>
        <time>2018-11-28T02:55:57Z</time>
      </trkpt>
      <trkpt lat="42.31738" lon="2.57061">
        <ele>837</ele>
        <time>2018-11-28T02:55:58Z</time>
      </trkpt>
      <trkpt lat="42.31737" lon="2.57059">
        <ele>836.1</ele>
        <time>2018-11-28T02:55:58Z</time>
      </trkpt>
      <trkpt lat="42.31734" lon="2.57062">
        <ele>833.1</ele>
        <time>2018-11-28T02:55:59Z</time>
      </trkpt>
      <trkpt lat="42.31736" lon="2.57072">
        <ele>830.2</ele>
        <time>2018-11-28T02:56:03Z</time>
      </trkpt>
      <trkpt lat="42.31738" lon="2.57086">
        <ele>827.5</ele>
        <time>2018-11-28T02:56:07Z</time>
      </trkpt>
      <trkpt lat="42.31739" lon="2.57097">
        <ele>825</ele>
        <time>2018-11-28T02:56:10Z</time>
      </trkpt>
      <trkpt lat="42.31742" lon="2.571">
        <ele>822.1</ele>
        <time>2018-11-28T02:56:12Z</time>
      </trkpt>
      <trkpt lat="42.31744" lon="2.57101">
        <ele>819.3</ele>
        <time>2018-11-28T02:56:12Z</time>
      </trkpt>
      <trkpt lat="42.31744" lon="2.57102">
        <ele>817.8</ele>
        <time>2018-11-28T02:56:13Z</time>
      </trkpt>
      <trkpt lat="42.31749" lon="2.57114">
        <ele>816.4</ele>
        <time>2018-11-28T02:56:17Z</time>
      </trkpt>
      <trkpt lat="42.31752" lon="2.57123">
        <ele>814</ele>
        <time>2018-11-28T02:56:20Z</time>
      </trkpt>
      <trkpt lat="42.31754" lon="2.57125">
        <ele>811.5</ele>
        <time>2018-11-28T02:56:21Z</time>
      </trkpt>
      <trkpt lat="42.31757" lon="2.57129">
        <ele>809.2</ele>
        <time>2018-11-28T02:56:22Z</time>
      </trkpt>
      <trkpt lat="42.31758" lon="2.57132">
        <ele>806.8</ele>
        <time>2018-11-28T02:56:23Z</time>
      </trkpt>
      <trkpt lat="42.31759" lon="2.57138">
        <ele>803.9</ele>
        <time>2018-11-28T02:56:25Z</time>
      </trkpt>
      <trkpt lat="42.31759" lon="2.57139">
        <ele>803.3</ele>
        <time>2018-11-28T02:56:26Z</time>
      </trkpt>
      <trkpt lat="42.31761" lon="2.57147">
        <ele>801</ele>
        <time>2018-11-28T02:56:28Z</time>
      </trkpt>
      <trkpt lat="42.3176" lon="2.5715">
        <ele>799.5</ele>
        <time>2018-11-28T02:56:29Z</time>
      </trkpt>
      <trkpt lat="42.31759" lon="2.57156">
        <ele>797.6</ele>
        <time>2018-11-28T02:56:31Z</time>
      </trkpt>
      <trkpt lat="42.3176" lon="2.57158">
        <ele>795.7</ele>
        <time>2018-11-28T02:56:32Z</time>
      </trkpt>
      <trkpt lat="42.3176" lon="2.57156">
        <ele>797.6</ele>
        <time>2018-11-28T02:56:32Z</time>
      </trkpt>
      <trkpt lat="42.31763" lon="2.57154">
        <ele>797.1</ele>
        <time>2018-11-28T02:56:34Z</time>
      </trkpt>
      <trkpt lat="42.31764" lon="2.57157">
        <ele>797.2</ele>
        <time>2018-11-28T02:56:35Z</time>
      </trkpt>
      <trkpt lat="42.31764" lon="2.57165">
        <ele>794.8</ele>
        <time>2018-11-28T02:56:37Z</time>
      </trkpt>
      <trkpt lat="42.31767" lon="2.57169">
        <ele>794.3</ele>
        <time>2018-11-28T02:56:39Z</time>
      </trkpt>
      <trkpt lat="42.31768" lon="2.5718">
        <ele>793.2</ele>
        <time>2018-11-28T02:56:42Z</time>
      </trkpt>
      <trkpt lat="42.31768" lon="2.5718">
        <ele>792.4</ele>
        <time>2018-11-28T02:56:42Z</time>
      </trkpt>
      <trkpt lat="42.31766" lon="2.5718">
        <ele>792.8</ele>
        <time>2018-11-28T02:56:42Z</time>
      </trkpt>
      <trkpt lat="42.31766" lon="2.5718">
        <ele>792.8</ele>
        <time>2018-11-28T02:56:42Z</time>
      </trkpt>
      <trkpt lat="42.31767" lon="2.57182">
        <ele>791.3</ele>
        <time>2018-11-28T02:56:43Z</time>
      </trkpt>
      <trkpt lat="42.31767" lon="2.57182">
        <ele>790.8</ele>
        <time>2018-11-28T02:56:43Z</time>
      </trkpt>
      <trkpt lat="42.31766" lon="2.57184">
        <ele>789.5</ele>
        <time>2018-11-28T02:56:44Z</time>
      </trkpt>
      <trkpt lat="42.31763" lon="2.57189">
        <ele>787</ele>
        <time>2018-11-28T02:56:46Z</time>
      </trkpt>
      <trkpt lat="42.31763" lon="2.57189">
        <ele>784.1</ele>
        <time>2018-11-28T02:56:46Z</time>
      </trkpt>
      <trkpt lat="42.31762" lon="2.57188">
        <ele>782.2</ele>
        <time>2018-11-28T02:56:46Z</time>
      </trkpt>
      <trkpt lat="42.31761" lon="2.57185">
        <ele>779.3</ele>
        <time>2018-11-28T02:56:47Z</time>
      </trkpt>
      <trkpt lat="42.3176" lon="2.57184">
        <ele>776.9</ele>
        <time>2018-11-28T02:56:48Z</time>
      </trkpt>
      <trkpt lat="42.31757" lon="2.57187">
        <ele>775.1</ele>
        <time>2018-11-28T02:56:49Z</time>
      </trkpt>
      <trkpt lat="42.31754" lon="2.57184">
        <ele>772.7</ele>
        <time>2018-11-28T02:56:51Z</time>
      </trkpt>
      <trkpt lat="42.31754" lon="2.5718">
        <ele>771.6</ele>
        <time>2018-11-28T02:56:52Z</time>
      </trkpt>
      <trkpt lat="42.31751" lon="2.57176">
        <ele>769.3</ele>
        <time>2018-11-28T02:56:54Z</time>
      </trkpt>
      <trkpt lat="42.31748" lon="2.57176">
        <ele>767.8</ele>
        <time>2018-11-28T02:56:55Z</time>
      </trkpt>
      <trkpt lat="42.31747" lon="2.57178">
        <ele>765.8</ele>
        <time>2018-11-28T02:56:55Z</time>
      </trkpt>
      <trkpt lat="42.31746" lon="2.57193">
        <ele>763.5</ele>
        <time>2018-11-28T02:57:00Z</time>
      </trkpt>
      <trkpt lat="42.31743" lon="2.57196">
        <ele>764.5</ele>
        <time>2018-11-28T02:57:01Z</time>
      </trkpt>
      <trkpt lat="42.31743" lon="2.57195">
        <ele>765.5</ele>
        <time>2018-11-28T02:57:01Z</time>
      </trkpt>
      <trkpt lat="42.31741" lon="2.57198">
        <ele>764</ele>
        <time>2018-11-28T02:57:03Z</time>
      </trkpt>
      <trkpt lat="42.3174" lon="2.57207">
        <ele>762.5</ele>
        <time>2018-11-28T02:57:05Z</time>
      </trkpt>
      <trkpt lat="42.31739" lon="2.57208">
        <ele>761.5</ele>
        <time>2018-11-28T02:57:06Z</time>
      </trkpt>
      <trkpt lat="42.31737" lon="2.57213">
        <ele>759.1</ele>
        <time>2018-11-28T02:57:08Z</time>
      </trkpt>
      <trkpt lat="42.31734" lon="2.57218">
        <ele>758.6</ele>
        <time>2018-11-28T02:57:10Z</time>
      </trkpt>
      <trkpt lat="42.31732" lon="2.57229">
        <ele>757.7</ele>
        <time>2018-11-28T02:57:13Z</time>
      </trkpt>
      <trkpt lat="42.31732" lon="2.5723">
        <ele>757.2</ele>
        <time>2018-11-28T02:57:13Z</time>
      </trkpt>
      <trkpt lat="42.31731" lon="2.57235">
        <ele>757.7</ele>
        <time>2018-11-28T02:57:15Z</time>
      </trkpt>
      <trkpt lat="42.31727" lon="2.57248">
        <ele>755.7</ele>
        <time>2018-11-28T02:57:19Z</time>
      </trkpt>
      <trkpt lat="42.31727" lon="2.57249">
        <ele>756.3</ele>
        <time>2018-11-28T02:57:19Z</time>
      </trkpt>
      <trkpt lat="42.31722" lon="2.57258">
        <ele>755.8</ele>
        <time>2018-11-28T02:57:22Z</time>
      </trkpt>
      <trkpt lat="42.31723" lon="2.57259">
        <ele>755.7</ele>
        <time>2018-11-28T02:57:23Z</time>
      </trkpt>
      <trkpt lat="42.31722" lon="2.57259">
        <ele>755.4</ele>
        <time>2018-11-28T02:57:23Z</time>
      </trkpt>
      <trkpt lat="42.31718" lon="2.57264">
        <ele>756.7</ele>
        <time>2018-11-28T02:57:25Z</time>
      </trkpt>
      <trkpt lat="42.31717" lon="2.57265">
        <ele>756.8</ele>
        <time>2018-11-28T02:57:26Z</time>
      </trkpt>
      <trkpt lat="42.31712" lon="2.57272">
        <ele>754.8</ele>
        <time>2018-11-28T02:57:29Z</time>
      </trkpt>
      <trkpt lat="42.31712" lon="2.57276">
        <ele>753.4</ele>
        <time>2018-11-28T02:57:30Z</time>
      </trkpt>
      <trkpt lat="42.31711" lon="2.57282">
        <ele>751.5</ele>
        <time>2018-11-28T02:57:32Z</time>
      </trkpt>
      <trkpt lat="42.31708" lon="2.57284">
        <ele>752.4</ele>
        <time>2018-11-28T02:57:33Z</time>
      </trkpt>
      <trkpt lat="42.31707" lon="2.57288">
        <ele>752.4</ele>
        <time>2018-11-28T02:57:34Z</time>
      </trkpt>
      <trkpt lat="42.317" lon="2.57304">
        <ele>751.9</ele>
        <time>2018-11-28T02:57:40Z</time>
      </trkpt>
      <trkpt lat="42.31695" lon="2.57313">
        <ele>751.4</ele>
        <time>2018-11-28T02:57:43Z</time>
      </trkpt>
      <trkpt lat="42.31695" lon="2.57313">
        <ele>751.9</ele>
        <time>2018-11-28T02:57:43Z</time>
      </trkpt>
      <trkpt lat="42.31693" lon="2.57314">
        <ele>750.5</ele>
        <time>2018-11-28T02:57:44Z</time>
      </trkpt>
      <trkpt lat="42.31694" lon="2.57322">
        <ele>749.6</ele>
        <time>2018-11-28T02:57:46Z</time>
      </trkpt>
      <trkpt lat="42.31688" lon="2.57342">
        <ele>747.7</ele>
        <time>2018-11-28T02:57:53Z</time>
      </trkpt>
      <trkpt lat="42.31687" lon="2.57343">
        <ele>746.7</ele>
        <time>2018-11-28T02:57:53Z</time>
      </trkpt>
      <trkpt lat="42.31678" lon="2.57354">
        <ele>745.7</ele>
        <time>2018-11-28T02:57:58Z</time>
      </trkpt>
      <trkpt lat="42.31674" lon="2.57362">
        <ele>743.7</ele>
        <time>2018-11-28T02:58:01Z</time>
      </trkpt>
      <trkpt lat="42.31668" lon="2.57375">
        <ele>742.4</ele>
        <time>2018-11-28T02:58:05Z</time>
      </trkpt>
      <trkpt lat="42.31665" lon="2.57385">
        <ele>740.8</ele>
        <time>2018-11-28T02:58:09Z</time>
      </trkpt>
      <trkpt lat="42.31664" lon="2.57388">
        <ele>739.4</ele>
        <time>2018-11-28T02:58:10Z</time>
      </trkpt>
      <trkpt lat="42.31664" lon="2.57389">
        <ele>738.9</ele>
        <time>2018-11-28T02:58:10Z</time>
      </trkpt>
      <trkpt lat="42.31662" lon="2.57396">
        <ele>737.6</ele>
        <time>2018-11-28T02:58:12Z</time>
      </trkpt>
      <trkpt lat="42.3166" lon="2.57405">
        <ele>736.5</ele>
        <time>2018-11-28T02:58:15Z</time>
      </trkpt>
      <trkpt lat="42.31659" lon="2.57408">
        <ele>734.7</ele>
        <time>2018-11-28T02:58:16Z</time>
      </trkpt>
      <trkpt lat="42.31656" lon="2.57418">
        <ele>733.6</ele>
        <time>2018-11-28T02:58:19Z</time>
      </trkpt>
      <trkpt lat="42.31654" lon="2.57423">
        <ele>733.6</ele>
        <time>2018-11-28T02:58:21Z</time>
      </trkpt>
      <trkpt lat="42.31647" lon="2.57432">
        <ele>733.2</ele>
        <time>2018-11-28T02:58:25Z</time>
      </trkpt>
      <trkpt lat="42.31642" lon="2.57442">
        <ele>731.2</ele>
        <time>2018-11-28T02:58:28Z</time>
      </trkpt>
      <trkpt lat="42.3164" lon="2.57447">
        <ele>728.4</ele>
        <time>2018-11-28T02:58:30Z</time>
      </trkpt>
      <trkpt lat="42.31637" lon="2.57455">
        <ele>726.9</ele>
        <time>2018-11-28T02:58:33Z</time>
      </trkpt>
      <trkpt lat="42.31636" lon="2.57457">
        <ele>727</ele>
        <time>2018-11-28T02:58:33Z</time>
      </trkpt>
      <trkpt lat="42.31632" lon="2.57465">
        <ele>725.9</ele>
        <time>2018-11-28T02:58:36Z</time>
      </trkpt>
      <trkpt lat="42.31628" lon="2.57472">
        <ele>724.5</ele>
        <time>2018-11-28T02:58:39Z</time>
      </trkpt>
      <trkpt lat="42.31624" lon="2.57478">
        <ele>724</ele>
        <time>2018-11-28T02:58:41Z</time>
      </trkpt>
      <trkpt lat="42.31623" lon="2.5748">
        <ele>724.1</ele>
        <time>2018-11-28T02:58:42Z</time>
      </trkpt>
      <trkpt lat="42.31621" lon="2.57483">
        <ele>722.7</ele>
        <time>2018-11-28T02:58:43Z</time>
      </trkpt>
      <trkpt lat="42.31617" lon="2.57492">
        <ele>720.7</ele>
        <time>2018-11-28T02:58:46Z</time>
      </trkpt>
      <trkpt lat="42.31615" lon="2.57498">
        <ele>719.7</ele>
        <time>2018-11-28T02:58:48Z</time>
      </trkpt>
      <trkpt lat="42.31609" lon="2.5751">
        <ele>717.3</ele>
        <time>2018-11-28T02:58:53Z</time>
      </trkpt>
      <trkpt lat="42.31605" lon="2.57523">
        <ele>715.5</ele>
        <time>2018-11-28T02:58:57Z</time>
      </trkpt>
      <trkpt lat="42.31602" lon="2.57528">
        <ele>713.1</ele>
        <time>2018-11-28T02:58:58Z</time>
      </trkpt>
      <trkpt lat="42.31599" lon="2.57536">
        <ele>711.6</ele>
        <time>2018-11-28T02:59:01Z</time>
      </trkpt>
      <trkpt lat="42.31597" lon="2.5754">
        <ele>711</ele>
        <time>2018-11-28T02:59:03Z</time>
      </trkpt>
      <trkpt lat="42.31592" lon="2.57549">
        <ele>708.6</ele>
        <time>2018-11-28T02:59:06Z</time>
      </trkpt>
      <trkpt lat="42.31591" lon="2.57552">
        <ele>707.2</ele>
        <time>2018-11-28T02:59:07Z</time>
      </trkpt>
      <trkpt lat="42.31586" lon="2.57562">
        <ele>705.9</ele>
        <time>2018-11-28T02:59:11Z</time>
      </trkpt>
      <trkpt lat="42.31579" lon="2.57567">
        <ele>704.3</ele>
        <time>2018-11-28T02:59:14Z</time>
      </trkpt>
      <trkpt lat="42.31569" lon="2.57575">
        <ele>701.4</ele>
        <time>2018-11-28T02:59:18Z</time>
      </trkpt>
      <trkpt lat="42.31566" lon="2.57583">
        <ele>700.5</ele>
        <time>2018-11-28T02:59:21Z</time>
      </trkpt>
      <trkpt lat="42.31562" lon="2.57599">
        <ele>702.5</ele>
        <time>2018-11-28T02:59:26Z</time>
      </trkpt>
      <trkpt lat="42.31561" lon="2.57603">
        <ele>702.4</ele>
        <time>2018-11-28T02:59:27Z</time>
      </trkpt>
      <trkpt lat="42.31561" lon="2.57603">
        <ele>702</ele>
        <time>2018-11-28T02:59:27Z</time>
      </trkpt>
      <trkpt lat="42.31559" lon="2.57608">
        <ele>702.4</ele>
        <time>2018-11-28T02:59:29Z</time>
      </trkpt>
      <trkpt lat="42.31557" lon="2.57617">
        <ele>700.9</ele>
        <time>2018-11-28T02:59:32Z</time>
      </trkpt>
      <trkpt lat="42.31557" lon="2.57619">
        <ele>700.5</ele>
        <time>2018-11-28T02:59:33Z</time>
      </trkpt>
      <trkpt lat="42.31556" lon="2.57623">
        <ele>699.5</ele>
        <time>2018-11-28T02:59:34Z</time>
      </trkpt>
      <trkpt lat="42.31553" lon="2.57638">
        <ele>697.1</ele>
        <time>2018-11-28T02:59:38Z</time>
      </trkpt>
      <trkpt lat="42.31553" lon="2.57642">
        <ele>698.2</ele>
        <time>2018-11-28T02:59:40Z</time>
      </trkpt>
      <trkpt lat="42.31553" lon="2.57642">
        <ele>697.1</ele>
        <time>2018-11-28T02:59:40Z</time>
      </trkpt>
      <trkpt lat="42.31547" lon="2.57659">
        <ele>696.7</ele>
        <time>2018-11-28T02:59:46Z</time>
      </trkpt>
      <trkpt lat="42.31545" lon="2.57662">
        <ele>697.2</ele>
        <time>2018-11-28T02:59:47Z</time>
      </trkpt>
      <trkpt lat="42.31544" lon="2.57666">
        <ele>696.6</ele>
        <time>2018-11-28T02:59:48Z</time>
      </trkpt>
      <trkpt lat="42.31538" lon="2.57682">
        <ele>696.2</ele>
        <time>2018-11-28T02:59:53Z</time>
      </trkpt>
      <trkpt lat="42.31532" lon="2.57697">
        <ele>696.7</ele>
        <time>2018-11-28T02:59:58Z</time>
      </trkpt>
      <trkpt lat="42.31528" lon="2.57704">
        <ele>698.5</ele>
        <time>2018-11-28T03:00:01Z</time>
      </trkpt>
      <trkpt lat="42.31522" lon="2.57713">
        <ele>699.6</ele>
        <time>2018-11-28T03:00:04Z</time>
      </trkpt>
      <trkpt lat="42.31515" lon="2.57727">
        <ele>698.1</ele>
        <time>2018-11-28T03:00:09Z</time>
      </trkpt>
      <trkpt lat="42.31511" lon="2.57732">
        <ele>697.6</ele>
        <time>2018-11-28T03:00:12Z</time>
      </trkpt>
      <trkpt lat="42.31505" lon="2.57741">
        <ele>696.6</ele>
        <time>2018-11-28T03:00:15Z</time>
      </trkpt>
      <trkpt lat="42.31501" lon="2.57747">
        <ele>695.2</ele>
        <time>2018-11-28T03:00:18Z</time>
      </trkpt>
      <trkpt lat="42.31493" lon="2.57754">
        <ele>693.3</ele>
        <time>2018-11-28T03:00:21Z</time>
      </trkpt>
      <trkpt lat="42.31484" lon="2.57761">
        <ele>692.3</ele>
        <time>2018-11-28T03:00:26Z</time>
      </trkpt>
      <trkpt lat="42.31474" lon="2.5776">
        <ele>691.8</ele>
        <time>2018-11-28T03:00:30Z</time>
      </trkpt>
      <trkpt lat="42.31464" lon="2.57753">
        <ele>692.8</ele>
        <time>2018-11-28T03:00:34Z</time>
      </trkpt>
      <trkpt lat="42.31454" lon="2.57754">
        <ele>691.4</ele>
        <time>2018-11-28T03:00:38Z</time>
      </trkpt>
      <trkpt lat="42.3145" lon="2.57755">
        <ele>691.4</ele>
        <time>2018-11-28T03:00:40Z</time>
      </trkpt>
      <trkpt lat="42.31441" lon="2.57756">
        <ele>690.4</ele>
        <time>2018-11-28T03:00:43Z</time>
      </trkpt>
      <trkpt lat="42.31435" lon="2.57757">
        <ele>688.9</ele>
        <time>2018-11-28T03:00:46Z</time>
      </trkpt>
      <trkpt lat="42.31427" lon="2.5776">
        <ele>687.5</ele>
        <time>2018-11-28T03:00:49Z</time>
      </trkpt>
      <trkpt lat="42.31421" lon="2.57764">
        <ele>685.1</ele>
        <time>2018-11-28T03:00:52Z</time>
      </trkpt>
      <trkpt lat="42.3142" lon="2.57766">
        <ele>684.6</ele>
        <time>2018-11-28T03:00:53Z</time>
      </trkpt>
      <trkpt lat="42.31417" lon="2.57764">
        <ele>684.7</ele>
        <time>2018-11-28T03:00:54Z</time>
      </trkpt>
      <trkpt lat="42.31413" lon="2.57773">
        <ele>683.6</ele>
        <time>2018-11-28T03:00:57Z</time>
      </trkpt>
      <trkpt lat="42.31409" lon="2.57776">
        <ele>682.8</ele>
        <time>2018-11-28T03:00:59Z</time>
      </trkpt>
      <trkpt lat="42.31405" lon="2.57782">
        <ele>681.7</ele>
        <time>2018-11-28T03:01:01Z</time>
      </trkpt>
      <trkpt lat="42.31404" lon="2.5779">
        <ele>680.3</ele>
        <time>2018-11-28T03:01:04Z</time>
      </trkpt>
      <trkpt lat="42.31405" lon="2.57801">
        <ele>678.5</ele>
        <time>2018-11-28T03:01:07Z</time>
      </trkpt>
      <trkpt lat="42.31405" lon="2.57803">
        <ele>677.5</ele>
        <time>2018-11-28T03:01:08Z</time>
      </trkpt>
      <trkpt lat="42.31405" lon="2.57816">
        <ele>675.9</ele>
        <time>2018-11-28T03:01:12Z</time>
      </trkpt>
      <trkpt lat="42.31404" lon="2.57822">
        <ele>675.6</ele>
        <time>2018-11-28T03:01:13Z</time>
      </trkpt>
      <trkpt lat="42.31403" lon="2.57835">
        <ele>674.1</ele>
        <time>2018-11-28T03:01:17Z</time>
      </trkpt>
      <trkpt lat="42.31403" lon="2.57836">
        <ele>673.1</ele>
        <time>2018-11-28T03:01:17Z</time>
      </trkpt>
      <trkpt lat="42.31403" lon="2.57841">
        <ele>672.6</ele>
        <time>2018-11-28T03:01:19Z</time>
      </trkpt>
      <trkpt lat="42.31402" lon="2.57848">
        <ele>673.2</ele>
        <time>2018-11-28T03:01:21Z</time>
      </trkpt>
      <trkpt lat="42.31399" lon="2.57857">
        <ele>671.6</ele>
        <time>2018-11-28T03:01:24Z</time>
      </trkpt>
      <trkpt lat="42.31394" lon="2.57863">
        <ele>672.6</ele>
        <time>2018-11-28T03:01:27Z</time>
      </trkpt>
      <trkpt lat="42.31392" lon="2.57862">
        <ele>672.6</ele>
        <time>2018-11-28T03:01:27Z</time>
      </trkpt>
      <trkpt lat="42.31391" lon="2.57864">
        <ele>672.6</ele>
        <time>2018-11-28T03:01:28Z</time>
      </trkpt>
      <trkpt lat="42.31386" lon="2.57865">
        <ele>674.6</ele>
        <time>2018-11-28T03:01:30Z</time>
      </trkpt>
      <trkpt lat="42.31379" lon="2.57869">
        <ele>676</ele>
        <time>2018-11-28T03:01:33Z</time>
      </trkpt>
      <trkpt lat="42.31375" lon="2.5787">
        <ele>678.5</ele>
        <time>2018-11-28T03:01:35Z</time>
      </trkpt>
      <trkpt lat="42.3137" lon="2.5787">
        <ele>678.8</ele>
        <time>2018-11-28T03:01:37Z</time>
      </trkpt>
      <trkpt lat="42.31361" lon="2.57873">
        <ele>680.8</ele>
        <time>2018-11-28T03:01:40Z</time>
      </trkpt>
      <trkpt lat="42.31356" lon="2.57874">
        <ele>682.7</ele>
        <time>2018-11-28T03:01:42Z</time>
      </trkpt>
      <trkpt lat="42.3135" lon="2.57871">
        <ele>684.1</ele>
        <time>2018-11-28T03:01:45Z</time>
      </trkpt>
      <trkpt lat="42.31346" lon="2.5787">
        <ele>685.6</ele>
        <time>2018-11-28T03:01:46Z</time>
      </trkpt>
      <trkpt lat="42.31344" lon="2.57872">
        <ele>688.5</ele>
        <time>2018-11-28T03:01:48Z</time>
      </trkpt>
      <trkpt lat="42.31337" lon="2.57875">
        <ele>689.9</ele>
        <time>2018-11-28T03:01:50Z</time>
      </trkpt>
      <trkpt lat="42.31334" lon="2.57875">
        <ele>690.8</ele>
        <time>2018-11-28T03:01:52Z</time>
      </trkpt>
      <trkpt lat="42.31324" lon="2.57878">
        <ele>694.3</ele>
        <time>2018-11-28T03:01:56Z</time>
      </trkpt>
      <trkpt lat="42.31324" lon="2.57878">
        <ele>694.2</ele>
        <time>2018-11-28T03:01:56Z</time>
      </trkpt>
      <trkpt lat="42.31318" lon="2.57879">
        <ele>696.2</ele>
        <time>2018-11-28T03:01:58Z</time>
      </trkpt>
      <trkpt lat="42.31316" lon="2.57881">
        <ele>697.1</ele>
        <time>2018-11-28T03:01:59Z</time>
      </trkpt>
      <trkpt lat="42.31315" lon="2.57881">
        <ele>698.5</ele>
        <time>2018-11-28T03:02:00Z</time>
      </trkpt>
      <trkpt lat="42.31312" lon="2.57884">
        <ele>699.5</ele>
        <time>2018-11-28T03:02:01Z</time>
      </trkpt>
      <trkpt lat="42.31309" lon="2.57884">
        <ele>699</ele>
        <time>2018-11-28T03:02:02Z</time>
      </trkpt>
      <trkpt lat="42.31305" lon="2.57884">
        <ele>699.5</ele>
        <time>2018-11-28T03:02:04Z</time>
      </trkpt>
      <trkpt lat="42.31304" lon="2.57885">
        <ele>699.5</ele>
        <time>2018-11-28T03:02:04Z</time>
      </trkpt>
      <trkpt lat="42.31295" lon="2.57889">
        <ele>702.9</ele>
        <time>2018-11-28T03:02:08Z</time>
      </trkpt>
      <trkpt lat="42.31287" lon="2.57888">
        <ele>705.4</ele>
        <time>2018-11-28T03:02:11Z</time>
      </trkpt>
      <trkpt lat="42.31281" lon="2.5789">
        <ele>707.7</ele>
        <time>2018-11-28T03:02:14Z</time>
      </trkpt>
      <trkpt lat="42.31278" lon="2.57891">
        <ele>710.2</ele>
        <time>2018-11-28T03:02:15Z</time>
      </trkpt>
      <trkpt lat="42.31273" lon="2.57893">
        <ele>712.6</ele>
        <time>2018-11-28T03:02:17Z</time>
      </trkpt>
      <trkpt lat="42.31266" lon="2.57889">
        <ele>714.4</ele>
        <time>2018-11-28T03:02:20Z</time>
      </trkpt>
      <trkpt lat="42.31259" lon="2.5789">
        <ele>717.4</ele>
        <time>2018-11-28T03:02:23Z</time>
      </trkpt>
      <trkpt lat="42.31255" lon="2.57892">
        <ele>718.2</ele>
        <time>2018-11-28T03:02:24Z</time>
      </trkpt>
      <trkpt lat="42.31255" lon="2.57893">
        <ele>718.2</ele>
        <time>2018-11-28T03:02:25Z</time>
      </trkpt>
      <trkpt lat="42.31247" lon="2.57897">
        <ele>721.1</ele>
        <time>2018-11-28T03:02:28Z</time>
      </trkpt>
      <trkpt lat="42.3124" lon="2.57896">
        <ele>725</ele>
        <time>2018-11-28T03:02:31Z</time>
      </trkpt>
      <trkpt lat="42.31237" lon="2.57895">
        <ele>725.6</ele>
        <time>2018-11-28T03:02:32Z</time>
      </trkpt>
      <trkpt lat="42.31234" lon="2.57893">
        <ele>726</ele>
        <time>2018-11-28T03:02:34Z</time>
      </trkpt>
      <trkpt lat="42.31228" lon="2.57893">
        <ele>728.8</ele>
        <time>2018-11-28T03:02:36Z</time>
      </trkpt>
      <trkpt lat="42.31222" lon="2.57892">
        <ele>730.7</ele>
        <time>2018-11-28T03:02:38Z</time>
      </trkpt>
      <trkpt lat="42.31215" lon="2.57889">
        <ele>733.1</ele>
        <time>2018-11-28T03:02:41Z</time>
      </trkpt>
      <trkpt lat="42.31211" lon="2.5789">
        <ele>734.7</ele>
        <time>2018-11-28T03:02:43Z</time>
      </trkpt>
      <trkpt lat="42.31204" lon="2.57899">
        <ele>737.6</ele>
        <time>2018-11-28T03:02:47Z</time>
      </trkpt>
      <trkpt lat="42.31198" lon="2.57901">
        <ele>738</ele>
        <time>2018-11-28T03:02:49Z</time>
      </trkpt>
      <trkpt lat="42.31197" lon="2.57901">
        <ele>738</ele>
        <time>2018-11-28T03:02:50Z</time>
      </trkpt>
      <trkpt lat="42.31196" lon="2.57903">
        <ele>738</ele>
        <time>2018-11-28T03:02:51Z</time>
      </trkpt>
      <trkpt lat="42.31192" lon="2.57906">
        <ele>738</ele>
        <time>2018-11-28T03:02:52Z</time>
      </trkpt>
      <trkpt lat="42.31188" lon="2.57909">
        <ele>738.4</ele>
        <time>2018-11-28T03:02:54Z</time>
      </trkpt>
      <trkpt lat="42.31184" lon="2.57916">
        <ele>741.3</ele>
        <time>2018-11-28T03:02:57Z</time>
      </trkpt>
      <trkpt lat="42.3118" lon="2.57916">
        <ele>743.3</ele>
        <time>2018-11-28T03:02:58Z</time>
      </trkpt>
      <trkpt lat="42.31175" lon="2.57918">
        <ele>745.6</ele>
        <time>2018-11-28T03:03:00Z</time>
      </trkpt>
      <trkpt lat="42.31169" lon="2.57928">
        <ele>746.6</ele>
        <time>2018-11-28T03:03:04Z</time>
      </trkpt>
      <trkpt lat="42.31166" lon="2.57931">
        <ele>747.2</ele>
        <time>2018-11-28T03:03:06Z</time>
      </trkpt>
      <trkpt lat="42.31159" lon="2.57934">
        <ele>748.5</ele>
        <time>2018-11-28T03:03:09Z</time>
      </trkpt>
      <trkpt lat="42.31157" lon="2.57934">
        <ele>749</ele>
        <time>2018-11-28T03:03:10Z</time>
      </trkpt>
      <trkpt lat="42.31152" lon="2.57937">
        <ele>750.1</ele>
        <time>2018-11-28T03:03:11Z</time>
      </trkpt>
      <trkpt lat="42.31147" lon="2.57944">
        <ele>752.4</ele>
        <time>2018-11-28T03:03:15Z</time>
      </trkpt>
      <trkpt lat="42.31145" lon="2.57946">
        <ele>753</ele>
        <time>2018-11-28T03:03:16Z</time>
      </trkpt>
      <trkpt lat="42.31139" lon="2.57948">
        <ele>755.3</ele>
        <time>2018-11-28T03:03:18Z</time>
      </trkpt>
      <trkpt lat="42.31136" lon="2.57951">
        <ele>755.7</ele>
        <time>2018-11-28T03:03:20Z</time>
      </trkpt>
      <trkpt lat="42.31129" lon="2.57954">
        <ele>758.7</ele>
        <time>2018-11-28T03:03:22Z</time>
      </trkpt>
      <trkpt lat="42.31125" lon="2.57956">
        <ele>760.1</ele>
        <time>2018-11-28T03:03:24Z</time>
      </trkpt>
      <trkpt lat="42.31119" lon="2.57956">
        <ele>762.9</ele>
        <time>2018-11-28T03:03:27Z</time>
      </trkpt>
      <trkpt lat="42.31111" lon="2.57962">
        <ele>766.3</ele>
        <time>2018-11-28T03:03:30Z</time>
      </trkpt>
      <trkpt lat="42.31109" lon="2.57967">
        <ele>767.9</ele>
        <time>2018-11-28T03:03:32Z</time>
      </trkpt>
      <trkpt lat="42.31105" lon="2.57968">
        <ele>768.7</ele>
        <time>2018-11-28T03:03:34Z</time>
      </trkpt>
      <trkpt lat="42.31103" lon="2.57969">
        <ele>769.2</ele>
        <time>2018-11-28T03:03:35Z</time>
      </trkpt>
      <trkpt lat="42.31101" lon="2.57969">
        <ele>770.7</ele>
        <time>2018-11-28T03:03:35Z</time>
      </trkpt>
      <trkpt lat="42.311" lon="2.5797">
        <ele>771.1</ele>
        <time>2018-11-28T03:03:36Z</time>
      </trkpt>
      <trkpt lat="42.31093" lon="2.57977">
        <ele>773.5</ele>
        <time>2018-11-28T03:03:39Z</time>
      </trkpt>
      <trkpt lat="42.31089" lon="2.57982">
        <ele>775.4</ele>
        <time>2018-11-28T03:03:41Z</time>
      </trkpt>
      <trkpt lat="42.31083" lon="2.57989">
        <ele>777.4</ele>
        <time>2018-11-28T03:03:45Z</time>
      </trkpt>
      <trkpt lat="42.31077" lon="2.57992">
        <ele>779.4</ele>
        <time>2018-11-28T03:03:47Z</time>
      </trkpt>
      <trkpt lat="42.3107" lon="2.58001">
        <ele>780.3</ele>
        <time>2018-11-28T03:03:51Z</time>
      </trkpt>
      <trkpt lat="42.31066" lon="2.58002">
        <ele>781.8</ele>
        <time>2018-11-28T03:03:52Z</time>
      </trkpt>
      <trkpt lat="42.31063" lon="2.58003">
        <ele>782.7</ele>
        <time>2018-11-28T03:03:54Z</time>
      </trkpt>
      <trkpt lat="42.31059" lon="2.58005">
        <ele>785.6</ele>
        <time>2018-11-28T03:03:55Z</time>
      </trkpt>
      <trkpt lat="42.31057" lon="2.58006">
        <ele>786</ele>
        <time>2018-11-28T03:03:57Z</time>
      </trkpt>
      <trkpt lat="42.31052" lon="2.58011">
        <ele>788.4</ele>
        <time>2018-11-28T03:03:59Z</time>
      </trkpt>
      <trkpt lat="42.31045" lon="2.58014">
        <ele>790.4</ele>
        <time>2018-11-28T03:04:02Z</time>
      </trkpt>
      <trkpt lat="42.31041" lon="2.58015">
        <ele>793.3</ele>
        <time>2018-11-28T03:04:04Z</time>
      </trkpt>
      <trkpt lat="42.31037" lon="2.58018">
        <ele>793.8</ele>
        <time>2018-11-28T03:04:05Z</time>
      </trkpt>
      <trkpt lat="42.31032" lon="2.58021">
        <ele>795.6</ele>
        <time>2018-11-28T03:04:07Z</time>
      </trkpt>
      <trkpt lat="42.3103" lon="2.58022">
        <ele>797.1</ele>
        <time>2018-11-28T03:04:08Z</time>
      </trkpt>
      <trkpt lat="42.31028" lon="2.58024">
        <ele>798.5</ele>
        <time>2018-11-28T03:04:09Z</time>
      </trkpt>
      <trkpt lat="42.31028" lon="2.58024">
        <ele>798.6</ele>
        <time>2018-11-28T03:04:09Z</time>
      </trkpt>
      <trkpt lat="42.31026" lon="2.58025">
        <ele>799</ele>
        <time>2018-11-28T03:04:10Z</time>
      </trkpt>
      <trkpt lat="42.31025" lon="2.58028">
        <ele>799.5</ele>
        <time>2018-11-28T03:04:11Z</time>
      </trkpt>
      <trkpt lat="42.3102" lon="2.58037">
        <ele>801.4</ele>
        <time>2018-11-28T03:04:14Z</time>
      </trkpt>
      <trkpt lat="42.31012" lon="2.58046">
        <ele>802.5</ele>
        <time>2018-11-28T03:04:19Z</time>
      </trkpt>
      <trkpt lat="42.31003" lon="2.58051">
        <ele>802.9</ele>
        <time>2018-11-28T03:04:23Z</time>
      </trkpt>
      <trkpt lat="42.30994" lon="2.58055">
        <ele>804.3</ele>
        <time>2018-11-28T03:04:26Z</time>
      </trkpt>
      <trkpt lat="42.30993" lon="2.58055">
        <ele>804.4</ele>
        <time>2018-11-28T03:04:27Z</time>
      </trkpt>
      <trkpt lat="42.30987" lon="2.58058">
        <ele>806.7</ele>
        <time>2018-11-28T03:04:29Z</time>
      </trkpt>
      <trkpt lat="42.3098" lon="2.58067">
        <ele>807.6</ele>
        <time>2018-11-28T03:04:33Z</time>
      </trkpt>
      <trkpt lat="42.30972" lon="2.58075">
        <ele>808.1</ele>
        <time>2018-11-28T03:04:37Z</time>
      </trkpt>
      <trkpt lat="42.30969" lon="2.58082">
        <ele>809.2</ele>
        <time>2018-11-28T03:04:40Z</time>
      </trkpt>
      <trkpt lat="42.30962" lon="2.58095">
        <ele>809.7</ele>
        <time>2018-11-28T03:04:44Z</time>
      </trkpt>
      <trkpt lat="42.30961" lon="2.58097">
        <ele>810.6</ele>
        <time>2018-11-28T03:04:45Z</time>
      </trkpt>
      <trkpt lat="42.30961" lon="2.58109">
        <ele>812.6</ele>
        <time>2018-11-28T03:04:48Z</time>
      </trkpt>
      <trkpt lat="42.3096" lon="2.58124">
        <ele>815</ele>
        <time>2018-11-28T03:04:53Z</time>
      </trkpt>
      <trkpt lat="42.30959" lon="2.58135">
        <ele>815.3</ele>
        <time>2018-11-28T03:04:56Z</time>
      </trkpt>
      <trkpt lat="42.30954" lon="2.58147">
        <ele>816.9</ele>
        <time>2018-11-28T03:05:00Z</time>
      </trkpt>
      <trkpt lat="42.30952" lon="2.58163">
        <ele>819.2</ele>
        <time>2018-11-28T03:05:05Z</time>
      </trkpt>
      <trkpt lat="42.30952" lon="2.58166">
        <ele>819.2</ele>
        <time>2018-11-28T03:05:06Z</time>
      </trkpt>
      <trkpt lat="42.30952" lon="2.58167">
        <ele>819.8</ele>
        <time>2018-11-28T03:05:06Z</time>
      </trkpt>
      <trkpt lat="42.30948" lon="2.58174">
        <ele>821.1</ele>
        <time>2018-11-28T03:05:09Z</time>
      </trkpt>
      <trkpt lat="42.30948" lon="2.58174">
        <ele>821.1</ele>
        <time>2018-11-28T03:05:09Z</time>
      </trkpt>
      <trkpt lat="42.30947" lon="2.58174">
        <ele>821.2</ele>
        <time>2018-11-28T03:05:09Z</time>
      </trkpt>
      <trkpt lat="42.30947" lon="2.58174">
        <ele>821.1</ele>
        <time>2018-11-28T03:05:09Z</time>
      </trkpt>
      <trkpt lat="42.30945" lon="2.58176">
        <ele>821.6</ele>
        <time>2018-11-28T03:05:10Z</time>
      </trkpt>
      <trkpt lat="42.30945" lon="2.58176">
        <ele>821.1</ele>
        <time>2018-11-28T03:05:10Z</time>
      </trkpt>
      <trkpt lat="42.3094" lon="2.58181">
        <ele>822.6</ele>
        <time>2018-11-28T03:05:13Z</time>
      </trkpt>
      <trkpt lat="42.30937" lon="2.58184">
        <ele>823.6</ele>
        <time>2018-11-28T03:05:14Z</time>
      </trkpt>
      <trkpt lat="42.3093" lon="2.58193">
        <ele>824.6</ele>
        <time>2018-11-28T03:05:18Z</time>
      </trkpt>
      <trkpt lat="42.30929" lon="2.58193">
        <ele>824.6</ele>
        <time>2018-11-28T03:05:19Z</time>
      </trkpt>
      <trkpt lat="42.30929" lon="2.58193">
        <ele>825</ele>
        <time>2018-11-28T03:05:19Z</time>
      </trkpt>
      <trkpt lat="42.30925" lon="2.58197">
        <ele>826</ele>
        <time>2018-11-28T03:05:20Z</time>
      </trkpt>
      <trkpt lat="42.30919" lon="2.58202">
        <ele>825.9</ele>
        <time>2018-11-28T03:05:23Z</time>
      </trkpt>
      <trkpt lat="42.30911" lon="2.58212">
        <ele>827.4</ele>
        <time>2018-11-28T03:05:28Z</time>
      </trkpt>
      <trkpt lat="42.30904" lon="2.58215">
        <ele>828.8</ele>
        <time>2018-11-28T03:05:31Z</time>
      </trkpt>
      <trkpt lat="42.30904" lon="2.58215">
        <ele>829.9</ele>
        <time>2018-11-28T03:05:31Z</time>
      </trkpt>
      <trkpt lat="42.30903" lon="2.58215">
        <ele>829.3</ele>
        <time>2018-11-28T03:05:31Z</time>
      </trkpt>
      <trkpt lat="42.3089" lon="2.58219">
        <ele>830.2</ele>
        <time>2018-11-28T03:05:37Z</time>
      </trkpt>
      <trkpt lat="42.3088" lon="2.58222">
        <ele>831.8</ele>
        <time>2018-11-28T03:05:41Z</time>
      </trkpt>
      <trkpt lat="42.30873" lon="2.58223">
        <ele>831.2</ele>
        <time>2018-11-28T03:05:43Z</time>
      </trkpt>
      <trkpt lat="42.30872" lon="2.58223">
        <ele>831.8</ele>
        <time>2018-11-28T03:05:44Z</time>
      </trkpt>
      <trkpt lat="42.30872" lon="2.58222">
        <ele>832.2</ele>
        <time>2018-11-28T03:05:44Z</time>
      </trkpt>
      <trkpt lat="42.30873" lon="2.58222">
        <ele>828.4</ele>
        <time>2018-11-28T03:05:44Z</time>
      </trkpt>
      <trkpt lat="42.30872" lon="2.58223">
        <ele>832.7</ele>
        <time>2018-11-28T03:05:44Z</time>
      </trkpt>
      <trkpt lat="42.3086" lon="2.58223">
        <ele>834.1</ele>
        <time>2018-11-28T03:05:49Z</time>
      </trkpt>
      <trkpt lat="42.30852" lon="2.58227">
        <ele>835</ele>
        <time>2018-11-28T03:05:52Z</time>
      </trkpt>
      <trkpt lat="42.30845" lon="2.58227">
        <ele>836.6</ele>
        <time>2018-11-28T03:05:55Z</time>
      </trkpt>
      <trkpt lat="42.30831" lon="2.58224">
        <ele>838.5</ele>
        <time>2018-11-28T03:06:01Z</time>
      </trkpt>
      <trkpt lat="42.30825" lon="2.58225">
        <ele>838.5</ele>
        <time>2018-11-28T03:06:03Z</time>
      </trkpt>
      <trkpt lat="42.30823" lon="2.58225">
        <ele>839.4</ele>
        <time>2018-11-28T03:06:04Z</time>
      </trkpt>
      <trkpt lat="42.3081" lon="2.58232">
        <ele>839.4</ele>
        <time>2018-11-28T03:06:10Z</time>
      </trkpt>
      <trkpt lat="42.30804" lon="2.58238">
        <ele>840</ele>
        <time>2018-11-28T03:06:13Z</time>
      </trkpt>
      <trkpt lat="42.30795" lon="2.58248">
        <ele>839.9</ele>
        <time>2018-11-28T03:06:17Z</time>
      </trkpt>
      <trkpt lat="42.3079" lon="2.58257">
        <ele>840.9</ele>
        <time>2018-11-28T03:06:21Z</time>
      </trkpt>
      <trkpt lat="42.30784" lon="2.58265">
        <ele>843.7</ele>
        <time>2018-11-28T03:06:24Z</time>
      </trkpt>
      <trkpt lat="42.30779" lon="2.58273">
        <ele>844.8</ele>
        <time>2018-11-28T03:06:27Z</time>
      </trkpt>
      <trkpt lat="42.30776" lon="2.58277">
        <ele>845.6</ele>
        <time>2018-11-28T03:06:29Z</time>
      </trkpt>
      <trkpt lat="42.3077" lon="2.58294">
        <ele>847.5</ele>
        <time>2018-11-28T03:06:35Z</time>
      </trkpt>
      <trkpt lat="42.30767" lon="2.58297">
        <ele>848.1</ele>
        <time>2018-11-28T03:06:36Z</time>
      </trkpt>
      <trkpt lat="42.30765" lon="2.58307">
        <ele>849.5</ele>
        <time>2018-11-28T03:06:39Z</time>
      </trkpt>
      <trkpt lat="42.30761" lon="2.58319">
        <ele>851.4</ele>
        <time>2018-11-28T03:06:43Z</time>
      </trkpt>
      <trkpt lat="42.3076" lon="2.58324">
        <ele>852.8</ele>
        <time>2018-11-28T03:06:44Z</time>
      </trkpt>
      <trkpt lat="42.30757" lon="2.58324">
        <ele>854.4</ele>
        <time>2018-11-28T03:06:45Z</time>
      </trkpt>
      <trkpt lat="42.30754" lon="2.5833">
        <ele>856.2</ele>
        <time>2018-11-28T03:06:48Z</time>
      </trkpt>
      <trkpt lat="42.30751" lon="2.58339">
        <ele>858.1</ele>
        <time>2018-11-28T03:06:51Z</time>
      </trkpt>
      <trkpt lat="42.30744" lon="2.58346">
        <ele>860</ele>
        <time>2018-11-28T03:06:54Z</time>
      </trkpt>
      <trkpt lat="42.30744" lon="2.58346">
        <ele>863.5</ele>
        <time>2018-11-28T03:06:54Z</time>
      </trkpt>
      <trkpt lat="42.30744" lon="2.58346">
        <ele>857.6</ele>
        <time>2018-11-28T03:06:54Z</time>
      </trkpt>
      <trkpt lat="42.30742" lon="2.58348">
        <ele>862</ele>
        <time>2018-11-28T03:06:55Z</time>
      </trkpt>
      <trkpt lat="42.30742" lon="2.58348">
        <ele>858.6</ele>
        <time>2018-11-28T03:06:55Z</time>
      </trkpt>
      <trkpt lat="42.30742" lon="2.58348">
        <ele>861.5</ele>
        <time>2018-11-28T03:06:55Z</time>
      </trkpt>
      <trkpt lat="42.30742" lon="2.58348">
        <ele>858.1</ele>
        <time>2018-11-28T03:06:55Z</time>
      </trkpt>
      <trkpt lat="42.30742" lon="2.58348">
        <ele>861.5</ele>
        <time>2018-11-28T03:06:55Z</time>
      </trkpt>
      <trkpt lat="42.30742" lon="2.58348">
        <ele>861.1</ele>
        <time>2018-11-28T03:06:55Z</time>
      </trkpt>
      <trkpt lat="42.30742" lon="2.58348">
        <ele>861.1</ele>
        <time>2018-11-28T03:06:55Z</time>
      </trkpt>
      <trkpt lat="42.30742" lon="2.58348">
        <ele>861</ele>
        <time>2018-11-28T03:06:55Z</time>
      </trkpt>
      <trkpt lat="42.30742" lon="2.58348">
        <ele>861.5</ele>
        <time>2018-11-28T03:06:55Z</time>
      </trkpt>
      <trkpt lat="42.30742" lon="2.58348">
        <ele>862</ele>
        <time>2018-11-28T03:06:55Z</time>
      </trkpt>
      <trkpt lat="42.30742" lon="2.58348">
        <ele>858.2</ele>
        <time>2018-11-28T03:06:55Z</time>
      </trkpt>
      <trkpt lat="42.30742" lon="2.58348">
        <ele>861</ele>
        <time>2018-11-28T03:06:55Z</time>
      </trkpt>
      <trkpt lat="42.30742" lon="2.58348">
        <ele>859.1</ele>
        <time>2018-11-28T03:06:55Z</time>
      </trkpt>
      <trkpt lat="42.30742" lon="2.58348">
        <ele>861.5</ele>
        <time>2018-11-28T03:06:55Z</time>
      </trkpt>
      <trkpt lat="42.30742" lon="2.58348">
        <ele>861.1</ele>
        <time>2018-11-28T03:06:55Z</time>
      </trkpt>
      <trkpt lat="42.30742" lon="2.58348">
        <ele>862</ele>
        <time>2018-11-28T03:06:55Z</time>
      </trkpt>
      <trkpt lat="42.30742" lon="2.58348">
        <ele>862.1</ele>
        <time>2018-11-28T03:06:55Z</time>
      </trkpt>
      <trkpt lat="42.30742" lon="2.58348">
        <ele>860.6</ele>
        <time>2018-11-28T03:06:55Z</time>
      </trkpt>
      <trkpt lat="42.30742" lon="2.58349">
        <ele>862.1</ele>
        <time>2018-11-28T03:06:55Z</time>
      </trkpt>
      <trkpt lat="42.30742" lon="2.58349">
        <ele>861.6</ele>
        <time>2018-11-28T03:06:55Z</time>
      </trkpt>
      <trkpt lat="42.30742" lon="2.58349">
        <ele>862.1</ele>
        <time>2018-11-28T03:06:55Z</time>
      </trkpt>
      <trkpt lat="42.30743" lon="2.58349">
        <ele>861.6</ele>
        <time>2018-11-28T03:06:56Z</time>
      </trkpt>
      <trkpt lat="42.30743" lon="2.58349">
        <ele>861.6</ele>
        <time>2018-11-28T03:06:56Z</time>
      </trkpt>
      <trkpt lat="42.30743" lon="2.58349">
        <ele>862.1</ele>
        <time>2018-11-28T03:06:56Z</time>
      </trkpt>
      <trkpt lat="42.30742" lon="2.5835">
        <ele>862.4</ele>
        <time>2018-11-28T03:06:56Z</time>
      </trkpt>
      <trkpt lat="42.30742" lon="2.5835">
        <ele>862.4</ele>
        <time>2018-11-28T03:06:56Z</time>
      </trkpt>
      <trkpt lat="42.30739" lon="2.58354">
        <ele>862.5</ele>
        <time>2018-11-28T03:06:58Z</time>
      </trkpt>
      <trkpt lat="42.30741" lon="2.5835">
        <ele>862.5</ele>
        <time>2018-11-28T03:06:59Z</time>
      </trkpt>
      <trkpt lat="42.3074" lon="2.5835">
        <ele>863.4</ele>
        <time>2018-11-28T03:06:59Z</time>
      </trkpt>
      <trkpt lat="42.3074" lon="2.5835">
        <ele>863.4</ele>
        <time>2018-11-28T03:06:59Z</time>
      </trkpt>
      <trkpt lat="42.3074" lon="2.5835">
        <ele>862.1</ele>
        <time>2018-11-28T03:06:59Z</time>
      </trkpt>
      <trkpt lat="42.30741" lon="2.5835">
        <ele>862.5</ele>
        <time>2018-11-28T03:06:59Z</time>
      </trkpt>
      <trkpt lat="42.30741" lon="2.5835">
        <ele>864.5</ele>
        <time>2018-11-28T03:06:59Z</time>
      </trkpt>
      <trkpt lat="42.3074" lon="2.5835">
        <ele>862.4</ele>
        <time>2018-11-28T03:06:59Z</time>
      </trkpt>
      <trkpt lat="42.3074" lon="2.5835">
        <ele>863.9</ele>
        <time>2018-11-28T03:06:59Z</time>
      </trkpt>
      <trkpt lat="42.3074" lon="2.5835">
        <ele>864.4</ele>
        <time>2018-11-28T03:07:00Z</time>
      </trkpt>
      <trkpt lat="42.3074" lon="2.5835">
        <ele>863.9</ele>
        <time>2018-11-28T03:07:00Z</time>
      </trkpt>
      <trkpt lat="42.3074" lon="2.5835">
        <ele>863.4</ele>
        <time>2018-11-28T03:07:00Z</time>
      </trkpt>
      <trkpt lat="42.3074" lon="2.58349">
        <ele>863.5</ele>
        <time>2018-11-28T03:07:00Z</time>
      </trkpt>
      <trkpt lat="42.30734" lon="2.58347">
        <ele>864.5</ele>
        <time>2018-11-28T03:07:02Z</time>
      </trkpt>
      <trkpt lat="42.30728" lon="2.58346">
        <ele>864.9</ele>
        <time>2018-11-28T03:07:05Z</time>
      </trkpt>
      <trkpt lat="42.30721" lon="2.58345">
        <ele>862.9</ele>
        <time>2018-11-28T03:07:08Z</time>
      </trkpt>
      <trkpt lat="42.30716" lon="2.58338">
        <ele>861.1</ele>
        <time>2018-11-28T03:07:10Z</time>
      </trkpt>
      <trkpt lat="42.30714" lon="2.58335">
        <ele>859.6</ele>
        <time>2018-11-28T03:07:12Z</time>
      </trkpt>
      <trkpt lat="42.30711" lon="2.58338">
        <ele>858.7</ele>
        <time>2018-11-28T03:07:13Z</time>
      </trkpt>
      <trkpt lat="42.30711" lon="2.58339">
        <ele>858.1</ele>
        <time>2018-11-28T03:07:13Z</time>
      </trkpt>
      <trkpt lat="42.30712" lon="2.58342">
        <ele>857.3</ele>
        <time>2018-11-28T03:07:14Z</time>
      </trkpt>
      <trkpt lat="42.30711" lon="2.58343">
        <ele>856.2</ele>
        <time>2018-11-28T03:07:15Z</time>
      </trkpt>
      <trkpt lat="42.30708" lon="2.5835">
        <ele>854.3</ele>
        <time>2018-11-28T03:07:17Z</time>
      </trkpt>
      <trkpt lat="42.30705" lon="2.58359">
        <ele>853.3</ele>
        <time>2018-11-28T03:07:20Z</time>
      </trkpt>
      <trkpt lat="42.30699" lon="2.58358">
        <ele>851.4</ele>
        <time>2018-11-28T03:07:22Z</time>
      </trkpt>
      <trkpt lat="42.30694" lon="2.58349">
        <ele>849.9</ele>
        <time>2018-11-28T03:07:25Z</time>
      </trkpt>
      <trkpt lat="42.30693" lon="2.58345">
        <ele>849</ele>
        <time>2018-11-28T03:07:26Z</time>
      </trkpt>
      <trkpt lat="42.30693" lon="2.58345">
        <ele>849.1</ele>
        <time>2018-11-28T03:07:27Z</time>
      </trkpt>
      <trkpt lat="42.3069" lon="2.5834">
        <ele>848.5</ele>
        <time>2018-11-28T03:07:28Z</time>
      </trkpt>
      <trkpt lat="42.30685" lon="2.58336">
        <ele>846.2</ele>
        <time>2018-11-28T03:07:31Z</time>
      </trkpt>
      <trkpt lat="42.30682" lon="2.58328">
        <ele>845.6</ele>
        <time>2018-11-28T03:07:33Z</time>
      </trkpt>
      <trkpt lat="42.30677" lon="2.58325">
        <ele>843.3</ele>
        <time>2018-11-28T03:07:36Z</time>
      </trkpt>
      <trkpt lat="42.30677" lon="2.58327">
        <ele>842.4</ele>
        <time>2018-11-28T03:07:36Z</time>
      </trkpt>
      <trkpt lat="42.30675" lon="2.58327">
        <ele>841.3</ele>
        <time>2018-11-28T03:07:37Z</time>
      </trkpt>
      <trkpt lat="42.30674" lon="2.58325">
        <ele>841.8</ele>
        <time>2018-11-28T03:07:37Z</time>
      </trkpt>
      <trkpt lat="42.30674" lon="2.58325">
        <ele>841.3</ele>
        <time>2018-11-28T03:07:37Z</time>
      </trkpt>
      <trkpt lat="42.30674" lon="2.58326">
        <ele>841.3</ele>
        <time>2018-11-28T03:07:37Z</time>
      </trkpt>
      <trkpt lat="42.30673" lon="2.58323">
        <ele>840.4</ele>
        <time>2018-11-28T03:07:38Z</time>
      </trkpt>
      <trkpt lat="42.3067" lon="2.58321">
        <ele>839.5</ele>
        <time>2018-11-28T03:07:40Z</time>
      </trkpt>
      <trkpt lat="42.30663" lon="2.58317">
        <ele>837.9</ele>
        <time>2018-11-28T03:07:43Z</time>
      </trkpt>
      <trkpt lat="42.30661" lon="2.58312">
        <ele>836</ele>
        <time>2018-11-28T03:07:44Z</time>
      </trkpt>
      <trkpt lat="42.30659" lon="2.58311">
        <ele>834.6</ele>
        <time>2018-11-28T03:07:45Z</time>
      </trkpt>
      <trkpt lat="42.30657" lon="2.58308">
        <ele>831.7</ele>
        <time>2018-11-28T03:07:46Z</time>
      </trkpt>
      <trkpt lat="42.30656" lon="2.58317">
        <ele>830.7</ele>
        <time>2018-11-28T03:07:49Z</time>
      </trkpt>
      <trkpt lat="42.30657" lon="2.58324">
        <ele>830.2</ele>
        <time>2018-11-28T03:07:51Z</time>
      </trkpt>
      <trkpt lat="42.30657" lon="2.58328">
        <ele>830.7</ele>
        <time>2018-11-28T03:07:52Z</time>
      </trkpt>
      <trkpt lat="42.30655" lon="2.58335">
        <ele>830.2</ele>
        <time>2018-11-28T03:07:55Z</time>
      </trkpt>
      <trkpt lat="42.30653" lon="2.5834">
        <ele>828.3</ele>
        <time>2018-11-28T03:07:56Z</time>
      </trkpt>
      <trkpt lat="42.30651" lon="2.5834">
        <ele>825.9</ele>
        <time>2018-11-28T03:07:57Z</time>
      </trkpt>
      <trkpt lat="42.30648" lon="2.58347">
        <ele>824.5</ele>
        <time>2018-11-28T03:07:59Z</time>
      </trkpt>
      <trkpt lat="42.30647" lon="2.58355">
        <ele>822.6</ele>
        <time>2018-11-28T03:08:02Z</time>
      </trkpt>
      <trkpt lat="42.30642" lon="2.58357">
        <ele>820.2</ele>
        <time>2018-11-28T03:08:04Z</time>
      </trkpt>
      <trkpt lat="42.30636" lon="2.58359">
        <ele>817.8</ele>
        <time>2018-11-28T03:08:06Z</time>
      </trkpt>
      <trkpt lat="42.30633" lon="2.58356">
        <ele>816.3</ele>
        <time>2018-11-28T03:08:08Z</time>
      </trkpt>
      <trkpt lat="42.30633" lon="2.58347">
        <ele>815.4</ele>
        <time>2018-11-28T03:08:10Z</time>
      </trkpt>
      <trkpt lat="42.3063" lon="2.58343">
        <ele>813</ele>
        <time>2018-11-28T03:08:12Z</time>
      </trkpt>
      <trkpt lat="42.30626" lon="2.58341">
        <ele>811.5</ele>
        <time>2018-11-28T03:08:13Z</time>
      </trkpt>
      <trkpt lat="42.30624" lon="2.58331">
        <ele>810.6</ele>
        <time>2018-11-28T03:08:17Z</time>
      </trkpt>
      <trkpt lat="42.30619" lon="2.58318">
        <ele>808.6</ele>
        <time>2018-11-28T03:08:21Z</time>
      </trkpt>
      <trkpt lat="42.30621" lon="2.58307">
        <ele>809.1</ele>
        <time>2018-11-28T03:08:24Z</time>
      </trkpt>
      <trkpt lat="42.30619" lon="2.58297">
        <ele>808.7</ele>
        <time>2018-11-28T03:08:27Z</time>
      </trkpt>
      <trkpt lat="42.3062" lon="2.58288">
        <ele>808.6</ele>
        <time>2018-11-28T03:08:30Z</time>
      </trkpt>
      <trkpt lat="42.3062" lon="2.58286">
        <ele>808.6</ele>
        <time>2018-11-28T03:08:31Z</time>
      </trkpt>
      <trkpt lat="42.30618" lon="2.58275">
        <ele>806.8</ele>
        <time>2018-11-28T03:08:34Z</time>
      </trkpt>
      <trkpt lat="42.30618" lon="2.58278">
        <ele>804.9</ele>
        <time>2018-11-28T03:08:35Z</time>
      </trkpt>
      <trkpt lat="42.30616" lon="2.58284">
        <ele>804.4</ele>
        <time>2018-11-28T03:08:37Z</time>
      </trkpt>
      <trkpt lat="42.30617" lon="2.58285">
        <ele>803.9</ele>
        <time>2018-11-28T03:08:37Z</time>
      </trkpt>
      <trkpt lat="42.30614" lon="2.58287">
        <ele>802.5</ele>
        <time>2018-11-28T03:08:38Z</time>
      </trkpt>
      <trkpt lat="42.30614" lon="2.58284">
        <ele>800.5</ele>
        <time>2018-11-28T03:08:39Z</time>
      </trkpt>
      <trkpt lat="42.30611" lon="2.58281">
        <ele>799.1</ele>
        <time>2018-11-28T03:08:41Z</time>
      </trkpt>
      <trkpt lat="42.30608" lon="2.58282">
        <ele>797.1</ele>
        <time>2018-11-28T03:08:42Z</time>
      </trkpt>
      <trkpt lat="42.30607" lon="2.58282">
        <ele>796.6</ele>
        <time>2018-11-28T03:08:43Z</time>
      </trkpt>
      <trkpt lat="42.30604" lon="2.58279">
        <ele>794.8</ele>
        <time>2018-11-28T03:08:44Z</time>
      </trkpt>
      <trkpt lat="42.30603" lon="2.58275">
        <ele>793.8</ele>
        <time>2018-11-28T03:08:45Z</time>
      </trkpt>
      <trkpt lat="42.30601" lon="2.58271">
        <ele>792.4</ele>
        <time>2018-11-28T03:08:47Z</time>
      </trkpt>
      <trkpt lat="42.30594" lon="2.58266">
        <ele>789.4</ele>
        <time>2018-11-28T03:08:50Z</time>
      </trkpt>
      <trkpt lat="42.30589" lon="2.58253">
        <ele>787.5</ele>
        <time>2018-11-28T03:08:54Z</time>
      </trkpt>
      <trkpt lat="42.30588" lon="2.5825">
        <ele>786.6</ele>
        <time>2018-11-28T03:08:55Z</time>
      </trkpt>
      <trkpt lat="42.30587" lon="2.58248">
        <ele>786.5</ele>
        <time>2018-11-28T03:08:56Z</time>
      </trkpt>
      <trkpt lat="42.30586" lon="2.5824">
        <ele>784.7</ele>
        <time>2018-11-28T03:08:58Z</time>
      </trkpt>
      <trkpt lat="42.30585" lon="2.58237">
        <ele>784.2</ele>
        <time>2018-11-28T03:08:59Z</time>
      </trkpt>
      <trkpt lat="42.30584" lon="2.58237">
        <ele>784.1</ele>
        <time>2018-11-28T03:08:59Z</time>
      </trkpt>
      <trkpt lat="42.30581" lon="2.58243">
        <ele>782.2</ele>
        <time>2018-11-28T03:09:02Z</time>
      </trkpt>
      <trkpt lat="42.30581" lon="2.58249">
        <ele>781.7</ele>
        <time>2018-11-28T03:09:03Z</time>
      </trkpt>
      <trkpt lat="42.30578" lon="2.58255">
        <ele>779.9</ele>
        <time>2018-11-28T03:09:06Z</time>
      </trkpt>
      <trkpt lat="42.30574" lon="2.58257">
        <ele>777</ele>
        <time>2018-11-28T03:09:07Z</time>
      </trkpt>
      <trkpt lat="42.30571" lon="2.58258">
        <ele>775.9</ele>
        <time>2018-11-28T03:09:09Z</time>
      </trkpt>
      <trkpt lat="42.30567" lon="2.58255">
        <ele>774.6</ele>
        <time>2018-11-28T03:09:11Z</time>
      </trkpt>
      <trkpt lat="42.30565" lon="2.58251">
        <ele>773.5</ele>
        <time>2018-11-28T03:09:12Z</time>
      </trkpt>
      <trkpt lat="42.30564" lon="2.58244">
        <ele>772.2</ele>
        <time>2018-11-28T03:09:14Z</time>
      </trkpt>
      <trkpt lat="42.30562" lon="2.58246">
        <ele>771.7</ele>
        <time>2018-11-28T03:09:15Z</time>
      </trkpt>
      <trkpt lat="42.30558" lon="2.58241">
        <ele>769.2</ele>
        <time>2018-11-28T03:09:18Z</time>
      </trkpt>
      <trkpt lat="42.30554" lon="2.58236">
        <ele>766.9</ele>
        <time>2018-11-28T03:09:20Z</time>
      </trkpt>
      <trkpt lat="42.3055" lon="2.58226">
        <ele>766.4</ele>
        <time>2018-11-28T03:09:23Z</time>
      </trkpt>
      <trkpt lat="42.30544" lon="2.58218">
        <ele>764.9</ele>
        <time>2018-11-28T03:09:26Z</time>
      </trkpt>
      <trkpt lat="42.30541" lon="2.58211">
        <ele>762.5</ele>
        <time>2018-11-28T03:09:29Z</time>
      </trkpt>
      <trkpt lat="42.30539" lon="2.58202">
        <ele>761</ele>
        <time>2018-11-28T03:09:31Z</time>
      </trkpt>
      <trkpt lat="42.30538" lon="2.58194">
        <ele>760.2</ele>
        <time>2018-11-28T03:09:34Z</time>
      </trkpt>
      <trkpt lat="42.30532" lon="2.58184">
        <ele>757.8</ele>
        <time>2018-11-28T03:09:38Z</time>
      </trkpt>
      <trkpt lat="42.3053" lon="2.58179">
        <ele>755.3</ele>
        <time>2018-11-28T03:09:39Z</time>
      </trkpt>
      <trkpt lat="42.30528" lon="2.58174">
        <ele>753.4</ele>
        <time>2018-11-28T03:09:41Z</time>
      </trkpt>
      <trkpt lat="42.30524" lon="2.58164">
        <ele>750.6</ele>
        <time>2018-11-28T03:09:44Z</time>
      </trkpt>
      <trkpt lat="42.30516" lon="2.5815">
        <ele>747.6</ele>
        <time>2018-11-28T03:09:50Z</time>
      </trkpt>
      <trkpt lat="42.30513" lon="2.58144">
        <ele>744.8</ele>
        <time>2018-11-28T03:09:52Z</time>
      </trkpt>
      <trkpt lat="42.3051" lon="2.58137">
        <ele>743.8</ele>
        <time>2018-11-28T03:09:54Z</time>
      </trkpt>
      <trkpt lat="42.30508" lon="2.58132">
        <ele>742.9</ele>
        <time>2018-11-28T03:09:56Z</time>
      </trkpt>
      <trkpt lat="42.30504" lon="2.58117">
        <ele>740.4</ele>
        <time>2018-11-28T03:10:01Z</time>
      </trkpt>
      <trkpt lat="42.30503" lon="2.58113">
        <ele>738.4</ele>
        <time>2018-11-28T03:10:02Z</time>
      </trkpt>
      <trkpt lat="42.30499" lon="2.58106">
        <ele>736</ele>
        <time>2018-11-28T03:10:05Z</time>
      </trkpt>
      <trkpt lat="42.30496" lon="2.58103">
        <ele>735.6</ele>
        <time>2018-11-28T03:10:06Z</time>
      </trkpt>
      <trkpt lat="42.30495" lon="2.58099">
        <ele>733.6</ele>
        <time>2018-11-28T03:10:07Z</time>
      </trkpt>
      <trkpt lat="42.30486" lon="2.58092">
        <ele>731.7</ele>
        <time>2018-11-28T03:10:11Z</time>
      </trkpt>
      <trkpt lat="42.30482" lon="2.58097">
        <ele>728.8</ele>
        <time>2018-11-28T03:10:13Z</time>
      </trkpt>
      <trkpt lat="42.30482" lon="2.58099">
        <ele>728.4</ele>
        <time>2018-11-28T03:10:14Z</time>
      </trkpt>
      <trkpt lat="42.30482" lon="2.58099">
        <ele>728.9</ele>
        <time>2018-11-28T03:10:14Z</time>
      </trkpt>
      <trkpt lat="42.30482" lon="2.58099">
        <ele>728.3</ele>
        <time>2018-11-28T03:10:14Z</time>
      </trkpt>
      <trkpt lat="42.30482" lon="2.58099">
        <ele>728.4</ele>
        <time>2018-11-28T03:10:14Z</time>
      </trkpt>
      <trkpt lat="42.30483" lon="2.58097">
        <ele>728.9</ele>
        <time>2018-11-28T03:10:15Z</time>
      </trkpt>
      <trkpt lat="42.3048" lon="2.58095">
        <ele>727.9</ele>
        <time>2018-11-28T03:10:16Z</time>
      </trkpt>
      <trkpt lat="42.30477" lon="2.58094">
        <ele>726.4</ele>
        <time>2018-11-28T03:10:17Z</time>
      </trkpt>
      <trkpt lat="42.30478" lon="2.58095">
        <ele>726.4</ele>
        <time>2018-11-28T03:10:17Z</time>
      </trkpt>
      <trkpt lat="42.30473" lon="2.58096">
        <ele>725.9</ele>
        <time>2018-11-28T03:10:19Z</time>
      </trkpt>
      <trkpt lat="42.30473" lon="2.58096">
        <ele>725.5</ele>
        <time>2018-11-28T03:10:19Z</time>
      </trkpt>
      <trkpt lat="42.30472" lon="2.58097">
        <ele>723.6</ele>
        <time>2018-11-28T03:10:20Z</time>
      </trkpt>
      <trkpt lat="42.30471" lon="2.58096">
        <ele>722.2</ele>
        <time>2018-11-28T03:10:21Z</time>
      </trkpt>
      <trkpt lat="42.30469" lon="2.58087">
        <ele>719.2</ele>
        <time>2018-11-28T03:10:24Z</time>
      </trkpt>
      <trkpt lat="42.30467" lon="2.5808">
        <ele>716.4</ele>
        <time>2018-11-28T03:10:26Z</time>
      </trkpt>
      <trkpt lat="42.30464" lon="2.58088">
        <ele>714</ele>
        <time>2018-11-28T03:10:29Z</time>
      </trkpt>
      <trkpt lat="42.30462" lon="2.58089">
        <ele>712.1</ele>
        <time>2018-11-28T03:10:29Z</time>
      </trkpt>
      <trkpt lat="42.3046" lon="2.58096">
        <ele>710.1</ele>
        <time>2018-11-28T03:10:32Z</time>
      </trkpt>
      <trkpt lat="42.30458" lon="2.581">
        <ele>708.6</ele>
        <time>2018-11-28T03:10:33Z</time>
      </trkpt>
      <trkpt lat="42.30458" lon="2.58101">
        <ele>706.7</ele>
        <time>2018-11-28T03:10:33Z</time>
      </trkpt>
      <trkpt lat="42.30456" lon="2.58093">
        <ele>704.8</ele>
        <time>2018-11-28T03:10:36Z</time>
      </trkpt>
      <trkpt lat="42.3045" lon="2.58089">
        <ele>702.5</ele>
        <time>2018-11-28T03:10:39Z</time>
      </trkpt>
      <trkpt lat="42.30442" lon="2.5808">
        <ele>700.1</ele>
        <time>2018-11-28T03:10:43Z</time>
      </trkpt>
      <trkpt lat="42.30442" lon="2.5808">
        <ele>699.1</ele>
        <time>2018-11-28T03:10:43Z</time>
      </trkpt>
      <trkpt lat="42.3044" lon="2.58078">
        <ele>697.6</ele>
        <time>2018-11-28T03:10:44Z</time>
      </trkpt>
      <trkpt lat="42.30438" lon="2.58075">
        <ele>695.8</ele>
        <time>2018-11-28T03:10:45Z</time>
      </trkpt>
      <trkpt lat="42.30437" lon="2.58077">
        <ele>692.9</ele>
        <time>2018-11-28T03:10:46Z</time>
      </trkpt>
      <trkpt lat="42.30437" lon="2.5808">
        <ele>692.4</ele>
        <time>2018-11-28T03:10:47Z</time>
      </trkpt>
      <trkpt lat="42.30437" lon="2.5808">
        <ele>692.3</ele>
        <time>2018-11-28T03:10:47Z</time>
      </trkpt>
      <trkpt lat="42.30434" lon="2.58078">
        <ele>689.9</ele>
        <time>2018-11-28T03:10:48Z</time>
      </trkpt>
      <trkpt lat="42.30434" lon="2.58078">
        <ele>688.4</ele>
        <time>2018-11-28T03:10:48Z</time>
      </trkpt>
      <trkpt lat="42.30432" lon="2.58074">
        <ele>686.5</ele>
        <time>2018-11-28T03:10:50Z</time>
      </trkpt>
      <trkpt lat="42.30431" lon="2.58072">
        <ele>684.6</ele>
        <time>2018-11-28T03:10:51Z</time>
      </trkpt>
      <trkpt lat="42.30426" lon="2.58063">
        <ele>682.2</ele>
        <time>2018-11-28T03:10:54Z</time>
      </trkpt>
      <trkpt lat="42.3042" lon="2.58056">
        <ele>680.9</ele>
        <time>2018-11-28T03:10:57Z</time>
      </trkpt>
      <trkpt lat="42.30417" lon="2.58055">
        <ele>678.8</ele>
        <time>2018-11-28T03:10:58Z</time>
      </trkpt>
      <trkpt lat="42.30411" lon="2.58054">
        <ele>676.5</ele>
        <time>2018-11-28T03:11:01Z</time>
      </trkpt>
      <trkpt lat="42.30408" lon="2.58054">
        <ele>675.6</ele>
        <time>2018-11-28T03:11:02Z</time>
      </trkpt>
      <trkpt lat="42.30393" lon="2.58033">
        <ele>673.5</ele>
        <time>2018-11-28T03:11:11Z</time>
      </trkpt>
      <trkpt lat="42.30385" lon="2.58028">
        <ele>673.1</ele>
        <time>2018-11-28T03:11:14Z</time>
      </trkpt>
      <trkpt lat="42.30382" lon="2.58028">
        <ele>672.6</ele>
        <time>2018-11-28T03:11:15Z</time>
      </trkpt>
      <trkpt lat="42.30376" lon="2.58029">
        <ele>675.1</ele>
        <time>2018-11-28T03:11:18Z</time>
      </trkpt>
      <trkpt lat="42.30375" lon="2.58028">
        <ele>675</ele>
        <time>2018-11-28T03:11:18Z</time>
      </trkpt>
      <trkpt lat="42.30375" lon="2.58027">
        <ele>675.5</ele>
        <time>2018-11-28T03:11:19Z</time>
      </trkpt>
      <trkpt lat="42.30374" lon="2.58017">
        <ele>676</ele>
        <time>2018-11-28T03:11:21Z</time>
      </trkpt>
      <trkpt lat="42.30373" lon="2.58001">
        <ele>674.5</ele>
        <time>2018-11-28T03:11:26Z</time>
      </trkpt>
      <trkpt lat="42.3037" lon="2.57997">
        <ele>672.1</ele>
        <time>2018-11-28T03:11:28Z</time>
      </trkpt>
      <trkpt lat="42.3037" lon="2.57997">
        <ele>669.8</ele>
        <time>2018-11-28T03:11:28Z</time>
      </trkpt>
      <trkpt lat="42.3037" lon="2.57997">
        <ele>669.2</ele>
        <time>2018-11-28T03:11:28Z</time>
      </trkpt>
      <trkpt lat="42.30374" lon="2.57988">
        <ele>670.3</ele>
        <time>2018-11-28T03:11:31Z</time>
      </trkpt>
      <trkpt lat="42.30378" lon="2.57976">
        <ele>671.7</ele>
        <time>2018-11-28T03:11:35Z</time>
      </trkpt>
      <trkpt lat="42.30383" lon="2.57956">
        <ele>672.7</ele>
        <time>2018-11-28T03:11:41Z</time>
      </trkpt>
      <trkpt lat="42.30386" lon="2.57952">
        <ele>673.2</ele>
        <time>2018-11-28T03:11:43Z</time>
      </trkpt>
      <trkpt lat="42.30387" lon="2.57949">
        <ele>673.1</ele>
        <time>2018-11-28T03:11:44Z</time>
      </trkpt>
      <trkpt lat="42.3039" lon="2.57932">
        <ele>675.5</ele>
        <time>2018-11-28T03:11:49Z</time>
      </trkpt>
      <trkpt lat="42.30391" lon="2.57925">
        <ele>675</ele>
        <time>2018-11-28T03:11:51Z</time>
      </trkpt>
      <trkpt lat="42.3039" lon="2.57921">
        <ele>675</ele>
        <time>2018-11-28T03:11:52Z</time>
      </trkpt>
      <trkpt lat="42.30392" lon="2.57907">
        <ele>674.5</ele>
        <time>2018-11-28T03:11:57Z</time>
      </trkpt>
      <trkpt lat="42.30395" lon="2.57888">
        <ele>674.6</ele>
        <time>2018-11-28T03:12:03Z</time>
      </trkpt>
      <trkpt lat="42.30392" lon="2.57873">
        <ele>673.2</ele>
        <time>2018-11-28T03:12:07Z</time>
      </trkpt>
      <trkpt lat="42.30389" lon="2.57863">
        <ele>673.6</ele>
        <time>2018-11-28T03:12:10Z</time>
      </trkpt>
      <trkpt lat="42.30388" lon="2.57863">
        <ele>673.6</ele>
        <time>2018-11-28T03:12:10Z</time>
      </trkpt>
      <trkpt lat="42.30388" lon="2.57863">
        <ele>673.1</ele>
        <time>2018-11-28T03:12:10Z</time>
      </trkpt>
      <trkpt lat="42.30386" lon="2.57851">
        <ele>672.1</ele>
        <time>2018-11-28T03:12:14Z</time>
      </trkpt>
      <trkpt lat="42.30385" lon="2.57845">
        <ele>670.2</ele>
        <time>2018-11-28T03:12:16Z</time>
      </trkpt>
      <trkpt lat="42.30379" lon="2.57834">
        <ele>668.8</ele>
        <time>2018-11-28T03:12:20Z</time>
      </trkpt>
      <trkpt lat="42.30377" lon="2.57827">
        <ele>666.8</ele>
        <time>2018-11-28T03:12:22Z</time>
      </trkpt>
      <trkpt lat="42.30373" lon="2.5783">
        <ele>663.9</ele>
        <time>2018-11-28T03:12:24Z</time>
      </trkpt>
      <trkpt lat="42.30369" lon="2.57821">
        <ele>663</ele>
        <time>2018-11-28T03:12:27Z</time>
      </trkpt>
      <trkpt lat="42.30365" lon="2.57819">
        <ele>661</ele>
        <time>2018-11-28T03:12:29Z</time>
      </trkpt>
      <trkpt lat="42.30363" lon="2.57812">
        <ele>659.7</ele>
        <time>2018-11-28T03:12:31Z</time>
      </trkpt>
      <trkpt lat="42.3036" lon="2.578">
        <ele>658.6</ele>
        <time>2018-11-28T03:12:35Z</time>
      </trkpt>
      <trkpt lat="42.30356" lon="2.57791">
        <ele>657.8</ele>
        <time>2018-11-28T03:12:38Z</time>
      </trkpt>
      <trkpt lat="42.30348" lon="2.57779">
        <ele>657.3</ele>
        <time>2018-11-28T03:12:43Z</time>
      </trkpt>
      <trkpt lat="42.30346" lon="2.57777">
        <ele>656.3</ele>
        <time>2018-11-28T03:12:44Z</time>
      </trkpt>
      <trkpt lat="42.30345" lon="2.57777">
        <ele>655.9</ele>
        <time>2018-11-28T03:12:44Z</time>
      </trkpt>
      <trkpt lat="42.30344" lon="2.57777">
        <ele>655.3</ele>
        <time>2018-11-28T03:12:44Z</time>
      </trkpt>
      <trkpt lat="42.30344" lon="2.57777">
        <ele>654.8</ele>
        <time>2018-11-28T03:12:45Z</time>
      </trkpt>
      <trkpt lat="42.3034" lon="2.57775">
        <ele>653.8</ele>
        <time>2018-11-28T03:12:46Z</time>
      </trkpt>
      <trkpt lat="42.30334" lon="2.57775">
        <ele>651.9</ele>
        <time>2018-11-28T03:12:49Z</time>
      </trkpt>
      <trkpt lat="42.3033" lon="2.57781">
        <ele>648.6</ele>
        <time>2018-11-28T03:12:51Z</time>
      </trkpt>
      <trkpt lat="42.30329" lon="2.57777">
        <ele>647.7</ele>
        <time>2018-11-28T03:12:53Z</time>
      </trkpt>
      <trkpt lat="42.30324" lon="2.57759">
        <ele>647.1</ele>
        <time>2018-11-28T03:12:58Z</time>
      </trkpt>
      <trkpt lat="42.30325" lon="2.57743">
        <ele>646.2</ele>
        <time>2018-11-28T03:13:03Z</time>
      </trkpt>
      <trkpt lat="42.30331" lon="2.57727">
        <ele>644.7</ele>
        <time>2018-11-28T03:13:08Z</time>
      </trkpt>
      <trkpt lat="42.30334" lon="2.57723">
        <ele>644.3</ele>
        <time>2018-11-28T03:13:10Z</time>
      </trkpt>
      <trkpt lat="42.30338" lon="2.57711">
        <ele>642.9</ele>
        <time>2018-11-28T03:13:14Z</time>
      </trkpt>
      <trkpt lat="42.30332" lon="2.57698">
        <ele>641.8</ele>
        <time>2018-11-28T03:13:19Z</time>
      </trkpt>
      <trkpt lat="42.30318" lon="2.57692">
        <ele>640.4</ele>
        <time>2018-11-28T03:13:25Z</time>
      </trkpt>
      <trkpt lat="42.30307" lon="2.57682">
        <ele>638.6</ele>
        <time>2018-11-28T03:13:30Z</time>
      </trkpt>
      <trkpt lat="42.30292" lon="2.57671">
        <ele>638</ele>
        <time>2018-11-28T03:13:37Z</time>
      </trkpt>
      <trkpt lat="42.3029" lon="2.57667">
        <ele>638</ele>
        <time>2018-11-28T03:13:38Z</time>
      </trkpt>
      <trkpt lat="42.30286" lon="2.57662">
        <ele>639.5</ele>
        <time>2018-11-28T03:13:40Z</time>
      </trkpt>
      <trkpt lat="42.30275" lon="2.5765">
        <ele>639.5</ele>
        <time>2018-11-28T03:13:46Z</time>
      </trkpt>
      <trkpt lat="42.30268" lon="2.57639">
        <ele>639.9</ele>
        <time>2018-11-28T03:13:50Z</time>
      </trkpt>
      <trkpt lat="42.30265" lon="2.57635">
        <ele>639.4</ele>
        <time>2018-11-28T03:13:52Z</time>
      </trkpt>
      <trkpt lat="42.30257" lon="2.57635">
        <ele>638.6</ele>
        <time>2018-11-28T03:13:55Z</time>
      </trkpt>
      <trkpt lat="42.30256" lon="2.57639">
        <ele>638.1</ele>
        <time>2018-11-28T03:13:56Z</time>
      </trkpt>
      <trkpt lat="42.30256" lon="2.57639">
        <ele>639</ele>
        <time>2018-11-28T03:13:56Z</time>
      </trkpt>
      <trkpt lat="42.30256" lon="2.57639">
        <ele>639</ele>
        <time>2018-11-28T03:13:56Z</time>
      </trkpt>
      <trkpt lat="42.30255" lon="2.57645">
        <ele>639.5</ele>
        <time>2018-11-28T03:13:58Z</time>
      </trkpt>
      <trkpt lat="42.30252" lon="2.57659">
        <ele>640</ele>
        <time>2018-11-28T03:14:02Z</time>
      </trkpt>
      <trkpt lat="42.30246" lon="2.57663">
        <ele>639.4</ele>
        <time>2018-11-28T03:14:05Z</time>
      </trkpt>
      <trkpt lat="42.30236" lon="2.57664">
        <ele>638</ele>
        <time>2018-11-28T03:14:09Z</time>
      </trkpt>
      <trkpt lat="42.30222" lon="2.57667">
        <ele>636.6</ele>
        <time>2018-11-28T03:14:15Z</time>
      </trkpt>
      <trkpt lat="42.30217" lon="2.57671">
        <ele>636.2</ele>
        <time>2018-11-28T03:14:17Z</time>
      </trkpt>
      <trkpt lat="42.30213" lon="2.57672">
        <ele>636.2</ele>
        <time>2018-11-28T03:14:19Z</time>
      </trkpt>
      <trkpt lat="42.30205" lon="2.57673">
        <ele>634.2</ele>
        <time>2018-11-28T03:14:22Z</time>
      </trkpt>
      <trkpt lat="42.30203" lon="2.57676">
        <ele>634.2</ele>
        <time>2018-11-28T03:14:23Z</time>
      </trkpt>
      <trkpt lat="42.30203" lon="2.57676">
        <ele>632.3</ele>
        <time>2018-11-28T03:14:23Z</time>
      </trkpt>
      <trkpt lat="42.30197" lon="2.57683">
        <ele>631.8</ele>
        <time>2018-11-28T03:14:26Z</time>
      </trkpt>
      <trkpt lat="42.30191" lon="2.57687">
        <ele>630.4</ele>
        <time>2018-11-28T03:14:29Z</time>
      </trkpt>
      <trkpt lat="42.30186" lon="2.57685">
        <ele>628.5</ele>
        <time>2018-11-28T03:14:31Z</time>
      </trkpt>
      <trkpt lat="42.30181" lon="2.57689">
        <ele>626.9</ele>
        <time>2018-11-28T03:14:33Z</time>
      </trkpt>
      <trkpt lat="42.30175" lon="2.57694">
        <ele>625.5</ele>
        <time>2018-11-28T03:14:36Z</time>
      </trkpt>
      <trkpt lat="42.30173" lon="2.57697">
        <ele>625</ele>
        <time>2018-11-28T03:14:37Z</time>
      </trkpt>
      <trkpt lat="42.30161" lon="2.57703">
        <ele>624</ele>
        <time>2018-11-28T03:14:43Z</time>
      </trkpt>
      <trkpt lat="42.30148" lon="2.577">
        <ele>623.6</ele>
        <time>2018-11-28T03:14:48Z</time>
      </trkpt>
      <trkpt lat="42.30144" lon="2.577">
        <ele>623.7</ele>
        <time>2018-11-28T03:14:49Z</time>
      </trkpt>
      <trkpt lat="42.30138" lon="2.57697">
        <ele>624.1</ele>
        <time>2018-11-28T03:14:52Z</time>
      </trkpt>
      <trkpt lat="42.30129" lon="2.57693">
        <ele>624.6</ele>
        <time>2018-11-28T03:14:55Z</time>
      </trkpt>
      <trkpt lat="42.30116" lon="2.57681">
        <ele>626</ele>
        <time>2018-11-28T03:15:02Z</time>
      </trkpt>
      <trkpt lat="42.30113" lon="2.57676">
        <ele>626.1</ele>
        <time>2018-11-28T03:15:04Z</time>
      </trkpt>
      <trkpt lat="42.30109" lon="2.57671">
        <ele>626.4</ele>
        <time>2018-11-28T03:15:06Z</time>
      </trkpt>
      <trkpt lat="42.30107" lon="2.5767">
        <ele>626.1</ele>
        <time>2018-11-28T03:15:07Z</time>
      </trkpt>
      <trkpt lat="42.30097" lon="2.57648">
        <ele>626.4</ele>
        <time>2018-11-28T03:15:15Z</time>
      </trkpt>
      <trkpt lat="42.30097" lon="2.57646">
        <ele>626.9</ele>
        <time>2018-11-28T03:15:15Z</time>
      </trkpt>
      <trkpt lat="42.30094" lon="2.57644">
        <ele>626</ele>
        <time>2018-11-28T03:15:16Z</time>
      </trkpt>
      <trkpt lat="42.30086" lon="2.57671">
        <ele>627</ele>
        <time>2018-11-28T03:15:25Z</time>
      </trkpt>
      <trkpt lat="42.30085" lon="2.57674">
        <ele>626.1</ele>
        <time>2018-11-28T03:15:26Z</time>
      </trkpt>
      <trkpt lat="42.30084" lon="2.57689">
        <ele>624.1</ele>
        <time>2018-11-28T03:15:30Z</time>
      </trkpt>
      <trkpt lat="42.30082" lon="2.577">
        <ele>621.3</ele>
        <time>2018-11-28T03:15:33Z</time>
      </trkpt>
      <trkpt lat="42.3008" lon="2.57714">
        <ele>619.3</ele>
        <time>2018-11-28T03:15:38Z</time>
      </trkpt>
      <trkpt lat="42.30083" lon="2.57728">
        <ele>616.8</ele>
        <time>2018-11-28T03:15:42Z</time>
      </trkpt>
      <trkpt lat="42.30078" lon="2.57742">
        <ele>615</ele>
        <time>2018-11-28T03:15:46Z</time>
      </trkpt>
      <trkpt lat="42.30077" lon="2.57775">
        <ele>613.6</ele>
        <time>2018-11-28T03:15:56Z</time>
      </trkpt>
      <trkpt lat="42.30076" lon="2.57786">
        <ele>613.1</ele>
        <time>2018-11-28T03:15:59Z</time>
      </trkpt>
      <trkpt lat="42.30074" lon="2.57795">
        <ele>610.1</ele>
        <time>2018-11-28T03:16:02Z</time>
      </trkpt>
      <trkpt lat="42.30072" lon="2.57805">
        <ele>606.7</ele>
        <time>2018-11-28T03:16:05Z</time>
      </trkpt>
      <trkpt lat="42.30068" lon="2.57814">
        <ele>604.3</ele>
        <time>2018-11-28T03:16:08Z</time>
      </trkpt>
      <trkpt lat="42.30064" lon="2.57819">
        <ele>603.5</ele>
        <time>2018-11-28T03:16:11Z</time>
      </trkpt>
      <trkpt lat="42.30057" lon="2.57832">
        <ele>603.5</ele>
        <time>2018-11-28T03:16:15Z</time>
      </trkpt>
      <trkpt lat="42.3005" lon="2.5784">
        <ele>602.9</ele>
        <time>2018-11-28T03:16:19Z</time>
      </trkpt>
      <trkpt lat="42.30047" lon="2.57843">
        <ele>602.4</ele>
        <time>2018-11-28T03:16:21Z</time>
      </trkpt>
      <trkpt lat="42.30036" lon="2.57855">
        <ele>604</ele>
        <time>2018-11-28T03:16:26Z</time>
      </trkpt>
      <trkpt lat="42.30031" lon="2.57865">
        <ele>605.4</ele>
        <time>2018-11-28T03:16:30Z</time>
      </trkpt>
      <trkpt lat="42.30025" lon="2.5787">
        <ele>605.4</ele>
        <time>2018-11-28T03:16:32Z</time>
      </trkpt>
      <trkpt lat="42.30023" lon="2.57871">
        <ele>606.3</ele>
        <time>2018-11-28T03:16:34Z</time>
      </trkpt>
      <trkpt lat="42.30016" lon="2.57882">
        <ele>607.7</ele>
        <time>2018-11-28T03:16:38Z</time>
      </trkpt>
      <trkpt lat="42.30016" lon="2.57882">
        <ele>608.3</ele>
        <time>2018-11-28T03:16:38Z</time>
      </trkpt>
      <trkpt lat="42.30015" lon="2.57889">
        <ele>609.6</ele>
        <time>2018-11-28T03:16:40Z</time>
      </trkpt>
      <trkpt lat="42.30009" lon="2.57899">
        <ele>608.2</ele>
        <time>2018-11-28T03:16:44Z</time>
      </trkpt>
      <trkpt lat="42.30004" lon="2.57916">
        <ele>606.8</ele>
        <time>2018-11-28T03:16:49Z</time>
      </trkpt>
      <trkpt lat="42.29995" lon="2.57934">
        <ele>606.7</ele>
        <time>2018-11-28T03:16:56Z</time>
      </trkpt>
      <trkpt lat="42.29987" lon="2.57952">
        <ele>606.4</ele>
        <time>2018-11-28T03:17:02Z</time>
      </trkpt>
      <trkpt lat="42.29983" lon="2.57962">
        <ele>607.8</ele>
        <time>2018-11-28T03:17:05Z</time>
      </trkpt>
      <trkpt lat="42.29977" lon="2.57975">
        <ele>607.2</ele>
        <time>2018-11-28T03:17:10Z</time>
      </trkpt>
      <trkpt lat="42.29974" lon="2.57977">
        <ele>607.2</ele>
        <time>2018-11-28T03:17:11Z</time>
      </trkpt>
      <trkpt lat="42.29971" lon="2.5798">
        <ele>607.3</ele>
        <time>2018-11-28T03:17:13Z</time>
      </trkpt>
      <trkpt lat="42.2997" lon="2.5798">
        <ele>605.8</ele>
        <time>2018-11-28T03:17:13Z</time>
      </trkpt>
      <trkpt lat="42.29973" lon="2.57995">
        <ele>604.4</ele>
        <time>2018-11-28T03:17:17Z</time>
      </trkpt>
      <trkpt lat="42.29973" lon="2.58009">
        <ele>603</ele>
        <time>2018-11-28T03:17:21Z</time>
      </trkpt>
      <trkpt lat="42.29973" lon="2.58025">
        <ele>601</ele>
        <time>2018-11-28T03:17:26Z</time>
      </trkpt>
      <trkpt lat="42.29973" lon="2.58046">
        <ele>598.1</ele>
        <time>2018-11-28T03:17:32Z</time>
      </trkpt>
      <trkpt lat="42.29972" lon="2.58062">
        <ele>598.2</ele>
        <time>2018-11-28T03:17:37Z</time>
      </trkpt>
      <trkpt lat="42.29969" lon="2.58069">
        <ele>598.1</ele>
        <time>2018-11-28T03:17:40Z</time>
      </trkpt>
      <trkpt lat="42.29967" lon="2.58071">
        <ele>598.2</ele>
        <time>2018-11-28T03:17:41Z</time>
      </trkpt>
      <trkpt lat="42.29961" lon="2.58069">
        <ele>598.2</ele>
        <time>2018-11-28T03:17:43Z</time>
      </trkpt>
      <trkpt lat="42.29959" lon="2.58067">
        <ele>598.2</ele>
        <time>2018-11-28T03:17:44Z</time>
      </trkpt>
      <trkpt lat="42.29955" lon="2.58062">
        <ele>599.1</ele>
        <time>2018-11-28T03:17:46Z</time>
      </trkpt>
      <trkpt lat="42.29956" lon="2.5806">
        <ele>597.7</ele>
        <time>2018-11-28T03:17:47Z</time>
      </trkpt>
      <trkpt lat="42.29956" lon="2.5806">
        <ele>599.1</ele>
        <time>2018-11-28T03:17:47Z</time>
      </trkpt>
      <trkpt lat="42.29956" lon="2.5806">
        <ele>592.8</ele>
        <time>2018-11-28T03:17:47Z</time>
      </trkpt>
      <trkpt lat="42.29956" lon="2.5806">
        <ele>597.7</ele>
        <time>2018-11-28T03:17:47Z</time>
      </trkpt>
      <trkpt lat="42.29956" lon="2.5806">
        <ele>597.6</ele>
        <time>2018-11-28T03:17:47Z</time>
      </trkpt>
      <trkpt lat="42.29956" lon="2.5806">
        <ele>598.1</ele>
        <time>2018-11-28T03:17:47Z</time>
      </trkpt>
      <trkpt lat="42.29956" lon="2.58061">
        <ele>598.2</ele>
        <time>2018-11-28T03:17:47Z</time>
      </trkpt>
      <trkpt lat="42.29955" lon="2.58061">
        <ele>598.2</ele>
        <time>2018-11-28T03:17:48Z</time>
      </trkpt>
      <trkpt lat="42.29955" lon="2.58061">
        <ele>598.7</ele>
        <time>2018-11-28T03:17:48Z</time>
      </trkpt>
      <trkpt lat="42.29955" lon="2.58061">
        <ele>598.6</ele>
        <time>2018-11-28T03:17:48Z</time>
      </trkpt>
      <trkpt lat="42.29955" lon="2.58061">
        <ele>598.6</ele>
        <time>2018-11-28T03:17:48Z</time>
      </trkpt>
      <trkpt lat="42.29955" lon="2.58061">
        <ele>599.1</ele>
        <time>2018-11-28T03:17:48Z</time>
      </trkpt>
      <trkpt lat="42.29955" lon="2.58061">
        <ele>599.1</ele>
        <time>2018-11-28T03:17:48Z</time>
      </trkpt>
      <trkpt lat="42.29955" lon="2.58061">
        <ele>599.1</ele>
        <time>2018-11-28T03:17:48Z</time>
      </trkpt>
      <trkpt lat="42.29955" lon="2.58061">
        <ele>599</ele>
        <time>2018-11-28T03:17:48Z</time>
      </trkpt>
      <trkpt lat="42.29955" lon="2.58062">
        <ele>599.5</ele>
        <time>2018-11-28T03:17:48Z</time>
      </trkpt>
      <trkpt lat="42.29955" lon="2.58062">
        <ele>599.5</ele>
        <time>2018-11-28T03:17:48Z</time>
      </trkpt>
      <trkpt lat="42.29955" lon="2.58061">
        <ele>599.5</ele>
        <time>2018-11-28T03:17:48Z</time>
      </trkpt>
      <trkpt lat="42.29955" lon="2.58061">
        <ele>599.6</ele>
        <time>2018-11-28T03:17:48Z</time>
      </trkpt>
      <trkpt lat="42.29955" lon="2.58061">
        <ele>599.5</ele>
        <time>2018-11-28T03:17:48Z</time>
      </trkpt>
      <trkpt lat="42.29955" lon="2.58061">
        <ele>600.1</ele>
        <time>2018-11-28T03:17:48Z</time>
      </trkpt>
      <trkpt lat="42.29955" lon="2.58061">
        <ele>600.1</ele>
        <time>2018-11-28T03:17:48Z</time>
      </trkpt>
      <trkpt lat="42.29955" lon="2.58061">
        <ele>596.3</ele>
        <time>2018-11-28T03:17:48Z</time>
      </trkpt>
      <trkpt lat="42.29955" lon="2.58061">
        <ele>595.7</ele>
        <time>2018-11-28T03:17:48Z</time>
      </trkpt>
      <trkpt lat="42.29956" lon="2.58062">
        <ele>601.1</ele>
        <time>2018-11-28T03:17:48Z</time>
      </trkpt>
      <trkpt lat="42.29956" lon="2.58062">
        <ele>596.7</ele>
        <time>2018-11-28T03:17:48Z</time>
      </trkpt>
      <trkpt lat="42.29956" lon="2.58062">
        <ele>601</ele>
        <time>2018-11-28T03:17:48Z</time>
      </trkpt>
      <trkpt lat="42.29956" lon="2.58062">
        <ele>601.1</ele>
        <time>2018-11-28T03:17:48Z</time>
      </trkpt>
      <trkpt lat="42.29956" lon="2.58061">
        <ele>600.5</ele>
        <time>2018-11-28T03:17:48Z</time>
      </trkpt>
      <trkpt lat="42.29955" lon="2.58061">
        <ele>600.5</ele>
        <time>2018-11-28T03:17:48Z</time>
      </trkpt>
      <trkpt lat="42.29955" lon="2.58061">
        <ele>601</ele>
        <time>2018-11-28T03:17:48Z</time>
      </trkpt>
      <trkpt lat="42.29955" lon="2.58061">
        <ele>600.6</ele>
        <time>2018-11-28T03:17:48Z</time>
      </trkpt>
      <trkpt lat="42.29956" lon="2.58061">
        <ele>600.6</ele>
        <time>2018-11-28T03:17:49Z</time>
      </trkpt>
      <trkpt lat="42.29955" lon="2.58061">
        <ele>600.6</ele>
        <time>2018-11-28T03:17:49Z</time>
      </trkpt>
      <trkpt lat="42.29955" lon="2.58061">
        <ele>601.1</ele>
        <time>2018-11-28T03:17:49Z</time>
      </trkpt>
      <trkpt lat="42.29955" lon="2.58061">
        <ele>600.5</ele>
        <time>2018-11-28T03:17:49Z</time>
      </trkpt>
      <trkpt lat="42.29955" lon="2.58061">
        <ele>601</ele>
        <time>2018-11-28T03:17:49Z</time>
      </trkpt>
      <trkpt lat="42.29955" lon="2.58061">
        <ele>601</ele>
        <time>2018-11-28T03:17:49Z</time>
      </trkpt>
      <trkpt lat="42.29955" lon="2.58061">
        <ele>600.6</ele>
        <time>2018-11-28T03:17:49Z</time>
      </trkpt>
      <trkpt lat="42.29955" lon="2.58061">
        <ele>600.6</ele>
        <time>2018-11-28T03:17:49Z</time>
      </trkpt>
      <trkpt lat="42.29955" lon="2.58061">
        <ele>600.5</ele>
        <time>2018-11-28T03:17:49Z</time>
      </trkpt>
      <trkpt lat="42.29955" lon="2.58062">
        <ele>600.5</ele>
        <time>2018-11-28T03:17:49Z</time>
      </trkpt>
      <trkpt lat="42.29955" lon="2.58062">
        <ele>601</ele>
        <time>2018-11-28T03:17:49Z</time>
      </trkpt>
      <trkpt lat="42.29955" lon="2.58061">
        <ele>601.1</ele>
        <time>2018-11-28T03:17:49Z</time>
      </trkpt>
      <trkpt lat="42.29955" lon="2.58061">
        <ele>600.6</ele>
        <time>2018-11-28T03:17:49Z</time>
      </trkpt>
      <trkpt lat="42.29955" lon="2.58061">
        <ele>599</ele>
        <time>2018-11-28T03:17:49Z</time>
      </trkpt>
      <trkpt lat="42.29955" lon="2.58061">
        <ele>600</ele>
        <time>2018-11-28T03:17:49Z</time>
      </trkpt>
      <trkpt lat="42.29955" lon="2.58061">
        <ele>600.1</ele>
        <time>2018-11-28T03:17:49Z</time>
      </trkpt>
      <trkpt lat="42.29955" lon="2.58062">
        <ele>599.5</ele>
        <time>2018-11-28T03:17:49Z</time>
      </trkpt>
      <trkpt lat="42.29955" lon="2.58062">
        <ele>600</ele>
        <time>2018-11-28T03:17:49Z</time>
      </trkpt>
      <trkpt lat="42.29955" lon="2.58062">
        <ele>600.1</ele>
        <time>2018-11-28T03:17:49Z</time>
      </trkpt>
      <trkpt lat="42.29955" lon="2.58062">
        <ele>608.7</ele>
        <time>2018-11-28T03:17:49Z</time>
      </trkpt>
      <trkpt lat="42.29955" lon="2.58061">
        <ele>600</ele>
        <time>2018-11-28T03:17:49Z</time>
      </trkpt>
      <trkpt lat="42.29955" lon="2.58061">
        <ele>600</ele>
        <time>2018-11-28T03:17:49Z</time>
      </trkpt>
      <trkpt lat="42.29955" lon="2.58061">
        <ele>600.5</ele>
        <time>2018-11-28T03:17:50Z</time>
      </trkpt>
      <trkpt lat="42.29955" lon="2.58061">
        <ele>593.9</ele>
        <time>2018-11-28T03:17:50Z</time>
      </trkpt>
      <trkpt lat="42.29955" lon="2.58061">
        <ele>599.6</ele>
        <time>2018-11-28T03:17:50Z</time>
      </trkpt>
      <trkpt lat="42.29955" lon="2.58062">
        <ele>599.1</ele>
        <time>2018-11-28T03:17:50Z</time>
      </trkpt>
      <trkpt lat="42.29955" lon="2.58062">
        <ele>599.5</ele>
        <time>2018-11-28T03:17:50Z</time>
      </trkpt>
      <trkpt lat="42.29955" lon="2.58062">
        <ele>599.5</ele>
        <time>2018-11-28T03:17:50Z</time>
      </trkpt>
      <trkpt lat="42.29955" lon="2.58062">
        <ele>599.6</ele>
        <time>2018-11-28T03:17:50Z</time>
      </trkpt>
      <trkpt lat="42.29955" lon="2.58062">
        <ele>600</ele>
        <time>2018-11-28T03:17:50Z</time>
      </trkpt>
      <trkpt lat="42.29955" lon="2.58062">
        <ele>604.9</ele>
        <time>2018-11-28T03:17:50Z</time>
      </trkpt>
      <trkpt lat="42.29955" lon="2.58062">
        <ele>598.2</ele>
        <time>2018-11-28T03:17:50Z</time>
      </trkpt>
      <trkpt lat="42.29955" lon="2.58062">
        <ele>605.3</ele>
        <time>2018-11-28T03:17:50Z</time>
      </trkpt>
      <trkpt lat="42.29955" lon="2.58062">
        <ele>596.2</ele>
        <time>2018-11-28T03:17:50Z</time>
      </trkpt>
      <trkpt lat="42.29955" lon="2.58062">
        <ele>600.6</ele>
        <time>2018-11-28T03:17:50Z</time>
      </trkpt>
      <trkpt lat="42.29955" lon="2.58062">
        <ele>595.7</ele>
        <time>2018-11-28T03:17:50Z</time>
      </trkpt>
      <trkpt lat="42.29955" lon="2.58062">
        <ele>600.1</ele>
        <time>2018-11-28T03:17:50Z</time>
      </trkpt>
      <trkpt lat="42.29955" lon="2.58062">
        <ele>595.8</ele>
        <time>2018-11-28T03:17:50Z</time>
      </trkpt>
      <trkpt lat="42.29955" lon="2.58062">
        <ele>600</ele>
        <time>2018-11-28T03:17:50Z</time>
      </trkpt>
      <trkpt lat="42.29955" lon="2.58062">
        <ele>599.6</ele>
        <time>2018-11-28T03:17:50Z</time>
      </trkpt>
      <trkpt lat="42.29955" lon="2.58062">
        <ele>599.6</ele>
        <time>2018-11-28T03:17:50Z</time>
      </trkpt>
      <trkpt lat="42.29955" lon="2.58062">
        <ele>600</ele>
        <time>2018-11-28T03:17:50Z</time>
      </trkpt>
      <trkpt lat="42.29956" lon="2.58063">
        <ele>600</ele>
        <time>2018-11-28T03:17:50Z</time>
      </trkpt>
      <trkpt lat="42.29956" lon="2.58063">
        <ele>600.6</ele>
        <time>2018-11-28T03:17:50Z</time>
      </trkpt>
      <trkpt lat="42.29956" lon="2.58062">
        <ele>600.5</ele>
        <time>2018-11-28T03:17:50Z</time>
      </trkpt>
      <trkpt lat="42.29956" lon="2.58063">
        <ele>600</ele>
        <time>2018-11-28T03:17:50Z</time>
      </trkpt>
      <trkpt lat="42.29956" lon="2.58062">
        <ele>600.6</ele>
        <time>2018-11-28T03:17:50Z</time>
      </trkpt>
      <trkpt lat="42.29956" lon="2.58062">
        <ele>600.6</ele>
        <time>2018-11-28T03:17:51Z</time>
      </trkpt>
      <trkpt lat="42.29956" lon="2.58063">
        <ele>601.1</ele>
        <time>2018-11-28T03:17:51Z</time>
      </trkpt>
      <trkpt lat="42.29956" lon="2.58063">
        <ele>601.1</ele>
        <time>2018-11-28T03:17:51Z</time>
      </trkpt>
      <trkpt lat="42.29956" lon="2.58063">
        <ele>600.5</ele>
        <time>2018-11-28T03:17:51Z</time>
      </trkpt>
      <trkpt lat="42.29956" lon="2.58063">
        <ele>601.4</ele>
        <time>2018-11-28T03:17:51Z</time>
      </trkpt>
      <trkpt lat="42.29956" lon="2.58063">
        <ele>601.5</ele>
        <time>2018-11-28T03:17:51Z</time>
      </trkpt>
      <trkpt lat="42.29956" lon="2.58063">
        <ele>601.4</ele>
        <time>2018-11-28T03:17:51Z</time>
      </trkpt>
      <trkpt lat="42.29956" lon="2.58063">
        <ele>601.4</ele>
        <time>2018-11-28T03:17:51Z</time>
      </trkpt>
      <trkpt lat="42.29956" lon="2.58063">
        <ele>601.5</ele>
        <time>2018-11-28T03:17:51Z</time>
      </trkpt>
      <trkpt lat="42.29956" lon="2.58063">
        <ele>601</ele>
        <time>2018-11-28T03:17:51Z</time>
      </trkpt>
      <trkpt lat="42.29956" lon="2.58064">
        <ele>601.4</ele>
        <time>2018-11-28T03:17:51Z</time>
      </trkpt>
      <trkpt lat="42.29955" lon="2.58064">
        <ele>601.4</ele>
        <time>2018-11-28T03:17:51Z</time>
      </trkpt>
      <trkpt lat="42.29955" lon="2.58064">
        <ele>601</ele>
        <time>2018-11-28T03:17:51Z</time>
      </trkpt>
      <trkpt lat="42.29955" lon="2.58064">
        <ele>601.5</ele>
        <time>2018-11-28T03:17:51Z</time>
      </trkpt>
      <trkpt lat="42.29955" lon="2.58064">
        <ele>601.5</ele>
        <time>2018-11-28T03:17:51Z</time>
      </trkpt>
      <trkpt lat="42.29955" lon="2.58064">
        <ele>601.5</ele>
        <time>2018-11-28T03:17:51Z</time>
      </trkpt>
      <trkpt lat="42.29955" lon="2.58064">
        <ele>601.5</ele>
        <time>2018-11-28T03:17:51Z</time>
      </trkpt>
      <trkpt lat="42.29955" lon="2.58064">
        <ele>601.9</ele>
        <time>2018-11-28T03:17:52Z</time>
      </trkpt>
      <trkpt lat="42.29955" lon="2.58064">
        <ele>604.9</ele>
        <time>2018-11-28T03:17:52Z</time>
      </trkpt>
      <trkpt lat="42.29955" lon="2.58064">
        <ele>598.6</ele>
        <time>2018-11-28T03:17:52Z</time>
      </trkpt>
      <trkpt lat="42.29955" lon="2.58064">
        <ele>603.9</ele>
        <time>2018-11-28T03:17:52Z</time>
      </trkpt>
      <trkpt lat="42.29955" lon="2.58064">
        <ele>598.6</ele>
        <time>2018-11-28T03:17:52Z</time>
      </trkpt>
      <trkpt lat="42.29956" lon="2.58065">
        <ele>602.9</ele>
        <time>2018-11-28T03:17:52Z</time>
      </trkpt>
      <trkpt lat="42.29956" lon="2.58064">
        <ele>602.5</ele>
        <time>2018-11-28T03:17:52Z</time>
      </trkpt>
      <trkpt lat="42.29956" lon="2.58064">
        <ele>602.5</ele>
        <time>2018-11-28T03:17:52Z</time>
      </trkpt>
      <trkpt lat="42.29955" lon="2.58065">
        <ele>602.5</ele>
        <time>2018-11-28T03:17:52Z</time>
      </trkpt>
      <trkpt lat="42.29955" lon="2.58065">
        <ele>602.5</ele>
        <time>2018-11-28T03:17:52Z</time>
      </trkpt>
      <trkpt lat="42.29955" lon="2.58065">
        <ele>602.4</ele>
        <time>2018-11-28T03:17:52Z</time>
      </trkpt>
      <trkpt lat="42.29956" lon="2.58065">
        <ele>602.5</ele>
        <time>2018-11-28T03:17:53Z</time>
      </trkpt>
      <trkpt lat="42.29957" lon="2.58067">
        <ele>603.4</ele>
        <time>2018-11-28T03:17:53Z</time>
      </trkpt>
      <trkpt lat="42.29963" lon="2.58078">
        <ele>602.4</ele>
        <time>2018-11-28T03:17:57Z</time>
      </trkpt>
      <trkpt lat="42.29967" lon="2.58087">
        <ele>602</ele>
        <time>2018-11-28T03:18:01Z</time>
      </trkpt>
      <trkpt lat="42.29968" lon="2.58093">
        <ele>601.4</ele>
        <time>2018-11-28T03:18:02Z</time>
      </trkpt>
      <trkpt lat="42.2997" lon="2.58106">
        <ele>598.6</ele>
        <time>2018-11-28T03:18:06Z</time>
      </trkpt>
      <trkpt lat="42.29976" lon="2.58119">
        <ele>596.2</ele>
        <time>2018-11-28T03:18:11Z</time>
      </trkpt>
      <trkpt lat="42.29977" lon="2.58122">
        <ele>596.2</ele>
        <time>2018-11-28T03:18:12Z</time>
      </trkpt>
      <trkpt lat="42.2998" lon="2.58135">
        <ele>595.3</ele>
        <time>2018-11-28T03:18:16Z</time>
      </trkpt>
      <trkpt lat="42.29983" lon="2.58151">
        <ele>594.3</ele>
        <time>2018-11-28T03:18:21Z</time>
      </trkpt>
      <trkpt lat="42.29983" lon="2.58156">
        <ele>593.9</ele>
        <time>2018-11-28T03:18:22Z</time>
      </trkpt>
      <trkpt lat="42.29984" lon="2.5816">
        <ele>593.4</ele>
        <time>2018-11-28T03:18:23Z</time>
      </trkpt>
      <trkpt lat="42.29984" lon="2.58174">
        <ele>592.9</ele>
        <time>2018-11-28T03:18:28Z</time>
      </trkpt>
      <trkpt lat="42.29985" lon="2.58186">
        <ele>592.4</ele>
        <time>2018-11-28T03:18:31Z</time>
      </trkpt>
      <trkpt lat="42.29985" lon="2.58198">
        <ele>591.9</ele>
        <time>2018-11-28T03:18:35Z</time>
      </trkpt>
      <trkpt lat="42.29985" lon="2.58204">
        <ele>591.8</ele>
        <time>2018-11-28T03:18:37Z</time>
      </trkpt>
      <trkpt lat="42.29986" lon="2.5821">
        <ele>591.9</ele>
        <time>2018-11-28T03:18:38Z</time>
      </trkpt>
      <trkpt lat="42.29986" lon="2.5821">
        <ele>591.4</ele>
        <time>2018-11-28T03:18:38Z</time>
      </trkpt>
      <trkpt lat="42.29988" lon="2.58212">
        <ele>591.4</ele>
        <time>2018-11-28T03:18:39Z</time>
      </trkpt>
      <trkpt lat="42.29992" lon="2.58221">
        <ele>588.5</ele>
        <time>2018-11-28T03:18:42Z</time>
      </trkpt>
      <trkpt lat="42.29993" lon="2.58233">
        <ele>586.5</ele>
        <time>2018-11-28T03:18:46Z</time>
      </trkpt>
      <trkpt lat="42.2999" lon="2.58242">
        <ele>585.1</ele>
        <time>2018-11-28T03:18:49Z</time>
      </trkpt>
      <trkpt lat="42.29985" lon="2.58248">
        <ele>584.2</ele>
        <time>2018-11-28T03:18:52Z</time>
      </trkpt>
      <trkpt lat="42.29978" lon="2.58259">
        <ele>581.8</ele>
        <time>2018-11-28T03:18:56Z</time>
      </trkpt>
      <trkpt lat="42.29975" lon="2.58272">
        <ele>579.4</ele>
        <time>2018-11-28T03:19:00Z</time>
      </trkpt>
      <trkpt lat="42.29978" lon="2.58276">
        <ele>579</ele>
        <time>2018-11-28T03:19:02Z</time>
      </trkpt>
      <trkpt lat="42.29981" lon="2.5829">
        <ele>576.5</ele>
        <time>2018-11-28T03:19:06Z</time>
      </trkpt>
      <trkpt lat="42.29977" lon="2.58308">
        <ele>575.1</ele>
        <time>2018-11-28T03:19:12Z</time>
      </trkpt>
      <trkpt lat="42.29978" lon="2.58316">
        <ele>574.6</ele>
        <time>2018-11-28T03:19:14Z</time>
      </trkpt>
      <trkpt lat="42.29979" lon="2.58324">
        <ele>573.6</ele>
        <time>2018-11-28T03:19:16Z</time>
      </trkpt>
      <trkpt lat="42.29982" lon="2.58339">
        <ele>570.7</ele>
        <time>2018-11-28T03:19:21Z</time>
      </trkpt>
      <trkpt lat="42.29977" lon="2.58351">
        <ele>567.3</ele>
        <time>2018-11-28T03:19:25Z</time>
      </trkpt>
      <trkpt lat="42.29974" lon="2.58357">
        <ele>566</ele>
        <time>2018-11-28T03:19:27Z</time>
      </trkpt>
      <trkpt lat="42.29973" lon="2.58361">
        <ele>564.1</ele>
        <time>2018-11-28T03:19:29Z</time>
      </trkpt>
      <trkpt lat="42.29972" lon="2.58372">
        <ele>561.6</ele>
        <time>2018-11-28T03:19:32Z</time>
      </trkpt>
      <trkpt lat="42.29974" lon="2.58384">
        <ele>559.6</ele>
        <time>2018-11-28T03:19:36Z</time>
      </trkpt>
      <trkpt lat="42.29978" lon="2.58404">
        <ele>557.8</ele>
        <time>2018-11-28T03:19:42Z</time>
      </trkpt>
      <trkpt lat="42.2998" lon="2.58407">
        <ele>557.3</ele>
        <time>2018-11-28T03:19:43Z</time>
      </trkpt>
      <trkpt lat="42.2998" lon="2.58413">
        <ele>555.8</ele>
        <time>2018-11-28T03:19:45Z</time>
      </trkpt>
      <trkpt lat="42.2998" lon="2.58415">
        <ele>554.9</ele>
        <time>2018-11-28T03:19:45Z</time>
      </trkpt>
      <trkpt lat="42.2998" lon="2.58416">
        <ele>555.4</ele>
        <time>2018-11-28T03:19:45Z</time>
      </trkpt>
      <trkpt lat="42.2998" lon="2.58416">
        <ele>555.8</ele>
        <time>2018-11-28T03:19:45Z</time>
      </trkpt>
      <trkpt lat="42.2998" lon="2.58416">
        <ele>555.3</ele>
        <time>2018-11-28T03:19:45Z</time>
      </trkpt>
      <trkpt lat="42.2998" lon="2.58421">
        <ele>554.9</ele>
        <time>2018-11-28T03:19:47Z</time>
      </trkpt>
      <trkpt lat="42.29983" lon="2.58437">
        <ele>552.5</ele>
        <time>2018-11-28T03:19:52Z</time>
      </trkpt>
      <trkpt lat="42.2998" lon="2.58451">
        <ele>551.6</ele>
        <time>2018-11-28T03:19:56Z</time>
      </trkpt>
      <trkpt lat="42.29979" lon="2.58454">
        <ele>552.5</ele>
        <time>2018-11-28T03:19:57Z</time>
      </trkpt>
      <trkpt lat="42.29975" lon="2.58467">
        <ele>553</ele>
        <time>2018-11-28T03:20:01Z</time>
      </trkpt>
      <trkpt lat="42.29972" lon="2.58468">
        <ele>552.9</ele>
        <time>2018-11-28T03:20:02Z</time>
      </trkpt>
      <trkpt lat="42.29973" lon="2.58477">
        <ele>549.5</ele>
        <time>2018-11-28T03:20:05Z</time>
      </trkpt>
      <trkpt lat="42.2997" lon="2.58486">
        <ele>547.7</ele>
        <time>2018-11-28T03:20:08Z</time>
      </trkpt>
      <trkpt lat="42.2997" lon="2.58486">
        <ele>548.2</ele>
        <time>2018-11-28T03:20:08Z</time>
      </trkpt>
      <trkpt lat="42.29964" lon="2.58486">
        <ele>546.7</ele>
        <time>2018-11-28T03:20:10Z</time>
      </trkpt>
      <trkpt lat="42.29948" lon="2.58488">
        <ele>545.2</ele>
        <time>2018-11-28T03:20:17Z</time>
      </trkpt>
      <trkpt lat="42.29946" lon="2.58487">
        <ele>545.2</ele>
        <time>2018-11-28T03:20:18Z</time>
      </trkpt>
      <trkpt lat="42.29943" lon="2.58488">
        <ele>543.4</ele>
        <time>2018-11-28T03:20:19Z</time>
      </trkpt>
      <trkpt lat="42.2994" lon="2.58488">
        <ele>540.9</ele>
        <time>2018-11-28T03:20:20Z</time>
      </trkpt>
      <trkpt lat="42.29937" lon="2.58488">
        <ele>539.4</ele>
        <time>2018-11-28T03:20:21Z</time>
      </trkpt>
      <trkpt lat="42.29935" lon="2.58492">
        <ele>536.6</ele>
        <time>2018-11-28T03:20:23Z</time>
      </trkpt>
      <trkpt lat="42.29924" lon="2.58494">
        <ele>534.7</ele>
        <time>2018-11-28T03:20:27Z</time>
      </trkpt>
      <trkpt lat="42.2992" lon="2.58494">
        <ele>534.6</ele>
        <time>2018-11-28T03:20:28Z</time>
      </trkpt>
      <trkpt lat="42.29914" lon="2.58496">
        <ele>533.8</ele>
        <time>2018-11-28T03:20:31Z</time>
      </trkpt>
      <trkpt lat="42.29903" lon="2.58498">
        <ele>532.2</ele>
        <time>2018-11-28T03:20:35Z</time>
      </trkpt>
      <trkpt lat="42.29897" lon="2.58499">
        <ele>531.8</ele>
        <time>2018-11-28T03:20:38Z</time>
      </trkpt>
      <trkpt lat="42.29896" lon="2.58501">
        <ele>531.8</ele>
        <time>2018-11-28T03:20:39Z</time>
      </trkpt>
      <trkpt lat="42.29878" lon="2.58506">
        <ele>532.2</ele>
        <time>2018-11-28T03:20:46Z</time>
      </trkpt>
      <trkpt lat="42.2987" lon="2.58514">
        <ele>532.2</ele>
        <time>2018-11-28T03:20:50Z</time>
      </trkpt>
      <trkpt lat="42.29865" lon="2.58518">
        <ele>531.8</ele>
        <time>2018-11-28T03:20:52Z</time>
      </trkpt>
      <trkpt lat="42.29858" lon="2.58518">
        <ele>529.8</ele>
        <time>2018-11-28T03:20:55Z</time>
      </trkpt>
      <trkpt lat="42.29849" lon="2.58516">
        <ele>528.4</ele>
        <time>2018-11-28T03:20:59Z</time>
      </trkpt>
      <trkpt lat="42.29841" lon="2.5851">
        <ele>527.5</ele>
        <time>2018-11-28T03:21:03Z</time>
      </trkpt>
      <trkpt lat="42.29834" lon="2.58503">
        <ele>527</ele>
        <time>2018-11-28T03:21:06Z</time>
      </trkpt>
      <trkpt lat="42.29832" lon="2.585">
        <ele>526.1</ele>
        <time>2018-11-28T03:21:07Z</time>
      </trkpt>
      <trkpt lat="42.29826" lon="2.58492">
        <ele>525.1</ele>
        <time>2018-11-28T03:21:11Z</time>
      </trkpt>
      <trkpt lat="42.29825" lon="2.58489">
        <ele>525.1</ele>
        <time>2018-11-28T03:21:11Z</time>
      </trkpt>
      <trkpt lat="42.29819" lon="2.58479">
        <ele>524.2</ele>
        <time>2018-11-28T03:21:15Z</time>
      </trkpt>
      <trkpt lat="42.29819" lon="2.58477">
        <ele>523.6</ele>
        <time>2018-11-28T03:21:16Z</time>
      </trkpt>
      <trkpt lat="42.29813" lon="2.58467">
        <ele>523.1</ele>
        <time>2018-11-28T03:21:20Z</time>
      </trkpt>
      <trkpt lat="42.2981" lon="2.58457">
        <ele>523.1</ele>
        <time>2018-11-28T03:21:23Z</time>
      </trkpt>
      <trkpt lat="42.29804" lon="2.58441">
        <ele>521.3</ele>
        <time>2018-11-28T03:21:28Z</time>
      </trkpt>
      <trkpt lat="42.29803" lon="2.58437">
        <ele>521.2</ele>
        <time>2018-11-28T03:21:29Z</time>
      </trkpt>
      <trkpt lat="42.298" lon="2.58434">
        <ele>521.2</ele>
        <time>2018-11-28T03:21:31Z</time>
      </trkpt>
      <trkpt lat="42.298" lon="2.5843">
        <ele>520.8</ele>
        <time>2018-11-28T03:21:32Z</time>
      </trkpt>
      <trkpt lat="42.29798" lon="2.58425">
        <ele>519.8</ele>
        <time>2018-11-28T03:21:34Z</time>
      </trkpt>
      <trkpt lat="42.29795" lon="2.58416">
        <ele>518.8</ele>
        <time>2018-11-28T03:21:37Z</time>
      </trkpt>
      <trkpt lat="42.29789" lon="2.58404">
        <ele>516.9</ele>
        <time>2018-11-28T03:21:41Z</time>
      </trkpt>
      <trkpt lat="42.29784" lon="2.5839">
        <ele>516</ele>
        <time>2018-11-28T03:21:45Z</time>
      </trkpt>
      <trkpt lat="42.29782" lon="2.58387">
        <ele>516</ele>
        <time>2018-11-28T03:21:47Z</time>
      </trkpt>
      <trkpt lat="42.29777" lon="2.5838">
        <ele>515.4</ele>
        <time>2018-11-28T03:21:50Z</time>
      </trkpt>
      <trkpt lat="42.29775" lon="2.58378">
        <ele>514.9</ele>
        <time>2018-11-28T03:21:51Z</time>
      </trkpt>
      <trkpt lat="42.29771" lon="2.58366">
        <ele>514.9</ele>
        <time>2018-11-28T03:21:55Z</time>
      </trkpt>
      <trkpt lat="42.29776" lon="2.58361">
        <ele>515.4</ele>
        <time>2018-11-28T03:21:57Z</time>
      </trkpt>
      <trkpt lat="42.29774" lon="2.58369">
        <ele>515.5</ele>
        <time>2018-11-28T03:22:00Z</time>
      </trkpt>
      <trkpt lat="42.29768" lon="2.58382">
        <ele>516.4</ele>
        <time>2018-11-28T03:22:04Z</time>
      </trkpt>
      <trkpt lat="42.29765" lon="2.58386">
        <ele>516.9</ele>
        <time>2018-11-28T03:22:06Z</time>
      </trkpt>
      <trkpt lat="42.29761" lon="2.58388">
        <ele>518.4</ele>
        <time>2018-11-28T03:22:08Z</time>
      </trkpt>
      <trkpt lat="42.2976" lon="2.58389">
        <ele>518.8</ele>
        <time>2018-11-28T03:22:08Z</time>
      </trkpt>
      <trkpt lat="42.29759" lon="2.58399">
        <ele>516.9</ele>
        <time>2018-11-28T03:22:11Z</time>
      </trkpt>
      <trkpt lat="42.29753" lon="2.58409">
        <ele>516.9</ele>
        <time>2018-11-28T03:22:15Z</time>
      </trkpt>
      <trkpt lat="42.29753" lon="2.58413">
        <ele>517.3</ele>
        <time>2018-11-28T03:22:16Z</time>
      </trkpt>
      <trkpt lat="42.29753" lon="2.58421">
        <ele>517.8</ele>
        <time>2018-11-28T03:22:18Z</time>
      </trkpt>
      <trkpt lat="42.29746" lon="2.58435">
        <ele>516.4</ele>
        <time>2018-11-28T03:22:23Z</time>
      </trkpt>
      <trkpt lat="42.29744" lon="2.58443">
        <ele>514.4</ele>
        <time>2018-11-28T03:22:26Z</time>
      </trkpt>
      <trkpt lat="42.2974" lon="2.58452">
        <ele>512.5</ele>
        <time>2018-11-28T03:22:29Z</time>
      </trkpt>
      <trkpt lat="42.29738" lon="2.5846">
        <ele>511.6</ele>
        <time>2018-11-28T03:22:31Z</time>
      </trkpt>
      <trkpt lat="42.29738" lon="2.5846">
        <ele>511.7</ele>
        <time>2018-11-28T03:22:31Z</time>
      </trkpt>
      <trkpt lat="42.29734" lon="2.58466">
        <ele>511.2</ele>
        <time>2018-11-28T03:22:34Z</time>
      </trkpt>
      <trkpt lat="42.29729" lon="2.58477">
        <ele>510.6</ele>
        <time>2018-11-28T03:22:38Z</time>
      </trkpt>
      <trkpt lat="42.29727" lon="2.58481">
        <ele>511.1</ele>
        <time>2018-11-28T03:22:39Z</time>
      </trkpt>
      <trkpt lat="42.29718" lon="2.58489">
        <ele>511.7</ele>
        <time>2018-11-28T03:22:43Z</time>
      </trkpt>
      <trkpt lat="42.29715" lon="2.58487">
        <ele>512.6</ele>
        <time>2018-11-28T03:22:44Z</time>
      </trkpt>
      <trkpt lat="42.29711" lon="2.58486">
        <ele>512.5</ele>
        <time>2018-11-28T03:22:46Z</time>
      </trkpt>
      <trkpt lat="42.29702" lon="2.58489">
        <ele>513.6</ele>
        <time>2018-11-28T03:22:50Z</time>
      </trkpt>
      <trkpt lat="42.29693" lon="2.58493">
        <ele>514</ele>
        <time>2018-11-28T03:22:54Z</time>
      </trkpt>
      <trkpt lat="42.29686" lon="2.58493">
        <ele>514.9</ele>
        <time>2018-11-28T03:22:57Z</time>
      </trkpt>
      <trkpt lat="42.29681" lon="2.58494">
        <ele>515</ele>
        <time>2018-11-28T03:22:59Z</time>
      </trkpt>
      <trkpt lat="42.29679" lon="2.58495">
        <ele>514.9</ele>
        <time>2018-11-28T03:22:59Z</time>
      </trkpt>
      <trkpt lat="42.29676" lon="2.58495">
        <ele>514.9</ele>
        <time>2018-11-28T03:23:00Z</time>
      </trkpt>
      <trkpt lat="42.29671" lon="2.58496">
        <ele>515.4</ele>
        <time>2018-11-28T03:23:02Z</time>
      </trkpt>
      <trkpt lat="42.29667" lon="2.58497">
        <ele>516</ele>
        <time>2018-11-28T03:23:04Z</time>
      </trkpt>
      <trkpt lat="42.29654" lon="2.58501">
        <ele>516</ele>
        <time>2018-11-28T03:23:10Z</time>
      </trkpt>
      <trkpt lat="42.29649" lon="2.58504">
        <ele>516.4</ele>
        <time>2018-11-28T03:23:12Z</time>
      </trkpt>
      <trkpt lat="42.29642" lon="2.585">
        <ele>517.9</ele>
        <time>2018-11-28T03:23:15Z</time>
      </trkpt>
      <trkpt lat="42.29632" lon="2.585">
        <ele>517.9</ele>
        <time>2018-11-28T03:23:19Z</time>
      </trkpt>
      <trkpt lat="42.29618" lon="2.58497">
        <ele>518.4</ele>
        <time>2018-11-28T03:23:24Z</time>
      </trkpt>
      <trkpt lat="42.2961" lon="2.58499">
        <ele>518.3</ele>
        <time>2018-11-28T03:23:27Z</time>
      </trkpt>
      <trkpt lat="42.29607" lon="2.58503">
        <ele>518.3</ele>
        <time>2018-11-28T03:23:29Z</time>
      </trkpt>
      <trkpt lat="42.29602" lon="2.58516">
        <ele>517.3</ele>
        <time>2018-11-28T03:23:34Z</time>
      </trkpt>
      <trkpt lat="42.29596" lon="2.58528">
        <ele>516.4</ele>
        <time>2018-11-28T03:23:38Z</time>
      </trkpt>
      <trkpt lat="42.29591" lon="2.58535">
        <ele>515.9</ele>
        <time>2018-11-28T03:23:41Z</time>
      </trkpt>
      <trkpt lat="42.29583" lon="2.58547">
        <ele>514.5</ele>
        <time>2018-11-28T03:23:46Z</time>
      </trkpt>
      <trkpt lat="42.29577" lon="2.58555">
        <ele>513.5</ele>
        <time>2018-11-28T03:23:49Z</time>
      </trkpt>
      <trkpt lat="42.29568" lon="2.5856">
        <ele>511.6</ele>
        <time>2018-11-28T03:23:53Z</time>
      </trkpt>
      <trkpt lat="42.29561" lon="2.58564">
        <ele>509.3</ele>
        <time>2018-11-28T03:23:56Z</time>
      </trkpt>
      <trkpt lat="42.2956" lon="2.58565">
        <ele>509.3</ele>
        <time>2018-11-28T03:23:57Z</time>
      </trkpt>
      <trkpt lat="42.29547" lon="2.58567">
        <ele>508.2</ele>
        <time>2018-11-28T03:24:02Z</time>
      </trkpt>
      <trkpt lat="42.29537" lon="2.58572">
        <ele>507.2</ele>
        <time>2018-11-28T03:24:06Z</time>
      </trkpt>
      <trkpt lat="42.29527" lon="2.58581">
        <ele>505.8</ele>
        <time>2018-11-28T03:24:11Z</time>
      </trkpt>
      <trkpt lat="42.29525" lon="2.58582">
        <ele>505.3</ele>
        <time>2018-11-28T03:24:12Z</time>
      </trkpt>
      <trkpt lat="42.29521" lon="2.58585">
        <ele>504.9</ele>
        <time>2018-11-28T03:24:14Z</time>
      </trkpt>
      <trkpt lat="42.2952" lon="2.58586">
        <ele>504.9</ele>
        <time>2018-11-28T03:24:14Z</time>
      </trkpt>
      <trkpt lat="42.29512" lon="2.58594">
        <ele>503.9</ele>
        <time>2018-11-28T03:24:18Z</time>
      </trkpt>
      <trkpt lat="42.29503" lon="2.58599">
        <ele>503.5</ele>
        <time>2018-11-28T03:24:22Z</time>
      </trkpt>
      <trkpt lat="42.29501" lon="2.58601">
        <ele>503</ele>
        <time>2018-11-28T03:24:23Z</time>
      </trkpt>
      <trkpt lat="42.295" lon="2.58601">
        <ele>502.9</ele>
        <time>2018-11-28T03:24:23Z</time>
      </trkpt>
      <trkpt lat="42.29492" lon="2.58606">
        <ele>501</ele>
        <time>2018-11-28T03:24:27Z</time>
      </trkpt>
      <trkpt lat="42.29483" lon="2.5861">
        <ele>499.6</ele>
        <time>2018-11-28T03:24:30Z</time>
      </trkpt>
      <trkpt lat="42.29473" lon="2.58606">
        <ele>498.1</ele>
        <time>2018-11-28T03:24:35Z</time>
      </trkpt>
      <trkpt lat="42.29469" lon="2.58605">
        <ele>496.7</ele>
        <time>2018-11-28T03:24:36Z</time>
      </trkpt>
      <trkpt lat="42.29464" lon="2.58612">
        <ele>495.2</ele>
        <time>2018-11-28T03:24:39Z</time>
      </trkpt>
      <trkpt lat="42.29457" lon="2.58616">
        <ele>493.3</ele>
        <time>2018-11-28T03:24:42Z</time>
      </trkpt>
      <trkpt lat="42.29453" lon="2.5862">
        <ele>490.9</ele>
        <time>2018-11-28T03:24:44Z</time>
      </trkpt>
      <trkpt lat="42.29455" lon="2.58627">
        <ele>489.9</ele>
        <time>2018-11-28T03:24:47Z</time>
      </trkpt>
      <trkpt lat="42.29456" lon="2.58633">
        <ele>488.1</ele>
        <time>2018-11-28T03:24:48Z</time>
      </trkpt>
      <trkpt lat="42.29451" lon="2.58634">
        <ele>486.6</ele>
        <time>2018-11-28T03:24:51Z</time>
      </trkpt>
      <trkpt lat="42.29449" lon="2.58641">
        <ele>485.1</ele>
        <time>2018-11-28T03:24:53Z</time>
      </trkpt>
      <trkpt lat="42.29446" lon="2.58643">
        <ele>483.3</ele>
        <time>2018-11-28T03:24:54Z</time>
      </trkpt>
      <trkpt lat="42.29438" lon="2.58647">
        <ele>480.9</ele>
        <time>2018-11-28T03:24:58Z</time>
      </trkpt>
      <trkpt lat="42.29427" lon="2.58643">
        <ele>479.9</ele>
        <time>2018-11-28T03:25:03Z</time>
      </trkpt>
      <trkpt lat="42.29416" lon="2.58643">
        <ele>478.4</ele>
        <time>2018-11-28T03:25:07Z</time>
      </trkpt>
      <trkpt lat="42.29414" lon="2.58642">
        <ele>478.4</ele>
        <time>2018-11-28T03:25:08Z</time>
      </trkpt>
      <trkpt lat="42.29407" lon="2.58639">
        <ele>477</ele>
        <time>2018-11-28T03:25:11Z</time>
      </trkpt>
      <trkpt lat="42.294" lon="2.58638">
        <ele>476.5</ele>
        <time>2018-11-28T03:25:13Z</time>
      </trkpt>
      <trkpt lat="42.29394" lon="2.58635">
        <ele>475.6</ele>
        <time>2018-11-28T03:25:16Z</time>
      </trkpt>
      <trkpt lat="42.2939" lon="2.58635">
        <ele>475.1</ele>
        <time>2018-11-28T03:25:18Z</time>
      </trkpt>
      <trkpt lat="42.29387" lon="2.5863">
        <ele>474.2</ele>
        <time>2018-11-28T03:25:20Z</time>
      </trkpt>
      <trkpt lat="42.29381" lon="2.58629">
        <ele>473.1</ele>
        <time>2018-11-28T03:25:22Z</time>
      </trkpt>
      <trkpt lat="42.29379" lon="2.58628">
        <ele>472.6</ele>
        <time>2018-11-28T03:25:23Z</time>
      </trkpt>
      <trkpt lat="42.29375" lon="2.58627">
        <ele>471.8</ele>
        <time>2018-11-28T03:25:25Z</time>
      </trkpt>
      <trkpt lat="42.29371" lon="2.58625">
        <ele>470.7</ele>
        <time>2018-11-28T03:25:26Z</time>
      </trkpt>
      <trkpt lat="42.29368" lon="2.58625">
        <ele>470.3</ele>
        <time>2018-11-28T03:25:27Z</time>
      </trkpt>
      <trkpt lat="42.29363" lon="2.58623">
        <ele>470.2</ele>
        <time>2018-11-28T03:25:30Z</time>
      </trkpt>
      <trkpt lat="42.29359" lon="2.58621">
        <ele>469.3</ele>
        <time>2018-11-28T03:25:31Z</time>
      </trkpt>
      <trkpt lat="42.29358" lon="2.5862">
        <ele>469.3</ele>
        <time>2018-11-28T03:25:32Z</time>
      </trkpt>
      <trkpt lat="42.29351" lon="2.58617">
        <ele>468.8</ele>
        <time>2018-11-28T03:25:35Z</time>
      </trkpt>
      <trkpt lat="42.29342" lon="2.58616">
        <ele>466.5</ele>
        <time>2018-11-28T03:25:38Z</time>
      </trkpt>
      <trkpt lat="42.29336" lon="2.58619">
        <ele>464</ele>
        <time>2018-11-28T03:25:41Z</time>
      </trkpt>
      <trkpt lat="42.29327" lon="2.58621">
        <ele>461.6</ele>
        <time>2018-11-28T03:25:45Z</time>
      </trkpt>
      <trkpt lat="42.29318" lon="2.58621">
        <ele>460.7</ele>
        <time>2018-11-28T03:25:48Z</time>
      </trkpt>
      <trkpt lat="42.29308" lon="2.58622">
        <ele>459.2</ele>
        <time>2018-11-28T03:25:52Z</time>
      </trkpt>
      <trkpt lat="42.293" lon="2.58626">
        <ele>457.7</ele>
        <time>2018-11-28T03:25:56Z</time>
      </trkpt>
      <trkpt lat="42.29297" lon="2.58625">
        <ele>457.3</ele>
        <time>2018-11-28T03:25:57Z</time>
      </trkpt>
      <trkpt lat="42.29295" lon="2.58626">
        <ele>457.2</ele>
        <time>2018-11-28T03:25:58Z</time>
      </trkpt>
      <trkpt lat="42.29292" lon="2.58624">
        <ele>456.8</ele>
        <time>2018-11-28T03:25:59Z</time>
      </trkpt>
      <trkpt lat="42.29281" lon="2.58627">
        <ele>455.3</ele>
        <time>2018-11-28T03:26:04Z</time>
      </trkpt>
      <trkpt lat="42.29275" lon="2.58632">
        <ele>453.4</ele>
        <time>2018-11-28T03:26:06Z</time>
      </trkpt>
      <trkpt lat="42.29268" lon="2.58639">
        <ele>451.5</ele>
        <time>2018-11-28T03:26:10Z</time>
      </trkpt>
      <trkpt lat="42.29263" lon="2.58642">
        <ele>450.1</ele>
        <time>2018-11-28T03:26:12Z</time>
      </trkpt>
      <trkpt lat="42.29253" lon="2.58642">
        <ele>448.6</ele>
        <time>2018-11-28T03:26:16Z</time>
      </trkpt>
      <trkpt lat="42.29249" lon="2.58642">
        <ele>446.3</ele>
        <time>2018-11-28T03:26:17Z</time>
      </trkpt>
      <trkpt lat="42.29249" lon="2.58642">
        <ele>446.2</ele>
        <time>2018-11-28T03:26:18Z</time>
      </trkpt>
      <trkpt lat="42.29252" lon="2.58648">
        <ele>443.8</ele>
        <time>2018-11-28T03:26:20Z</time>
      </trkpt>
      <trkpt lat="42.29258" lon="2.58657">
        <ele>441.5</ele>
        <time>2018-11-28T03:26:23Z</time>
      </trkpt>
      <trkpt lat="42.29259" lon="2.58658">
        <ele>440.4</ele>
        <time>2018-11-28T03:26:24Z</time>
      </trkpt>
      <trkpt lat="42.2927" lon="2.58664">
        <ele>438.6</ele>
        <time>2018-11-28T03:26:29Z</time>
      </trkpt>
      <trkpt lat="42.29272" lon="2.58667">
        <ele>437.6</ele>
        <time>2018-11-28T03:26:30Z</time>
      </trkpt>
      <trkpt lat="42.29268" lon="2.58673">
        <ele>435.7</ele>
        <time>2018-11-28T03:26:32Z</time>
      </trkpt>
      <trkpt lat="42.2926" lon="2.58672">
        <ele>434.2</ele>
        <time>2018-11-28T03:26:35Z</time>
      </trkpt>
      <trkpt lat="42.29259" lon="2.58672">
        <ele>433.7</ele>
        <time>2018-11-28T03:26:36Z</time>
      </trkpt>
      <trkpt lat="42.29254" lon="2.58671">
        <ele>432.3</ele>
        <time>2018-11-28T03:26:38Z</time>
      </trkpt>
      <trkpt lat="42.29248" lon="2.58669">
        <ele>431.4</ele>
        <time>2018-11-28T03:26:40Z</time>
      </trkpt>
      <trkpt lat="42.29252" lon="2.58673">
        <ele>429.4</ele>
        <time>2018-11-28T03:26:42Z</time>
      </trkpt>
      <trkpt lat="42.29258" lon="2.58679">
        <ele>426.1</ele>
        <time>2018-11-28T03:26:45Z</time>
      </trkpt>
      <trkpt lat="42.29261" lon="2.58687">
        <ele>425</ele>
        <time>2018-11-28T03:26:47Z</time>
      </trkpt>
      <trkpt lat="42.29261" lon="2.58687">
        <ele>424.6</ele>
        <time>2018-11-28T03:26:48Z</time>
      </trkpt>
      <trkpt lat="42.29261" lon="2.58687">
        <ele>424.2</ele>
        <time>2018-11-28T03:26:48Z</time>
      </trkpt>
      <trkpt lat="42.29261" lon="2.58687">
        <ele>423.7</ele>
        <time>2018-11-28T03:26:48Z</time>
      </trkpt>
      <trkpt lat="42.29261" lon="2.58687">
        <ele>424.7</ele>
        <time>2018-11-28T03:26:48Z</time>
      </trkpt>
      <trkpt lat="42.29264" lon="2.58692">
        <ele>423.6</ele>
        <time>2018-11-28T03:26:50Z</time>
      </trkpt>
      <trkpt lat="42.29271" lon="2.58693">
        <ele>422.2</ele>
        <time>2018-11-28T03:26:53Z</time>
      </trkpt>
      <trkpt lat="42.29281" lon="2.5869">
        <ele>419.8</ele>
        <time>2018-11-28T03:26:57Z</time>
      </trkpt>
      <trkpt lat="42.29283" lon="2.58693">
        <ele>417.9</ele>
        <time>2018-11-28T03:26:58Z</time>
      </trkpt>
      <trkpt lat="42.29281" lon="2.58699">
        <ele>415.5</ele>
        <time>2018-11-28T03:27:00Z</time>
      </trkpt>
      <trkpt lat="42.29274" lon="2.58709">
        <ele>413.6</ele>
        <time>2018-11-28T03:27:04Z</time>
      </trkpt>
      <trkpt lat="42.29268" lon="2.58714">
        <ele>411.1</ele>
        <time>2018-11-28T03:27:07Z</time>
      </trkpt>
      <trkpt lat="42.29263" lon="2.5872">
        <ele>407.8</ele>
        <time>2018-11-28T03:27:10Z</time>
      </trkpt>
      <trkpt lat="42.29255" lon="2.58722">
        <ele>406.3</ele>
        <time>2018-11-28T03:27:13Z</time>
      </trkpt>
      <trkpt lat="42.29247" lon="2.58724">
        <ele>404.5</ele>
        <time>2018-11-28T03:27:16Z</time>
      </trkpt>
      <trkpt lat="42.29238" lon="2.5872">
        <ele>402</ele>
        <time>2018-11-28T03:27:20Z</time>
      </trkpt>
      <trkpt lat="42.29235" lon="2.5872">
        <ele>400.6</ele>
        <time>2018-11-28T03:27:21Z</time>
      </trkpt>
      <trkpt lat="42.29226" lon="2.58716">
        <ele>398.6</ele>
        <time>2018-11-28T03:27:25Z</time>
      </trkpt>
      <trkpt lat="42.2922" lon="2.58714">
        <ele>397.2</ele>
        <time>2018-11-28T03:27:27Z</time>
      </trkpt>
      <trkpt lat="42.29208" lon="2.58711">
        <ele>394.8</ele>
        <time>2018-11-28T03:27:32Z</time>
      </trkpt>
      <trkpt lat="42.29194" lon="2.58704">
        <ele>393.4</ele>
        <time>2018-11-28T03:27:38Z</time>
      </trkpt>
      <trkpt lat="42.29185" lon="2.58702">
        <ele>390.5</ele>
        <time>2018-11-28T03:27:42Z</time>
      </trkpt>
      <trkpt lat="42.29184" lon="2.58701">
        <ele>390.5</ele>
        <time>2018-11-28T03:27:42Z</time>
      </trkpt>
      <trkpt lat="42.29173" lon="2.58693">
        <ele>389</ele>
        <time>2018-11-28T03:27:47Z</time>
      </trkpt>
      <trkpt lat="42.29162" lon="2.58683">
        <ele>387.1</ele>
        <time>2018-11-28T03:27:53Z</time>
      </trkpt>
      <trkpt lat="42.29154" lon="2.58675">
        <ele>384.8</ele>
        <time>2018-11-28T03:27:57Z</time>
      </trkpt>
      <trkpt lat="42.29146" lon="2.58668">
        <ele>383.3</ele>
        <time>2018-11-28T03:28:01Z</time>
      </trkpt>
      <trkpt lat="42.29139" lon="2.58667">
        <ele>380.4</ele>
        <time>2018-11-28T03:28:03Z</time>
      </trkpt>
      <trkpt lat="42.29144" lon="2.58676">
        <ele>377.9</ele>
        <time>2018-11-28T03:28:06Z</time>
      </trkpt>
      <trkpt lat="42.29139" lon="2.58673">
        <ele>375.5</ele>
        <time>2018-11-28T03:28:09Z</time>
      </trkpt>
      <trkpt lat="42.2913" lon="2.58666">
        <ele>372.7</ele>
        <time>2018-11-28T03:28:13Z</time>
      </trkpt>
      <trkpt lat="42.29118" lon="2.58662">
        <ele>370.7</ele>
        <time>2018-11-28T03:28:18Z</time>
      </trkpt>
      <trkpt lat="42.29115" lon="2.58659">
        <ele>370.3</ele>
        <time>2018-11-28T03:28:19Z</time>
      </trkpt>
      <trkpt lat="42.29106" lon="2.5865">
        <ele>367.9</ele>
        <time>2018-11-28T03:28:24Z</time>
      </trkpt>
      <trkpt lat="42.29099" lon="2.58649">
        <ele>365.5</ele>
        <time>2018-11-28T03:28:26Z</time>
      </trkpt>
      <trkpt lat="42.29096" lon="2.58661">
        <ele>366</ele>
        <time>2018-11-28T03:28:30Z</time>
      </trkpt>
      <trkpt lat="42.29095" lon="2.58677">
        <ele>363</ele>
        <time>2018-11-28T03:28:35Z</time>
      </trkpt>
      <trkpt lat="42.29091" lon="2.58686">
        <ele>363.5</ele>
        <time>2018-11-28T03:28:38Z</time>
      </trkpt>
      <trkpt lat="42.29086" lon="2.58702">
        <ele>364</ele>
        <time>2018-11-28T03:28:43Z</time>
      </trkpt>
      <trkpt lat="42.29086" lon="2.5871">
        <ele>363.6</ele>
        <time>2018-11-28T03:28:45Z</time>
      </trkpt>
      <trkpt lat="42.29085" lon="2.58715">
        <ele>363</ele>
        <time>2018-11-28T03:28:47Z</time>
      </trkpt>
      <trkpt lat="42.29082" lon="2.58727">
        <ele>360.7</ele>
        <time>2018-11-28T03:28:51Z</time>
      </trkpt>
      <trkpt lat="42.29072" lon="2.58734">
        <ele>358.7</ele>
        <time>2018-11-28T03:28:55Z</time>
      </trkpt>
      <trkpt lat="42.29064" lon="2.58739">
        <ele>356.8</ele>
        <time>2018-11-28T03:28:59Z</time>
      </trkpt>
      <trkpt lat="42.29059" lon="2.5875">
        <ele>354</ele>
        <time>2018-11-28T03:29:03Z</time>
      </trkpt>
      <trkpt lat="42.29055" lon="2.58756">
        <ele>352.1</ele>
        <time>2018-11-28T03:29:05Z</time>
      </trkpt>
      <trkpt lat="42.29051" lon="2.58765">
        <ele>349.6</ele>
        <time>2018-11-28T03:29:08Z</time>
      </trkpt>
      <trkpt lat="42.29047" lon="2.58769">
        <ele>349.2</ele>
        <time>2018-11-28T03:29:10Z</time>
      </trkpt>
      <trkpt lat="42.29047" lon="2.58769">
        <ele>349.6</ele>
        <time>2018-11-28T03:29:10Z</time>
      </trkpt>
      <trkpt lat="42.29044" lon="2.58772">
        <ele>349.2</ele>
        <time>2018-11-28T03:29:12Z</time>
      </trkpt>
      <trkpt lat="42.29039" lon="2.58774">
        <ele>348.6</ele>
        <time>2018-11-28T03:29:14Z</time>
      </trkpt>
      <trkpt lat="42.29039" lon="2.58774">
        <ele>349.6</ele>
        <time>2018-11-28T03:29:14Z</time>
      </trkpt>
      <trkpt lat="42.29038" lon="2.58775">
        <ele>349.2</ele>
        <time>2018-11-28T03:29:14Z</time>
      </trkpt>
      <trkpt lat="42.29039" lon="2.58774">
        <ele>349.2</ele>
        <time>2018-11-28T03:29:15Z</time>
      </trkpt>
      <trkpt lat="42.29038" lon="2.58775">
        <ele>348.6</ele>
        <time>2018-11-28T03:29:15Z</time>
      </trkpt>
      <trkpt lat="42.29031" lon="2.58777">
        <ele>347.7</ele>
        <time>2018-11-28T03:29:18Z</time>
      </trkpt>
      <trkpt lat="42.29022" lon="2.58788">
        <ele>345.8</ele>
        <time>2018-11-28T03:29:23Z</time>
      </trkpt>
      <trkpt lat="42.2902" lon="2.58798">
        <ele>345.3</ele>
        <time>2018-11-28T03:29:26Z</time>
      </trkpt>
      <trkpt lat="42.29015" lon="2.58806">
        <ele>343.9</ele>
        <time>2018-11-28T03:29:29Z</time>
      </trkpt>
      <trkpt lat="42.29007" lon="2.58816">
        <ele>342.4</ele>
        <time>2018-11-28T03:29:33Z</time>
      </trkpt>
      <trkpt lat="42.28995" lon="2.58826">
        <ele>340.5</ele>
        <time>2018-11-28T03:29:39Z</time>
      </trkpt>
      <trkpt lat="42.28984" lon="2.58837">
        <ele>338.1</ele>
        <time>2018-11-28T03:29:44Z</time>
      </trkpt>
      <trkpt lat="42.2896" lon="2.58709">
        <ele>407.4</ele>
        <time>2018-11-28T03:30:23Z</time>
      </trkpt>
      <trkpt lat="42.28958" lon="2.58711">
        <ele>407.2</ele>
        <time>2018-11-28T03:30:24Z</time>
      </trkpt>
      <trkpt lat="42.28956" lon="2.58713">
        <ele>407.6</ele>
        <time>2018-11-28T03:30:25Z</time>
      </trkpt>
      <trkpt lat="42.28953" lon="2.58714">
        <ele>407.3</ele>
        <time>2018-11-28T03:30:26Z</time>
      </trkpt>
      <trkpt lat="42.28949" lon="2.58716">
        <ele>407.7</ele>
        <time>2018-11-28T03:30:28Z</time>
      </trkpt>
      <trkpt lat="42.28944" lon="2.58715">
        <ele>408.7</ele>
        <time>2018-11-28T03:30:30Z</time>
      </trkpt>
      <trkpt lat="42.28937" lon="2.58711">
        <ele>410.1</ele>
        <time>2018-11-28T03:30:33Z</time>
      </trkpt>
      <trkpt lat="42.28936" lon="2.58709">
        <ele>410.7</ele>
        <time>2018-11-28T03:30:34Z</time>
      </trkpt>
      <trkpt lat="42.28933" lon="2.58707">
        <ele>410.3</ele>
        <time>2018-11-28T03:30:35Z</time>
      </trkpt>
      <trkpt lat="42.2893" lon="2.58704">
        <ele>410.2</ele>
        <time>2018-11-28T03:30:37Z</time>
      </trkpt>
      <trkpt lat="42.28923" lon="2.58698">
        <ele>411.1</ele>
        <time>2018-11-28T03:30:40Z</time>
      </trkpt>
      <trkpt lat="42.28919" lon="2.58697">
        <ele>411.3</ele>
        <time>2018-11-28T03:30:42Z</time>
      </trkpt>
      <trkpt lat="42.28917" lon="2.58696">
        <ele>411.5</ele>
        <time>2018-11-28T03:30:42Z</time>
      </trkpt>
      <trkpt lat="42.28909" lon="2.58696">
        <ele>412.3</ele>
        <time>2018-11-28T03:30:46Z</time>
      </trkpt>
      <trkpt lat="42.28899" lon="2.58698">
        <ele>412.4</ele>
        <time>2018-11-28T03:30:50Z</time>
      </trkpt>
      <trkpt lat="42.28886" lon="2.58703">
        <ele>414.5</ele>
        <time>2018-11-28T03:30:55Z</time>
      </trkpt>
      <trkpt lat="42.28878" lon="2.58702">
        <ele>414.1</ele>
        <time>2018-11-28T03:30:58Z</time>
      </trkpt>
      <trkpt lat="42.28878" lon="2.58706">
        <ele>414.9</ele>
        <time>2018-11-28T03:31:00Z</time>
      </trkpt>
      <trkpt lat="42.28877" lon="2.58705">
        <ele>415.2</ele>
        <time>2018-11-28T03:31:00Z</time>
      </trkpt>
      <trkpt lat="42.28877" lon="2.58702">
        <ele>415</ele>
        <time>2018-11-28T03:31:01Z</time>
      </trkpt>
      <trkpt lat="42.28876" lon="2.58698">
        <ele>414.9</ele>
        <time>2018-11-28T03:31:02Z</time>
      </trkpt>
      <trkpt lat="42.28876" lon="2.58694">
        <ele>416.1</ele>
        <time>2018-11-28T03:31:03Z</time>
      </trkpt>
      <trkpt lat="42.2888" lon="2.58691">
        <ele>417.3</ele>
        <time>2018-11-28T03:31:05Z</time>
      </trkpt>
      <trkpt lat="42.28881" lon="2.58691">
        <ele>417.4</ele>
        <time>2018-11-28T03:31:06Z</time>
      </trkpt>
      <trkpt lat="42.28881" lon="2.58692">
        <ele>416.7</ele>
        <time>2018-11-28T03:31:06Z</time>
      </trkpt>
      <trkpt lat="42.28883" lon="2.58691">
        <ele>417.4</ele>
        <time>2018-11-28T03:31:07Z</time>
      </trkpt>
      <trkpt lat="42.28886" lon="2.58689">
        <ele>417.3</ele>
        <time>2018-11-28T03:31:08Z</time>
      </trkpt>
      <trkpt lat="42.28892" lon="2.58687">
        <ele>417.6</ele>
        <time>2018-11-28T03:31:10Z</time>
      </trkpt>
      <trkpt lat="42.28893" lon="2.58687">
        <ele>417.8</ele>
        <time>2018-11-28T03:31:11Z</time>
      </trkpt>
      <trkpt lat="42.28896" lon="2.58685">
        <ele>417.7</ele>
        <time>2018-11-28T03:31:12Z</time>
      </trkpt>
      <trkpt lat="42.28898" lon="2.58685">
        <ele>418.7</ele>
        <time>2018-11-28T03:31:13Z</time>
      </trkpt>
      <trkpt lat="42.28902" lon="2.58685">
        <ele>419.3</ele>
        <time>2018-11-28T03:31:15Z</time>
      </trkpt>
      <trkpt lat="42.28905" lon="2.58683">
        <ele>419.2</ele>
        <time>2018-11-28T03:31:16Z</time>
      </trkpt>
      <trkpt lat="42.28907" lon="2.58682">
        <ele>419.9</ele>
        <time>2018-11-28T03:31:17Z</time>
      </trkpt>
      <trkpt lat="42.2891" lon="2.58682">
        <ele>420.1</ele>
        <time>2018-11-28T03:31:18Z</time>
      </trkpt>
      <trkpt lat="42.28913" lon="2.5868">
        <ele>420.9</ele>
        <time>2018-11-28T03:31:19Z</time>
      </trkpt>
      <trkpt lat="42.28917" lon="2.5868">
        <ele>421.6</ele>
        <time>2018-11-28T03:31:21Z</time>
      </trkpt>
      <trkpt lat="42.28924" lon="2.58678">
        <ele>423.1</ele>
        <time>2018-11-28T03:31:24Z</time>
      </trkpt>
      <trkpt lat="42.28926" lon="2.58677">
        <ele>423.7</ele>
        <time>2018-11-28T03:31:25Z</time>
      </trkpt>
      <trkpt lat="42.28929" lon="2.58676">
        <ele>424</ele>
        <time>2018-11-28T03:31:26Z</time>
      </trkpt>
      <trkpt lat="42.2893" lon="2.58675">
        <ele>424.1</ele>
        <time>2018-11-28T03:31:26Z</time>
      </trkpt>
      <trkpt lat="42.28934" lon="2.58674">
        <ele>425.1</ele>
        <time>2018-11-28T03:31:28Z</time>
      </trkpt>
      <trkpt lat="42.28938" lon="2.58672">
        <ele>425.6</ele>
        <time>2018-11-28T03:31:30Z</time>
      </trkpt>
      <trkpt lat="42.28938" lon="2.58668">
        <ele>426.2</ele>
        <time>2018-11-28T03:31:31Z</time>
      </trkpt>
      <trkpt lat="42.2894" lon="2.58666">
        <ele>426.4</ele>
        <time>2018-11-28T03:31:32Z</time>
      </trkpt>
      <trkpt lat="42.2894" lon="2.58663">
        <ele>426.5</ele>
        <time>2018-11-28T03:31:32Z</time>
      </trkpt>
      <trkpt lat="42.28942" lon="2.58661">
        <ele>426.7</ele>
        <time>2018-11-28T03:31:33Z</time>
      </trkpt>
      <trkpt lat="42.28943" lon="2.58657">
        <ele>427.8</ele>
        <time>2018-11-28T03:31:35Z</time>
      </trkpt>
      <trkpt lat="42.28945" lon="2.58654">
        <ele>429.1</ele>
        <time>2018-11-28T03:31:36Z</time>
      </trkpt>
      <trkpt lat="42.28949" lon="2.58648">
        <ele>430.9</ele>
        <time>2018-11-28T03:31:38Z</time>
      </trkpt>
      <trkpt lat="42.28953" lon="2.5864">
        <ele>432.5</ele>
        <time>2018-11-28T03:31:41Z</time>
      </trkpt>
      <trkpt lat="42.28955" lon="2.58638">
        <ele>433.2</ele>
        <time>2018-11-28T03:31:42Z</time>
      </trkpt>
      <trkpt lat="42.28956" lon="2.58636">
        <ele>432.6</ele>
        <time>2018-11-28T03:31:43Z</time>
      </trkpt>
      <trkpt lat="42.28958" lon="2.58631">
        <ele>433.8</ele>
        <time>2018-11-28T03:31:44Z</time>
      </trkpt>
      <trkpt lat="42.28959" lon="2.58627">
        <ele>433.2</ele>
        <time>2018-11-28T03:31:46Z</time>
      </trkpt>
      <trkpt lat="42.2896" lon="2.58625">
        <ele>433.8</ele>
        <time>2018-11-28T03:31:46Z</time>
      </trkpt>
      <trkpt lat="42.28961" lon="2.58624">
        <ele>434.5</ele>
        <time>2018-11-28T03:31:47Z</time>
      </trkpt>
      <trkpt lat="42.28964" lon="2.58622">
        <ele>435.4</ele>
        <time>2018-11-28T03:31:48Z</time>
      </trkpt>
      <trkpt lat="42.28966" lon="2.58618">
        <ele>436.7</ele>
        <time>2018-11-28T03:31:50Z</time>
      </trkpt>
      <trkpt lat="42.28968" lon="2.58618">
        <ele>437.7</ele>
        <time>2018-11-28T03:31:50Z</time>
      </trkpt>
      <trkpt lat="42.2897" lon="2.58616">
        <ele>437.3</ele>
        <time>2018-11-28T03:31:51Z</time>
      </trkpt>
      <trkpt lat="42.28971" lon="2.58614">
        <ele>437.6</ele>
        <time>2018-11-28T03:31:52Z</time>
      </trkpt>
      <trkpt lat="42.28974" lon="2.5861">
        <ele>437.6</ele>
        <time>2018-11-28T03:31:54Z</time>
      </trkpt>
      <trkpt lat="42.28976" lon="2.58608">
        <ele>437.8</ele>
        <time>2018-11-28T03:31:55Z</time>
      </trkpt>
      <trkpt lat="42.28975" lon="2.58605">
        <ele>438.1</ele>
        <time>2018-11-28T03:31:56Z</time>
      </trkpt>
      <trkpt lat="42.28974" lon="2.58605">
        <ele>437.9</ele>
        <time>2018-11-28T03:31:56Z</time>
      </trkpt>
      <trkpt lat="42.28974" lon="2.58604">
        <ele>439</ele>
        <time>2018-11-28T03:31:56Z</time>
      </trkpt>
      <trkpt lat="42.28976" lon="2.58599">
        <ele>441.3</ele>
        <time>2018-11-28T03:31:58Z</time>
      </trkpt>
      <trkpt lat="42.28976" lon="2.58599">
        <ele>441.8</ele>
        <time>2018-11-28T03:31:58Z</time>
      </trkpt>
      <trkpt lat="42.28977" lon="2.58598">
        <ele>441.7</ele>
        <time>2018-11-28T03:31:58Z</time>
      </trkpt>
      <trkpt lat="42.28976" lon="2.58597">
        <ele>441.2</ele>
        <time>2018-11-28T03:31:59Z</time>
      </trkpt>
      <trkpt lat="42.28978" lon="2.58596">
        <ele>443.2</ele>
        <time>2018-11-28T03:31:59Z</time>
      </trkpt>
      <trkpt lat="42.28979" lon="2.58595">
        <ele>444</ele>
        <time>2018-11-28T03:32:00Z</time>
      </trkpt>
      <trkpt lat="42.28979" lon="2.58594">
        <ele>443</ele>
        <time>2018-11-28T03:32:00Z</time>
      </trkpt>
      <trkpt lat="42.28979" lon="2.58594">
        <ele>444.6</ele>
        <time>2018-11-28T03:32:01Z</time>
      </trkpt>
      <trkpt lat="42.28979" lon="2.58591">
        <ele>442.8</ele>
        <time>2018-11-28T03:32:01Z</time>
      </trkpt>
      <trkpt lat="42.28979" lon="2.5859">
        <ele>443.5</ele>
        <time>2018-11-28T03:32:02Z</time>
      </trkpt>
      <trkpt lat="42.28979" lon="2.5859">
        <ele>443.6</ele>
        <time>2018-11-28T03:32:02Z</time>
      </trkpt>
      <trkpt lat="42.28981" lon="2.5859">
        <ele>445.7</ele>
        <time>2018-11-28T03:32:02Z</time>
      </trkpt>
      <trkpt lat="42.28982" lon="2.58585">
        <ele>447.5</ele>
        <time>2018-11-28T03:32:04Z</time>
      </trkpt>
      <trkpt lat="42.28981" lon="2.58582">
        <ele>448.3</ele>
        <time>2018-11-28T03:32:05Z</time>
      </trkpt>
      <trkpt lat="42.2898" lon="2.58579">
        <ele>448.4</ele>
        <time>2018-11-28T03:32:06Z</time>
      </trkpt>
      <trkpt lat="42.2898" lon="2.58577">
        <ele>449.8</ele>
        <time>2018-11-28T03:32:07Z</time>
      </trkpt>
      <trkpt lat="42.2898" lon="2.58575">
        <ele>449.9</ele>
        <time>2018-11-28T03:32:07Z</time>
      </trkpt>
      <trkpt lat="42.28981" lon="2.58575">
        <ele>450.6</ele>
        <time>2018-11-28T03:32:07Z</time>
      </trkpt>
      <trkpt lat="42.28979" lon="2.58576">
        <ele>450.9</ele>
        <time>2018-11-28T03:32:08Z</time>
      </trkpt>
      <trkpt lat="42.28977" lon="2.58575">
        <ele>451.7</ele>
        <time>2018-11-28T03:32:09Z</time>
      </trkpt>
      <trkpt lat="42.28975" lon="2.5857">
        <ele>453.7</ele>
        <time>2018-11-28T03:32:11Z</time>
      </trkpt>
      <trkpt lat="42.28974" lon="2.58569">
        <ele>453.3</ele>
        <time>2018-11-28T03:32:11Z</time>
      </trkpt>
      <trkpt lat="42.28975" lon="2.58569">
        <ele>453.2</ele>
        <time>2018-11-28T03:32:12Z</time>
      </trkpt>
      <trkpt lat="42.28976" lon="2.58566">
        <ele>453.6</ele>
        <time>2018-11-28T03:32:12Z</time>
      </trkpt>
      <trkpt lat="42.28975" lon="2.58565">
        <ele>453.8</ele>
        <time>2018-11-28T03:32:13Z</time>
      </trkpt>
      <trkpt lat="42.28974" lon="2.58565">
        <ele>455.7</ele>
        <time>2018-11-28T03:32:13Z</time>
      </trkpt>
      <trkpt lat="42.28973" lon="2.58567">
        <ele>456.3</ele>
        <time>2018-11-28T03:32:14Z</time>
      </trkpt>
      <trkpt lat="42.28972" lon="2.58566">
        <ele>457.1</ele>
        <time>2018-11-28T03:32:14Z</time>
      </trkpt>
      <trkpt lat="42.28971" lon="2.58563">
        <ele>457.8</ele>
        <time>2018-11-28T03:32:15Z</time>
      </trkpt>
      <trkpt lat="42.28971" lon="2.5856">
        <ele>458.7</ele>
        <time>2018-11-28T03:32:16Z</time>
      </trkpt>
      <trkpt lat="42.28971" lon="2.58556">
        <ele>459.6</ele>
        <time>2018-11-28T03:32:17Z</time>
      </trkpt>
      <trkpt lat="42.2897" lon="2.58556">
        <ele>460.4</ele>
        <time>2018-11-28T03:32:18Z</time>
      </trkpt>
      <trkpt lat="42.2897" lon="2.58555">
        <ele>460.8</ele>
        <time>2018-11-28T03:32:18Z</time>
      </trkpt>
      <trkpt lat="42.28965" lon="2.58558">
        <ele>462.5</ele>
        <time>2018-11-28T03:32:20Z</time>
      </trkpt>
      <trkpt lat="42.28967" lon="2.58556">
        <ele>463.6</ele>
        <time>2018-11-28T03:32:21Z</time>
      </trkpt>
      <trkpt lat="42.28967" lon="2.58554">
        <ele>464</ele>
        <time>2018-11-28T03:32:22Z</time>
      </trkpt>
      <trkpt lat="42.28966" lon="2.58554">
        <ele>463.8</ele>
        <time>2018-11-28T03:32:22Z</time>
      </trkpt>
      <trkpt lat="42.28965" lon="2.58553">
        <ele>464</ele>
        <time>2018-11-28T03:32:23Z</time>
      </trkpt>
      <trkpt lat="42.28965" lon="2.58551">
        <ele>465.6</ele>
        <time>2018-11-28T03:32:23Z</time>
      </trkpt>
      <trkpt lat="42.28967" lon="2.58547">
        <ele>467.6</ele>
        <time>2018-11-28T03:32:25Z</time>
      </trkpt>
      <trkpt lat="42.28967" lon="2.58544">
        <ele>467.5</ele>
        <time>2018-11-28T03:32:26Z</time>
      </trkpt>
      <trkpt lat="42.28967" lon="2.58543">
        <ele>467.3</ele>
        <time>2018-11-28T03:32:26Z</time>
      </trkpt>
      <trkpt lat="42.28968" lon="2.58542">
        <ele>468.5</ele>
        <time>2018-11-28T03:32:26Z</time>
      </trkpt>
      <trkpt lat="42.28968" lon="2.58539">
        <ele>468.1</ele>
        <time>2018-11-28T03:32:27Z</time>
      </trkpt>
      <trkpt lat="42.28968" lon="2.58537">
        <ele>469.3</ele>
        <time>2018-11-28T03:32:28Z</time>
      </trkpt>
      <trkpt lat="42.28969" lon="2.58535">
        <ele>470</ele>
        <time>2018-11-28T03:32:29Z</time>
      </trkpt>
      <trkpt lat="42.2897" lon="2.58533">
        <ele>470.7</ele>
        <time>2018-11-28T03:32:29Z</time>
      </trkpt>
      <trkpt lat="42.2897" lon="2.5853">
        <ele>471.8</ele>
        <time>2018-11-28T03:32:30Z</time>
      </trkpt>
      <trkpt lat="42.28969" lon="2.58527">
        <ele>471.7</ele>
        <time>2018-11-28T03:32:31Z</time>
      </trkpt>
      <trkpt lat="42.28969" lon="2.58525">
        <ele>473</ele>
        <time>2018-11-28T03:32:32Z</time>
      </trkpt>
      <trkpt lat="42.2897" lon="2.58522">
        <ele>473.4</ele>
        <time>2018-11-28T03:32:33Z</time>
      </trkpt>
      <trkpt lat="42.28969" lon="2.58521">
        <ele>474</ele>
        <time>2018-11-28T03:32:33Z</time>
      </trkpt>
      <trkpt lat="42.28969" lon="2.58521">
        <ele>475.2</ele>
        <time>2018-11-28T03:32:33Z</time>
      </trkpt>
      <trkpt lat="42.28969" lon="2.58519">
        <ele>476.3</ele>
        <time>2018-11-28T03:32:34Z</time>
      </trkpt>
      <trkpt lat="42.2897" lon="2.58516">
        <ele>477.2</ele>
        <time>2018-11-28T03:32:35Z</time>
      </trkpt>
      <trkpt lat="42.2897" lon="2.58511">
        <ele>477.5</ele>
        <time>2018-11-28T03:32:36Z</time>
      </trkpt>
      <trkpt lat="42.28969" lon="2.5851">
        <ele>478.7</ele>
        <time>2018-11-28T03:32:37Z</time>
      </trkpt>
      <trkpt lat="42.2897" lon="2.5851">
        <ele>478.2</ele>
        <time>2018-11-28T03:32:38Z</time>
      </trkpt>
      <trkpt lat="42.28975" lon="2.58503">
        <ele>480.2</ele>
        <time>2018-11-28T03:32:40Z</time>
      </trkpt>
      <trkpt lat="42.28976" lon="2.58502">
        <ele>480.4</ele>
        <time>2018-11-28T03:32:41Z</time>
      </trkpt>
      <trkpt lat="42.28976" lon="2.58499">
        <ele>480.5</ele>
        <time>2018-11-28T03:32:42Z</time>
      </trkpt>
      <trkpt lat="42.28979" lon="2.58497">
        <ele>480.5</ele>
        <time>2018-11-28T03:32:43Z</time>
      </trkpt>
      <trkpt lat="42.28979" lon="2.58497">
        <ele>480.2</ele>
        <time>2018-11-28T03:32:43Z</time>
      </trkpt>
      <trkpt lat="42.28979" lon="2.58492">
        <ele>481.7</ele>
        <time>2018-11-28T03:32:44Z</time>
      </trkpt>
      <trkpt lat="42.2898" lon="2.58492">
        <ele>483.2</ele>
        <time>2018-11-28T03:32:45Z</time>
      </trkpt>
      <trkpt lat="42.28982" lon="2.58492">
        <ele>483.1</ele>
        <time>2018-11-28T03:32:46Z</time>
      </trkpt>
      <trkpt lat="42.28983" lon="2.58491">
        <ele>483.6</ele>
        <time>2018-11-28T03:32:46Z</time>
      </trkpt>
      <trkpt lat="42.28984" lon="2.58491">
        <ele>484</ele>
        <time>2018-11-28T03:32:47Z</time>
      </trkpt>
      <trkpt lat="42.28985" lon="2.58485">
        <ele>485</ele>
        <time>2018-11-28T03:32:49Z</time>
      </trkpt>
      <trkpt lat="42.28984" lon="2.58475">
        <ele>486</ele>
        <time>2018-11-28T03:32:52Z</time>
      </trkpt>
      <trkpt lat="42.28983" lon="2.58475">
        <ele>488</ele>
        <time>2018-11-28T03:32:52Z</time>
      </trkpt>
      <trkpt lat="42.28985" lon="2.58471">
        <ele>488.4</ele>
        <time>2018-11-28T03:32:53Z</time>
      </trkpt>
      <trkpt lat="42.28986" lon="2.58467">
        <ele>488</ele>
        <time>2018-11-28T03:32:55Z</time>
      </trkpt>
      <trkpt lat="42.28985" lon="2.58462">
        <ele>488</ele>
        <time>2018-11-28T03:32:56Z</time>
      </trkpt>
      <trkpt lat="42.28985" lon="2.58458">
        <ele>491.1</ele>
        <time>2018-11-28T03:32:58Z</time>
      </trkpt>
      <trkpt lat="42.28985" lon="2.58455">
        <ele>492.1</ele>
        <time>2018-11-28T03:32:58Z</time>
      </trkpt>
      <trkpt lat="42.28984" lon="2.58451">
        <ele>493</ele>
        <time>2018-11-28T03:32:59Z</time>
      </trkpt>
      <trkpt lat="42.28983" lon="2.58449">
        <ele>493.1</ele>
        <time>2018-11-28T03:33:00Z</time>
      </trkpt>
      <trkpt lat="42.28982" lon="2.5845">
        <ele>495.1</ele>
        <time>2018-11-28T03:33:01Z</time>
      </trkpt>
      <trkpt lat="42.2898" lon="2.58448">
        <ele>495.1</ele>
        <time>2018-11-28T03:33:02Z</time>
      </trkpt>
      <trkpt lat="42.28981" lon="2.58447">
        <ele>497.1</ele>
        <time>2018-11-28T03:33:02Z</time>
      </trkpt>
      <trkpt lat="42.28981" lon="2.58445">
        <ele>497</ele>
        <time>2018-11-28T03:33:03Z</time>
      </trkpt>
      <trkpt lat="42.2898" lon="2.58441">
        <ele>499</ele>
        <time>2018-11-28T03:33:04Z</time>
      </trkpt>
      <trkpt lat="42.28979" lon="2.58441">
        <ele>500.4</ele>
        <time>2018-11-28T03:33:05Z</time>
      </trkpt>
      <trkpt lat="42.28977" lon="2.58443">
        <ele>502.3</ele>
        <time>2018-11-28T03:33:06Z</time>
      </trkpt>
      <trkpt lat="42.28976" lon="2.58445">
        <ele>502</ele>
        <time>2018-11-28T03:33:07Z</time>
      </trkpt>
      <trkpt lat="42.28975" lon="2.58446">
        <ele>502.6</ele>
        <time>2018-11-28T03:33:07Z</time>
      </trkpt>
      <trkpt lat="42.28973" lon="2.58438">
        <ele>505</ele>
        <time>2018-11-28T03:33:09Z</time>
      </trkpt>
      <trkpt lat="42.28975" lon="2.5843">
        <ele>506.1</ele>
        <time>2018-11-28T03:33:12Z</time>
      </trkpt>
      <trkpt lat="42.28977" lon="2.58426">
        <ele>507</ele>
        <time>2018-11-28T03:33:13Z</time>
      </trkpt>
      <trkpt lat="42.28979" lon="2.58424">
        <ele>508.1</ele>
        <time>2018-11-28T03:33:14Z</time>
      </trkpt>
      <trkpt lat="42.28978" lon="2.58422">
        <ele>508.1</ele>
        <time>2018-11-28T03:33:15Z</time>
      </trkpt>
      <trkpt lat="42.28979" lon="2.58416">
        <ele>509.1</ele>
        <time>2018-11-28T03:33:17Z</time>
      </trkpt>
      <trkpt lat="42.2898" lon="2.58408">
        <ele>511</ele>
        <time>2018-11-28T03:33:19Z</time>
      </trkpt>
      <trkpt lat="42.28979" lon="2.58403">
        <ele>513.1</ele>
        <time>2018-11-28T03:33:20Z</time>
      </trkpt>
      <trkpt lat="42.28981" lon="2.58399">
        <ele>513</ele>
        <time>2018-11-28T03:33:22Z</time>
      </trkpt>
      <trkpt lat="42.28983" lon="2.58398">
        <ele>513.1</ele>
        <time>2018-11-28T03:33:23Z</time>
      </trkpt>
      <trkpt lat="42.28985" lon="2.58395">
        <ele>513.1</ele>
        <time>2018-11-28T03:33:24Z</time>
      </trkpt>
      <trkpt lat="42.28985" lon="2.58392">
        <ele>514.1</ele>
        <time>2018-11-28T03:33:25Z</time>
      </trkpt>
      <trkpt lat="42.28987" lon="2.58385">
        <ele>516.1</ele>
        <time>2018-11-28T03:33:27Z</time>
      </trkpt>
      <trkpt lat="42.28986" lon="2.58381">
        <ele>517.1</ele>
        <time>2018-11-28T03:33:28Z</time>
      </trkpt>
      <trkpt lat="42.28988" lon="2.58376">
        <ele>518.1</ele>
        <time>2018-11-28T03:33:30Z</time>
      </trkpt>
      <trkpt lat="42.28992" lon="2.58372">
        <ele>518</ele>
        <time>2018-11-28T03:33:32Z</time>
      </trkpt>
      <trkpt lat="42.28993" lon="2.58369">
        <ele>518.2</ele>
        <time>2018-11-28T03:33:33Z</time>
      </trkpt>
      <trkpt lat="42.28996" lon="2.58366">
        <ele>517.1</ele>
        <time>2018-11-28T03:33:34Z</time>
      </trkpt>
      <trkpt lat="42.28998" lon="2.58365">
        <ele>516</ele>
        <time>2018-11-28T03:33:35Z</time>
      </trkpt>
      <trkpt lat="42.28999" lon="2.58363">
        <ele>516</ele>
        <time>2018-11-28T03:33:36Z</time>
      </trkpt>
      <trkpt lat="42.29001" lon="2.58358">
        <ele>516</ele>
        <time>2018-11-28T03:33:37Z</time>
      </trkpt>
      <trkpt lat="42.29002" lon="2.58355">
        <ele>517</ele>
        <time>2018-11-28T03:33:38Z</time>
      </trkpt>
      <trkpt lat="42.29003" lon="2.5835">
        <ele>518</ele>
        <time>2018-11-28T03:33:40Z</time>
      </trkpt>
      <trkpt lat="42.29005" lon="2.58348">
        <ele>519.1</ele>
        <time>2018-11-28T03:33:41Z</time>
      </trkpt>
      <trkpt lat="42.29007" lon="2.58345">
        <ele>519</ele>
        <time>2018-11-28T03:33:42Z</time>
      </trkpt>
      <trkpt lat="42.29009" lon="2.58345">
        <ele>519.7</ele>
        <time>2018-11-28T03:33:43Z</time>
      </trkpt>
      <trkpt lat="42.29021" lon="2.58332">
        <ele>520.6</ele>
        <time>2018-11-28T03:33:49Z</time>
      </trkpt>
      <trkpt lat="42.2902" lon="2.58334">
        <ele>519.3</ele>
        <time>2018-11-28T03:33:50Z</time>
      </trkpt>
      <trkpt lat="42.29018" lon="2.58336">
        <ele>519.5</ele>
        <time>2018-11-28T03:33:51Z</time>
      </trkpt>
      <trkpt lat="42.29022" lon="2.58331">
        <ele>519.1</ele>
        <time>2018-11-28T03:33:53Z</time>
      </trkpt>
      <trkpt lat="42.29024" lon="2.5833">
        <ele>518</ele>
        <time>2018-11-28T03:33:54Z</time>
      </trkpt>
      <trkpt lat="42.29026" lon="2.58327">
        <ele>518</ele>
        <time>2018-11-28T03:33:55Z</time>
      </trkpt>
      <trkpt lat="42.29033" lon="2.58314">
        <ele>517.1</ele>
        <time>2018-11-28T03:34:00Z</time>
      </trkpt>
      <trkpt lat="42.29035" lon="2.58311">
        <ele>517.1</ele>
        <time>2018-11-28T03:34:01Z</time>
      </trkpt>
      <trkpt lat="42.29038" lon="2.5831">
        <ele>517</ele>
        <time>2018-11-28T03:34:02Z</time>
      </trkpt>
      <trkpt lat="42.2904" lon="2.58312">
        <ele>516.1</ele>
        <time>2018-11-28T03:34:03Z</time>
      </trkpt>
      <trkpt lat="42.29044" lon="2.58309">
        <ele>516</ele>
        <time>2018-11-28T03:34:05Z</time>
      </trkpt>
      <trkpt lat="42.29047" lon="2.58308">
        <ele>516.1</ele>
        <time>2018-11-28T03:34:06Z</time>
      </trkpt>
      <trkpt lat="42.29051" lon="2.58303">
        <ele>516</ele>
        <time>2018-11-28T03:34:08Z</time>
      </trkpt>
      <trkpt lat="42.29056" lon="2.58302">
        <ele>516.1</ele>
        <time>2018-11-28T03:34:10Z</time>
      </trkpt>
      <trkpt lat="42.2906" lon="2.58297">
        <ele>517.1</ele>
        <time>2018-11-28T03:34:12Z</time>
      </trkpt>
      <trkpt lat="42.29062" lon="2.58294">
        <ele>518</ele>
        <time>2018-11-28T03:34:13Z</time>
      </trkpt>
      <trkpt lat="42.29064" lon="2.58293">
        <ele>518</ele>
        <time>2018-11-28T03:34:14Z</time>
      </trkpt>
      <trkpt lat="42.2907" lon="2.58285">
        <ele>517</ele>
        <time>2018-11-28T03:34:18Z</time>
      </trkpt>
      <trkpt lat="42.29071" lon="2.58282">
        <ele>518.1</ele>
        <time>2018-11-28T03:34:19Z</time>
      </trkpt>
      <trkpt lat="42.29075" lon="2.58277">
        <ele>519</ele>
        <time>2018-11-28T03:34:21Z</time>
      </trkpt>
      <trkpt lat="42.29077" lon="2.58273">
        <ele>519</ele>
        <time>2018-11-28T03:34:22Z</time>
      </trkpt>
      <trkpt lat="42.2908" lon="2.58271">
        <ele>520</ele>
        <time>2018-11-28T03:34:24Z</time>
      </trkpt>
      <trkpt lat="42.29085" lon="2.58267">
        <ele>520.1</ele>
        <time>2018-11-28T03:34:26Z</time>
      </trkpt>
      <trkpt lat="42.29087" lon="2.58263">
        <ele>520</ele>
        <time>2018-11-28T03:34:27Z</time>
      </trkpt>
      <trkpt lat="42.29091" lon="2.58262">
        <ele>522.1</ele>
        <time>2018-11-28T03:34:29Z</time>
      </trkpt>
      <trkpt lat="42.29096" lon="2.58259">
        <ele>523.1</ele>
        <time>2018-11-28T03:34:31Z</time>
      </trkpt>
      <trkpt lat="42.29097" lon="2.58258">
        <ele>522.1</ele>
        <time>2018-11-28T03:34:32Z</time>
      </trkpt>
      <trkpt lat="42.291" lon="2.58252">
        <ele>524</ele>
        <time>2018-11-28T03:34:34Z</time>
      </trkpt>
      <trkpt lat="42.29104" lon="2.58248">
        <ele>525.9</ele>
        <time>2018-11-28T03:34:36Z</time>
      </trkpt>
      <trkpt lat="42.29105" lon="2.58246">
        <ele>526.6</ele>
        <time>2018-11-28T03:34:37Z</time>
      </trkpt>
      <trkpt lat="42.29107" lon="2.58244">
        <ele>527</ele>
        <time>2018-11-28T03:34:38Z</time>
      </trkpt>
      <trkpt lat="42.29119" lon="2.5824">
        <ele>529.9</ele>
        <time>2018-11-28T03:34:43Z</time>
      </trkpt>
      <trkpt lat="42.29121" lon="2.58242">
        <ele>531.8</ele>
        <time>2018-11-28T03:34:43Z</time>
      </trkpt>
      <trkpt lat="42.29122" lon="2.58244">
        <ele>531.6</ele>
        <time>2018-11-28T03:34:44Z</time>
      </trkpt>
      <trkpt lat="42.29127" lon="2.58241">
        <ele>532</ele>
        <time>2018-11-28T03:34:46Z</time>
      </trkpt>
      <trkpt lat="42.29127" lon="2.58241">
        <ele>532.1</ele>
        <time>2018-11-28T03:34:47Z</time>
      </trkpt>
      <trkpt lat="42.29132" lon="2.58249">
        <ele>531.8</ele>
        <time>2018-11-28T03:34:50Z</time>
      </trkpt>
      <trkpt lat="42.29134" lon="2.58249">
        <ele>532.4</ele>
        <time>2018-11-28T03:34:51Z</time>
      </trkpt>
      <trkpt lat="42.29137" lon="2.58249">
        <ele>532.4</ele>
        <time>2018-11-28T03:34:52Z</time>
      </trkpt>
      <trkpt lat="42.2914" lon="2.58249">
        <ele>533.2</ele>
        <time>2018-11-28T03:34:53Z</time>
      </trkpt>
      <trkpt lat="42.29143" lon="2.5825">
        <ele>533.4</ele>
        <time>2018-11-28T03:34:54Z</time>
      </trkpt>
      <trkpt lat="42.29149" lon="2.58246">
        <ele>540.5</ele>
        <time>2018-11-28T03:34:57Z</time>
      </trkpt>
      <trkpt lat="42.2915" lon="2.58245">
        <ele>540.8</ele>
        <time>2018-11-28T03:34:57Z</time>
      </trkpt>
      <trkpt lat="42.29159" lon="2.58244">
        <ele>538.8</ele>
        <time>2018-11-28T03:35:01Z</time>
      </trkpt>
      <trkpt lat="42.29159" lon="2.58246">
        <ele>537.3</ele>
        <time>2018-11-28T03:35:01Z</time>
      </trkpt>
      <trkpt lat="42.2916" lon="2.58247">
        <ele>536.2</ele>
        <time>2018-11-28T03:35:02Z</time>
      </trkpt>
      <trkpt lat="42.29161" lon="2.5825">
        <ele>535.2</ele>
        <time>2018-11-28T03:35:03Z</time>
      </trkpt>
      <trkpt lat="42.29162" lon="2.5825">
        <ele>535.7</ele>
        <time>2018-11-28T03:35:03Z</time>
      </trkpt>
      <trkpt lat="42.29164" lon="2.58249">
        <ele>535.8</ele>
        <time>2018-11-28T03:35:04Z</time>
      </trkpt>
      <trkpt lat="42.29165" lon="2.58254">
        <ele>537.8</ele>
        <time>2018-11-28T03:35:05Z</time>
      </trkpt>
      <trkpt lat="42.29167" lon="2.58258">
        <ele>538.4</ele>
        <time>2018-11-28T03:35:07Z</time>
      </trkpt>
      <trkpt lat="42.29168" lon="2.58261">
        <ele>539.5</ele>
        <time>2018-11-28T03:35:08Z</time>
      </trkpt>
      <trkpt lat="42.2917" lon="2.58265">
        <ele>540.4</ele>
        <time>2018-11-28T03:35:09Z</time>
      </trkpt>
      <trkpt lat="42.2917" lon="2.58266">
        <ele>539.7</ele>
        <time>2018-11-28T03:35:10Z</time>
      </trkpt>
      <trkpt lat="42.29169" lon="2.5827">
        <ele>539.6</ele>
        <time>2018-11-28T03:35:11Z</time>
      </trkpt>
      <trkpt lat="42.2917" lon="2.58275">
        <ele>539.8</ele>
        <time>2018-11-28T03:35:12Z</time>
      </trkpt>
      <trkpt lat="42.29172" lon="2.58277">
        <ele>538</ele>
        <time>2018-11-28T03:35:13Z</time>
      </trkpt>
      <trkpt lat="42.29173" lon="2.58276">
        <ele>539.2</ele>
        <time>2018-11-28T03:35:14Z</time>
      </trkpt>
      <trkpt lat="42.29179" lon="2.58292">
        <ele>540.6</ele>
        <time>2018-11-28T03:35:19Z</time>
      </trkpt>
      <trkpt lat="42.2918" lon="2.58297">
        <ele>539.8</ele>
        <time>2018-11-28T03:35:21Z</time>
      </trkpt>
      <trkpt lat="42.29181" lon="2.58302">
        <ele>540.1</ele>
        <time>2018-11-28T03:35:22Z</time>
      </trkpt>
      <trkpt lat="42.29183" lon="2.58304">
        <ele>540.2</ele>
        <time>2018-11-28T03:35:23Z</time>
      </trkpt>
      <trkpt lat="42.29185" lon="2.58307">
        <ele>541.3</ele>
        <time>2018-11-28T03:35:25Z</time>
      </trkpt>
      <trkpt lat="42.29189" lon="2.58308">
        <ele>541.1</ele>
        <time>2018-11-28T03:35:26Z</time>
      </trkpt>
      <trkpt lat="42.29191" lon="2.58311">
        <ele>541.2</ele>
        <time>2018-11-28T03:35:27Z</time>
      </trkpt>
      <trkpt lat="42.29192" lon="2.58315">
        <ele>541.4</ele>
        <time>2018-11-28T03:35:28Z</time>
      </trkpt>
      <trkpt lat="42.29192" lon="2.58317">
        <ele>542</ele>
        <time>2018-11-28T03:35:29Z</time>
      </trkpt>
      <trkpt lat="42.29194" lon="2.5832">
        <ele>542.4</ele>
        <time>2018-11-28T03:35:30Z</time>
      </trkpt>
      <trkpt lat="42.29195" lon="2.58321">
        <ele>542.2</ele>
        <time>2018-11-28T03:35:31Z</time>
      </trkpt>
      <trkpt lat="42.29195" lon="2.58322">
        <ele>542.1</ele>
        <time>2018-11-28T03:35:31Z</time>
      </trkpt>
      <trkpt lat="42.29196" lon="2.58325">
        <ele>543.1</ele>
        <time>2018-11-28T03:35:32Z</time>
      </trkpt>
      <trkpt lat="42.29197" lon="2.58324">
        <ele>543.7</ele>
        <time>2018-11-28T03:35:32Z</time>
      </trkpt>
      <trkpt lat="42.29247" lon="2.58373">
        <ele>554.8</ele>
        <time>2018-11-28T03:35:57Z</time>
      </trkpt>
      <trkpt lat="42.29455" lon="2.58477">
        <ele>523.4</ele>
        <time>2018-11-28T03:37:26Z</time>
      </trkpt>
      <trkpt lat="42.29456" lon="2.58481">
        <ele>519.7</ele>
        <time>2018-11-28T03:37:27Z</time>
      </trkpt>
      <trkpt lat="42.29456" lon="2.58484">
        <ele>519.8</ele>
        <time>2018-11-28T03:37:28Z</time>
      </trkpt>
      <trkpt lat="42.29456" lon="2.58485">
        <ele>519.7</ele>
        <time>2018-11-28T03:37:28Z</time>
      </trkpt>
      <trkpt lat="42.29456" lon="2.58482">
        <ele>519.4</ele>
        <time>2018-11-28T03:37:29Z</time>
      </trkpt>
      <trkpt lat="42.29457" lon="2.58481">
        <ele>518.4</ele>
        <time>2018-11-28T03:37:30Z</time>
      </trkpt>
      <trkpt lat="42.29457" lon="2.58479">
        <ele>519.9</ele>
        <time>2018-11-28T03:37:30Z</time>
      </trkpt>
      <trkpt lat="42.29457" lon="2.5848">
        <ele>520.3</ele>
        <time>2018-11-28T03:37:31Z</time>
      </trkpt>
      <trkpt lat="42.29457" lon="2.58481">
        <ele>519.8</ele>
        <time>2018-11-28T03:37:31Z</time>
      </trkpt>
      <trkpt lat="42.29458" lon="2.58481">
        <ele>520</ele>
        <time>2018-11-28T03:37:32Z</time>
      </trkpt>
      <trkpt lat="42.29456" lon="2.58483">
        <ele>519.7</ele>
        <time>2018-11-28T03:37:32Z</time>
      </trkpt>
      <trkpt lat="42.29455" lon="2.58483">
        <ele>519.2</ele>
        <time>2018-11-28T03:37:33Z</time>
      </trkpt>
      <trkpt lat="42.29456" lon="2.58483">
        <ele>520.1</ele>
        <time>2018-11-28T03:37:33Z</time>
      </trkpt>
      <trkpt lat="42.29455" lon="2.58484">
        <ele>520.3</ele>
        <time>2018-11-28T03:37:33Z</time>
      </trkpt>
      <trkpt lat="42.29453" lon="2.58486">
        <ele>520</ele>
        <time>2018-11-28T03:37:35Z</time>
      </trkpt>
      <trkpt lat="42.29452" lon="2.58486">
        <ele>519.8</ele>
        <time>2018-11-28T03:37:35Z</time>
      </trkpt>
      <trkpt lat="42.29451" lon="2.58485">
        <ele>519.4</ele>
        <time>2018-11-28T03:37:36Z</time>
      </trkpt>
      <trkpt lat="42.2945" lon="2.58482">
        <ele>518.7</ele>
        <time>2018-11-28T03:37:36Z</time>
      </trkpt>
      <trkpt lat="42.29447" lon="2.58483">
        <ele>519.3</ele>
        <time>2018-11-28T03:37:38Z</time>
      </trkpt>
      <trkpt lat="42.29445" lon="2.58482">
        <ele>519.9</ele>
        <time>2018-11-28T03:37:38Z</time>
      </trkpt>
      <trkpt lat="42.29444" lon="2.58481">
        <ele>520.3</ele>
        <time>2018-11-28T03:37:39Z</time>
      </trkpt>
      <trkpt lat="42.29442" lon="2.58478">
        <ele>520.3</ele>
        <time>2018-11-28T03:37:40Z</time>
      </trkpt>
      <trkpt lat="42.29439" lon="2.58478">
        <ele>521.6</ele>
        <time>2018-11-28T03:37:41Z</time>
      </trkpt>
      <trkpt lat="42.29437" lon="2.58476">
        <ele>521.7</ele>
        <time>2018-11-28T03:37:42Z</time>
      </trkpt>
      <trkpt lat="42.29431" lon="2.58476">
        <ele>523.4</ele>
        <time>2018-11-28T03:37:45Z</time>
      </trkpt>
      <trkpt lat="42.29428" lon="2.58474">
        <ele>524.5</ele>
        <time>2018-11-28T03:37:46Z</time>
      </trkpt>
      <trkpt lat="42.29426" lon="2.58474">
        <ele>524.8</ele>
        <time>2018-11-28T03:37:47Z</time>
      </trkpt>
      <trkpt lat="42.29422" lon="2.58472">
        <ele>525.7</ele>
        <time>2018-11-28T03:37:49Z</time>
      </trkpt>
      <trkpt lat="42.2942" lon="2.5847">
        <ele>526.1</ele>
        <time>2018-11-28T03:37:50Z</time>
      </trkpt>
      <trkpt lat="42.29417" lon="2.58468">
        <ele>526.4</ele>
        <time>2018-11-28T03:37:51Z</time>
      </trkpt>
      <trkpt lat="42.29418" lon="2.58464">
        <ele>527</ele>
        <time>2018-11-28T03:37:52Z</time>
      </trkpt>
      <trkpt lat="42.29419" lon="2.58462">
        <ele>527.4</ele>
        <time>2018-11-28T03:37:53Z</time>
      </trkpt>
      <trkpt lat="42.29421" lon="2.5846">
        <ele>528.2</ele>
        <time>2018-11-28T03:37:54Z</time>
      </trkpt>
      <trkpt lat="42.29425" lon="2.58456">
        <ele>529.3</ele>
        <time>2018-11-28T03:37:56Z</time>
      </trkpt>
      <trkpt lat="42.29426" lon="2.58453">
        <ele>530.1</ele>
        <time>2018-11-28T03:37:57Z</time>
      </trkpt>
      <trkpt lat="42.29429" lon="2.5845">
        <ele>530.7</ele>
        <time>2018-11-28T03:37:58Z</time>
      </trkpt>
      <trkpt lat="42.29429" lon="2.58448">
        <ele>531.1</ele>
        <time>2018-11-28T03:37:59Z</time>
      </trkpt>
      <trkpt lat="42.29431" lon="2.58447">
        <ele>531.4</ele>
        <time>2018-11-28T03:38:00Z</time>
      </trkpt>
      <trkpt lat="42.29434" lon="2.58445">
        <ele>532.2</ele>
        <time>2018-11-28T03:38:01Z</time>
      </trkpt>
      <trkpt lat="42.29438" lon="2.58443">
        <ele>533.2</ele>
        <time>2018-11-28T03:38:03Z</time>
      </trkpt>
      <trkpt lat="42.2944" lon="2.58442">
        <ele>533.4</ele>
        <time>2018-11-28T03:38:04Z</time>
      </trkpt>
      <trkpt lat="42.29442" lon="2.58441">
        <ele>533.1</ele>
        <time>2018-11-28T03:38:05Z</time>
      </trkpt>
      <trkpt lat="42.29446" lon="2.58435">
        <ele>534.6</ele>
        <time>2018-11-28T03:38:07Z</time>
      </trkpt>
      <trkpt lat="42.29449" lon="2.58433">
        <ele>534.8</ele>
        <time>2018-11-28T03:38:08Z</time>
      </trkpt>
      <trkpt lat="42.29452" lon="2.58431">
        <ele>535.3</ele>
        <time>2018-11-28T03:38:09Z</time>
      </trkpt>
      <trkpt lat="42.29453" lon="2.58431">
        <ele>535.8</ele>
        <time>2018-11-28T03:38:10Z</time>
      </trkpt>
      <trkpt lat="42.29455" lon="2.58429">
        <ele>536.1</ele>
        <time>2018-11-28T03:38:11Z</time>
      </trkpt>
      <trkpt lat="42.29459" lon="2.58428">
        <ele>537.2</ele>
        <time>2018-11-28T03:38:12Z</time>
      </trkpt>
      <trkpt lat="42.29461" lon="2.58427">
        <ele>537.4</ele>
        <time>2018-11-28T03:38:13Z</time>
      </trkpt>
      <trkpt lat="42.29462" lon="2.58424">
        <ele>537.3</ele>
        <time>2018-11-28T03:38:14Z</time>
      </trkpt>
      <trkpt lat="42.29464" lon="2.58424">
        <ele>538.8</ele>
        <time>2018-11-28T03:38:15Z</time>
      </trkpt>
      <trkpt lat="42.29467" lon="2.58423">
        <ele>537.9</ele>
        <time>2018-11-28T03:38:16Z</time>
      </trkpt>
      <trkpt lat="42.2947" lon="2.58421">
        <ele>539.8</ele>
        <time>2018-11-28T03:38:18Z</time>
      </trkpt>
      <trkpt lat="42.29474" lon="2.58419">
        <ele>540.5</ele>
        <time>2018-11-28T03:38:19Z</time>
      </trkpt>
      <trkpt lat="42.29475" lon="2.58418">
        <ele>541.3</ele>
        <time>2018-11-28T03:38:20Z</time>
      </trkpt>
      <trkpt lat="42.29478" lon="2.58416">
        <ele>541.7</ele>
        <time>2018-11-28T03:38:21Z</time>
      </trkpt>
      <trkpt lat="42.29485" lon="2.58414">
        <ele>541.9</ele>
        <time>2018-11-28T03:38:24Z</time>
      </trkpt>
      <trkpt lat="42.29486" lon="2.58414">
        <ele>542</ele>
        <time>2018-11-28T03:38:24Z</time>
      </trkpt>
      <trkpt lat="42.29487" lon="2.58411">
        <ele>542.2</ele>
        <time>2018-11-28T03:38:25Z</time>
      </trkpt>
      <trkpt lat="42.29486" lon="2.58407">
        <ele>544.5</ele>
        <time>2018-11-28T03:38:27Z</time>
      </trkpt>
      <trkpt lat="42.29485" lon="2.58404">
        <ele>544.7</ele>
        <time>2018-11-28T03:38:28Z</time>
      </trkpt>
      <trkpt lat="42.29487" lon="2.58402">
        <ele>547.2</ele>
        <time>2018-11-28T03:38:28Z</time>
      </trkpt>
      <trkpt lat="42.29488" lon="2.584">
        <ele>547.3</ele>
        <time>2018-11-28T03:38:29Z</time>
      </trkpt>
      <trkpt lat="42.29491" lon="2.58399">
        <ele>547.6</ele>
        <time>2018-11-28T03:38:30Z</time>
      </trkpt>
      <trkpt lat="42.29493" lon="2.58396">
        <ele>549.4</ele>
        <time>2018-11-28T03:38:32Z</time>
      </trkpt>
      <trkpt lat="42.29498" lon="2.58394">
        <ele>549.7</ele>
        <time>2018-11-28T03:38:34Z</time>
      </trkpt>
      <trkpt lat="42.29505" lon="2.58393">
        <ele>550.5</ele>
        <time>2018-11-28T03:38:36Z</time>
      </trkpt>
      <trkpt lat="42.29509" lon="2.58391">
        <ele>551.5</ele>
        <time>2018-11-28T03:38:38Z</time>
      </trkpt>
      <trkpt lat="42.29511" lon="2.58387">
        <ele>551.9</ele>
        <time>2018-11-28T03:38:39Z</time>
      </trkpt>
      <trkpt lat="42.29509" lon="2.58386">
        <ele>552.5</ele>
        <time>2018-11-28T03:38:40Z</time>
      </trkpt>
      <trkpt lat="42.29508" lon="2.58386">
        <ele>552.6</ele>
        <time>2018-11-28T03:38:40Z</time>
      </trkpt>
      <trkpt lat="42.29507" lon="2.58387">
        <ele>553.6</ele>
        <time>2018-11-28T03:38:41Z</time>
      </trkpt>
      <trkpt lat="42.29503" lon="2.58387">
        <ele>554.8</ele>
        <time>2018-11-28T03:38:43Z</time>
      </trkpt>
      <trkpt lat="42.29502" lon="2.58386">
        <ele>554.4</ele>
        <time>2018-11-28T03:38:43Z</time>
      </trkpt>
      <trkpt lat="42.295" lon="2.58385">
        <ele>554.6</ele>
        <time>2018-11-28T03:38:44Z</time>
      </trkpt>
      <trkpt lat="42.29498" lon="2.58383">
        <ele>555.3</ele>
        <time>2018-11-28T03:38:45Z</time>
      </trkpt>
      <trkpt lat="42.29495" lon="2.58382">
        <ele>556.4</ele>
        <time>2018-11-28T03:38:46Z</time>
      </trkpt>
      <trkpt lat="42.29493" lon="2.58381">
        <ele>556.8</ele>
        <time>2018-11-28T03:38:47Z</time>
      </trkpt>
      <trkpt lat="42.29491" lon="2.58378">
        <ele>557.2</ele>
        <time>2018-11-28T03:38:48Z</time>
      </trkpt>
      <trkpt lat="42.29489" lon="2.58378">
        <ele>557.3</ele>
        <time>2018-11-28T03:38:49Z</time>
      </trkpt>
      <trkpt lat="42.29487" lon="2.58377">
        <ele>558.2</ele>
        <time>2018-11-28T03:38:50Z</time>
      </trkpt>
      <trkpt lat="42.29484" lon="2.58375">
        <ele>558.2</ele>
        <time>2018-11-28T03:38:51Z</time>
      </trkpt>
      <trkpt lat="42.29483" lon="2.58373">
        <ele>558.3</ele>
        <time>2018-11-28T03:38:52Z</time>
      </trkpt>
      <trkpt lat="42.29481" lon="2.58372">
        <ele>560.5</ele>
        <time>2018-11-28T03:38:53Z</time>
      </trkpt>
      <trkpt lat="42.2948" lon="2.5837">
        <ele>561</ele>
        <time>2018-11-28T03:38:53Z</time>
      </trkpt>
      <trkpt lat="42.29478" lon="2.5837">
        <ele>561.4</ele>
        <time>2018-11-28T03:38:54Z</time>
      </trkpt>
      <trkpt lat="42.29476" lon="2.58368">
        <ele>561.6</ele>
        <time>2018-11-28T03:38:55Z</time>
      </trkpt>
      <trkpt lat="42.29475" lon="2.58366">
        <ele>561.9</ele>
        <time>2018-11-28T03:38:56Z</time>
      </trkpt>
      <trkpt lat="42.29471" lon="2.58366">
        <ele>562.3</ele>
        <time>2018-11-28T03:38:58Z</time>
      </trkpt>
      <trkpt lat="42.29468" lon="2.58365">
        <ele>563.9</ele>
        <time>2018-11-28T03:38:59Z</time>
      </trkpt>
      <trkpt lat="42.29466" lon="2.58364">
        <ele>563.6</ele>
        <time>2018-11-28T03:38:59Z</time>
      </trkpt>
      <trkpt lat="42.29464" lon="2.58365">
        <ele>564.6</ele>
        <time>2018-11-28T03:39:00Z</time>
      </trkpt>
      <trkpt lat="42.29461" lon="2.58364">
        <ele>564.9</ele>
        <time>2018-11-28T03:39:02Z</time>
      </trkpt>
      <trkpt lat="42.29457" lon="2.58362">
        <ele>565</ele>
        <time>2018-11-28T03:39:03Z</time>
      </trkpt>
      <trkpt lat="42.29453" lon="2.58361">
        <ele>565.4</ele>
        <time>2018-11-28T03:39:05Z</time>
      </trkpt>
      <trkpt lat="42.29447" lon="2.58361">
        <ele>565.8</ele>
        <time>2018-11-28T03:39:07Z</time>
      </trkpt>
      <trkpt lat="42.29445" lon="2.58361">
        <ele>566.2</ele>
        <time>2018-11-28T03:39:08Z</time>
      </trkpt>
      <trkpt lat="42.29443" lon="2.58359">
        <ele>567.6</ele>
        <time>2018-11-28T03:39:09Z</time>
      </trkpt>
      <trkpt lat="42.29439" lon="2.58358">
        <ele>569.1</ele>
        <time>2018-11-28T03:39:11Z</time>
      </trkpt>
      <trkpt lat="42.29439" lon="2.58355">
        <ele>569</ele>
        <time>2018-11-28T03:39:12Z</time>
      </trkpt>
      <trkpt lat="42.29441" lon="2.58353">
        <ele>569.8</ele>
        <time>2018-11-28T03:39:13Z</time>
      </trkpt>
      <trkpt lat="42.29442" lon="2.58348">
        <ele>570.6</ele>
        <time>2018-11-28T03:39:14Z</time>
      </trkpt>
      <trkpt lat="42.29443" lon="2.58348">
        <ele>571.2</ele>
        <time>2018-11-28T03:39:15Z</time>
      </trkpt>
      <trkpt lat="42.29446" lon="2.58346">
        <ele>571.8</ele>
        <time>2018-11-28T03:39:16Z</time>
      </trkpt>
      <trkpt lat="42.29449" lon="2.58342">
        <ele>572</ele>
        <time>2018-11-28T03:39:18Z</time>
      </trkpt>
      <trkpt lat="42.29453" lon="2.58339">
        <ele>572</ele>
        <time>2018-11-28T03:39:19Z</time>
      </trkpt>
      <trkpt lat="42.29454" lon="2.58336">
        <ele>573.2</ele>
        <time>2018-11-28T03:39:20Z</time>
      </trkpt>
      <trkpt lat="42.29457" lon="2.58334">
        <ele>573.7</ele>
        <time>2018-11-28T03:39:22Z</time>
      </trkpt>
      <trkpt lat="42.29459" lon="2.58333">
        <ele>573.7</ele>
        <time>2018-11-28T03:39:23Z</time>
      </trkpt>
      <trkpt lat="42.29461" lon="2.5833">
        <ele>573.5</ele>
        <time>2018-11-28T03:39:24Z</time>
      </trkpt>
      <trkpt lat="42.29464" lon="2.58328">
        <ele>574</ele>
        <time>2018-11-28T03:39:25Z</time>
      </trkpt>
      <trkpt lat="42.29466" lon="2.58326">
        <ele>574.5</ele>
        <time>2018-11-28T03:39:26Z</time>
      </trkpt>
      <trkpt lat="42.29469" lon="2.58325">
        <ele>574.6</ele>
        <time>2018-11-28T03:39:27Z</time>
      </trkpt>
      <trkpt lat="42.29471" lon="2.58322">
        <ele>574.5</ele>
        <time>2018-11-28T03:39:28Z</time>
      </trkpt>
      <trkpt lat="42.29473" lon="2.5832">
        <ele>575.4</ele>
        <time>2018-11-28T03:39:29Z</time>
      </trkpt>
      <trkpt lat="42.29475" lon="2.5832">
        <ele>574.8</ele>
        <time>2018-11-28T03:39:30Z</time>
      </trkpt>
      <trkpt lat="42.2948" lon="2.58318">
        <ele>576</ele>
        <time>2018-11-28T03:39:32Z</time>
      </trkpt>
      <trkpt lat="42.29484" lon="2.58317">
        <ele>576.3</ele>
        <time>2018-11-28T03:39:34Z</time>
      </trkpt>
      <trkpt lat="42.29486" lon="2.58314">
        <ele>576.2</ele>
        <time>2018-11-28T03:39:35Z</time>
      </trkpt>
      <trkpt lat="42.2949" lon="2.58311">
        <ele>577</ele>
        <time>2018-11-28T03:39:37Z</time>
      </trkpt>
      <trkpt lat="42.29491" lon="2.5831">
        <ele>577.8</ele>
        <time>2018-11-28T03:39:37Z</time>
      </trkpt>
      <trkpt lat="42.29497" lon="2.58305">
        <ele>578.5</ele>
        <time>2018-11-28T03:39:40Z</time>
      </trkpt>
      <trkpt lat="42.295" lon="2.58302">
        <ele>577.8</ele>
        <time>2018-11-28T03:39:42Z</time>
      </trkpt>
      <trkpt lat="42.29503" lon="2.58301">
        <ele>578.3</ele>
        <time>2018-11-28T03:39:43Z</time>
      </trkpt>
      <trkpt lat="42.29504" lon="2.583">
        <ele>579</ele>
        <time>2018-11-28T03:39:43Z</time>
      </trkpt>
      <trkpt lat="42.29509" lon="2.58296">
        <ele>579.3</ele>
        <time>2018-11-28T03:39:46Z</time>
      </trkpt>
      <trkpt lat="42.29511" lon="2.58294">
        <ele>579.7</ele>
        <time>2018-11-28T03:39:47Z</time>
      </trkpt>
      <trkpt lat="42.29513" lon="2.58292">
        <ele>580.4</ele>
        <time>2018-11-28T03:39:48Z</time>
      </trkpt>
      <trkpt lat="42.29512" lon="2.58291">
        <ele>581.7</ele>
        <time>2018-11-28T03:39:48Z</time>
      </trkpt>
      <trkpt lat="42.29514" lon="2.5829">
        <ele>582.9</ele>
        <time>2018-11-28T03:39:49Z</time>
      </trkpt>
      <trkpt lat="42.29517" lon="2.58288">
        <ele>582.7</ele>
        <time>2018-11-28T03:39:50Z</time>
      </trkpt>
      <trkpt lat="42.29519" lon="2.58287">
        <ele>582.7</ele>
        <time>2018-11-28T03:39:52Z</time>
      </trkpt>
      <trkpt lat="42.2952" lon="2.58286">
        <ele>583</ele>
        <time>2018-11-28T03:39:52Z</time>
      </trkpt>
      <trkpt lat="42.29524" lon="2.58284">
        <ele>584.5</ele>
        <time>2018-11-28T03:39:53Z</time>
      </trkpt>
      <trkpt lat="42.29526" lon="2.58283">
        <ele>585.1</ele>
        <time>2018-11-28T03:39:54Z</time>
      </trkpt>
      <trkpt lat="42.2953" lon="2.58282">
        <ele>585.8</ele>
        <time>2018-11-28T03:39:56Z</time>
      </trkpt>
      <trkpt lat="42.29531" lon="2.58281">
        <ele>586.8</ele>
        <time>2018-11-28T03:39:56Z</time>
      </trkpt>
      <trkpt lat="42.29534" lon="2.5828">
        <ele>587</ele>
        <time>2018-11-28T03:39:58Z</time>
      </trkpt>
      <trkpt lat="42.29536" lon="2.5828">
        <ele>587</ele>
        <time>2018-11-28T03:39:59Z</time>
      </trkpt>
      <trkpt lat="42.29538" lon="2.5828">
        <ele>587.2</ele>
        <time>2018-11-28T03:39:59Z</time>
      </trkpt>
      <trkpt lat="42.29541" lon="2.58278">
        <ele>588</ele>
        <time>2018-11-28T03:40:01Z</time>
      </trkpt>
      <trkpt lat="42.29544" lon="2.58275">
        <ele>587.2</ele>
        <time>2018-11-28T03:40:02Z</time>
      </trkpt>
      <trkpt lat="42.29547" lon="2.58271">
        <ele>587.3</ele>
        <time>2018-11-28T03:40:04Z</time>
      </trkpt>
      <trkpt lat="42.29548" lon="2.58269">
        <ele>588.1</ele>
        <time>2018-11-28T03:40:05Z</time>
      </trkpt>
      <trkpt lat="42.29549" lon="2.58266">
        <ele>589.2</ele>
        <time>2018-11-28T03:40:06Z</time>
      </trkpt>
      <trkpt lat="42.29552" lon="2.58262">
        <ele>590.5</ele>
        <time>2018-11-28T03:40:07Z</time>
      </trkpt>
      <trkpt lat="42.29554" lon="2.58258">
        <ele>590.9</ele>
        <time>2018-11-28T03:40:09Z</time>
      </trkpt>
      <trkpt lat="42.29557" lon="2.58252">
        <ele>591.5</ele>
        <time>2018-11-28T03:40:11Z</time>
      </trkpt>
      <trkpt lat="42.29559" lon="2.58248">
        <ele>593.8</ele>
        <time>2018-11-28T03:40:12Z</time>
      </trkpt>
      <trkpt lat="42.2956" lon="2.58244">
        <ele>593.4</ele>
        <time>2018-11-28T03:40:14Z</time>
      </trkpt>
      <trkpt lat="42.29561" lon="2.58243">
        <ele>593.1</ele>
        <time>2018-11-28T03:40:14Z</time>
      </trkpt>
      <trkpt lat="42.29561" lon="2.58241">
        <ele>593.5</ele>
        <time>2018-11-28T03:40:15Z</time>
      </trkpt>
      <trkpt lat="42.2956" lon="2.58239">
        <ele>594.4</ele>
        <time>2018-11-28T03:40:16Z</time>
      </trkpt>
      <trkpt lat="42.29558" lon="2.58238">
        <ele>595.1</ele>
        <time>2018-11-28T03:40:17Z</time>
      </trkpt>
      <trkpt lat="42.29556" lon="2.58239">
        <ele>595.6</ele>
        <time>2018-11-28T03:40:17Z</time>
      </trkpt>
      <trkpt lat="42.29553" lon="2.58239">
        <ele>595.1</ele>
        <time>2018-11-28T03:40:18Z</time>
      </trkpt>
      <trkpt lat="42.29552" lon="2.5824">
        <ele>595.4</ele>
        <time>2018-11-28T03:40:19Z</time>
      </trkpt>
      <trkpt lat="42.2955" lon="2.58241">
        <ele>595.7</ele>
        <time>2018-11-28T03:40:20Z</time>
      </trkpt>
      <trkpt lat="42.29548" lon="2.58242">
        <ele>595.7</ele>
        <time>2018-11-28T03:40:21Z</time>
      </trkpt>
      <trkpt lat="42.29543" lon="2.58245">
        <ele>596.9</ele>
        <time>2018-11-28T03:40:23Z</time>
      </trkpt>
      <trkpt lat="42.2954" lon="2.58243">
        <ele>596.7</ele>
        <time>2018-11-28T03:40:24Z</time>
      </trkpt>
      <trkpt lat="42.2954" lon="2.58242">
        <ele>597.6</ele>
        <time>2018-11-28T03:40:25Z</time>
      </trkpt>
      <trkpt lat="42.29539" lon="2.5824">
        <ele>598.9</ele>
        <time>2018-11-28T03:40:26Z</time>
      </trkpt>
      <trkpt lat="42.2954" lon="2.58236">
        <ele>599.7</ele>
        <time>2018-11-28T03:40:27Z</time>
      </trkpt>
      <trkpt lat="42.29547" lon="2.58229">
        <ele>599.8</ele>
        <time>2018-11-28T03:40:30Z</time>
      </trkpt>
      <trkpt lat="42.29548" lon="2.58227">
        <ele>600.4</ele>
        <time>2018-11-28T03:40:31Z</time>
      </trkpt>
      <trkpt lat="42.29549" lon="2.58224">
        <ele>600.7</ele>
        <time>2018-11-28T03:40:32Z</time>
      </trkpt>
      <trkpt lat="42.29612" lon="2.58128">
        <ele>603.8</ele>
        <time>2018-11-28T03:41:10Z</time>
      </trkpt>
      <trkpt lat="42.29611" lon="2.58127">
        <ele>609.8</ele>
        <time>2018-11-28T03:41:10Z</time>
      </trkpt>
      <trkpt lat="42.29612" lon="2.58125">
        <ele>612.4</ele>
        <time>2018-11-28T03:41:11Z</time>
      </trkpt>
      <trkpt lat="42.2961" lon="2.58122">
        <ele>614.4</ele>
        <time>2018-11-28T03:41:12Z</time>
      </trkpt>
      <trkpt lat="42.29616" lon="2.58116">
        <ele>614.6</ele>
        <time>2018-11-28T03:41:15Z</time>
      </trkpt>
      <trkpt lat="42.29619" lon="2.58115">
        <ele>616.9</ele>
        <time>2018-11-28T03:41:16Z</time>
      </trkpt>
      <trkpt lat="42.29621" lon="2.58112">
        <ele>617.5</ele>
        <time>2018-11-28T03:41:17Z</time>
      </trkpt>
      <trkpt lat="42.29622" lon="2.58111">
        <ele>617.8</ele>
        <time>2018-11-28T03:41:18Z</time>
      </trkpt>
      <trkpt lat="42.29625" lon="2.5811">
        <ele>618.5</ele>
        <time>2018-11-28T03:41:19Z</time>
      </trkpt>
      <trkpt lat="42.29624" lon="2.58107">
        <ele>619.4</ele>
        <time>2018-11-28T03:41:20Z</time>
      </trkpt>
      <trkpt lat="42.29624" lon="2.581">
        <ele>619.8</ele>
        <time>2018-11-28T03:41:22Z</time>
      </trkpt>
      <trkpt lat="42.29623" lon="2.58099">
        <ele>620.8</ele>
        <time>2018-11-28T03:41:23Z</time>
      </trkpt>
      <trkpt lat="42.29621" lon="2.581">
        <ele>621.5</ele>
        <time>2018-11-28T03:41:24Z</time>
      </trkpt>
      <trkpt lat="42.2962" lon="2.581">
        <ele>621.7</ele>
        <time>2018-11-28T03:41:24Z</time>
      </trkpt>
      <trkpt lat="42.2962" lon="2.581">
        <ele>623.5</ele>
        <time>2018-11-28T03:41:24Z</time>
      </trkpt>
      <trkpt lat="42.29623" lon="2.581">
        <ele>623.7</ele>
        <time>2018-11-28T03:41:25Z</time>
      </trkpt>
      <trkpt lat="42.29622" lon="2.58097">
        <ele>623.6</ele>
        <time>2018-11-28T03:41:26Z</time>
      </trkpt>
      <trkpt lat="42.29619" lon="2.58097">
        <ele>623.3</ele>
        <time>2018-11-28T03:41:27Z</time>
      </trkpt>
      <trkpt lat="42.29616" lon="2.58096">
        <ele>624.1</ele>
        <time>2018-11-28T03:41:28Z</time>
      </trkpt>
      <trkpt lat="42.29615" lon="2.58097">
        <ele>624.4</ele>
        <time>2018-11-28T03:41:29Z</time>
      </trkpt>
      <trkpt lat="42.29616" lon="2.58096">
        <ele>624.5</ele>
        <time>2018-11-28T03:41:29Z</time>
      </trkpt>
      <trkpt lat="42.29613" lon="2.58097">
        <ele>624.8</ele>
        <time>2018-11-28T03:41:30Z</time>
      </trkpt>
      <trkpt lat="42.29618" lon="2.58018">
        <ele>645.8</ele>
        <time>2018-11-28T03:41:53Z</time>
      </trkpt>
      <trkpt lat="42.29618" lon="2.58016">
        <ele>646.8</ele>
        <time>2018-11-28T03:41:54Z</time>
      </trkpt>
      <trkpt lat="42.29618" lon="2.58013">
        <ele>647.8</ele>
        <time>2018-11-28T03:41:55Z</time>
      </trkpt>
      <trkpt lat="42.29619" lon="2.58009">
        <ele>648.5</ele>
        <time>2018-11-28T03:41:56Z</time>
      </trkpt>
      <trkpt lat="42.2962" lon="2.58007">
        <ele>648.1</ele>
        <time>2018-11-28T03:41:57Z</time>
      </trkpt>
      <trkpt lat="42.29622" lon="2.58005">
        <ele>648.5</ele>
        <time>2018-11-28T03:41:58Z</time>
      </trkpt>
      <trkpt lat="42.29624" lon="2.58002">
        <ele>648.7</ele>
        <time>2018-11-28T03:41:59Z</time>
      </trkpt>
      <trkpt lat="42.29626" lon="2.57999">
        <ele>650.6</ele>
        <time>2018-11-28T03:42:00Z</time>
      </trkpt>
      <trkpt lat="42.29628" lon="2.57997">
        <ele>651.1</ele>
        <time>2018-11-28T03:42:01Z</time>
      </trkpt>
      <trkpt lat="42.29629" lon="2.57994">
        <ele>651.9</ele>
        <time>2018-11-28T03:42:02Z</time>
      </trkpt>
      <trkpt lat="42.29631" lon="2.57992">
        <ele>651.4</ele>
        <time>2018-11-28T03:42:03Z</time>
      </trkpt>
      <trkpt lat="42.29633" lon="2.57991">
        <ele>651.8</ele>
        <time>2018-11-28T03:42:04Z</time>
      </trkpt>
      <trkpt lat="42.29636" lon="2.57988">
        <ele>653.5</ele>
        <time>2018-11-28T03:42:05Z</time>
      </trkpt>
      <trkpt lat="42.29636" lon="2.57985">
        <ele>653.9</ele>
        <time>2018-11-28T03:42:06Z</time>
      </trkpt>
      <trkpt lat="42.29636" lon="2.57984">
        <ele>654.2</ele>
        <time>2018-11-28T03:42:07Z</time>
      </trkpt>
      <trkpt lat="42.29637" lon="2.57982">
        <ele>654.7</ele>
        <time>2018-11-28T03:42:07Z</time>
      </trkpt>
      <trkpt lat="42.29636" lon="2.5798">
        <ele>654.4</ele>
        <time>2018-11-28T03:42:08Z</time>
      </trkpt>
      <trkpt lat="42.29637" lon="2.57977">
        <ele>655.4</ele>
        <time>2018-11-28T03:42:09Z</time>
      </trkpt>
      <trkpt lat="42.2964" lon="2.57974">
        <ele>655.5</ele>
        <time>2018-11-28T03:42:10Z</time>
      </trkpt>
      <trkpt lat="42.29643" lon="2.57972">
        <ele>655.9</ele>
        <time>2018-11-28T03:42:12Z</time>
      </trkpt>
      <trkpt lat="42.29645" lon="2.5797">
        <ele>655.1</ele>
        <time>2018-11-28T03:42:13Z</time>
      </trkpt>
      <trkpt lat="42.29646" lon="2.57965">
        <ele>656.1</ele>
        <time>2018-11-28T03:42:14Z</time>
      </trkpt>
      <trkpt lat="42.29647" lon="2.57962">
        <ele>657.1</ele>
        <time>2018-11-28T03:42:15Z</time>
      </trkpt>
      <trkpt lat="42.29647" lon="2.5796">
        <ele>657.7</ele>
        <time>2018-11-28T03:42:16Z</time>
      </trkpt>
      <trkpt lat="42.29647" lon="2.57958">
        <ele>657.5</ele>
        <time>2018-11-28T03:42:17Z</time>
      </trkpt>
      <trkpt lat="42.29647" lon="2.57955">
        <ele>657.8</ele>
        <time>2018-11-28T03:42:17Z</time>
      </trkpt>
      <trkpt lat="42.29645" lon="2.5795">
        <ele>657.7</ele>
        <time>2018-11-28T03:42:19Z</time>
      </trkpt>
      <trkpt lat="42.29645" lon="2.57945">
        <ele>658</ele>
        <time>2018-11-28T03:42:20Z</time>
      </trkpt>
      <trkpt lat="42.29648" lon="2.57942">
        <ele>658.1</ele>
        <time>2018-11-28T03:42:22Z</time>
      </trkpt>
      <trkpt lat="42.29649" lon="2.57941">
        <ele>658.7</ele>
        <time>2018-11-28T03:42:23Z</time>
      </trkpt>
      <trkpt lat="42.29652" lon="2.57938">
        <ele>659.2</ele>
        <time>2018-11-28T03:42:24Z</time>
      </trkpt>
      <trkpt lat="42.29653" lon="2.57935">
        <ele>659.1</ele>
        <time>2018-11-28T03:42:25Z</time>
      </trkpt>
      <trkpt lat="42.29655" lon="2.57934">
        <ele>659.3</ele>
        <time>2018-11-28T03:42:26Z</time>
      </trkpt>
      <trkpt lat="42.29658" lon="2.57931">
        <ele>660</ele>
        <time>2018-11-28T03:42:27Z</time>
      </trkpt>
      <trkpt lat="42.29662" lon="2.57928">
        <ele>659.6</ele>
        <time>2018-11-28T03:42:29Z</time>
      </trkpt>
      <trkpt lat="42.29664" lon="2.57927">
        <ele>659.2</ele>
        <time>2018-11-28T03:42:30Z</time>
      </trkpt>
      <trkpt lat="42.29667" lon="2.57926">
        <ele>659.4</ele>
        <time>2018-11-28T03:42:31Z</time>
      </trkpt>
      <trkpt lat="42.29672" lon="2.57928">
        <ele>659.9</ele>
        <time>2018-11-28T03:42:33Z</time>
      </trkpt>
      <trkpt lat="42.29678" lon="2.57928">
        <ele>658.6</ele>
        <time>2018-11-28T03:42:36Z</time>
      </trkpt>
      <trkpt lat="42.29682" lon="2.57927">
        <ele>659.1</ele>
        <time>2018-11-28T03:42:37Z</time>
      </trkpt>
      <trkpt lat="42.29683" lon="2.57925">
        <ele>659</ele>
        <time>2018-11-28T03:42:38Z</time>
      </trkpt>
      <trkpt lat="42.29686" lon="2.57924">
        <ele>659.5</ele>
        <time>2018-11-28T03:42:39Z</time>
      </trkpt>
      <trkpt lat="42.29687" lon="2.57923">
        <ele>659.2</ele>
        <time>2018-11-28T03:42:40Z</time>
      </trkpt>
      <trkpt lat="42.2969" lon="2.57921">
        <ele>658.7</ele>
        <time>2018-11-28T03:42:41Z</time>
      </trkpt>
      <trkpt lat="42.2969" lon="2.5792">
        <ele>658.4</ele>
        <time>2018-11-28T03:42:41Z</time>
      </trkpt>
      <trkpt lat="42.29688" lon="2.5792">
        <ele>658.4</ele>
        <time>2018-11-28T03:42:42Z</time>
      </trkpt>
      <trkpt lat="42.2969" lon="2.57919">
        <ele>657.3</ele>
        <time>2018-11-28T03:42:43Z</time>
      </trkpt>
      <trkpt lat="42.29692" lon="2.57917">
        <ele>658.2</ele>
        <time>2018-11-28T03:42:44Z</time>
      </trkpt>
      <trkpt lat="42.29693" lon="2.57913">
        <ele>658.5</ele>
        <time>2018-11-28T03:42:45Z</time>
      </trkpt>
      <trkpt lat="42.29695" lon="2.57909">
        <ele>659.1</ele>
        <time>2018-11-28T03:42:47Z</time>
      </trkpt>
      <trkpt lat="42.29697" lon="2.57907">
        <ele>658.9</ele>
        <time>2018-11-28T03:42:48Z</time>
      </trkpt>
      <trkpt lat="42.29699" lon="2.57904">
        <ele>660</ele>
        <time>2018-11-28T03:42:49Z</time>
      </trkpt>
      <trkpt lat="42.29702" lon="2.57901">
        <ele>660.5</ele>
        <time>2018-11-28T03:42:50Z</time>
      </trkpt>
      <trkpt lat="42.29703" lon="2.57898">
        <ele>660.2</ele>
        <time>2018-11-28T03:42:52Z</time>
      </trkpt>
      <trkpt lat="42.29703" lon="2.57893">
        <ele>661</ele>
        <time>2018-11-28T03:42:53Z</time>
      </trkpt>
      <trkpt lat="42.29707" lon="2.5789">
        <ele>660.8</ele>
        <time>2018-11-28T03:42:55Z</time>
      </trkpt>
      <trkpt lat="42.2971" lon="2.57886">
        <ele>662</ele>
        <time>2018-11-28T03:42:56Z</time>
      </trkpt>
      <trkpt lat="42.2971" lon="2.57885">
        <ele>662.4</ele>
        <time>2018-11-28T03:42:57Z</time>
      </trkpt>
      <trkpt lat="42.29711" lon="2.57881">
        <ele>662.9</ele>
        <time>2018-11-28T03:42:58Z</time>
      </trkpt>
      <trkpt lat="42.29715" lon="2.57877">
        <ele>662.8</ele>
        <time>2018-11-28T03:43:00Z</time>
      </trkpt>
      <trkpt lat="42.29716" lon="2.57874">
        <ele>662.9</ele>
        <time>2018-11-28T03:43:01Z</time>
      </trkpt>
      <trkpt lat="42.29716" lon="2.57869">
        <ele>664.7</ele>
        <time>2018-11-28T03:43:02Z</time>
      </trkpt>
      <trkpt lat="42.29717" lon="2.57866">
        <ele>665.5</ele>
        <time>2018-11-28T03:43:03Z</time>
      </trkpt>
      <trkpt lat="42.29718" lon="2.57864">
        <ele>666.1</ele>
        <time>2018-11-28T03:43:04Z</time>
      </trkpt>
      <trkpt lat="42.2972" lon="2.57861">
        <ele>666.7</ele>
        <time>2018-11-28T03:43:05Z</time>
      </trkpt>
      <trkpt lat="42.29722" lon="2.57858">
        <ele>666.6</ele>
        <time>2018-11-28T03:43:06Z</time>
      </trkpt>
      <trkpt lat="42.29722" lon="2.57855">
        <ele>666.9</ele>
        <time>2018-11-28T03:43:07Z</time>
      </trkpt>
      <trkpt lat="42.29727" lon="2.57853">
        <ele>666.8</ele>
        <time>2018-11-28T03:43:09Z</time>
      </trkpt>
      <trkpt lat="42.29727" lon="2.57852">
        <ele>667</ele>
        <time>2018-11-28T03:43:10Z</time>
      </trkpt>
      <trkpt lat="42.2973" lon="2.5785">
        <ele>667</ele>
        <time>2018-11-28T03:43:11Z</time>
      </trkpt>
      <trkpt lat="42.29732" lon="2.57849">
        <ele>667.1</ele>
        <time>2018-11-28T03:43:12Z</time>
      </trkpt>
      <trkpt lat="42.29734" lon="2.57846">
        <ele>667.2</ele>
        <time>2018-11-28T03:43:13Z</time>
      </trkpt>
      <trkpt lat="42.29737" lon="2.57844">
        <ele>666.7</ele>
        <time>2018-11-28T03:43:14Z</time>
      </trkpt>
      <trkpt lat="42.29739" lon="2.57842">
        <ele>666.4</ele>
        <time>2018-11-28T03:43:15Z</time>
      </trkpt>
      <trkpt lat="42.29742" lon="2.57841">
        <ele>665.4</ele>
        <time>2018-11-28T03:43:16Z</time>
      </trkpt>
      <trkpt lat="42.29744" lon="2.5784">
        <ele>664.9</ele>
        <time>2018-11-28T03:43:17Z</time>
      </trkpt>
      <trkpt lat="42.29748" lon="2.5784">
        <ele>665.4</ele>
        <time>2018-11-28T03:43:19Z</time>
      </trkpt>
      <trkpt lat="42.29751" lon="2.57841">
        <ele>666</ele>
        <time>2018-11-28T03:43:20Z</time>
      </trkpt>
      <trkpt lat="42.29754" lon="2.57842">
        <ele>666.8</ele>
        <time>2018-11-28T03:43:21Z</time>
      </trkpt>
      <trkpt lat="42.29756" lon="2.57843">
        <ele>667.5</ele>
        <time>2018-11-28T03:43:22Z</time>
      </trkpt>
      <trkpt lat="42.2976" lon="2.57846">
        <ele>667.4</ele>
        <time>2018-11-28T03:43:24Z</time>
      </trkpt>
      <trkpt lat="42.29767" lon="2.57849">
        <ele>668.4</ele>
        <time>2018-11-28T03:43:27Z</time>
      </trkpt>
      <trkpt lat="42.29769" lon="2.5785">
        <ele>668.7</ele>
        <time>2018-11-28T03:43:28Z</time>
      </trkpt>
      <trkpt lat="42.2977" lon="2.5785">
        <ele>669.1</ele>
        <time>2018-11-28T03:43:29Z</time>
      </trkpt>
      <trkpt lat="42.29772" lon="2.57851">
        <ele>668.9</ele>
        <time>2018-11-28T03:43:29Z</time>
      </trkpt>
      <trkpt lat="42.29774" lon="2.57851">
        <ele>668.5</ele>
        <time>2018-11-28T03:43:30Z</time>
      </trkpt>
      <trkpt lat="42.29777" lon="2.57853">
        <ele>668.7</ele>
        <time>2018-11-28T03:43:31Z</time>
      </trkpt>
      <trkpt lat="42.29779" lon="2.57854">
        <ele>669.4</ele>
        <time>2018-11-28T03:43:32Z</time>
      </trkpt>
      <trkpt lat="42.29782" lon="2.57855">
        <ele>670.8</ele>
        <time>2018-11-28T03:43:33Z</time>
      </trkpt>
      <trkpt lat="42.29785" lon="2.57856">
        <ele>672.2</ele>
        <time>2018-11-28T03:43:35Z</time>
      </trkpt>
      <trkpt lat="42.29786" lon="2.57856">
        <ele>670.9</ele>
        <time>2018-11-28T03:43:35Z</time>
      </trkpt>
      <trkpt lat="42.29788" lon="2.57855">
        <ele>672.3</ele>
        <time>2018-11-28T03:43:36Z</time>
      </trkpt>
      <trkpt lat="42.29788" lon="2.57855">
        <ele>674.1</ele>
        <time>2018-11-28T03:43:36Z</time>
      </trkpt>
      <trkpt lat="42.29788" lon="2.57852">
        <ele>674</ele>
        <time>2018-11-28T03:43:37Z</time>
      </trkpt>
      <trkpt lat="42.29787" lon="2.57851">
        <ele>674.2</ele>
        <time>2018-11-28T03:43:37Z</time>
      </trkpt>
      <trkpt lat="42.29789" lon="2.57852">
        <ele>674.6</ele>
        <time>2018-11-28T03:43:38Z</time>
      </trkpt>
      <trkpt lat="42.2979" lon="2.57852">
        <ele>675.4</ele>
        <time>2018-11-28T03:43:38Z</time>
      </trkpt>
      <trkpt lat="42.29793" lon="2.57852">
        <ele>676.7</ele>
        <time>2018-11-28T03:43:40Z</time>
      </trkpt>
      <trkpt lat="42.29794" lon="2.57855">
        <ele>677.5</ele>
        <time>2018-11-28T03:43:41Z</time>
      </trkpt>
      <trkpt lat="42.29794" lon="2.57857">
        <ele>678.6</ele>
        <time>2018-11-28T03:43:41Z</time>
      </trkpt>
      <trkpt lat="42.29797" lon="2.57856">
        <ele>678.8</ele>
        <time>2018-11-28T03:43:42Z</time>
      </trkpt>
      <trkpt lat="42.29798" lon="2.57853">
        <ele>679.3</ele>
        <time>2018-11-28T03:43:43Z</time>
      </trkpt>
      <trkpt lat="42.29799" lon="2.5785">
        <ele>679.6</ele>
        <time>2018-11-28T03:43:44Z</time>
      </trkpt>
      <trkpt lat="42.29799" lon="2.57848">
        <ele>679.9</ele>
        <time>2018-11-28T03:43:45Z</time>
      </trkpt>
      <trkpt lat="42.29799" lon="2.57846">
        <ele>680.3</ele>
        <time>2018-11-28T03:43:46Z</time>
      </trkpt>
      <trkpt lat="42.29798" lon="2.57844">
        <ele>681.1</ele>
        <time>2018-11-28T03:43:46Z</time>
      </trkpt>
      <trkpt lat="42.29802" lon="2.5784">
        <ele>680.5</ele>
        <time>2018-11-28T03:43:48Z</time>
      </trkpt>
      <trkpt lat="42.29803" lon="2.57839">
        <ele>680.7</ele>
        <time>2018-11-28T03:43:49Z</time>
      </trkpt>
      <trkpt lat="42.29804" lon="2.57837">
        <ele>681.7</ele>
        <time>2018-11-28T03:43:49Z</time>
      </trkpt>
      <trkpt lat="42.29805" lon="2.57834">
        <ele>683.5</ele>
        <time>2018-11-28T03:43:50Z</time>
      </trkpt>
      <trkpt lat="42.29806" lon="2.57832">
        <ele>683.3</ele>
        <time>2018-11-28T03:43:51Z</time>
      </trkpt>
      <trkpt lat="42.29807" lon="2.57829">
        <ele>683.6</ele>
        <time>2018-11-28T03:43:52Z</time>
      </trkpt>
      <trkpt lat="42.29809" lon="2.57825">
        <ele>684</ele>
        <time>2018-11-28T03:43:53Z</time>
      </trkpt>
      <trkpt lat="42.29809" lon="2.57824">
        <ele>685.1</ele>
        <time>2018-11-28T03:43:54Z</time>
      </trkpt>
      <trkpt lat="42.2981" lon="2.5782">
        <ele>685.6</ele>
        <time>2018-11-28T03:43:55Z</time>
      </trkpt>
      <trkpt lat="42.2981" lon="2.57815">
        <ele>685.6</ele>
        <time>2018-11-28T03:43:56Z</time>
      </trkpt>
      <trkpt lat="42.2981" lon="2.57813">
        <ele>685.5</ele>
        <time>2018-11-28T03:43:57Z</time>
      </trkpt>
      <trkpt lat="42.2981" lon="2.57811">
        <ele>686.1</ele>
        <time>2018-11-28T03:43:58Z</time>
      </trkpt>
      <trkpt lat="42.29811" lon="2.57808">
        <ele>686.9</ele>
        <time>2018-11-28T03:43:59Z</time>
      </trkpt>
      <trkpt lat="42.29814" lon="2.57804">
        <ele>688.5</ele>
        <time>2018-11-28T03:44:00Z</time>
      </trkpt>
      <trkpt lat="42.29815" lon="2.578">
        <ele>688.8</ele>
        <time>2018-11-28T03:44:02Z</time>
      </trkpt>
      <trkpt lat="42.29818" lon="2.57793">
        <ele>686.4</ele>
        <time>2018-11-28T03:44:04Z</time>
      </trkpt>
      <trkpt lat="42.2982" lon="2.5779">
        <ele>687.3</ele>
        <time>2018-11-28T03:44:05Z</time>
      </trkpt>
      <trkpt lat="42.2982" lon="2.57786">
        <ele>687.3</ele>
        <time>2018-11-28T03:44:06Z</time>
      </trkpt>
      <trkpt lat="42.2982" lon="2.57782">
        <ele>688.3</ele>
        <time>2018-11-28T03:44:08Z</time>
      </trkpt>
      <trkpt lat="42.29819" lon="2.57777">
        <ele>688.6</ele>
        <time>2018-11-28T03:44:09Z</time>
      </trkpt>
      <trkpt lat="42.29821" lon="2.57774">
        <ele>688.7</ele>
        <time>2018-11-28T03:44:10Z</time>
      </trkpt>
      <trkpt lat="42.29822" lon="2.57772">
        <ele>689</ele>
        <time>2018-11-28T03:44:11Z</time>
      </trkpt>
      <trkpt lat="42.29824" lon="2.57769">
        <ele>689.9</ele>
        <time>2018-11-28T03:44:12Z</time>
      </trkpt>
      <trkpt lat="42.29826" lon="2.57765">
        <ele>689.6</ele>
        <time>2018-11-28T03:44:14Z</time>
      </trkpt>
      <trkpt lat="42.29826" lon="2.57762">
        <ele>690.5</ele>
        <time>2018-11-28T03:44:15Z</time>
      </trkpt>
      <trkpt lat="42.29827" lon="2.57757">
        <ele>690.7</ele>
        <time>2018-11-28T03:44:16Z</time>
      </trkpt>
      <trkpt lat="42.29829" lon="2.5775">
        <ele>691.8</ele>
        <time>2018-11-28T03:44:19Z</time>
      </trkpt>
      <trkpt lat="42.2983" lon="2.57746">
        <ele>692.2</ele>
        <time>2018-11-28T03:44:20Z</time>
      </trkpt>
      <trkpt lat="42.29831" lon="2.57744">
        <ele>692.8</ele>
        <time>2018-11-28T03:44:20Z</time>
      </trkpt>
      <trkpt lat="42.29833" lon="2.5774">
        <ele>692.8</ele>
        <time>2018-11-28T03:44:22Z</time>
      </trkpt>
      <trkpt lat="42.29832" lon="2.57736">
        <ele>692.3</ele>
        <time>2018-11-28T03:44:23Z</time>
      </trkpt>
      <trkpt lat="42.29832" lon="2.57733">
        <ele>692.8</ele>
        <time>2018-11-28T03:44:24Z</time>
      </trkpt>
      <trkpt lat="42.2983" lon="2.57728">
        <ele>693.4</ele>
        <time>2018-11-28T03:44:25Z</time>
      </trkpt>
      <trkpt lat="42.29831" lon="2.57725">
        <ele>693.5</ele>
        <time>2018-11-28T03:44:26Z</time>
      </trkpt>
      <trkpt lat="42.29836" lon="2.57717">
        <ele>694.8</ele>
        <time>2018-11-28T03:44:29Z</time>
      </trkpt>
      <trkpt lat="42.29837" lon="2.57715">
        <ele>694.6</ele>
        <time>2018-11-28T03:44:30Z</time>
      </trkpt>
      <trkpt lat="42.29839" lon="2.5771">
        <ele>695.8</ele>
        <time>2018-11-28T03:44:32Z</time>
      </trkpt>
      <trkpt lat="42.29839" lon="2.57706">
        <ele>696.1</ele>
        <time>2018-11-28T03:44:33Z</time>
      </trkpt>
      <trkpt lat="42.2984" lon="2.57703">
        <ele>696.6</ele>
        <time>2018-11-28T03:44:34Z</time>
      </trkpt>
      <trkpt lat="42.29841" lon="2.577">
        <ele>696.4</ele>
        <time>2018-11-28T03:44:35Z</time>
      </trkpt>
      <trkpt lat="42.29841" lon="2.57696">
        <ele>695.8</ele>
        <time>2018-11-28T03:44:36Z</time>
      </trkpt>
      <trkpt lat="42.29841" lon="2.57689">
        <ele>695.9</ele>
        <time>2018-11-28T03:44:38Z</time>
      </trkpt>
      <trkpt lat="42.2984" lon="2.57685">
        <ele>695.8</ele>
        <time>2018-11-28T03:44:39Z</time>
      </trkpt>
      <trkpt lat="42.29841" lon="2.57684">
        <ele>696</ele>
        <time>2018-11-28T03:44:40Z</time>
      </trkpt>
      <trkpt lat="42.29844" lon="2.57683">
        <ele>695.7</ele>
        <time>2018-11-28T03:44:41Z</time>
      </trkpt>
      <trkpt lat="42.29845" lon="2.57682">
        <ele>695.3</ele>
        <time>2018-11-28T03:44:42Z</time>
      </trkpt>
      <trkpt lat="42.29846" lon="2.57681">
        <ele>695</ele>
        <time>2018-11-28T03:44:42Z</time>
      </trkpt>
      <trkpt lat="42.29849" lon="2.57682">
        <ele>694.2</ele>
        <time>2018-11-28T03:44:43Z</time>
      </trkpt>
      <trkpt lat="42.29849" lon="2.57681">
        <ele>695</ele>
        <time>2018-11-28T03:44:44Z</time>
      </trkpt>
      <trkpt lat="42.29847" lon="2.5768">
        <ele>693.5</ele>
        <time>2018-11-28T03:44:45Z</time>
      </trkpt>
      <trkpt lat="42.29846" lon="2.57679">
        <ele>695.5</ele>
        <time>2018-11-28T03:44:45Z</time>
      </trkpt>
      <trkpt lat="42.29847" lon="2.57679">
        <ele>695.9</ele>
        <time>2018-11-28T03:44:45Z</time>
      </trkpt>
      <trkpt lat="42.29846" lon="2.57678">
        <ele>695.4</ele>
        <time>2018-11-28T03:44:46Z</time>
      </trkpt>
      <trkpt lat="42.29844" lon="2.57677">
        <ele>694.7</ele>
        <time>2018-11-28T03:44:46Z</time>
      </trkpt>
      <trkpt lat="42.29843" lon="2.57675">
        <ele>694.4</ele>
        <time>2018-11-28T03:44:47Z</time>
      </trkpt>
      <trkpt lat="42.29842" lon="2.57674">
        <ele>694.7</ele>
        <time>2018-11-28T03:44:48Z</time>
      </trkpt>
      <trkpt lat="42.29843" lon="2.57674">
        <ele>693.4</ele>
        <time>2018-11-28T03:44:48Z</time>
      </trkpt>
      <trkpt lat="42.29845" lon="2.57675">
        <ele>694.3</ele>
        <time>2018-11-28T03:44:49Z</time>
      </trkpt>
      <trkpt lat="42.29846" lon="2.57675">
        <ele>695.3</ele>
        <time>2018-11-28T03:44:49Z</time>
      </trkpt>
      <trkpt lat="42.29847" lon="2.57673">
        <ele>695.8</ele>
        <time>2018-11-28T03:44:50Z</time>
      </trkpt>
      <trkpt lat="42.29846" lon="2.5767">
        <ele>695.9</ele>
        <time>2018-11-28T03:44:51Z</time>
      </trkpt>
      <trkpt lat="42.29847" lon="2.57667">
        <ele>695.8</ele>
        <time>2018-11-28T03:44:52Z</time>
      </trkpt>
      <trkpt lat="42.29846" lon="2.57664">
        <ele>695.7</ele>
        <time>2018-11-28T03:44:53Z</time>
      </trkpt>
      <trkpt lat="42.29846" lon="2.57656">
        <ele>695.5</ele>
        <time>2018-11-28T03:44:55Z</time>
      </trkpt>
      <trkpt lat="42.29849" lon="2.57655">
        <ele>696.3</ele>
        <time>2018-11-28T03:44:56Z</time>
      </trkpt>
      <trkpt lat="42.2985" lon="2.57652">
        <ele>696.9</ele>
        <time>2018-11-28T03:44:57Z</time>
      </trkpt>
      <trkpt lat="42.29852" lon="2.57648">
        <ele>697.8</ele>
        <time>2018-11-28T03:44:59Z</time>
      </trkpt>
      <trkpt lat="42.29853" lon="2.57643">
        <ele>698.1</ele>
        <time>2018-11-28T03:45:00Z</time>
      </trkpt>
      <trkpt lat="42.29855" lon="2.57639">
        <ele>699.1</ele>
        <time>2018-11-28T03:45:02Z</time>
      </trkpt>
      <trkpt lat="42.29858" lon="2.57636">
        <ele>699.1</ele>
        <time>2018-11-28T03:45:03Z</time>
      </trkpt>
      <trkpt lat="42.2986" lon="2.57635">
        <ele>699.2</ele>
        <time>2018-11-28T03:45:04Z</time>
      </trkpt>
      <trkpt lat="42.29862" lon="2.57636">
        <ele>698.8</ele>
        <time>2018-11-28T03:45:05Z</time>
      </trkpt>
      <trkpt lat="42.29864" lon="2.57632">
        <ele>698.6</ele>
        <time>2018-11-28T03:45:06Z</time>
      </trkpt>
      <trkpt lat="42.29865" lon="2.5763">
        <ele>699.1</ele>
        <time>2018-11-28T03:45:07Z</time>
      </trkpt>
      <trkpt lat="42.29866" lon="2.5763">
        <ele>698.7</ele>
        <time>2018-11-28T03:45:07Z</time>
      </trkpt>
      <trkpt lat="42.29869" lon="2.5763">
        <ele>697.2</ele>
        <time>2018-11-28T03:45:09Z</time>
      </trkpt>
      <trkpt lat="42.2987" lon="2.57633">
        <ele>699.1</ele>
        <time>2018-11-28T03:45:10Z</time>
      </trkpt>
      <trkpt lat="42.29871" lon="2.57637">
        <ele>698.6</ele>
        <time>2018-11-28T03:45:11Z</time>
      </trkpt>
      <trkpt lat="42.29871" lon="2.57639">
        <ele>698.7</ele>
        <time>2018-11-28T03:45:12Z</time>
      </trkpt>
      <trkpt lat="42.29873" lon="2.57641">
        <ele>698.4</ele>
        <time>2018-11-28T03:45:13Z</time>
      </trkpt>
      <trkpt lat="42.29875" lon="2.57641">
        <ele>698.5</ele>
        <time>2018-11-28T03:45:13Z</time>
      </trkpt>
      <trkpt lat="42.29874" lon="2.57637">
        <ele>698.9</ele>
        <time>2018-11-28T03:45:15Z</time>
      </trkpt>
      <trkpt lat="42.29875" lon="2.57633">
        <ele>698.5</ele>
        <time>2018-11-28T03:45:16Z</time>
      </trkpt>
      <trkpt lat="42.29877" lon="2.57628">
        <ele>699.3</ele>
        <time>2018-11-28T03:45:17Z</time>
      </trkpt>
      <trkpt lat="42.29878" lon="2.57626">
        <ele>699.5</ele>
        <time>2018-11-28T03:45:18Z</time>
      </trkpt>
      <trkpt lat="42.2988" lon="2.57623">
        <ele>700.3</ele>
        <time>2018-11-28T03:45:19Z</time>
      </trkpt>
      <trkpt lat="42.29881" lon="2.5762">
        <ele>702.1</ele>
        <time>2018-11-28T03:45:20Z</time>
      </trkpt>
      <trkpt lat="42.29883" lon="2.57616">
        <ele>701.6</ele>
        <time>2018-11-28T03:45:22Z</time>
      </trkpt>
      <trkpt lat="42.29883" lon="2.57611">
        <ele>701.8</ele>
        <time>2018-11-28T03:45:23Z</time>
      </trkpt>
      <trkpt lat="42.29882" lon="2.57609">
        <ele>702.1</ele>
        <time>2018-11-28T03:45:24Z</time>
      </trkpt>
      <trkpt lat="42.29884" lon="2.57606">
        <ele>702.6</ele>
        <time>2018-11-28T03:45:25Z</time>
      </trkpt>
      <trkpt lat="42.29888" lon="2.57604">
        <ele>701.9</ele>
        <time>2018-11-28T03:45:27Z</time>
      </trkpt>
      <trkpt lat="42.29893" lon="2.57604">
        <ele>703.3</ele>
        <time>2018-11-28T03:45:29Z</time>
      </trkpt>
      <trkpt lat="42.29894" lon="2.57605">
        <ele>703.3</ele>
        <time>2018-11-28T03:45:29Z</time>
      </trkpt>
      <trkpt lat="42.29897" lon="2.57607">
        <ele>704.4</ele>
        <time>2018-11-28T03:45:31Z</time>
      </trkpt>
      <trkpt lat="42.299" lon="2.57611">
        <ele>705.6</ele>
        <time>2018-11-28T03:45:32Z</time>
      </trkpt>
      <trkpt lat="42.29909" lon="2.57617">
        <ele>705.8</ele>
        <time>2018-11-28T03:45:36Z</time>
      </trkpt>
      <trkpt lat="42.29913" lon="2.57622">
        <ele>706.9</ele>
        <time>2018-11-28T03:45:38Z</time>
      </trkpt>
      <trkpt lat="42.29915" lon="2.5762">
        <ele>706.8</ele>
        <time>2018-11-28T03:45:39Z</time>
      </trkpt>
      <trkpt lat="42.29906" lon="2.57613">
        <ele>707.7</ele>
        <time>2018-11-28T03:45:43Z</time>
      </trkpt>
      <trkpt lat="42.29906" lon="2.57612">
        <ele>708.2</ele>
        <time>2018-11-28T03:45:43Z</time>
      </trkpt>
      <trkpt lat="42.29908" lon="2.57613">
        <ele>706.8</ele>
        <time>2018-11-28T03:45:44Z</time>
      </trkpt>
      <trkpt lat="42.29909" lon="2.57614">
        <ele>706.1</ele>
        <time>2018-11-28T03:45:45Z</time>
      </trkpt>
      <trkpt lat="42.29912" lon="2.57616">
        <ele>708.2</ele>
        <time>2018-11-28T03:45:46Z</time>
      </trkpt>
      <trkpt lat="42.29914" lon="2.57617">
        <ele>707.5</ele>
        <time>2018-11-28T03:45:47Z</time>
      </trkpt>
      <trkpt lat="42.29918" lon="2.5762">
        <ele>708.3</ele>
        <time>2018-11-28T03:45:49Z</time>
      </trkpt>
      <trkpt lat="42.29921" lon="2.57623">
        <ele>708.7</ele>
        <time>2018-11-28T03:45:51Z</time>
      </trkpt>
      <trkpt lat="42.29922" lon="2.57623">
        <ele>708.7</ele>
        <time>2018-11-28T03:45:51Z</time>
      </trkpt>
      <trkpt lat="42.29926" lon="2.57626">
        <ele>709.1</ele>
        <time>2018-11-28T03:45:52Z</time>
      </trkpt>
      <trkpt lat="42.29927" lon="2.57628">
        <ele>710</ele>
        <time>2018-11-28T03:45:53Z</time>
      </trkpt>
      <trkpt lat="42.29929" lon="2.57628">
        <ele>710.7</ele>
        <time>2018-11-28T03:45:54Z</time>
      </trkpt>
      <trkpt lat="42.29932" lon="2.57628">
        <ele>710.2</ele>
        <time>2018-11-28T03:45:55Z</time>
      </trkpt>
      <trkpt lat="42.29933" lon="2.57626">
        <ele>709.7</ele>
        <time>2018-11-28T03:45:56Z</time>
      </trkpt>
      <trkpt lat="42.29933" lon="2.57625">
        <ele>710.2</ele>
        <time>2018-11-28T03:45:56Z</time>
      </trkpt>
      <trkpt lat="42.29935" lon="2.57623">
        <ele>710.8</ele>
        <time>2018-11-28T03:45:57Z</time>
      </trkpt>
      <trkpt lat="42.29937" lon="2.57623">
        <ele>710.9</ele>
        <time>2018-11-28T03:45:58Z</time>
      </trkpt>
      <trkpt lat="42.29939" lon="2.57619">
        <ele>711.5</ele>
        <time>2018-11-28T03:45:59Z</time>
      </trkpt>
      <trkpt lat="42.29941" lon="2.57616">
        <ele>710.9</ele>
        <time>2018-11-28T03:46:00Z</time>
      </trkpt>
      <trkpt lat="42.29943" lon="2.57614">
        <ele>710.9</ele>
        <time>2018-11-28T03:46:01Z</time>
      </trkpt>
      <trkpt lat="42.29943" lon="2.5761">
        <ele>710.4</ele>
        <time>2018-11-28T03:46:03Z</time>
      </trkpt>
      <trkpt lat="42.29944" lon="2.57603">
        <ele>709.7</ele>
        <time>2018-11-28T03:46:05Z</time>
      </trkpt>
      <trkpt lat="42.29945" lon="2.57599">
        <ele>711.1</ele>
        <time>2018-11-28T03:46:06Z</time>
      </trkpt>
      <trkpt lat="42.29946" lon="2.57596">
        <ele>711.1</ele>
        <time>2018-11-28T03:46:07Z</time>
      </trkpt>
      <trkpt lat="42.29944" lon="2.57591">
        <ele>711.1</ele>
        <time>2018-11-28T03:46:09Z</time>
      </trkpt>
      <trkpt lat="42.29945" lon="2.57587">
        <ele>711.4</ele>
        <time>2018-11-28T03:46:10Z</time>
      </trkpt>
      <trkpt lat="42.29946" lon="2.57583">
        <ele>712.2</ele>
        <time>2018-11-28T03:46:11Z</time>
      </trkpt>
      <trkpt lat="42.29946" lon="2.57581">
        <ele>712.9</ele>
        <time>2018-11-28T03:46:12Z</time>
      </trkpt>
      <trkpt lat="42.29948" lon="2.57574">
        <ele>713.8</ele>
        <time>2018-11-28T03:46:14Z</time>
      </trkpt>
      <trkpt lat="42.29947" lon="2.57567">
        <ele>714.4</ele>
        <time>2018-11-28T03:46:16Z</time>
      </trkpt>
      <trkpt lat="42.29947" lon="2.57564">
        <ele>714.8</ele>
        <time>2018-11-28T03:46:17Z</time>
      </trkpt>
      <trkpt lat="42.29948" lon="2.5756">
        <ele>714.7</ele>
        <time>2018-11-28T03:46:18Z</time>
      </trkpt>
      <trkpt lat="42.29949" lon="2.57557">
        <ele>714.9</ele>
        <time>2018-11-28T03:46:19Z</time>
      </trkpt>
      <trkpt lat="42.29951" lon="2.57553">
        <ele>715</ele>
        <time>2018-11-28T03:46:20Z</time>
      </trkpt>
      <trkpt lat="42.29952" lon="2.5755">
        <ele>715.4</ele>
        <time>2018-11-28T03:46:22Z</time>
      </trkpt>
      <trkpt lat="42.29953" lon="2.57545">
        <ele>715.9</ele>
        <time>2018-11-28T03:46:23Z</time>
      </trkpt>
      <trkpt lat="42.29955" lon="2.57541">
        <ele>716</ele>
        <time>2018-11-28T03:46:25Z</time>
      </trkpt>
      <trkpt lat="42.29956" lon="2.57537">
        <ele>716</ele>
        <time>2018-11-28T03:46:26Z</time>
      </trkpt>
      <trkpt lat="42.29957" lon="2.57533">
        <ele>715.7</ele>
        <time>2018-11-28T03:46:27Z</time>
      </trkpt>
      <trkpt lat="42.2996" lon="2.57528">
        <ele>715.7</ele>
        <time>2018-11-28T03:46:29Z</time>
      </trkpt>
      <trkpt lat="42.2996" lon="2.57526">
        <ele>716.1</ele>
        <time>2018-11-28T03:46:30Z</time>
      </trkpt>
      <trkpt lat="42.29961" lon="2.57523">
        <ele>717.1</ele>
        <time>2018-11-28T03:46:31Z</time>
      </trkpt>
      <trkpt lat="42.29962" lon="2.5752">
        <ele>717.9</ele>
        <time>2018-11-28T03:46:32Z</time>
      </trkpt>
      <trkpt lat="42.2996" lon="2.57515">
        <ele>717.6</ele>
        <time>2018-11-28T03:46:33Z</time>
      </trkpt>
      <trkpt lat="42.29959" lon="2.5751">
        <ele>717.4</ele>
        <time>2018-11-28T03:46:35Z</time>
      </trkpt>
      <trkpt lat="42.2996" lon="2.57507">
        <ele>718</ele>
        <time>2018-11-28T03:46:36Z</time>
      </trkpt>
      <trkpt lat="42.2996" lon="2.57505">
        <ele>718.1</ele>
        <time>2018-11-28T03:46:36Z</time>
      </trkpt>
      <trkpt lat="42.29962" lon="2.57499">
        <ele>718.1</ele>
        <time>2018-11-28T03:46:38Z</time>
      </trkpt>
      <trkpt lat="42.29962" lon="2.57497">
        <ele>718.1</ele>
        <time>2018-11-28T03:46:39Z</time>
      </trkpt>
      <trkpt lat="42.29964" lon="2.57493">
        <ele>718.4</ele>
        <time>2018-11-28T03:46:40Z</time>
      </trkpt>
      <trkpt lat="42.29964" lon="2.5749">
        <ele>718.3</ele>
        <time>2018-11-28T03:46:41Z</time>
      </trkpt>
      <trkpt lat="42.29964" lon="2.57488">
        <ele>718.5</ele>
        <time>2018-11-28T03:46:42Z</time>
      </trkpt>
      <trkpt lat="42.29965" lon="2.57483">
        <ele>719.5</ele>
        <time>2018-11-28T03:46:43Z</time>
      </trkpt>
      <trkpt lat="42.29966" lon="2.57474">
        <ele>719.5</ele>
        <time>2018-11-28T03:46:46Z</time>
      </trkpt>
      <trkpt lat="42.29966" lon="2.57472">
        <ele>719.5</ele>
        <time>2018-11-28T03:46:47Z</time>
      </trkpt>
      <trkpt lat="42.29969" lon="2.57471">
        <ele>720</ele>
        <time>2018-11-28T03:46:48Z</time>
      </trkpt>
      <trkpt lat="42.2997" lon="2.57468">
        <ele>719.8</ele>
        <time>2018-11-28T03:46:49Z</time>
      </trkpt>
      <trkpt lat="42.29971" lon="2.57465">
        <ele>720.9</ele>
        <time>2018-11-28T03:46:50Z</time>
      </trkpt>
      <trkpt lat="42.29972" lon="2.5746">
        <ele>721.3</ele>
        <time>2018-11-28T03:46:51Z</time>
      </trkpt>
      <trkpt lat="42.29973" lon="2.57459">
        <ele>721.4</ele>
        <time>2018-11-28T03:46:52Z</time>
      </trkpt>
      <trkpt lat="42.29974" lon="2.57457">
        <ele>721.7</ele>
        <time>2018-11-28T03:46:53Z</time>
      </trkpt>
      <trkpt lat="42.29976" lon="2.5745">
        <ele>722.2</ele>
        <time>2018-11-28T03:46:55Z</time>
      </trkpt>
      <trkpt lat="42.29978" lon="2.57446">
        <ele>722.6</ele>
        <time>2018-11-28T03:46:56Z</time>
      </trkpt>
      <trkpt lat="42.29977" lon="2.57441">
        <ele>722.9</ele>
        <time>2018-11-28T03:46:58Z</time>
      </trkpt>
      <trkpt lat="42.29976" lon="2.57436">
        <ele>723.9</ele>
        <time>2018-11-28T03:46:59Z</time>
      </trkpt>
      <trkpt lat="42.29976" lon="2.57433">
        <ele>724.1</ele>
        <time>2018-11-28T03:47:00Z</time>
      </trkpt>
      <trkpt lat="42.29974" lon="2.57428">
        <ele>724.2</ele>
        <time>2018-11-28T03:47:02Z</time>
      </trkpt>
      <trkpt lat="42.29974" lon="2.57424">
        <ele>724.6</ele>
        <time>2018-11-28T03:47:03Z</time>
      </trkpt>
      <trkpt lat="42.29975" lon="2.57421">
        <ele>724.5</ele>
        <time>2018-11-28T03:47:04Z</time>
      </trkpt>
      <trkpt lat="42.29974" lon="2.57417">
        <ele>724.1</ele>
        <time>2018-11-28T03:47:05Z</time>
      </trkpt>
      <trkpt lat="42.29974" lon="2.57414">
        <ele>723.8</ele>
        <time>2018-11-28T03:47:06Z</time>
      </trkpt>
      <trkpt lat="42.29972" lon="2.5741">
        <ele>723.5</ele>
        <time>2018-11-28T03:47:07Z</time>
      </trkpt>
      <trkpt lat="42.29971" lon="2.57404">
        <ele>723</ele>
        <time>2018-11-28T03:47:09Z</time>
      </trkpt>
      <trkpt lat="42.29971" lon="2.57403">
        <ele>724</ele>
        <time>2018-11-28T03:47:10Z</time>
      </trkpt>
      <trkpt lat="42.29973" lon="2.57399">
        <ele>724.9</ele>
        <time>2018-11-28T03:47:11Z</time>
      </trkpt>
      <trkpt lat="42.29973" lon="2.57395">
        <ele>725.1</ele>
        <time>2018-11-28T03:47:12Z</time>
      </trkpt>
      <trkpt lat="42.29973" lon="2.57391">
        <ele>726.1</ele>
        <time>2018-11-28T03:47:14Z</time>
      </trkpt>
      <trkpt lat="42.29971" lon="2.57386">
        <ele>726.1</ele>
        <time>2018-11-28T03:47:15Z</time>
      </trkpt>
      <trkpt lat="42.29971" lon="2.57383">
        <ele>725.5</ele>
        <time>2018-11-28T03:47:16Z</time>
      </trkpt>
      <trkpt lat="42.2997" lon="2.57379">
        <ele>726.2</ele>
        <time>2018-11-28T03:47:17Z</time>
      </trkpt>
      <trkpt lat="42.2997" lon="2.57376">
        <ele>726.6</ele>
        <time>2018-11-28T03:47:18Z</time>
      </trkpt>
      <trkpt lat="42.29968" lon="2.57372">
        <ele>727.1</ele>
        <time>2018-11-28T03:47:20Z</time>
      </trkpt>
      <trkpt lat="42.29969" lon="2.5737">
        <ele>727</ele>
        <time>2018-11-28T03:47:20Z</time>
      </trkpt>
      <trkpt lat="42.29972" lon="2.57366">
        <ele>726.8</ele>
        <time>2018-11-28T03:47:22Z</time>
      </trkpt>
      <trkpt lat="42.29974" lon="2.57363">
        <ele>726.6</ele>
        <time>2018-11-28T03:47:23Z</time>
      </trkpt>
      <trkpt lat="42.29974" lon="2.5736">
        <ele>725.9</ele>
        <time>2018-11-28T03:47:24Z</time>
      </trkpt>
      <trkpt lat="42.29974" lon="2.57356">
        <ele>726.1</ele>
        <time>2018-11-28T03:47:25Z</time>
      </trkpt>
      <trkpt lat="42.29976" lon="2.57353">
        <ele>726.3</ele>
        <time>2018-11-28T03:47:26Z</time>
      </trkpt>
      <trkpt lat="42.29976" lon="2.57348">
        <ele>726.5</ele>
        <time>2018-11-28T03:47:28Z</time>
      </trkpt>
      <trkpt lat="42.29977" lon="2.57346">
        <ele>726.8</ele>
        <time>2018-11-28T03:47:29Z</time>
      </trkpt>
      <trkpt lat="42.29977" lon="2.5734">
        <ele>728</ele>
        <time>2018-11-28T03:47:30Z</time>
      </trkpt>
      <trkpt lat="42.29978" lon="2.57337">
        <ele>728.6</ele>
        <time>2018-11-28T03:47:31Z</time>
      </trkpt>
      <trkpt lat="42.29978" lon="2.57335">
        <ele>728.6</ele>
        <time>2018-11-28T03:47:32Z</time>
      </trkpt>
      <trkpt lat="42.29978" lon="2.5733">
        <ele>728.9</ele>
        <time>2018-11-28T03:47:33Z</time>
      </trkpt>
      <trkpt lat="42.29977" lon="2.57325">
        <ele>729.3</ele>
        <time>2018-11-28T03:47:35Z</time>
      </trkpt>
      <trkpt lat="42.29977" lon="2.57321">
        <ele>729.5</ele>
        <time>2018-11-28T03:47:36Z</time>
      </trkpt>
      <trkpt lat="42.29976" lon="2.57318">
        <ele>730.9</ele>
        <time>2018-11-28T03:47:37Z</time>
      </trkpt>
      <trkpt lat="42.29976" lon="2.57315">
        <ele>730.6</ele>
        <time>2018-11-28T03:47:38Z</time>
      </trkpt>
      <trkpt lat="42.29973" lon="2.57305">
        <ele>732.4</ele>
        <time>2018-11-28T03:47:41Z</time>
      </trkpt>
      <trkpt lat="42.29973" lon="2.57302">
        <ele>732.4</ele>
        <time>2018-11-28T03:47:42Z</time>
      </trkpt>
      <trkpt lat="42.29971" lon="2.57299">
        <ele>734.2</ele>
        <time>2018-11-28T03:47:43Z</time>
      </trkpt>
      <trkpt lat="42.29971" lon="2.57295">
        <ele>734.4</ele>
        <time>2018-11-28T03:47:44Z</time>
      </trkpt>
      <trkpt lat="42.29969" lon="2.57293">
        <ele>734.4</ele>
        <time>2018-11-28T03:47:45Z</time>
      </trkpt>
      <trkpt lat="42.29968" lon="2.57288">
        <ele>734.9</ele>
        <time>2018-11-28T03:47:47Z</time>
      </trkpt>
      <trkpt lat="42.29968" lon="2.57284">
        <ele>734.7</ele>
        <time>2018-11-28T03:47:48Z</time>
      </trkpt>
      <trkpt lat="42.2997" lon="2.57282">
        <ele>735.8</ele>
        <time>2018-11-28T03:47:49Z</time>
      </trkpt>
      <trkpt lat="42.29971" lon="2.5728">
        <ele>736.4</ele>
        <time>2018-11-28T03:47:50Z</time>
      </trkpt>
      <trkpt lat="42.29971" lon="2.57275">
        <ele>736.4</ele>
        <time>2018-11-28T03:47:51Z</time>
      </trkpt>
      <trkpt lat="42.29968" lon="2.57268">
        <ele>735.6</ele>
        <time>2018-11-28T03:47:53Z</time>
      </trkpt>
      <trkpt lat="42.29968" lon="2.5726">
        <ele>736.9</ele>
        <time>2018-11-28T03:47:56Z</time>
      </trkpt>
      <trkpt lat="42.29965" lon="2.57255">
        <ele>737.9</ele>
        <time>2018-11-28T03:47:58Z</time>
      </trkpt>
      <trkpt lat="42.29965" lon="2.57252">
        <ele>737.7</ele>
        <time>2018-11-28T03:47:59Z</time>
      </trkpt>
      <trkpt lat="42.29965" lon="2.57248">
        <ele>738</ele>
        <time>2018-11-28T03:48:00Z</time>
      </trkpt>
      <trkpt lat="42.29966" lon="2.57242">
        <ele>739.4</ele>
        <time>2018-11-28T03:48:02Z</time>
      </trkpt>
      <trkpt lat="42.29966" lon="2.57238">
        <ele>740.4</ele>
        <time>2018-11-28T03:48:03Z</time>
      </trkpt>
      <trkpt lat="42.29967" lon="2.57236">
        <ele>740.1</ele>
        <time>2018-11-28T03:48:04Z</time>
      </trkpt>
      <trkpt lat="42.29968" lon="2.57235">
        <ele>739.8</ele>
        <time>2018-11-28T03:48:04Z</time>
      </trkpt>
      <trkpt lat="42.29968" lon="2.57233">
        <ele>740.1</ele>
        <time>2018-11-28T03:48:05Z</time>
      </trkpt>
      <trkpt lat="42.29971" lon="2.57235">
        <ele>739.7</ele>
        <time>2018-11-28T03:48:06Z</time>
      </trkpt>
      <trkpt lat="42.2997" lon="2.57235">
        <ele>739.1</ele>
        <time>2018-11-28T03:48:07Z</time>
      </trkpt>
      <trkpt lat="42.29969" lon="2.57234">
        <ele>740.4</ele>
        <time>2018-11-28T03:48:07Z</time>
      </trkpt>
      <trkpt lat="42.29968" lon="2.57234">
        <ele>740.2</ele>
        <time>2018-11-28T03:48:08Z</time>
      </trkpt>
      <trkpt lat="42.2997" lon="2.57234">
        <ele>739.3</ele>
        <time>2018-11-28T03:48:08Z</time>
      </trkpt>
      <trkpt lat="42.29971" lon="2.57235">
        <ele>739.9</ele>
        <time>2018-11-28T03:48:09Z</time>
      </trkpt>
      <trkpt lat="42.29973" lon="2.57234">
        <ele>739.3</ele>
        <time>2018-11-28T03:48:10Z</time>
      </trkpt>
      <trkpt lat="42.29974" lon="2.57234">
        <ele>739.6</ele>
        <time>2018-11-28T03:48:10Z</time>
      </trkpt>
      <trkpt lat="42.29975" lon="2.57234">
        <ele>739.8</ele>
        <time>2018-11-28T03:48:11Z</time>
      </trkpt>
      <trkpt lat="42.29976" lon="2.57234">
        <ele>740.9</ele>
        <time>2018-11-28T03:48:11Z</time>
      </trkpt>
      <trkpt lat="42.29978" lon="2.57234">
        <ele>740.7</ele>
        <time>2018-11-28T03:48:12Z</time>
      </trkpt>
      <trkpt lat="42.29981" lon="2.57234">
        <ele>740</ele>
        <time>2018-11-28T03:48:13Z</time>
      </trkpt>
      <trkpt lat="42.29983" lon="2.57234">
        <ele>740.4</ele>
        <time>2018-11-28T03:48:14Z</time>
      </trkpt>
      <trkpt lat="42.29986" lon="2.57234">
        <ele>740.8</ele>
        <time>2018-11-28T03:48:15Z</time>
      </trkpt>
      <trkpt lat="42.29989" lon="2.57234">
        <ele>741.5</ele>
        <time>2018-11-28T03:48:16Z</time>
      </trkpt>
      <trkpt lat="42.29991" lon="2.57232">
        <ele>741.8</ele>
        <time>2018-11-28T03:48:17Z</time>
      </trkpt>
      <trkpt lat="42.29991" lon="2.57231">
        <ele>742.2</ele>
        <time>2018-11-28T03:48:18Z</time>
      </trkpt>
      <trkpt lat="42.2999" lon="2.5723">
        <ele>741.9</ele>
        <time>2018-11-28T03:48:18Z</time>
      </trkpt>
      <trkpt lat="42.29989" lon="2.5723">
        <ele>742.1</ele>
        <time>2018-11-28T03:48:19Z</time>
      </trkpt>
      <trkpt lat="42.29989" lon="2.57229">
        <ele>742.9</ele>
        <time>2018-11-28T03:48:19Z</time>
      </trkpt>
      <trkpt lat="42.2999" lon="2.57229">
        <ele>742.5</ele>
        <time>2018-11-28T03:48:20Z</time>
      </trkpt>
      <trkpt lat="42.2999" lon="2.57229">
        <ele>741.6</ele>
        <time>2018-11-28T03:48:20Z</time>
      </trkpt>
      <trkpt lat="42.29991" lon="2.57229">
        <ele>742.3</ele>
        <time>2018-11-28T03:48:20Z</time>
      </trkpt>
      <trkpt lat="42.29991" lon="2.57228">
        <ele>742.5</ele>
        <time>2018-11-28T03:48:20Z</time>
      </trkpt>
      <trkpt lat="42.29991" lon="2.57227">
        <ele>742.6</ele>
        <time>2018-11-28T03:48:21Z</time>
      </trkpt>
      <trkpt lat="42.29992" lon="2.57228">
        <ele>741.6</ele>
        <time>2018-11-28T03:48:21Z</time>
      </trkpt>
      <trkpt lat="42.29991" lon="2.57227">
        <ele>742.2</ele>
        <time>2018-11-28T03:48:21Z</time>
      </trkpt>
      <trkpt lat="42.29991" lon="2.57228">
        <ele>742</ele>
        <time>2018-11-28T03:48:22Z</time>
      </trkpt>
      <trkpt lat="42.29991" lon="2.5723">
        <ele>742.3</ele>
        <time>2018-11-28T03:48:22Z</time>
      </trkpt>
      <trkpt lat="42.29992" lon="2.57231">
        <ele>743</ele>
        <time>2018-11-28T03:48:23Z</time>
      </trkpt>
      <trkpt lat="42.29993" lon="2.57233">
        <ele>742.1</ele>
        <time>2018-11-28T03:48:24Z</time>
      </trkpt>
      <trkpt lat="42.29994" lon="2.57233">
        <ele>742.5</ele>
        <time>2018-11-28T03:48:24Z</time>
      </trkpt>
      <trkpt lat="42.29995" lon="2.57232">
        <ele>741.6</ele>
        <time>2018-11-28T03:48:24Z</time>
      </trkpt>
      <trkpt lat="42.29996" lon="2.57228">
        <ele>742.4</ele>
        <time>2018-11-28T03:48:26Z</time>
      </trkpt>
      <trkpt lat="42.29996" lon="2.57227">
        <ele>742.7</ele>
        <time>2018-11-28T03:48:26Z</time>
      </trkpt>
      <trkpt lat="42.29998" lon="2.57227">
        <ele>743</ele>
        <time>2018-11-28T03:48:27Z</time>
      </trkpt>
      <trkpt lat="42.30001" lon="2.57229">
        <ele>743.5</ele>
        <time>2018-11-28T03:48:28Z</time>
      </trkpt>
      <trkpt lat="42.30004" lon="2.57228">
        <ele>743.3</ele>
        <time>2018-11-28T03:48:29Z</time>
      </trkpt>
      <trkpt lat="42.30006" lon="2.57228">
        <ele>742.9</ele>
        <time>2018-11-28T03:48:30Z</time>
      </trkpt>
      <trkpt lat="42.30009" lon="2.57228">
        <ele>743.5</ele>
        <time>2018-11-28T03:48:32Z</time>
      </trkpt>
      <trkpt lat="42.30012" lon="2.57229">
        <ele>744.2</ele>
        <time>2018-11-28T03:48:32Z</time>
      </trkpt>
      <trkpt lat="42.30014" lon="2.57228">
        <ele>745.1</ele>
        <time>2018-11-28T03:48:33Z</time>
      </trkpt>
      <trkpt lat="42.30016" lon="2.57231">
        <ele>744.6</ele>
        <time>2018-11-28T03:48:35Z</time>
      </trkpt>
      <trkpt lat="42.30019" lon="2.57234">
        <ele>746.1</ele>
        <time>2018-11-28T03:48:36Z</time>
      </trkpt>
      <trkpt lat="42.30019" lon="2.57235">
        <ele>745.8</ele>
        <time>2018-11-28T03:48:36Z</time>
      </trkpt>
      <trkpt lat="42.30019" lon="2.57236">
        <ele>745.9</ele>
        <time>2018-11-28T03:48:37Z</time>
      </trkpt>
      <trkpt lat="42.30019" lon="2.57237">
        <ele>745</ele>
        <time>2018-11-28T03:48:37Z</time>
      </trkpt>
      <trkpt lat="42.30019" lon="2.57238">
        <ele>745.7</ele>
        <time>2018-11-28T03:48:37Z</time>
      </trkpt>
      <trkpt lat="42.30019" lon="2.5724">
        <ele>746.6</ele>
        <time>2018-11-28T03:48:38Z</time>
      </trkpt>
      <trkpt lat="42.3002" lon="2.57241">
        <ele>745.6</ele>
        <time>2018-11-28T03:48:38Z</time>
      </trkpt>
      <trkpt lat="42.3002" lon="2.5724">
        <ele>745.9</ele>
        <time>2018-11-28T03:48:39Z</time>
      </trkpt>
      <trkpt lat="42.30019" lon="2.57239">
        <ele>746.2</ele>
        <time>2018-11-28T03:48:39Z</time>
      </trkpt>
      <trkpt lat="42.30018" lon="2.57239">
        <ele>746.2</ele>
        <time>2018-11-28T03:48:39Z</time>
      </trkpt>
      <trkpt lat="42.30018" lon="2.57238">
        <ele>745</ele>
        <time>2018-11-28T03:48:40Z</time>
      </trkpt>
      <trkpt lat="42.30022" lon="2.5724">
        <ele>745.9</ele>
        <time>2018-11-28T03:48:41Z</time>
      </trkpt>
      <trkpt lat="42.30027" lon="2.5724">
        <ele>745.9</ele>
        <time>2018-11-28T03:48:43Z</time>
      </trkpt>
      <trkpt lat="42.30032" lon="2.57242">
        <ele>746.4</ele>
        <time>2018-11-28T03:48:45Z</time>
      </trkpt>
      <trkpt lat="42.30035" lon="2.57242">
        <ele>747.5</ele>
        <time>2018-11-28T03:48:47Z</time>
      </trkpt>
      <trkpt lat="42.3004" lon="2.57242">
        <ele>747.9</ele>
        <time>2018-11-28T03:48:49Z</time>
      </trkpt>
      <trkpt lat="42.30044" lon="2.5724">
        <ele>748.5</ele>
        <time>2018-11-28T03:48:50Z</time>
      </trkpt>
      <trkpt lat="42.30048" lon="2.5724">
        <ele>749.5</ele>
        <time>2018-11-28T03:48:52Z</time>
      </trkpt>
      <trkpt lat="42.30051" lon="2.57239">
        <ele>749.8</ele>
        <time>2018-11-28T03:48:53Z</time>
      </trkpt>
      <trkpt lat="42.30054" lon="2.57239">
        <ele>750.3</ele>
        <time>2018-11-28T03:48:54Z</time>
      </trkpt>
      <trkpt lat="42.30057" lon="2.57239">
        <ele>751.1</ele>
        <time>2018-11-28T03:48:56Z</time>
      </trkpt>
      <trkpt lat="42.30059" lon="2.5724">
        <ele>751.5</ele>
        <time>2018-11-28T03:48:57Z</time>
      </trkpt>
      <trkpt lat="42.30063" lon="2.5724">
        <ele>752</ele>
        <time>2018-11-28T03:48:58Z</time>
      </trkpt>
      <trkpt lat="42.30066" lon="2.5724">
        <ele>751.8</ele>
        <time>2018-11-28T03:48:59Z</time>
      </trkpt>
      <trkpt lat="42.30071" lon="2.57241">
        <ele>752</ele>
        <time>2018-11-28T03:49:01Z</time>
      </trkpt>
      <trkpt lat="42.30086" lon="2.57246">
        <ele>752</ele>
        <time>2018-11-28T03:49:08Z</time>
      </trkpt>
      <trkpt lat="42.30098" lon="2.57249">
        <ele>752.6</ele>
        <time>2018-11-28T03:49:12Z</time>
      </trkpt>
      <trkpt lat="42.30101" lon="2.57249">
        <ele>753.5</ele>
        <time>2018-11-28T03:49:14Z</time>
      </trkpt>
      <trkpt lat="42.30108" lon="2.5725">
        <ele>753.2</ele>
        <time>2018-11-28T03:49:17Z</time>
      </trkpt>
      <trkpt lat="42.30109" lon="2.5725">
        <ele>753.7</ele>
        <time>2018-11-28T03:49:17Z</time>
      </trkpt>
      <trkpt lat="42.30113" lon="2.5725">
        <ele>753.8</ele>
        <time>2018-11-28T03:49:18Z</time>
      </trkpt>
      <trkpt lat="42.30114" lon="2.5725">
        <ele>753.6</ele>
        <time>2018-11-28T03:49:19Z</time>
      </trkpt>
      <trkpt lat="42.3012" lon="2.57254">
        <ele>754.1</ele>
        <time>2018-11-28T03:49:22Z</time>
      </trkpt>
      <trkpt lat="42.30118" lon="2.57236">
        <ele>769.8</ele>
        <time>2018-11-28T03:49:27Z</time>
      </trkpt>
      <trkpt lat="42.30112" lon="2.57216">
        <ele>769</ele>
        <time>2018-11-28T03:49:33Z</time>
      </trkpt>
      <trkpt lat="42.30111" lon="2.5719">
        <ele>768.8</ele>
        <time>2018-11-28T03:49:41Z</time>
      </trkpt>
      <trkpt lat="42.30111" lon="2.57164">
        <ele>769.2</ele>
        <time>2018-11-28T03:49:49Z</time>
      </trkpt>
      <trkpt lat="42.30108" lon="2.5714">
        <ele>769.6</ele>
        <time>2018-11-28T03:49:56Z</time>
      </trkpt>
      <trkpt lat="42.30105" lon="2.57118">
        <ele>769.6</ele>
        <time>2018-11-28T03:50:03Z</time>
      </trkpt>
      <trkpt lat="42.30103" lon="2.57091">
        <ele>771.4</ele>
        <time>2018-11-28T03:50:11Z</time>
      </trkpt>
      <trkpt lat="42.30104" lon="2.57066">
        <ele>774.2</ele>
        <time>2018-11-28T03:50:18Z</time>
      </trkpt>
      <trkpt lat="42.30112" lon="2.57081">
        <ele>776.4</ele>
        <time>2018-11-28T03:50:24Z</time>
      </trkpt>
      <trkpt lat="42.3012" lon="2.57065">
        <ele>781.8</ele>
        <time>2018-11-28T03:50:30Z</time>
      </trkpt>
      <trkpt lat="42.3012" lon="2.57038">
        <ele>785.3</ele>
        <time>2018-11-28T03:50:38Z</time>
      </trkpt>
      <trkpt lat="42.30124" lon="2.57017">
        <ele>790.5</ele>
        <time>2018-11-28T03:50:44Z</time>
      </trkpt>
      <trkpt lat="42.30129" lon="2.56997">
        <ele>793.8</ele>
        <time>2018-11-28T03:50:50Z</time>
      </trkpt>
      <trkpt lat="42.30136" lon="2.56979">
        <ele>798.4</ele>
        <time>2018-11-28T03:50:56Z</time>
      </trkpt>
      <trkpt lat="42.30146" lon="2.56965">
        <ele>802.7</ele>
        <time>2018-11-28T03:51:02Z</time>
      </trkpt>
      <trkpt lat="42.30153" lon="2.56948">
        <ele>805.2</ele>
        <time>2018-11-28T03:51:08Z</time>
      </trkpt>
      <trkpt lat="42.30159" lon="2.56928">
        <ele>807.7</ele>
        <time>2018-11-28T03:51:14Z</time>
      </trkpt>
      <trkpt lat="42.30166" lon="2.5691">
        <ele>810</ele>
        <time>2018-11-28T03:51:20Z</time>
      </trkpt>
      <trkpt lat="42.30159" lon="2.56893">
        <ele>810.4</ele>
        <time>2018-11-28T03:51:26Z</time>
      </trkpt>
      <trkpt lat="42.30149" lon="2.56881">
        <ele>810.9</ele>
        <time>2018-11-28T03:51:31Z</time>
      </trkpt>
      <trkpt lat="42.30137" lon="2.5687">
        <ele>813.2</ele>
        <time>2018-11-28T03:51:37Z</time>
      </trkpt>
      <trkpt lat="42.30143" lon="2.56851">
        <ele>819.8</ele>
        <time>2018-11-28T03:51:43Z</time>
      </trkpt>
      <trkpt lat="42.30157" lon="2.56842">
        <ele>822.1</ele>
        <time>2018-11-28T03:51:49Z</time>
      </trkpt>
      <trkpt lat="42.3017" lon="2.56835">
        <ele>823.3</ele>
        <time>2018-11-28T03:51:55Z</time>
      </trkpt>
      <trkpt lat="42.30184" lon="2.56826">
        <ele>825.3</ele>
        <time>2018-11-28T03:52:01Z</time>
      </trkpt>
      <trkpt lat="42.30194" lon="2.56812">
        <ele>827.9</ele>
        <time>2018-11-28T03:52:07Z</time>
      </trkpt>
      <trkpt lat="42.302" lon="2.56794">
        <ele>829.8</ele>
        <time>2018-11-28T03:52:13Z</time>
      </trkpt>
      <trkpt lat="42.30212" lon="2.56726">
        <ele>837.2</ele>
        <time>2018-11-28T03:52:33Z</time>
      </trkpt>
      <trkpt lat="42.30221" lon="2.56711">
        <ele>840.3</ele>
        <time>2018-11-28T03:52:39Z</time>
      </trkpt>
      <trkpt lat="42.30234" lon="2.56701">
        <ele>842.6</ele>
        <time>2018-11-28T03:52:45Z</time>
      </trkpt>
      <trkpt lat="42.30246" lon="2.56689">
        <ele>845.6</ele>
        <time>2018-11-28T03:52:51Z</time>
      </trkpt>
      <trkpt lat="42.30256" lon="2.56675">
        <ele>847.5</ele>
        <time>2018-11-28T03:52:57Z</time>
      </trkpt>
      <trkpt lat="42.30263" lon="2.56658">
        <ele>849.1</ele>
        <time>2018-11-28T03:53:02Z</time>
      </trkpt>
      <trkpt lat="42.30271" lon="2.56638">
        <ele>849.3</ele>
        <time>2018-11-28T03:53:09Z</time>
      </trkpt>
      <trkpt lat="42.3029" lon="2.5662">
        <ele>849.9</ele>
        <time>2018-11-28T03:53:18Z</time>
      </trkpt>
      <trkpt lat="42.30311" lon="2.56605">
        <ele>851.5</ele>
        <time>2018-11-28T03:53:28Z</time>
      </trkpt>
      <trkpt lat="42.30332" lon="2.56592">
        <ele>854.4</ele>
        <time>2018-11-28T03:53:37Z</time>
      </trkpt>
      <trkpt lat="42.30348" lon="2.5657">
        <ele>855.8</ele>
        <time>2018-11-28T03:53:46Z</time>
      </trkpt>
      <trkpt lat="42.3036" lon="2.56547">
        <ele>855.6</ele>
        <time>2018-11-28T03:53:55Z</time>
      </trkpt>
      <trkpt lat="42.30385" lon="2.56538">
        <ele>862.3</ele>
        <time>2018-11-28T03:54:05Z</time>
      </trkpt>
      <trkpt lat="42.30414" lon="2.56517">
        <ele>865.1</ele>
        <time>2018-11-28T03:54:18Z</time>
      </trkpt>
      <trkpt lat="42.30431" lon="2.56499">
        <ele>866.8</ele>
        <time>2018-11-28T03:54:27Z</time>
      </trkpt>
      <trkpt lat="42.30442" lon="2.56472">
        <ele>866.3</ele>
        <time>2018-11-28T03:54:36Z</time>
      </trkpt>
      <trkpt lat="42.30456" lon="2.56449">
        <ele>868.2</ele>
        <time>2018-11-28T03:54:45Z</time>
      </trkpt>
      <trkpt lat="42.30471" lon="2.56427">
        <ele>871.5</ele>
        <time>2018-11-28T03:54:54Z</time>
      </trkpt>
      <trkpt lat="42.30487" lon="2.56407">
        <ele>877.8</ele>
        <time>2018-11-28T03:55:02Z</time>
      </trkpt>
      <trkpt lat="42.30503" lon="2.56387">
        <ele>880.3</ele>
        <time>2018-11-28T03:55:11Z</time>
      </trkpt>
      <trkpt lat="42.30522" lon="2.56371">
        <ele>884.8</ele>
        <time>2018-11-28T03:55:20Z</time>
      </trkpt>
      <trkpt lat="42.3054" lon="2.56355">
        <ele>887.1</ele>
        <time>2018-11-28T03:55:29Z</time>
      </trkpt>
      <trkpt lat="42.3056" lon="2.5634">
        <ele>886.1</ele>
        <time>2018-11-28T03:55:38Z</time>
      </trkpt>
      <trkpt lat="42.30586" lon="2.56335">
        <ele>890</ele>
        <time>2018-11-28T03:55:48Z</time>
      </trkpt>
      <trkpt lat="42.30614" lon="2.56331">
        <ele>892.1</ele>
        <time>2018-11-28T03:55:59Z</time>
      </trkpt>
      <trkpt lat="42.30639" lon="2.56324">
        <ele>889.7</ele>
        <time>2018-11-28T03:56:10Z</time>
      </trkpt>
      <trkpt lat="42.30664" lon="2.56333">
        <ele>894</ele>
        <time>2018-11-28T03:56:20Z</time>
      </trkpt>
      <trkpt lat="42.30682" lon="2.56349">
        <ele>899.9</ele>
        <time>2018-11-28T03:56:29Z</time>
      </trkpt>
      <trkpt lat="42.30697" lon="2.5637">
        <ele>909.5</ele>
        <time>2018-11-28T03:56:37Z</time>
      </trkpt>
      <trkpt lat="42.30716" lon="2.56387">
        <ele>915.1</ele>
        <time>2018-11-28T03:56:46Z</time>
      </trkpt>
      <trkpt lat="42.30738" lon="2.56399">
        <ele>917.9</ele>
        <time>2018-11-28T03:56:56Z</time>
      </trkpt>
      <trkpt lat="42.30767" lon="2.56397">
        <ele>925.5</ele>
        <time>2018-11-28T03:57:08Z</time>
      </trkpt>
      <trkpt lat="42.3078" lon="2.56372">
        <ele>931.3</ele>
        <time>2018-11-28T03:57:17Z</time>
      </trkpt>
      <trkpt lat="42.30795" lon="2.56338">
        <ele>935.9</ele>
        <time>2018-11-28T03:57:28Z</time>
      </trkpt>
      <trkpt lat="42.308" lon="2.56304">
        <ele>932.9</ele>
        <time>2018-11-28T03:57:39Z</time>
      </trkpt>
      <trkpt lat="42.308" lon="2.56263">
        <ele>925.9</ele>
        <time>2018-11-28T03:57:51Z</time>
      </trkpt>
      <trkpt lat="42.30806" lon="2.56229">
        <ele>921.3</ele>
        <time>2018-11-28T03:58:01Z</time>
      </trkpt>
      <trkpt lat="42.30815" lon="2.56197">
        <ele>916.5</ele>
        <time>2018-11-28T03:58:11Z</time>
      </trkpt>
      <trkpt lat="42.30832" lon="2.56177">
        <ele>914.8</ele>
        <time>2018-11-28T03:58:20Z</time>
      </trkpt>
      <trkpt lat="42.30845" lon="2.56153">
        <ele>910.3</ele>
        <time>2018-11-28T03:58:29Z</time>
      </trkpt>
      <trkpt lat="42.30856" lon="2.56127">
        <ele>906.2</ele>
        <time>2018-11-28T03:58:38Z</time>
      </trkpt>
      <trkpt lat="42.30877" lon="2.56112">
        <ele>909.9</ele>
        <time>2018-11-28T03:58:47Z</time>
      </trkpt>
      <trkpt lat="42.30861" lon="2.56092">
        <ele>906.1</ele>
        <time>2018-11-28T03:58:56Z</time>
      </trkpt>
      <trkpt lat="42.30839" lon="2.56079">
        <ele>903.6</ele>
        <time>2018-11-28T03:59:05Z</time>
      </trkpt>
      <trkpt lat="42.30818" lon="2.56066">
        <ele>900.1</ele>
        <time>2018-11-28T03:59:15Z</time>
      </trkpt>
      <trkpt lat="42.308" lon="2.56048">
        <ele>897.8</ele>
        <time>2018-11-28T03:59:24Z</time>
      </trkpt>
      <trkpt lat="42.30786" lon="2.56025">
        <ele>897.9</ele>
        <time>2018-11-28T03:59:33Z</time>
      </trkpt>
      <trkpt lat="42.3077" lon="2.56006">
        <ele>898.3</ele>
        <time>2018-11-28T03:59:41Z</time>
      </trkpt>
      <trkpt lat="42.30751" lon="2.5599">
        <ele>897.1</ele>
        <time>2018-11-28T03:59:50Z</time>
      </trkpt>
      <trkpt lat="42.30733" lon="2.55973">
        <ele>894.1</ele>
        <time>2018-11-28T03:59:59Z</time>
      </trkpt>
      <trkpt lat="42.30715" lon="2.55955">
        <ele>890.6</ele>
        <time>2018-11-28T04:00:08Z</time>
      </trkpt>
      <trkpt lat="42.30699" lon="2.55935">
        <ele>888.5</ele>
        <time>2018-11-28T04:00:17Z</time>
      </trkpt>
      <trkpt lat="42.30688" lon="2.5591">
        <ele>894.9</ele>
        <time>2018-11-28T04:00:25Z</time>
      </trkpt>
      <trkpt lat="42.30674" lon="2.55887">
        <ele>898.5</ele>
        <time>2018-11-28T04:00:34Z</time>
      </trkpt>
      <trkpt lat="42.30658" lon="2.55868">
        <ele>896.1</ele>
        <time>2018-11-28T04:00:43Z</time>
      </trkpt>
      <trkpt lat="42.30646" lon="2.55841">
        <ele>892.8</ele>
        <time>2018-11-28T04:00:52Z</time>
      </trkpt>
      <trkpt lat="42.30637" lon="2.55812">
        <ele>894.2</ele>
        <time>2018-11-28T04:01:01Z</time>
      </trkpt>
      <trkpt lat="42.30626" lon="2.55785">
        <ele>891.6</ele>
        <time>2018-11-28T04:01:10Z</time>
      </trkpt>
      <trkpt lat="42.30615" lon="2.55758">
        <ele>891.3</ele>
        <time>2018-11-28T04:01:19Z</time>
      </trkpt>
      <trkpt lat="42.30602" lon="2.55729">
        <ele>888.5</ele>
        <time>2018-11-28T04:01:29Z</time>
      </trkpt>
      <trkpt lat="42.30594" lon="2.557">
        <ele>886.1</ele>
        <time>2018-11-28T04:01:39Z</time>
      </trkpt>
      <trkpt lat="42.30591" lon="2.55662">
        <ele>888.2</ele>
        <time>2018-11-28T04:01:50Z</time>
      </trkpt>
      <trkpt lat="42.30594" lon="2.55625">
        <ele>885.7</ele>
        <time>2018-11-28T04:02:01Z</time>
      </trkpt>
      <trkpt lat="42.30601" lon="2.55592">
        <ele>884.2</ele>
        <time>2018-11-28T04:02:11Z</time>
      </trkpt>
      <trkpt lat="42.30597" lon="2.55556">
        <ele>877.4</ele>
        <time>2018-11-28T04:02:22Z</time>
      </trkpt>
      <trkpt lat="42.30592" lon="2.55522">
        <ele>885.1</ele>
        <time>2018-11-28T04:02:32Z</time>
      </trkpt>
      <trkpt lat="42.30579" lon="2.55498">
        <ele>884.7</ele>
        <time>2018-11-28T04:02:41Z</time>
      </trkpt>
      <trkpt lat="42.30563" lon="2.55478">
        <ele>884.2</ele>
        <time>2018-11-28T04:02:49Z</time>
      </trkpt>
      <trkpt lat="42.30553" lon="2.55451">
        <ele>886.9</ele>
        <time>2018-11-28T04:02:59Z</time>
      </trkpt>
      <trkpt lat="42.30555" lon="2.55412">
        <ele>890.5</ele>
        <time>2018-11-28T04:03:10Z</time>
      </trkpt>
      <trkpt lat="42.30557" lon="2.55374">
        <ele>888</ele>
        <time>2018-11-28T04:03:21Z</time>
      </trkpt>
      <trkpt lat="42.30552" lon="2.55337">
        <ele>890.1</ele>
        <time>2018-11-28T04:03:32Z</time>
      </trkpt>
      <trkpt lat="42.30548" lon="2.55301">
        <ele>890.5</ele>
        <time>2018-11-28T04:03:43Z</time>
      </trkpt>
      <trkpt lat="42.30547" lon="2.55262">
        <ele>889</ele>
        <time>2018-11-28T04:03:55Z</time>
      </trkpt>
      <trkpt lat="42.30546" lon="2.55221">
        <ele>886</ele>
        <time>2018-11-28T04:04:07Z</time>
      </trkpt>
      <trkpt lat="42.30551" lon="2.55188">
        <ele>885.5</ele>
        <time>2018-11-28T04:04:17Z</time>
      </trkpt>
      <trkpt lat="42.30561" lon="2.5516">
        <ele>885.4</ele>
        <time>2018-11-28T04:04:26Z</time>
      </trkpt>
      <trkpt lat="42.30591" lon="2.55124">
        <ele>889.3</ele>
        <time>2018-11-28T04:04:42Z</time>
      </trkpt>
      <trkpt lat="42.30593" lon="2.55063">
        <ele>901.4</ele>
        <time>2018-11-28T04:05:00Z</time>
      </trkpt>
      <trkpt lat="42.30593" lon="2.55">
        <ele>910.7</ele>
        <time>2018-11-28T04:05:19Z</time>
      </trkpt>
      <trkpt lat="42.306" lon="2.54947">
        <ele>920.3</ele>
        <time>2018-11-28T04:05:35Z</time>
      </trkpt>
      <trkpt lat="42.30617" lon="2.54906">
        <ele>935.2</ele>
        <time>2018-11-28T04:05:49Z</time>
      </trkpt>
      <trkpt lat="42.30626" lon="2.54855">
        <ele>939.9</ele>
        <time>2018-11-28T04:06:04Z</time>
      </trkpt>
      <trkpt lat="42.30635" lon="2.54804">
        <ele>947.1</ele>
        <time>2018-11-28T04:06:20Z</time>
      </trkpt>
      <trkpt lat="42.30644" lon="2.54753">
        <ele>950</ele>
        <time>2018-11-28T04:06:35Z</time>
      </trkpt>
      <trkpt lat="42.30648" lon="2.54694">
        <ele>945.7</ele>
        <time>2018-11-28T04:06:53Z</time>
      </trkpt>
      <trkpt lat="42.30645" lon="2.54635">
        <ele>933.1</ele>
        <time>2018-11-28T04:07:10Z</time>
      </trkpt>
      <trkpt lat="42.3067" lon="2.54606">
        <ele>921.3</ele>
        <time>2018-11-28T04:07:24Z</time>
      </trkpt>
      <trkpt lat="42.30711" lon="2.54596">
        <ele>906</ele>
        <time>2018-11-28T04:07:40Z</time>
      </trkpt>
      <trkpt lat="42.30749" lon="2.5461">
        <ele>894.3</ele>
        <time>2018-11-28T04:07:56Z</time>
      </trkpt>
      <trkpt lat="42.3077" lon="2.54559">
        <ele>874.2</ele>
        <time>2018-11-28T04:08:13Z</time>
      </trkpt>
      <trkpt lat="42.308" lon="2.54581">
        <ele>872</ele>
        <time>2018-11-28T04:08:27Z</time>
      </trkpt>
      <trkpt lat="42.30826" lon="2.5455">
        <ele>856.8</ele>
        <time>2018-11-28T04:08:41Z</time>
      </trkpt>
      <trkpt lat="42.30835" lon="2.54487">
        <ele>826.6</ele>
        <time>2018-11-28T04:09:00Z</time>
      </trkpt>
      <trkpt lat="42.30874" lon="2.54468">
        <ele>816.7</ele>
        <time>2018-11-28T04:09:16Z</time>
      </trkpt>
      <trkpt lat="42.30859" lon="2.54426">
        <ele>795.1</ele>
        <time>2018-11-28T04:09:30Z</time>
      </trkpt>
      <trkpt lat="42.30895" lon="2.54405">
        <ele>784.8</ele>
        <time>2018-11-28T04:09:46Z</time>
      </trkpt>
      <trkpt lat="42.30926" lon="2.54381">
        <ele>768.2</ele>
        <time>2018-11-28T04:10:01Z</time>
      </trkpt>
      <trkpt lat="42.30969" lon="2.54374">
        <ele>758.3</ele>
        <time>2018-11-28T04:10:18Z</time>
      </trkpt>
      <trkpt lat="42.31002" lon="2.54356">
        <ele>744.2</ele>
        <time>2018-11-28T04:10:32Z</time>
      </trkpt>
      <trkpt lat="42.3105" lon="2.54361">
        <ele>726.4</ele>
        <time>2018-11-28T04:10:52Z</time>
      </trkpt>
      <trkpt lat="42.31082" lon="2.54341">
        <ele>725.3</ele>
        <time>2018-11-28T04:11:06Z</time>
      </trkpt>
      <trkpt lat="42.31106" lon="2.5431">
        <ele>715.5</ele>
        <time>2018-11-28T04:11:19Z</time>
      </trkpt>
      <trkpt lat="42.31145" lon="2.54302">
        <ele>713.1</ele>
        <time>2018-11-28T04:11:35Z</time>
      </trkpt>
      <trkpt lat="42.31117" lon="2.54275">
        <ele>702.7</ele>
        <time>2018-11-28T04:11:49Z</time>
      </trkpt>
      <trkpt lat="42.3108" lon="2.54259">
        <ele>703.7</ele>
        <time>2018-11-28T04:12:04Z</time>
      </trkpt>
      <trkpt lat="42.31054" lon="2.54229">
        <ele>707.3</ele>
        <time>2018-11-28T04:12:18Z</time>
      </trkpt>
      <trkpt lat="42.3103" lon="2.54194">
        <ele>708.8</ele>
        <time>2018-11-28T04:12:32Z</time>
      </trkpt>
      <trkpt lat="42.31016" lon="2.54144">
        <ele>726.3</ele>
        <time>2018-11-28T04:12:48Z</time>
      </trkpt>
      <trkpt lat="42.30995" lon="2.54109">
        <ele>736.7</ele>
        <time>2018-11-28T04:13:01Z</time>
      </trkpt>
      <trkpt lat="42.30971" lon="2.54079">
        <ele>734.7</ele>
        <time>2018-11-28T04:13:14Z</time>
      </trkpt>
      <trkpt lat="42.30939" lon="2.54058">
        <ele>716.7</ele>
        <time>2018-11-28T04:13:28Z</time>
      </trkpt>
      <trkpt lat="42.30904" lon="2.5404">
        <ele>706.2</ele>
        <time>2018-11-28T04:13:43Z</time>
      </trkpt>
      <trkpt lat="42.30872" lon="2.54063">
        <ele>687.2</ele>
        <time>2018-11-28T04:13:58Z</time>
      </trkpt>
      <trkpt lat="42.30847" lon="2.54092">
        <ele>678.6</ele>
        <time>2018-11-28T04:14:11Z</time>
      </trkpt>
      <trkpt lat="42.30803" lon="2.54088">
        <ele>658.8</ele>
        <time>2018-11-28T04:14:29Z</time>
      </trkpt>
      <trkpt lat="42.30786" lon="2.54047">
        <ele>658.6</ele>
        <time>2018-11-28T04:14:42Z</time>
      </trkpt>
      <trkpt lat="42.30766" lon="2.54011">
        <ele>653.8</ele>
        <time>2018-11-28T04:14:56Z</time>
      </trkpt>
      <trkpt lat="42.30751" lon="2.54054">
        <ele>626.2</ele>
        <time>2018-11-28T04:15:10Z</time>
      </trkpt>
      <trkpt lat="42.30741" lon="2.54103">
        <ele>607.2</ele>
        <time>2018-11-28T04:15:25Z</time>
      </trkpt>
      <trkpt lat="42.30727" lon="2.54158">
        <ele>602.7</ele>
        <time>2018-11-28T04:15:42Z</time>
      </trkpt>
      <trkpt lat="42.30708" lon="2.54119">
        <ele>595.3</ele>
        <time>2018-11-28T04:15:56Z</time>
      </trkpt>
      <trkpt lat="42.3067" lon="2.54105">
        <ele>594.1</ele>
        <time>2018-11-28T04:16:12Z</time>
      </trkpt>
      <trkpt lat="42.30641" lon="2.54081">
        <ele>566.5</ele>
        <time>2018-11-28T04:16:25Z</time>
      </trkpt>
      <trkpt lat="42.30597" lon="2.54077">
        <ele>553.2</ele>
        <time>2018-11-28T04:16:43Z</time>
      </trkpt>
      <trkpt lat="42.30553" lon="2.54074">
        <ele>553.7</ele>
        <time>2018-11-28T04:17:00Z</time>
      </trkpt>
      <trkpt lat="42.30518" lon="2.54057">
        <ele>559.4</ele>
        <time>2018-11-28T04:17:15Z</time>
      </trkpt>
      <trkpt lat="42.30479" lon="2.54048">
        <ele>564.6</ele>
        <time>2018-11-28T04:17:31Z</time>
      </trkpt>
      <trkpt lat="42.3044" lon="2.54038">
        <ele>570.1</ele>
        <time>2018-11-28T04:17:47Z</time>
      </trkpt>
      <trkpt lat="42.30397" lon="2.54044">
        <ele>573.9</ele>
        <time>2018-11-28T04:18:04Z</time>
      </trkpt>
      <trkpt lat="42.30373" lon="2.54075">
        <ele>581.7</ele>
        <time>2018-11-28T04:18:18Z</time>
      </trkpt>
      <trkpt lat="42.30345" lon="2.541">
        <ele>579.7</ele>
        <time>2018-11-28T04:18:31Z</time>
      </trkpt>
      <trkpt lat="42.30304" lon="2.54108">
        <ele>577.3</ele>
        <time>2018-11-28T04:18:48Z</time>
      </trkpt>
      <trkpt lat="42.30258" lon="2.54106">
        <ele>565.1</ele>
        <time>2018-11-28T04:19:06Z</time>
      </trkpt>
      <trkpt lat="42.30228" lon="2.54129">
        <ele>554.2</ele>
        <time>2018-11-28T04:19:20Z</time>
      </trkpt>
      <trkpt lat="42.30187" lon="2.54121">
        <ele>529.2</ele>
        <time>2018-11-28T04:19:36Z</time>
      </trkpt>
      <trkpt lat="42.30156" lon="2.54101">
        <ele>512.7</ele>
        <time>2018-11-28T04:19:50Z</time>
      </trkpt>
      <trkpt lat="42.30169" lon="2.54054">
        <ele>505.9</ele>
        <time>2018-11-28T04:20:05Z</time>
      </trkpt>
      <trkpt lat="42.30139" lon="2.54032">
        <ele>490.7</ele>
        <time>2018-11-28T04:20:19Z</time>
      </trkpt>
      <trkpt lat="42.30099" lon="2.54044">
        <ele>484.1</ele>
        <time>2018-11-28T04:20:35Z</time>
      </trkpt>
      <trkpt lat="42.30057" lon="2.54038">
        <ele>473.8</ele>
        <time>2018-11-28T04:20:52Z</time>
      </trkpt>
      <trkpt lat="42.30034" lon="2.54004">
        <ele>472.8</ele>
        <time>2018-11-28T04:21:06Z</time>
      </trkpt>
      <trkpt lat="42.29998" lon="2.54013">
        <ele>464.2</ele>
        <time>2018-11-28T04:21:21Z</time>
      </trkpt>
      <trkpt lat="42.29974" lon="2.53995">
        <ele>461</ele>
        <time>2018-11-28T04:21:32Z</time>
      </trkpt>
      <trkpt lat="42.29945" lon="2.53984">
        <ele>451.2</ele>
        <time>2018-11-28T04:21:44Z</time>
      </trkpt>
      <trkpt lat="42.29915" lon="2.53973">
        <ele>444</ele>
        <time>2018-11-28T04:21:56Z</time>
      </trkpt>
      <trkpt lat="42.29904" lon="2.53935">
        <ele>437.8</ele>
        <time>2018-11-28T04:22:08Z</time>
      </trkpt>
      <trkpt lat="42.29878" lon="2.53904">
        <ele>424.2</ele>
        <time>2018-11-28T04:22:22Z</time>
      </trkpt>
      <trkpt lat="42.29858" lon="2.5388">
        <ele>416.1</ele>
        <time>2018-11-28T04:22:32Z</time>
      </trkpt>
      <trkpt lat="42.29846" lon="2.53864">
        <ele>429</ele>
        <time>2018-11-28T04:22:39Z</time>
      </trkpt>
      <trkpt lat="42.29852" lon="2.53863">
        <ele>420.3</ele>
        <time>2018-11-28T04:22:41Z</time>
      </trkpt>
      <trkpt lat="42.29852" lon="2.53862">
        <ele>419.3</ele>
        <time>2018-11-28T04:22:42Z</time>
      </trkpt>
      <trkpt lat="42.29852" lon="2.53863">
        <ele>416.4</ele>
        <time>2018-11-28T04:22:42Z</time>
      </trkpt>
      <trkpt lat="42.29847" lon="2.53855">
        <ele>415</ele>
        <time>2018-11-28T04:22:45Z</time>
      </trkpt>
      <trkpt lat="42.29841" lon="2.53843">
        <ele>414.6</ele>
        <time>2018-11-28T04:22:49Z</time>
      </trkpt>
      <trkpt lat="42.29843" lon="2.53838">
        <ele>414.1</ele>
        <time>2018-11-28T04:22:51Z</time>
      </trkpt>
      <trkpt lat="42.29841" lon="2.53832">
        <ele>413</ele>
        <time>2018-11-28T04:22:53Z</time>
      </trkpt>
      <trkpt lat="42.29836" lon="2.53826">
        <ele>411.6</ele>
        <time>2018-11-28T04:22:56Z</time>
      </trkpt>
      <trkpt lat="42.29835" lon="2.53826">
        <ele>411.7</ele>
        <time>2018-11-28T04:22:56Z</time>
      </trkpt>
      <trkpt lat="42.29829" lon="2.5382">
        <ele>410.7</ele>
        <time>2018-11-28T04:22:59Z</time>
      </trkpt>
      <trkpt lat="42.29824" lon="2.53818">
        <ele>410.6</ele>
        <time>2018-11-28T04:23:01Z</time>
      </trkpt>
      <trkpt lat="42.29816" lon="2.53817">
        <ele>409.2</ele>
        <time>2018-11-28T04:23:04Z</time>
      </trkpt>
      <trkpt lat="42.29813" lon="2.53816">
        <ele>409.8</ele>
        <time>2018-11-28T04:23:06Z</time>
      </trkpt>
      <trkpt lat="42.29816" lon="2.5381">
        <ele>409.2</ele>
        <time>2018-11-28T04:23:08Z</time>
      </trkpt>
      <trkpt lat="42.29819" lon="2.53805">
        <ele>408.8</ele>
        <time>2018-11-28T04:23:10Z</time>
      </trkpt>
      <trkpt lat="42.29825" lon="2.53799">
        <ele>409.3</ele>
        <time>2018-11-28T04:23:13Z</time>
      </trkpt>
      <trkpt lat="42.29826" lon="2.53795">
        <ele>408.8</ele>
        <time>2018-11-28T04:23:14Z</time>
      </trkpt>
      <trkpt lat="42.29828" lon="2.53791">
        <ele>408.3</ele>
        <time>2018-11-28T04:23:15Z</time>
      </trkpt>
      <trkpt lat="42.2983" lon="2.53792">
        <ele>407.7</ele>
        <time>2018-11-28T04:23:16Z</time>
      </trkpt>
      <trkpt lat="42.29833" lon="2.5379">
        <ele>406.8</ele>
        <time>2018-11-28T04:23:17Z</time>
      </trkpt>
      <trkpt lat="42.29819" lon="2.53779">
        <ele>404.5</ele>
        <time>2018-11-28T04:23:24Z</time>
      </trkpt>
      <trkpt lat="42.29814" lon="2.53771">
        <ele>402.9</ele>
        <time>2018-11-28T04:23:27Z</time>
      </trkpt>
      <trkpt lat="42.29802" lon="2.53759">
        <ele>399.2</ele>
        <time>2018-11-28T04:23:33Z</time>
      </trkpt>
      <trkpt lat="42.29787" lon="2.53759">
        <ele>396.3</ele>
        <time>2018-11-28T04:23:39Z</time>
      </trkpt>
      <trkpt lat="42.29781" lon="2.53749">
        <ele>392.8</ele>
        <time>2018-11-28T04:23:43Z</time>
      </trkpt>
      <trkpt lat="42.29782" lon="2.53745">
        <ele>391.9</ele>
        <time>2018-11-28T04:23:44Z</time>
      </trkpt>
      <trkpt lat="42.29784" lon="2.53742">
        <ele>391.5</ele>
        <time>2018-11-28T04:23:45Z</time>
      </trkpt>
      <trkpt lat="42.29792" lon="2.53737">
        <ele>390.4</ele>
        <time>2018-11-28T04:23:49Z</time>
      </trkpt>
      <trkpt lat="42.29794" lon="2.53729">
        <ele>391</ele>
        <time>2018-11-28T04:23:52Z</time>
      </trkpt>
      <trkpt lat="42.29795" lon="2.53717">
        <ele>394.3</ele>
        <time>2018-11-28T04:23:55Z</time>
      </trkpt>
      <trkpt lat="42.29793" lon="2.53711">
        <ele>394.3</ele>
        <time>2018-11-28T04:23:57Z</time>
      </trkpt>
      <trkpt lat="42.29785" lon="2.53692">
        <ele>394.3</ele>
        <time>2018-11-28T04:24:03Z</time>
      </trkpt>
      <trkpt lat="42.29776" lon="2.53672">
        <ele>394.3</ele>
        <time>2018-11-28T04:24:10Z</time>
      </trkpt>
      <trkpt lat="42.29763" lon="2.53659">
        <ele>395.3</ele>
        <time>2018-11-28T04:24:17Z</time>
      </trkpt>
      <trkpt lat="42.29753" lon="2.53655">
        <ele>394.3</ele>
        <time>2018-11-28T04:24:21Z</time>
      </trkpt>
      <trkpt lat="42.29747" lon="2.53647">
        <ele>394.9</ele>
        <time>2018-11-28T04:24:24Z</time>
      </trkpt>
      <trkpt lat="42.29744" lon="2.53635">
        <ele>395.2</ele>
        <time>2018-11-28T04:24:28Z</time>
      </trkpt>
      <trkpt lat="42.29734" lon="2.53628">
        <ele>395.3</ele>
        <time>2018-11-28T04:24:33Z</time>
      </trkpt>
      <trkpt lat="42.29728" lon="2.53606">
        <ele>394.3</ele>
        <time>2018-11-28T04:24:40Z</time>
      </trkpt>
      <trkpt lat="42.29726" lon="2.53597">
        <ele>395.3</ele>
        <time>2018-11-28T04:24:42Z</time>
      </trkpt>
      <trkpt lat="42.29729" lon="2.53566">
        <ele>395.3</ele>
        <time>2018-11-28T04:24:52Z</time>
      </trkpt>
      <trkpt lat="42.29729" lon="2.53563">
        <ele>395.2</ele>
        <time>2018-11-28T04:24:52Z</time>
      </trkpt>
      <trkpt lat="42.29732" lon="2.53548">
        <ele>395.2</ele>
        <time>2018-11-28T04:24:57Z</time>
      </trkpt>
      <trkpt lat="42.29742" lon="2.53529">
        <ele>395.7</ele>
        <time>2018-11-28T04:25:04Z</time>
      </trkpt>
      <trkpt lat="42.29758" lon="2.53519">
        <ele>395.7</ele>
        <time>2018-11-28T04:25:11Z</time>
      </trkpt>
      <trkpt lat="42.29769" lon="2.53513">
        <ele>395.3</ele>
        <time>2018-11-28T04:25:16Z</time>
      </trkpt>
      <trkpt lat="42.29777" lon="2.5351">
        <ele>395.7</ele>
        <time>2018-11-28T04:25:19Z</time>
      </trkpt>
      <trkpt lat="42.29778" lon="2.53511">
        <ele>395.7</ele>
        <time>2018-11-28T04:25:20Z</time>
      </trkpt>
      <trkpt lat="42.29782" lon="2.53505">
        <ele>395.3</ele>
        <time>2018-11-28T04:25:22Z</time>
      </trkpt>
      <trkpt lat="42.29784" lon="2.53498">
        <ele>395.7</ele>
        <time>2018-11-28T04:25:24Z</time>
      </trkpt>
      <trkpt lat="42.29793" lon="2.53495">
        <ele>396.3</ele>
        <time>2018-11-28T04:25:28Z</time>
      </trkpt>
      <trkpt lat="42.29803" lon="2.53492">
        <ele>396.3</ele>
        <time>2018-11-28T04:25:32Z</time>
      </trkpt>
      <trkpt lat="42.29809" lon="2.53491">
        <ele>397.6</ele>
        <time>2018-11-28T04:25:34Z</time>
      </trkpt>
      <trkpt lat="42.29811" lon="2.53491">
        <ele>397.6</ele>
        <time>2018-11-28T04:25:35Z</time>
      </trkpt>
      <trkpt lat="42.29816" lon="2.53489">
        <ele>398.1</ele>
        <time>2018-11-28T04:25:37Z</time>
      </trkpt>
      <trkpt lat="42.29821" lon="2.53489">
        <ele>397.6</ele>
        <time>2018-11-28T04:25:39Z</time>
      </trkpt>
      <trkpt lat="42.29824" lon="2.53488">
        <ele>398.2</ele>
        <time>2018-11-28T04:25:40Z</time>
      </trkpt>
      <trkpt lat="42.29837" lon="2.53488">
        <ele>398.1</ele>
        <time>2018-11-28T04:25:45Z</time>
      </trkpt>
      <trkpt lat="42.29855" lon="2.53489">
        <ele>400.1</ele>
        <time>2018-11-28T04:25:53Z</time>
      </trkpt>
      <trkpt lat="42.29872" lon="2.53492">
        <ele>401.5</ele>
        <time>2018-11-28T04:26:00Z</time>
      </trkpt>
      <trkpt lat="42.29883" lon="2.53488">
        <ele>402</ele>
        <time>2018-11-28T04:26:04Z</time>
      </trkpt>
      <trkpt lat="42.29888" lon="2.53483">
        <ele>402.1</ele>
        <time>2018-11-28T04:26:06Z</time>
      </trkpt>
      <trkpt lat="42.29898" lon="2.53473">
        <ele>402.4</ele>
        <time>2018-11-28T04:26:12Z</time>
      </trkpt>
      <trkpt lat="42.29913" lon="2.53451">
        <ele>404.4</ele>
        <time>2018-11-28T04:26:20Z</time>
      </trkpt>
      <trkpt lat="42.29945" lon="2.53425">
        <ele>405.8</ele>
        <time>2018-11-28T04:26:35Z</time>
      </trkpt>
      <trkpt lat="42.29961" lon="2.53398">
        <ele>407.4</ele>
        <time>2018-11-28T04:26:46Z</time>
      </trkpt>
      <trkpt lat="42.29974" lon="2.53386">
        <ele>407.7</ele>
        <time>2018-11-28T04:26:52Z</time>
      </trkpt>
      <trkpt lat="42.29995" lon="2.53367">
        <ele>406.8</ele>
        <time>2018-11-28T04:27:02Z</time>
      </trkpt>
      <trkpt lat="42.30012" lon="2.53354">
        <ele>406.9</ele>
        <time>2018-11-28T04:27:10Z</time>
      </trkpt>
      <trkpt lat="42.30012" lon="2.53352">
        <ele>406.3</ele>
        <time>2018-11-28T04:27:10Z</time>
      </trkpt>
      <trkpt lat="42.30033" lon="2.53334">
        <ele>406.4</ele>
        <time>2018-11-28T04:27:20Z</time>
      </trkpt>
      <trkpt lat="42.30061" lon="2.53325">
        <ele>404.4</ele>
        <time>2018-11-28T04:27:32Z</time>
      </trkpt>
      <trkpt lat="42.30065" lon="2.53308">
        <ele>406.3</ele>
        <time>2018-11-28T04:27:37Z</time>
      </trkpt>
      <trkpt lat="42.30089" lon="2.53289">
        <ele>406.8</ele>
        <time>2018-11-28T04:27:48Z</time>
      </trkpt>
      <trkpt lat="42.30106" lon="2.53274">
        <ele>407.8</ele>
        <time>2018-11-28T04:27:56Z</time>
      </trkpt>
      <trkpt lat="42.3012" lon="2.53256">
        <ele>407.8</ele>
        <time>2018-11-28T04:28:04Z</time>
      </trkpt>
      <trkpt lat="42.30135" lon="2.53246">
        <ele>409.2</ele>
        <time>2018-11-28T04:28:10Z</time>
      </trkpt>
      <trkpt lat="42.30145" lon="2.5324">
        <ele>408.8</ele>
        <time>2018-11-28T04:28:15Z</time>
      </trkpt>
      <trkpt lat="42.30169" lon="2.53231">
        <ele>412.1</ele>
        <time>2018-11-28T04:28:25Z</time>
      </trkpt>
      <trkpt lat="42.30186" lon="2.5323">
        <ele>414.5</ele>
        <time>2018-11-28T04:28:32Z</time>
      </trkpt>
      <trkpt lat="42.3019" lon="2.53229">
        <ele>415.4</ele>
        <time>2018-11-28T04:28:34Z</time>
      </trkpt>
      <trkpt lat="42.30202" lon="2.53225">
        <ele>418.4</ele>
        <time>2018-11-28T04:28:38Z</time>
      </trkpt>
      <trkpt lat="42.30206" lon="2.53221">
        <ele>418.8</ele>
        <time>2018-11-28T04:28:40Z</time>
      </trkpt>
      <trkpt lat="42.30213" lon="2.53213">
        <ele>420.7</ele>
        <time>2018-11-28T04:28:44Z</time>
      </trkpt>
      <trkpt lat="42.30219" lon="2.53211">
        <ele>421.7</ele>
        <time>2018-11-28T04:28:47Z</time>
      </trkpt>
      <trkpt lat="42.30233" lon="2.53203">
        <ele>422.2</ele>
        <time>2018-11-28T04:28:53Z</time>
      </trkpt>
      <trkpt lat="42.30241" lon="2.53201">
        <ele>423.2</ele>
        <time>2018-11-28T04:28:56Z</time>
      </trkpt>
      <trkpt lat="42.30246" lon="2.53199">
        <ele>422.6</ele>
        <time>2018-11-28T04:28:58Z</time>
      </trkpt>
      <trkpt lat="42.30252" lon="2.53196">
        <ele>423.2</ele>
        <time>2018-11-28T04:29:00Z</time>
      </trkpt>
      <trkpt lat="42.30266" lon="2.5318">
        <ele>422.6</ele>
        <time>2018-11-28T04:29:08Z</time>
      </trkpt>
      <trkpt lat="42.30276" lon="2.53168">
        <ele>422.6</ele>
        <time>2018-11-28T04:29:13Z</time>
      </trkpt>
      <trkpt lat="42.30286" lon="2.5316">
        <ele>422.6</ele>
        <time>2018-11-28T04:29:18Z</time>
      </trkpt>
      <trkpt lat="42.30288" lon="2.53156">
        <ele>422.7</ele>
        <time>2018-11-28T04:29:19Z</time>
      </trkpt>
      <trkpt lat="42.3029" lon="2.53154">
        <ele>422.3</ele>
        <time>2018-11-28T04:29:20Z</time>
      </trkpt>
      <trkpt lat="42.30292" lon="2.5315">
        <ele>422.3</ele>
        <time>2018-11-28T04:29:22Z</time>
      </trkpt>
      <trkpt lat="42.30295" lon="2.53145">
        <ele>421.7</ele>
        <time>2018-11-28T04:29:24Z</time>
      </trkpt>
      <trkpt lat="42.30307" lon="2.53122">
        <ele>420.2</ele>
        <time>2018-11-28T04:29:32Z</time>
      </trkpt>
      <trkpt lat="42.30314" lon="2.53117">
        <ele>419.3</ele>
        <time>2018-11-28T04:29:35Z</time>
      </trkpt>
      <trkpt lat="42.30319" lon="2.53112">
        <ele>419.8</ele>
        <time>2018-11-28T04:29:38Z</time>
      </trkpt>
      <trkpt lat="42.30326" lon="2.53093">
        <ele>418.9</ele>
        <time>2018-11-28T04:29:44Z</time>
      </trkpt>
      <trkpt lat="42.30338" lon="2.53079">
        <ele>417.4</ele>
        <time>2018-11-28T04:29:50Z</time>
      </trkpt>
      <trkpt lat="42.30341" lon="2.53077">
        <ele>416.4</ele>
        <time>2018-11-28T04:29:52Z</time>
      </trkpt>
      <trkpt lat="42.30363" lon="2.5307">
        <ele>417.8</ele>
        <time>2018-11-28T04:30:01Z</time>
      </trkpt>
      <trkpt lat="42.30374" lon="2.53059">
        <ele>416.9</ele>
        <time>2018-11-28T04:30:06Z</time>
      </trkpt>
      <trkpt lat="42.30379" lon="2.53054">
        <ele>413.6</ele>
        <time>2018-11-28T04:30:09Z</time>
      </trkpt>
      <trkpt lat="42.30382" lon="2.53039">
        <ele>414</ele>
        <time>2018-11-28T04:30:13Z</time>
      </trkpt>
      <trkpt lat="42.30377" lon="2.53026">
        <ele>420.7</ele>
        <time>2018-11-28T04:30:17Z</time>
      </trkpt>
      <trkpt lat="42.30372" lon="2.5301">
        <ele>424.1</ele>
        <time>2018-11-28T04:30:23Z</time>
      </trkpt>
      <trkpt lat="42.30364" lon="2.52981">
        <ele>426.6</ele>
        <time>2018-11-28T04:30:32Z</time>
      </trkpt>
      <trkpt lat="42.30364" lon="2.52967">
        <ele>428.5</ele>
        <time>2018-11-28T04:30:36Z</time>
      </trkpt>
      <trkpt lat="42.30368" lon="2.52948">
        <ele>431.9</ele>
        <time>2018-11-28T04:30:42Z</time>
      </trkpt>
      <trkpt lat="42.3037" lon="2.52929">
        <ele>435.2</ele>
        <time>2018-11-28T04:30:48Z</time>
      </trkpt>
      <trkpt lat="42.30367" lon="2.52908">
        <ele>438</ele>
        <time>2018-11-28T04:30:54Z</time>
      </trkpt>
      <trkpt lat="42.30367" lon="2.52891">
        <ele>442.3</ele>
        <time>2018-11-28T04:30:59Z</time>
      </trkpt>
      <trkpt lat="42.30367" lon="2.52873">
        <ele>443.3</ele>
        <time>2018-11-28T04:31:04Z</time>
      </trkpt>
      <trkpt lat="42.30369" lon="2.52857">
        <ele>443.8</ele>
        <time>2018-11-28T04:31:09Z</time>
      </trkpt>
      <trkpt lat="42.30363" lon="2.52848">
        <ele>442.3</ele>
        <time>2018-11-28T04:31:13Z</time>
      </trkpt>
      <trkpt lat="42.3036" lon="2.52846">
        <ele>440.5</ele>
        <time>2018-11-28T04:31:14Z</time>
      </trkpt>
      <trkpt lat="42.30358" lon="2.52838">
        <ele>440</ele>
        <time>2018-11-28T04:31:16Z</time>
      </trkpt>
      <trkpt lat="42.30355" lon="2.5283">
        <ele>435.6</ele>
        <time>2018-11-28T04:31:19Z</time>
      </trkpt>
      <trkpt lat="42.30355" lon="2.52821">
        <ele>435.6</ele>
        <time>2018-11-28T04:31:22Z</time>
      </trkpt>
      <trkpt lat="42.30351" lon="2.52817">
        <ele>432.3</ele>
        <time>2018-11-28T04:31:24Z</time>
      </trkpt>
      <trkpt lat="42.30341" lon="2.52798">
        <ele>431.3</ele>
        <time>2018-11-28T04:31:31Z</time>
      </trkpt>
      <trkpt lat="42.30333" lon="2.52775">
        <ele>434.2</ele>
        <time>2018-11-28T04:31:38Z</time>
      </trkpt>
      <trkpt lat="42.30332" lon="2.52761">
        <ele>438.1</ele>
        <time>2018-11-28T04:31:42Z</time>
      </trkpt>
      <trkpt lat="42.30331" lon="2.5276">
        <ele>438</ele>
        <time>2018-11-28T04:31:43Z</time>
      </trkpt>
      <trkpt lat="42.30331" lon="2.52758">
        <ele>439</ele>
        <time>2018-11-28T04:31:43Z</time>
      </trkpt>
      <trkpt lat="42.30327" lon="2.52741">
        <ele>442.8</ele>
        <time>2018-11-28T04:31:49Z</time>
      </trkpt>
      <trkpt lat="42.30333" lon="2.52715">
        <ele>445.8</ele>
        <time>2018-11-28T04:31:57Z</time>
      </trkpt>
      <trkpt lat="42.30341" lon="2.52707">
        <ele>449.2</ele>
        <time>2018-11-28T04:32:01Z</time>
      </trkpt>
      <trkpt lat="42.30344" lon="2.52705">
        <ele>452.1</ele>
        <time>2018-11-28T04:32:02Z</time>
      </trkpt>
      <trkpt lat="42.30361" lon="2.52688">
        <ele>455.3</ele>
        <time>2018-11-28T04:32:11Z</time>
      </trkpt>
      <trkpt lat="42.30374" lon="2.52683">
        <ele>458.2</ele>
        <time>2018-11-28T04:32:16Z</time>
      </trkpt>
      <trkpt lat="42.30377" lon="2.52679">
        <ele>459.6</ele>
        <time>2018-11-28T04:32:17Z</time>
      </trkpt>
      <trkpt lat="42.30384" lon="2.52676">
        <ele>463.6</ele>
        <time>2018-11-28T04:32:21Z</time>
      </trkpt>
      <trkpt lat="42.30386" lon="2.52676">
        <ele>467</ele>
        <time>2018-11-28T04:32:21Z</time>
      </trkpt>
      <trkpt lat="42.30391" lon="2.52681">
        <ele>470.2</ele>
        <time>2018-11-28T04:32:24Z</time>
      </trkpt>
      <trkpt lat="42.30395" lon="2.52689">
        <ele>474.5</ele>
        <time>2018-11-28T04:32:27Z</time>
      </trkpt>
      <trkpt lat="42.30395" lon="2.5269">
        <ele>474.5</ele>
        <time>2018-11-28T04:32:27Z</time>
      </trkpt>
      <trkpt lat="42.30395" lon="2.527">
        <ele>477.4</ele>
        <time>2018-11-28T04:32:30Z</time>
      </trkpt>
      <trkpt lat="42.30391" lon="2.52711">
        <ele>480.9</ele>
        <time>2018-11-28T04:32:34Z</time>
      </trkpt>
      <trkpt lat="42.30373" lon="2.52723">
        <ele>482.7</ele>
        <time>2018-11-28T04:32:42Z</time>
      </trkpt>
      <trkpt lat="42.30372" lon="2.52754">
        <ele>485.7</ele>
        <time>2018-11-28T04:32:51Z</time>
      </trkpt>
      <trkpt lat="42.30373" lon="2.5278">
        <ele>488</ele>
        <time>2018-11-28T04:32:58Z</time>
      </trkpt>
      <trkpt lat="42.30387" lon="2.52799">
        <ele>491.4</ele>
        <time>2018-11-28T04:33:06Z</time>
      </trkpt>
      <trkpt lat="42.30395" lon="2.52815">
        <ele>494.7</ele>
        <time>2018-11-28T04:33:12Z</time>
      </trkpt>
      <trkpt lat="42.30403" lon="2.5283">
        <ele>497.2</ele>
        <time>2018-11-28T04:33:17Z</time>
      </trkpt>
      <trkpt lat="42.30408" lon="2.52867">
        <ele>497.1</ele>
        <time>2018-11-28T04:33:29Z</time>
      </trkpt>
      <trkpt lat="42.30424" lon="2.52943">
        <ele>498.1</ele>
        <time>2018-11-28T04:33:52Z</time>
      </trkpt>
      <trkpt lat="42.30446" lon="2.52949">
        <ele>501.5</ele>
        <time>2018-11-28T04:34:01Z</time>
      </trkpt>
      <trkpt lat="42.30457" lon="2.52939">
        <ele>504.3</ele>
        <time>2018-11-28T04:34:06Z</time>
      </trkpt>
      <trkpt lat="42.30456" lon="2.52939">
        <ele>520.7</ele>
        <time>2018-11-28T04:34:06Z</time>
      </trkpt>
      <trkpt lat="42.30468" lon="2.5294">
        <ele>518.8</ele>
        <time>2018-11-28T04:34:11Z</time>
      </trkpt>
      <trkpt lat="42.30511" lon="2.52963">
        <ele>518.4</ele>
        <time>2018-11-28T04:34:29Z</time>
      </trkpt>
      <trkpt lat="42.30526" lon="2.52988">
        <ele>518.8</ele>
        <time>2018-11-28T04:34:39Z</time>
      </trkpt>
      <trkpt lat="42.30536" lon="2.52996">
        <ele>521.7</ele>
        <time>2018-11-28T04:34:44Z</time>
      </trkpt>
      <trkpt lat="42.30542" lon="2.52995">
        <ele>524.6</ele>
        <time>2018-11-28T04:34:46Z</time>
      </trkpt>
      <trkpt lat="42.30551" lon="2.53005">
        <ele>528</ele>
        <time>2018-11-28T04:34:51Z</time>
      </trkpt>
      <trkpt lat="42.30562" lon="2.53003">
        <ele>531.7</ele>
        <time>2018-11-28T04:34:55Z</time>
      </trkpt>
      <trkpt lat="42.30562" lon="2.53003">
        <ele>531.8</ele>
        <time>2018-11-28T04:34:55Z</time>
      </trkpt>
      <trkpt lat="42.30571" lon="2.53003">
        <ele>535.6</ele>
        <time>2018-11-28T04:34:59Z</time>
      </trkpt>
      <trkpt lat="42.30577" lon="2.53009">
        <ele>538.1</ele>
        <time>2018-11-28T04:35:02Z</time>
      </trkpt>
      <trkpt lat="42.30587" lon="2.5302">
        <ele>541.4</ele>
        <time>2018-11-28T04:35:07Z</time>
      </trkpt>
      <trkpt lat="42.30589" lon="2.53018">
        <ele>544.7</ele>
        <time>2018-11-28T04:35:08Z</time>
      </trkpt>
      <trkpt lat="42.3059" lon="2.53011">
        <ele>548.2</ele>
        <time>2018-11-28T04:35:10Z</time>
      </trkpt>
      <trkpt lat="42.30592" lon="2.53008">
        <ele>551</ele>
        <time>2018-11-28T04:35:11Z</time>
      </trkpt>
      <trkpt lat="42.30592" lon="2.53008">
        <ele>551.5</ele>
        <time>2018-11-28T04:35:11Z</time>
      </trkpt>
      <trkpt lat="42.30592" lon="2.53007">
        <ele>552.9</ele>
        <time>2018-11-28T04:35:12Z</time>
      </trkpt>
      <trkpt lat="42.30594" lon="2.53003">
        <ele>554.9</ele>
        <time>2018-11-28T04:35:13Z</time>
      </trkpt>
      <trkpt lat="42.30594" lon="2.53">
        <ele>559.1</ele>
        <time>2018-11-28T04:35:14Z</time>
      </trkpt>
      <trkpt lat="42.3058" lon="2.52981">
        <ele>563</ele>
        <time>2018-11-28T04:35:22Z</time>
      </trkpt>
      <trkpt lat="42.30574" lon="2.52971">
        <ele>564.9</ele>
        <time>2018-11-28T04:35:26Z</time>
      </trkpt>
      <trkpt lat="42.30569" lon="2.52964">
        <ele>568.3</ele>
        <time>2018-11-28T04:35:29Z</time>
      </trkpt>
      <trkpt lat="42.30557" lon="2.52954">
        <ele>569.8</ele>
        <time>2018-11-28T04:35:34Z</time>
      </trkpt>
      <trkpt lat="42.30551" lon="2.52949">
        <ele>573.1</ele>
        <time>2018-11-28T04:35:37Z</time>
      </trkpt>
      <trkpt lat="42.30525" lon="2.52921">
        <ele>575</ele>
        <time>2018-11-28T04:35:51Z</time>
      </trkpt>
      <trkpt lat="42.30509" lon="2.52895">
        <ele>577.9</ele>
        <time>2018-11-28T04:36:00Z</time>
      </trkpt>
      <trkpt lat="42.30496" lon="2.52875">
        <ele>581.3</ele>
        <time>2018-11-28T04:36:08Z</time>
      </trkpt>
      <trkpt lat="42.30495" lon="2.52867">
        <ele>580.9</ele>
        <time>2018-11-28T04:36:11Z</time>
      </trkpt>
      <trkpt lat="42.30492" lon="2.52853">
        <ele>580.3</ele>
        <time>2018-11-28T04:36:15Z</time>
      </trkpt>
      <trkpt lat="42.3049" lon="2.52835">
        <ele>581.3</ele>
        <time>2018-11-28T04:36:20Z</time>
      </trkpt>
      <trkpt lat="42.30488" lon="2.52822">
        <ele>581.8</ele>
        <time>2018-11-28T04:36:24Z</time>
      </trkpt>
      <trkpt lat="42.30489" lon="2.52818">
        <ele>583.3</ele>
        <time>2018-11-28T04:36:26Z</time>
      </trkpt>
      <trkpt lat="42.30484" lon="2.52799">
        <ele>586.2</ele>
        <time>2018-11-28T04:36:32Z</time>
      </trkpt>
      <trkpt lat="42.30483" lon="2.52791">
        <ele>587.1</ele>
        <time>2018-11-28T04:36:34Z</time>
      </trkpt>
      <trkpt lat="42.3048" lon="2.5276">
        <ele>583.2</ele>
        <time>2018-11-28T04:36:43Z</time>
      </trkpt>
      <trkpt lat="42.30481" lon="2.52757">
        <ele>583.2</ele>
        <time>2018-11-28T04:36:44Z</time>
      </trkpt>
      <trkpt lat="42.30481" lon="2.52754">
        <ele>581.3</ele>
        <time>2018-11-28T04:36:45Z</time>
      </trkpt>
      <trkpt lat="42.30487" lon="2.52742">
        <ele>579</ele>
        <time>2018-11-28T04:36:49Z</time>
      </trkpt>
      <trkpt lat="42.3049" lon="2.52736">
        <ele>575.5</ele>
        <time>2018-11-28T04:36:52Z</time>
      </trkpt>
      <trkpt lat="42.30493" lon="2.52729">
        <ele>572.7</ele>
        <time>2018-11-28T04:36:54Z</time>
      </trkpt>
      <trkpt lat="42.30495" lon="2.52718">
        <ele>569.2</ele>
        <time>2018-11-28T04:36:57Z</time>
      </trkpt>
      <trkpt lat="42.30498" lon="2.5271">
        <ele>566</ele>
        <time>2018-11-28T04:37:00Z</time>
      </trkpt>
      <trkpt lat="42.30499" lon="2.52697">
        <ele>562.6</ele>
        <time>2018-11-28T04:37:04Z</time>
      </trkpt>
      <trkpt lat="42.30496" lon="2.52695">
        <ele>559.1</ele>
        <time>2018-11-28T04:37:05Z</time>
      </trkpt>
      <trkpt lat="42.30495" lon="2.52693">
        <ele>557.8</ele>
        <time>2018-11-28T04:37:06Z</time>
      </trkpt>
      <trkpt lat="42.30494" lon="2.52682">
        <ele>554.3</ele>
        <time>2018-11-28T04:37:09Z</time>
      </trkpt>
      <trkpt lat="42.30495" lon="2.52679">
        <ele>552</ele>
        <time>2018-11-28T04:37:10Z</time>
      </trkpt>
      <trkpt lat="42.30508" lon="2.5266">
        <ele>550</ele>
        <time>2018-11-28T04:37:18Z</time>
      </trkpt>
      <trkpt lat="42.30508" lon="2.52659">
        <ele>549.5</ele>
        <time>2018-11-28T04:37:18Z</time>
      </trkpt>
      <trkpt lat="42.30507" lon="2.52656">
        <ele>547.1</ele>
        <time>2018-11-28T04:37:19Z</time>
      </trkpt>
      <trkpt lat="42.30509" lon="2.52651">
        <ele>544.2</ele>
        <time>2018-11-28T04:37:21Z</time>
      </trkpt>
      <trkpt lat="42.3051" lon="2.52648">
        <ele>542.4</ele>
        <time>2018-11-28T04:37:21Z</time>
      </trkpt>
      <trkpt lat="42.30513" lon="2.52641">
        <ele>539</ele>
        <time>2018-11-28T04:37:24Z</time>
      </trkpt>
      <trkpt lat="42.30519" lon="2.52632">
        <ele>535.2</ele>
        <time>2018-11-28T04:37:27Z</time>
      </trkpt>
      <trkpt lat="42.30517" lon="2.52627">
        <ele>532.8</ele>
        <time>2018-11-28T04:37:29Z</time>
      </trkpt>
      <trkpt lat="42.30513" lon="2.52612">
        <ele>529.3</ele>
        <time>2018-11-28T04:37:34Z</time>
      </trkpt>
      <trkpt lat="42.30515" lon="2.52609">
        <ele>526.1</ele>
        <time>2018-11-28T04:37:35Z</time>
      </trkpt>
      <trkpt lat="42.30515" lon="2.52609">
        <ele>526.1</ele>
        <time>2018-11-28T04:37:35Z</time>
      </trkpt>
      <trkpt lat="42.30518" lon="2.52603">
        <ele>523.1</ele>
        <time>2018-11-28T04:37:37Z</time>
      </trkpt>
      <trkpt lat="42.30519" lon="2.52598">
        <ele>519.7</ele>
        <time>2018-11-28T04:37:39Z</time>
      </trkpt>
      <trkpt lat="42.3052" lon="2.52598">
        <ele>520.7</ele>
        <time>2018-11-28T04:37:39Z</time>
      </trkpt>
      <trkpt lat="42.30523" lon="2.52593">
        <ele>517.3</ele>
        <time>2018-11-28T04:37:41Z</time>
      </trkpt>
      <trkpt lat="42.30526" lon="2.52589">
        <ele>514.5</ele>
        <time>2018-11-28T04:37:43Z</time>
      </trkpt>
      <trkpt lat="42.30528" lon="2.52581">
        <ele>511.1</ele>
        <time>2018-11-28T04:37:45Z</time>
      </trkpt>
      <trkpt lat="42.3053" lon="2.52575">
        <ele>508.2</ele>
        <time>2018-11-28T04:37:47Z</time>
      </trkpt>
      <trkpt lat="42.30533" lon="2.52556">
        <ele>504.9</ele>
        <time>2018-11-28T04:37:53Z</time>
      </trkpt>
      <trkpt lat="42.30532" lon="2.52553">
        <ele>502.5</ele>
        <time>2018-11-28T04:37:54Z</time>
      </trkpt>
      <trkpt lat="42.30537" lon="2.52545">
        <ele>498.6</ele>
        <time>2018-11-28T04:37:57Z</time>
      </trkpt>
      <trkpt lat="42.30538" lon="2.52533">
        <ele>495.3</ele>
        <time>2018-11-28T04:38:01Z</time>
      </trkpt>
      <trkpt lat="42.30543" lon="2.5252">
        <ele>491.5</ele>
        <time>2018-11-28T04:38:05Z</time>
      </trkpt>
      <trkpt lat="42.3054" lon="2.52506">
        <ele>490.5</ele>
        <time>2018-11-28T04:38:09Z</time>
      </trkpt>
      <trkpt lat="42.3055" lon="2.525">
        <ele>490.9</ele>
        <time>2018-11-28T04:38:13Z</time>
      </trkpt>
      <trkpt lat="42.30551" lon="2.52496">
        <ele>488.5</ele>
        <time>2018-11-28T04:38:15Z</time>
      </trkpt>
      <trkpt lat="42.30553" lon="2.52476">
        <ele>485.6</ele>
        <time>2018-11-28T04:38:21Z</time>
      </trkpt>
      <trkpt lat="42.30556" lon="2.52474">
        <ele>482.7</ele>
        <time>2018-11-28T04:38:22Z</time>
      </trkpt>
      <trkpt lat="42.30566" lon="2.5246">
        <ele>479.5</ele>
        <time>2018-11-28T04:38:28Z</time>
      </trkpt>
      <trkpt lat="42.30569" lon="2.52455">
        <ele>476.1</ele>
        <time>2018-11-28T04:38:29Z</time>
      </trkpt>
      <trkpt lat="42.30572" lon="2.52452">
        <ele>472.1</ele>
        <time>2018-11-28T04:38:31Z</time>
      </trkpt>
      <trkpt lat="42.30572" lon="2.52452">
        <ele>473.2</ele>
        <time>2018-11-28T04:38:31Z</time>
      </trkpt>
      <trkpt lat="42.30561" lon="2.52438">
        <ele>467.4</ele>
        <time>2018-11-28T04:38:37Z</time>
      </trkpt>
      <trkpt lat="42.30563" lon="2.52442">
        <ele>466.5</ele>
        <time>2018-11-28T04:38:39Z</time>
      </trkpt>
      <trkpt lat="42.30564" lon="2.52447">
        <ele>473.2</ele>
        <time>2018-11-28T04:38:40Z</time>
      </trkpt>
      <trkpt lat="42.30554" lon="2.52432">
        <ele>476.5</ele>
        <time>2018-11-28T04:38:46Z</time>
      </trkpt>
      <trkpt lat="42.30554" lon="2.52422">
        <ele>479.8</ele>
        <time>2018-11-28T04:38:49Z</time>
      </trkpt>
      <trkpt lat="42.30553" lon="2.52402">
        <ele>483.2</ele>
        <time>2018-11-28T04:38:55Z</time>
      </trkpt>
      <trkpt lat="42.30547" lon="2.52391">
        <ele>488.1</ele>
        <time>2018-11-28T04:38:59Z</time>
      </trkpt>
      <trkpt lat="42.30544" lon="2.52385">
        <ele>490</ele>
        <time>2018-11-28T04:39:01Z</time>
      </trkpt>
      <trkpt lat="42.30543" lon="2.52379">
        <ele>492</ele>
        <time>2018-11-28T04:39:03Z</time>
      </trkpt>
      <trkpt lat="42.30541" lon="2.52365">
        <ele>493.3</ele>
        <time>2018-11-28T04:39:08Z</time>
      </trkpt>
      <trkpt lat="42.30539" lon="2.5234">
        <ele>496.3</ele>
        <time>2018-11-28T04:39:15Z</time>
      </trkpt>
      <trkpt lat="42.30545" lon="2.5232">
        <ele>492.9</ele>
        <time>2018-11-28T04:39:21Z</time>
      </trkpt>
      <trkpt lat="42.30552" lon="2.52307">
        <ele>489.5</ele>
        <time>2018-11-28T04:39:26Z</time>
      </trkpt>
      <trkpt lat="42.30555" lon="2.52302">
        <ele>486.1</ele>
        <time>2018-11-28T04:39:28Z</time>
      </trkpt>
      <trkpt lat="42.30556" lon="2.52301">
        <ele>486.1</ele>
        <time>2018-11-28T04:39:28Z</time>
      </trkpt>
      <trkpt lat="42.30558" lon="2.52299">
        <ele>485.2</ele>
        <time>2018-11-28T04:39:29Z</time>
      </trkpt>
      <trkpt lat="42.30561" lon="2.5229">
        <ele>481.3</ele>
        <time>2018-11-28T04:39:32Z</time>
      </trkpt>
      <trkpt lat="42.30562" lon="2.52289">
        <ele>479.8</ele>
        <time>2018-11-28T04:39:33Z</time>
      </trkpt>
      <trkpt lat="42.30563" lon="2.52278">
        <ele>477</ele>
        <time>2018-11-28T04:39:36Z</time>
      </trkpt>
      <trkpt lat="42.30569" lon="2.52268">
        <ele>473.6</ele>
        <time>2018-11-28T04:39:40Z</time>
      </trkpt>
      <trkpt lat="42.30574" lon="2.52257">
        <ele>469.7</ele>
        <time>2018-11-28T04:39:44Z</time>
      </trkpt>
      <trkpt lat="42.30576" lon="2.52241">
        <ele>466.9</ele>
        <time>2018-11-28T04:39:49Z</time>
      </trkpt>
      <trkpt lat="42.30576" lon="2.52238">
        <ele>465.5</ele>
        <time>2018-11-28T04:39:50Z</time>
      </trkpt>
      <trkpt lat="42.30572" lon="2.52215">
        <ele>462.1</ele>
        <time>2018-11-28T04:39:56Z</time>
      </trkpt>
      <trkpt lat="42.30565" lon="2.52201">
        <ele>465</ele>
        <time>2018-11-28T04:40:02Z</time>
      </trkpt>
      <trkpt lat="42.3057" lon="2.5218">
        <ele>468.4</ele>
        <time>2018-11-28T04:40:09Z</time>
      </trkpt>
      <trkpt lat="42.30572" lon="2.52157">
        <ele>471.3</ele>
        <time>2018-11-28T04:40:15Z</time>
      </trkpt>
      <trkpt lat="42.30573" lon="2.52136">
        <ele>474.6</ele>
        <time>2018-11-28T04:40:22Z</time>
      </trkpt>
      <trkpt lat="42.30573" lon="2.52115">
        <ele>477.9</ele>
        <time>2018-11-28T04:40:28Z</time>
      </trkpt>
      <trkpt lat="42.30574" lon="2.52094">
        <ele>479.4</ele>
        <time>2018-11-28T04:40:34Z</time>
      </trkpt>
      <trkpt lat="42.30573" lon="2.52086">
        <ele>480.4</ele>
        <time>2018-11-28T04:40:36Z</time>
      </trkpt>
      <trkpt lat="42.30571" lon="2.52071">
        <ele>477.5</ele>
        <time>2018-11-28T04:40:41Z</time>
      </trkpt>
      <trkpt lat="42.30573" lon="2.52054">
        <ele>473.7</ele>
        <time>2018-11-28T04:40:46Z</time>
      </trkpt>
      <trkpt lat="42.30582" lon="2.5203">
        <ele>470.8</ele>
        <time>2018-11-28T04:40:54Z</time>
      </trkpt>
      <trkpt lat="42.30592" lon="2.52004">
        <ele>468.8</ele>
        <time>2018-11-28T04:41:03Z</time>
      </trkpt>
      <trkpt lat="42.30609" lon="2.51945">
        <ele>466.4</ele>
        <time>2018-11-28T04:41:21Z</time>
      </trkpt>
      <trkpt lat="42.30616" lon="2.51935">
        <ele>466.4</ele>
        <time>2018-11-28T04:41:26Z</time>
      </trkpt>
      <trkpt lat="42.30624" lon="2.51924">
        <ele>464.6</ele>
        <time>2018-11-28T04:41:30Z</time>
      </trkpt>
      <trkpt lat="42.30643" lon="2.51901">
        <ele>463.6</ele>
        <time>2018-11-28T04:41:40Z</time>
      </trkpt>
      <trkpt lat="42.30639" lon="2.51897">
        <ele>467.4</ele>
        <time>2018-11-28T04:41:42Z</time>
      </trkpt>
      <trkpt lat="42.30628" lon="2.51893">
        <ele>467.8</ele>
        <time>2018-11-28T04:41:47Z</time>
      </trkpt>
      <trkpt lat="42.30618" lon="2.51868">
        <ele>470.7</ele>
        <time>2018-11-28T04:41:55Z</time>
      </trkpt>
      <trkpt lat="42.30618" lon="2.51851">
        <ele>472.6</ele>
        <time>2018-11-28T04:42:01Z</time>
      </trkpt>
      <trkpt lat="42.30617" lon="2.51829">
        <ele>474.1</ele>
        <time>2018-11-28T04:42:07Z</time>
      </trkpt>
      <trkpt lat="42.30617" lon="2.51804">
        <ele>475.6</ele>
        <time>2018-11-28T04:42:14Z</time>
      </trkpt>
      <trkpt lat="42.30618" lon="2.51801">
        <ele>475.6</ele>
        <time>2018-11-28T04:42:15Z</time>
      </trkpt>
      <trkpt lat="42.30607" lon="2.51784">
        <ele>472.7</ele>
        <time>2018-11-28T04:42:22Z</time>
      </trkpt>
      <trkpt lat="42.30619" lon="2.51756">
        <ele>474.2</ele>
        <time>2018-11-28T04:42:32Z</time>
      </trkpt>
      <trkpt lat="42.30625" lon="2.51739">
        <ele>471.2</ele>
        <time>2018-11-28T04:42:37Z</time>
      </trkpt>
      <trkpt lat="42.30627" lon="2.51734">
        <ele>471.8</ele>
        <time>2018-11-28T04:42:39Z</time>
      </trkpt>
      <trkpt lat="42.30635" lon="2.51707">
        <ele>469.4</ele>
        <time>2018-11-28T04:42:48Z</time>
      </trkpt>
      <trkpt lat="42.30632" lon="2.51674">
        <ele>467.3</ele>
        <time>2018-11-28T04:42:57Z</time>
      </trkpt>
      <trkpt lat="42.3064" lon="2.51649">
        <ele>470.7</ele>
        <time>2018-11-28T04:43:05Z</time>
      </trkpt>
      <trkpt lat="42.30648" lon="2.51622">
        <ele>471.7</ele>
        <time>2018-11-28T04:43:14Z</time>
      </trkpt>
      <trkpt lat="42.30652" lon="2.51614">
        <ele>473.6</ele>
        <time>2018-11-28T04:43:17Z</time>
      </trkpt>
      <trkpt lat="42.30659" lon="2.51593">
        <ele>475</ele>
        <time>2018-11-28T04:43:24Z</time>
      </trkpt>
      <trkpt lat="42.3066" lon="2.5159">
        <ele>475.6</ele>
        <time>2018-11-28T04:43:25Z</time>
      </trkpt>
      <trkpt lat="42.3066" lon="2.51583">
        <ele>474.5</ele>
        <time>2018-11-28T04:43:27Z</time>
      </trkpt>
      <trkpt lat="42.30662" lon="2.51576">
        <ele>475.5</ele>
        <time>2018-11-28T04:43:29Z</time>
      </trkpt>
      <trkpt lat="42.30661" lon="2.51569">
        <ele>476.1</ele>
        <time>2018-11-28T04:43:31Z</time>
      </trkpt>
      <trkpt lat="42.30661" lon="2.51554">
        <ele>477.5</ele>
        <time>2018-11-28T04:43:35Z</time>
      </trkpt>
      <trkpt lat="42.30653" lon="2.51541">
        <ele>478.9</ele>
        <time>2018-11-28T04:43:40Z</time>
      </trkpt>
      <trkpt lat="42.30652" lon="2.5152">
        <ele>479.5</ele>
        <time>2018-11-28T04:43:47Z</time>
      </trkpt>
      <trkpt lat="42.30643" lon="2.5149">
        <ele>480.8</ele>
        <time>2018-11-28T04:43:56Z</time>
      </trkpt>
      <trkpt lat="42.30652" lon="2.51453">
        <ele>480.3</ele>
        <time>2018-11-28T04:44:08Z</time>
      </trkpt>
      <trkpt lat="42.30656" lon="2.51441">
        <ele>483.2</ele>
        <time>2018-11-28T04:44:12Z</time>
      </trkpt>
      <trkpt lat="42.30653" lon="2.51421">
        <ele>484.3</ele>
        <time>2018-11-28T04:44:18Z</time>
      </trkpt>
      <trkpt lat="42.30646" lon="2.51407">
        <ele>487.1</ele>
        <time>2018-11-28T04:44:23Z</time>
      </trkpt>
      <trkpt lat="42.30645" lon="2.51397">
        <ele>487.6</ele>
        <time>2018-11-28T04:44:26Z</time>
      </trkpt>
      <trkpt lat="42.30645" lon="2.51372">
        <ele>488.6</ele>
        <time>2018-11-28T04:44:33Z</time>
      </trkpt>
      <trkpt lat="42.30648" lon="2.51344">
        <ele>491.9</ele>
        <time>2018-11-28T04:44:42Z</time>
      </trkpt>
      <trkpt lat="42.30648" lon="2.5132">
        <ele>492.9</ele>
        <time>2018-11-28T04:44:49Z</time>
      </trkpt>
      <trkpt lat="42.30639" lon="2.51296">
        <ele>493.4</ele>
        <time>2018-11-28T04:44:57Z</time>
      </trkpt>
      <trkpt lat="42.30634" lon="2.51263">
        <ele>486.7</ele>
        <time>2018-11-28T04:45:07Z</time>
      </trkpt>
      <trkpt lat="42.30644" lon="2.51226">
        <ele>483.7</ele>
        <time>2018-11-28T04:45:18Z</time>
      </trkpt>
      <trkpt lat="42.30644" lon="2.51217">
        <ele>481.9</ele>
        <time>2018-11-28T04:45:21Z</time>
      </trkpt>
      <trkpt lat="42.30643" lon="2.51213">
        <ele>481.8</ele>
        <time>2018-11-28T04:45:22Z</time>
      </trkpt>
      <trkpt lat="42.30639" lon="2.51212">
        <ele>481.8</ele>
        <time>2018-11-28T04:45:24Z</time>
      </trkpt>
      <trkpt lat="42.30636" lon="2.51212">
        <ele>480.4</ele>
        <time>2018-11-28T04:45:25Z</time>
      </trkpt>
      <trkpt lat="42.30629" lon="2.51206">
        <ele>479.9</ele>
        <time>2018-11-28T04:45:28Z</time>
      </trkpt>
      <trkpt lat="42.30634" lon="2.51187">
        <ele>479</ele>
        <time>2018-11-28T04:45:34Z</time>
      </trkpt>
      <trkpt lat="42.30633" lon="2.51174">
        <ele>477.5</ele>
        <time>2018-11-28T04:45:38Z</time>
      </trkpt>
      <trkpt lat="42.30642" lon="2.51149">
        <ele>477.1</ele>
        <time>2018-11-28T04:45:46Z</time>
      </trkpt>
      <trkpt lat="42.30655" lon="2.51139">
        <ele>474.2</ele>
        <time>2018-11-28T04:45:52Z</time>
      </trkpt>
      <trkpt lat="42.30666" lon="2.51128">
        <ele>470.2</ele>
        <time>2018-11-28T04:45:58Z</time>
      </trkpt>
      <trkpt lat="42.30683" lon="2.51122">
        <ele>466.5</ele>
        <time>2018-11-28T04:46:04Z</time>
      </trkpt>
      <trkpt lat="42.30691" lon="2.51104">
        <ele>467.4</ele>
        <time>2018-11-28T04:46:11Z</time>
      </trkpt>
      <trkpt lat="42.3069" lon="2.51092">
        <ele>468.9</ele>
        <time>2018-11-28T04:46:15Z</time>
      </trkpt>
      <trkpt lat="42.30687" lon="2.51078">
        <ele>470.7</ele>
        <time>2018-11-28T04:46:19Z</time>
      </trkpt>
      <trkpt lat="42.30684" lon="2.51074">
        <ele>472.6</ele>
        <time>2018-11-28T04:46:20Z</time>
      </trkpt>
      <trkpt lat="42.30682" lon="2.5106">
        <ele>473.2</ele>
        <time>2018-11-28T04:46:25Z</time>
      </trkpt>
      <trkpt lat="42.30679" lon="2.5105">
        <ele>474.5</ele>
        <time>2018-11-28T04:46:28Z</time>
      </trkpt>
      <trkpt lat="42.30691" lon="2.51024">
        <ele>476.6</ele>
        <time>2018-11-28T04:46:37Z</time>
      </trkpt>
      <trkpt lat="42.30695" lon="2.5102">
        <ele>478</ele>
        <time>2018-11-28T04:46:39Z</time>
      </trkpt>
      <trkpt lat="42.30699" lon="2.51014">
        <ele>478.4</ele>
        <time>2018-11-28T04:46:41Z</time>
      </trkpt>
      <trkpt lat="42.30696" lon="2.51006">
        <ele>477.4</ele>
        <time>2018-11-28T04:46:44Z</time>
      </trkpt>
      <trkpt lat="42.30699" lon="2.5099">
        <ele>477.5</ele>
        <time>2018-11-28T04:46:49Z</time>
      </trkpt>
      <trkpt lat="42.30701" lon="2.5097">
        <ele>477.4</ele>
        <time>2018-11-28T04:46:55Z</time>
      </trkpt>
      <trkpt lat="42.30701" lon="2.50967">
        <ele>477</ele>
        <time>2018-11-28T04:46:56Z</time>
      </trkpt>
      <trkpt lat="42.30704" lon="2.50947">
        <ele>477</ele>
        <time>2018-11-28T04:47:02Z</time>
      </trkpt>
      <trkpt lat="42.30708" lon="2.50929">
        <ele>476.5</ele>
        <time>2018-11-28T04:47:07Z</time>
      </trkpt>
      <trkpt lat="42.30713" lon="2.50917">
        <ele>475</ele>
        <time>2018-11-28T04:47:12Z</time>
      </trkpt>
      <trkpt lat="42.30721" lon="2.50903">
        <ele>475.1</ele>
        <time>2018-11-28T04:47:17Z</time>
      </trkpt>
      <trkpt lat="42.30727" lon="2.50886">
        <ele>475.5</ele>
        <time>2018-11-28T04:47:22Z</time>
      </trkpt>
      <trkpt lat="42.30737" lon="2.50861">
        <ele>475.1</ele>
        <time>2018-11-28T04:47:31Z</time>
      </trkpt>
      <trkpt lat="42.3074" lon="2.50848">
        <ele>474.1</ele>
        <time>2018-11-28T04:47:35Z</time>
      </trkpt>
      <trkpt lat="42.30747" lon="2.50825">
        <ele>474.1</ele>
        <time>2018-11-28T04:47:42Z</time>
      </trkpt>
      <trkpt lat="42.30752" lon="2.50803">
        <ele>474.5</ele>
        <time>2018-11-28T04:47:49Z</time>
      </trkpt>
      <trkpt lat="42.30755" lon="2.50787">
        <ele>474.6</ele>
        <time>2018-11-28T04:47:54Z</time>
      </trkpt>
      <trkpt lat="42.30758" lon="2.50785">
        <ele>475.6</ele>
        <time>2018-11-28T04:47:55Z</time>
      </trkpt>
      <trkpt lat="42.30769" lon="2.50767">
        <ele>474.5</ele>
        <time>2018-11-28T04:48:02Z</time>
      </trkpt>
      <trkpt lat="42.30769" lon="2.50766">
        <ele>474.6</ele>
        <time>2018-11-28T04:48:02Z</time>
      </trkpt>
      <trkpt lat="42.3077" lon="2.50758">
        <ele>473.6</ele>
        <time>2018-11-28T04:48:04Z</time>
      </trkpt>
      <trkpt lat="42.30769" lon="2.50754">
        <ele>473.1</ele>
        <time>2018-11-28T04:48:06Z</time>
      </trkpt>
      <trkpt lat="42.30766" lon="2.50748">
        <ele>471.8</ele>
        <time>2018-11-28T04:48:08Z</time>
      </trkpt>
      <trkpt lat="42.30759" lon="2.50743">
        <ele>469.8</ele>
        <time>2018-11-28T04:48:11Z</time>
      </trkpt>
      <trkpt lat="42.30753" lon="2.50741">
        <ele>469.4</ele>
        <time>2018-11-28T04:48:14Z</time>
      </trkpt>
      <trkpt lat="42.30747" lon="2.50733">
        <ele>467.9</ele>
        <time>2018-11-28T04:48:17Z</time>
      </trkpt>
      <trkpt lat="42.30751" lon="2.50727">
        <ele>466.4</ele>
        <time>2018-11-28T04:48:19Z</time>
      </trkpt>
      <trkpt lat="42.30762" lon="2.50729">
        <ele>463.1</ele>
        <time>2018-11-28T04:48:24Z</time>
      </trkpt>
      <trkpt lat="42.3076" lon="2.50716">
        <ele>464.5</ele>
        <time>2018-11-28T04:48:27Z</time>
      </trkpt>
      <trkpt lat="42.30759" lon="2.50706">
        <ele>465</ele>
        <time>2018-11-28T04:48:30Z</time>
      </trkpt>
      <trkpt lat="42.30758" lon="2.50701">
        <ele>464.9</ele>
        <time>2018-11-28T04:48:32Z</time>
      </trkpt>
      <trkpt lat="42.30756" lon="2.50696">
        <ele>464</ele>
        <time>2018-11-28T04:48:34Z</time>
      </trkpt>
      <trkpt lat="42.3076" lon="2.50682">
        <ele>464.5</ele>
        <time>2018-11-28T04:48:38Z</time>
      </trkpt>
      <trkpt lat="42.30761" lon="2.50669">
        <ele>463</ele>
        <time>2018-11-28T04:48:42Z</time>
      </trkpt>
      <trkpt lat="42.3075" lon="2.50672">
        <ele>458.3</ele>
        <time>2018-11-28T04:48:46Z</time>
      </trkpt>
      <trkpt lat="42.3075" lon="2.50672">
        <ele>463.1</ele>
        <time>2018-11-28T04:48:46Z</time>
      </trkpt>
      <trkpt lat="42.3075" lon="2.50673">
        <ele>461.2</ele>
        <time>2018-11-28T04:48:47Z</time>
      </trkpt>
      <trkpt lat="42.30745" lon="2.50679">
        <ele>453.9</ele>
        <time>2018-11-28T04:48:49Z</time>
      </trkpt>
      <trkpt lat="42.3074" lon="2.50684">
        <ele>453.3</ele>
        <time>2018-11-28T04:48:52Z</time>
      </trkpt>
      <trkpt lat="42.30732" lon="2.50687">
        <ele>452.1</ele>
        <time>2018-11-28T04:48:55Z</time>
      </trkpt>
      <trkpt lat="42.30726" lon="2.50683">
        <ele>450.8</ele>
        <time>2018-11-28T04:48:58Z</time>
      </trkpt>
      <trkpt lat="42.30722" lon="2.50676">
        <ele>449.7</ele>
        <time>2018-11-28T04:49:00Z</time>
      </trkpt>
      <trkpt lat="42.30723" lon="2.50664">
        <ele>449.1</ele>
        <time>2018-11-28T04:49:04Z</time>
      </trkpt>
      <trkpt lat="42.30724" lon="2.50653">
        <ele>448.7</ele>
        <time>2018-11-28T04:49:07Z</time>
      </trkpt>
      <trkpt lat="42.30724" lon="2.50641">
        <ele>448.1</ele>
        <time>2018-11-28T04:49:11Z</time>
      </trkpt>
      <trkpt lat="42.30724" lon="2.50629">
        <ele>447.7</ele>
        <time>2018-11-28T04:49:14Z</time>
      </trkpt>
      <trkpt lat="42.30724" lon="2.50616">
        <ele>447.4</ele>
        <time>2018-11-28T04:49:18Z</time>
      </trkpt>
      <trkpt lat="42.30723" lon="2.50604">
        <ele>447</ele>
        <time>2018-11-28T04:49:21Z</time>
      </trkpt>
      <trkpt lat="42.30723" lon="2.50593">
        <ele>446.8</ele>
        <time>2018-11-28T04:49:25Z</time>
      </trkpt>
      <trkpt lat="42.30723" lon="2.50594">
        <ele>454.1</ele>
        <time>2018-11-28T04:49:25Z</time>
      </trkpt>
      <trkpt lat="42.30723" lon="2.50595">
        <ele>454.7</ele>
        <time>2018-11-28T04:49:26Z</time>
      </trkpt>
      <trkpt lat="42.30724" lon="2.50593">
        <ele>454.6</ele>
        <time>2018-11-28T04:49:27Z</time>
      </trkpt>
      <trkpt lat="42.30726" lon="2.50588">
        <ele>454.6</ele>
        <time>2018-11-28T04:49:28Z</time>
      </trkpt>
      <trkpt lat="42.30732" lon="2.50564">
        <ele>455.2</ele>
        <time>2018-11-28T04:49:36Z</time>
      </trkpt>
      <trkpt lat="42.30735" lon="2.50532">
        <ele>455.7</ele>
        <time>2018-11-28T04:49:45Z</time>
      </trkpt>
      <trkpt lat="42.30737" lon="2.50527">
        <ele>455.8</ele>
        <time>2018-11-28T04:49:47Z</time>
      </trkpt>
      <trkpt lat="42.30736" lon="2.50522">
        <ele>455.7</ele>
        <time>2018-11-28T04:49:48Z</time>
      </trkpt>
      <trkpt lat="42.30738" lon="2.50518">
        <ele>455.7</ele>
        <time>2018-11-28T04:49:50Z</time>
      </trkpt>
      <trkpt lat="42.30738" lon="2.50512">
        <ele>455.7</ele>
        <time>2018-11-28T04:49:52Z</time>
      </trkpt>
      <trkpt lat="42.30744" lon="2.50491">
        <ele>456.2</ele>
        <time>2018-11-28T04:49:58Z</time>
      </trkpt>
      <trkpt lat="42.30753" lon="2.50475">
        <ele>456.7</ele>
        <time>2018-11-28T04:50:04Z</time>
      </trkpt>
      <trkpt lat="42.30772" lon="2.50463">
        <ele>458.8</ele>
        <time>2018-11-28T04:50:12Z</time>
      </trkpt>
      <trkpt lat="42.30774" lon="2.50458">
        <ele>459.1</ele>
        <time>2018-11-28T04:50:14Z</time>
      </trkpt>
      <trkpt lat="42.30776" lon="2.50452">
        <ele>459.3</ele>
        <time>2018-11-28T04:50:16Z</time>
      </trkpt>
      <trkpt lat="42.30776" lon="2.50446">
        <ele>459.4</ele>
        <time>2018-11-28T04:50:18Z</time>
      </trkpt>
      <trkpt lat="42.30774" lon="2.50433">
        <ele>459.5</ele>
        <time>2018-11-28T04:50:22Z</time>
      </trkpt>
      <trkpt lat="42.30774" lon="2.50432">
        <ele>459.6</ele>
        <time>2018-11-28T04:50:22Z</time>
      </trkpt>
      <trkpt lat="42.30777" lon="2.50415">
        <ele>459.3</ele>
        <time>2018-11-28T04:50:27Z</time>
      </trkpt>
      <trkpt lat="42.30781" lon="2.50405">
        <ele>459.7</ele>
        <time>2018-11-28T04:50:31Z</time>
      </trkpt>
      <trkpt lat="42.30783" lon="2.50397">
        <ele>459.7</ele>
        <time>2018-11-28T04:50:33Z</time>
      </trkpt>
      <trkpt lat="42.30785" lon="2.50392">
        <ele>459.7</ele>
        <time>2018-11-28T04:50:35Z</time>
      </trkpt>
      <trkpt lat="42.30785" lon="2.50384">
        <ele>459.9</ele>
        <time>2018-11-28T04:50:37Z</time>
      </trkpt>
      <trkpt lat="42.30788" lon="2.50378">
        <ele>460</ele>
        <time>2018-11-28T04:50:39Z</time>
      </trkpt>
      <trkpt lat="42.30789" lon="2.50365">
        <ele>459.9</ele>
        <time>2018-11-28T04:50:43Z</time>
      </trkpt>
      <trkpt lat="42.30788" lon="2.50363">
        <ele>460.1</ele>
        <time>2018-11-28T04:50:44Z</time>
      </trkpt>
      <trkpt lat="42.30788" lon="2.50359">
        <ele>460.2</ele>
        <time>2018-11-28T04:50:45Z</time>
      </trkpt>
      <trkpt lat="42.30787" lon="2.50346">
        <ele>460.6</ele>
        <time>2018-11-28T04:50:49Z</time>
      </trkpt>
      <trkpt lat="42.30788" lon="2.50336">
        <ele>460.6</ele>
        <time>2018-11-28T04:50:52Z</time>
      </trkpt>
      <trkpt lat="42.30787" lon="2.50334">
        <ele>460.5</ele>
        <time>2018-11-28T04:50:52Z</time>
      </trkpt>
      <trkpt lat="42.30788" lon="2.50324">
        <ele>460.5</ele>
        <time>2018-11-28T04:50:55Z</time>
      </trkpt>
      <trkpt lat="42.30791" lon="2.50315">
        <ele>460.3</ele>
        <time>2018-11-28T04:50:58Z</time>
      </trkpt>
      <trkpt lat="42.30792" lon="2.50312">
        <ele>460.3</ele>
        <time>2018-11-28T04:50:59Z</time>
      </trkpt>
      <trkpt lat="42.30793" lon="2.50307">
        <ele>460.8</ele>
        <time>2018-11-28T04:51:01Z</time>
      </trkpt>
      <trkpt lat="42.30791" lon="2.50302">
        <ele>460.8</ele>
        <time>2018-11-28T04:51:03Z</time>
      </trkpt>
      <trkpt lat="42.30792" lon="2.50294">
        <ele>460.8</ele>
        <time>2018-11-28T04:51:05Z</time>
      </trkpt>
      <trkpt lat="42.30792" lon="2.50285">
        <ele>461.1</ele>
        <time>2018-11-28T04:51:08Z</time>
      </trkpt>
      <trkpt lat="42.30793" lon="2.50283">
        <ele>461</ele>
        <time>2018-11-28T04:51:08Z</time>
      </trkpt>
      <trkpt lat="42.30795" lon="2.50278">
        <ele>460.9</ele>
        <time>2018-11-28T04:51:10Z</time>
      </trkpt>
      <trkpt lat="42.30793" lon="2.50273">
        <ele>460.8</ele>
        <time>2018-11-28T04:51:11Z</time>
      </trkpt>
      <trkpt lat="42.30795" lon="2.50256">
        <ele>461.1</ele>
        <time>2018-11-28T04:51:17Z</time>
      </trkpt>
      <trkpt lat="42.30794" lon="2.50247">
        <ele>461.3</ele>
        <time>2018-11-28T04:51:19Z</time>
      </trkpt>
      <trkpt lat="42.30796" lon="2.50245">
        <ele>461.3</ele>
        <time>2018-11-28T04:51:20Z</time>
      </trkpt>
      <trkpt lat="42.30798" lon="2.50241">
        <ele>461.2</ele>
        <time>2018-11-28T04:51:21Z</time>
      </trkpt>
      <trkpt lat="42.30798" lon="2.50233">
        <ele>461.3</ele>
        <time>2018-11-28T04:51:24Z</time>
      </trkpt>
      <trkpt lat="42.30799" lon="2.5023">
        <ele>461.4</ele>
        <time>2018-11-28T04:51:25Z</time>
      </trkpt>
      <trkpt lat="42.30799" lon="2.50228">
        <ele>461.2</ele>
        <time>2018-11-28T04:51:26Z</time>
      </trkpt>
      <trkpt lat="42.30802" lon="2.50221">
        <ele>461.3</ele>
        <time>2018-11-28T04:51:28Z</time>
      </trkpt>
      <trkpt lat="42.30801" lon="2.50218">
        <ele>461.4</ele>
        <time>2018-11-28T04:51:29Z</time>
      </trkpt>
      <trkpt lat="42.30803" lon="2.50214">
        <ele>461.2</ele>
        <time>2018-11-28T04:51:30Z</time>
      </trkpt>
      <trkpt lat="42.30805" lon="2.50211">
        <ele>461.5</ele>
        <time>2018-11-28T04:51:31Z</time>
      </trkpt>
      <trkpt lat="42.30806" lon="2.50207">
        <ele>461.5</ele>
        <time>2018-11-28T04:51:32Z</time>
      </trkpt>
      <trkpt lat="42.30806" lon="2.50204">
        <ele>461.6</ele>
        <time>2018-11-28T04:51:33Z</time>
      </trkpt>
      <trkpt lat="42.30804" lon="2.502">
        <ele>461.8</ele>
        <time>2018-11-28T04:51:35Z</time>
      </trkpt>
      <trkpt lat="42.30804" lon="2.5019">
        <ele>461.8</ele>
        <time>2018-11-28T04:51:38Z</time>
      </trkpt>
      <trkpt lat="42.30806" lon="2.50187">
        <ele>461.8</ele>
        <time>2018-11-28T04:51:39Z</time>
      </trkpt>
      <trkpt lat="42.30807" lon="2.50182">
        <ele>461.7</ele>
        <time>2018-11-28T04:51:40Z</time>
      </trkpt>
      <trkpt lat="42.30807" lon="2.50178">
        <ele>461.7</ele>
        <time>2018-11-28T04:51:42Z</time>
      </trkpt>
      <trkpt lat="42.30808" lon="2.50172">
        <ele>461.6</ele>
        <time>2018-11-28T04:51:44Z</time>
      </trkpt>
      <trkpt lat="42.30809" lon="2.50169">
        <ele>461.7</ele>
        <time>2018-11-28T04:51:45Z</time>
      </trkpt>
      <trkpt lat="42.3081" lon="2.50154">
        <ele>461.3</ele>
        <time>2018-11-28T04:51:49Z</time>
      </trkpt>
      <trkpt lat="42.3081" lon="2.50153">
        <ele>461.3</ele>
        <time>2018-11-28T04:51:49Z</time>
      </trkpt>
      <trkpt lat="42.30811" lon="2.50146">
        <ele>461.3</ele>
        <time>2018-11-28T04:51:51Z</time>
      </trkpt>
      <trkpt lat="42.30811" lon="2.50143">
        <ele>461.2</ele>
        <time>2018-11-28T04:51:52Z</time>
      </trkpt>
      <trkpt lat="42.30811" lon="2.50132">
        <ele>461.2</ele>
        <time>2018-11-28T04:51:55Z</time>
      </trkpt>
      <trkpt lat="42.3081" lon="2.50122">
        <ele>461.3</ele>
        <time>2018-11-28T04:51:59Z</time>
      </trkpt>
      <trkpt lat="42.30811" lon="2.50117">
        <ele>461.3</ele>
        <time>2018-11-28T04:52:00Z</time>
      </trkpt>
      <trkpt lat="42.30811" lon="2.50106">
        <ele>461.2</ele>
        <time>2018-11-28T04:52:03Z</time>
      </trkpt>
      <trkpt lat="42.30814" lon="2.50088">
        <ele>461.1</ele>
        <time>2018-11-28T04:52:09Z</time>
      </trkpt>
      <trkpt lat="42.30815" lon="2.50086">
        <ele>461.2</ele>
        <time>2018-11-28T04:52:10Z</time>
      </trkpt>
      <trkpt lat="42.30816" lon="2.50081">
        <ele>461.2</ele>
        <time>2018-11-28T04:52:11Z</time>
      </trkpt>
      <trkpt lat="42.30815" lon="2.50078">
        <ele>461.1</ele>
        <time>2018-11-28T04:52:12Z</time>
      </trkpt>
      <trkpt lat="42.30816" lon="2.50071">
        <ele>460.9</ele>
        <time>2018-11-28T04:52:14Z</time>
      </trkpt>
      <trkpt lat="42.30818" lon="2.50068">
        <ele>460.7</ele>
        <time>2018-11-28T04:52:15Z</time>
      </trkpt>
      <trkpt lat="42.30825" lon="2.50046">
        <ele>461.3</ele>
        <time>2018-11-28T04:52:22Z</time>
      </trkpt>
      <trkpt lat="42.30826" lon="2.50044">
        <ele>461.2</ele>
        <time>2018-11-28T04:52:23Z</time>
      </trkpt>
      <trkpt lat="42.30833" lon="2.50018">
        <ele>463.2</ele>
        <time>2018-11-28T04:52:31Z</time>
      </trkpt>
      <trkpt lat="42.30833" lon="2.50017">
        <ele>463.3</ele>
        <time>2018-11-28T04:52:32Z</time>
      </trkpt>
      <trkpt lat="42.30841" lon="2.49995">
        <ele>463.3</ele>
        <time>2018-11-28T04:52:39Z</time>
      </trkpt>
      <trkpt lat="42.30842" lon="2.49977">
        <ele>463.5</ele>
        <time>2018-11-28T04:52:44Z</time>
      </trkpt>
      <trkpt lat="42.3084" lon="2.49936">
        <ele>463.2</ele>
        <time>2018-11-28T04:52:56Z</time>
      </trkpt>
      <trkpt lat="42.30844" lon="2.49919">
        <ele>464.2</ele>
        <time>2018-11-28T04:53:02Z</time>
      </trkpt>
      <trkpt lat="42.30855" lon="2.4989">
        <ele>466.2</ele>
        <time>2018-11-28T04:53:11Z</time>
      </trkpt>
      <trkpt lat="42.30857" lon="2.49886">
        <ele>466.1</ele>
        <time>2018-11-28T04:53:13Z</time>
      </trkpt>
      <trkpt lat="42.30858" lon="2.49883">
        <ele>465.6</ele>
        <time>2018-11-28T04:53:14Z</time>
      </trkpt>
      <trkpt lat="42.30869" lon="2.49864">
        <ele>467.3</ele>
        <time>2018-11-28T04:53:21Z</time>
      </trkpt>
      <trkpt lat="42.3087" lon="2.49859">
        <ele>467.5</ele>
        <time>2018-11-28T04:53:22Z</time>
      </trkpt>
      <trkpt lat="42.30875" lon="2.49819">
        <ele>467.2</ele>
        <time>2018-11-28T04:53:34Z</time>
      </trkpt>
      <trkpt lat="42.30876" lon="2.49818">
        <ele>466.8</ele>
        <time>2018-11-28T04:53:35Z</time>
      </trkpt>
      <trkpt lat="42.30876" lon="2.49805">
        <ele>466.8</ele>
        <time>2018-11-28T04:53:39Z</time>
      </trkpt>
      <trkpt lat="42.30875" lon="2.49802">
        <ele>466.8</ele>
        <time>2018-11-28T04:53:40Z</time>
      </trkpt>
      <trkpt lat="42.30876" lon="2.49802">
        <ele>466.5</ele>
        <time>2018-11-28T04:53:40Z</time>
      </trkpt>
      <trkpt lat="42.30876" lon="2.49802">
        <ele>466.2</ele>
        <time>2018-11-28T04:53:40Z</time>
      </trkpt>
      <trkpt lat="42.30876" lon="2.49798">
        <ele>466.6</ele>
        <time>2018-11-28T04:53:41Z</time>
      </trkpt>
      <trkpt lat="42.30875" lon="2.49794">
        <ele>466.7</ele>
        <time>2018-11-28T04:53:43Z</time>
      </trkpt>
      <trkpt lat="42.30875" lon="2.49792">
        <ele>466.7</ele>
        <time>2018-11-28T04:53:43Z</time>
      </trkpt>
      <trkpt lat="42.30872" lon="2.49778">
        <ele>466</ele>
        <time>2018-11-28T04:53:48Z</time>
      </trkpt>
      <trkpt lat="42.30872" lon="2.49777">
        <ele>466.2</ele>
        <time>2018-11-28T04:53:48Z</time>
      </trkpt>
      <trkpt lat="42.30867" lon="2.49763">
        <ele>466.3</ele>
        <time>2018-11-28T04:53:52Z</time>
      </trkpt>
      <trkpt lat="42.30865" lon="2.49762">
        <ele>466.4</ele>
        <time>2018-11-28T04:53:53Z</time>
      </trkpt>
      <trkpt lat="42.30864" lon="2.49758">
        <ele>466.8</ele>
        <time>2018-11-28T04:53:54Z</time>
      </trkpt>
      <trkpt lat="42.30863" lon="2.49756">
        <ele>467.1</ele>
        <time>2018-11-28T04:53:55Z</time>
      </trkpt>
      <trkpt lat="42.30861" lon="2.49752">
        <ele>467.2</ele>
        <time>2018-11-28T04:53:57Z</time>
      </trkpt>
      <trkpt lat="42.30861" lon="2.49746">
        <ele>467.1</ele>
        <time>2018-11-28T04:53:58Z</time>
      </trkpt>
      <trkpt lat="42.30861" lon="2.4974">
        <ele>467</ele>
        <time>2018-11-28T04:54:00Z</time>
      </trkpt>
      <trkpt lat="42.30859" lon="2.4973">
        <ele>467.2</ele>
        <time>2018-11-28T04:54:03Z</time>
      </trkpt>
      <trkpt lat="42.30859" lon="2.49726">
        <ele>467</ele>
        <time>2018-11-28T04:54:04Z</time>
      </trkpt>
      <trkpt lat="42.3086" lon="2.49724">
        <ele>467.2</ele>
        <time>2018-11-28T04:54:05Z</time>
      </trkpt>
      <trkpt lat="42.30862" lon="2.49719">
        <ele>467.2</ele>
        <time>2018-11-28T04:54:07Z</time>
      </trkpt>
      <trkpt lat="42.30862" lon="2.49718">
        <ele>467.1</ele>
        <time>2018-11-28T04:54:07Z</time>
      </trkpt>
      <trkpt lat="42.30864" lon="2.49712">
        <ele>467.3</ele>
        <time>2018-11-28T04:54:09Z</time>
      </trkpt>
      <trkpt lat="42.30864" lon="2.49709">
        <ele>467.4</ele>
        <time>2018-11-28T04:54:10Z</time>
      </trkpt>
      <trkpt lat="42.30863" lon="2.49706">
        <ele>467.4</ele>
        <time>2018-11-28T04:54:11Z</time>
      </trkpt>
      <trkpt lat="42.30864" lon="2.49703">
        <ele>467.2</ele>
        <time>2018-11-28T04:54:12Z</time>
      </trkpt>
      <trkpt lat="42.30864" lon="2.49698">
        <ele>467.1</ele>
        <time>2018-11-28T04:54:13Z</time>
      </trkpt>
      <trkpt lat="42.30864" lon="2.49696">
        <ele>467</ele>
        <time>2018-11-28T04:54:14Z</time>
      </trkpt>
      <trkpt lat="42.30864" lon="2.49691">
        <ele>466.7</ele>
        <time>2018-11-28T04:54:15Z</time>
      </trkpt>
      <trkpt lat="42.30866" lon="2.49684">
        <ele>466.8</ele>
        <time>2018-11-28T04:54:18Z</time>
      </trkpt>
      <trkpt lat="42.30866" lon="2.4968">
        <ele>467.1</ele>
        <time>2018-11-28T04:54:19Z</time>
      </trkpt>
      <trkpt lat="42.30868" lon="2.49675">
        <ele>467.3</ele>
        <time>2018-11-28T04:54:21Z</time>
      </trkpt>
      <trkpt lat="42.30868" lon="2.49673">
        <ele>467.6</ele>
        <time>2018-11-28T04:54:21Z</time>
      </trkpt>
      <trkpt lat="42.30871" lon="2.4967">
        <ele>467.6</ele>
        <time>2018-11-28T04:54:22Z</time>
      </trkpt>
      <trkpt lat="42.30875" lon="2.49668">
        <ele>467.3</ele>
        <time>2018-11-28T04:54:25Z</time>
      </trkpt>
      <trkpt lat="42.3088" lon="2.49667">
        <ele>467.1</ele>
        <time>2018-11-28T04:54:26Z</time>
      </trkpt>
      <trkpt lat="42.30882" lon="2.49666">
        <ele>467.2</ele>
        <time>2018-11-28T04:54:27Z</time>
      </trkpt>
      <trkpt lat="42.30889" lon="2.49667">
        <ele>467.2</ele>
        <time>2018-11-28T04:54:30Z</time>
      </trkpt>
      <trkpt lat="42.30896" lon="2.49666">
        <ele>467.1</ele>
        <time>2018-11-28T04:54:33Z</time>
      </trkpt>
      <trkpt lat="42.30898" lon="2.49666">
        <ele>467</ele>
        <time>2018-11-28T04:54:34Z</time>
      </trkpt>
      <trkpt lat="42.30901" lon="2.49663">
        <ele>467</ele>
        <time>2018-11-28T04:54:35Z</time>
      </trkpt>
      <trkpt lat="42.30903" lon="2.4966">
        <ele>467.2</ele>
        <time>2018-11-28T04:54:36Z</time>
      </trkpt>
      <trkpt lat="42.30903" lon="2.49658">
        <ele>467.1</ele>
        <time>2018-11-28T04:54:37Z</time>
      </trkpt>
      <trkpt lat="42.30902" lon="2.49651">
        <ele>466.7</ele>
        <time>2018-11-28T04:54:39Z</time>
      </trkpt>
      <trkpt lat="42.309" lon="2.49648">
        <ele>466.7</ele>
        <time>2018-11-28T04:54:40Z</time>
      </trkpt>
      <trkpt lat="42.30896" lon="2.4964">
        <ele>467</ele>
        <time>2018-11-28T04:54:43Z</time>
      </trkpt>
      <trkpt lat="42.30889" lon="2.49615">
        <ele>468</ele>
        <time>2018-11-28T04:54:51Z</time>
      </trkpt>
      <trkpt lat="42.30884" lon="2.49579">
        <ele>469.3</ele>
        <time>2018-11-28T04:55:02Z</time>
      </trkpt>
      <trkpt lat="42.30885" lon="2.49557">
        <ele>470</ele>
        <time>2018-11-28T04:55:08Z</time>
      </trkpt>
      <trkpt lat="42.30884" lon="2.4955">
        <ele>470.5</ele>
        <time>2018-11-28T04:55:11Z</time>
      </trkpt>
      <trkpt lat="42.30883" lon="2.49465">
        <ele>473.4</ele>
        <time>2018-11-28T04:55:36Z</time>
      </trkpt>
      <trkpt lat="42.30865" lon="2.49405">
        <ele>475.8</ele>
        <time>2018-11-28T04:55:55Z</time>
      </trkpt>
      <trkpt lat="42.30863" lon="2.49384">
        <ele>475.6</ele>
        <time>2018-11-28T04:56:01Z</time>
      </trkpt>
      <trkpt lat="42.30862" lon="2.4938">
        <ele>476.7</ele>
        <time>2018-11-28T04:56:02Z</time>
      </trkpt>
      <trkpt lat="42.30861" lon="2.49379">
        <ele>477.3</ele>
        <time>2018-11-28T04:56:03Z</time>
      </trkpt>
      <trkpt lat="42.3086" lon="2.49352">
        <ele>477.2</ele>
        <time>2018-11-28T04:56:11Z</time>
      </trkpt>
      <trkpt lat="42.30845" lon="2.49275">
        <ele>476.8</ele>
        <time>2018-11-28T04:56:34Z</time>
      </trkpt>
      <trkpt lat="42.30853" lon="2.4909">
        <ele>475.8</ele>
        <time>2018-11-28T04:57:29Z</time>
      </trkpt>
      <trkpt lat="42.30857" lon="2.49079">
        <ele>476.7</ele>
        <time>2018-11-28T04:57:33Z</time>
      </trkpt>
      <trkpt lat="42.30943" lon="2.48984">
        <ele>482.2</ele>
        <time>2018-11-28T04:58:17Z</time>
      </trkpt>
      <trkpt lat="42.30954" lon="2.48978">
        <ele>482</ele>
        <time>2018-11-28T04:58:22Z</time>
      </trkpt>
      <trkpt lat="42.30955" lon="2.48975">
        <ele>482.2</ele>
        <time>2018-11-28T04:58:23Z</time>
      </trkpt>
      <trkpt lat="42.30959" lon="2.4897">
        <ele>482.6</ele>
        <time>2018-11-28T04:58:25Z</time>
      </trkpt>
      <trkpt lat="42.30965" lon="2.48961">
        <ele>482.7</ele>
        <time>2018-11-28T04:58:29Z</time>
      </trkpt>
      <trkpt lat="42.30965" lon="2.48959">
        <ele>482.7</ele>
        <time>2018-11-28T04:58:30Z</time>
      </trkpt>
      <trkpt lat="42.3097" lon="2.48946">
        <ele>482.3</ele>
        <time>2018-11-28T04:58:34Z</time>
      </trkpt>
      <trkpt lat="42.30985" lon="2.48929">
        <ele>480.5</ele>
        <time>2018-11-28T04:58:42Z</time>
      </trkpt>
      <trkpt lat="42.31" lon="2.48904">
        <ele>481.1</ele>
        <time>2018-11-28T04:58:51Z</time>
      </trkpt>
      <trkpt lat="42.31006" lon="2.48883">
        <ele>480.7</ele>
        <time>2018-11-28T04:58:58Z</time>
      </trkpt>
      <trkpt lat="42.31017" lon="2.4886">
        <ele>481.8</ele>
        <time>2018-11-28T04:59:06Z</time>
      </trkpt>
      <trkpt lat="42.31019" lon="2.48858">
        <ele>481.8</ele>
        <time>2018-11-28T04:59:07Z</time>
      </trkpt>
      <trkpt lat="42.31032" lon="2.48852">
        <ele>483.2</ele>
        <time>2018-11-28T04:59:12Z</time>
      </trkpt>
      <trkpt lat="42.31064" lon="2.48812">
        <ele>486.7</ele>
        <time>2018-11-28T04:59:30Z</time>
      </trkpt>
      <trkpt lat="42.31077" lon="2.48804">
        <ele>487.6</ele>
        <time>2018-11-28T04:59:35Z</time>
      </trkpt>
      <trkpt lat="42.31096" lon="2.48803">
        <ele>488.9</ele>
        <time>2018-11-28T04:59:43Z</time>
      </trkpt>
      <trkpt lat="42.31131" lon="2.4882">
        <ele>490</ele>
        <time>2018-11-28T04:59:58Z</time>
      </trkpt>
      <trkpt lat="42.31167" lon="2.48827">
        <ele>489.1</ele>
        <time>2018-11-28T05:00:13Z</time>
      </trkpt>
      <trkpt lat="42.31182" lon="2.48823">
        <ele>489</ele>
        <time>2018-11-28T05:00:18Z</time>
      </trkpt>
      <trkpt lat="42.31183" lon="2.48821">
        <ele>493.1</ele>
        <time>2018-11-28T05:00:19Z</time>
      </trkpt>
      <trkpt lat="42.31207" lon="2.48814">
        <ele>490.2</ele>
        <time>2018-11-28T05:00:29Z</time>
      </trkpt>
      <trkpt lat="42.31226" lon="2.48794">
        <ele>491.4</ele>
        <time>2018-11-28T05:00:39Z</time>
      </trkpt>
      <trkpt lat="42.31263" lon="2.48729">
        <ele>492.5</ele>
        <time>2018-11-28T05:01:03Z</time>
      </trkpt>
      <trkpt lat="42.31266" lon="2.48726">
        <ele>492.6</ele>
        <time>2018-11-28T05:01:04Z</time>
      </trkpt>
      <trkpt lat="42.31267" lon="2.48723">
        <ele>492.8</ele>
        <time>2018-11-28T05:01:05Z</time>
      </trkpt>
      <trkpt lat="42.31283" lon="2.48695">
        <ele>493.7</ele>
        <time>2018-11-28T05:01:16Z</time>
      </trkpt>
      <trkpt lat="42.31285" lon="2.48687">
        <ele>494.8</ele>
        <time>2018-11-28T05:01:18Z</time>
      </trkpt>
      <trkpt lat="42.31293" lon="2.4867">
        <ele>496.3</ele>
        <time>2018-11-28T05:01:24Z</time>
      </trkpt>
      <trkpt lat="42.31295" lon="2.48667">
        <ele>496.5</ele>
        <time>2018-11-28T05:01:25Z</time>
      </trkpt>
      <trkpt lat="42.31304" lon="2.4865">
        <ele>498.1</ele>
        <time>2018-11-28T05:01:32Z</time>
      </trkpt>
      <trkpt lat="42.31306" lon="2.48648">
        <ele>497.7</ele>
        <time>2018-11-28T05:01:33Z</time>
      </trkpt>
      <trkpt lat="42.31312" lon="2.48635">
        <ele>497.8</ele>
        <time>2018-11-28T05:01:37Z</time>
      </trkpt>
      <trkpt lat="42.31348" lon="2.48574">
        <ele>500.7</ele>
        <time>2018-11-28T05:02:00Z</time>
      </trkpt>
      <trkpt lat="42.31368" lon="2.48556">
        <ele>501.8</ele>
        <time>2018-11-28T05:02:10Z</time>
      </trkpt>
      <trkpt lat="42.31411" lon="2.48542">
        <ele>504.2</ele>
        <time>2018-11-28T05:02:28Z</time>
      </trkpt>
      <trkpt lat="42.31414" lon="2.4854">
        <ele>504.3</ele>
        <time>2018-11-28T05:02:29Z</time>
      </trkpt>
      <trkpt lat="42.31418" lon="2.48539">
        <ele>503.8</ele>
        <time>2018-11-28T05:02:31Z</time>
      </trkpt>
      <trkpt lat="42.31423" lon="2.4854">
        <ele>504</ele>
        <time>2018-11-28T05:02:33Z</time>
      </trkpt>
      <trkpt lat="42.31428" lon="2.48538">
        <ele>505.3</ele>
        <time>2018-11-28T05:02:34Z</time>
      </trkpt>
      <trkpt lat="42.3145" lon="2.48521">
        <ele>503.8</ele>
        <time>2018-11-28T05:02:45Z</time>
      </trkpt>
      <trkpt lat="42.31476" lon="2.48483">
        <ele>506.8</ele>
        <time>2018-11-28T05:03:00Z</time>
      </trkpt>
      <trkpt lat="42.31475" lon="2.48479">
        <ele>507.7</ele>
        <time>2018-11-28T05:03:01Z</time>
      </trkpt>
      <trkpt lat="42.31487" lon="2.48453">
        <ele>509.5</ele>
        <time>2018-11-28T05:03:10Z</time>
      </trkpt>
      <trkpt lat="42.31489" lon="2.48452">
        <ele>509.3</ele>
        <time>2018-11-28T05:03:11Z</time>
      </trkpt>
      <trkpt lat="42.31492" lon="2.48447">
        <ele>509.5</ele>
        <time>2018-11-28T05:03:13Z</time>
      </trkpt>
      <trkpt lat="42.3152" lon="2.48393">
        <ele>511.6</ele>
        <time>2018-11-28T05:03:32Z</time>
      </trkpt>
      <trkpt lat="42.31563" lon="2.48294">
        <ele>512.7</ele>
        <time>2018-11-28T05:04:06Z</time>
      </trkpt>
      <trkpt lat="42.31572" lon="2.48272">
        <ele>513.5</ele>
        <time>2018-11-28T05:04:14Z</time>
      </trkpt>
      <trkpt lat="42.31593" lon="2.48235">
        <ele>512.2</ele>
        <time>2018-11-28T05:04:28Z</time>
      </trkpt>
      <trkpt lat="42.31594" lon="2.48234">
        <ele>515.1</ele>
        <time>2018-11-28T05:04:28Z</time>
      </trkpt>
      <trkpt lat="42.31609" lon="2.48216">
        <ele>511.3</ele>
        <time>2018-11-28T05:04:36Z</time>
      </trkpt>
      <trkpt lat="42.31612" lon="2.48214">
        <ele>511.2</ele>
        <time>2018-11-28T05:04:38Z</time>
      </trkpt>
      <trkpt lat="42.31618" lon="2.48207">
        <ele>513</ele>
        <time>2018-11-28T05:04:41Z</time>
      </trkpt>
      <trkpt lat="42.31634" lon="2.48195">
        <ele>513</ele>
        <time>2018-11-28T05:04:48Z</time>
      </trkpt>
      <trkpt lat="42.31653" lon="2.48183">
        <ele>511.2</ele>
        <time>2018-11-28T05:04:56Z</time>
      </trkpt>
      <trkpt lat="42.31655" lon="2.48183">
        <ele>511.1</ele>
        <time>2018-11-28T05:04:57Z</time>
      </trkpt>
      <trkpt lat="42.31658" lon="2.48181">
        <ele>511.6</ele>
        <time>2018-11-28T05:04:59Z</time>
      </trkpt>
      <trkpt lat="42.3166" lon="2.48181">
        <ele>511.6</ele>
        <time>2018-11-28T05:04:59Z</time>
      </trkpt>
      <trkpt lat="42.3166" lon="2.4818">
        <ele>511.7</ele>
        <time>2018-11-28T05:05:00Z</time>
      </trkpt>
      <trkpt lat="42.31663" lon="2.48177">
        <ele>512.1</ele>
        <time>2018-11-28T05:05:01Z</time>
      </trkpt>
      <trkpt lat="42.31665" lon="2.48177">
        <ele>512.3</ele>
        <time>2018-11-28T05:05:02Z</time>
      </trkpt>
      <trkpt lat="42.31668" lon="2.48179">
        <ele>512.5</ele>
        <time>2018-11-28T05:05:04Z</time>
      </trkpt>
      <trkpt lat="42.31668" lon="2.48178">
        <ele>513.8</ele>
        <time>2018-11-28T05:05:04Z</time>
      </trkpt>
      <trkpt lat="42.31668" lon="2.48178">
        <ele>514.5</ele>
        <time>2018-11-28T05:05:05Z</time>
      </trkpt>
      <trkpt lat="42.31667" lon="2.48177">
        <ele>514.9</ele>
        <time>2018-11-28T05:05:05Z</time>
      </trkpt>
      <trkpt lat="42.31668" lon="2.48176">
        <ele>515</ele>
        <time>2018-11-28T05:05:06Z</time>
      </trkpt>
      <trkpt lat="42.31669" lon="2.48176">
        <ele>516.3</ele>
        <time>2018-11-28T05:05:06Z</time>
      </trkpt>
      <trkpt lat="42.31669" lon="2.48176">
        <ele>516.8</ele>
        <time>2018-11-28T05:05:06Z</time>
      </trkpt>
      <trkpt lat="42.31665" lon="2.48174">
        <ele>516</ele>
        <time>2018-11-28T05:05:08Z</time>
      </trkpt>
      <trkpt lat="42.3166" lon="2.4817">
        <ele>518.7</ele>
        <time>2018-11-28T05:05:10Z</time>
      </trkpt>
      <trkpt lat="42.31661" lon="2.48169">
        <ele>519.8</ele>
        <time>2018-11-28T05:05:11Z</time>
      </trkpt>
      <trkpt lat="42.31662" lon="2.48168">
        <ele>520.9</ele>
        <time>2018-11-28T05:05:11Z</time>
      </trkpt>
      <trkpt lat="42.3168" lon="2.48171">
        <ele>522.1</ele>
        <time>2018-11-28T05:05:18Z</time>
      </trkpt>
      <trkpt lat="42.31695" lon="2.48171">
        <ele>522.1</ele>
        <time>2018-11-28T05:05:25Z</time>
      </trkpt>
      <trkpt lat="42.31696" lon="2.48169">
        <ele>522.1</ele>
        <time>2018-11-28T05:05:25Z</time>
      </trkpt>
      <trkpt lat="42.31703" lon="2.48168">
        <ele>521.7</ele>
        <time>2018-11-28T05:05:28Z</time>
      </trkpt>
      <trkpt lat="42.3171" lon="2.48165">
        <ele>522</ele>
        <time>2018-11-28T05:05:31Z</time>
      </trkpt>
      <trkpt lat="42.31714" lon="2.48165">
        <ele>522.5</ele>
        <time>2018-11-28T05:05:32Z</time>
      </trkpt>
      <trkpt lat="42.31715" lon="2.48163">
        <ele>522.6</ele>
        <time>2018-11-28T05:05:33Z</time>
      </trkpt>
      <trkpt lat="42.31718" lon="2.48163">
        <ele>522.5</ele>
        <time>2018-11-28T05:05:34Z</time>
      </trkpt>
      <trkpt lat="42.3172" lon="2.4816">
        <ele>522.5</ele>
        <time>2018-11-28T05:05:35Z</time>
      </trkpt>
      <trkpt lat="42.31723" lon="2.48159">
        <ele>522.3</ele>
        <time>2018-11-28T05:05:37Z</time>
      </trkpt>
      <trkpt lat="42.31727" lon="2.48159">
        <ele>521.9</ele>
        <time>2018-11-28T05:05:39Z</time>
      </trkpt>
      <trkpt lat="42.31731" lon="2.48161">
        <ele>522</ele>
        <time>2018-11-28T05:05:40Z</time>
      </trkpt>
      <trkpt lat="42.31733" lon="2.4816">
        <ele>522</ele>
        <time>2018-11-28T05:05:41Z</time>
      </trkpt>
      <trkpt lat="42.31734" lon="2.48158">
        <ele>522.2</ele>
        <time>2018-11-28T05:05:42Z</time>
      </trkpt>
      <trkpt lat="42.31737" lon="2.48156">
        <ele>522.3</ele>
        <time>2018-11-28T05:05:43Z</time>
      </trkpt>
      <trkpt lat="42.31742" lon="2.48152">
        <ele>521.5</ele>
        <time>2018-11-28T05:05:45Z</time>
      </trkpt>
      <trkpt lat="42.31749" lon="2.48152">
        <ele>522.2</ele>
        <time>2018-11-28T05:05:48Z</time>
      </trkpt>
      <trkpt lat="42.31753" lon="2.48153">
        <ele>522.7</ele>
        <time>2018-11-28T05:05:50Z</time>
      </trkpt>
      <trkpt lat="42.31754" lon="2.48154">
        <ele>522.7</ele>
        <time>2018-11-28T05:05:50Z</time>
      </trkpt>
      <trkpt lat="42.3176" lon="2.48153">
        <ele>522.5</ele>
        <time>2018-11-28T05:05:53Z</time>
      </trkpt>
      <trkpt lat="42.31767" lon="2.48156">
        <ele>523.5</ele>
        <time>2018-11-28T05:05:56Z</time>
      </trkpt>
      <trkpt lat="42.31771" lon="2.48157">
        <ele>524</ele>
        <time>2018-11-28T05:05:57Z</time>
      </trkpt>
      <trkpt lat="42.31776" lon="2.48156">
        <ele>526</ele>
        <time>2018-11-28T05:05:59Z</time>
      </trkpt>
      <trkpt lat="42.31781" lon="2.48157">
        <ele>526.6</ele>
        <time>2018-11-28T05:06:01Z</time>
      </trkpt>
      <trkpt lat="42.31783" lon="2.48159">
        <ele>525.2</ele>
        <time>2018-11-28T05:06:02Z</time>
      </trkpt>
      <trkpt lat="42.31787" lon="2.48159">
        <ele>525.8</ele>
        <time>2018-11-28T05:06:04Z</time>
      </trkpt>
      <trkpt lat="42.31793" lon="2.48162">
        <ele>525.2</ele>
        <time>2018-11-28T05:06:06Z</time>
      </trkpt>
      <trkpt lat="42.31811" lon="2.48167">
        <ele>525</ele>
        <time>2018-11-28T05:06:13Z</time>
      </trkpt>
      <trkpt lat="42.31817" lon="2.48169">
        <ele>525.5</ele>
        <time>2018-11-28T05:06:16Z</time>
      </trkpt>
      <trkpt lat="42.31818" lon="2.48171">
        <ele>525.5</ele>
        <time>2018-11-28T05:06:17Z</time>
      </trkpt>
      <trkpt lat="42.31827" lon="2.48174">
        <ele>523.2</ele>
        <time>2018-11-28T05:06:20Z</time>
      </trkpt>
      <trkpt lat="42.31828" lon="2.48175">
        <ele>524</ele>
        <time>2018-11-28T05:06:21Z</time>
      </trkpt>
      <trkpt lat="42.31838" lon="2.48178">
        <ele>523.3</ele>
        <time>2018-11-28T05:06:25Z</time>
      </trkpt>
      <trkpt lat="42.31848" lon="2.48179">
        <ele>525.5</ele>
        <time>2018-11-28T05:06:29Z</time>
      </trkpt>
      <trkpt lat="42.31853" lon="2.48181">
        <ele>527</ele>
        <time>2018-11-28T05:06:31Z</time>
      </trkpt>
      <trkpt lat="42.31861" lon="2.48187">
        <ele>529.8</ele>
        <time>2018-11-28T05:06:35Z</time>
      </trkpt>
      <trkpt lat="42.31863" lon="2.48189">
        <ele>529.7</ele>
        <time>2018-11-28T05:06:36Z</time>
      </trkpt>
      <trkpt lat="42.31867" lon="2.48193">
        <ele>530.2</ele>
        <time>2018-11-28T05:06:38Z</time>
      </trkpt>
      <trkpt lat="42.3187" lon="2.48197">
        <ele>532</ele>
        <time>2018-11-28T05:06:39Z</time>
      </trkpt>
      <trkpt lat="42.31871" lon="2.48197">
        <ele>532.2</ele>
        <time>2018-11-28T05:06:40Z</time>
      </trkpt>
      <trkpt lat="42.31881" lon="2.48204">
        <ele>530.2</ele>
        <time>2018-11-28T05:06:44Z</time>
      </trkpt>
      <trkpt lat="42.31892" lon="2.48205">
        <ele>529.5</ele>
        <time>2018-11-28T05:06:49Z</time>
      </trkpt>
      <trkpt lat="42.31903" lon="2.48201">
        <ele>528.2</ele>
        <time>2018-11-28T05:06:53Z</time>
      </trkpt>
      <trkpt lat="42.31908" lon="2.482">
        <ele>527</ele>
        <time>2018-11-28T05:06:55Z</time>
      </trkpt>
      <trkpt lat="42.3191" lon="2.48201">
        <ele>526</ele>
        <time>2018-11-28T05:06:56Z</time>
      </trkpt>
      <trkpt lat="42.31914" lon="2.48201">
        <ele>525.2</ele>
        <time>2018-11-28T05:06:58Z</time>
      </trkpt>
      <trkpt lat="42.31921" lon="2.48198">
        <ele>524.5</ele>
        <time>2018-11-28T05:07:01Z</time>
      </trkpt>
      <trkpt lat="42.31927" lon="2.48192">
        <ele>525.4</ele>
        <time>2018-11-28T05:07:04Z</time>
      </trkpt>
      <trkpt lat="42.3193" lon="2.4819">
        <ele>525.8</ele>
        <time>2018-11-28T05:07:05Z</time>
      </trkpt>
      <trkpt lat="42.3193" lon="2.48188">
        <ele>525.7</ele>
        <time>2018-11-28T05:07:06Z</time>
      </trkpt>
      <trkpt lat="42.31936" lon="2.48182">
        <ele>525</ele>
        <time>2018-11-28T05:07:09Z</time>
      </trkpt>
      <trkpt lat="42.31939" lon="2.48179">
        <ele>525.5</ele>
        <time>2018-11-28T05:07:10Z</time>
      </trkpt>
      <trkpt lat="42.31943" lon="2.48176">
        <ele>525.5</ele>
        <time>2018-11-28T05:07:12Z</time>
      </trkpt>
      <trkpt lat="42.31952" lon="2.48172">
        <ele>525.7</ele>
        <time>2018-11-28T05:07:16Z</time>
      </trkpt>
      <trkpt lat="42.31959" lon="2.48166">
        <ele>525.7</ele>
        <time>2018-11-28T05:07:19Z</time>
      </trkpt>
      <trkpt lat="42.31965" lon="2.4816">
        <ele>525.5</ele>
        <time>2018-11-28T05:07:22Z</time>
      </trkpt>
      <trkpt lat="42.31969" lon="2.48156">
        <ele>525.3</ele>
        <time>2018-11-28T05:07:24Z</time>
      </trkpt>
      <trkpt lat="42.31973" lon="2.48153">
        <ele>525.3</ele>
        <time>2018-11-28T05:07:26Z</time>
      </trkpt>
      <trkpt lat="42.31977" lon="2.48149">
        <ele>525.8</ele>
        <time>2018-11-28T05:07:28Z</time>
      </trkpt>
      <trkpt lat="42.31982" lon="2.48144">
        <ele>526.1</ele>
        <time>2018-11-28T05:07:30Z</time>
      </trkpt>
      <trkpt lat="42.31989" lon="2.48139">
        <ele>526.6</ele>
        <time>2018-11-28T05:07:33Z</time>
      </trkpt>
      <trkpt lat="42.31992" lon="2.48137">
        <ele>526.7</ele>
        <time>2018-11-28T05:07:35Z</time>
      </trkpt>
      <trkpt lat="42.31994" lon="2.48134">
        <ele>527.6</ele>
        <time>2018-11-28T05:07:36Z</time>
      </trkpt>
      <trkpt lat="42.31999" lon="2.48129">
        <ele>528</ele>
        <time>2018-11-28T05:07:39Z</time>
      </trkpt>
      <trkpt lat="42.32001" lon="2.48128">
        <ele>528</ele>
        <time>2018-11-28T05:07:39Z</time>
      </trkpt>
      <trkpt lat="42.32004" lon="2.48129">
        <ele>528.5</ele>
        <time>2018-11-28T05:07:41Z</time>
      </trkpt>
      <trkpt lat="42.32008" lon="2.48132">
        <ele>528.9</ele>
        <time>2018-11-28T05:07:42Z</time>
      </trkpt>
      <trkpt lat="42.32014" lon="2.48139">
        <ele>529.6</ele>
        <time>2018-11-28T05:07:46Z</time>
      </trkpt>
      <trkpt lat="42.32018" lon="2.48141">
        <ele>530.1</ele>
        <time>2018-11-28T05:07:47Z</time>
      </trkpt>
      <trkpt lat="42.32023" lon="2.48132">
        <ele>531</ele>
        <time>2018-11-28T05:07:50Z</time>
      </trkpt>
      <trkpt lat="42.32024" lon="2.48131">
        <ele>530.5</ele>
        <time>2018-11-28T05:07:51Z</time>
      </trkpt>
      <trkpt lat="42.32023" lon="2.48131">
        <ele>531</ele>
        <time>2018-11-28T05:07:51Z</time>
      </trkpt>
      <trkpt lat="42.32024" lon="2.48132">
        <ele>531.5</ele>
        <time>2018-11-28T05:07:52Z</time>
      </trkpt>
      <trkpt lat="42.32026" lon="2.48135">
        <ele>531.7</ele>
        <time>2018-11-28T05:07:53Z</time>
      </trkpt>
      <trkpt lat="42.32029" lon="2.48138">
        <ele>532.5</ele>
        <time>2018-11-28T05:07:55Z</time>
      </trkpt>
      <trkpt lat="42.32029" lon="2.4814">
        <ele>532.6</ele>
        <time>2018-11-28T05:07:55Z</time>
      </trkpt>
      <trkpt lat="42.32032" lon="2.48141">
        <ele>531.9</ele>
        <time>2018-11-28T05:07:57Z</time>
      </trkpt>
      <trkpt lat="42.32033" lon="2.48138">
        <ele>531.9</ele>
        <time>2018-11-28T05:07:58Z</time>
      </trkpt>
      <trkpt lat="42.32038" lon="2.48139">
        <ele>531.8</ele>
        <time>2018-11-28T05:07:59Z</time>
      </trkpt>
      <trkpt lat="42.32041" lon="2.48141">
        <ele>531.8</ele>
        <time>2018-11-28T05:08:01Z</time>
      </trkpt>
      <trkpt lat="42.32045" lon="2.48141">
        <ele>531.5</ele>
        <time>2018-11-28T05:08:02Z</time>
      </trkpt>
      <trkpt lat="42.32048" lon="2.48141">
        <ele>531.5</ele>
        <time>2018-11-28T05:08:03Z</time>
      </trkpt>
      <trkpt lat="42.3205" lon="2.48137">
        <ele>531.7</ele>
        <time>2018-11-28T05:08:05Z</time>
      </trkpt>
      <trkpt lat="42.3205" lon="2.48132">
        <ele>530.7</ele>
        <time>2018-11-28T05:08:06Z</time>
      </trkpt>
      <trkpt lat="42.32043" lon="2.48123">
        <ele>534.2</ele>
        <time>2018-11-28T05:08:10Z</time>
      </trkpt>
      <trkpt lat="42.32041" lon="2.48119">
        <ele>535.8</ele>
        <time>2018-11-28T05:08:11Z</time>
      </trkpt>
      <trkpt lat="42.3204" lon="2.4812">
        <ele>536.3</ele>
        <time>2018-11-28T05:08:12Z</time>
      </trkpt>
      <trkpt lat="42.32039" lon="2.48118">
        <ele>536</ele>
        <time>2018-11-28T05:08:13Z</time>
      </trkpt>
      <trkpt lat="42.3204" lon="2.48115">
        <ele>536.2</ele>
        <time>2018-11-28T05:08:13Z</time>
      </trkpt>
      <trkpt lat="42.32045" lon="2.48111">
        <ele>536.7</ele>
        <time>2018-11-28T05:08:16Z</time>
      </trkpt>
      <trkpt lat="42.3205" lon="2.4811">
        <ele>537.3</ele>
        <time>2018-11-28T05:08:18Z</time>
      </trkpt>
      <trkpt lat="42.32051" lon="2.48106">
        <ele>537.3</ele>
        <time>2018-11-28T05:08:19Z</time>
      </trkpt>
      <trkpt lat="42.32052" lon="2.48106">
        <ele>537.3</ele>
        <time>2018-11-28T05:08:20Z</time>
      </trkpt>
      <trkpt lat="42.32054" lon="2.48101">
        <ele>536.8</ele>
        <time>2018-11-28T05:08:21Z</time>
      </trkpt>
      <trkpt lat="42.32056" lon="2.48095">
        <ele>537.3</ele>
        <time>2018-11-28T05:08:23Z</time>
      </trkpt>
      <trkpt lat="42.32058" lon="2.48092">
        <ele>537.8</ele>
        <time>2018-11-28T05:08:24Z</time>
      </trkpt>
      <trkpt lat="42.32063" lon="2.48088">
        <ele>537.3</ele>
        <time>2018-11-28T05:08:27Z</time>
      </trkpt>
      <trkpt lat="42.32071" lon="2.48076">
        <ele>537.3</ele>
        <time>2018-11-28T05:08:32Z</time>
      </trkpt>
      <trkpt lat="42.32072" lon="2.48073">
        <ele>537.4</ele>
        <time>2018-11-28T05:08:32Z</time>
      </trkpt>
      <trkpt lat="42.32073" lon="2.48071">
        <ele>537.3</ele>
        <time>2018-11-28T05:08:33Z</time>
      </trkpt>
      <trkpt lat="42.32075" lon="2.48061">
        <ele>537</ele>
        <time>2018-11-28T05:08:36Z</time>
      </trkpt>
      <trkpt lat="42.32077" lon="2.48058">
        <ele>537.4</ele>
        <time>2018-11-28T05:08:37Z</time>
      </trkpt>
      <trkpt lat="42.32075" lon="2.4806">
        <ele>537.5</ele>
        <time>2018-11-28T05:08:38Z</time>
      </trkpt>
      <trkpt lat="42.32076" lon="2.4806">
        <ele>536.5</ele>
        <time>2018-11-28T05:08:38Z</time>
      </trkpt>
      <trkpt lat="42.32082" lon="2.4806">
        <ele>536.1</ele>
        <time>2018-11-28T05:08:41Z</time>
      </trkpt>
      <trkpt lat="42.32093" lon="2.48052">
        <ele>536.7</ele>
        <time>2018-11-28T05:08:46Z</time>
      </trkpt>
      <trkpt lat="42.32094" lon="2.48052">
        <ele>536.8</ele>
        <time>2018-11-28T05:08:46Z</time>
      </trkpt>
      <trkpt lat="42.32095" lon="2.48048">
        <ele>537.7</ele>
        <time>2018-11-28T05:08:47Z</time>
      </trkpt>
      <trkpt lat="42.32097" lon="2.48047">
        <ele>538</ele>
        <time>2018-11-28T05:08:48Z</time>
      </trkpt>
      <trkpt lat="42.32098" lon="2.48042">
        <ele>538.3</ele>
        <time>2018-11-28T05:08:49Z</time>
      </trkpt>
      <trkpt lat="42.32098" lon="2.48041">
        <ele>538.9</ele>
        <time>2018-11-28T05:08:50Z</time>
      </trkpt>
      <trkpt lat="42.32098" lon="2.4804">
        <ele>539.3</ele>
        <time>2018-11-28T05:08:50Z</time>
      </trkpt>
      <trkpt lat="42.32098" lon="2.4804">
        <ele>539.9</ele>
        <time>2018-11-28T05:08:50Z</time>
      </trkpt>
      <trkpt lat="42.32099" lon="2.48038">
        <ele>537.9</ele>
        <time>2018-11-28T05:08:51Z</time>
      </trkpt>
      <trkpt lat="42.32099" lon="2.48038">
        <ele>537.9</ele>
        <time>2018-11-28T05:08:51Z</time>
      </trkpt>
      <trkpt lat="42.32099" lon="2.48039">
        <ele>537.5</ele>
        <time>2018-11-28T05:08:51Z</time>
      </trkpt>
      <trkpt lat="42.32099" lon="2.48038">
        <ele>537.4</ele>
        <time>2018-11-28T05:08:51Z</time>
      </trkpt>
      <trkpt lat="42.32098" lon="2.48037">
        <ele>536.7</ele>
        <time>2018-11-28T05:08:52Z</time>
      </trkpt>
      <trkpt lat="42.32098" lon="2.48039">
        <ele>537.7</ele>
        <time>2018-11-28T05:08:52Z</time>
      </trkpt>
      <trkpt lat="42.32099" lon="2.48039">
        <ele>537.6</ele>
        <time>2018-11-28T05:08:52Z</time>
      </trkpt>
      <trkpt lat="42.32098" lon="2.48039">
        <ele>537.1</ele>
        <time>2018-11-28T05:08:53Z</time>
      </trkpt>
      <trkpt lat="42.32098" lon="2.48037">
        <ele>535.6</ele>
        <time>2018-11-28T05:08:53Z</time>
      </trkpt>
      <trkpt lat="42.32097" lon="2.48038">
        <ele>535.5</ele>
        <time>2018-11-28T05:08:54Z</time>
      </trkpt>
      <trkpt lat="42.32097" lon="2.48038">
        <ele>535.2</ele>
        <time>2018-11-28T05:08:54Z</time>
      </trkpt>
      <trkpt lat="42.32098" lon="2.48038">
        <ele>535.2</ele>
        <time>2018-11-28T05:08:54Z</time>
      </trkpt>
      <trkpt lat="42.32097" lon="2.48039">
        <ele>535.2</ele>
        <time>2018-11-28T05:08:55Z</time>
      </trkpt>
      <trkpt lat="42.32096" lon="2.48038">
        <ele>537.6</ele>
        <time>2018-11-28T05:08:55Z</time>
      </trkpt>
      <trkpt lat="42.32098" lon="2.48039">
        <ele>538.3</ele>
        <time>2018-11-28T05:08:56Z</time>
      </trkpt>
      <trkpt lat="42.32096" lon="2.48037">
        <ele>537.8</ele>
        <time>2018-11-28T05:08:57Z</time>
      </trkpt>
      <trkpt lat="42.32097" lon="2.48037">
        <ele>538.2</ele>
        <time>2018-11-28T05:08:57Z</time>
      </trkpt>
      <trkpt lat="42.32103" lon="2.4804">
        <ele>535.2</ele>
        <time>2018-11-28T05:08:59Z</time>
      </trkpt>
      <trkpt lat="42.32095" lon="2.48044">
        <ele>519.8</ele>
        <time>2018-11-28T05:09:03Z</time>
      </trkpt>
      <trkpt lat="42.32096" lon="2.48044">
        <ele>517.6</ele>
        <time>2018-11-28T05:09:03Z</time>
      </trkpt>
      <trkpt lat="42.32095" lon="2.48045">
        <ele>516.9</ele>
        <time>2018-11-28T05:09:04Z</time>
      </trkpt>
      <trkpt lat="42.321" lon="2.48047">
        <ele>516.3</ele>
        <time>2018-11-28T05:09:06Z</time>
      </trkpt>
      <trkpt lat="42.32098" lon="2.48048">
        <ele>515.8</ele>
        <time>2018-11-28T05:09:06Z</time>
      </trkpt>
      <trkpt lat="42.32097" lon="2.48044">
        <ele>515.2</ele>
        <time>2018-11-28T05:09:08Z</time>
      </trkpt>
      <trkpt lat="42.32094" lon="2.48045">
        <ele>514</ele>
        <time>2018-11-28T05:09:09Z</time>
      </trkpt>
      <trkpt lat="42.32099" lon="2.48039">
        <ele>513.1</ele>
        <time>2018-11-28T05:09:12Z</time>
      </trkpt>
      <trkpt lat="42.32099" lon="2.48036">
        <ele>512.8</ele>
        <time>2018-11-28T05:09:12Z</time>
      </trkpt>
      <trkpt lat="42.32098" lon="2.48031">
        <ele>509.6</ele>
        <time>2018-11-28T05:09:14Z</time>
      </trkpt>
      <trkpt lat="42.32098" lon="2.48032">
        <ele>508.3</ele>
        <time>2018-11-28T05:09:14Z</time>
      </trkpt>
      <trkpt lat="42.32139" lon="2.4794">
        <ele>548.8</ele>
        <time>2018-11-28T05:09:46Z</time>
      </trkpt>
      <trkpt lat="42.32137" lon="2.47942">
        <ele>548.6</ele>
        <time>2018-11-28T05:09:47Z</time>
      </trkpt>
      <trkpt lat="42.32135" lon="2.47942">
        <ele>548.9</ele>
        <time>2018-11-28T05:09:48Z</time>
      </trkpt>
      <trkpt lat="42.3213" lon="2.4795">
        <ele>548.8</ele>
        <time>2018-11-28T05:09:51Z</time>
      </trkpt>
      <trkpt lat="42.32113" lon="2.47965">
        <ele>549.3</ele>
        <time>2018-11-28T05:09:59Z</time>
      </trkpt>
      <trkpt lat="42.32094" lon="2.47973">
        <ele>551.8</ele>
        <time>2018-11-28T05:10:07Z</time>
      </trkpt>
      <trkpt lat="42.32086" lon="2.47972">
        <ele>552.1</ele>
        <time>2018-11-28T05:10:11Z</time>
      </trkpt>
      <trkpt lat="42.32078" lon="2.47974">
        <ele>552.3</ele>
        <time>2018-11-28T05:10:14Z</time>
      </trkpt>
      <trkpt lat="42.32068" lon="2.4797">
        <ele>552.8</ele>
        <time>2018-11-28T05:10:18Z</time>
      </trkpt>
      <trkpt lat="42.32048" lon="2.47974">
        <ele>553.7</ele>
        <time>2018-11-28T05:10:26Z</time>
      </trkpt>
      <trkpt lat="42.32039" lon="2.47977">
        <ele>553.9</ele>
        <time>2018-11-28T05:10:30Z</time>
      </trkpt>
      <trkpt lat="42.32033" lon="2.47977">
        <ele>554.2</ele>
        <time>2018-11-28T05:10:32Z</time>
      </trkpt>
      <trkpt lat="42.32028" lon="2.47981">
        <ele>554.8</ele>
        <time>2018-11-28T05:10:35Z</time>
      </trkpt>
      <trkpt lat="42.32021" lon="2.47983">
        <ele>555.4</ele>
        <time>2018-11-28T05:10:37Z</time>
      </trkpt>
      <trkpt lat="42.32021" lon="2.47982">
        <ele>555.5</ele>
        <time>2018-11-28T05:10:37Z</time>
      </trkpt>
      <trkpt lat="42.32015" lon="2.47982">
        <ele>557.4</ele>
        <time>2018-11-28T05:10:40Z</time>
      </trkpt>
      <trkpt lat="42.32007" lon="2.47985">
        <ele>559.2</ele>
        <time>2018-11-28T05:10:43Z</time>
      </trkpt>
      <trkpt lat="42.32001" lon="2.4799">
        <ele>560.2</ele>
        <time>2018-11-28T05:10:46Z</time>
      </trkpt>
      <trkpt lat="42.31983" lon="2.47999">
        <ele>561.3</ele>
        <time>2018-11-28T05:10:54Z</time>
      </trkpt>
      <trkpt lat="42.31977" lon="2.48007">
        <ele>559.8</ele>
        <time>2018-11-28T05:10:57Z</time>
      </trkpt>
      <trkpt lat="42.31969" lon="2.48012">
        <ele>558.7</ele>
        <time>2018-11-28T05:11:01Z</time>
      </trkpt>
      <trkpt lat="42.31961" lon="2.48014">
        <ele>559.7</ele>
        <time>2018-11-28T05:11:04Z</time>
      </trkpt>
      <trkpt lat="42.31954" lon="2.4801">
        <ele>559.9</ele>
        <time>2018-11-28T05:11:07Z</time>
      </trkpt>
      <trkpt lat="42.31946" lon="2.48008">
        <ele>560</ele>
        <time>2018-11-28T05:11:10Z</time>
      </trkpt>
      <trkpt lat="42.31946" lon="2.48007">
        <ele>559.2</ele>
        <time>2018-11-28T05:11:11Z</time>
      </trkpt>
      <trkpt lat="42.31926" lon="2.47999">
        <ele>558.7</ele>
        <time>2018-11-28T05:11:19Z</time>
      </trkpt>
      <trkpt lat="42.31923" lon="2.48">
        <ele>559.1</ele>
        <time>2018-11-28T05:11:20Z</time>
      </trkpt>
      <trkpt lat="42.31923" lon="2.48004">
        <ele>559.4</ele>
        <time>2018-11-28T05:11:21Z</time>
      </trkpt>
      <trkpt lat="42.31915" lon="2.48002">
        <ele>559.1</ele>
        <time>2018-11-28T05:11:24Z</time>
      </trkpt>
      <trkpt lat="42.31904" lon="2.48001">
        <ele>555.2</ele>
        <time>2018-11-28T05:11:29Z</time>
      </trkpt>
      <trkpt lat="42.31894" lon="2.47986">
        <ele>552.5</ele>
        <time>2018-11-28T05:11:35Z</time>
      </trkpt>
      <trkpt lat="42.31893" lon="2.47974">
        <ele>553.9</ele>
        <time>2018-11-28T05:11:38Z</time>
      </trkpt>
      <trkpt lat="42.31894" lon="2.47942">
        <ele>556.6</ele>
        <time>2018-11-28T05:11:48Z</time>
      </trkpt>
      <trkpt lat="42.31887" lon="2.47912">
        <ele>559.3</ele>
        <time>2018-11-28T05:11:57Z</time>
      </trkpt>
      <trkpt lat="42.31885" lon="2.47907">
        <ele>559.2</ele>
        <time>2018-11-28T05:11:59Z</time>
      </trkpt>
      <trkpt lat="42.31884" lon="2.47897">
        <ele>559.7</ele>
        <time>2018-11-28T05:12:02Z</time>
      </trkpt>
      <trkpt lat="42.31882" lon="2.47892">
        <ele>559.6</ele>
        <time>2018-11-28T05:12:03Z</time>
      </trkpt>
      <trkpt lat="42.31874" lon="2.47838">
        <ele>563.1</ele>
        <time>2018-11-28T05:12:20Z</time>
      </trkpt>
      <trkpt lat="42.31871" lon="2.47835">
        <ele>563.3</ele>
        <time>2018-11-28T05:12:21Z</time>
      </trkpt>
      <trkpt lat="42.31865" lon="2.47834">
        <ele>564.1</ele>
        <time>2018-11-28T05:12:23Z</time>
      </trkpt>
      <trkpt lat="42.31837" lon="2.47853">
        <ele>566.8</ele>
        <time>2018-11-28T05:12:36Z</time>
      </trkpt>
      <trkpt lat="42.31812" lon="2.47875">
        <ele>568.7</ele>
        <time>2018-11-28T05:12:48Z</time>
      </trkpt>
      <trkpt lat="42.31799" lon="2.47895">
        <ele>569.5</ele>
        <time>2018-11-28T05:12:56Z</time>
      </trkpt>
      <trkpt lat="42.318" lon="2.47896">
        <ele>569.9</ele>
        <time>2018-11-28T05:12:56Z</time>
      </trkpt>
      <trkpt lat="42.31795" lon="2.47896">
        <ele>569.5</ele>
        <time>2018-11-28T05:12:58Z</time>
      </trkpt>
      <trkpt lat="42.31777" lon="2.47927">
        <ele>570.8</ele>
        <time>2018-11-28T05:13:10Z</time>
      </trkpt>
      <trkpt lat="42.31758" lon="2.47937">
        <ele>571.7</ele>
        <time>2018-11-28T05:13:18Z</time>
      </trkpt>
      <trkpt lat="42.31732" lon="2.47933">
        <ele>573.9</ele>
        <time>2018-11-28T05:13:28Z</time>
      </trkpt>
      <trkpt lat="42.31732" lon="2.47932">
        <ele>573.6</ele>
        <time>2018-11-28T05:13:29Z</time>
      </trkpt>
      <trkpt lat="42.31715" lon="2.47938">
        <ele>575.2</ele>
        <time>2018-11-28T05:13:36Z</time>
      </trkpt>
      <trkpt lat="42.317" lon="2.47936">
        <ele>575.8</ele>
        <time>2018-11-28T05:13:42Z</time>
      </trkpt>
      <trkpt lat="42.31678" lon="2.47918">
        <ele>577.8</ele>
        <time>2018-11-28T05:13:52Z</time>
      </trkpt>
      <trkpt lat="42.3167" lon="2.47916">
        <ele>578.9</ele>
        <time>2018-11-28T05:13:55Z</time>
      </trkpt>
      <trkpt lat="42.31649" lon="2.47935">
        <ele>580.5</ele>
        <time>2018-11-28T05:14:05Z</time>
      </trkpt>
      <trkpt lat="42.31631" lon="2.47943">
        <ele>580.9</ele>
        <time>2018-11-28T05:14:13Z</time>
      </trkpt>
      <trkpt lat="42.31612" lon="2.47955">
        <ele>582.6</ele>
        <time>2018-11-28T05:14:21Z</time>
      </trkpt>
      <trkpt lat="42.3161" lon="2.47958">
        <ele>582.8</ele>
        <time>2018-11-28T05:14:23Z</time>
      </trkpt>
      <trkpt lat="42.31604" lon="2.47961">
        <ele>583</ele>
        <time>2018-11-28T05:14:25Z</time>
      </trkpt>
      <trkpt lat="42.31598" lon="2.4796">
        <ele>583.6</ele>
        <time>2018-11-28T05:14:27Z</time>
      </trkpt>
      <trkpt lat="42.31592" lon="2.47952">
        <ele>584.1</ele>
        <time>2018-11-28T05:14:31Z</time>
      </trkpt>
      <trkpt lat="42.31578" lon="2.47912">
        <ele>585.4</ele>
        <time>2018-11-28T05:14:44Z</time>
      </trkpt>
      <trkpt lat="42.31575" lon="2.47906">
        <ele>585.6</ele>
        <time>2018-11-28T05:14:46Z</time>
      </trkpt>
      <trkpt lat="42.3157" lon="2.47873">
        <ele>585.3</ele>
        <time>2018-11-28T05:14:56Z</time>
      </trkpt>
      <trkpt lat="42.31566" lon="2.47864">
        <ele>585</ele>
        <time>2018-11-28T05:14:59Z</time>
      </trkpt>
      <trkpt lat="42.31549" lon="2.47851">
        <ele>584.7</ele>
        <time>2018-11-28T05:15:07Z</time>
      </trkpt>
      <trkpt lat="42.31537" lon="2.47835">
        <ele>584.7</ele>
        <time>2018-11-28T05:15:14Z</time>
      </trkpt>
      <trkpt lat="42.31525" lon="2.47824">
        <ele>584.7</ele>
        <time>2018-11-28T05:15:20Z</time>
      </trkpt>
      <trkpt lat="42.3151" lon="2.47819">
        <ele>585.3</ele>
        <time>2018-11-28T05:15:26Z</time>
      </trkpt>
      <trkpt lat="42.3151" lon="2.47821">
        <ele>585.2</ele>
        <time>2018-11-28T05:15:26Z</time>
      </trkpt>
      <trkpt lat="42.31503" lon="2.47822">
        <ele>583.2</ele>
        <time>2018-11-28T05:15:29Z</time>
      </trkpt>
      <trkpt lat="42.31499" lon="2.47828">
        <ele>582.2</ele>
        <time>2018-11-28T05:15:31Z</time>
      </trkpt>
      <trkpt lat="42.31495" lon="2.47825">
        <ele>581.8</ele>
        <time>2018-11-28T05:15:33Z</time>
      </trkpt>
      <trkpt lat="42.31491" lon="2.47827">
        <ele>580.8</ele>
        <time>2018-11-28T05:15:35Z</time>
      </trkpt>
      <trkpt lat="42.31491" lon="2.47827">
        <ele>581</ele>
        <time>2018-11-28T05:15:35Z</time>
      </trkpt>
      <trkpt lat="42.31487" lon="2.47822">
        <ele>579.8</ele>
        <time>2018-11-28T05:15:37Z</time>
      </trkpt>
      <trkpt lat="42.31482" lon="2.47813">
        <ele>578</ele>
        <time>2018-11-28T05:15:41Z</time>
      </trkpt>
      <trkpt lat="42.31474" lon="2.47808">
        <ele>577.5</ele>
        <time>2018-11-28T05:15:44Z</time>
      </trkpt>
      <trkpt lat="42.31466" lon="2.47806">
        <ele>577.6</ele>
        <time>2018-11-28T05:15:47Z</time>
      </trkpt>
      <trkpt lat="42.31462" lon="2.47803">
        <ele>578</ele>
        <time>2018-11-28T05:15:49Z</time>
      </trkpt>
      <trkpt lat="42.31458" lon="2.47797">
        <ele>578.1</ele>
        <time>2018-11-28T05:15:52Z</time>
      </trkpt>
      <trkpt lat="42.31448" lon="2.47815">
        <ele>581.5</ele>
        <time>2018-11-28T05:15:58Z</time>
      </trkpt>
      <trkpt lat="42.31449" lon="2.47821">
        <ele>582.1</ele>
        <time>2018-11-28T05:16:00Z</time>
      </trkpt>
      <trkpt lat="42.31452" lon="2.47826">
        <ele>582.9</ele>
        <time>2018-11-28T05:16:02Z</time>
      </trkpt>
      <trkpt lat="42.31447" lon="2.47831">
        <ele>584.4</ele>
        <time>2018-11-28T05:16:05Z</time>
      </trkpt>
      <trkpt lat="42.31442" lon="2.47832">
        <ele>585.6</ele>
        <time>2018-11-28T05:16:07Z</time>
      </trkpt>
      <trkpt lat="42.31438" lon="2.47835">
        <ele>587.2</ele>
        <time>2018-11-28T05:16:09Z</time>
      </trkpt>
      <trkpt lat="42.31433" lon="2.47849">
        <ele>590</ele>
        <time>2018-11-28T05:16:13Z</time>
      </trkpt>
      <trkpt lat="42.31432" lon="2.47853">
        <ele>590.7</ele>
        <time>2018-11-28T05:16:14Z</time>
      </trkpt>
      <trkpt lat="42.3143" lon="2.47853">
        <ele>590.7</ele>
        <time>2018-11-28T05:16:15Z</time>
      </trkpt>
      <trkpt lat="42.31424" lon="2.47864">
        <ele>592</ele>
        <time>2018-11-28T05:16:19Z</time>
      </trkpt>
      <trkpt lat="42.31424" lon="2.47872">
        <ele>593</ele>
        <time>2018-11-28T05:16:21Z</time>
      </trkpt>
      <trkpt lat="42.31425" lon="2.47869">
        <ele>592.5</ele>
        <time>2018-11-28T05:16:22Z</time>
      </trkpt>
      <trkpt lat="42.31419" lon="2.4787">
        <ele>593.6</ele>
        <time>2018-11-28T05:16:25Z</time>
      </trkpt>
      <trkpt lat="42.3141" lon="2.47883">
        <ele>596.7</ele>
        <time>2018-11-28T05:16:30Z</time>
      </trkpt>
      <trkpt lat="42.31398" lon="2.4789">
        <ele>599.5</ele>
        <time>2018-11-28T05:16:35Z</time>
      </trkpt>
      <trkpt lat="42.31394" lon="2.47893">
        <ele>600.5</ele>
        <time>2018-11-28T05:16:37Z</time>
      </trkpt>
      <trkpt lat="42.31396" lon="2.4789">
        <ele>600.1</ele>
        <time>2018-11-28T05:16:38Z</time>
      </trkpt>
      <trkpt lat="42.31392" lon="2.47892">
        <ele>600.8</ele>
        <time>2018-11-28T05:16:40Z</time>
      </trkpt>
      <trkpt lat="42.31387" lon="2.479">
        <ele>601.3</ele>
        <time>2018-11-28T05:16:43Z</time>
      </trkpt>
      <trkpt lat="42.31384" lon="2.47919">
        <ele>604.2</ele>
        <time>2018-11-28T05:16:49Z</time>
      </trkpt>
      <trkpt lat="42.31373" lon="2.47928">
        <ele>607.9</ele>
        <time>2018-11-28T05:16:54Z</time>
      </trkpt>
      <trkpt lat="42.31367" lon="2.47934">
        <ele>610.1</ele>
        <time>2018-11-28T05:16:57Z</time>
      </trkpt>
      <trkpt lat="42.31367" lon="2.47941">
        <ele>611.8</ele>
        <time>2018-11-28T05:16:59Z</time>
      </trkpt>
      <trkpt lat="42.31364" lon="2.47943">
        <ele>612.8</ele>
        <time>2018-11-28T05:17:01Z</time>
      </trkpt>
      <trkpt lat="42.3136" lon="2.4795">
        <ele>615</ele>
        <time>2018-11-28T05:17:03Z</time>
      </trkpt>
      <trkpt lat="42.31355" lon="2.4795">
        <ele>616.1</ele>
        <time>2018-11-28T05:17:05Z</time>
      </trkpt>
      <trkpt lat="42.31351" lon="2.47954">
        <ele>616.5</ele>
        <time>2018-11-28T05:17:07Z</time>
      </trkpt>
      <trkpt lat="42.31349" lon="2.47951">
        <ele>617.2</ele>
        <time>2018-11-28T05:17:08Z</time>
      </trkpt>
      <trkpt lat="42.31336" lon="2.47967">
        <ele>621.1</ele>
        <time>2018-11-28T05:17:16Z</time>
      </trkpt>
      <trkpt lat="42.31331" lon="2.47971">
        <ele>622.4</ele>
        <time>2018-11-28T05:17:18Z</time>
      </trkpt>
      <trkpt lat="42.31317" lon="2.47974">
        <ele>625.2</ele>
        <time>2018-11-28T05:17:23Z</time>
      </trkpt>
      <trkpt lat="42.31316" lon="2.47971">
        <ele>625.5</ele>
        <time>2018-11-28T05:17:24Z</time>
      </trkpt>
      <trkpt lat="42.31307" lon="2.47966">
        <ele>627.2</ele>
        <time>2018-11-28T05:17:28Z</time>
      </trkpt>
      <trkpt lat="42.31308" lon="2.47962">
        <ele>627.4</ele>
        <time>2018-11-28T05:17:29Z</time>
      </trkpt>
      <trkpt lat="42.31317" lon="2.47949">
        <ele>627.2</ele>
        <time>2018-11-28T05:17:34Z</time>
      </trkpt>
      <trkpt lat="42.31309" lon="2.47958">
        <ele>627</ele>
        <time>2018-11-28T05:17:38Z</time>
      </trkpt>
      <trkpt lat="42.31301" lon="2.47971">
        <ele>628.3</ele>
        <time>2018-11-28T05:17:44Z</time>
      </trkpt>
      <trkpt lat="42.31294" lon="2.47973">
        <ele>629.7</ele>
        <time>2018-11-28T05:17:46Z</time>
      </trkpt>
      <trkpt lat="42.31278" lon="2.47969">
        <ele>632.9</ele>
        <time>2018-11-28T05:17:53Z</time>
      </trkpt>
      <trkpt lat="42.31268" lon="2.47962">
        <ele>634.7</ele>
        <time>2018-11-28T05:17:58Z</time>
      </trkpt>
      <trkpt lat="42.31261" lon="2.47956">
        <ele>635.6</ele>
        <time>2018-11-28T05:18:01Z</time>
      </trkpt>
      <trkpt lat="42.31256" lon="2.47954">
        <ele>636.9</ele>
        <time>2018-11-28T05:18:03Z</time>
      </trkpt>
      <trkpt lat="42.31246" lon="2.47956">
        <ele>638.3</ele>
        <time>2018-11-28T05:18:07Z</time>
      </trkpt>
      <trkpt lat="42.31235" lon="2.47959">
        <ele>640.2</ele>
        <time>2018-11-28T05:18:11Z</time>
      </trkpt>
      <trkpt lat="42.31226" lon="2.47957">
        <ele>640.8</ele>
        <time>2018-11-28T05:18:15Z</time>
      </trkpt>
      <trkpt lat="42.3122" lon="2.47961">
        <ele>641.3</ele>
        <time>2018-11-28T05:18:17Z</time>
      </trkpt>
      <trkpt lat="42.3122" lon="2.47959">
        <ele>641.8</ele>
        <time>2018-11-28T05:18:18Z</time>
      </trkpt>
      <trkpt lat="42.3121" lon="2.47956">
        <ele>643</ele>
        <time>2018-11-28T05:18:22Z</time>
      </trkpt>
      <trkpt lat="42.31179" lon="2.47963">
        <ele>645</ele>
        <time>2018-11-28T05:18:35Z</time>
      </trkpt>
      <trkpt lat="42.31175" lon="2.47965">
        <ele>645.4</ele>
        <time>2018-11-28T05:18:37Z</time>
      </trkpt>
      <trkpt lat="42.31162" lon="2.47969">
        <ele>646.5</ele>
        <time>2018-11-28T05:18:42Z</time>
      </trkpt>
      <trkpt lat="42.31156" lon="2.47974">
        <ele>647.1</ele>
        <time>2018-11-28T05:18:45Z</time>
      </trkpt>
      <trkpt lat="42.31152" lon="2.47975">
        <ele>647.4</ele>
        <time>2018-11-28T05:18:46Z</time>
      </trkpt>
      <trkpt lat="42.31144" lon="2.4798">
        <ele>647.5</ele>
        <time>2018-11-28T05:18:50Z</time>
      </trkpt>
      <trkpt lat="42.31129" lon="2.47979">
        <ele>648.5</ele>
        <time>2018-11-28T05:18:56Z</time>
      </trkpt>
      <trkpt lat="42.31124" lon="2.47982">
        <ele>649.2</ele>
        <time>2018-11-28T05:18:58Z</time>
      </trkpt>
      <trkpt lat="42.31116" lon="2.47982">
        <ele>651.1</ele>
        <time>2018-11-28T05:19:01Z</time>
      </trkpt>
      <trkpt lat="42.31113" lon="2.47977">
        <ele>651.8</ele>
        <time>2018-11-28T05:19:03Z</time>
      </trkpt>
      <trkpt lat="42.3111" lon="2.47976">
        <ele>651.6</ele>
        <time>2018-11-28T05:19:05Z</time>
      </trkpt>
      <trkpt lat="42.31104" lon="2.4797">
        <ele>653.1</ele>
        <time>2018-11-28T05:19:08Z</time>
      </trkpt>
      <trkpt lat="42.31087" lon="2.47978">
        <ele>655.1</ele>
        <time>2018-11-28T05:19:15Z</time>
      </trkpt>
      <trkpt lat="42.31075" lon="2.47978">
        <ele>657.8</ele>
        <time>2018-11-28T05:19:19Z</time>
      </trkpt>
      <trkpt lat="42.31073" lon="2.47977">
        <ele>658.3</ele>
        <time>2018-11-28T05:19:20Z</time>
      </trkpt>
      <trkpt lat="42.3106" lon="2.47979">
        <ele>660</ele>
        <time>2018-11-28T05:19:26Z</time>
      </trkpt>
      <trkpt lat="42.31056" lon="2.47977">
        <ele>660.5</ele>
        <time>2018-11-28T05:19:27Z</time>
      </trkpt>
      <trkpt lat="42.3105" lon="2.47971">
        <ele>662.5</ele>
        <time>2018-11-28T05:19:30Z</time>
      </trkpt>
      <trkpt lat="42.31047" lon="2.47969">
        <ele>663.3</ele>
        <time>2018-11-28T05:19:32Z</time>
      </trkpt>
      <trkpt lat="42.31042" lon="2.47959">
        <ele>665.4</ele>
        <time>2018-11-28T05:19:35Z</time>
      </trkpt>
      <trkpt lat="42.31038" lon="2.47957">
        <ele>666.3</ele>
        <time>2018-11-28T05:19:37Z</time>
      </trkpt>
      <trkpt lat="42.31015" lon="2.4797">
        <ele>670.1</ele>
        <time>2018-11-28T05:19:47Z</time>
      </trkpt>
      <trkpt lat="42.30992" lon="2.47968">
        <ele>672.3</ele>
        <time>2018-11-28T05:19:56Z</time>
      </trkpt>
      <trkpt lat="42.30989" lon="2.47971">
        <ele>672.5</ele>
        <time>2018-11-28T05:19:58Z</time>
      </trkpt>
      <trkpt lat="42.30988" lon="2.4797">
        <ele>672.5</ele>
        <time>2018-11-28T05:19:58Z</time>
      </trkpt>
      <trkpt lat="42.30989" lon="2.4797">
        <ele>671.7</ele>
        <time>2018-11-28T05:19:58Z</time>
      </trkpt>
      <trkpt lat="42.30988" lon="2.47969">
        <ele>671.6</ele>
        <time>2018-11-28T05:19:59Z</time>
      </trkpt>
      <trkpt lat="42.3099" lon="2.47973">
        <ele>671.4</ele>
        <time>2018-11-28T05:20:00Z</time>
      </trkpt>
      <trkpt lat="42.30991" lon="2.47973">
        <ele>670.8</ele>
        <time>2018-11-28T05:20:01Z</time>
      </trkpt>
      <trkpt lat="42.30992" lon="2.47973">
        <ele>672.5</ele>
        <time>2018-11-28T05:20:01Z</time>
      </trkpt>
      <trkpt lat="42.3099" lon="2.47973">
        <ele>673.1</ele>
        <time>2018-11-28T05:20:02Z</time>
      </trkpt>
      <trkpt lat="42.30989" lon="2.47974">
        <ele>673.6</ele>
        <time>2018-11-28T05:20:02Z</time>
      </trkpt>
      <trkpt lat="42.30989" lon="2.47971">
        <ele>673.5</ele>
        <time>2018-11-28T05:20:03Z</time>
      </trkpt>
      <trkpt lat="42.30985" lon="2.47972">
        <ele>673.3</ele>
        <time>2018-11-28T05:20:05Z</time>
      </trkpt>
      <trkpt lat="42.30977" lon="2.47967">
        <ele>673.3</ele>
        <time>2018-11-28T05:20:09Z</time>
      </trkpt>
      <trkpt lat="42.30952" lon="2.47942">
        <ele>672.1</ele>
        <time>2018-11-28T05:20:21Z</time>
      </trkpt>
      <trkpt lat="42.30951" lon="2.47938">
        <ele>671.7</ele>
        <time>2018-11-28T05:20:22Z</time>
      </trkpt>
      <trkpt lat="42.30925" lon="2.4791">
        <ele>672.5</ele>
        <time>2018-11-28T05:20:35Z</time>
      </trkpt>
      <trkpt lat="42.30921" lon="2.479">
        <ele>672.2</ele>
        <time>2018-11-28T05:20:39Z</time>
      </trkpt>
      <trkpt lat="42.30916" lon="2.47896">
        <ele>671.3</ele>
        <time>2018-11-28T05:20:41Z</time>
      </trkpt>
      <trkpt lat="42.30891" lon="2.47865">
        <ele>670.1</ele>
        <time>2018-11-28T05:20:55Z</time>
      </trkpt>
      <trkpt lat="42.30887" lon="2.47857">
        <ele>669.5</ele>
        <time>2018-11-28T05:20:57Z</time>
      </trkpt>
      <trkpt lat="42.30886" lon="2.47848">
        <ele>669.1</ele>
        <time>2018-11-28T05:21:00Z</time>
      </trkpt>
      <trkpt lat="42.30887" lon="2.47842">
        <ele>668.9</ele>
        <time>2018-11-28T05:21:02Z</time>
      </trkpt>
      <trkpt lat="42.30886" lon="2.47831">
        <ele>668.5</ele>
        <time>2018-11-28T05:21:05Z</time>
      </trkpt>
      <trkpt lat="42.30883" lon="2.47828">
        <ele>667</ele>
        <time>2018-11-28T05:21:07Z</time>
      </trkpt>
      <trkpt lat="42.3088" lon="2.47816">
        <ele>666.4</ele>
        <time>2018-11-28T05:21:11Z</time>
      </trkpt>
      <trkpt lat="42.30882" lon="2.47796">
        <ele>666.1</ele>
        <time>2018-11-28T05:21:16Z</time>
      </trkpt>
      <trkpt lat="42.30878" lon="2.47779">
        <ele>665.8</ele>
        <time>2018-11-28T05:21:22Z</time>
      </trkpt>
      <trkpt lat="42.30865" lon="2.47763">
        <ele>665.9</ele>
        <time>2018-11-28T05:21:29Z</time>
      </trkpt>
      <trkpt lat="42.30861" lon="2.47753">
        <ele>667</ele>
        <time>2018-11-28T05:21:32Z</time>
      </trkpt>
      <trkpt lat="42.3085" lon="2.47738">
        <ele>666.8</ele>
        <time>2018-11-28T05:21:38Z</time>
      </trkpt>
      <trkpt lat="42.3084" lon="2.47724">
        <ele>667.4</ele>
        <time>2018-11-28T05:21:44Z</time>
      </trkpt>
      <trkpt lat="42.30839" lon="2.47721">
        <ele>667.4</ele>
        <time>2018-11-28T05:21:45Z</time>
      </trkpt>
      <trkpt lat="42.30836" lon="2.4771">
        <ele>668.3</ele>
        <time>2018-11-28T05:21:49Z</time>
      </trkpt>
      <trkpt lat="42.30839" lon="2.47702">
        <ele>668.1</ele>
        <time>2018-11-28T05:21:51Z</time>
      </trkpt>
      <trkpt lat="42.30839" lon="2.47702">
        <ele>667.9</ele>
        <time>2018-11-28T05:21:51Z</time>
      </trkpt>
      <trkpt lat="42.30837" lon="2.47684">
        <ele>669.5</ele>
        <time>2018-11-28T05:21:57Z</time>
      </trkpt>
      <trkpt lat="42.30834" lon="2.47658">
        <ele>671.1</ele>
        <time>2018-11-28T05:22:04Z</time>
      </trkpt>
      <trkpt lat="42.30834" lon="2.47653">
        <ele>671</ele>
        <time>2018-11-28T05:22:06Z</time>
      </trkpt>
      <trkpt lat="42.30835" lon="2.47644">
        <ele>670.3</ele>
        <time>2018-11-28T05:22:09Z</time>
      </trkpt>
      <trkpt lat="42.30826" lon="2.47632">
        <ele>667.3</ele>
        <time>2018-11-28T05:22:14Z</time>
      </trkpt>
      <trkpt lat="42.30825" lon="2.47626">
        <ele>666.7</ele>
        <time>2018-11-28T05:22:16Z</time>
      </trkpt>
      <trkpt lat="42.30827" lon="2.47624">
        <ele>666.6</ele>
        <time>2018-11-28T05:22:17Z</time>
      </trkpt>
      <trkpt lat="42.30831" lon="2.47615">
        <ele>666.1</ele>
        <time>2018-11-28T05:22:20Z</time>
      </trkpt>
      <trkpt lat="42.30834" lon="2.4759">
        <ele>664.8</ele>
        <time>2018-11-28T05:22:27Z</time>
      </trkpt>
      <trkpt lat="42.30833" lon="2.47583">
        <ele>664.3</ele>
        <time>2018-11-28T05:22:29Z</time>
      </trkpt>
      <trkpt lat="42.30839" lon="2.4758">
        <ele>663.4</ele>
        <time>2018-11-28T05:22:32Z</time>
      </trkpt>
      <trkpt lat="42.30849" lon="2.47559">
        <ele>660.9</ele>
        <time>2018-11-28T05:22:39Z</time>
      </trkpt>
      <trkpt lat="42.30855" lon="2.47555">
        <ele>660</ele>
        <time>2018-11-28T05:22:42Z</time>
      </trkpt>
      <trkpt lat="42.30862" lon="2.47555">
        <ele>659</ele>
        <time>2018-11-28T05:22:45Z</time>
      </trkpt>
      <trkpt lat="42.30866" lon="2.47547">
        <ele>658.4</ele>
        <time>2018-11-28T05:22:48Z</time>
      </trkpt>
      <trkpt lat="42.30876" lon="2.47531">
        <ele>656.1</ele>
        <time>2018-11-28T05:22:54Z</time>
      </trkpt>
      <trkpt lat="42.30881" lon="2.47525">
        <ele>655.8</ele>
        <time>2018-11-28T05:22:57Z</time>
      </trkpt>
      <trkpt lat="42.30885" lon="2.47517">
        <ele>655.4</ele>
        <time>2018-11-28T05:22:59Z</time>
      </trkpt>
      <trkpt lat="42.30887" lon="2.475">
        <ele>653.7</ele>
        <time>2018-11-28T05:23:04Z</time>
      </trkpt>
      <trkpt lat="42.30886" lon="2.47493">
        <ele>652.6</ele>
        <time>2018-11-28T05:23:06Z</time>
      </trkpt>
      <trkpt lat="42.30881" lon="2.47486">
        <ele>652.2</ele>
        <time>2018-11-28T05:23:09Z</time>
      </trkpt>
      <trkpt lat="42.30875" lon="2.47469">
        <ele>652</ele>
        <time>2018-11-28T05:23:15Z</time>
      </trkpt>
      <trkpt lat="42.30872" lon="2.47458">
        <ele>651.9</ele>
        <time>2018-11-28T05:23:18Z</time>
      </trkpt>
      <trkpt lat="42.30875" lon="2.47448">
        <ele>651.3</ele>
        <time>2018-11-28T05:23:22Z</time>
      </trkpt>
      <trkpt lat="42.30871" lon="2.47438">
        <ele>651.3</ele>
        <time>2018-11-28T05:23:25Z</time>
      </trkpt>
      <trkpt lat="42.30868" lon="2.47423">
        <ele>651.6</ele>
        <time>2018-11-28T05:23:30Z</time>
      </trkpt>
      <trkpt lat="42.30868" lon="2.47406">
        <ele>651.9</ele>
        <time>2018-11-28T05:23:35Z</time>
      </trkpt>
      <trkpt lat="42.30867" lon="2.47399">
        <ele>652.2</ele>
        <time>2018-11-28T05:23:37Z</time>
      </trkpt>
      <trkpt lat="42.30861" lon="2.4739">
        <ele>651.7</ele>
        <time>2018-11-28T05:23:40Z</time>
      </trkpt>
      <trkpt lat="42.30859" lon="2.47383">
        <ele>650.6</ele>
        <time>2018-11-28T05:23:43Z</time>
      </trkpt>
      <trkpt lat="42.30856" lon="2.47378">
        <ele>649.8</ele>
        <time>2018-11-28T05:23:44Z</time>
      </trkpt>
      <trkpt lat="42.30853" lon="2.47369">
        <ele>649.4</ele>
        <time>2018-11-28T05:23:47Z</time>
      </trkpt>
      <trkpt lat="42.30852" lon="2.47357">
        <ele>649.3</ele>
        <time>2018-11-28T05:23:51Z</time>
      </trkpt>
      <trkpt lat="42.30857" lon="2.47348">
        <ele>649.1</ele>
        <time>2018-11-28T05:23:54Z</time>
      </trkpt>
      <trkpt lat="42.30865" lon="2.47335">
        <ele>648.1</ele>
        <time>2018-11-28T05:23:59Z</time>
      </trkpt>
      <trkpt lat="42.30874" lon="2.47312">
        <ele>647.8</ele>
        <time>2018-11-28T05:24:07Z</time>
      </trkpt>
      <trkpt lat="42.30879" lon="2.47306">
        <ele>647.3</ele>
        <time>2018-11-28T05:24:09Z</time>
      </trkpt>
      <trkpt lat="42.3088" lon="2.47297">
        <ele>646.9</ele>
        <time>2018-11-28T05:24:12Z</time>
      </trkpt>
      <trkpt lat="42.3088" lon="2.47279">
        <ele>646.1</ele>
        <time>2018-11-28T05:24:17Z</time>
      </trkpt>
      <trkpt lat="42.30881" lon="2.47263">
        <ele>644</ele>
        <time>2018-11-28T05:24:22Z</time>
      </trkpt>
      <trkpt lat="42.30888" lon="2.47245">
        <ele>645.3</ele>
        <time>2018-11-28T05:24:28Z</time>
      </trkpt>
      <trkpt lat="42.30899" lon="2.47234">
        <ele>648.9</ele>
        <time>2018-11-28T05:24:34Z</time>
      </trkpt>
      <trkpt lat="42.309" lon="2.47224">
        <ele>649.4</ele>
        <time>2018-11-28T05:24:37Z</time>
      </trkpt>
      <trkpt lat="42.30896" lon="2.4722">
        <ele>649</ele>
        <time>2018-11-28T05:24:39Z</time>
      </trkpt>
      <trkpt lat="42.30887" lon="2.47217">
        <ele>648.6</ele>
        <time>2018-11-28T05:24:42Z</time>
      </trkpt>
      <trkpt lat="42.30874" lon="2.47209">
        <ele>647</ele>
        <time>2018-11-28T05:24:48Z</time>
      </trkpt>
      <trkpt lat="42.30868" lon="2.472">
        <ele>646.7</ele>
        <time>2018-11-28T05:24:52Z</time>
      </trkpt>
      <trkpt lat="42.30866" lon="2.47193">
        <ele>646.3</ele>
        <time>2018-11-28T05:24:54Z</time>
      </trkpt>
      <trkpt lat="42.30858" lon="2.47177">
        <ele>644.7</ele>
        <time>2018-11-28T05:25:00Z</time>
      </trkpt>
      <trkpt lat="42.30854" lon="2.47169">
        <ele>643.8</ele>
        <time>2018-11-28T05:25:03Z</time>
      </trkpt>
      <trkpt lat="42.30847" lon="2.47146">
        <ele>643</ele>
        <time>2018-11-28T05:25:10Z</time>
      </trkpt>
      <trkpt lat="42.30848" lon="2.47123">
        <ele>643.1</ele>
        <time>2018-11-28T05:25:17Z</time>
      </trkpt>
      <trkpt lat="42.30847" lon="2.47115">
        <ele>643.6</ele>
        <time>2018-11-28T05:25:19Z</time>
      </trkpt>
      <trkpt lat="42.30849" lon="2.47105">
        <ele>644.1</ele>
        <time>2018-11-28T05:25:22Z</time>
      </trkpt>
      <trkpt lat="42.30847" lon="2.47088">
        <ele>645</ele>
        <time>2018-11-28T05:25:27Z</time>
      </trkpt>
      <trkpt lat="42.30832" lon="2.47063">
        <ele>643.6</ele>
        <time>2018-11-28T05:25:37Z</time>
      </trkpt>
      <trkpt lat="42.3083" lon="2.47056">
        <ele>643.5</ele>
        <time>2018-11-28T05:25:39Z</time>
      </trkpt>
      <trkpt lat="42.3083" lon="2.47047">
        <ele>643</ele>
        <time>2018-11-28T05:25:42Z</time>
      </trkpt>
      <trkpt lat="42.30823" lon="2.47033">
        <ele>645</ele>
        <time>2018-11-28T05:25:47Z</time>
      </trkpt>
      <trkpt lat="42.30818" lon="2.47028">
        <ele>644.6</ele>
        <time>2018-11-28T05:25:49Z</time>
      </trkpt>
      <trkpt lat="42.30815" lon="2.47016">
        <ele>640.6</ele>
        <time>2018-11-28T05:25:53Z</time>
      </trkpt>
      <trkpt lat="42.3081" lon="2.47018">
        <ele>638.3</ele>
        <time>2018-11-28T05:25:55Z</time>
      </trkpt>
      <trkpt lat="42.30806" lon="2.47016">
        <ele>637.5</ele>
        <time>2018-11-28T05:25:57Z</time>
      </trkpt>
      <trkpt lat="42.30798" lon="2.47017">
        <ele>634</ele>
        <time>2018-11-28T05:26:00Z</time>
      </trkpt>
      <trkpt lat="42.30793" lon="2.47001">
        <ele>631.8</ele>
        <time>2018-11-28T05:26:05Z</time>
      </trkpt>
      <trkpt lat="42.30795" lon="2.46998">
        <ele>631.7</ele>
        <time>2018-11-28T05:26:06Z</time>
      </trkpt>
      <trkpt lat="42.30793" lon="2.46992">
        <ele>630</ele>
        <time>2018-11-28T05:26:08Z</time>
      </trkpt>
      <trkpt lat="42.30787" lon="2.46983">
        <ele>627.2</ele>
        <time>2018-11-28T05:26:11Z</time>
      </trkpt>
      <trkpt lat="42.30788" lon="2.46979">
        <ele>626.5</ele>
        <time>2018-11-28T05:26:13Z</time>
      </trkpt>
      <trkpt lat="42.30786" lon="2.46969">
        <ele>625.1</ele>
        <time>2018-11-28T05:26:16Z</time>
      </trkpt>
      <trkpt lat="42.30777" lon="2.46966">
        <ele>624.2</ele>
        <time>2018-11-28T05:26:20Z</time>
      </trkpt>
      <trkpt lat="42.30774" lon="2.46962">
        <ele>623.2</ele>
        <time>2018-11-28T05:26:21Z</time>
      </trkpt>
      <trkpt lat="42.30769" lon="2.46965">
        <ele>621.8</ele>
        <time>2018-11-28T05:26:24Z</time>
      </trkpt>
      <trkpt lat="42.30765" lon="2.46957">
        <ele>620.7</ele>
        <time>2018-11-28T05:26:26Z</time>
      </trkpt>
      <trkpt lat="42.30757" lon="2.46955">
        <ele>620</ele>
        <time>2018-11-28T05:26:30Z</time>
      </trkpt>
      <trkpt lat="42.30755" lon="2.46949">
        <ele>619.8</ele>
        <time>2018-11-28T05:26:32Z</time>
      </trkpt>
      <trkpt lat="42.30739" lon="2.46935">
        <ele>619.8</ele>
        <time>2018-11-28T05:26:39Z</time>
      </trkpt>
      <trkpt lat="42.30732" lon="2.46933">
        <ele>619.3</ele>
        <time>2018-11-28T05:26:42Z</time>
      </trkpt>
      <trkpt lat="42.30728" lon="2.46931">
        <ele>619.4</ele>
        <time>2018-11-28T05:26:44Z</time>
      </trkpt>
      <trkpt lat="42.30728" lon="2.4693">
        <ele>619.2</ele>
        <time>2018-11-28T05:26:44Z</time>
      </trkpt>
      <trkpt lat="42.30719" lon="2.46931">
        <ele>619</ele>
        <time>2018-11-28T05:26:48Z</time>
      </trkpt>
      <trkpt lat="42.30713" lon="2.46925">
        <ele>619.4</ele>
        <time>2018-11-28T05:26:51Z</time>
      </trkpt>
      <trkpt lat="42.30711" lon="2.46921">
        <ele>619.2</ele>
        <time>2018-11-28T05:26:53Z</time>
      </trkpt>
      <trkpt lat="42.30703" lon="2.46917">
        <ele>619.2</ele>
        <time>2018-11-28T05:26:56Z</time>
      </trkpt>
      <trkpt lat="42.30693" lon="2.46901">
        <ele>616.9</ele>
        <time>2018-11-28T05:27:02Z</time>
      </trkpt>
      <trkpt lat="42.3069" lon="2.4689">
        <ele>616.1</ele>
        <time>2018-11-28T05:27:06Z</time>
      </trkpt>
      <trkpt lat="42.30688" lon="2.46886">
        <ele>616</ele>
        <time>2018-11-28T05:27:07Z</time>
      </trkpt>
      <trkpt lat="42.3068" lon="2.46882">
        <ele>614.2</ele>
        <time>2018-11-28T05:27:10Z</time>
      </trkpt>
      <trkpt lat="42.30676" lon="2.46875">
        <ele>612.7</ele>
        <time>2018-11-28T05:27:13Z</time>
      </trkpt>
      <trkpt lat="42.30664" lon="2.46864">
        <ele>611.1</ele>
        <time>2018-11-28T05:27:19Z</time>
      </trkpt>
      <trkpt lat="42.30655" lon="2.46854">
        <ele>609</ele>
        <time>2018-11-28T05:27:23Z</time>
      </trkpt>
      <trkpt lat="42.3065" lon="2.46842">
        <ele>606.6</ele>
        <time>2018-11-28T05:27:27Z</time>
      </trkpt>
      <trkpt lat="42.3065" lon="2.46819">
        <ele>605</ele>
        <time>2018-11-28T05:27:34Z</time>
      </trkpt>
      <trkpt lat="42.30653" lon="2.46814">
        <ele>603.7</ele>
        <time>2018-11-28T05:27:36Z</time>
      </trkpt>
      <trkpt lat="42.30656" lon="2.46816">
        <ele>602.9</ele>
        <time>2018-11-28T05:27:38Z</time>
      </trkpt>
      <trkpt lat="42.30661" lon="2.46814">
        <ele>601.8</ele>
        <time>2018-11-28T05:27:40Z</time>
      </trkpt>
      <trkpt lat="42.30662" lon="2.46807">
        <ele>600.4</ele>
        <time>2018-11-28T05:27:42Z</time>
      </trkpt>
      <trkpt lat="42.30668" lon="2.46785">
        <ele>597.5</ele>
        <time>2018-11-28T05:27:49Z</time>
      </trkpt>
      <trkpt lat="42.3067" lon="2.4678">
        <ele>596.8</ele>
        <time>2018-11-28T05:27:51Z</time>
      </trkpt>
      <trkpt lat="42.3067" lon="2.46769">
        <ele>596</ele>
        <time>2018-11-28T05:27:54Z</time>
      </trkpt>
      <trkpt lat="42.30666" lon="2.4676">
        <ele>594.9</ele>
        <time>2018-11-28T05:27:57Z</time>
      </trkpt>
      <trkpt lat="42.30661" lon="2.46756">
        <ele>593.3</ele>
        <time>2018-11-28T05:27:59Z</time>
      </trkpt>
      <trkpt lat="42.3066" lon="2.46749">
        <ele>592.6</ele>
        <time>2018-11-28T05:28:01Z</time>
      </trkpt>
      <trkpt lat="42.30666" lon="2.46718">
        <ele>590.2</ele>
        <time>2018-11-28T05:28:11Z</time>
      </trkpt>
      <trkpt lat="42.30663" lon="2.46701">
        <ele>588.8</ele>
        <time>2018-11-28T05:28:16Z</time>
      </trkpt>
      <trkpt lat="42.3066" lon="2.467">
        <ele>588.8</ele>
        <time>2018-11-28T05:28:17Z</time>
      </trkpt>
      <trkpt lat="42.30651" lon="2.46711">
        <ele>589.6</ele>
        <time>2018-11-28T05:28:22Z</time>
      </trkpt>
      <trkpt lat="42.30652" lon="2.46713">
        <ele>590.9</ele>
        <time>2018-11-28T05:28:23Z</time>
      </trkpt>
      <trkpt lat="42.30653" lon="2.46703">
        <ele>592.1</ele>
        <time>2018-11-28T05:28:26Z</time>
      </trkpt>
      <trkpt lat="42.30659" lon="2.46682">
        <ele>595.3</ele>
        <time>2018-11-28T05:28:32Z</time>
      </trkpt>
      <trkpt lat="42.30657" lon="2.46678">
        <ele>596.1</ele>
        <time>2018-11-28T05:28:34Z</time>
      </trkpt>
      <trkpt lat="42.3065" lon="2.46665">
        <ele>598.9</ele>
        <time>2018-11-28T05:28:39Z</time>
      </trkpt>
      <trkpt lat="42.30649" lon="2.46652">
        <ele>601.2</ele>
        <time>2018-11-28T05:28:43Z</time>
      </trkpt>
      <trkpt lat="42.30647" lon="2.46644">
        <ele>603.1</ele>
        <time>2018-11-28T05:28:45Z</time>
      </trkpt>
      <trkpt lat="42.30642" lon="2.46638">
        <ele>604.5</ele>
        <time>2018-11-28T05:28:48Z</time>
      </trkpt>
      <trkpt lat="42.30648" lon="2.46618">
        <ele>606.2</ele>
        <time>2018-11-28T05:28:54Z</time>
      </trkpt>
      <trkpt lat="42.30645" lon="2.46608">
        <ele>606.4</ele>
        <time>2018-11-28T05:28:57Z</time>
      </trkpt>
      <trkpt lat="42.30638" lon="2.46603">
        <ele>606.8</ele>
        <time>2018-11-28T05:29:00Z</time>
      </trkpt>
      <trkpt lat="42.30636" lon="2.46592">
        <ele>607.3</ele>
        <time>2018-11-28T05:29:03Z</time>
      </trkpt>
      <trkpt lat="42.30639" lon="2.46582">
        <ele>607.8</ele>
        <time>2018-11-28T05:29:07Z</time>
      </trkpt>
      <trkpt lat="42.3064" lon="2.46566">
        <ele>609.6</ele>
        <time>2018-11-28T05:29:11Z</time>
      </trkpt>
      <trkpt lat="42.30639" lon="2.46556">
        <ele>610.1</ele>
        <time>2018-11-28T05:29:14Z</time>
      </trkpt>
      <trkpt lat="42.30642" lon="2.46526">
        <ele>612.3</ele>
        <time>2018-11-28T05:29:23Z</time>
      </trkpt>
      <trkpt lat="42.30645" lon="2.46501">
        <ele>614.5</ele>
        <time>2018-11-28T05:29:31Z</time>
      </trkpt>
      <trkpt lat="42.30644" lon="2.4649">
        <ele>615.9</ele>
        <time>2018-11-28T05:29:34Z</time>
      </trkpt>
      <trkpt lat="42.30646" lon="2.46485">
        <ele>616.4</ele>
        <time>2018-11-28T05:29:36Z</time>
      </trkpt>
      <trkpt lat="42.30648" lon="2.46476">
        <ele>617.2</ele>
        <time>2018-11-28T05:29:39Z</time>
      </trkpt>
      <trkpt lat="42.30647" lon="2.46452">
        <ele>618.3</ele>
        <time>2018-11-28T05:29:46Z</time>
      </trkpt>
      <trkpt lat="42.30648" lon="2.46448">
        <ele>618.4</ele>
        <time>2018-11-28T05:29:47Z</time>
      </trkpt>
      <trkpt lat="42.30645" lon="2.46438">
        <ele>618.4</ele>
        <time>2018-11-28T05:29:50Z</time>
      </trkpt>
      <trkpt lat="42.30643" lon="2.46421">
        <ele>619.5</ele>
        <time>2018-11-28T05:29:55Z</time>
      </trkpt>
      <trkpt lat="42.3064" lon="2.46413">
        <ele>620.5</ele>
        <time>2018-11-28T05:29:58Z</time>
      </trkpt>
      <trkpt lat="42.30641" lon="2.46393">
        <ele>622.7</ele>
        <time>2018-11-28T05:30:04Z</time>
      </trkpt>
      <trkpt lat="42.30639" lon="2.46383">
        <ele>624.1</ele>
        <time>2018-11-28T05:30:07Z</time>
      </trkpt>
      <trkpt lat="42.30639" lon="2.46378">
        <ele>623.9</ele>
        <time>2018-11-28T05:30:09Z</time>
      </trkpt>
      <trkpt lat="42.30634" lon="2.46348">
        <ele>625.9</ele>
        <time>2018-11-28T05:30:18Z</time>
      </trkpt>
      <trkpt lat="42.30631" lon="2.46338">
        <ele>626.8</ele>
        <time>2018-11-28T05:30:21Z</time>
      </trkpt>
      <trkpt lat="42.30626" lon="2.46313">
        <ele>628.8</ele>
        <time>2018-11-28T05:30:29Z</time>
      </trkpt>
      <trkpt lat="42.30622" lon="2.46288">
        <ele>630.4</ele>
        <time>2018-11-28T05:30:36Z</time>
      </trkpt>
      <trkpt lat="42.30622" lon="2.46281">
        <ele>630.9</ele>
        <time>2018-11-28T05:30:38Z</time>
      </trkpt>
      <trkpt lat="42.30621" lon="2.46272">
        <ele>631.5</ele>
        <time>2018-11-28T05:30:41Z</time>
      </trkpt>
      <trkpt lat="42.3062" lon="2.46249">
        <ele>632.2</ele>
        <time>2018-11-28T05:30:48Z</time>
      </trkpt>
      <trkpt lat="42.3062" lon="2.4624">
        <ele>633.1</ele>
        <time>2018-11-28T05:30:51Z</time>
      </trkpt>
      <trkpt lat="42.30618" lon="2.46231">
        <ele>633.4</ele>
        <time>2018-11-28T05:30:53Z</time>
      </trkpt>
      <trkpt lat="42.30615" lon="2.46218">
        <ele>634.4</ele>
        <time>2018-11-28T05:30:57Z</time>
      </trkpt>
      <trkpt lat="42.30607" lon="2.46199">
        <ele>635.6</ele>
        <time>2018-11-28T05:31:04Z</time>
      </trkpt>
      <trkpt lat="42.30607" lon="2.4619">
        <ele>636.7</ele>
        <time>2018-11-28T05:31:07Z</time>
      </trkpt>
      <trkpt lat="42.30604" lon="2.46176">
        <ele>637.8</ele>
        <time>2018-11-28T05:31:11Z</time>
      </trkpt>
      <trkpt lat="42.30601" lon="2.46167">
        <ele>638.4</ele>
        <time>2018-11-28T05:31:14Z</time>
      </trkpt>
      <trkpt lat="42.306" lon="2.46163">
        <ele>638.5</ele>
        <time>2018-11-28T05:31:15Z</time>
      </trkpt>
      <trkpt lat="42.30595" lon="2.46154">
        <ele>639.5</ele>
        <time>2018-11-28T05:31:19Z</time>
      </trkpt>
      <trkpt lat="42.30593" lon="2.46146">
        <ele>640.3</ele>
        <time>2018-11-28T05:31:21Z</time>
      </trkpt>
      <trkpt lat="42.3059" lon="2.4614">
        <ele>641.2</ele>
        <time>2018-11-28T05:31:23Z</time>
      </trkpt>
      <trkpt lat="42.30593" lon="2.4612">
        <ele>642.4</ele>
        <time>2018-11-28T05:31:29Z</time>
      </trkpt>
      <trkpt lat="42.30596" lon="2.46103">
        <ele>643.6</ele>
        <time>2018-11-28T05:31:34Z</time>
      </trkpt>
      <trkpt lat="42.30597" lon="2.46065">
        <ele>647.1</ele>
        <time>2018-11-28T05:31:46Z</time>
      </trkpt>
      <trkpt lat="42.30595" lon="2.46056">
        <ele>648</ele>
        <time>2018-11-28T05:31:48Z</time>
      </trkpt>
      <trkpt lat="42.30597" lon="2.46047">
        <ele>648.8</ele>
        <time>2018-11-28T05:31:51Z</time>
      </trkpt>
      <trkpt lat="42.30595" lon="2.46034">
        <ele>649.4</ele>
        <time>2018-11-28T05:31:55Z</time>
      </trkpt>
      <trkpt lat="42.30595" lon="2.46017">
        <ele>651</ele>
        <time>2018-11-28T05:32:00Z</time>
      </trkpt>
      <trkpt lat="42.30591" lon="2.46012">
        <ele>651.2</ele>
        <time>2018-11-28T05:32:02Z</time>
      </trkpt>
      <trkpt lat="42.30589" lon="2.46007">
        <ele>651.5</ele>
        <time>2018-11-28T05:32:04Z</time>
      </trkpt>
      <trkpt lat="42.30594" lon="2.46">
        <ele>652.4</ele>
        <time>2018-11-28T05:32:07Z</time>
      </trkpt>
      <trkpt lat="42.30592" lon="2.46001">
        <ele>652.6</ele>
        <time>2018-11-28T05:32:07Z</time>
      </trkpt>
      <trkpt lat="42.30595" lon="2.45998">
        <ele>652.6</ele>
        <time>2018-11-28T05:32:09Z</time>
      </trkpt>
      <trkpt lat="42.30583" lon="2.45976">
        <ele>653</ele>
        <time>2018-11-28T05:32:17Z</time>
      </trkpt>
      <trkpt lat="42.30578" lon="2.45953">
        <ele>653.3</ele>
        <time>2018-11-28T05:32:24Z</time>
      </trkpt>
      <trkpt lat="42.30579" lon="2.45934">
        <ele>652.9</ele>
        <time>2018-11-28T05:32:30Z</time>
      </trkpt>
      <trkpt lat="42.30581" lon="2.45923">
        <ele>652.6</ele>
        <time>2018-11-28T05:32:33Z</time>
      </trkpt>
      <trkpt lat="42.30575" lon="2.45905">
        <ele>652.8</ele>
        <time>2018-11-28T05:32:39Z</time>
      </trkpt>
      <trkpt lat="42.30576" lon="2.45895">
        <ele>652.8</ele>
        <time>2018-11-28T05:32:42Z</time>
      </trkpt>
      <trkpt lat="42.30576" lon="2.45861">
        <ele>652.8</ele>
        <time>2018-11-28T05:32:52Z</time>
      </trkpt>
      <trkpt lat="42.30566" lon="2.458">
        <ele>654</ele>
        <time>2018-11-28T05:33:11Z</time>
      </trkpt>
      <trkpt lat="42.30565" lon="2.45777">
        <ele>654.1</ele>
        <time>2018-11-28T05:33:18Z</time>
      </trkpt>
      <trkpt lat="42.30566" lon="2.45772">
        <ele>654.5</ele>
        <time>2018-11-28T05:33:19Z</time>
      </trkpt>
      <trkpt lat="42.30571" lon="2.4574">
        <ele>654.5</ele>
        <time>2018-11-28T05:33:29Z</time>
      </trkpt>
      <trkpt lat="42.30574" lon="2.45724">
        <ele>654.1</ele>
        <time>2018-11-28T05:33:34Z</time>
      </trkpt>
      <trkpt lat="42.30588" lon="2.45696">
        <ele>653.8</ele>
        <time>2018-11-28T05:33:44Z</time>
      </trkpt>
      <trkpt lat="42.30592" lon="2.45668">
        <ele>654.3</ele>
        <time>2018-11-28T05:33:52Z</time>
      </trkpt>
      <trkpt lat="42.30607" lon="2.45605">
        <ele>654.7</ele>
        <time>2018-11-28T05:34:12Z</time>
      </trkpt>
      <trkpt lat="42.30619" lon="2.45547">
        <ele>654.7</ele>
        <time>2018-11-28T05:34:29Z</time>
      </trkpt>
      <trkpt lat="42.30626" lon="2.45525">
        <ele>654.7</ele>
        <time>2018-11-28T05:34:37Z</time>
      </trkpt>
      <trkpt lat="42.30627" lon="2.45519">
        <ele>654.6</ele>
        <time>2018-11-28T05:34:38Z</time>
      </trkpt>
      <trkpt lat="42.30639" lon="2.45487">
        <ele>654.6</ele>
        <time>2018-11-28T05:34:49Z</time>
      </trkpt>
      <trkpt lat="42.30642" lon="2.45461">
        <ele>654.4</ele>
        <time>2018-11-28T05:34:57Z</time>
      </trkpt>
      <trkpt lat="42.30649" lon="2.45448">
        <ele>653.2</ele>
        <time>2018-11-28T05:35:02Z</time>
      </trkpt>
      <trkpt lat="42.30666" lon="2.45431">
        <ele>652.9</ele>
        <time>2018-11-28T05:35:10Z</time>
      </trkpt>
      <trkpt lat="42.30669" lon="2.45429">
        <ele>652.4</ele>
        <time>2018-11-28T05:35:11Z</time>
      </trkpt>
      <trkpt lat="42.30677" lon="2.45416">
        <ele>652.3</ele>
        <time>2018-11-28T05:35:16Z</time>
      </trkpt>
      <trkpt lat="42.30679" lon="2.4541">
        <ele>651.9</ele>
        <time>2018-11-28T05:35:18Z</time>
      </trkpt>
      <trkpt lat="42.30677" lon="2.45356">
        <ele>649.6</ele>
        <time>2018-11-28T05:35:34Z</time>
      </trkpt>
      <trkpt lat="42.30674" lon="2.45342">
        <ele>649.1</ele>
        <time>2018-11-28T05:35:39Z</time>
      </trkpt>
      <trkpt lat="42.30673" lon="2.45314">
        <ele>647.9</ele>
        <time>2018-11-28T05:35:47Z</time>
      </trkpt>
      <trkpt lat="42.30683" lon="2.45287">
        <ele>646.1</ele>
        <time>2018-11-28T05:35:56Z</time>
      </trkpt>
      <trkpt lat="42.30684" lon="2.45276">
        <ele>645.9</ele>
        <time>2018-11-28T05:35:59Z</time>
      </trkpt>
      <trkpt lat="42.3069" lon="2.45265">
        <ele>645.6</ele>
        <time>2018-11-28T05:36:03Z</time>
      </trkpt>
      <trkpt lat="42.30692" lon="2.45247">
        <ele>645.2</ele>
        <time>2018-11-28T05:36:09Z</time>
      </trkpt>
      <trkpt lat="42.3069" lon="2.45235">
        <ele>645.2</ele>
        <time>2018-11-28T05:36:12Z</time>
      </trkpt>
      <trkpt lat="42.30691" lon="2.45231">
        <ele>644.9</ele>
        <time>2018-11-28T05:36:13Z</time>
      </trkpt>
      <trkpt lat="42.30688" lon="2.45215">
        <ele>644.6</ele>
        <time>2018-11-28T05:36:18Z</time>
      </trkpt>
      <trkpt lat="42.30689" lon="2.45213">
        <ele>644.7</ele>
        <time>2018-11-28T05:36:19Z</time>
      </trkpt>
      <trkpt lat="42.30687" lon="2.45205">
        <ele>644.5</ele>
        <time>2018-11-28T05:36:21Z</time>
      </trkpt>
      <trkpt lat="42.30672" lon="2.4518">
        <ele>643.8</ele>
        <time>2018-11-28T05:36:31Z</time>
      </trkpt>
      <trkpt lat="42.30662" lon="2.45165">
        <ele>642.7</ele>
        <time>2018-11-28T05:36:37Z</time>
      </trkpt>
      <trkpt lat="42.30646" lon="2.45149">
        <ele>642</ele>
        <time>2018-11-28T05:36:45Z</time>
      </trkpt>
      <trkpt lat="42.30625" lon="2.45133">
        <ele>640.1</ele>
        <time>2018-11-28T05:36:55Z</time>
      </trkpt>
      <trkpt lat="42.30611" lon="2.45121">
        <ele>639.6</ele>
        <time>2018-11-28T05:37:01Z</time>
      </trkpt>
      <trkpt lat="42.3061" lon="2.45123">
        <ele>639.7</ele>
        <time>2018-11-28T05:37:02Z</time>
      </trkpt>
      <trkpt lat="42.30611" lon="2.45121">
        <ele>639.6</ele>
        <time>2018-11-28T05:37:03Z</time>
      </trkpt>
      <trkpt lat="42.30609" lon="2.45123">
        <ele>639.4</ele>
        <time>2018-11-28T05:37:04Z</time>
      </trkpt>
      <trkpt lat="42.30589" lon="2.45128">
        <ele>639</ele>
        <time>2018-11-28T05:37:12Z</time>
      </trkpt>
      <trkpt lat="42.30586" lon="2.45128">
        <ele>639</ele>
        <time>2018-11-28T05:37:13Z</time>
      </trkpt>
      <trkpt lat="42.30583" lon="2.45126">
        <ele>639.4</ele>
        <time>2018-11-28T05:37:14Z</time>
      </trkpt>
      <trkpt lat="42.30584" lon="2.45129">
        <ele>639.2</ele>
        <time>2018-11-28T05:37:15Z</time>
      </trkpt>
      <trkpt lat="42.30583" lon="2.45131">
        <ele>639.1</ele>
        <time>2018-11-28T05:37:16Z</time>
      </trkpt>
      <trkpt lat="42.30582" lon="2.45127">
        <ele>640.2</ele>
        <time>2018-11-28T05:37:17Z</time>
      </trkpt>
      <trkpt lat="42.3058" lon="2.45125">
        <ele>640</ele>
        <time>2018-11-28T05:37:18Z</time>
      </trkpt>
      <trkpt lat="42.3058" lon="2.45128">
        <ele>640.4</ele>
        <time>2018-11-28T05:37:19Z</time>
      </trkpt>
      <trkpt lat="42.30578" lon="2.45127">
        <ele>640.2</ele>
        <time>2018-11-28T05:37:20Z</time>
      </trkpt>
      <trkpt lat="42.30576" lon="2.45128">
        <ele>640.2</ele>
        <time>2018-11-28T05:37:21Z</time>
      </trkpt>
      <trkpt lat="42.30577" lon="2.45134">
        <ele>640.2</ele>
        <time>2018-11-28T05:37:23Z</time>
      </trkpt>
      <trkpt lat="42.30574" lon="2.45134">
        <ele>639.9</ele>
        <time>2018-11-28T05:37:24Z</time>
      </trkpt>
      <trkpt lat="42.30566" lon="2.45137">
        <ele>639.8</ele>
        <time>2018-11-28T05:37:28Z</time>
      </trkpt>
      <trkpt lat="42.30563" lon="2.45142">
        <ele>639.1</ele>
        <time>2018-11-28T05:37:30Z</time>
      </trkpt>
      <trkpt lat="42.30563" lon="2.4514">
        <ele>637.7</ele>
        <time>2018-11-28T05:37:30Z</time>
      </trkpt>
      <trkpt lat="42.3056" lon="2.45141">
        <ele>638.6</ele>
        <time>2018-11-28T05:37:31Z</time>
      </trkpt>
      <trkpt lat="42.30564" lon="2.45138">
        <ele>638.6</ele>
        <time>2018-11-28T05:37:33Z</time>
      </trkpt>
      <trkpt lat="42.30561" lon="2.45132">
        <ele>639.1</ele>
        <time>2018-11-28T05:37:36Z</time>
      </trkpt>
      <trkpt lat="42.30555" lon="2.45138">
        <ele>639.1</ele>
        <time>2018-11-28T05:37:38Z</time>
      </trkpt>
      <trkpt lat="42.30556" lon="2.45149">
        <ele>638.3</ele>
        <time>2018-11-28T05:37:42Z</time>
      </trkpt>
      <trkpt lat="42.30556" lon="2.45146">
        <ele>638.5</ele>
        <time>2018-11-28T05:37:42Z</time>
      </trkpt>
      <trkpt lat="42.30549" lon="2.45136">
        <ele>638.3</ele>
        <time>2018-11-28T05:37:46Z</time>
      </trkpt>
      <trkpt lat="42.30547" lon="2.45128">
        <ele>638.6</ele>
        <time>2018-11-28T05:37:49Z</time>
      </trkpt>
      <trkpt lat="42.30548" lon="2.45125">
        <ele>637.7</ele>
        <time>2018-11-28T05:37:50Z</time>
      </trkpt>
      <trkpt lat="42.30551" lon="2.45125">
        <ele>638</ele>
        <time>2018-11-28T05:37:51Z</time>
      </trkpt>
      <trkpt lat="42.30556" lon="2.45113">
        <ele>639.2</ele>
        <time>2018-11-28T05:37:55Z</time>
      </trkpt>
      <trkpt lat="42.30564" lon="2.45108">
        <ele>639.1</ele>
        <time>2018-11-28T05:37:59Z</time>
      </trkpt>
      <trkpt lat="42.30569" lon="2.45109">
        <ele>639.4</ele>
        <time>2018-11-28T05:38:01Z</time>
      </trkpt>
      <trkpt lat="42.30577" lon="2.45128">
        <ele>639.3</ele>
        <time>2018-11-28T05:38:07Z</time>
      </trkpt>
      <trkpt lat="42.30583" lon="2.45145">
        <ele>638.7</ele>
        <time>2018-11-28T05:38:13Z</time>
      </trkpt>
      <trkpt lat="42.30589" lon="2.45136">
        <ele>639.5</ele>
        <time>2018-11-28T05:38:16Z</time>
      </trkpt>
      <trkpt lat="42.30592" lon="2.45122">
        <ele>639.8</ele>
        <time>2018-11-28T05:38:21Z</time>
      </trkpt>
      <trkpt lat="42.30594" lon="2.45121">
        <ele>639.9</ele>
        <time>2018-11-28T05:38:22Z</time>
      </trkpt>
      <trkpt lat="42.30613" lon="2.45119">
        <ele>639.9</ele>
        <time>2018-11-28T05:38:29Z</time>
      </trkpt>
      <trkpt lat="42.30612" lon="2.45122">
        <ele>639.3</ele>
        <time>2018-11-28T05:38:30Z</time>
      </trkpt>
      <trkpt lat="42.30614" lon="2.45125">
        <ele>639.5</ele>
        <time>2018-11-28T05:38:31Z</time>
      </trkpt>
      <trkpt lat="42.30614" lon="2.45121">
        <ele>639.9</ele>
        <time>2018-11-28T05:38:33Z</time>
      </trkpt>
      <trkpt lat="42.30613" lon="2.45121">
        <ele>639.8</ele>
        <time>2018-11-28T05:38:33Z</time>
      </trkpt>
      <trkpt lat="42.30613" lon="2.45121">
        <ele>640.5</ele>
        <time>2018-11-28T05:38:33Z</time>
      </trkpt>
      <trkpt lat="42.3061" lon="2.45121">
        <ele>641</ele>
        <time>2018-11-28T05:38:35Z</time>
      </trkpt>
      <trkpt lat="42.30612" lon="2.45117">
        <ele>641.2</ele>
        <time>2018-11-28T05:38:36Z</time>
      </trkpt>
      <trkpt lat="42.30613" lon="2.45116">
        <ele>641.2</ele>
        <time>2018-11-28T05:38:36Z</time>
      </trkpt>
      <trkpt lat="42.30613" lon="2.45116">
        <ele>641</ele>
        <time>2018-11-28T05:38:37Z</time>
      </trkpt>
      <trkpt lat="42.30612" lon="2.45119">
        <ele>640.9</ele>
        <time>2018-11-28T05:38:37Z</time>
      </trkpt>
      <trkpt lat="42.30612" lon="2.45118">
        <ele>641.6</ele>
        <time>2018-11-28T05:38:38Z</time>
      </trkpt>
      <trkpt lat="42.30611" lon="2.45117">
        <ele>642.8</ele>
        <time>2018-11-28T05:38:38Z</time>
      </trkpt>
      <trkpt lat="42.30612" lon="2.45118">
        <ele>642.3</ele>
        <time>2018-11-28T05:38:39Z</time>
      </trkpt>
      <trkpt lat="42.30613" lon="2.45118">
        <ele>642.5</ele>
        <time>2018-11-28T05:38:39Z</time>
      </trkpt>
      <trkpt lat="42.3061" lon="2.45101">
        <ele>640.4</ele>
        <time>2018-11-28T05:38:44Z</time>
      </trkpt>
      <trkpt lat="42.30606" lon="2.45089">
        <ele>638.5</ele>
        <time>2018-11-28T05:38:48Z</time>
      </trkpt>
      <trkpt lat="42.30605" lon="2.45079">
        <ele>637.3</ele>
        <time>2018-11-28T05:38:51Z</time>
      </trkpt>
      <trkpt lat="42.30608" lon="2.45076">
        <ele>636</ele>
        <time>2018-11-28T05:38:52Z</time>
      </trkpt>
      <trkpt lat="42.30606" lon="2.45055">
        <ele>632.7</ele>
        <time>2018-11-28T05:38:58Z</time>
      </trkpt>
      <trkpt lat="42.30609" lon="2.4505">
        <ele>631.9</ele>
        <time>2018-11-28T05:39:00Z</time>
      </trkpt>
      <trkpt lat="42.30613" lon="2.45028">
        <ele>628.7</ele>
        <time>2018-11-28T05:39:07Z</time>
      </trkpt>
      <trkpt lat="42.30613" lon="2.45027">
        <ele>628.3</ele>
        <time>2018-11-28T05:39:07Z</time>
      </trkpt>
      <trkpt lat="42.30616" lon="2.45013">
        <ele>626.7</ele>
        <time>2018-11-28T05:39:12Z</time>
      </trkpt>
      <trkpt lat="42.30625" lon="2.44969">
        <ele>620.6</ele>
        <time>2018-11-28T05:39:25Z</time>
      </trkpt>
      <trkpt lat="42.30624" lon="2.44968">
        <ele>620.4</ele>
        <time>2018-11-28T05:39:26Z</time>
      </trkpt>
      <trkpt lat="42.30625" lon="2.44965">
        <ele>619.6</ele>
        <time>2018-11-28T05:39:26Z</time>
      </trkpt>
      <trkpt lat="42.30629" lon="2.44957">
        <ele>618.5</ele>
        <time>2018-11-28T05:39:29Z</time>
      </trkpt>
      <trkpt lat="42.30632" lon="2.44923">
        <ele>613.6</ele>
        <time>2018-11-28T05:39:40Z</time>
      </trkpt>
      <trkpt lat="42.3063" lon="2.44915">
        <ele>612.6</ele>
        <time>2018-11-28T05:39:42Z</time>
      </trkpt>
      <trkpt lat="42.30632" lon="2.449">
        <ele>610.5</ele>
        <time>2018-11-28T05:39:47Z</time>
      </trkpt>
      <trkpt lat="42.30631" lon="2.44889">
        <ele>609.3</ele>
        <time>2018-11-28T05:39:50Z</time>
      </trkpt>
      <trkpt lat="42.30634" lon="2.44873">
        <ele>608.3</ele>
        <time>2018-11-28T05:39:55Z</time>
      </trkpt>
      <trkpt lat="42.30645" lon="2.44849">
        <ele>607</ele>
        <time>2018-11-28T05:40:03Z</time>
      </trkpt>
      <trkpt lat="42.30646" lon="2.4481">
        <ele>605.4</ele>
        <time>2018-11-28T05:40:15Z</time>
      </trkpt>
      <trkpt lat="42.30641" lon="2.44774">
        <ele>605.1</ele>
        <time>2018-11-28T05:40:26Z</time>
      </trkpt>
      <trkpt lat="42.30643" lon="2.44751">
        <ele>604.5</ele>
        <time>2018-11-28T05:40:32Z</time>
      </trkpt>
      <trkpt lat="42.30644" lon="2.44752">
        <ele>605.2</ele>
        <time>2018-11-28T05:40:33Z</time>
      </trkpt>
      <trkpt lat="42.30644" lon="2.44746">
        <ele>605.2</ele>
        <time>2018-11-28T05:40:35Z</time>
      </trkpt>
      <trkpt lat="42.30651" lon="2.44721">
        <ele>603.9</ele>
        <time>2018-11-28T05:40:43Z</time>
      </trkpt>
      <trkpt lat="42.30659" lon="2.447">
        <ele>603.4</ele>
        <time>2018-11-28T05:40:50Z</time>
      </trkpt>
      <trkpt lat="42.30663" lon="2.44672">
        <ele>602.1</ele>
        <time>2018-11-28T05:40:58Z</time>
      </trkpt>
      <trkpt lat="42.30665" lon="2.44658">
        <ele>600.7</ele>
        <time>2018-11-28T05:41:02Z</time>
      </trkpt>
      <trkpt lat="42.30675" lon="2.44641">
        <ele>599.1</ele>
        <time>2018-11-28T05:41:09Z</time>
      </trkpt>
      <trkpt lat="42.30675" lon="2.44641">
        <ele>598.8</ele>
        <time>2018-11-28T05:41:09Z</time>
      </trkpt>
      <trkpt lat="42.30688" lon="2.44613">
        <ele>598.2</ele>
        <time>2018-11-28T05:41:19Z</time>
      </trkpt>
      <trkpt lat="42.30697" lon="2.44605">
        <ele>598.2</ele>
        <time>2018-11-28T05:41:23Z</time>
      </trkpt>
      <trkpt lat="42.30699" lon="2.44601">
        <ele>597.3</ele>
        <time>2018-11-28T05:41:25Z</time>
      </trkpt>
      <trkpt lat="42.30706" lon="2.44596">
        <ele>596.3</ele>
        <time>2018-11-28T05:41:28Z</time>
      </trkpt>
      <trkpt lat="42.30713" lon="2.44596">
        <ele>596</ele>
        <time>2018-11-28T05:41:31Z</time>
      </trkpt>
      <trkpt lat="42.30718" lon="2.44599">
        <ele>596</ele>
        <time>2018-11-28T05:41:33Z</time>
      </trkpt>
      <trkpt lat="42.30727" lon="2.44596">
        <ele>594.7</ele>
        <time>2018-11-28T05:41:36Z</time>
      </trkpt>
      <trkpt lat="42.30739" lon="2.44595">
        <ele>593.7</ele>
        <time>2018-11-28T05:41:41Z</time>
      </trkpt>
      <trkpt lat="42.30746" lon="2.4459">
        <ele>593.3</ele>
        <time>2018-11-28T05:41:44Z</time>
      </trkpt>
      <trkpt lat="42.30748" lon="2.44587">
        <ele>593.3</ele>
        <time>2018-11-28T05:41:46Z</time>
      </trkpt>
      <trkpt lat="42.30757" lon="2.44584">
        <ele>592.6</ele>
        <time>2018-11-28T05:41:49Z</time>
      </trkpt>
      <trkpt lat="42.30763" lon="2.44587">
        <ele>591.8</ele>
        <time>2018-11-28T05:41:52Z</time>
      </trkpt>
      <trkpt lat="42.30772" lon="2.44603">
        <ele>590.1</ele>
        <time>2018-11-28T05:41:58Z</time>
      </trkpt>
      <trkpt lat="42.3078" lon="2.44616">
        <ele>588.2</ele>
        <time>2018-11-28T05:42:03Z</time>
      </trkpt>
      <trkpt lat="42.30791" lon="2.44618">
        <ele>591</ele>
        <time>2018-11-28T05:42:07Z</time>
      </trkpt>
      <trkpt lat="42.30796" lon="2.44617">
        <ele>591.5</ele>
        <time>2018-11-28T05:42:09Z</time>
      </trkpt>
      <trkpt lat="42.30797" lon="2.44607">
        <ele>593.1</ele>
        <time>2018-11-28T05:42:12Z</time>
      </trkpt>
      <trkpt lat="42.30794" lon="2.44605">
        <ele>593.9</ele>
        <time>2018-11-28T05:42:14Z</time>
      </trkpt>
      <trkpt lat="42.30793" lon="2.44583">
        <ele>596.7</ele>
        <time>2018-11-28T05:42:20Z</time>
      </trkpt>
      <trkpt lat="42.30787" lon="2.4458">
        <ele>597.6</ele>
        <time>2018-11-28T05:42:22Z</time>
      </trkpt>
      <trkpt lat="42.30778" lon="2.44556">
        <ele>600</ele>
        <time>2018-11-28T05:42:31Z</time>
      </trkpt>
      <trkpt lat="42.30772" lon="2.44547">
        <ele>601.3</ele>
        <time>2018-11-28T05:42:34Z</time>
      </trkpt>
      <trkpt lat="42.30774" lon="2.44538">
        <ele>601.3</ele>
        <time>2018-11-28T05:42:37Z</time>
      </trkpt>
      <trkpt lat="42.30773" lon="2.44522">
        <ele>601</ele>
        <time>2018-11-28T05:42:42Z</time>
      </trkpt>
      <trkpt lat="42.30775" lon="2.44517">
        <ele>600.8</ele>
        <time>2018-11-28T05:42:43Z</time>
      </trkpt>
      <trkpt lat="42.30784" lon="2.44502">
        <ele>600.6</ele>
        <time>2018-11-28T05:42:49Z</time>
      </trkpt>
      <trkpt lat="42.30794" lon="2.44478">
        <ele>598.9</ele>
        <time>2018-11-28T05:42:57Z</time>
      </trkpt>
      <trkpt lat="42.30803" lon="2.44455">
        <ele>596.4</ele>
        <time>2018-11-28T05:43:05Z</time>
      </trkpt>
      <trkpt lat="42.30803" lon="2.4445">
        <ele>595.6</ele>
        <time>2018-11-28T05:43:06Z</time>
      </trkpt>
      <trkpt lat="42.30807" lon="2.44442">
        <ele>594.6</ele>
        <time>2018-11-28T05:43:09Z</time>
      </trkpt>
      <trkpt lat="42.30808" lon="2.44431">
        <ele>593.2</ele>
        <time>2018-11-28T05:43:12Z</time>
      </trkpt>
      <trkpt lat="42.30804" lon="2.44421">
        <ele>592.8</ele>
        <time>2018-11-28T05:43:16Z</time>
      </trkpt>
      <trkpt lat="42.3079" lon="2.44397">
        <ele>591.4</ele>
        <time>2018-11-28T05:43:25Z</time>
      </trkpt>
      <trkpt lat="42.30781" lon="2.44375">
        <ele>588.7</ele>
        <time>2018-11-28T05:43:32Z</time>
      </trkpt>
      <trkpt lat="42.30781" lon="2.44358">
        <ele>586.7</ele>
        <time>2018-11-28T05:43:37Z</time>
      </trkpt>
      <trkpt lat="42.30789" lon="2.4432">
        <ele>584.6</ele>
        <time>2018-11-28T05:43:49Z</time>
      </trkpt>
      <trkpt lat="42.30788" lon="2.44312">
        <ele>584.1</ele>
        <time>2018-11-28T05:43:51Z</time>
      </trkpt>
      <trkpt lat="42.30786" lon="2.44306">
        <ele>583.8</ele>
        <time>2018-11-28T05:43:53Z</time>
      </trkpt>
      <trkpt lat="42.30777" lon="2.443">
        <ele>583.9</ele>
        <time>2018-11-28T05:43:57Z</time>
      </trkpt>
      <trkpt lat="42.30768" lon="2.44302">
        <ele>584.6</ele>
        <time>2018-11-28T05:44:01Z</time>
      </trkpt>
      <trkpt lat="42.30758" lon="2.44312">
        <ele>586</ele>
        <time>2018-11-28T05:44:06Z</time>
      </trkpt>
      <trkpt lat="42.30752" lon="2.44324">
        <ele>586.5</ele>
        <time>2018-11-28T05:44:10Z</time>
      </trkpt>
      <trkpt lat="42.30749" lon="2.44333">
        <ele>586.8</ele>
        <time>2018-11-28T05:44:13Z</time>
      </trkpt>
      <trkpt lat="42.30744" lon="2.44337">
        <ele>587</ele>
        <time>2018-11-28T05:44:16Z</time>
      </trkpt>
      <trkpt lat="42.3074" lon="2.44342">
        <ele>587.5</ele>
        <time>2018-11-28T05:44:18Z</time>
      </trkpt>
      <trkpt lat="42.30731" lon="2.44379">
        <ele>590.3</ele>
        <time>2018-11-28T05:44:29Z</time>
      </trkpt>
      <trkpt lat="42.30722" lon="2.44391">
        <ele>591.4</ele>
        <time>2018-11-28T05:44:34Z</time>
      </trkpt>
      <trkpt lat="42.30716" lon="2.44393">
        <ele>591.5</ele>
        <time>2018-11-28T05:44:37Z</time>
      </trkpt>
      <trkpt lat="42.30712" lon="2.44398">
        <ele>591.5</ele>
        <time>2018-11-28T05:44:39Z</time>
      </trkpt>
      <trkpt lat="42.30702" lon="2.444">
        <ele>592.1</ele>
        <time>2018-11-28T05:44:43Z</time>
      </trkpt>
      <trkpt lat="42.30701" lon="2.44401">
        <ele>592.2</ele>
        <time>2018-11-28T05:44:43Z</time>
      </trkpt>
      <trkpt lat="42.30693" lon="2.44406">
        <ele>592</ele>
        <time>2018-11-28T05:44:47Z</time>
      </trkpt>
      <trkpt lat="42.3069" lon="2.4441">
        <ele>592.3</ele>
        <time>2018-11-28T05:44:49Z</time>
      </trkpt>
      <trkpt lat="42.30674" lon="2.44413">
        <ele>592.7</ele>
        <time>2018-11-28T05:44:55Z</time>
      </trkpt>
      <trkpt lat="42.30626" lon="2.44441">
        <ele>593.9</ele>
        <time>2018-11-28T05:45:16Z</time>
      </trkpt>
      <trkpt lat="42.30618" lon="2.4445">
        <ele>594.5</ele>
        <time>2018-11-28T05:45:20Z</time>
      </trkpt>
      <trkpt lat="42.30614" lon="2.4445">
        <ele>595</ele>
        <time>2018-11-28T05:45:21Z</time>
      </trkpt>
      <trkpt lat="42.30587" lon="2.44475">
        <ele>597.3</ele>
        <time>2018-11-28T05:45:35Z</time>
      </trkpt>
      <trkpt lat="42.30571" lon="2.44477">
        <ele>598.7</ele>
        <time>2018-11-28T05:45:41Z</time>
      </trkpt>
      <trkpt lat="42.30566" lon="2.44475">
        <ele>598.8</ele>
        <time>2018-11-28T05:45:43Z</time>
      </trkpt>
      <trkpt lat="42.30542" lon="2.44481">
        <ele>599.5</ele>
        <time>2018-11-28T05:45:53Z</time>
      </trkpt>
      <trkpt lat="42.30541" lon="2.44481">
        <ele>599.5</ele>
        <time>2018-11-28T05:45:54Z</time>
      </trkpt>
      <trkpt lat="42.30528" lon="2.44486">
        <ele>600.1</ele>
        <time>2018-11-28T05:45:59Z</time>
      </trkpt>
      <trkpt lat="42.30504" lon="2.44495">
        <ele>601.6</ele>
        <time>2018-11-28T05:46:09Z</time>
      </trkpt>
      <trkpt lat="42.30483" lon="2.44499">
        <ele>602.3</ele>
        <time>2018-11-28T05:46:17Z</time>
      </trkpt>
      <trkpt lat="42.3048" lon="2.44499">
        <ele>602.7</ele>
        <time>2018-11-28T05:46:18Z</time>
      </trkpt>
      <trkpt lat="42.30472" lon="2.44503">
        <ele>603.6</ele>
        <time>2018-11-28T05:46:22Z</time>
      </trkpt>
      <trkpt lat="42.3046" lon="2.44503">
        <ele>604.7</ele>
        <time>2018-11-28T05:46:27Z</time>
      </trkpt>
      <trkpt lat="42.3045" lon="2.44501">
        <ele>604.9</ele>
        <time>2018-11-28T05:46:31Z</time>
      </trkpt>
      <trkpt lat="42.30436" lon="2.44486">
        <ele>606.6</ele>
        <time>2018-11-28T05:46:38Z</time>
      </trkpt>
      <trkpt lat="42.3042" lon="2.44464">
        <ele>606.1</ele>
        <time>2018-11-28T05:46:47Z</time>
      </trkpt>
      <trkpt lat="42.30416" lon="2.4446">
        <ele>606.6</ele>
        <time>2018-11-28T05:46:49Z</time>
      </trkpt>
      <trkpt lat="42.30414" lon="2.44453">
        <ele>607.3</ele>
        <time>2018-11-28T05:46:51Z</time>
      </trkpt>
      <trkpt lat="42.30394" lon="2.44434">
        <ele>610.4</ele>
        <time>2018-11-28T05:47:01Z</time>
      </trkpt>
      <trkpt lat="42.30388" lon="2.44432">
        <ele>611.1</ele>
        <time>2018-11-28T05:47:03Z</time>
      </trkpt>
      <trkpt lat="42.30368" lon="2.44424">
        <ele>614.5</ele>
        <time>2018-11-28T05:47:12Z</time>
      </trkpt>
      <trkpt lat="42.30364" lon="2.4442">
        <ele>615.1</ele>
        <time>2018-11-28T05:47:14Z</time>
      </trkpt>
      <trkpt lat="42.30339" lon="2.44384">
        <ele>620.3</ele>
        <time>2018-11-28T05:47:28Z</time>
      </trkpt>
      <trkpt lat="42.30326" lon="2.44376">
        <ele>622.4</ele>
        <time>2018-11-28T05:47:34Z</time>
      </trkpt>
      <trkpt lat="42.3031" lon="2.44354">
        <ele>625.6</ele>
        <time>2018-11-28T05:47:43Z</time>
      </trkpt>
      <trkpt lat="42.30308" lon="2.44343">
        <ele>626.7</ele>
        <time>2018-11-28T05:47:47Z</time>
      </trkpt>
      <trkpt lat="42.30292" lon="2.443">
        <ele>631.8</ele>
        <time>2018-11-28T05:48:01Z</time>
      </trkpt>
      <trkpt lat="42.30277" lon="2.44269">
        <ele>634.7</ele>
        <time>2018-11-28T05:48:12Z</time>
      </trkpt>
      <trkpt lat="42.30264" lon="2.44221">
        <ele>637.9</ele>
        <time>2018-11-28T05:48:27Z</time>
      </trkpt>
      <trkpt lat="42.30261" lon="2.44219">
        <ele>637.7</ele>
        <time>2018-11-28T05:48:28Z</time>
      </trkpt>
      <trkpt lat="42.30256" lon="2.44203">
        <ele>638.5</ele>
        <time>2018-11-28T05:48:33Z</time>
      </trkpt>
      <trkpt lat="42.30249" lon="2.44189">
        <ele>639.7</ele>
        <time>2018-11-28T05:48:39Z</time>
      </trkpt>
      <trkpt lat="42.30231" lon="2.44167">
        <ele>641.7</ele>
        <time>2018-11-28T05:48:48Z</time>
      </trkpt>
      <trkpt lat="42.30233" lon="2.4416">
        <ele>642.2</ele>
        <time>2018-11-28T05:48:50Z</time>
      </trkpt>
      <trkpt lat="42.30239" lon="2.44156">
        <ele>643.7</ele>
        <time>2018-11-28T05:48:53Z</time>
      </trkpt>
      <trkpt lat="42.30246" lon="2.44157">
        <ele>645.1</ele>
        <time>2018-11-28T05:48:56Z</time>
      </trkpt>
      <trkpt lat="42.30291" lon="2.44205">
        <ele>650.2</ele>
        <time>2018-11-28T05:49:18Z</time>
      </trkpt>
      <trkpt lat="42.30302" lon="2.44221">
        <ele>652.5</ele>
        <time>2018-11-28T05:49:25Z</time>
      </trkpt>
      <trkpt lat="42.30315" lon="2.44241">
        <ele>653.8</ele>
        <time>2018-11-28T05:49:33Z</time>
      </trkpt>
      <trkpt lat="42.30327" lon="2.44253">
        <ele>655.9</ele>
        <time>2018-11-28T05:49:39Z</time>
      </trkpt>
      <trkpt lat="42.3035" lon="2.44273">
        <ele>658.5</ele>
        <time>2018-11-28T05:49:50Z</time>
      </trkpt>
      <trkpt lat="42.30357" lon="2.44282">
        <ele>658.8</ele>
        <time>2018-11-28T05:49:53Z</time>
      </trkpt>
      <trkpt lat="42.3036" lon="2.44282">
        <ele>658.9</ele>
        <time>2018-11-28T05:49:55Z</time>
      </trkpt>
      <trkpt lat="42.30359" lon="2.44281">
        <ele>659.2</ele>
        <time>2018-11-28T05:49:55Z</time>
      </trkpt>
      <trkpt lat="42.30357" lon="2.44283">
        <ele>658.5</ele>
        <time>2018-11-28T05:49:56Z</time>
      </trkpt>
      <trkpt lat="42.30362" lon="2.4428">
        <ele>659.1</ele>
        <time>2018-11-28T05:49:59Z</time>
      </trkpt>
      <trkpt lat="42.30362" lon="2.44278">
        <ele>658.9</ele>
        <time>2018-11-28T05:49:59Z</time>
      </trkpt>
      <trkpt lat="42.3036" lon="2.44278">
        <ele>658.9</ele>
        <time>2018-11-28T05:50:00Z</time>
      </trkpt>
      <trkpt lat="42.30363" lon="2.44281">
        <ele>658.8</ele>
        <time>2018-11-28T05:50:01Z</time>
      </trkpt>
      <trkpt lat="42.30364" lon="2.44281">
        <ele>658.5</ele>
        <time>2018-11-28T05:50:02Z</time>
      </trkpt>
      <trkpt lat="42.30365" lon="2.4428">
        <ele>658.8</ele>
        <time>2018-11-28T05:50:02Z</time>
      </trkpt>
      <trkpt lat="42.3036" lon="2.44281">
        <ele>658.5</ele>
        <time>2018-11-28T05:50:04Z</time>
      </trkpt>
      <trkpt lat="42.30361" lon="2.44281">
        <ele>658.3</ele>
        <time>2018-11-28T05:50:04Z</time>
      </trkpt>
      <trkpt lat="42.3036" lon="2.44281">
        <ele>658.2</ele>
        <time>2018-11-28T05:50:05Z</time>
      </trkpt>
      <trkpt lat="42.30361" lon="2.44281">
        <ele>656.9</ele>
        <time>2018-11-28T05:50:05Z</time>
      </trkpt>
      <trkpt lat="42.30357" lon="2.44278">
        <ele>656.8</ele>
        <time>2018-11-28T05:50:07Z</time>
      </trkpt>
      <trkpt lat="42.30359" lon="2.4428">
        <ele>656</ele>
        <time>2018-11-28T05:50:08Z</time>
      </trkpt>
      <trkpt lat="42.30359" lon="2.44279">
        <ele>656.6</ele>
        <time>2018-11-28T05:50:08Z</time>
      </trkpt>
      <trkpt lat="42.30361" lon="2.4428">
        <ele>656.2</ele>
        <time>2018-11-28T05:50:09Z</time>
      </trkpt>
      <trkpt lat="42.30361" lon="2.44281">
        <ele>656.4</ele>
        <time>2018-11-28T05:50:09Z</time>
      </trkpt>
      <trkpt lat="42.30361" lon="2.44279">
        <ele>658.1</ele>
        <time>2018-11-28T05:50:10Z</time>
      </trkpt>
      <trkpt lat="42.30361" lon="2.4428">
        <ele>658.3</ele>
        <time>2018-11-28T05:50:10Z</time>
      </trkpt>
      <trkpt lat="42.3036" lon="2.44279">
        <ele>658.5</ele>
        <time>2018-11-28T05:50:10Z</time>
      </trkpt>
      <trkpt lat="42.30361" lon="2.44281">
        <ele>658.7</ele>
        <time>2018-11-28T05:50:11Z</time>
      </trkpt>
      <trkpt lat="42.30361" lon="2.4428">
        <ele>658.3</ele>
        <time>2018-11-28T05:50:11Z</time>
      </trkpt>
      <trkpt lat="42.30362" lon="2.44281">
        <ele>657.6</ele>
        <time>2018-11-28T05:50:12Z</time>
      </trkpt>
      <trkpt lat="42.30363" lon="2.4428">
        <ele>659</ele>
        <time>2018-11-28T05:50:12Z</time>
      </trkpt>
      <trkpt lat="42.30361" lon="2.44281">
        <ele>658.2</ele>
        <time>2018-11-28T05:50:13Z</time>
      </trkpt>
      <trkpt lat="42.30377" lon="2.443">
        <ele>659.3</ele>
        <time>2018-11-28T05:50:22Z</time>
      </trkpt>
      <trkpt lat="42.30386" lon="2.44307">
        <ele>660.1</ele>
        <time>2018-11-28T05:50:26Z</time>
      </trkpt>
      <trkpt lat="42.3039" lon="2.44303">
        <ele>660.6</ele>
        <time>2018-11-28T05:50:28Z</time>
      </trkpt>
      <trkpt lat="42.30385" lon="2.44289">
        <ele>661.8</ele>
        <time>2018-11-28T05:50:33Z</time>
      </trkpt>
      <trkpt lat="42.30363" lon="2.44262">
        <ele>661.7</ele>
        <time>2018-11-28T05:50:44Z</time>
      </trkpt>
      <trkpt lat="42.30329" lon="2.44195">
        <ele>666.4</ele>
        <time>2018-11-28T05:51:09Z</time>
      </trkpt>
      <trkpt lat="42.3032" lon="2.44183">
        <ele>666.9</ele>
        <time>2018-11-28T05:51:14Z</time>
      </trkpt>
      <trkpt lat="42.30297" lon="2.44115">
        <ele>672.2</ele>
        <time>2018-11-28T05:51:36Z</time>
      </trkpt>
      <trkpt lat="42.30283" lon="2.44092">
        <ele>673.2</ele>
        <time>2018-11-28T05:51:45Z</time>
      </trkpt>
      <trkpt lat="42.30274" lon="2.44085">
        <ele>674.1</ele>
        <time>2018-11-28T05:51:49Z</time>
      </trkpt>
      <trkpt lat="42.30255" lon="2.44071">
        <ele>676.1</ele>
        <time>2018-11-28T05:51:58Z</time>
      </trkpt>
      <trkpt lat="42.30229" lon="2.44037">
        <ele>679.5</ele>
        <time>2018-11-28T05:52:12Z</time>
      </trkpt>
      <trkpt lat="42.3022" lon="2.43998">
        <ele>681.9</ele>
        <time>2018-11-28T05:52:24Z</time>
      </trkpt>
      <trkpt lat="42.30219" lon="2.43977">
        <ele>682.6</ele>
        <time>2018-11-28T05:52:30Z</time>
      </trkpt>
      <trkpt lat="42.30217" lon="2.43954">
        <ele>684.4</ele>
        <time>2018-11-28T05:52:37Z</time>
      </trkpt>
      <trkpt lat="42.30218" lon="2.43949">
        <ele>684.4</ele>
        <time>2018-11-28T05:52:38Z</time>
      </trkpt>
      <trkpt lat="42.30217" lon="2.43941">
        <ele>684.1</ele>
        <time>2018-11-28T05:52:41Z</time>
      </trkpt>
      <trkpt lat="42.30212" lon="2.4393">
        <ele>684.2</ele>
        <time>2018-11-28T05:52:45Z</time>
      </trkpt>
      <trkpt lat="42.30191" lon="2.43902">
        <ele>686.5</ele>
        <time>2018-11-28T05:52:56Z</time>
      </trkpt>
      <trkpt lat="42.30179" lon="2.43891">
        <ele>687.6</ele>
        <time>2018-11-28T05:53:02Z</time>
      </trkpt>
      <trkpt lat="42.30166" lon="2.43863">
        <ele>688.5</ele>
        <time>2018-11-28T05:53:12Z</time>
      </trkpt>
      <trkpt lat="42.30168" lon="2.43865">
        <ele>689.2</ele>
        <time>2018-11-28T05:53:13Z</time>
      </trkpt>
      <trkpt lat="42.30165" lon="2.43862">
        <ele>689.2</ele>
        <time>2018-11-28T05:53:14Z</time>
      </trkpt>
      <trkpt lat="42.30164" lon="2.43852">
        <ele>689</ele>
        <time>2018-11-28T05:53:17Z</time>
      </trkpt>
      <trkpt lat="42.30166" lon="2.43834">
        <ele>689.4</ele>
        <time>2018-11-28T05:53:23Z</time>
      </trkpt>
      <trkpt lat="42.30164" lon="2.43826">
        <ele>688.6</ele>
        <time>2018-11-28T05:53:25Z</time>
      </trkpt>
      <trkpt lat="42.30166" lon="2.43802">
        <ele>689.4</ele>
        <time>2018-11-28T05:53:32Z</time>
      </trkpt>
      <trkpt lat="42.30163" lon="2.43766">
        <ele>691.5</ele>
        <time>2018-11-28T05:53:43Z</time>
      </trkpt>
      <trkpt lat="42.30162" lon="2.43761">
        <ele>692.1</ele>
        <time>2018-11-28T05:53:45Z</time>
      </trkpt>
      <trkpt lat="42.30161" lon="2.43752">
        <ele>691.5</ele>
        <time>2018-11-28T05:53:47Z</time>
      </trkpt>
      <trkpt lat="42.30165" lon="2.43721">
        <ele>691.9</ele>
        <time>2018-11-28T05:53:57Z</time>
      </trkpt>
      <trkpt lat="42.30166" lon="2.43704">
        <ele>691.2</ele>
        <time>2018-11-28T05:54:02Z</time>
      </trkpt>
      <trkpt lat="42.30163" lon="2.43691">
        <ele>691</ele>
        <time>2018-11-28T05:54:06Z</time>
      </trkpt>
      <trkpt lat="42.30157" lon="2.43653">
        <ele>691.9</ele>
        <time>2018-11-28T05:54:17Z</time>
      </trkpt>
      <trkpt lat="42.30154" lon="2.43646">
        <ele>691.3</ele>
        <time>2018-11-28T05:54:20Z</time>
      </trkpt>
      <trkpt lat="42.30152" lon="2.43622">
        <ele>690.8</ele>
        <time>2018-11-28T05:54:27Z</time>
      </trkpt>
      <trkpt lat="42.30156" lon="2.436">
        <ele>690.8</ele>
        <time>2018-11-28T05:54:33Z</time>
      </trkpt>
      <trkpt lat="42.3016" lon="2.43584">
        <ele>690.3</ele>
        <time>2018-11-28T05:54:38Z</time>
      </trkpt>
      <trkpt lat="42.30142" lon="2.43499">
        <ele>689.6</ele>
        <time>2018-11-28T05:55:05Z</time>
      </trkpt>
      <trkpt lat="42.30141" lon="2.43485">
        <ele>688.4</ele>
        <time>2018-11-28T05:55:09Z</time>
      </trkpt>
      <trkpt lat="42.30136" lon="2.43439">
        <ele>689.8</ele>
        <time>2018-11-28T05:55:22Z</time>
      </trkpt>
      <trkpt lat="42.30137" lon="2.43432">
        <ele>689.8</ele>
        <time>2018-11-28T05:55:25Z</time>
      </trkpt>
      <trkpt lat="42.30133" lon="2.43403">
        <ele>690.5</ele>
        <time>2018-11-28T05:55:33Z</time>
      </trkpt>
      <trkpt lat="42.3013" lon="2.43399">
        <ele>690.5</ele>
        <time>2018-11-28T05:55:35Z</time>
      </trkpt>
      <trkpt lat="42.30107" lon="2.43383">
        <ele>693.1</ele>
        <time>2018-11-28T05:55:45Z</time>
      </trkpt>
      <trkpt lat="42.30099" lon="2.43374">
        <ele>694.1</ele>
        <time>2018-11-28T05:55:49Z</time>
      </trkpt>
      <trkpt lat="42.30088" lon="2.43353">
        <ele>696.2</ele>
        <time>2018-11-28T05:55:57Z</time>
      </trkpt>
      <trkpt lat="42.30087" lon="2.43341">
        <ele>696.7</ele>
        <time>2018-11-28T05:56:01Z</time>
      </trkpt>
      <trkpt lat="42.30081" lon="2.43323">
        <ele>697.3</ele>
        <time>2018-11-28T05:56:06Z</time>
      </trkpt>
      <trkpt lat="42.30078" lon="2.43273">
        <ele>700.6</ele>
        <time>2018-11-28T05:56:21Z</time>
      </trkpt>
      <trkpt lat="42.30077" lon="2.43239">
        <ele>704</ele>
        <time>2018-11-28T05:56:32Z</time>
      </trkpt>
      <trkpt lat="42.30081" lon="2.43219">
        <ele>704.8</ele>
        <time>2018-11-28T05:56:38Z</time>
      </trkpt>
      <trkpt lat="42.3008" lon="2.43215">
        <ele>704.6</ele>
        <time>2018-11-28T05:56:39Z</time>
      </trkpt>
      <trkpt lat="42.30079" lon="2.4321">
        <ele>704.8</ele>
        <time>2018-11-28T05:56:40Z</time>
      </trkpt>
      <trkpt lat="42.30081" lon="2.43213">
        <ele>704.6</ele>
        <time>2018-11-28T05:56:41Z</time>
      </trkpt>
      <trkpt lat="42.30082" lon="2.43214">
        <ele>704.2</ele>
        <time>2018-11-28T05:56:42Z</time>
      </trkpt>
      <trkpt lat="42.30083" lon="2.43201">
        <ele>705</ele>
        <time>2018-11-28T05:56:46Z</time>
      </trkpt>
      <trkpt lat="42.30079" lon="2.43153">
        <ele>706.3</ele>
        <time>2018-11-28T05:57:00Z</time>
      </trkpt>
      <trkpt lat="42.30079" lon="2.43151">
        <ele>706.4</ele>
        <time>2018-11-28T05:57:01Z</time>
      </trkpt>
      <trkpt lat="42.30081" lon="2.43083">
        <ele>706.3</ele>
        <time>2018-11-28T05:57:21Z</time>
      </trkpt>
      <trkpt lat="42.3006" lon="2.43005">
        <ele>709.2</ele>
        <time>2018-11-28T05:57:46Z</time>
      </trkpt>
      <trkpt lat="42.30058" lon="2.42973">
        <ele>708.9</ele>
        <time>2018-11-28T05:57:55Z</time>
      </trkpt>
      <trkpt lat="42.30061" lon="2.42961">
        <ele>708.1</ele>
        <time>2018-11-28T05:57:59Z</time>
      </trkpt>
      <trkpt lat="42.30065" lon="2.42953">
        <ele>706.9</ele>
        <time>2018-11-28T05:58:02Z</time>
      </trkpt>
      <trkpt lat="42.30087" lon="2.42933">
        <ele>707.8</ele>
        <time>2018-11-28T05:58:12Z</time>
      </trkpt>
      <trkpt lat="42.30088" lon="2.42931">
        <ele>708.1</ele>
        <time>2018-11-28T05:58:13Z</time>
      </trkpt>
      <trkpt lat="42.30096" lon="2.4292">
        <ele>708.7</ele>
        <time>2018-11-28T05:58:18Z</time>
      </trkpt>
      <trkpt lat="42.30099" lon="2.42914">
        <ele>707.7</ele>
        <time>2018-11-28T05:58:20Z</time>
      </trkpt>
      <trkpt lat="42.30103" lon="2.42892">
        <ele>709.5</ele>
        <time>2018-11-28T05:58:26Z</time>
      </trkpt>
      <trkpt lat="42.30112" lon="2.42878">
        <ele>710.6</ele>
        <time>2018-11-28T05:58:32Z</time>
      </trkpt>
      <trkpt lat="42.30117" lon="2.42828">
        <ele>713.7</ele>
        <time>2018-11-28T05:58:47Z</time>
      </trkpt>
      <trkpt lat="42.30114" lon="2.42812">
        <ele>713.7</ele>
        <time>2018-11-28T05:58:52Z</time>
      </trkpt>
      <trkpt lat="42.30112" lon="2.42808">
        <ele>714.2</ele>
        <time>2018-11-28T05:58:53Z</time>
      </trkpt>
      <trkpt lat="42.301" lon="2.42753">
        <ele>716</ele>
        <time>2018-11-28T05:59:10Z</time>
      </trkpt>
      <trkpt lat="42.30099" lon="2.42738">
        <ele>716.7</ele>
        <time>2018-11-28T05:59:14Z</time>
      </trkpt>
      <trkpt lat="42.30103" lon="2.42708">
        <ele>720</ele>
        <time>2018-11-28T05:59:23Z</time>
      </trkpt>
      <trkpt lat="42.30104" lon="2.42693">
        <ele>720.3</ele>
        <time>2018-11-28T05:59:28Z</time>
      </trkpt>
      <trkpt lat="42.30104" lon="2.42691">
        <ele>720.4</ele>
        <time>2018-11-28T05:59:29Z</time>
      </trkpt>
      <trkpt lat="42.30104" lon="2.4269">
        <ele>720.4</ele>
        <time>2018-11-28T05:59:29Z</time>
      </trkpt>
      <trkpt lat="42.30109" lon="2.42687">
        <ele>720.7</ele>
        <time>2018-11-28T05:59:31Z</time>
      </trkpt>
      <trkpt lat="42.30141" lon="2.42641">
        <ele>723.5</ele>
        <time>2018-11-28T05:59:50Z</time>
      </trkpt>
      <trkpt lat="42.30147" lon="2.42613">
        <ele>724</ele>
        <time>2018-11-28T05:59:58Z</time>
      </trkpt>
      <trkpt lat="42.3015" lon="2.42575">
        <ele>725</ele>
        <time>2018-11-28T06:00:10Z</time>
      </trkpt>
      <trkpt lat="42.30154" lon="2.42557">
        <ele>726.3</ele>
        <time>2018-11-28T06:00:15Z</time>
      </trkpt>
      <trkpt lat="42.30145" lon="2.42524">
        <ele>722.3</ele>
        <time>2018-11-28T06:00:26Z</time>
      </trkpt>
      <trkpt lat="42.30145" lon="2.42495">
        <ele>720</ele>
        <time>2018-11-28T06:00:34Z</time>
      </trkpt>
      <trkpt lat="42.30151" lon="2.42477">
        <ele>719.7</ele>
        <time>2018-11-28T06:00:40Z</time>
      </trkpt>
      <trkpt lat="42.30164" lon="2.42454">
        <ele>717.4</ele>
        <time>2018-11-28T06:00:49Z</time>
      </trkpt>
      <trkpt lat="42.30169" lon="2.42443">
        <ele>715.9</ele>
        <time>2018-11-28T06:00:53Z</time>
      </trkpt>
      <trkpt lat="42.30176" lon="2.42432">
        <ele>714.5</ele>
        <time>2018-11-28T06:00:57Z</time>
      </trkpt>
      <trkpt lat="42.30198" lon="2.42391">
        <ele>710.5</ele>
        <time>2018-11-28T06:01:12Z</time>
      </trkpt>
      <trkpt lat="42.30204" lon="2.4238">
        <ele>709.7</ele>
        <time>2018-11-28T06:01:16Z</time>
      </trkpt>
      <trkpt lat="42.30219" lon="2.42365">
        <ele>706.2</ele>
        <time>2018-11-28T06:01:24Z</time>
      </trkpt>
      <trkpt lat="42.30222" lon="2.42361">
        <ele>704.7</ele>
        <time>2018-11-28T06:01:25Z</time>
      </trkpt>
      <trkpt lat="42.30231" lon="2.42353">
        <ele>704.8</ele>
        <time>2018-11-28T06:01:30Z</time>
      </trkpt>
      <trkpt lat="42.30233" lon="2.42341">
        <ele>705.4</ele>
        <time>2018-11-28T06:01:33Z</time>
      </trkpt>
      <trkpt lat="42.30227" lon="2.42327">
        <ele>705.6</ele>
        <time>2018-11-28T06:01:38Z</time>
      </trkpt>
      <trkpt lat="42.30223" lon="2.4229">
        <ele>702.2</ele>
        <time>2018-11-28T06:01:49Z</time>
      </trkpt>
      <trkpt lat="42.30223" lon="2.42281">
        <ele>701.3</ele>
        <time>2018-11-28T06:01:52Z</time>
      </trkpt>
      <trkpt lat="42.30215" lon="2.42273">
        <ele>700.4</ele>
        <time>2018-11-28T06:01:56Z</time>
      </trkpt>
      <trkpt lat="42.30213" lon="2.42266">
        <ele>699</ele>
        <time>2018-11-28T06:01:58Z</time>
      </trkpt>
      <trkpt lat="42.30215" lon="2.42243">
        <ele>696.5</ele>
        <time>2018-11-28T06:02:05Z</time>
      </trkpt>
      <trkpt lat="42.30216" lon="2.4224">
        <ele>696.4</ele>
        <time>2018-11-28T06:02:06Z</time>
      </trkpt>
      <trkpt lat="42.30225" lon="2.42225">
        <ele>695.6</ele>
        <time>2018-11-28T06:02:12Z</time>
      </trkpt>
      <trkpt lat="42.30236" lon="2.42216">
        <ele>695.6</ele>
        <time>2018-11-28T06:02:17Z</time>
      </trkpt>
      <trkpt lat="42.30238" lon="2.42206">
        <ele>695.5</ele>
        <time>2018-11-28T06:02:20Z</time>
      </trkpt>
      <trkpt lat="42.3024" lon="2.42206">
        <ele>695.9</ele>
        <time>2018-11-28T06:02:20Z</time>
      </trkpt>
      <trkpt lat="42.30243" lon="2.42206">
        <ele>696.2</ele>
        <time>2018-11-28T06:02:22Z</time>
      </trkpt>
      <trkpt lat="42.30263" lon="2.42167">
        <ele>697.1</ele>
        <time>2018-11-28T06:02:35Z</time>
      </trkpt>
      <trkpt lat="42.30265" lon="2.42157">
        <ele>696.7</ele>
        <time>2018-11-28T06:02:39Z</time>
      </trkpt>
      <trkpt lat="42.30268" lon="2.42152">
        <ele>697</ele>
        <time>2018-11-28T06:02:40Z</time>
      </trkpt>
      <trkpt lat="42.30272" lon="2.42152">
        <ele>699.2</ele>
        <time>2018-11-28T06:02:42Z</time>
      </trkpt>
      <trkpt lat="42.3027" lon="2.42155">
        <ele>700.8</ele>
        <time>2018-11-28T06:02:43Z</time>
      </trkpt>
      <trkpt lat="42.3027" lon="2.42166">
        <ele>703.1</ele>
        <time>2018-11-28T06:02:46Z</time>
      </trkpt>
      <trkpt lat="42.30271" lon="2.42172">
        <ele>705.8</ele>
        <time>2018-11-28T06:02:49Z</time>
      </trkpt>
      <trkpt lat="42.30277" lon="2.42168">
        <ele>706.7</ele>
        <time>2018-11-28T06:02:51Z</time>
      </trkpt>
      <trkpt lat="42.30276" lon="2.42174">
        <ele>709.1</ele>
        <time>2018-11-28T06:02:53Z</time>
      </trkpt>
      <trkpt lat="42.30278" lon="2.42179">
        <ele>708</ele>
        <time>2018-11-28T06:02:55Z</time>
      </trkpt>
      <trkpt lat="42.30276" lon="2.42176">
        <ele>707.5</ele>
        <time>2018-11-28T06:02:56Z</time>
      </trkpt>
      <trkpt lat="42.30277" lon="2.42176">
        <ele>707.6</ele>
        <time>2018-11-28T06:02:56Z</time>
      </trkpt>
      <trkpt lat="42.30275" lon="2.42171">
        <ele>708.2</ele>
        <time>2018-11-28T06:02:58Z</time>
      </trkpt>
      <trkpt lat="42.30274" lon="2.42172">
        <ele>707.8</ele>
        <time>2018-11-28T06:02:58Z</time>
      </trkpt>
      <trkpt lat="42.30276" lon="2.42168">
        <ele>706.4</ele>
        <time>2018-11-28T06:03:00Z</time>
      </trkpt>
      <trkpt lat="42.3028" lon="2.42168">
        <ele>704.7</ele>
        <time>2018-11-28T06:03:01Z</time>
      </trkpt>
      <trkpt lat="42.30272" lon="2.42168">
        <ele>702.3</ele>
        <time>2018-11-28T06:03:05Z</time>
      </trkpt>
      <trkpt lat="42.30273" lon="2.42167">
        <ele>702.1</ele>
        <time>2018-11-28T06:03:05Z</time>
      </trkpt>
      <trkpt lat="42.30274" lon="2.42159">
        <ele>700.3</ele>
        <time>2018-11-28T06:03:08Z</time>
      </trkpt>
      <trkpt lat="42.30279" lon="2.42152">
        <ele>698.3</ele>
        <time>2018-11-28T06:03:10Z</time>
      </trkpt>
      <trkpt lat="42.30275" lon="2.42148">
        <ele>695.2</ele>
        <time>2018-11-28T06:03:12Z</time>
      </trkpt>
      <trkpt lat="42.30269" lon="2.42143">
        <ele>695.3</ele>
        <time>2018-11-28T06:03:15Z</time>
      </trkpt>
      <trkpt lat="42.30268" lon="2.42131">
        <ele>691.1</ele>
        <time>2018-11-28T06:03:19Z</time>
      </trkpt>
      <trkpt lat="42.30265" lon="2.4213">
        <ele>690.5</ele>
        <time>2018-11-28T06:03:20Z</time>
      </trkpt>
      <trkpt lat="42.30265" lon="2.42123">
        <ele>688.4</ele>
        <time>2018-11-28T06:03:22Z</time>
      </trkpt>
      <trkpt lat="42.30267" lon="2.42119">
        <ele>686.2</ele>
        <time>2018-11-28T06:03:23Z</time>
      </trkpt>
      <trkpt lat="42.30271" lon="2.42115">
        <ele>685.1</ele>
        <time>2018-11-28T06:03:25Z</time>
      </trkpt>
      <trkpt lat="42.30279" lon="2.42113">
        <ele>683.8</ele>
        <time>2018-11-28T06:03:29Z</time>
      </trkpt>
      <trkpt lat="42.30287" lon="2.42101">
        <ele>681.1</ele>
        <time>2018-11-28T06:03:34Z</time>
      </trkpt>
      <trkpt lat="42.30294" lon="2.42097">
        <ele>680.1</ele>
        <time>2018-11-28T06:03:37Z</time>
      </trkpt>
      <trkpt lat="42.30303" lon="2.42103">
        <ele>678.2</ele>
        <time>2018-11-28T06:03:40Z</time>
      </trkpt>
      <trkpt lat="42.30312" lon="2.42101">
        <ele>677.1</ele>
        <time>2018-11-28T06:03:44Z</time>
      </trkpt>
      <trkpt lat="42.30313" lon="2.42096">
        <ele>676.9</ele>
        <time>2018-11-28T06:03:46Z</time>
      </trkpt>
      <trkpt lat="42.3031" lon="2.42091">
        <ele>675.9</ele>
        <time>2018-11-28T06:03:48Z</time>
      </trkpt>
      <trkpt lat="42.30309" lon="2.42085">
        <ele>675.8</ele>
        <time>2018-11-28T06:03:49Z</time>
      </trkpt>
      <trkpt lat="42.30313" lon="2.42078">
        <ele>675.3</ele>
        <time>2018-11-28T06:03:52Z</time>
      </trkpt>
      <trkpt lat="42.30311" lon="2.42077">
        <ele>674.2</ele>
        <time>2018-11-28T06:03:52Z</time>
      </trkpt>
      <trkpt lat="42.30309" lon="2.42067">
        <ele>673.7</ele>
        <time>2018-11-28T06:03:56Z</time>
      </trkpt>
      <trkpt lat="42.30309" lon="2.42067">
        <ele>673.8</ele>
        <time>2018-11-28T06:03:56Z</time>
      </trkpt>
      <trkpt lat="42.3031" lon="2.42058">
        <ele>671</ele>
        <time>2018-11-28T06:03:58Z</time>
      </trkpt>
      <trkpt lat="42.30309" lon="2.42052">
        <ele>669.8</ele>
        <time>2018-11-28T06:04:00Z</time>
      </trkpt>
      <trkpt lat="42.303" lon="2.42047">
        <ele>668.4</ele>
        <time>2018-11-28T06:04:04Z</time>
      </trkpt>
      <trkpt lat="42.30292" lon="2.42046">
        <ele>666.2</ele>
        <time>2018-11-28T06:04:07Z</time>
      </trkpt>
      <trkpt lat="42.30287" lon="2.42053">
        <ele>665.9</ele>
        <time>2018-11-28T06:04:10Z</time>
      </trkpt>
      <trkpt lat="42.30273" lon="2.42049">
        <ele>666.3</ele>
        <time>2018-11-28T06:04:16Z</time>
      </trkpt>
      <trkpt lat="42.30261" lon="2.42052">
        <ele>666.5</ele>
        <time>2018-11-28T06:04:21Z</time>
      </trkpt>
      <trkpt lat="42.30256" lon="2.42051">
        <ele>666.5</ele>
        <time>2018-11-28T06:04:23Z</time>
      </trkpt>
      <trkpt lat="42.30243" lon="2.42037">
        <ele>668.5</ele>
        <time>2018-11-28T06:04:30Z</time>
      </trkpt>
      <trkpt lat="42.30233" lon="2.42035">
        <ele>670.7</ele>
        <time>2018-11-28T06:04:34Z</time>
      </trkpt>
      <trkpt lat="42.30224" lon="2.42032">
        <ele>672.6</ele>
        <time>2018-11-28T06:04:37Z</time>
      </trkpt>
      <trkpt lat="42.30206" lon="2.42015">
        <ele>676.7</ele>
        <time>2018-11-28T06:04:46Z</time>
      </trkpt>
      <trkpt lat="42.30198" lon="2.42011">
        <ele>678.3</ele>
        <time>2018-11-28T06:04:49Z</time>
      </trkpt>
      <trkpt lat="42.30185" lon="2.41999">
        <ele>678.8</ele>
        <time>2018-11-28T06:04:56Z</time>
      </trkpt>
      <trkpt lat="42.3018" lon="2.41992">
        <ele>679.2</ele>
        <time>2018-11-28T06:04:58Z</time>
      </trkpt>
      <trkpt lat="42.30174" lon="2.41987">
        <ele>679</ele>
        <time>2018-11-28T06:05:01Z</time>
      </trkpt>
      <trkpt lat="42.30166" lon="2.41966">
        <ele>678.3</ele>
        <time>2018-11-28T06:05:08Z</time>
      </trkpt>
      <trkpt lat="42.30158" lon="2.41941">
        <ele>678.4</ele>
        <time>2018-11-28T06:05:16Z</time>
      </trkpt>
      <trkpt lat="42.30153" lon="2.41936">
        <ele>678.1</ele>
        <time>2018-11-28T06:05:19Z</time>
      </trkpt>
      <trkpt lat="42.30145" lon="2.41901">
        <ele>678.9</ele>
        <time>2018-11-28T06:05:29Z</time>
      </trkpt>
      <trkpt lat="42.30138" lon="2.41888">
        <ele>679</ele>
        <time>2018-11-28T06:05:34Z</time>
      </trkpt>
      <trkpt lat="42.30133" lon="2.41876">
        <ele>678.5</ele>
        <time>2018-11-28T06:05:39Z</time>
      </trkpt>
      <trkpt lat="42.30131" lon="2.41875">
        <ele>678.7</ele>
        <time>2018-11-28T06:05:39Z</time>
      </trkpt>
      <trkpt lat="42.30123" lon="2.41859">
        <ele>679.4</ele>
        <time>2018-11-28T06:05:45Z</time>
      </trkpt>
      <trkpt lat="42.30122" lon="2.41853">
        <ele>680</ele>
        <time>2018-11-28T06:05:47Z</time>
      </trkpt>
      <trkpt lat="42.30122" lon="2.41842">
        <ele>680.7</ele>
        <time>2018-11-28T06:05:50Z</time>
      </trkpt>
      <trkpt lat="42.30121" lon="2.41839">
        <ele>680.6</ele>
        <time>2018-11-28T06:05:51Z</time>
      </trkpt>
      <trkpt lat="42.30118" lon="2.41811">
        <ele>681.2</ele>
        <time>2018-11-28T06:06:00Z</time>
      </trkpt>
      <trkpt lat="42.30113" lon="2.41801">
        <ele>681.8</ele>
        <time>2018-11-28T06:06:03Z</time>
      </trkpt>
      <trkpt lat="42.30112" lon="2.41793">
        <ele>681.6</ele>
        <time>2018-11-28T06:06:06Z</time>
      </trkpt>
      <trkpt lat="42.30112" lon="2.41787">
        <ele>681.1</ele>
        <time>2018-11-28T06:06:07Z</time>
      </trkpt>
      <trkpt lat="42.30108" lon="2.41778">
        <ele>679.8</ele>
        <time>2018-11-28T06:06:10Z</time>
      </trkpt>
      <trkpt lat="42.30105" lon="2.41755">
        <ele>680.8</ele>
        <time>2018-11-28T06:06:17Z</time>
      </trkpt>
      <trkpt lat="42.30101" lon="2.41744">
        <ele>682.8</ele>
        <time>2018-11-28T06:06:21Z</time>
      </trkpt>
      <trkpt lat="42.30105" lon="2.41733">
        <ele>684.4</ele>
        <time>2018-11-28T06:06:25Z</time>
      </trkpt>
      <trkpt lat="42.30108" lon="2.41731">
        <ele>684.9</ele>
        <time>2018-11-28T06:06:26Z</time>
      </trkpt>
      <trkpt lat="42.30108" lon="2.41723">
        <ele>684.5</ele>
        <time>2018-11-28T06:06:28Z</time>
      </trkpt>
      <trkpt lat="42.30094" lon="2.41712">
        <ele>685.2</ele>
        <time>2018-11-28T06:06:35Z</time>
      </trkpt>
      <trkpt lat="42.30092" lon="2.41692">
        <ele>688</ele>
        <time>2018-11-28T06:06:41Z</time>
      </trkpt>
      <trkpt lat="42.30084" lon="2.41685">
        <ele>689</ele>
        <time>2018-11-28T06:06:45Z</time>
      </trkpt>
      <trkpt lat="42.30071" lon="2.41666">
        <ele>690.6</ele>
        <time>2018-11-28T06:06:52Z</time>
      </trkpt>
      <trkpt lat="42.30063" lon="2.41643">
        <ele>690.8</ele>
        <time>2018-11-28T06:07:00Z</time>
      </trkpt>
      <trkpt lat="42.30054" lon="2.41627">
        <ele>691.8</ele>
        <time>2018-11-28T06:07:06Z</time>
      </trkpt>
      <trkpt lat="42.30052" lon="2.41618">
        <ele>691.6</ele>
        <time>2018-11-28T06:07:09Z</time>
      </trkpt>
      <trkpt lat="42.30051" lon="2.41613">
        <ele>691.9</ele>
        <time>2018-11-28T06:07:10Z</time>
      </trkpt>
      <trkpt lat="42.30038" lon="2.41578">
        <ele>694.3</ele>
        <time>2018-11-28T06:07:22Z</time>
      </trkpt>
      <trkpt lat="42.30035" lon="2.41568">
        <ele>695</ele>
        <time>2018-11-28T06:07:25Z</time>
      </trkpt>
      <trkpt lat="42.3003" lon="2.41536">
        <ele>698.8</ele>
        <time>2018-11-28T06:07:34Z</time>
      </trkpt>
      <trkpt lat="42.30028" lon="2.4152">
        <ele>699.5</ele>
        <time>2018-11-28T06:07:39Z</time>
      </trkpt>
      <trkpt lat="42.30025" lon="2.41477">
        <ele>699.6</ele>
        <time>2018-11-28T06:07:52Z</time>
      </trkpt>
      <trkpt lat="42.30025" lon="2.41463">
        <ele>696.5</ele>
        <time>2018-11-28T06:07:56Z</time>
      </trkpt>
      <trkpt lat="42.30029" lon="2.41457">
        <ele>694.9</ele>
        <time>2018-11-28T06:07:59Z</time>
      </trkpt>
      <trkpt lat="42.30033" lon="2.41447">
        <ele>692.8</ele>
        <time>2018-11-28T06:08:02Z</time>
      </trkpt>
      <trkpt lat="42.3004" lon="2.4144">
        <ele>691</ele>
        <time>2018-11-28T06:08:06Z</time>
      </trkpt>
      <trkpt lat="42.30052" lon="2.41433">
        <ele>688.1</ele>
        <time>2018-11-28T06:08:11Z</time>
      </trkpt>
      <trkpt lat="42.30055" lon="2.41424">
        <ele>685.5</ele>
        <time>2018-11-28T06:08:14Z</time>
      </trkpt>
      <trkpt lat="42.30056" lon="2.41425">
        <ele>685.4</ele>
        <time>2018-11-28T06:08:14Z</time>
      </trkpt>
      <trkpt lat="42.30058" lon="2.41417">
        <ele>684</ele>
        <time>2018-11-28T06:08:17Z</time>
      </trkpt>
      <trkpt lat="42.30058" lon="2.4141">
        <ele>682.2</ele>
        <time>2018-11-28T06:08:19Z</time>
      </trkpt>
      <trkpt lat="42.30059" lon="2.41395">
        <ele>678.7</ele>
        <time>2018-11-28T06:08:23Z</time>
      </trkpt>
      <trkpt lat="42.30056" lon="2.41379">
        <ele>676.3</ele>
        <time>2018-11-28T06:08:28Z</time>
      </trkpt>
      <trkpt lat="42.30067" lon="2.41364">
        <ele>676.2</ele>
        <time>2018-11-28T06:08:34Z</time>
      </trkpt>
      <trkpt lat="42.3007" lon="2.41357">
        <ele>676.6</ele>
        <time>2018-11-28T06:08:37Z</time>
      </trkpt>
      <trkpt lat="42.3008" lon="2.41348">
        <ele>678.5</ele>
        <time>2018-11-28T06:08:42Z</time>
      </trkpt>
      <trkpt lat="42.30086" lon="2.41341">
        <ele>678.7</ele>
        <time>2018-11-28T06:08:45Z</time>
      </trkpt>
      <trkpt lat="42.30084" lon="2.41322">
        <ele>679.6</ele>
        <time>2018-11-28T06:08:51Z</time>
      </trkpt>
      <trkpt lat="42.30086" lon="2.41312">
        <ele>680</ele>
        <time>2018-11-28T06:08:54Z</time>
      </trkpt>
      <trkpt lat="42.30086" lon="2.41312">
        <ele>679.7</ele>
        <time>2018-11-28T06:08:54Z</time>
      </trkpt>
      <trkpt lat="42.30086" lon="2.41308">
        <ele>680.9</ele>
        <time>2018-11-28T06:08:55Z</time>
      </trkpt>
      <trkpt lat="42.30087" lon="2.41307">
        <ele>681.2</ele>
        <time>2018-11-28T06:08:56Z</time>
      </trkpt>
      <trkpt lat="42.30081" lon="2.41311">
        <ele>681.3</ele>
        <time>2018-11-28T06:08:58Z</time>
      </trkpt>
      <trkpt lat="42.3008" lon="2.41307">
        <ele>681.7</ele>
        <time>2018-11-28T06:09:00Z</time>
      </trkpt>
      <trkpt lat="42.30082" lon="2.41301">
        <ele>681.5</ele>
        <time>2018-11-28T06:09:02Z</time>
      </trkpt>
      <trkpt lat="42.30083" lon="2.41292">
        <ele>681.7</ele>
        <time>2018-11-28T06:09:04Z</time>
      </trkpt>
      <trkpt lat="42.30089" lon="2.41276">
        <ele>681.7</ele>
        <time>2018-11-28T06:09:10Z</time>
      </trkpt>
      <trkpt lat="42.30098" lon="2.4126">
        <ele>682.8</ele>
        <time>2018-11-28T06:09:16Z</time>
      </trkpt>
      <trkpt lat="42.30105" lon="2.41244">
        <ele>683.6</ele>
        <time>2018-11-28T06:09:21Z</time>
      </trkpt>
      <trkpt lat="42.30107" lon="2.41233">
        <ele>683.9</ele>
        <time>2018-11-28T06:09:25Z</time>
      </trkpt>
      <trkpt lat="42.30098" lon="2.41212">
        <ele>682.8</ele>
        <time>2018-11-28T06:09:32Z</time>
      </trkpt>
      <trkpt lat="42.30092" lon="2.41207">
        <ele>682.1</ele>
        <time>2018-11-28T06:09:34Z</time>
      </trkpt>
      <trkpt lat="42.30098" lon="2.41196">
        <ele>682.1</ele>
        <time>2018-11-28T06:09:38Z</time>
      </trkpt>
      <trkpt lat="42.30098" lon="2.41199">
        <ele>682.1</ele>
        <time>2018-11-28T06:09:39Z</time>
      </trkpt>
      <trkpt lat="42.30096" lon="2.41199">
        <ele>681.8</ele>
        <time>2018-11-28T06:09:40Z</time>
      </trkpt>
      <trkpt lat="42.30095" lon="2.41202">
        <ele>681.7</ele>
        <time>2018-11-28T06:09:41Z</time>
      </trkpt>
      <trkpt lat="42.30093" lon="2.41201">
        <ele>681.5</ele>
        <time>2018-11-28T06:09:42Z</time>
      </trkpt>
      <trkpt lat="42.30099" lon="2.4121">
        <ele>682.6</ele>
        <time>2018-11-28T06:09:45Z</time>
      </trkpt>
      <trkpt lat="42.301" lon="2.4122">
        <ele>683.5</ele>
        <time>2018-11-28T06:09:48Z</time>
      </trkpt>
      <trkpt lat="42.30104" lon="2.41243">
        <ele>684.1</ele>
        <time>2018-11-28T06:09:55Z</time>
      </trkpt>
      <trkpt lat="42.30104" lon="2.41247">
        <ele>684.6</ele>
        <time>2018-11-28T06:09:57Z</time>
      </trkpt>
      <trkpt lat="42.30111" lon="2.41223">
        <ele>686.4</ele>
        <time>2018-11-28T06:10:04Z</time>
      </trkpt>
      <trkpt lat="42.30114" lon="2.41215">
        <ele>687.1</ele>
        <time>2018-11-28T06:10:07Z</time>
      </trkpt>
      <trkpt lat="42.30121" lon="2.4121">
        <ele>688.2</ele>
        <time>2018-11-28T06:10:10Z</time>
      </trkpt>
      <trkpt lat="42.30141" lon="2.41191">
        <ele>688.4</ele>
        <time>2018-11-28T06:10:20Z</time>
      </trkpt>
      <trkpt lat="42.30146" lon="2.41181">
        <ele>688.1</ele>
        <time>2018-11-28T06:10:23Z</time>
      </trkpt>
      <trkpt lat="42.30145" lon="2.41172">
        <ele>688.5</ele>
        <time>2018-11-28T06:10:26Z</time>
      </trkpt>
      <trkpt lat="42.30152" lon="2.41164">
        <ele>688.9</ele>
        <time>2018-11-28T06:10:30Z</time>
      </trkpt>
      <trkpt lat="42.30158" lon="2.4115">
        <ele>690.1</ele>
        <time>2018-11-28T06:10:35Z</time>
      </trkpt>
      <trkpt lat="42.30162" lon="2.41147">
        <ele>690.1</ele>
        <time>2018-11-28T06:10:36Z</time>
      </trkpt>
      <trkpt lat="42.3018" lon="2.4112">
        <ele>691.8</ele>
        <time>2018-11-28T06:10:47Z</time>
      </trkpt>
      <trkpt lat="42.30184" lon="2.41108">
        <ele>692.4</ele>
        <time>2018-11-28T06:10:51Z</time>
      </trkpt>
      <trkpt lat="42.30193" lon="2.41096">
        <ele>693.4</ele>
        <time>2018-11-28T06:10:56Z</time>
      </trkpt>
      <trkpt lat="42.30196" lon="2.41085">
        <ele>693.8</ele>
        <time>2018-11-28T06:11:00Z</time>
      </trkpt>
      <trkpt lat="42.30203" lon="2.4108">
        <ele>695.3</ele>
        <time>2018-11-28T06:11:03Z</time>
      </trkpt>
      <trkpt lat="42.3021" lon="2.41069">
        <ele>697</ele>
        <time>2018-11-28T06:11:07Z</time>
      </trkpt>
      <trkpt lat="42.30223" lon="2.41062">
        <ele>698.5</ele>
        <time>2018-11-28T06:11:13Z</time>
      </trkpt>
      <trkpt lat="42.30229" lon="2.41042">
        <ele>697.7</ele>
        <time>2018-11-28T06:11:19Z</time>
      </trkpt>
      <trkpt lat="42.30231" lon="2.41041">
        <ele>698.1</ele>
        <time>2018-11-28T06:11:20Z</time>
      </trkpt>
      <trkpt lat="42.30238" lon="2.41018">
        <ele>700.2</ele>
        <time>2018-11-28T06:11:27Z</time>
      </trkpt>
      <trkpt lat="42.30252" lon="2.40991">
        <ele>702.3</ele>
        <time>2018-11-28T06:11:37Z</time>
      </trkpt>
      <trkpt lat="42.30252" lon="2.40985">
        <ele>702.5</ele>
        <time>2018-11-28T06:11:39Z</time>
      </trkpt>
      <trkpt lat="42.30256" lon="2.40985">
        <ele>702.7</ele>
        <time>2018-11-28T06:11:40Z</time>
      </trkpt>
      <trkpt lat="42.30265" lon="2.40977">
        <ele>704.4</ele>
        <time>2018-11-28T06:11:45Z</time>
      </trkpt>
      <trkpt lat="42.30263" lon="2.40962">
        <ele>704.9</ele>
        <time>2018-11-28T06:11:49Z</time>
      </trkpt>
      <trkpt lat="42.3027" lon="2.40955">
        <ele>706.1</ele>
        <time>2018-11-28T06:11:53Z</time>
      </trkpt>
      <trkpt lat="42.30275" lon="2.40953">
        <ele>706.8</ele>
        <time>2018-11-28T06:11:55Z</time>
      </trkpt>
      <trkpt lat="42.30302" lon="2.40926">
        <ele>710.1</ele>
        <time>2018-11-28T06:12:09Z</time>
      </trkpt>
      <trkpt lat="42.3032" lon="2.40915">
        <ele>710</ele>
        <time>2018-11-28T06:12:16Z</time>
      </trkpt>
      <trkpt lat="42.30331" lon="2.4088">
        <ele>713.1</ele>
        <time>2018-11-28T06:12:28Z</time>
      </trkpt>
      <trkpt lat="42.30333" lon="2.4086">
        <ele>713.3</ele>
        <time>2018-11-28T06:12:34Z</time>
      </trkpt>
      <trkpt lat="42.30332" lon="2.40828">
        <ele>714.9</ele>
        <time>2018-11-28T06:12:43Z</time>
      </trkpt>
      <trkpt lat="42.30332" lon="2.40822">
        <ele>715.2</ele>
        <time>2018-11-28T06:12:45Z</time>
      </trkpt>
      <trkpt lat="42.3034" lon="2.40808">
        <ele>716.5</ele>
        <time>2018-11-28T06:12:50Z</time>
      </trkpt>
      <trkpt lat="42.3034" lon="2.40794">
        <ele>717.4</ele>
        <time>2018-11-28T06:12:54Z</time>
      </trkpt>
      <trkpt lat="42.30345" lon="2.40782">
        <ele>718.7</ele>
        <time>2018-11-28T06:12:58Z</time>
      </trkpt>
      <trkpt lat="42.30346" lon="2.40772">
        <ele>719.7</ele>
        <time>2018-11-28T06:13:01Z</time>
      </trkpt>
      <trkpt lat="42.30344" lon="2.40731">
        <ele>722</ele>
        <time>2018-11-28T06:13:14Z</time>
      </trkpt>
      <trkpt lat="42.30345" lon="2.40729">
        <ele>721.7</ele>
        <time>2018-11-28T06:13:14Z</time>
      </trkpt>
      <trkpt lat="42.30342" lon="2.40711">
        <ele>720.8</ele>
        <time>2018-11-28T06:13:20Z</time>
      </trkpt>
      <trkpt lat="42.30337" lon="2.40699">
        <ele>720.1</ele>
        <time>2018-11-28T06:13:24Z</time>
      </trkpt>
      <trkpt lat="42.30331" lon="2.40655">
        <ele>721.8</ele>
        <time>2018-11-28T06:13:37Z</time>
      </trkpt>
      <trkpt lat="42.30334" lon="2.40644">
        <ele>722.6</ele>
        <time>2018-11-28T06:13:40Z</time>
      </trkpt>
      <trkpt lat="42.30345" lon="2.40618">
        <ele>726.1</ele>
        <time>2018-11-28T06:13:49Z</time>
      </trkpt>
      <trkpt lat="42.30345" lon="2.40591">
        <ele>727.8</ele>
        <time>2018-11-28T06:13:57Z</time>
      </trkpt>
      <trkpt lat="42.30343" lon="2.40585">
        <ele>728.5</ele>
        <time>2018-11-28T06:13:59Z</time>
      </trkpt>
      <trkpt lat="42.30344" lon="2.40564">
        <ele>728.7</ele>
        <time>2018-11-28T06:14:05Z</time>
      </trkpt>
      <trkpt lat="42.30345" lon="2.40557">
        <ele>729</ele>
        <time>2018-11-28T06:14:08Z</time>
      </trkpt>
      <trkpt lat="42.30344" lon="2.40546">
        <ele>729.9</ele>
        <time>2018-11-28T06:14:11Z</time>
      </trkpt>
      <trkpt lat="42.30342" lon="2.40463">
        <ele>736.3</ele>
        <time>2018-11-28T06:14:35Z</time>
      </trkpt>
      <trkpt lat="42.30325" lon="2.40401">
        <ele>740.4</ele>
        <time>2018-11-28T06:14:55Z</time>
      </trkpt>
      <trkpt lat="42.30304" lon="2.40332">
        <ele>744.1</ele>
        <time>2018-11-28T06:15:17Z</time>
      </trkpt>
      <trkpt lat="42.30304" lon="2.40324">
        <ele>744.3</ele>
        <time>2018-11-28T06:15:19Z</time>
      </trkpt>
      <trkpt lat="42.30306" lon="2.40328">
        <ele>744.2</ele>
        <time>2018-11-28T06:15:21Z</time>
      </trkpt>
      <trkpt lat="42.30305" lon="2.40326">
        <ele>744.6</ele>
        <time>2018-11-28T06:15:22Z</time>
      </trkpt>
      <trkpt lat="42.30298" lon="2.40304">
        <ele>744.9</ele>
        <time>2018-11-28T06:15:29Z</time>
      </trkpt>
      <trkpt lat="42.30298" lon="2.40298">
        <ele>745.4</ele>
        <time>2018-11-28T06:15:31Z</time>
      </trkpt>
      <trkpt lat="42.30302" lon="2.40289">
        <ele>745.3</ele>
        <time>2018-11-28T06:15:34Z</time>
      </trkpt>
      <trkpt lat="42.30303" lon="2.40276">
        <ele>746.4</ele>
        <time>2018-11-28T06:15:38Z</time>
      </trkpt>
      <trkpt lat="42.30311" lon="2.40251">
        <ele>748.6</ele>
        <time>2018-11-28T06:15:46Z</time>
      </trkpt>
      <trkpt lat="42.30319" lon="2.4024">
        <ele>749.8</ele>
        <time>2018-11-28T06:15:51Z</time>
      </trkpt>
      <trkpt lat="42.30327" lon="2.40235">
        <ele>749.7</ele>
        <time>2018-11-28T06:15:54Z</time>
      </trkpt>
      <trkpt lat="42.30324" lon="2.40239">
        <ele>750.5</ele>
        <time>2018-11-28T06:15:56Z</time>
      </trkpt>
      <trkpt lat="42.30324" lon="2.40249">
        <ele>751</ele>
        <time>2018-11-28T06:15:59Z</time>
      </trkpt>
      <trkpt lat="42.30328" lon="2.40264">
        <ele>752.2</ele>
        <time>2018-11-28T06:16:03Z</time>
      </trkpt>
      <trkpt lat="42.30327" lon="2.40276">
        <ele>753.4</ele>
        <time>2018-11-28T06:16:07Z</time>
      </trkpt>
      <trkpt lat="42.30324" lon="2.40288">
        <ele>754.5</ele>
        <time>2018-11-28T06:16:11Z</time>
      </trkpt>
      <trkpt lat="42.30322" lon="2.40291">
        <ele>754.9</ele>
        <time>2018-11-28T06:16:12Z</time>
      </trkpt>
      <trkpt lat="42.30323" lon="2.40311">
        <ele>756.9</ele>
        <time>2018-11-28T06:16:18Z</time>
      </trkpt>
      <trkpt lat="42.30327" lon="2.40323">
        <ele>758</ele>
        <time>2018-11-28T06:16:22Z</time>
      </trkpt>
      <trkpt lat="42.30344" lon="2.40339">
        <ele>759.9</ele>
        <time>2018-11-28T06:16:30Z</time>
      </trkpt>
      <trkpt lat="42.30351" lon="2.40355">
        <ele>762</ele>
        <time>2018-11-28T06:16:35Z</time>
      </trkpt>
      <trkpt lat="42.30355" lon="2.40374">
        <ele>763</ele>
        <time>2018-11-28T06:16:42Z</time>
      </trkpt>
      <trkpt lat="42.30373" lon="2.40397">
        <ele>766.4</ele>
        <time>2018-11-28T06:16:51Z</time>
      </trkpt>
      <trkpt lat="42.30377" lon="2.40404">
        <ele>767.1</ele>
        <time>2018-11-28T06:16:54Z</time>
      </trkpt>
      <trkpt lat="42.30389" lon="2.40459">
        <ele>771.5</ele>
        <time>2018-11-28T06:17:11Z</time>
      </trkpt>
      <trkpt lat="42.30393" lon="2.40462">
        <ele>772.2</ele>
        <time>2018-11-28T06:17:13Z</time>
      </trkpt>
      <trkpt lat="42.30395" lon="2.40457">
        <ele>773.1</ele>
        <time>2018-11-28T06:17:15Z</time>
      </trkpt>
      <trkpt lat="42.30397" lon="2.40444">
        <ele>774.8</ele>
        <time>2018-11-28T06:17:18Z</time>
      </trkpt>
      <trkpt lat="42.30391" lon="2.40419">
        <ele>777.4</ele>
        <time>2018-11-28T06:17:26Z</time>
      </trkpt>
      <trkpt lat="42.30393" lon="2.40409">
        <ele>778.8</ele>
        <time>2018-11-28T06:17:29Z</time>
      </trkpt>
      <trkpt lat="42.3039" lon="2.404">
        <ele>779.2</ele>
        <time>2018-11-28T06:17:32Z</time>
      </trkpt>
      <trkpt lat="42.30391" lon="2.4039">
        <ele>779.8</ele>
        <time>2018-11-28T06:17:35Z</time>
      </trkpt>
      <trkpt lat="42.30382" lon="2.40331">
        <ele>784.9</ele>
        <time>2018-11-28T06:17:53Z</time>
      </trkpt>
      <trkpt lat="42.30379" lon="2.40323">
        <ele>785.7</ele>
        <time>2018-11-28T06:17:56Z</time>
      </trkpt>
      <trkpt lat="42.30377" lon="2.403">
        <ele>788.7</ele>
        <time>2018-11-28T06:18:02Z</time>
      </trkpt>
      <trkpt lat="42.30379" lon="2.4029">
        <ele>789.8</ele>
        <time>2018-11-28T06:18:06Z</time>
      </trkpt>
      <trkpt lat="42.30386" lon="2.40275">
        <ele>791.6</ele>
        <time>2018-11-28T06:18:11Z</time>
      </trkpt>
      <trkpt lat="42.30394" lon="2.40265">
        <ele>793.2</ele>
        <time>2018-11-28T06:18:15Z</time>
      </trkpt>
      <trkpt lat="42.30395" lon="2.40263">
        <ele>793.3</ele>
        <time>2018-11-28T06:18:16Z</time>
      </trkpt>
      <trkpt lat="42.30412" lon="2.40248">
        <ele>796.5</ele>
        <time>2018-11-28T06:18:24Z</time>
      </trkpt>
      <trkpt lat="42.30419" lon="2.40244">
        <ele>797.3</ele>
        <time>2018-11-28T06:18:27Z</time>
      </trkpt>
      <trkpt lat="42.30426" lon="2.40235">
        <ele>798.6</ele>
        <time>2018-11-28T06:18:31Z</time>
      </trkpt>
      <trkpt lat="42.30435" lon="2.40223">
        <ele>800</ele>
        <time>2018-11-28T06:18:36Z</time>
      </trkpt>
      <trkpt lat="42.30443" lon="2.40219">
        <ele>801.4</ele>
        <time>2018-11-28T06:18:40Z</time>
      </trkpt>
      <trkpt lat="42.3045" lon="2.40221">
        <ele>801.9</ele>
        <time>2018-11-28T06:18:42Z</time>
      </trkpt>
      <trkpt lat="42.3048" lon="2.40233">
        <ele>806.3</ele>
        <time>2018-11-28T06:18:55Z</time>
      </trkpt>
      <trkpt lat="42.30495" lon="2.40241">
        <ele>808.1</ele>
        <time>2018-11-28T06:19:01Z</time>
      </trkpt>
      <trkpt lat="42.30498" lon="2.4024">
        <ele>808.7</ele>
        <time>2018-11-28T06:19:02Z</time>
      </trkpt>
      <trkpt lat="42.30534" lon="2.40252">
        <ele>811.5</ele>
        <time>2018-11-28T06:19:18Z</time>
      </trkpt>
      <trkpt lat="42.30535" lon="2.40252">
        <ele>811.5</ele>
        <time>2018-11-28T06:19:18Z</time>
      </trkpt>
      <trkpt lat="42.30553" lon="2.40258">
        <ele>813.4</ele>
        <time>2018-11-28T06:19:25Z</time>
      </trkpt>
      <trkpt lat="42.30583" lon="2.40263">
        <ele>818.1</ele>
        <time>2018-11-28T06:19:37Z</time>
      </trkpt>
      <trkpt lat="42.30604" lon="2.40275">
        <ele>820.2</ele>
        <time>2018-11-28T06:19:47Z</time>
      </trkpt>
      <trkpt lat="42.30624" lon="2.40268">
        <ele>822.1</ele>
        <time>2018-11-28T06:19:55Z</time>
      </trkpt>
      <trkpt lat="42.30628" lon="2.40262">
        <ele>822.2</ele>
        <time>2018-11-28T06:19:57Z</time>
      </trkpt>
      <trkpt lat="42.3063" lon="2.40257">
        <ele>822.8</ele>
        <time>2018-11-28T06:19:59Z</time>
      </trkpt>
      <trkpt lat="42.30637" lon="2.40255">
        <ele>823.1</ele>
        <time>2018-11-28T06:20:02Z</time>
      </trkpt>
      <trkpt lat="42.30653" lon="2.40264">
        <ele>823.1</ele>
        <time>2018-11-28T06:20:09Z</time>
      </trkpt>
      <trkpt lat="42.30655" lon="2.40264">
        <ele>823.6</ele>
        <time>2018-11-28T06:20:10Z</time>
      </trkpt>
      <trkpt lat="42.30662" lon="2.4026">
        <ele>823.6</ele>
        <time>2018-11-28T06:20:13Z</time>
      </trkpt>
      <trkpt lat="42.30678" lon="2.40233">
        <ele>824.2</ele>
        <time>2018-11-28T06:20:23Z</time>
      </trkpt>
      <trkpt lat="42.3068" lon="2.40224">
        <ele>825.1</ele>
        <time>2018-11-28T06:20:26Z</time>
      </trkpt>
      <trkpt lat="42.3068" lon="2.40213">
        <ele>826.2</ele>
        <time>2018-11-28T06:20:29Z</time>
      </trkpt>
      <trkpt lat="42.30674" lon="2.40194">
        <ele>828</ele>
        <time>2018-11-28T06:20:35Z</time>
      </trkpt>
      <trkpt lat="42.30674" lon="2.40184">
        <ele>829</ele>
        <time>2018-11-28T06:20:38Z</time>
      </trkpt>
      <trkpt lat="42.30676" lon="2.40175">
        <ele>829.9</ele>
        <time>2018-11-28T06:20:41Z</time>
      </trkpt>
      <trkpt lat="42.30681" lon="2.4017">
        <ele>830.9</ele>
        <time>2018-11-28T06:20:43Z</time>
      </trkpt>
      <trkpt lat="42.30693" lon="2.4016">
        <ele>831.8</ele>
        <time>2018-11-28T06:20:49Z</time>
      </trkpt>
      <trkpt lat="42.3071" lon="2.40152">
        <ele>833.8</ele>
        <time>2018-11-28T06:20:56Z</time>
      </trkpt>
      <trkpt lat="42.30712" lon="2.40145">
        <ele>834.9</ele>
        <time>2018-11-28T06:20:58Z</time>
      </trkpt>
      <trkpt lat="42.30732" lon="2.40127">
        <ele>837.6</ele>
        <time>2018-11-28T06:21:08Z</time>
      </trkpt>
      <trkpt lat="42.30737" lon="2.40133">
        <ele>838.9</ele>
        <time>2018-11-28T06:21:10Z</time>
      </trkpt>
      <trkpt lat="42.30737" lon="2.40141">
        <ele>839.2</ele>
        <time>2018-11-28T06:21:13Z</time>
      </trkpt>
      <trkpt lat="42.30717" lon="2.40157">
        <ele>841.6</ele>
        <time>2018-11-28T06:21:22Z</time>
      </trkpt>
      <trkpt lat="42.30714" lon="2.40169">
        <ele>842.4</ele>
        <time>2018-11-28T06:21:25Z</time>
      </trkpt>
      <trkpt lat="42.30714" lon="2.40175">
        <ele>842.7</ele>
        <time>2018-11-28T06:21:27Z</time>
      </trkpt>
      <trkpt lat="42.30721" lon="2.40195">
        <ele>843.7</ele>
        <time>2018-11-28T06:21:34Z</time>
      </trkpt>
      <trkpt lat="42.30743" lon="2.40216">
        <ele>845.5</ele>
        <time>2018-11-28T06:21:45Z</time>
      </trkpt>
      <trkpt lat="42.30746" lon="2.40224">
        <ele>846.3</ele>
        <time>2018-11-28T06:21:47Z</time>
      </trkpt>
      <trkpt lat="42.30743" lon="2.40217">
        <ele>846.4</ele>
        <time>2018-11-28T06:21:49Z</time>
      </trkpt>
      <trkpt lat="42.30745" lon="2.40216">
        <ele>846.6</ele>
        <time>2018-11-28T06:21:50Z</time>
      </trkpt>
      <trkpt lat="42.30747" lon="2.40227">
        <ele>847.3</ele>
        <time>2018-11-28T06:21:53Z</time>
      </trkpt>
      <trkpt lat="42.30744" lon="2.40236">
        <ele>848.1</ele>
        <time>2018-11-28T06:21:56Z</time>
      </trkpt>
      <trkpt lat="42.30744" lon="2.40247">
        <ele>849.7</ele>
        <time>2018-11-28T06:22:00Z</time>
      </trkpt>
      <trkpt lat="42.30749" lon="2.40257">
        <ele>850.1</ele>
        <time>2018-11-28T06:22:03Z</time>
      </trkpt>
      <trkpt lat="42.30756" lon="2.40252">
        <ele>850.8</ele>
        <time>2018-11-28T06:22:06Z</time>
      </trkpt>
      <trkpt lat="42.30759" lon="2.40241">
        <ele>852.3</ele>
        <time>2018-11-28T06:22:10Z</time>
      </trkpt>
      <trkpt lat="42.30762" lon="2.40236">
        <ele>851.9</ele>
        <time>2018-11-28T06:22:12Z</time>
      </trkpt>
      <trkpt lat="42.30765" lon="2.40235">
        <ele>851.9</ele>
        <time>2018-11-28T06:22:13Z</time>
      </trkpt>
      <trkpt lat="42.30771" lon="2.40212">
        <ele>854.1</ele>
        <time>2018-11-28T06:22:20Z</time>
      </trkpt>
      <trkpt lat="42.30787" lon="2.40193">
        <ele>858.4</ele>
        <time>2018-11-28T06:22:29Z</time>
      </trkpt>
      <trkpt lat="42.30792" lon="2.40185">
        <ele>859.1</ele>
        <time>2018-11-28T06:22:32Z</time>
      </trkpt>
      <trkpt lat="42.30795" lon="2.40174">
        <ele>859.9</ele>
        <time>2018-11-28T06:22:35Z</time>
      </trkpt>
      <trkpt lat="42.30793" lon="2.40146">
        <ele>862.2</ele>
        <time>2018-11-28T06:22:44Z</time>
      </trkpt>
      <trkpt lat="42.30796" lon="2.40133">
        <ele>863.7</ele>
        <time>2018-11-28T06:22:48Z</time>
      </trkpt>
      <trkpt lat="42.30802" lon="2.40125">
        <ele>865.1</ele>
        <time>2018-11-28T06:22:51Z</time>
      </trkpt>
      <trkpt lat="42.30816" lon="2.40113">
        <ele>866.2</ele>
        <time>2018-11-28T06:22:58Z</time>
      </trkpt>
      <trkpt lat="42.30821" lon="2.40106">
        <ele>866.2</ele>
        <time>2018-11-28T06:23:01Z</time>
      </trkpt>
      <trkpt lat="42.30827" lon="2.40106">
        <ele>866.6</ele>
        <time>2018-11-28T06:23:03Z</time>
      </trkpt>
      <trkpt lat="42.3083" lon="2.40114">
        <ele>867.5</ele>
        <time>2018-11-28T06:23:06Z</time>
      </trkpt>
      <trkpt lat="42.30817" lon="2.4013">
        <ele>869.6</ele>
        <time>2018-11-28T06:23:13Z</time>
      </trkpt>
      <trkpt lat="42.30819" lon="2.40136">
        <ele>871</ele>
        <time>2018-11-28T06:23:15Z</time>
      </trkpt>
      <trkpt lat="42.30824" lon="2.40131">
        <ele>872.5</ele>
        <time>2018-11-28T06:23:17Z</time>
      </trkpt>
      <trkpt lat="42.30831" lon="2.40136">
        <ele>874.9</ele>
        <time>2018-11-28T06:23:20Z</time>
      </trkpt>
      <trkpt lat="42.30839" lon="2.40133">
        <ele>876.4</ele>
        <time>2018-11-28T06:23:23Z</time>
      </trkpt>
      <trkpt lat="42.3085" lon="2.40111">
        <ele>877.6</ele>
        <time>2018-11-28T06:23:31Z</time>
      </trkpt>
      <trkpt lat="42.30849" lon="2.40103">
        <ele>878.8</ele>
        <time>2018-11-28T06:23:34Z</time>
      </trkpt>
      <trkpt lat="42.30856" lon="2.40085">
        <ele>879.3</ele>
        <time>2018-11-28T06:23:40Z</time>
      </trkpt>
      <trkpt lat="42.30868" lon="2.40064">
        <ele>880.5</ele>
        <time>2018-11-28T06:23:48Z</time>
      </trkpt>
      <trkpt lat="42.3087" lon="2.40052">
        <ele>882.2</ele>
        <time>2018-11-28T06:23:51Z</time>
      </trkpt>
      <trkpt lat="42.30876" lon="2.40043">
        <ele>884.3</ele>
        <time>2018-11-28T06:23:55Z</time>
      </trkpt>
      <trkpt lat="42.30877" lon="2.40033">
        <ele>886.3</ele>
        <time>2018-11-28T06:23:58Z</time>
      </trkpt>
      <trkpt lat="42.30879" lon="2.40028">
        <ele>887.7</ele>
        <time>2018-11-28T06:23:59Z</time>
      </trkpt>
      <trkpt lat="42.30887" lon="2.40028">
        <ele>890</ele>
        <time>2018-11-28T06:24:03Z</time>
      </trkpt>
      <trkpt lat="42.30898" lon="2.40018">
        <ele>893.9</ele>
        <time>2018-11-28T06:24:08Z</time>
      </trkpt>
      <trkpt lat="42.30902" lon="2.40014">
        <ele>895.3</ele>
        <time>2018-11-28T06:24:10Z</time>
      </trkpt>
      <trkpt lat="42.30904" lon="2.40001">
        <ele>897.7</ele>
        <time>2018-11-28T06:24:14Z</time>
      </trkpt>
      <trkpt lat="42.30901" lon="2.39994">
        <ele>898.8</ele>
        <time>2018-11-28T06:24:17Z</time>
      </trkpt>
      <trkpt lat="42.30901" lon="2.39988">
        <ele>899.4</ele>
        <time>2018-11-28T06:24:18Z</time>
      </trkpt>
      <trkpt lat="42.3089" lon="2.39972">
        <ele>901.7</ele>
        <time>2018-11-28T06:24:25Z</time>
      </trkpt>
      <trkpt lat="42.30885" lon="2.39969">
        <ele>901.7</ele>
        <time>2018-11-28T06:24:27Z</time>
      </trkpt>
      <trkpt lat="42.30879" lon="2.39961">
        <ele>902</ele>
        <time>2018-11-28T06:24:31Z</time>
      </trkpt>
      <trkpt lat="42.30861" lon="2.39949">
        <ele>902.4</ele>
        <time>2018-11-28T06:24:39Z</time>
      </trkpt>
      <trkpt lat="42.30848" lon="2.39934">
        <ele>904.5</ele>
        <time>2018-11-28T06:24:45Z</time>
      </trkpt>
      <trkpt lat="42.30829" lon="2.39929">
        <ele>905.9</ele>
        <time>2018-11-28T06:24:53Z</time>
      </trkpt>
      <trkpt lat="42.30824" lon="2.39929">
        <ele>906.3</ele>
        <time>2018-11-28T06:24:55Z</time>
      </trkpt>
      <trkpt lat="42.3081" lon="2.39925">
        <ele>909.2</ele>
        <time>2018-11-28T06:25:01Z</time>
      </trkpt>
      <trkpt lat="42.30795" lon="2.39927">
        <ele>909.7</ele>
        <time>2018-11-28T06:25:07Z</time>
      </trkpt>
      <trkpt lat="42.30786" lon="2.39931">
        <ele>908.6</ele>
        <time>2018-11-28T06:25:11Z</time>
      </trkpt>
      <trkpt lat="42.30772" lon="2.39932">
        <ele>907.5</ele>
        <time>2018-11-28T06:25:16Z</time>
      </trkpt>
      <trkpt lat="42.30783" lon="2.39933">
        <ele>909</ele>
        <time>2018-11-28T06:25:21Z</time>
      </trkpt>
      <trkpt lat="42.30787" lon="2.39931">
        <ele>910.1</ele>
        <time>2018-11-28T06:25:22Z</time>
      </trkpt>
      <trkpt lat="42.30798" lon="2.39922">
        <ele>911.9</ele>
        <time>2018-11-28T06:25:27Z</time>
      </trkpt>
      <trkpt lat="42.30801" lon="2.39918">
        <ele>912.7</ele>
        <time>2018-11-28T06:25:29Z</time>
      </trkpt>
      <trkpt lat="42.30796" lon="2.39908">
        <ele>913.5</ele>
        <time>2018-11-28T06:25:32Z</time>
      </trkpt>
      <trkpt lat="42.30796" lon="2.39902">
        <ele>914.5</ele>
        <time>2018-11-28T06:25:34Z</time>
      </trkpt>
      <trkpt lat="42.30792" lon="2.39909">
        <ele>914.5</ele>
        <time>2018-11-28T06:25:37Z</time>
      </trkpt>
      <trkpt lat="42.30789" lon="2.39912">
        <ele>914.6</ele>
        <time>2018-11-28T06:25:38Z</time>
      </trkpt>
      <trkpt lat="42.3078" lon="2.39914">
        <ele>914.1</ele>
        <time>2018-11-28T06:25:42Z</time>
      </trkpt>
      <trkpt lat="42.30775" lon="2.39919">
        <ele>914.5</ele>
        <time>2018-11-28T06:25:44Z</time>
      </trkpt>
      <trkpt lat="42.30776" lon="2.39915">
        <ele>914.6</ele>
        <time>2018-11-28T06:25:46Z</time>
      </trkpt>
      <trkpt lat="42.30776" lon="2.39916">
        <ele>914.5</ele>
        <time>2018-11-28T06:25:46Z</time>
      </trkpt>
      <trkpt lat="42.30777" lon="2.39915">
        <ele>914.6</ele>
        <time>2018-11-28T06:25:46Z</time>
      </trkpt>
      <trkpt lat="42.30778" lon="2.39913">
        <ele>914.8</ele>
        <time>2018-11-28T06:25:47Z</time>
      </trkpt>
      <trkpt lat="42.30776" lon="2.39911">
        <ele>915.2</ele>
        <time>2018-11-28T06:25:48Z</time>
      </trkpt>
      <trkpt lat="42.30784" lon="2.39906">
        <ele>915.9</ele>
        <time>2018-11-28T06:25:51Z</time>
      </trkpt>
      <trkpt lat="42.30785" lon="2.39904">
        <ele>916.4</ele>
        <time>2018-11-28T06:25:52Z</time>
      </trkpt>
      <trkpt lat="42.30784" lon="2.39889">
        <ele>917.9</ele>
        <time>2018-11-28T06:25:57Z</time>
      </trkpt>
      <trkpt lat="42.30784" lon="2.39867">
        <ele>921.2</ele>
        <time>2018-11-28T06:26:03Z</time>
      </trkpt>
      <trkpt lat="42.30794" lon="2.39856">
        <ele>924.8</ele>
        <time>2018-11-28T06:26:08Z</time>
      </trkpt>
      <trkpt lat="42.30793" lon="2.39857">
        <ele>925.4</ele>
        <time>2018-11-28T06:26:09Z</time>
      </trkpt>
      <trkpt lat="42.30803" lon="2.39849">
        <ele>928.1</ele>
        <time>2018-11-28T06:26:13Z</time>
      </trkpt>
      <trkpt lat="42.30808" lon="2.39854">
        <ele>929.9</ele>
        <time>2018-11-28T06:26:16Z</time>
      </trkpt>
      <trkpt lat="42.30816" lon="2.39852">
        <ele>931.4</ele>
        <time>2018-11-28T06:26:19Z</time>
      </trkpt>
      <trkpt lat="42.30819" lon="2.39849">
        <ele>933.3</ele>
        <time>2018-11-28T06:26:21Z</time>
      </trkpt>
      <trkpt lat="42.30814" lon="2.39839">
        <ele>935.9</ele>
        <time>2018-11-28T06:26:24Z</time>
      </trkpt>
      <trkpt lat="42.30834" lon="2.39841">
        <ele>937.7</ele>
        <time>2018-11-28T06:26:32Z</time>
      </trkpt>
      <trkpt lat="42.30847" lon="2.39851">
        <ele>939.2</ele>
        <time>2018-11-28T06:26:38Z</time>
      </trkpt>
      <trkpt lat="42.30857" lon="2.39851">
        <ele>940.3</ele>
        <time>2018-11-28T06:26:42Z</time>
      </trkpt>
      <trkpt lat="42.30866" lon="2.39848">
        <ele>940.8</ele>
        <time>2018-11-28T06:26:45Z</time>
      </trkpt>
      <trkpt lat="42.30866" lon="2.39839">
        <ele>941.4</ele>
        <time>2018-11-28T06:26:48Z</time>
      </trkpt>
      <trkpt lat="42.30856" lon="2.39825">
        <ele>944.3</ele>
        <time>2018-11-28T06:26:54Z</time>
      </trkpt>
      <trkpt lat="42.30846" lon="2.3982">
        <ele>945.1</ele>
        <time>2018-11-28T06:26:58Z</time>
      </trkpt>
      <trkpt lat="42.30832" lon="2.39807">
        <ele>947.3</ele>
        <time>2018-11-28T06:27:05Z</time>
      </trkpt>
      <trkpt lat="42.3083" lon="2.398">
        <ele>947.6</ele>
        <time>2018-11-28T06:27:07Z</time>
      </trkpt>
      <trkpt lat="42.30832" lon="2.39794">
        <ele>947.8</ele>
        <time>2018-11-28T06:27:09Z</time>
      </trkpt>
      <trkpt lat="42.30835" lon="2.3979">
        <ele>949.2</ele>
        <time>2018-11-28T06:27:11Z</time>
      </trkpt>
      <trkpt lat="42.30836" lon="2.39783">
        <ele>950.3</ele>
        <time>2018-11-28T06:27:13Z</time>
      </trkpt>
      <trkpt lat="42.30843" lon="2.3976">
        <ele>953.7</ele>
        <time>2018-11-28T06:27:20Z</time>
      </trkpt>
      <trkpt lat="42.30843" lon="2.39754">
        <ele>953.8</ele>
        <time>2018-11-28T06:27:22Z</time>
      </trkpt>
      <trkpt lat="42.30844" lon="2.39754">
        <ele>954.2</ele>
        <time>2018-11-28T06:27:23Z</time>
      </trkpt>
      <trkpt lat="42.30848" lon="2.39752">
        <ele>954.4</ele>
        <time>2018-11-28T06:27:24Z</time>
      </trkpt>
      <trkpt lat="42.30848" lon="2.39766">
        <ele>955</ele>
        <time>2018-11-28T06:27:28Z</time>
      </trkpt>
      <trkpt lat="42.30846" lon="2.39774">
        <ele>956.1</ele>
        <time>2018-11-28T06:27:31Z</time>
      </trkpt>
      <trkpt lat="42.30847" lon="2.39783">
        <ele>956.8</ele>
        <time>2018-11-28T06:27:33Z</time>
      </trkpt>
      <trkpt lat="42.30853" lon="2.39792">
        <ele>957.3</ele>
        <time>2018-11-28T06:27:37Z</time>
      </trkpt>
      <trkpt lat="42.30859" lon="2.39793">
        <ele>958.6</ele>
        <time>2018-11-28T06:27:40Z</time>
      </trkpt>
      <trkpt lat="42.3088" lon="2.39799">
        <ele>962.6</ele>
        <time>2018-11-28T06:27:48Z</time>
      </trkpt>
      <trkpt lat="42.30886" lon="2.39804">
        <ele>962.9</ele>
        <time>2018-11-28T06:27:51Z</time>
      </trkpt>
      <trkpt lat="42.30892" lon="2.3981">
        <ele>963.2</ele>
        <time>2018-11-28T06:27:54Z</time>
      </trkpt>
      <trkpt lat="42.30922" lon="2.39828">
        <ele>968</ele>
        <time>2018-11-28T06:28:07Z</time>
      </trkpt>
      <trkpt lat="42.30936" lon="2.39832">
        <ele>969.8</ele>
        <time>2018-11-28T06:28:13Z</time>
      </trkpt>
      <trkpt lat="42.30939" lon="2.39835">
        <ele>970</ele>
        <time>2018-11-28T06:28:14Z</time>
      </trkpt>
      <trkpt lat="42.30943" lon="2.39835">
        <ele>970.7</ele>
        <time>2018-11-28T06:28:16Z</time>
      </trkpt>
      <trkpt lat="42.30952" lon="2.39839">
        <ele>970.5</ele>
        <time>2018-11-28T06:28:20Z</time>
      </trkpt>
      <trkpt lat="42.30966" lon="2.39853">
        <ele>972.8</ele>
        <time>2018-11-28T06:28:27Z</time>
      </trkpt>
      <trkpt lat="42.30972" lon="2.39849">
        <ele>975.1</ele>
        <time>2018-11-28T06:28:29Z</time>
      </trkpt>
      <trkpt lat="42.30965" lon="2.39837">
        <ele>976.7</ele>
        <time>2018-11-28T06:28:34Z</time>
      </trkpt>
      <trkpt lat="42.30959" lon="2.3983">
        <ele>977.6</ele>
        <time>2018-11-28T06:28:37Z</time>
      </trkpt>
      <trkpt lat="42.30959" lon="2.39817">
        <ele>978.9</ele>
        <time>2018-11-28T06:28:41Z</time>
      </trkpt>
      <trkpt lat="42.30965" lon="2.39813">
        <ele>981.1</ele>
        <time>2018-11-28T06:28:44Z</time>
      </trkpt>
      <trkpt lat="42.30973" lon="2.39814">
        <ele>982.2</ele>
        <time>2018-11-28T06:28:47Z</time>
      </trkpt>
      <trkpt lat="42.30977" lon="2.39805">
        <ele>983.6</ele>
        <time>2018-11-28T06:28:50Z</time>
      </trkpt>
      <trkpt lat="42.30975" lon="2.39799">
        <ele>984.9</ele>
        <time>2018-11-28T06:28:52Z</time>
      </trkpt>
      <trkpt lat="42.30963" lon="2.39786">
        <ele>987.8</ele>
        <time>2018-11-28T06:28:59Z</time>
      </trkpt>
      <trkpt lat="42.30944" lon="2.39781">
        <ele>990.5</ele>
        <time>2018-11-28T06:29:06Z</time>
      </trkpt>
      <trkpt lat="42.30946" lon="2.39772">
        <ele>991</ele>
        <time>2018-11-28T06:29:09Z</time>
      </trkpt>
      <trkpt lat="42.30958" lon="2.39766">
        <ele>993.6</ele>
        <time>2018-11-28T06:29:14Z</time>
      </trkpt>
      <trkpt lat="42.30965" lon="2.39765">
        <ele>995.6</ele>
        <time>2018-11-28T06:29:17Z</time>
      </trkpt>
      <trkpt lat="42.30982" lon="2.39771">
        <ele>998</ele>
        <time>2018-11-28T06:29:24Z</time>
      </trkpt>
      <trkpt lat="42.30986" lon="2.39766">
        <ele>998.9</ele>
        <time>2018-11-28T06:29:26Z</time>
      </trkpt>
      <trkpt lat="42.30986" lon="2.39762">
        <ele>999.4</ele>
        <time>2018-11-28T06:29:27Z</time>
      </trkpt>
      <trkpt lat="42.3098" lon="2.39745">
        <ele>1001.6</ele>
        <time>2018-11-28T06:29:33Z</time>
      </trkpt>
      <trkpt lat="42.30977" lon="2.39744">
        <ele>1002.3</ele>
        <time>2018-11-28T06:29:34Z</time>
      </trkpt>
      <trkpt lat="42.30975" lon="2.39741">
        <ele>1003</ele>
        <time>2018-11-28T06:29:35Z</time>
      </trkpt>
      <trkpt lat="42.30962" lon="2.39736">
        <ele>1006</ele>
        <time>2018-11-28T06:29:40Z</time>
      </trkpt>
      <trkpt lat="42.30952" lon="2.39719">
        <ele>1008.3</ele>
        <time>2018-11-28T06:29:47Z</time>
      </trkpt>
      <trkpt lat="42.30947" lon="2.39717">
        <ele>1008.8</ele>
        <time>2018-11-28T06:29:49Z</time>
      </trkpt>
      <trkpt lat="42.30943" lon="2.39722">
        <ele>1009.8</ele>
        <time>2018-11-28T06:29:51Z</time>
      </trkpt>
      <trkpt lat="42.30939" lon="2.39718">
        <ele>1010.8</ele>
        <time>2018-11-28T06:29:53Z</time>
      </trkpt>
      <trkpt lat="42.30935" lon="2.39704">
        <ele>1013.5</ele>
        <time>2018-11-28T06:29:58Z</time>
      </trkpt>
      <trkpt lat="42.30932" lon="2.39699">
        <ele>1013.9</ele>
        <time>2018-11-28T06:29:59Z</time>
      </trkpt>
      <trkpt lat="42.30933" lon="2.39692">
        <ele>1014.5</ele>
        <time>2018-11-28T06:30:01Z</time>
      </trkpt>
      <trkpt lat="42.30932" lon="2.39671">
        <ele>1017.2</ele>
        <time>2018-11-28T06:30:08Z</time>
      </trkpt>
      <trkpt lat="42.3095" lon="2.39683">
        <ele>1017.9</ele>
        <time>2018-11-28T06:30:16Z</time>
      </trkpt>
      <trkpt lat="42.3096" lon="2.39686">
        <ele>1019.8</ele>
        <time>2018-11-28T06:30:20Z</time>
      </trkpt>
      <trkpt lat="42.30966" lon="2.39686">
        <ele>1022.6</ele>
        <time>2018-11-28T06:30:22Z</time>
      </trkpt>
      <trkpt lat="42.30981" lon="2.39683">
        <ele>1025.4</ele>
        <time>2018-11-28T06:30:28Z</time>
      </trkpt>
      <trkpt lat="42.30984" lon="2.39678">
        <ele>1027.4</ele>
        <time>2018-11-28T06:30:30Z</time>
      </trkpt>
      <trkpt lat="42.30989" lon="2.39699">
        <ele>1024.9</ele>
        <time>2018-11-28T06:30:37Z</time>
      </trkpt>
      <trkpt lat="42.30994" lon="2.39706">
        <ele>1023.5</ele>
        <time>2018-11-28T06:30:40Z</time>
      </trkpt>
      <trkpt lat="42.30999" lon="2.39708">
        <ele>1022.9</ele>
        <time>2018-11-28T06:30:42Z</time>
      </trkpt>
      <trkpt lat="42.31002" lon="2.3972">
        <ele>1022.5</ele>
        <time>2018-11-28T06:30:45Z</time>
      </trkpt>
      <trkpt lat="42.31009" lon="2.3973">
        <ele>1021.8</ele>
        <time>2018-11-28T06:30:50Z</time>
      </trkpt>
      <trkpt lat="42.31014" lon="2.39741">
        <ele>1021.6</ele>
        <time>2018-11-28T06:30:54Z</time>
      </trkpt>
      <trkpt lat="42.31018" lon="2.39743">
        <ele>1021.4</ele>
        <time>2018-11-28T06:30:55Z</time>
      </trkpt>
      <trkpt lat="42.31026" lon="2.39752">
        <ele>1021.5</ele>
        <time>2018-11-28T06:30:59Z</time>
      </trkpt>
      <trkpt lat="42.3103" lon="2.39753">
        <ele>1021.8</ele>
        <time>2018-11-28T06:31:01Z</time>
      </trkpt>
      <trkpt lat="42.31041" lon="2.39768">
        <ele>1021.6</ele>
        <time>2018-11-28T06:31:07Z</time>
      </trkpt>
      <trkpt lat="42.3105" lon="2.39772">
        <ele>1022.4</ele>
        <time>2018-11-28T06:31:11Z</time>
      </trkpt>
      <trkpt lat="42.31053" lon="2.39782">
        <ele>1023.3</ele>
        <time>2018-11-28T06:31:14Z</time>
      </trkpt>
      <trkpt lat="42.31053" lon="2.39791">
        <ele>1023.1</ele>
        <time>2018-11-28T06:31:17Z</time>
      </trkpt>
      <trkpt lat="42.31056" lon="2.39803">
        <ele>1024.3</ele>
        <time>2018-11-28T06:31:20Z</time>
      </trkpt>
      <trkpt lat="42.31057" lon="2.39808">
        <ele>1024</ele>
        <time>2018-11-28T06:31:22Z</time>
      </trkpt>
      <trkpt lat="42.31062" lon="2.39804">
        <ele>1024.7</ele>
        <time>2018-11-28T06:31:24Z</time>
      </trkpt>
      <trkpt lat="42.31072" lon="2.39829">
        <ele>1026.6</ele>
        <time>2018-11-28T06:31:32Z</time>
      </trkpt>
      <trkpt lat="42.31079" lon="2.39842">
        <ele>1026.2</ele>
        <time>2018-11-28T06:31:37Z</time>
      </trkpt>
      <trkpt lat="42.31084" lon="2.39847">
        <ele>1026.8</ele>
        <time>2018-11-28T06:31:40Z</time>
      </trkpt>
      <trkpt lat="42.3109" lon="2.3985">
        <ele>1018.8</ele>
        <time>2018-11-28T06:31:42Z</time>
      </trkpt>
      <trkpt lat="42.31094" lon="2.39852">
        <ele>1018.8</ele>
        <time>2018-11-28T06:31:44Z</time>
      </trkpt>
      <trkpt lat="42.31106" lon="2.39867">
        <ele>1018.8</ele>
        <time>2018-11-28T06:31:50Z</time>
      </trkpt>
      <trkpt lat="42.31112" lon="2.39872">
        <ele>1019.6</ele>
        <time>2018-11-28T06:31:53Z</time>
      </trkpt>
      <trkpt lat="42.31117" lon="2.39895">
        <ele>1019.6</ele>
        <time>2018-11-28T06:32:00Z</time>
      </trkpt>
      <trkpt lat="42.31126" lon="2.39915">
        <ele>1019.1</ele>
        <time>2018-11-28T06:32:08Z</time>
      </trkpt>
      <trkpt lat="42.31133" lon="2.39932">
        <ele>1018.3</ele>
        <time>2018-11-28T06:32:13Z</time>
      </trkpt>
      <trkpt lat="42.31136" lon="2.39996">
        <ele>1016.8</ele>
        <time>2018-11-28T06:32:32Z</time>
      </trkpt>
      <trkpt lat="42.31101" lon="2.40014">
        <ele>1016.3</ele>
        <time>2018-11-28T06:32:47Z</time>
      </trkpt>
      <trkpt lat="42.31087" lon="2.40015">
        <ele>1016.4</ele>
        <time>2018-11-28T06:32:53Z</time>
      </trkpt>
      <trkpt lat="42.31081" lon="2.40019">
        <ele>1016.7</ele>
        <time>2018-11-28T06:32:55Z</time>
      </trkpt>
      <trkpt lat="42.31079" lon="2.4002">
        <ele>1016.7</ele>
        <time>2018-11-28T06:32:56Z</time>
      </trkpt>
      <trkpt lat="42.31077" lon="2.40034">
        <ele>1016.3</ele>
        <time>2018-11-28T06:33:00Z</time>
      </trkpt>
      <trkpt lat="42.3107" lon="2.40041">
        <ele>1016.3</ele>
        <time>2018-11-28T06:33:04Z</time>
      </trkpt>
      <trkpt lat="42.31076" lon="2.40066">
        <ele>1016.7</ele>
        <time>2018-11-28T06:33:11Z</time>
      </trkpt>
      <trkpt lat="42.31075" lon="2.40089">
        <ele>1016.4</ele>
        <time>2018-11-28T06:33:18Z</time>
      </trkpt>
      <trkpt lat="42.31091" lon="2.40135">
        <ele>1017.3</ele>
        <time>2018-11-28T06:33:33Z</time>
      </trkpt>
      <trkpt lat="42.31092" lon="2.40174">
        <ele>1016.7</ele>
        <time>2018-11-28T06:33:45Z</time>
      </trkpt>
      <trkpt lat="42.31093" lon="2.40204">
        <ele>1017.3</ele>
        <time>2018-11-28T06:33:54Z</time>
      </trkpt>
      <trkpt lat="42.31094" lon="2.40216">
        <ele>1016.4</ele>
        <time>2018-11-28T06:33:57Z</time>
      </trkpt>
      <trkpt lat="42.31087" lon="2.40236">
        <ele>1016.3</ele>
        <time>2018-11-28T06:34:04Z</time>
      </trkpt>
      <trkpt lat="42.31085" lon="2.4024">
        <ele>1016.4</ele>
        <time>2018-11-28T06:34:05Z</time>
      </trkpt>
      <trkpt lat="42.31092" lon="2.40288">
        <ele>1015.8</ele>
        <time>2018-11-28T06:34:20Z</time>
      </trkpt>
      <trkpt lat="42.31094" lon="2.40303">
        <ele>1015.3</ele>
        <time>2018-11-28T06:34:24Z</time>
      </trkpt>
      <trkpt lat="42.31095" lon="2.40322">
        <ele>1014.8</ele>
        <time>2018-11-28T06:34:30Z</time>
      </trkpt>
      <trkpt lat="42.31103" lon="2.40336">
        <ele>1015.9</ele>
        <time>2018-11-28T06:34:35Z</time>
      </trkpt>
      <trkpt lat="42.31111" lon="2.40336">
        <ele>1015.3</ele>
        <time>2018-11-28T06:34:38Z</time>
      </trkpt>
      <trkpt lat="42.31109" lon="2.40348">
        <ele>1015.4</ele>
        <time>2018-11-28T06:34:42Z</time>
      </trkpt>
      <trkpt lat="42.31104" lon="2.40361">
        <ele>1015.8</ele>
        <time>2018-11-28T06:34:46Z</time>
      </trkpt>
      <trkpt lat="42.31101" lon="2.40378">
        <ele>1015.4</ele>
        <time>2018-11-28T06:34:51Z</time>
      </trkpt>
      <trkpt lat="42.31087" lon="2.40389">
        <ele>1014.9</ele>
        <time>2018-11-28T06:34:58Z</time>
      </trkpt>
      <trkpt lat="42.31087" lon="2.40396">
        <ele>1014.8</ele>
        <time>2018-11-28T06:35:00Z</time>
      </trkpt>
      <trkpt lat="42.31089" lon="2.4044">
        <ele>1014.4</ele>
        <time>2018-11-28T06:35:13Z</time>
      </trkpt>
      <trkpt lat="42.31089" lon="2.40459">
        <ele>1014.8</ele>
        <time>2018-11-28T06:35:18Z</time>
      </trkpt>
      <trkpt lat="42.31092" lon="2.40493">
        <ele>1014.3</ele>
        <time>2018-11-28T06:35:28Z</time>
      </trkpt>
      <trkpt lat="42.31097" lon="2.40511">
        <ele>1017.2</ele>
        <time>2018-11-28T06:35:34Z</time>
      </trkpt>
      <trkpt lat="42.31098" lon="2.40517">
        <ele>1017.2</ele>
        <time>2018-11-28T06:35:36Z</time>
      </trkpt>
      <trkpt lat="42.31104" lon="2.40532">
        <ele>1018.2</ele>
        <time>2018-11-28T06:35:41Z</time>
      </trkpt>
      <trkpt lat="42.31111" lon="2.40543">
        <ele>1018.8</ele>
        <time>2018-11-28T06:35:45Z</time>
      </trkpt>
      <trkpt lat="42.31114" lon="2.40554">
        <ele>1019.2</ele>
        <time>2018-11-28T06:35:49Z</time>
      </trkpt>
      <trkpt lat="42.31127" lon="2.40606">
        <ele>1016.4</ele>
        <time>2018-11-28T06:36:05Z</time>
      </trkpt>
      <trkpt lat="42.31129" lon="2.40627">
        <ele>1012.9</ele>
        <time>2018-11-28T06:36:11Z</time>
      </trkpt>
      <trkpt lat="42.3113" lon="2.40645">
        <ele>1010.6</ele>
        <time>2018-11-28T06:36:17Z</time>
      </trkpt>
      <trkpt lat="42.31132" lon="2.40661">
        <ele>1010.1</ele>
        <time>2018-11-28T06:36:21Z</time>
      </trkpt>
      <trkpt lat="42.31134" lon="2.4068">
        <ele>1008.7</ele>
        <time>2018-11-28T06:36:27Z</time>
      </trkpt>
      <trkpt lat="42.31139" lon="2.40698">
        <ele>1005.7</ele>
        <time>2018-11-28T06:36:33Z</time>
      </trkpt>
      <trkpt lat="42.31142" lon="2.40712">
        <ele>1005.2</ele>
        <time>2018-11-28T06:36:37Z</time>
      </trkpt>
      <trkpt lat="42.31144" lon="2.40732">
        <ele>1004.2</ele>
        <time>2018-11-28T06:36:43Z</time>
      </trkpt>
      <trkpt lat="42.31144" lon="2.40756">
        <ele>1001.8</ele>
        <time>2018-11-28T06:36:50Z</time>
      </trkpt>
      <trkpt lat="42.31137" lon="2.40782">
        <ele>998.5</ele>
        <time>2018-11-28T06:36:58Z</time>
      </trkpt>
      <trkpt lat="42.31139" lon="2.40779">
        <ele>999</ele>
        <time>2018-11-28T06:36:59Z</time>
      </trkpt>
      <trkpt lat="42.31141" lon="2.40785">
        <ele>999</ele>
        <time>2018-11-28T06:37:01Z</time>
      </trkpt>
      <trkpt lat="42.31145" lon="2.40801">
        <ele>998.1</ele>
        <time>2018-11-28T06:37:07Z</time>
      </trkpt>
      <trkpt lat="42.31149" lon="2.40808">
        <ele>997.5</ele>
        <time>2018-11-28T06:37:09Z</time>
      </trkpt>
      <trkpt lat="42.31152" lon="2.40817">
        <ele>997.5</ele>
        <time>2018-11-28T06:37:12Z</time>
      </trkpt>
      <trkpt lat="42.31153" lon="2.40818">
        <ele>998.1</ele>
        <time>2018-11-28T06:37:12Z</time>
      </trkpt>
      <trkpt lat="42.31161" lon="2.4082">
        <ele>999.9</ele>
        <time>2018-11-28T06:37:16Z</time>
      </trkpt>
      <trkpt lat="42.31178" lon="2.40818">
        <ele>1003.3</ele>
        <time>2018-11-28T06:37:23Z</time>
      </trkpt>
      <trkpt lat="42.31193" lon="2.40818">
        <ele>1006.2</ele>
        <time>2018-11-28T06:37:29Z</time>
      </trkpt>
      <trkpt lat="42.31203" lon="2.40818">
        <ele>1009.5</ele>
        <time>2018-11-28T06:37:33Z</time>
      </trkpt>
      <trkpt lat="42.31208" lon="2.40833">
        <ele>1006.2</ele>
        <time>2018-11-28T06:37:38Z</time>
      </trkpt>
      <trkpt lat="42.31216" lon="2.40856">
        <ele>1004.2</ele>
        <time>2018-11-28T06:37:45Z</time>
      </trkpt>
      <trkpt lat="42.31217" lon="2.4086">
        <ele>1003.4</ele>
        <time>2018-11-28T06:37:47Z</time>
      </trkpt>
      <trkpt lat="42.31218" lon="2.4087">
        <ele>1000</ele>
        <time>2018-11-28T06:37:49Z</time>
      </trkpt>
      <trkpt lat="42.31214" lon="2.40868">
        <ele>998.5</ele>
        <time>2018-11-28T06:37:51Z</time>
      </trkpt>
      <trkpt lat="42.31214" lon="2.40872">
        <ele>996.5</ele>
        <time>2018-11-28T06:37:52Z</time>
      </trkpt>
      <trkpt lat="42.31238" lon="2.40906">
        <ele>995.1</ele>
        <time>2018-11-28T06:38:06Z</time>
      </trkpt>
      <trkpt lat="42.31255" lon="2.40927">
        <ele>995.7</ele>
        <time>2018-11-28T06:38:15Z</time>
      </trkpt>
      <trkpt lat="42.31267" lon="2.40937">
        <ele>994.6</ele>
        <time>2018-11-28T06:38:21Z</time>
      </trkpt>
      <trkpt lat="42.31284" lon="2.4095">
        <ele>994.1</ele>
        <time>2018-11-28T06:38:29Z</time>
      </trkpt>
      <trkpt lat="42.31296" lon="2.40961">
        <ele>992.7</ele>
        <time>2018-11-28T06:38:35Z</time>
      </trkpt>
      <trkpt lat="42.31311" lon="2.40976">
        <ele>992.2</ele>
        <time>2018-11-28T06:38:42Z</time>
      </trkpt>
      <trkpt lat="42.31316" lon="2.40967">
        <ele>989</ele>
        <time>2018-11-28T06:38:45Z</time>
      </trkpt>
      <trkpt lat="42.31328" lon="2.40955">
        <ele>987.5</ele>
        <time>2018-11-28T06:38:51Z</time>
      </trkpt>
      <trkpt lat="42.31369" lon="2.40987">
        <ele>986.4</ele>
        <time>2018-11-28T06:39:10Z</time>
      </trkpt>
      <trkpt lat="42.31362" lon="2.4102">
        <ele>983.7</ele>
        <time>2018-11-28T06:39:20Z</time>
      </trkpt>
      <trkpt lat="42.31376" lon="2.4104">
        <ele>985.5</ele>
        <time>2018-11-28T06:39:28Z</time>
      </trkpt>
      <trkpt lat="42.3139" lon="2.41067">
        <ele>989</ele>
        <time>2018-11-28T06:39:38Z</time>
      </trkpt>
      <trkpt lat="42.31402" lon="2.41078">
        <ele>992.2</ele>
        <time>2018-11-28T06:39:44Z</time>
      </trkpt>
      <trkpt lat="42.31412" lon="2.4109">
        <ele>996.2</ele>
        <time>2018-11-28T06:39:49Z</time>
      </trkpt>
      <trkpt lat="42.31417" lon="2.41097">
        <ele>997.6</ele>
        <time>2018-11-28T06:39:52Z</time>
      </trkpt>
      <trkpt lat="42.31441" lon="2.41104">
        <ele>1000</ele>
        <time>2018-11-28T06:40:02Z</time>
      </trkpt>
      <trkpt lat="42.31442" lon="2.41104">
        <ele>1002.8</ele>
        <time>2018-11-28T06:40:02Z</time>
      </trkpt>
      <trkpt lat="42.31443" lon="2.41095">
        <ele>1002.3</ele>
        <time>2018-11-28T06:40:05Z</time>
      </trkpt>
      <trkpt lat="42.3145" lon="2.41079">
        <ele>1005.7</ele>
        <time>2018-11-28T06:40:10Z</time>
      </trkpt>
      <trkpt lat="42.31464" lon="2.41091">
        <ele>1005.8</ele>
        <time>2018-11-28T06:40:17Z</time>
      </trkpt>
      <trkpt lat="42.31477" lon="2.41094">
        <ele>1008.6</ele>
        <time>2018-11-28T06:40:22Z</time>
      </trkpt>
      <trkpt lat="42.31485" lon="2.41103">
        <ele>1012</ele>
        <time>2018-11-28T06:40:26Z</time>
      </trkpt>
      <trkpt lat="42.31494" lon="2.41107">
        <ele>1014.8</ele>
        <time>2018-11-28T06:40:30Z</time>
      </trkpt>
      <trkpt lat="42.31515" lon="2.41118">
        <ele>1017.8</ele>
        <time>2018-11-28T06:40:39Z</time>
      </trkpt>
      <trkpt lat="42.31527" lon="2.41131">
        <ele>1021.1</ele>
        <time>2018-11-28T06:40:45Z</time>
      </trkpt>
      <trkpt lat="42.31541" lon="2.41133">
        <ele>1024.5</ele>
        <time>2018-11-28T06:40:51Z</time>
      </trkpt>
      <trkpt lat="42.31549" lon="2.41137">
        <ele>1023.6</ele>
        <time>2018-11-28T06:40:54Z</time>
      </trkpt>
      <trkpt lat="42.31582" lon="2.41147">
        <ele>1020.2</ele>
        <time>2018-11-28T06:41:08Z</time>
      </trkpt>
      <trkpt lat="42.31611" lon="2.41168">
        <ele>1017.7</ele>
        <time>2018-11-28T06:41:22Z</time>
      </trkpt>
      <trkpt lat="42.31621" lon="2.4118">
        <ele>1014.8</ele>
        <time>2018-11-28T06:41:27Z</time>
      </trkpt>
      <trkpt lat="42.31613" lon="2.41244">
        <ele>1011.5</ele>
        <time>2018-11-28T06:41:46Z</time>
      </trkpt>
      <trkpt lat="42.31613" lon="2.4126">
        <ele>1010.6</ele>
        <time>2018-11-28T06:41:50Z</time>
      </trkpt>
      <trkpt lat="42.31615" lon="2.41274">
        <ele>1010.6</ele>
        <time>2018-11-28T06:41:55Z</time>
      </trkpt>
      <trkpt lat="42.31615" lon="2.41286">
        <ele>1009.5</ele>
        <time>2018-11-28T06:41:58Z</time>
      </trkpt>
      <trkpt lat="42.31615" lon="2.41295">
        <ele>1009</ele>
        <time>2018-11-28T06:42:01Z</time>
      </trkpt>
      <trkpt lat="42.31618" lon="2.41307">
        <ele>1009.5</ele>
        <time>2018-11-28T06:42:05Z</time>
      </trkpt>
      <trkpt lat="42.31618" lon="2.41332">
        <ele>1008.6</ele>
        <time>2018-11-28T06:42:12Z</time>
      </trkpt>
      <trkpt lat="42.31619" lon="2.41359">
        <ele>1005.8</ele>
        <time>2018-11-28T06:42:20Z</time>
      </trkpt>
      <trkpt lat="42.31609" lon="2.41347">
        <ele>1002.4</ele>
        <time>2018-11-28T06:42:25Z</time>
      </trkpt>
      <trkpt lat="42.31602" lon="2.41345">
        <ele>1001.9</ele>
        <time>2018-11-28T06:42:28Z</time>
      </trkpt>
      <trkpt lat="42.31602" lon="2.41367">
        <ele>1001.4</ele>
        <time>2018-11-28T06:42:34Z</time>
      </trkpt>
      <trkpt lat="42.31599" lon="2.41391">
        <ele>998.9</ele>
        <time>2018-11-28T06:42:42Z</time>
      </trkpt>
      <trkpt lat="42.31594" lon="2.41393">
        <ele>998.6</ele>
        <time>2018-11-28T06:42:44Z</time>
      </trkpt>
      <trkpt lat="42.31607" lon="2.41404">
        <ele>997.6</ele>
        <time>2018-11-28T06:42:50Z</time>
      </trkpt>
      <trkpt lat="42.31626" lon="2.4142">
        <ele>996.6</ele>
        <time>2018-11-28T06:42:59Z</time>
      </trkpt>
      <trkpt lat="42.31649" lon="2.41436">
        <ele>995.7</ele>
        <time>2018-11-28T06:43:09Z</time>
      </trkpt>
      <trkpt lat="42.31659" lon="2.4144">
        <ele>994.6</ele>
        <time>2018-11-28T06:43:13Z</time>
      </trkpt>
      <trkpt lat="42.31662" lon="2.41447">
        <ele>995.1</ele>
        <time>2018-11-28T06:43:16Z</time>
      </trkpt>
      <trkpt lat="42.31657" lon="2.41458">
        <ele>995.2</ele>
        <time>2018-11-28T06:43:19Z</time>
      </trkpt>
      <trkpt lat="42.31651" lon="2.41478">
        <ele>991.7</ele>
        <time>2018-11-28T06:43:26Z</time>
      </trkpt>
      <trkpt lat="42.31647" lon="2.41486">
        <ele>990.9</ele>
        <time>2018-11-28T06:43:29Z</time>
      </trkpt>
      <trkpt lat="42.31642" lon="2.415">
        <ele>989.3</ele>
        <time>2018-11-28T06:43:33Z</time>
      </trkpt>
      <trkpt lat="42.31635" lon="2.41515">
        <ele>986.4</ele>
        <time>2018-11-28T06:43:39Z</time>
      </trkpt>
      <trkpt lat="42.3163" lon="2.41551">
        <ele>985</ele>
        <time>2018-11-28T06:43:49Z</time>
      </trkpt>
      <trkpt lat="42.31624" lon="2.41572">
        <ele>983.7</ele>
        <time>2018-11-28T06:43:56Z</time>
      </trkpt>
      <trkpt lat="42.31631" lon="2.41611">
        <ele>981.6</ele>
        <time>2018-11-28T06:44:08Z</time>
      </trkpt>
      <trkpt lat="42.31631" lon="2.41627">
        <ele>979.8</ele>
        <time>2018-11-28T06:44:13Z</time>
      </trkpt>
      <trkpt lat="42.3163" lon="2.41648">
        <ele>978.9</ele>
        <time>2018-11-28T06:44:19Z</time>
      </trkpt>
      <trkpt lat="42.3163" lon="2.41657">
        <ele>978.4</ele>
        <time>2018-11-28T06:44:21Z</time>
      </trkpt>
      <trkpt lat="42.31634" lon="2.4166">
        <ele>977.8</ele>
        <time>2018-11-28T06:44:23Z</time>
      </trkpt>
      <trkpt lat="42.31646" lon="2.41683">
        <ele>974.9</ele>
        <time>2018-11-28T06:44:32Z</time>
      </trkpt>
      <trkpt lat="42.31646" lon="2.41693">
        <ele>971.5</ele>
        <time>2018-11-28T06:44:35Z</time>
      </trkpt>
      <trkpt lat="42.31647" lon="2.41706">
        <ele>970.7</ele>
        <time>2018-11-28T06:44:38Z</time>
      </trkpt>
      <trkpt lat="42.31654" lon="2.41717">
        <ele>969.7</ele>
        <time>2018-11-28T06:44:43Z</time>
      </trkpt>
      <trkpt lat="42.31671" lon="2.41744">
        <ele>966.7</ele>
        <time>2018-11-28T06:44:53Z</time>
      </trkpt>
      <trkpt lat="42.3168" lon="2.41772">
        <ele>965.8</ele>
        <time>2018-11-28T06:45:02Z</time>
      </trkpt>
      <trkpt lat="42.31681" lon="2.41786">
        <ele>968.2</ele>
        <time>2018-11-28T06:45:07Z</time>
      </trkpt>
      <trkpt lat="42.31684" lon="2.41796">
        <ele>969.6</ele>
        <time>2018-11-28T06:45:10Z</time>
      </trkpt>
      <trkpt lat="42.31689" lon="2.41821">
        <ele>968.8</ele>
        <time>2018-11-28T06:45:17Z</time>
      </trkpt>
      <trkpt lat="42.31688" lon="2.41834">
        <ele>969.6</ele>
        <time>2018-11-28T06:45:21Z</time>
      </trkpt>
      <trkpt lat="42.31691" lon="2.41853">
        <ele>971.1</ele>
        <time>2018-11-28T06:45:27Z</time>
      </trkpt>
      <trkpt lat="42.31694" lon="2.41862">
        <ele>972.1</ele>
        <time>2018-11-28T06:45:30Z</time>
      </trkpt>
      <trkpt lat="42.31703" lon="2.41878">
        <ele>974.5</ele>
        <time>2018-11-28T06:45:36Z</time>
      </trkpt>
      <trkpt lat="42.31725" lon="2.41905">
        <ele>975</ele>
        <time>2018-11-28T06:45:48Z</time>
      </trkpt>
      <trkpt lat="42.31737" lon="2.41908">
        <ele>974.9</ele>
        <time>2018-11-28T06:45:52Z</time>
      </trkpt>
      <trkpt lat="42.31753" lon="2.41933">
        <ele>977.9</ele>
        <time>2018-11-28T06:46:02Z</time>
      </trkpt>
      <trkpt lat="42.31779" lon="2.41954">
        <ele>977.3</ele>
        <time>2018-11-28T06:46:14Z</time>
      </trkpt>
      <trkpt lat="42.31773" lon="2.41976">
        <ele>974</ele>
        <time>2018-11-28T06:46:21Z</time>
      </trkpt>
      <trkpt lat="42.31773" lon="2.41985">
        <ele>973.1</ele>
        <time>2018-11-28T06:46:24Z</time>
      </trkpt>
      <trkpt lat="42.31776" lon="2.42009">
        <ele>972</ele>
        <time>2018-11-28T06:46:31Z</time>
      </trkpt>
      <trkpt lat="42.31777" lon="2.42021">
        <ele>970.6</ele>
        <time>2018-11-28T06:46:35Z</time>
      </trkpt>
      <trkpt lat="42.31777" lon="2.42029">
        <ele>968.3</ele>
        <time>2018-11-28T06:46:37Z</time>
      </trkpt>
      <trkpt lat="42.31771" lon="2.42035">
        <ele>966.3</ele>
        <time>2018-11-28T06:46:40Z</time>
      </trkpt>
      <trkpt lat="42.31769" lon="2.42049">
        <ele>964.3</ele>
        <time>2018-11-28T06:46:44Z</time>
      </trkpt>
      <trkpt lat="42.31769" lon="2.42072">
        <ele>961</ele>
        <time>2018-11-28T06:46:51Z</time>
      </trkpt>
      <trkpt lat="42.31771" lon="2.42092">
        <ele>957.7</ele>
        <time>2018-11-28T06:46:57Z</time>
      </trkpt>
      <trkpt lat="42.31779" lon="2.42104">
        <ele>954.2</ele>
        <time>2018-11-28T06:47:02Z</time>
      </trkpt>
      <trkpt lat="42.31789" lon="2.42104">
        <ele>952.3</ele>
        <time>2018-11-28T06:47:06Z</time>
      </trkpt>
      <trkpt lat="42.31808" lon="2.42112">
        <ele>950.9</ele>
        <time>2018-11-28T06:47:14Z</time>
      </trkpt>
      <trkpt lat="42.31818" lon="2.42114">
        <ele>950.9</ele>
        <time>2018-11-28T06:47:18Z</time>
      </trkpt>
      <trkpt lat="42.31827" lon="2.42139">
        <ele>949.5</ele>
        <time>2018-11-28T06:47:26Z</time>
      </trkpt>
      <trkpt lat="42.31829" lon="2.42158">
        <ele>946.2</ele>
        <time>2018-11-28T06:47:31Z</time>
      </trkpt>
      <trkpt lat="42.31833" lon="2.42179">
        <ele>943.2</ele>
        <time>2018-11-28T06:47:38Z</time>
      </trkpt>
      <trkpt lat="42.31834" lon="2.42203">
        <ele>940.9</ele>
        <time>2018-11-28T06:47:45Z</time>
      </trkpt>
      <trkpt lat="42.31837" lon="2.42233">
        <ele>937.4</ele>
        <time>2018-11-28T06:47:54Z</time>
      </trkpt>
      <trkpt lat="42.31838" lon="2.42248">
        <ele>937.5</ele>
        <time>2018-11-28T06:47:58Z</time>
      </trkpt>
      <trkpt lat="42.31837" lon="2.42271">
        <ele>935.1</ele>
        <time>2018-11-28T06:48:05Z</time>
      </trkpt>
      <trkpt lat="42.31838" lon="2.42284">
        <ele>932.1</ele>
        <time>2018-11-28T06:48:09Z</time>
      </trkpt>
      <trkpt lat="42.31834" lon="2.423">
        <ele>932.1</ele>
        <time>2018-11-28T06:48:14Z</time>
      </trkpt>
      <trkpt lat="42.31827" lon="2.42315">
        <ele>928.8</ele>
        <time>2018-11-28T06:48:20Z</time>
      </trkpt>
      <trkpt lat="42.31824" lon="2.4232">
        <ele>927.3</ele>
        <time>2018-11-28T06:48:21Z</time>
      </trkpt>
      <trkpt lat="42.31821" lon="2.42324">
        <ele>925.9</ele>
        <time>2018-11-28T06:48:23Z</time>
      </trkpt>
      <trkpt lat="42.31811" lon="2.42345">
        <ele>922.5</ele>
        <time>2018-11-28T06:48:30Z</time>
      </trkpt>
      <trkpt lat="42.31808" lon="2.42363">
        <ele>923.1</ele>
        <time>2018-11-28T06:48:36Z</time>
      </trkpt>
      <trkpt lat="42.31804" lon="2.42379">
        <ele>923.6</ele>
        <time>2018-11-28T06:48:41Z</time>
      </trkpt>
      <trkpt lat="42.31805" lon="2.42382">
        <ele>923.5</ele>
        <time>2018-11-28T06:48:42Z</time>
      </trkpt>
      <trkpt lat="42.31796" lon="2.42404">
        <ele>923</ele>
        <time>2018-11-28T06:48:49Z</time>
      </trkpt>
      <trkpt lat="42.31793" lon="2.42417">
        <ele>923.6</ele>
        <time>2018-11-28T06:48:53Z</time>
      </trkpt>
      <trkpt lat="42.31794" lon="2.42434">
        <ele>923.5</ele>
        <time>2018-11-28T06:48:58Z</time>
      </trkpt>
      <trkpt lat="42.31792" lon="2.42459">
        <ele>920.1</ele>
        <time>2018-11-28T06:49:06Z</time>
      </trkpt>
      <trkpt lat="42.31787" lon="2.42481">
        <ele>921.1</ele>
        <time>2018-11-28T06:49:12Z</time>
      </trkpt>
      <trkpt lat="42.31781" lon="2.425">
        <ele>918.2</ele>
        <time>2018-11-28T06:49:19Z</time>
      </trkpt>
      <trkpt lat="42.31777" lon="2.42514">
        <ele>914.8</ele>
        <time>2018-11-28T06:49:23Z</time>
      </trkpt>
      <trkpt lat="42.31777" lon="2.42522">
        <ele>914.4</ele>
        <time>2018-11-28T06:49:25Z</time>
      </trkpt>
      <trkpt lat="42.31772" lon="2.42539">
        <ele>911.1</ele>
        <time>2018-11-28T06:49:31Z</time>
      </trkpt>
      <trkpt lat="42.31776" lon="2.42556">
        <ele>910.6</ele>
        <time>2018-11-28T06:49:36Z</time>
      </trkpt>
      <trkpt lat="42.31785" lon="2.4257">
        <ele>911.5</ele>
        <time>2018-11-28T06:49:41Z</time>
      </trkpt>
      <trkpt lat="42.31789" lon="2.42582">
        <ele>910</ele>
        <time>2018-11-28T06:49:46Z</time>
      </trkpt>
      <trkpt lat="42.31792" lon="2.42592">
        <ele>908.6</ele>
        <time>2018-11-28T06:49:48Z</time>
      </trkpt>
      <trkpt lat="42.318" lon="2.42609">
        <ele>907.2</ele>
        <time>2018-11-28T06:49:54Z</time>
      </trkpt>
      <trkpt lat="42.31803" lon="2.4262">
        <ele>904.7</ele>
        <time>2018-11-28T06:49:58Z</time>
      </trkpt>
      <trkpt lat="42.31812" lon="2.4264">
        <ele>902</ele>
        <time>2018-11-28T06:50:05Z</time>
      </trkpt>
      <trkpt lat="42.31819" lon="2.42664">
        <ele>900.5</ele>
        <time>2018-11-28T06:50:13Z</time>
      </trkpt>
      <trkpt lat="42.31823" lon="2.42673">
        <ele>897.1</ele>
        <time>2018-11-28T06:50:16Z</time>
      </trkpt>
      <trkpt lat="42.31817" lon="2.42694">
        <ele>894.6</ele>
        <time>2018-11-28T06:50:22Z</time>
      </trkpt>
      <trkpt lat="42.31819" lon="2.42701">
        <ele>893.2</ele>
        <time>2018-11-28T06:50:25Z</time>
      </trkpt>
      <trkpt lat="42.31828" lon="2.42724">
        <ele>889.8</ele>
        <time>2018-11-28T06:50:32Z</time>
      </trkpt>
      <trkpt lat="42.31831" lon="2.42734">
        <ele>889</ele>
        <time>2018-11-28T06:50:36Z</time>
      </trkpt>
      <trkpt lat="42.31845" lon="2.42754">
        <ele>886.5</ele>
        <time>2018-11-28T06:50:44Z</time>
      </trkpt>
      <trkpt lat="42.31848" lon="2.42754">
        <ele>887.1</ele>
        <time>2018-11-28T06:50:45Z</time>
      </trkpt>
      <trkpt lat="42.31849" lon="2.42753">
        <ele>887.1</ele>
        <time>2018-11-28T06:50:45Z</time>
      </trkpt>
      <trkpt lat="42.31857" lon="2.42745">
        <ele>888.5</ele>
        <time>2018-11-28T06:50:49Z</time>
      </trkpt>
      <trkpt lat="42.31884" lon="2.42703">
        <ele>886.5</ele>
        <time>2018-11-28T06:51:06Z</time>
      </trkpt>
      <trkpt lat="42.31902" lon="2.42705">
        <ele>885.1</ele>
        <time>2018-11-28T06:51:13Z</time>
      </trkpt>
      <trkpt lat="42.31903" lon="2.42707">
        <ele>884.1</ele>
        <time>2018-11-28T06:51:14Z</time>
      </trkpt>
      <trkpt lat="42.31906" lon="2.42713">
        <ele>881.3</ele>
        <time>2018-11-28T06:51:16Z</time>
      </trkpt>
      <trkpt lat="42.31914" lon="2.42729">
        <ele>880.7</ele>
        <time>2018-11-28T06:51:22Z</time>
      </trkpt>
      <trkpt lat="42.31921" lon="2.4274">
        <ele>878.8</ele>
        <time>2018-11-28T06:51:26Z</time>
      </trkpt>
      <trkpt lat="42.31933" lon="2.42761">
        <ele>875.4</ele>
        <time>2018-11-28T06:51:34Z</time>
      </trkpt>
      <trkpt lat="42.31941" lon="2.42763">
        <ele>874.1</ele>
        <time>2018-11-28T06:51:37Z</time>
      </trkpt>
      <trkpt lat="42.31946" lon="2.42778">
        <ele>871.6</ele>
        <time>2018-11-28T06:51:42Z</time>
      </trkpt>
      <trkpt lat="42.31951" lon="2.42782">
        <ele>871.2</ele>
        <time>2018-11-28T06:51:44Z</time>
      </trkpt>
      <trkpt lat="42.31955" lon="2.42794">
        <ele>870.1</ele>
        <time>2018-11-28T06:51:48Z</time>
      </trkpt>
      <trkpt lat="42.31971" lon="2.42828">
        <ele>866.9</ele>
        <time>2018-11-28T06:52:00Z</time>
      </trkpt>
      <trkpt lat="42.31971" lon="2.42828">
        <ele>867.3</ele>
        <time>2018-11-28T06:52:00Z</time>
      </trkpt>
      <trkpt lat="42.31987" lon="2.42839">
        <ele>863.9</ele>
        <time>2018-11-28T06:52:07Z</time>
      </trkpt>
      <trkpt lat="42.31985" lon="2.42852">
        <ele>864.8</ele>
        <time>2018-11-28T06:52:11Z</time>
      </trkpt>
      <trkpt lat="42.31987" lon="2.42874">
        <ele>866.9</ele>
        <time>2018-11-28T06:52:18Z</time>
      </trkpt>
      <trkpt lat="42.3199" lon="2.42897">
        <ele>870.1</ele>
        <time>2018-11-28T06:52:25Z</time>
      </trkpt>
      <trkpt lat="42.31992" lon="2.42919">
        <ele>871.6</ele>
        <time>2018-11-28T06:52:31Z</time>
      </trkpt>
      <trkpt lat="42.31989" lon="2.42922">
        <ele>871.1</ele>
        <time>2018-11-28T06:52:33Z</time>
      </trkpt>
      <trkpt lat="42.31998" lon="2.42939">
        <ele>871.7</ele>
        <time>2018-11-28T06:52:39Z</time>
      </trkpt>
      <trkpt lat="42.32001" lon="2.42952">
        <ele>871.2</ele>
        <time>2018-11-28T06:52:43Z</time>
      </trkpt>
      <trkpt lat="42.32006" lon="2.42968">
        <ele>869.3</ele>
        <time>2018-11-28T06:52:48Z</time>
      </trkpt>
      <trkpt lat="42.32019" lon="2.42996">
        <ele>867.2</ele>
        <time>2018-11-28T06:52:58Z</time>
      </trkpt>
      <trkpt lat="42.32037" lon="2.43026">
        <ele>867.3</ele>
        <time>2018-11-28T06:53:09Z</time>
      </trkpt>
      <trkpt lat="42.32034" lon="2.43041">
        <ele>867.2</ele>
        <time>2018-11-28T06:53:14Z</time>
      </trkpt>
      <trkpt lat="42.32031" lon="2.43056">
        <ele>863.9</ele>
        <time>2018-11-28T06:53:18Z</time>
      </trkpt>
      <trkpt lat="42.32027" lon="2.43078">
        <ele>860.6</ele>
        <time>2018-11-28T06:53:25Z</time>
      </trkpt>
      <trkpt lat="42.32014" lon="2.43095">
        <ele>857.2</ele>
        <time>2018-11-28T06:53:33Z</time>
      </trkpt>
      <trkpt lat="42.32004" lon="2.43102">
        <ele>855.2</ele>
        <time>2018-11-28T06:53:37Z</time>
      </trkpt>
      <trkpt lat="42.31995" lon="2.43107">
        <ele>854.7</ele>
        <time>2018-11-28T06:53:41Z</time>
      </trkpt>
      <trkpt lat="42.3198" lon="2.43117">
        <ele>855.7</ele>
        <time>2018-11-28T06:53:48Z</time>
      </trkpt>
      <trkpt lat="42.31966" lon="2.43118">
        <ele>856.8</ele>
        <time>2018-11-28T06:53:53Z</time>
      </trkpt>
      <trkpt lat="42.31958" lon="2.43124">
        <ele>859.1</ele>
        <time>2018-11-28T06:53:57Z</time>
      </trkpt>
      <trkpt lat="42.31947" lon="2.43128">
        <ele>858.6</ele>
        <time>2018-11-28T06:54:01Z</time>
      </trkpt>
      <trkpt lat="42.31932" lon="2.43141">
        <ele>859.1</ele>
        <time>2018-11-28T06:54:08Z</time>
      </trkpt>
      <trkpt lat="42.31924" lon="2.43158">
        <ele>860.1</ele>
        <time>2018-11-28T06:54:14Z</time>
      </trkpt>
      <trkpt lat="42.31919" lon="2.43178">
        <ele>861.6</ele>
        <time>2018-11-28T06:54:21Z</time>
      </trkpt>
      <trkpt lat="42.31914" lon="2.43191">
        <ele>862.4</ele>
        <time>2018-11-28T06:54:25Z</time>
      </trkpt>
      <trkpt lat="42.31906" lon="2.43213">
        <ele>863.4</ele>
        <time>2018-11-28T06:54:32Z</time>
      </trkpt>
      <trkpt lat="42.31905" lon="2.43216">
        <ele>863.4</ele>
        <time>2018-11-28T06:54:33Z</time>
      </trkpt>
      <trkpt lat="42.31905" lon="2.43217">
        <ele>863.4</ele>
        <time>2018-11-28T06:54:33Z</time>
      </trkpt>
      <trkpt lat="42.31903" lon="2.43237">
        <ele>866.8</ele>
        <time>2018-11-28T06:54:39Z</time>
      </trkpt>
      <trkpt lat="42.31905" lon="2.4326">
        <ele>869.7</ele>
        <time>2018-11-28T06:54:46Z</time>
      </trkpt>
      <trkpt lat="42.31903" lon="2.43269">
        <ele>873.6</ele>
        <time>2018-11-28T06:54:49Z</time>
      </trkpt>
      <trkpt lat="42.31896" lon="2.4332">
        <ele>873.6</ele>
        <time>2018-11-28T06:55:04Z</time>
      </trkpt>
      <trkpt lat="42.31889" lon="2.43357">
        <ele>875.4</ele>
        <time>2018-11-28T06:55:16Z</time>
      </trkpt>
      <trkpt lat="42.3189" lon="2.4337">
        <ele>875.4</ele>
        <time>2018-11-28T06:55:20Z</time>
      </trkpt>
      <trkpt lat="42.31893" lon="2.43376">
        <ele>875.9</ele>
        <time>2018-11-28T06:55:22Z</time>
      </trkpt>
      <trkpt lat="42.31908" lon="2.43383">
        <ele>875</ele>
        <time>2018-11-28T06:55:28Z</time>
      </trkpt>
      <trkpt lat="42.31921" lon="2.43393">
        <ele>874.6</ele>
        <time>2018-11-28T06:55:34Z</time>
      </trkpt>
      <trkpt lat="42.31934" lon="2.43408">
        <ele>871.2</ele>
        <time>2018-11-28T06:55:41Z</time>
      </trkpt>
      <trkpt lat="42.31936" lon="2.43425">
        <ele>869.6</ele>
        <time>2018-11-28T06:55:46Z</time>
      </trkpt>
      <trkpt lat="42.3194" lon="2.4344">
        <ele>869.2</ele>
        <time>2018-11-28T06:55:51Z</time>
      </trkpt>
      <trkpt lat="42.31949" lon="2.4345">
        <ele>867.7</ele>
        <time>2018-11-28T06:55:56Z</time>
      </trkpt>
      <trkpt lat="42.31955" lon="2.43461">
        <ele>866.9</ele>
        <time>2018-11-28T06:55:59Z</time>
      </trkpt>
      <trkpt lat="42.31972" lon="2.43478">
        <ele>863.5</ele>
        <time>2018-11-28T06:56:08Z</time>
      </trkpt>
      <trkpt lat="42.31982" lon="2.43493">
        <ele>860.6</ele>
        <time>2018-11-28T06:56:14Z</time>
      </trkpt>
      <trkpt lat="42.31989" lon="2.43503">
        <ele>859.7</ele>
        <time>2018-11-28T06:56:18Z</time>
      </trkpt>
      <trkpt lat="42.31997" lon="2.43522">
        <ele>858.1</ele>
        <time>2018-11-28T06:56:24Z</time>
      </trkpt>
      <trkpt lat="42.32003" lon="2.43535">
        <ele>856.8</ele>
        <time>2018-11-28T06:56:29Z</time>
      </trkpt>
      <trkpt lat="42.32007" lon="2.43541">
        <ele>856.8</ele>
        <time>2018-11-28T06:56:31Z</time>
      </trkpt>
      <trkpt lat="42.3201" lon="2.43547">
        <ele>856.2</ele>
        <time>2018-11-28T06:56:33Z</time>
      </trkpt>
      <trkpt lat="42.32013" lon="2.43557">
        <ele>857.6</ele>
        <time>2018-11-28T06:56:37Z</time>
      </trkpt>
      <trkpt lat="42.32016" lon="2.43566">
        <ele>855.8</ele>
        <time>2018-11-28T06:56:40Z</time>
      </trkpt>
      <trkpt lat="42.32023" lon="2.43571">
        <ele>855.2</ele>
        <time>2018-11-28T06:56:43Z</time>
      </trkpt>
      <trkpt lat="42.32048" lon="2.43588">
        <ele>853.8</ele>
        <time>2018-11-28T06:56:54Z</time>
      </trkpt>
      <trkpt lat="42.3206" lon="2.4361">
        <ele>853.9</ele>
        <time>2018-11-28T06:57:02Z</time>
      </trkpt>
      <trkpt lat="42.32061" lon="2.43631">
        <ele>852</ele>
        <time>2018-11-28T06:57:08Z</time>
      </trkpt>
      <trkpt lat="42.32069" lon="2.43635">
        <ele>851</ele>
        <time>2018-11-28T06:57:12Z</time>
      </trkpt>
      <trkpt lat="42.32071" lon="2.43637">
        <ele>850.4</ele>
        <time>2018-11-28T06:57:13Z</time>
      </trkpt>
      <trkpt lat="42.32073" lon="2.43652">
        <ele>849.1</ele>
        <time>2018-11-28T06:57:18Z</time>
      </trkpt>
      <trkpt lat="42.32067" lon="2.43657">
        <ele>848.5</ele>
        <time>2018-11-28T06:57:20Z</time>
      </trkpt>
      <trkpt lat="42.32065" lon="2.43659">
        <ele>848.1</ele>
        <time>2018-11-28T06:57:21Z</time>
      </trkpt>
      <trkpt lat="42.32057" lon="2.4366">
        <ele>848.5</ele>
        <time>2018-11-28T06:57:25Z</time>
      </trkpt>
      <trkpt lat="42.32052" lon="2.43664">
        <ele>847.2</ele>
        <time>2018-11-28T06:57:27Z</time>
      </trkpt>
      <trkpt lat="42.32051" lon="2.43664">
        <ele>847.1</ele>
        <time>2018-11-28T06:57:28Z</time>
      </trkpt>
      <trkpt lat="42.32048" lon="2.43675">
        <ele>846.1</ele>
        <time>2018-11-28T06:57:31Z</time>
      </trkpt>
      <trkpt lat="42.32043" lon="2.4369">
        <ele>844.7</ele>
        <time>2018-11-28T06:57:36Z</time>
      </trkpt>
      <trkpt lat="42.32033" lon="2.43706">
        <ele>843.8</ele>
        <time>2018-11-28T06:57:42Z</time>
      </trkpt>
      <trkpt lat="42.32033" lon="2.43707">
        <ele>843.7</ele>
        <time>2018-11-28T06:57:42Z</time>
      </trkpt>
      <trkpt lat="42.3202" lon="2.43723">
        <ele>846.1</ele>
        <time>2018-11-28T06:57:49Z</time>
      </trkpt>
      <trkpt lat="42.32016" lon="2.43737">
        <ele>845.7</ele>
        <time>2018-11-28T06:57:54Z</time>
      </trkpt>
      <trkpt lat="42.32015" lon="2.43749">
        <ele>847.6</ele>
        <time>2018-11-28T06:57:57Z</time>
      </trkpt>
      <trkpt lat="42.32015" lon="2.43769">
        <ele>847.1</ele>
        <time>2018-11-28T06:58:03Z</time>
      </trkpt>
      <trkpt lat="42.32016" lon="2.43792">
        <ele>846.2</ele>
        <time>2018-11-28T06:58:10Z</time>
      </trkpt>
      <trkpt lat="42.32008" lon="2.43814">
        <ele>844.7</ele>
        <time>2018-11-28T06:58:17Z</time>
      </trkpt>
      <trkpt lat="42.32001" lon="2.43827">
        <ele>845.2</ele>
        <time>2018-11-28T06:58:22Z</time>
      </trkpt>
      <trkpt lat="42.31993" lon="2.43842">
        <ele>845.6</ele>
        <time>2018-11-28T06:58:28Z</time>
      </trkpt>
      <trkpt lat="42.31985" lon="2.4386">
        <ele>846.1</ele>
        <time>2018-11-28T06:58:34Z</time>
      </trkpt>
      <trkpt lat="42.31981" lon="2.43877">
        <ele>845.6</ele>
        <time>2018-11-28T06:58:39Z</time>
      </trkpt>
      <trkpt lat="42.31979" lon="2.43881">
        <ele>845.7</ele>
        <time>2018-11-28T06:58:40Z</time>
      </trkpt>
      <trkpt lat="42.31978" lon="2.43889">
        <ele>845.7</ele>
        <time>2018-11-28T06:58:43Z</time>
      </trkpt>
      <trkpt lat="42.31977" lon="2.43903">
        <ele>845.6</ele>
        <time>2018-11-28T06:58:47Z</time>
      </trkpt>
      <trkpt lat="42.31943" lon="2.43915">
        <ele>849.1</ele>
        <time>2018-11-28T06:59:01Z</time>
      </trkpt>
      <trkpt lat="42.31935" lon="2.43915">
        <ele>850.5</ele>
        <time>2018-11-28T06:59:04Z</time>
      </trkpt>
      <trkpt lat="42.31928" lon="2.43926">
        <ele>850.9</ele>
        <time>2018-11-28T06:59:08Z</time>
      </trkpt>
      <trkpt lat="42.31927" lon="2.43948">
        <ele>851</ele>
        <time>2018-11-28T06:59:15Z</time>
      </trkpt>
      <trkpt lat="42.31926" lon="2.43973">
        <ele>851</ele>
        <time>2018-11-28T06:59:23Z</time>
      </trkpt>
      <trkpt lat="42.31935" lon="2.44007">
        <ele>850.4</ele>
        <time>2018-11-28T06:59:33Z</time>
      </trkpt>
      <trkpt lat="42.31946" lon="2.4403">
        <ele>849.1</ele>
        <time>2018-11-28T06:59:41Z</time>
      </trkpt>
      <trkpt lat="42.31963" lon="2.44071">
        <ele>847.5</ele>
        <time>2018-11-28T06:59:55Z</time>
      </trkpt>
      <trkpt lat="42.31968" lon="2.44084">
        <ele>847.1</ele>
        <time>2018-11-28T07:00:00Z</time>
      </trkpt>
      <trkpt lat="42.31977" lon="2.44108">
        <ele>846.7</ele>
        <time>2018-11-28T07:00:08Z</time>
      </trkpt>
      <trkpt lat="42.31984" lon="2.4412">
        <ele>845.2</ele>
        <time>2018-11-28T07:00:12Z</time>
      </trkpt>
      <trkpt lat="42.31991" lon="2.44136">
        <ele>844.8</ele>
        <time>2018-11-28T07:00:18Z</time>
      </trkpt>
      <trkpt lat="42.31998" lon="2.44144">
        <ele>844.3</ele>
        <time>2018-11-28T07:00:21Z</time>
      </trkpt>
      <trkpt lat="42.32006" lon="2.4415">
        <ele>844.2</ele>
        <time>2018-11-28T07:00:25Z</time>
      </trkpt>
      <trkpt lat="42.3201" lon="2.44153">
        <ele>844.8</ele>
        <time>2018-11-28T07:00:27Z</time>
      </trkpt>
      <trkpt lat="42.3202" lon="2.44162">
        <ele>844.3</ele>
        <time>2018-11-28T07:00:32Z</time>
      </trkpt>
      <trkpt lat="42.32023" lon="2.44166">
        <ele>844.2</ele>
        <time>2018-11-28T07:00:33Z</time>
      </trkpt>
      <trkpt lat="42.3204" lon="2.44177">
        <ele>845.1</ele>
        <time>2018-11-28T07:00:41Z</time>
      </trkpt>
      <trkpt lat="42.32045" lon="2.44188">
        <ele>845.7</ele>
        <time>2018-11-28T07:00:45Z</time>
      </trkpt>
      <trkpt lat="42.32051" lon="2.44197">
        <ele>845.6</ele>
        <time>2018-11-28T07:00:48Z</time>
      </trkpt>
      <trkpt lat="42.32057" lon="2.44206">
        <ele>846.1</ele>
        <time>2018-11-28T07:00:52Z</time>
      </trkpt>
      <trkpt lat="42.32058" lon="2.44206">
        <ele>844.7</ele>
        <time>2018-11-28T07:00:52Z</time>
      </trkpt>
      <trkpt lat="42.32059" lon="2.44213">
        <ele>844.8</ele>
        <time>2018-11-28T07:00:54Z</time>
      </trkpt>
      <trkpt lat="42.32093" lon="2.44292">
        <ele>844.3</ele>
        <time>2018-11-28T07:01:21Z</time>
      </trkpt>
      <trkpt lat="42.32092" lon="2.44306">
        <ele>840.3</ele>
        <time>2018-11-28T07:01:25Z</time>
      </trkpt>
      <trkpt lat="42.32091" lon="2.44307">
        <ele>838.5</ele>
        <time>2018-11-28T07:01:26Z</time>
      </trkpt>
      <trkpt lat="42.32085" lon="2.44322">
        <ele>837.1</ele>
        <time>2018-11-28T07:01:31Z</time>
      </trkpt>
      <trkpt lat="42.3209" lon="2.44345">
        <ele>837.9</ele>
        <time>2018-11-28T07:01:38Z</time>
      </trkpt>
      <trkpt lat="42.3209" lon="2.44346">
        <ele>837.5</ele>
        <time>2018-11-28T07:01:39Z</time>
      </trkpt>
      <trkpt lat="42.32092" lon="2.44356">
        <ele>839.4</ele>
        <time>2018-11-28T07:01:42Z</time>
      </trkpt>
      <trkpt lat="42.32098" lon="2.44373">
        <ele>839.4</ele>
        <time>2018-11-28T07:01:47Z</time>
      </trkpt>
      <trkpt lat="42.321" lon="2.44393">
        <ele>842.7</ele>
        <time>2018-11-28T07:01:53Z</time>
      </trkpt>
      <trkpt lat="42.32096" lon="2.44405">
        <ele>842.3</ele>
        <time>2018-11-28T07:01:57Z</time>
      </trkpt>
      <trkpt lat="42.32091" lon="2.44439">
        <ele>842.3</ele>
        <time>2018-11-28T07:02:07Z</time>
      </trkpt>
      <trkpt lat="42.32092" lon="2.44454">
        <ele>842.3</ele>
        <time>2018-11-28T07:02:12Z</time>
      </trkpt>
      <trkpt lat="42.32094" lon="2.44465">
        <ele>843.2</ele>
        <time>2018-11-28T07:02:15Z</time>
      </trkpt>
      <trkpt lat="42.32095" lon="2.44471">
        <ele>843.2</ele>
        <time>2018-11-28T07:02:17Z</time>
      </trkpt>
      <trkpt lat="42.32098" lon="2.44501">
        <ele>846.7</ele>
        <time>2018-11-28T07:02:26Z</time>
      </trkpt>
      <trkpt lat="42.32099" lon="2.44516">
        <ele>849</ele>
        <time>2018-11-28T07:02:30Z</time>
      </trkpt>
      <trkpt lat="42.32095" lon="2.44535">
        <ele>851.9</ele>
        <time>2018-11-28T07:02:36Z</time>
      </trkpt>
      <trkpt lat="42.32098" lon="2.4455">
        <ele>854.8</ele>
        <time>2018-11-28T07:02:41Z</time>
      </trkpt>
      <trkpt lat="42.32103" lon="2.44576">
        <ele>857.3</ele>
        <time>2018-11-28T07:02:49Z</time>
      </trkpt>
      <trkpt lat="42.32103" lon="2.44589">
        <ele>856.8</ele>
        <time>2018-11-28T07:02:53Z</time>
      </trkpt>
      <trkpt lat="42.32104" lon="2.44607">
        <ele>857.2</ele>
        <time>2018-11-28T07:02:58Z</time>
      </trkpt>
      <trkpt lat="42.32104" lon="2.44609">
        <ele>856.7</ele>
        <time>2018-11-28T07:02:58Z</time>
      </trkpt>
      <trkpt lat="42.32103" lon="2.44622">
        <ele>857.6</ele>
        <time>2018-11-28T07:03:02Z</time>
      </trkpt>
      <trkpt lat="42.32106" lon="2.44637">
        <ele>860.5</ele>
        <time>2018-11-28T07:03:07Z</time>
      </trkpt>
      <trkpt lat="42.32111" lon="2.44652">
        <ele>863.9</ele>
        <time>2018-11-28T07:03:12Z</time>
      </trkpt>
      <trkpt lat="42.32116" lon="2.44665">
        <ele>866.9</ele>
        <time>2018-11-28T07:03:16Z</time>
      </trkpt>
      <trkpt lat="42.3212" lon="2.44677">
        <ele>868.2</ele>
        <time>2018-11-28T07:03:20Z</time>
      </trkpt>
      <trkpt lat="42.32122" lon="2.44684">
        <ele>871.7</ele>
        <time>2018-11-28T07:03:22Z</time>
      </trkpt>
      <trkpt lat="42.32126" lon="2.44693">
        <ele>868.2</ele>
        <time>2018-11-28T07:03:25Z</time>
      </trkpt>
      <trkpt lat="42.32128" lon="2.44695">
        <ele>871.7</ele>
        <time>2018-11-28T07:03:26Z</time>
      </trkpt>
      <trkpt lat="42.32128" lon="2.44695">
        <ele>867.8</ele>
        <time>2018-11-28T07:03:26Z</time>
      </trkpt>
      <trkpt lat="42.32128" lon="2.44693">
        <ele>868.8</ele>
        <time>2018-11-28T07:03:27Z</time>
      </trkpt>
      <trkpt lat="42.32129" lon="2.44707">
        <ele>868.7</ele>
        <time>2018-11-28T07:03:31Z</time>
      </trkpt>
      <trkpt lat="42.32129" lon="2.44718">
        <ele>868.7</ele>
        <time>2018-11-28T07:03:34Z</time>
      </trkpt>
      <trkpt lat="42.32145" lon="2.44727">
        <ele>866.8</ele>
        <time>2018-11-28T07:03:41Z</time>
      </trkpt>
      <trkpt lat="42.32157" lon="2.44733">
        <ele>865.8</ele>
        <time>2018-11-28T07:03:47Z</time>
      </trkpt>
      <trkpt lat="42.32176" lon="2.44743">
        <ele>864</ele>
        <time>2018-11-28T07:03:55Z</time>
      </trkpt>
      <trkpt lat="42.32186" lon="2.44752">
        <ele>862.9</ele>
        <time>2018-11-28T07:04:00Z</time>
      </trkpt>
      <trkpt lat="42.32197" lon="2.44759">
        <ele>861.6</ele>
        <time>2018-11-28T07:04:04Z</time>
      </trkpt>
      <trkpt lat="42.32205" lon="2.44761">
        <ele>860.1</ele>
        <time>2018-11-28T07:04:08Z</time>
      </trkpt>
      <trkpt lat="42.32211" lon="2.44768">
        <ele>858.1</ele>
        <time>2018-11-28T07:04:11Z</time>
      </trkpt>
      <trkpt lat="42.3223" lon="2.44776">
        <ele>857.6</ele>
        <time>2018-11-28T07:04:19Z</time>
      </trkpt>
      <trkpt lat="42.32262" lon="2.44794">
        <ele>854.3</ele>
        <time>2018-11-28T07:04:33Z</time>
      </trkpt>
      <trkpt lat="42.32276" lon="2.44806">
        <ele>852.3</ele>
        <time>2018-11-28T07:04:39Z</time>
      </trkpt>
      <trkpt lat="42.3229" lon="2.44823">
        <ele>848.5</ele>
        <time>2018-11-28T07:04:47Z</time>
      </trkpt>
      <trkpt lat="42.32293" lon="2.44831">
        <ele>846.6</ele>
        <time>2018-11-28T07:04:50Z</time>
      </trkpt>
      <trkpt lat="42.32297" lon="2.44839">
        <ele>846.2</ele>
        <time>2018-11-28T07:04:52Z</time>
      </trkpt>
      <trkpt lat="42.32309" lon="2.44842">
        <ele>846.2</ele>
        <time>2018-11-28T07:04:57Z</time>
      </trkpt>
      <trkpt lat="42.32317" lon="2.44842">
        <ele>846.1</ele>
        <time>2018-11-28T07:05:00Z</time>
      </trkpt>
      <trkpt lat="42.32326" lon="2.44838">
        <ele>844.8</ele>
        <time>2018-11-28T07:05:04Z</time>
      </trkpt>
      <trkpt lat="42.32334" lon="2.44835">
        <ele>843.2</ele>
        <time>2018-11-28T07:05:07Z</time>
      </trkpt>
      <trkpt lat="42.32336" lon="2.44836">
        <ele>843.3</ele>
        <time>2018-11-28T07:05:08Z</time>
      </trkpt>
      <trkpt lat="42.32341" lon="2.44835">
        <ele>841.3</ele>
        <time>2018-11-28T07:05:10Z</time>
      </trkpt>
      <trkpt lat="42.32351" lon="2.4483">
        <ele>839</ele>
        <time>2018-11-28T07:05:14Z</time>
      </trkpt>
      <trkpt lat="42.32361" lon="2.44828">
        <ele>836.6</ele>
        <time>2018-11-28T07:05:19Z</time>
      </trkpt>
      <trkpt lat="42.32362" lon="2.44828">
        <ele>836.6</ele>
        <time>2018-11-28T07:05:19Z</time>
      </trkpt>
      <trkpt lat="42.32374" lon="2.44827">
        <ele>833.1</ele>
        <time>2018-11-28T07:05:24Z</time>
      </trkpt>
      <trkpt lat="42.32383" lon="2.4483">
        <ele>830.7</ele>
        <time>2018-11-28T07:05:27Z</time>
      </trkpt>
      <trkpt lat="42.32396" lon="2.44826">
        <ele>827.5</ele>
        <time>2018-11-28T07:05:33Z</time>
      </trkpt>
      <trkpt lat="42.32408" lon="2.44824">
        <ele>825.9</ele>
        <time>2018-11-28T07:05:37Z</time>
      </trkpt>
      <trkpt lat="42.32424" lon="2.44822">
        <ele>824.9</ele>
        <time>2018-11-28T07:05:44Z</time>
      </trkpt>
      <trkpt lat="42.32435" lon="2.44816">
        <ele>821.7</ele>
        <time>2018-11-28T07:05:49Z</time>
      </trkpt>
      <trkpt lat="42.32441" lon="2.44803">
        <ele>821.1</ele>
        <time>2018-11-28T07:05:53Z</time>
      </trkpt>
      <trkpt lat="42.32445" lon="2.44799">
        <ele>820.2</ele>
        <time>2018-11-28T07:05:55Z</time>
      </trkpt>
      <trkpt lat="42.32454" lon="2.44792">
        <ele>819.8</ele>
        <time>2018-11-28T07:05:59Z</time>
      </trkpt>
      <trkpt lat="42.32464" lon="2.44781">
        <ele>818.8</ele>
        <time>2018-11-28T07:06:04Z</time>
      </trkpt>
      <trkpt lat="42.32472" lon="2.44773">
        <ele>817.4</ele>
        <time>2018-11-28T07:06:08Z</time>
      </trkpt>
      <trkpt lat="42.32499" lon="2.44765">
        <ele>816.3</ele>
        <time>2018-11-28T07:06:19Z</time>
      </trkpt>
      <trkpt lat="42.32517" lon="2.44766">
        <ele>815.8</ele>
        <time>2018-11-28T07:06:27Z</time>
      </trkpt>
      <trkpt lat="42.32522" lon="2.44766">
        <ele>815.8</ele>
        <time>2018-11-28T07:06:29Z</time>
      </trkpt>
      <trkpt lat="42.32523" lon="2.44769">
        <ele>815.9</ele>
        <time>2018-11-28T07:06:30Z</time>
      </trkpt>
      <trkpt lat="42.32529" lon="2.44773">
        <ele>816.8</ele>
        <time>2018-11-28T07:06:32Z</time>
      </trkpt>
      <trkpt lat="42.32542" lon="2.44776">
        <ele>816.8</ele>
        <time>2018-11-28T07:06:37Z</time>
      </trkpt>
      <trkpt lat="42.32555" lon="2.44775">
        <ele>813.9</ele>
        <time>2018-11-28T07:06:43Z</time>
      </trkpt>
      <trkpt lat="42.32564" lon="2.44773">
        <ele>812.1</ele>
        <time>2018-11-28T07:06:46Z</time>
      </trkpt>
      <trkpt lat="42.32573" lon="2.44774">
        <ele>810.5</ele>
        <time>2018-11-28T07:06:50Z</time>
      </trkpt>
      <trkpt lat="42.32615" lon="2.4474">
        <ele>807.2</ele>
        <time>2018-11-28T07:07:09Z</time>
      </trkpt>
      <trkpt lat="42.32622" lon="2.44732">
        <ele>805.3</ele>
        <time>2018-11-28T07:07:13Z</time>
      </trkpt>
      <trkpt lat="42.32644" lon="2.44721">
        <ele>802</ele>
        <time>2018-11-28T07:07:23Z</time>
      </trkpt>
      <trkpt lat="42.32665" lon="2.44717">
        <ele>800.4</ele>
        <time>2018-11-28T07:07:31Z</time>
      </trkpt>
      <trkpt lat="42.32695" lon="2.44719">
        <ele>802.4</ele>
        <time>2018-11-28T07:07:43Z</time>
      </trkpt>
      <trkpt lat="42.32709" lon="2.44719">
        <ele>801.4</ele>
        <time>2018-11-28T07:07:49Z</time>
      </trkpt>
      <trkpt lat="42.32733" lon="2.44719">
        <ele>801.4</ele>
        <time>2018-11-28T07:07:58Z</time>
      </trkpt>
      <trkpt lat="42.32749" lon="2.44719">
        <ele>802.4</ele>
        <time>2018-11-28T07:08:05Z</time>
      </trkpt>
      <trkpt lat="42.32768" lon="2.44723">
        <ele>802.9</ele>
        <time>2018-11-28T07:08:12Z</time>
      </trkpt>
      <trkpt lat="42.32774" lon="2.44723">
        <ele>803.4</ele>
        <time>2018-11-28T07:08:15Z</time>
      </trkpt>
      <trkpt lat="42.32781" lon="2.44721">
        <ele>802.9</ele>
        <time>2018-11-28T07:08:18Z</time>
      </trkpt>
      <trkpt lat="42.32806" lon="2.44717">
        <ele>801.4</ele>
        <time>2018-11-28T07:08:28Z</time>
      </trkpt>
      <trkpt lat="42.32857" lon="2.44729">
        <ele>804.8</ele>
        <time>2018-11-28T07:08:48Z</time>
      </trkpt>
      <trkpt lat="42.3287" lon="2.44736">
        <ele>806.3</ele>
        <time>2018-11-28T07:08:54Z</time>
      </trkpt>
      <trkpt lat="42.32885" lon="2.4475">
        <ele>807.3</ele>
        <time>2018-11-28T07:09:01Z</time>
      </trkpt>
      <trkpt lat="42.32895" lon="2.44762">
        <ele>805.3</ele>
        <time>2018-11-28T07:09:07Z</time>
      </trkpt>
      <trkpt lat="42.32899" lon="2.44764">
        <ele>804.8</ele>
        <time>2018-11-28T07:09:08Z</time>
      </trkpt>
      <trkpt lat="42.32912" lon="2.44761">
        <ele>805.7</ele>
        <time>2018-11-28T07:09:14Z</time>
      </trkpt>
      <trkpt lat="42.32921" lon="2.44752">
        <ele>805.3</ele>
        <time>2018-11-28T07:09:18Z</time>
      </trkpt>
      <trkpt lat="42.32946" lon="2.44721">
        <ele>804.8</ele>
        <time>2018-11-28T07:09:32Z</time>
      </trkpt>
      <trkpt lat="42.32954" lon="2.44749">
        <ele>808.1</ele>
        <time>2018-11-28T07:09:40Z</time>
      </trkpt>
      <trkpt lat="42.32957" lon="2.44758">
        <ele>809.1</ele>
        <time>2018-11-28T07:09:43Z</time>
      </trkpt>
      <trkpt lat="42.32959" lon="2.44768">
        <ele>812</ele>
        <time>2018-11-28T07:09:46Z</time>
      </trkpt>
      <trkpt lat="42.32945" lon="2.44796">
        <ele>815.9</ele>
        <time>2018-11-28T07:09:57Z</time>
      </trkpt>
      <trkpt lat="42.32949" lon="2.44811">
        <ele>818.7</ele>
        <time>2018-11-28T07:10:01Z</time>
      </trkpt>
      <trkpt lat="42.32955" lon="2.44824">
        <ele>821.7</ele>
        <time>2018-11-28T07:10:06Z</time>
      </trkpt>
      <trkpt lat="42.32962" lon="2.44836">
        <ele>824.9</ele>
        <time>2018-11-28T07:10:10Z</time>
      </trkpt>
      <trkpt lat="42.32966" lon="2.44841">
        <ele>826.4</ele>
        <time>2018-11-28T07:10:12Z</time>
      </trkpt>
      <trkpt lat="42.32981" lon="2.4485">
        <ele>824.9</ele>
        <time>2018-11-28T07:10:19Z</time>
      </trkpt>
      <trkpt lat="42.32984" lon="2.44847">
        <ele>826.9</ele>
        <time>2018-11-28T07:10:21Z</time>
      </trkpt>
      <trkpt lat="42.32989" lon="2.44849">
        <ele>830.2</ele>
        <time>2018-11-28T07:10:23Z</time>
      </trkpt>
      <trkpt lat="42.32994" lon="2.44849">
        <ele>830.7</ele>
        <time>2018-11-28T07:10:25Z</time>
      </trkpt>
      <trkpt lat="42.33006" lon="2.44854">
        <ele>830.7</ele>
        <time>2018-11-28T07:10:30Z</time>
      </trkpt>
      <trkpt lat="42.3302" lon="2.44854">
        <ele>831.9</ele>
        <time>2018-11-28T07:10:35Z</time>
      </trkpt>
      <trkpt lat="42.33037" lon="2.44859">
        <ele>830.7</ele>
        <time>2018-11-28T07:10:42Z</time>
      </trkpt>
      <trkpt lat="42.33056" lon="2.44866">
        <ele>829.6</ele>
        <time>2018-11-28T07:10:50Z</time>
      </trkpt>
      <trkpt lat="42.3307" lon="2.44869">
        <ele>835.1</ele>
        <time>2018-11-28T07:10:56Z</time>
      </trkpt>
      <trkpt lat="42.33082" lon="2.4488">
        <ele>836.5</ele>
        <time>2018-11-28T07:11:02Z</time>
      </trkpt>
      <trkpt lat="42.33084" lon="2.44882">
        <ele>836.5</ele>
        <time>2018-11-28T07:11:03Z</time>
      </trkpt>
      <trkpt lat="42.33086" lon="2.44882">
        <ele>837.4</ele>
        <time>2018-11-28T07:11:04Z</time>
      </trkpt>
      <trkpt lat="42.33091" lon="2.44887">
        <ele>838.4</ele>
        <time>2018-11-28T07:11:06Z</time>
      </trkpt>
      <trkpt lat="42.33102" lon="2.44891">
        <ele>838.9</ele>
        <time>2018-11-28T07:11:11Z</time>
      </trkpt>
      <trkpt lat="42.33107" lon="2.44891">
        <ele>839.8</ele>
        <time>2018-11-28T07:11:13Z</time>
      </trkpt>
      <trkpt lat="42.3312" lon="2.44894">
        <ele>842.3</ele>
        <time>2018-11-28T07:11:18Z</time>
      </trkpt>
      <trkpt lat="42.33121" lon="2.44902">
        <ele>844.3</ele>
        <time>2018-11-28T07:11:20Z</time>
      </trkpt>
      <trkpt lat="42.33114" lon="2.44904">
        <ele>844.8</ele>
        <time>2018-11-28T07:11:23Z</time>
      </trkpt>
      <trkpt lat="42.33109" lon="2.44908">
        <ele>845.7</ele>
        <time>2018-11-28T07:11:26Z</time>
      </trkpt>
      <trkpt lat="42.33102" lon="2.44911">
        <ele>846.1</ele>
        <time>2018-11-28T07:11:29Z</time>
      </trkpt>
      <trkpt lat="42.33098" lon="2.44912">
        <ele>846.2</ele>
        <time>2018-11-28T07:11:30Z</time>
      </trkpt>
      <trkpt lat="42.33097" lon="2.44911">
        <ele>846.7</ele>
        <time>2018-11-28T07:11:31Z</time>
      </trkpt>
      <trkpt lat="42.33082" lon="2.44915">
        <ele>847.1</ele>
        <time>2018-11-28T07:11:37Z</time>
      </trkpt>
      <trkpt lat="42.33073" lon="2.44916">
        <ele>847.6</ele>
        <time>2018-11-28T07:11:40Z</time>
      </trkpt>
      <trkpt lat="42.3306" lon="2.44932">
        <ele>849.9</ele>
        <time>2018-11-28T07:11:47Z</time>
      </trkpt>
      <trkpt lat="42.33054" lon="2.44956">
        <ele>849.5</ele>
        <time>2018-11-28T07:11:55Z</time>
      </trkpt>
      <trkpt lat="42.33061" lon="2.44982">
        <ele>847.1</ele>
        <time>2018-11-28T07:12:03Z</time>
      </trkpt>
      <trkpt lat="42.33058" lon="2.44993">
        <ele>847.5</ele>
        <time>2018-11-28T07:12:07Z</time>
      </trkpt>
      <trkpt lat="42.3303" lon="2.44998">
        <ele>849.5</ele>
        <time>2018-11-28T07:12:18Z</time>
      </trkpt>
      <trkpt lat="42.33013" lon="2.44996">
        <ele>850.9</ele>
        <time>2018-11-28T07:12:25Z</time>
      </trkpt>
      <trkpt lat="42.32998" lon="2.44994">
        <ele>852.8</ele>
        <time>2018-11-28T07:12:31Z</time>
      </trkpt>
      <trkpt lat="42.32983" lon="2.44994">
        <ele>853.9</ele>
        <time>2018-11-28T07:12:37Z</time>
      </trkpt>
      <trkpt lat="42.32975" lon="2.45">
        <ele>855.3</ele>
        <time>2018-11-28T07:12:40Z</time>
      </trkpt>
      <trkpt lat="42.32963" lon="2.45015">
        <ele>856.3</ele>
        <time>2018-11-28T07:12:47Z</time>
      </trkpt>
      <trkpt lat="42.32961" lon="2.45018">
        <ele>856.8</ele>
        <time>2018-11-28T07:12:48Z</time>
      </trkpt>
      <trkpt lat="42.32947" lon="2.45031">
        <ele>859.1</ele>
        <time>2018-11-28T07:12:55Z</time>
      </trkpt>
      <trkpt lat="42.32944" lon="2.45032">
        <ele>859.6</ele>
        <time>2018-11-28T07:12:56Z</time>
      </trkpt>
      <trkpt lat="42.32942" lon="2.45035">
        <ele>859.6</ele>
        <time>2018-11-28T07:12:57Z</time>
      </trkpt>
      <trkpt lat="42.32938" lon="2.45038">
        <ele>860.1</ele>
        <time>2018-11-28T07:12:59Z</time>
      </trkpt>
      <trkpt lat="42.32929" lon="2.45041">
        <ele>860.5</ele>
        <time>2018-11-28T07:13:03Z</time>
      </trkpt>
      <trkpt lat="42.32919" lon="2.45038">
        <ele>862.1</ele>
        <time>2018-11-28T07:13:07Z</time>
      </trkpt>
      <trkpt lat="42.32918" lon="2.45039">
        <ele>862.9</ele>
        <time>2018-11-28T07:13:08Z</time>
      </trkpt>
      <trkpt lat="42.32905" lon="2.45039">
        <ele>864.5</ele>
        <time>2018-11-28T07:13:13Z</time>
      </trkpt>
      <trkpt lat="42.32904" lon="2.4504">
        <ele>864.5</ele>
        <time>2018-11-28T07:13:13Z</time>
      </trkpt>
      <trkpt lat="42.32894" lon="2.45057">
        <ele>865.3</ele>
        <time>2018-11-28T07:13:20Z</time>
      </trkpt>
      <trkpt lat="42.32886" lon="2.45074">
        <ele>866.4</ele>
        <time>2018-11-28T07:13:26Z</time>
      </trkpt>
      <trkpt lat="42.3288" lon="2.4508">
        <ele>866.9</ele>
        <time>2018-11-28T07:13:29Z</time>
      </trkpt>
      <trkpt lat="42.32872" lon="2.45084">
        <ele>867.8</ele>
        <time>2018-11-28T07:13:32Z</time>
      </trkpt>
      <trkpt lat="42.32851" lon="2.45087">
        <ele>868.2</ele>
        <time>2018-11-28T07:13:41Z</time>
      </trkpt>
      <trkpt lat="42.32836" lon="2.45093">
        <ele>869.6</ele>
        <time>2018-11-28T07:13:47Z</time>
      </trkpt>
      <trkpt lat="42.32835" lon="2.45093">
        <ele>871.6</ele>
        <time>2018-11-28T07:13:47Z</time>
      </trkpt>
      <trkpt lat="42.32835" lon="2.45093">
        <ele>866.8</ele>
        <time>2018-11-28T07:13:47Z</time>
      </trkpt>
      <trkpt lat="42.32834" lon="2.45102">
        <ele>870.2</ele>
        <time>2018-11-28T07:13:50Z</time>
      </trkpt>
      <trkpt lat="42.32832" lon="2.45108">
        <ele>872.1</ele>
        <time>2018-11-28T07:13:52Z</time>
      </trkpt>
      <trkpt lat="42.32826" lon="2.45121">
        <ele>873.6</ele>
        <time>2018-11-28T07:13:57Z</time>
      </trkpt>
      <trkpt lat="42.32825" lon="2.45126">
        <ele>875</ele>
        <time>2018-11-28T07:13:58Z</time>
      </trkpt>
      <trkpt lat="42.32822" lon="2.45137">
        <ele>874.9</ele>
        <time>2018-11-28T07:14:02Z</time>
      </trkpt>
      <trkpt lat="42.3282" lon="2.45142">
        <ele>877</ele>
        <time>2018-11-28T07:14:03Z</time>
      </trkpt>
      <trkpt lat="42.32819" lon="2.45143">
        <ele>877.9</ele>
        <time>2018-11-28T07:14:04Z</time>
      </trkpt>
      <trkpt lat="42.32809" lon="2.45161">
        <ele>878.8</ele>
        <time>2018-11-28T07:14:10Z</time>
      </trkpt>
      <trkpt lat="42.32806" lon="2.45162">
        <ele>879.3</ele>
        <time>2018-11-28T07:14:12Z</time>
      </trkpt>
      <trkpt lat="42.32797" lon="2.45169">
        <ele>879.7</ele>
        <time>2018-11-28T07:14:16Z</time>
      </trkpt>
      <trkpt lat="42.32791" lon="2.45174">
        <ele>880.2</ele>
        <time>2018-11-28T07:14:19Z</time>
      </trkpt>
      <trkpt lat="42.32784" lon="2.45178">
        <ele>880.8</ele>
        <time>2018-11-28T07:14:22Z</time>
      </trkpt>
      <trkpt lat="42.32775" lon="2.45181">
        <ele>881.2</ele>
        <time>2018-11-28T07:14:26Z</time>
      </trkpt>
      <trkpt lat="42.3276" lon="2.45183">
        <ele>881.8</ele>
        <time>2018-11-28T07:14:32Z</time>
      </trkpt>
      <trkpt lat="42.32734" lon="2.45171">
        <ele>883.7</ele>
        <time>2018-11-28T07:14:42Z</time>
      </trkpt>
      <trkpt lat="42.32723" lon="2.4517">
        <ele>885</ele>
        <time>2018-11-28T07:14:47Z</time>
      </trkpt>
      <trkpt lat="42.32716" lon="2.45171">
        <ele>886</ele>
        <time>2018-11-28T07:14:50Z</time>
      </trkpt>
      <trkpt lat="42.32714" lon="2.45178">
        <ele>889.4</ele>
        <time>2018-11-28T07:14:52Z</time>
      </trkpt>
      <trkpt lat="42.32711" lon="2.45189">
        <ele>891.3</ele>
        <time>2018-11-28T07:14:56Z</time>
      </trkpt>
      <trkpt lat="42.32717" lon="2.452">
        <ele>892.7</ele>
        <time>2018-11-28T07:14:59Z</time>
      </trkpt>
      <trkpt lat="42.32722" lon="2.45209">
        <ele>893.2</ele>
        <time>2018-11-28T07:15:03Z</time>
      </trkpt>
      <trkpt lat="42.32735" lon="2.45218">
        <ele>894.6</ele>
        <time>2018-11-28T07:15:08Z</time>
      </trkpt>
      <trkpt lat="42.32741" lon="2.45228">
        <ele>896.7</ele>
        <time>2018-11-28T07:15:12Z</time>
      </trkpt>
      <trkpt lat="42.32741" lon="2.45231">
        <ele>897</ele>
        <time>2018-11-28T07:15:13Z</time>
      </trkpt>
      <trkpt lat="42.32745" lon="2.45242">
        <ele>900</ele>
        <time>2018-11-28T07:15:17Z</time>
      </trkpt>
      <trkpt lat="42.3275" lon="2.45251">
        <ele>902.4</ele>
        <time>2018-11-28T07:15:20Z</time>
      </trkpt>
      <trkpt lat="42.32753" lon="2.45262">
        <ele>905.2</ele>
        <time>2018-11-28T07:15:24Z</time>
      </trkpt>
      <trkpt lat="42.32753" lon="2.45275">
        <ele>905.7</ele>
        <time>2018-11-28T07:15:28Z</time>
      </trkpt>
      <trkpt lat="42.32753" lon="2.45291">
        <ele>906.2</ele>
        <time>2018-11-28T07:15:32Z</time>
      </trkpt>
      <trkpt lat="42.32755" lon="2.45296">
        <ele>907.2</ele>
        <time>2018-11-28T07:15:34Z</time>
      </trkpt>
      <trkpt lat="42.32763" lon="2.45308">
        <ele>908.7</ele>
        <time>2018-11-28T07:15:39Z</time>
      </trkpt>
      <trkpt lat="42.32773" lon="2.45315">
        <ele>912.5</ele>
        <time>2018-11-28T07:15:43Z</time>
      </trkpt>
      <trkpt lat="42.32778" lon="2.45323">
        <ele>914.8</ele>
        <time>2018-11-28T07:15:46Z</time>
      </trkpt>
      <trkpt lat="42.32785" lon="2.4533">
        <ele>918.2</ele>
        <time>2018-11-28T07:15:50Z</time>
      </trkpt>
      <trkpt lat="42.32794" lon="2.4534">
        <ele>920.1</ele>
        <time>2018-11-28T07:15:54Z</time>
      </trkpt>
      <trkpt lat="42.32802" lon="2.45348">
        <ele>922</ele>
        <time>2018-11-28T07:15:59Z</time>
      </trkpt>
      <trkpt lat="42.32805" lon="2.45359">
        <ele>923.5</ele>
        <time>2018-11-28T07:16:02Z</time>
      </trkpt>
      <trkpt lat="42.32807" lon="2.45367">
        <ele>923.5</ele>
        <time>2018-11-28T07:16:04Z</time>
      </trkpt>
      <trkpt lat="42.32809" lon="2.4537">
        <ele>924</ele>
        <time>2018-11-28T07:16:05Z</time>
      </trkpt>
      <trkpt lat="42.32812" lon="2.45372">
        <ele>924</ele>
        <time>2018-11-28T07:16:07Z</time>
      </trkpt>
      <trkpt lat="42.32827" lon="2.45382">
        <ele>926.5</ele>
        <time>2018-11-28T07:16:13Z</time>
      </trkpt>
      <trkpt lat="42.32833" lon="2.45389">
        <ele>927.3</ele>
        <time>2018-11-28T07:16:17Z</time>
      </trkpt>
      <trkpt lat="42.3284" lon="2.4539">
        <ele>930.8</ele>
        <time>2018-11-28T07:16:20Z</time>
      </trkpt>
      <trkpt lat="42.32849" lon="2.45385">
        <ele>933.6</ele>
        <time>2018-11-28T07:16:24Z</time>
      </trkpt>
      <trkpt lat="42.32856" lon="2.45395">
        <ele>936.5</ele>
        <time>2018-11-28T07:16:28Z</time>
      </trkpt>
      <trkpt lat="42.32865" lon="2.45401">
        <ele>939.8</ele>
        <time>2018-11-28T07:16:32Z</time>
      </trkpt>
      <trkpt lat="42.32878" lon="2.45402">
        <ele>942.7</ele>
        <time>2018-11-28T07:16:37Z</time>
      </trkpt>
      <trkpt lat="42.3288" lon="2.45402">
        <ele>944.6</ele>
        <time>2018-11-28T07:16:38Z</time>
      </trkpt>
      <trkpt lat="42.3289" lon="2.45401">
        <ele>948.1</ele>
        <time>2018-11-28T07:16:42Z</time>
      </trkpt>
      <trkpt lat="42.32902" lon="2.45405">
        <ele>950.5</ele>
        <time>2018-11-28T07:16:47Z</time>
      </trkpt>
      <trkpt lat="42.32909" lon="2.45408">
        <ele>950</ele>
        <time>2018-11-28T07:16:50Z</time>
      </trkpt>
      <trkpt lat="42.32914" lon="2.45416">
        <ele>952.9</ele>
        <time>2018-11-28T07:16:53Z</time>
      </trkpt>
      <trkpt lat="42.32939" lon="2.45433">
        <ele>954.7</ele>
        <time>2018-11-28T07:17:04Z</time>
      </trkpt>
      <trkpt lat="42.32944" lon="2.45422">
        <ele>957.6</ele>
        <time>2018-11-28T07:17:08Z</time>
      </trkpt>
      <trkpt lat="42.32954" lon="2.45425">
        <ele>960.1</ele>
        <time>2018-11-28T07:17:12Z</time>
      </trkpt>
      <trkpt lat="42.32958" lon="2.4543">
        <ele>959.2</ele>
        <time>2018-11-28T07:17:14Z</time>
      </trkpt>
      <trkpt lat="42.3297" lon="2.45419">
        <ele>962.9</ele>
        <time>2018-11-28T07:17:20Z</time>
      </trkpt>
      <trkpt lat="42.32963" lon="2.45413">
        <ele>965.8</ele>
        <time>2018-11-28T07:17:23Z</time>
      </trkpt>
      <trkpt lat="42.32965" lon="2.45412">
        <ele>967.8</ele>
        <time>2018-11-28T07:17:23Z</time>
      </trkpt>
      <trkpt lat="42.32965" lon="2.45403">
        <ele>970.7</ele>
        <time>2018-11-28T07:17:26Z</time>
      </trkpt>
      <trkpt lat="42.32964" lon="2.45398">
        <ele>972.1</ele>
        <time>2018-11-28T07:17:27Z</time>
      </trkpt>
      <trkpt lat="42.32962" lon="2.4539">
        <ele>975</ele>
        <time>2018-11-28T07:17:30Z</time>
      </trkpt>
      <trkpt lat="42.32951" lon="2.45375">
        <ele>978.3</ele>
        <time>2018-11-28T07:17:36Z</time>
      </trkpt>
      <trkpt lat="42.32942" lon="2.4537">
        <ele>980.3</ele>
        <time>2018-11-28T07:17:40Z</time>
      </trkpt>
      <trkpt lat="42.32934" lon="2.45365">
        <ele>983.6</ele>
        <time>2018-11-28T07:17:44Z</time>
      </trkpt>
      <trkpt lat="42.32911" lon="2.45362">
        <ele>983.1</ele>
        <time>2018-11-28T07:17:53Z</time>
      </trkpt>
      <trkpt lat="42.32895" lon="2.45359">
        <ele>982.7</ele>
        <time>2018-11-28T07:17:59Z</time>
      </trkpt>
      <trkpt lat="42.32873" lon="2.45339">
        <ele>979.7</ele>
        <time>2018-11-28T07:18:10Z</time>
      </trkpt>
      <trkpt lat="42.32872" lon="2.4534">
        <ele>976.8</ele>
        <time>2018-11-28T07:18:11Z</time>
      </trkpt>
      <trkpt lat="42.32879" lon="2.45347">
        <ele>979.7</ele>
        <time>2018-11-28T07:18:14Z</time>
      </trkpt>
      <trkpt lat="42.32889" lon="2.45354">
        <ele>981.3</ele>
        <time>2018-11-28T07:18:19Z</time>
      </trkpt>
      <trkpt lat="42.32891" lon="2.45355">
        <ele>980.8</ele>
        <time>2018-11-28T07:18:20Z</time>
      </trkpt>
      <trkpt lat="42.32903" lon="2.45359">
        <ele>982.6</ele>
        <time>2018-11-28T07:18:25Z</time>
      </trkpt>
      <trkpt lat="42.32913" lon="2.45361">
        <ele>982.6</ele>
        <time>2018-11-28T07:18:28Z</time>
      </trkpt>
      <trkpt lat="42.32924" lon="2.45357">
        <ele>983.1</ele>
        <time>2018-11-28T07:18:33Z</time>
      </trkpt>
      <trkpt lat="42.32928" lon="2.45361">
        <ele>986</ele>
        <time>2018-11-28T07:18:35Z</time>
      </trkpt>
      <trkpt lat="42.3293" lon="2.45359">
        <ele>986.1</ele>
        <time>2018-11-28T07:18:36Z</time>
      </trkpt>
      <trkpt lat="42.32943" lon="2.45359">
        <ele>989.3</ele>
        <time>2018-11-28T07:18:41Z</time>
      </trkpt>
      <trkpt lat="42.32954" lon="2.45357">
        <ele>991.8</ele>
        <time>2018-11-28T07:18:46Z</time>
      </trkpt>
      <trkpt lat="42.32966" lon="2.45359">
        <ele>994.7</ele>
        <time>2018-11-28T07:18:51Z</time>
      </trkpt>
      <trkpt lat="42.32969" lon="2.4536">
        <ele>993.7</ele>
        <time>2018-11-28T07:18:52Z</time>
      </trkpt>
      <trkpt lat="42.32975" lon="2.4536">
        <ele>994.6</ele>
        <time>2018-11-28T07:18:54Z</time>
      </trkpt>
      <trkpt lat="42.32978" lon="2.45356">
        <ele>996.6</ele>
        <time>2018-11-28T07:18:56Z</time>
      </trkpt>
      <trkpt lat="42.3298" lon="2.45353">
        <ele>996.5</ele>
        <time>2018-11-28T07:18:57Z</time>
      </trkpt>
      <trkpt lat="42.3298" lon="2.45351">
        <ele>996.5</ele>
        <time>2018-11-28T07:18:58Z</time>
      </trkpt>
      <trkpt lat="42.32976" lon="2.45338">
        <ele>1000</ele>
        <time>2018-11-28T07:19:02Z</time>
      </trkpt>
      <trkpt lat="42.32972" lon="2.45336">
        <ele>998.6</ele>
        <time>2018-11-28T07:19:04Z</time>
      </trkpt>
      <trkpt lat="42.32969" lon="2.45337">
        <ele>997.1</ele>
        <time>2018-11-28T07:19:05Z</time>
      </trkpt>
      <trkpt lat="42.32969" lon="2.45337">
        <ele>998</ele>
        <time>2018-11-28T07:19:05Z</time>
      </trkpt>
      <trkpt lat="42.3297" lon="2.4534">
        <ele>1001.4</ele>
        <time>2018-11-28T07:19:06Z</time>
      </trkpt>
      <trkpt lat="42.32976" lon="2.45349">
        <ele>1000.4</ele>
        <time>2018-11-28T07:19:09Z</time>
      </trkpt>
      <trkpt lat="42.32979" lon="2.45357">
        <ele>997.6</ele>
        <time>2018-11-28T07:19:12Z</time>
      </trkpt>
      <trkpt lat="42.3299" lon="2.45363">
        <ele>995.1</ele>
        <time>2018-11-28T07:19:17Z</time>
      </trkpt>
      <trkpt lat="42.32991" lon="2.45362">
        <ele>995.1</ele>
        <time>2018-11-28T07:19:17Z</time>
      </trkpt>
      <trkpt lat="42.33006" lon="2.45373">
        <ele>991.8</ele>
        <time>2018-11-28T07:19:24Z</time>
      </trkpt>
      <trkpt lat="42.33007" lon="2.45373">
        <ele>989</ele>
        <time>2018-11-28T07:19:24Z</time>
      </trkpt>
      <trkpt lat="42.33007" lon="2.45375">
        <ele>986.1</ele>
        <time>2018-11-28T07:19:25Z</time>
      </trkpt>
      <trkpt lat="42.3302" lon="2.45375">
        <ele>982.7</ele>
        <time>2018-11-28T07:19:30Z</time>
      </trkpt>
      <trkpt lat="42.33024" lon="2.45368">
        <ele>979.8</ele>
        <time>2018-11-28T07:19:32Z</time>
      </trkpt>
      <trkpt lat="42.33027" lon="2.45369">
        <ele>976.5</ele>
        <time>2018-11-28T07:19:34Z</time>
      </trkpt>
      <trkpt lat="42.33036" lon="2.45367">
        <ele>973</ele>
        <time>2018-11-28T07:19:37Z</time>
      </trkpt>
      <trkpt lat="42.33043" lon="2.45368">
        <ele>969.1</ele>
        <time>2018-11-28T07:19:40Z</time>
      </trkpt>
      <trkpt lat="42.33051" lon="2.45375">
        <ele>969.1</ele>
        <time>2018-11-28T07:19:44Z</time>
      </trkpt>
      <trkpt lat="42.33056" lon="2.45378">
        <ele>968.3</ele>
        <time>2018-11-28T07:19:46Z</time>
      </trkpt>
      <trkpt lat="42.33069" lon="2.45387">
        <ele>966.3</ele>
        <time>2018-11-28T07:19:52Z</time>
      </trkpt>
      <trkpt lat="42.33075" lon="2.45391">
        <ele>964.8</ele>
        <time>2018-11-28T07:19:55Z</time>
      </trkpt>
      <trkpt lat="42.33089" lon="2.45401">
        <ele>964.9</ele>
        <time>2018-11-28T07:20:01Z</time>
      </trkpt>
      <trkpt lat="42.33102" lon="2.4541">
        <ele>964</ele>
        <time>2018-11-28T07:20:07Z</time>
      </trkpt>
      <trkpt lat="42.33107" lon="2.45416">
        <ele>964</ele>
        <time>2018-11-28T07:20:09Z</time>
      </trkpt>
      <trkpt lat="42.33115" lon="2.45427">
        <ele>963.4</ele>
        <time>2018-11-28T07:20:14Z</time>
      </trkpt>
      <trkpt lat="42.33125" lon="2.45438">
        <ele>962.4</ele>
        <time>2018-11-28T07:20:19Z</time>
      </trkpt>
      <trkpt lat="42.33132" lon="2.45445">
        <ele>962</ele>
        <time>2018-11-28T07:20:23Z</time>
      </trkpt>
      <trkpt lat="42.33136" lon="2.45449">
        <ele>961.6</ele>
        <time>2018-11-28T07:20:25Z</time>
      </trkpt>
      <trkpt lat="42.33151" lon="2.45459">
        <ele>958.6</ele>
        <time>2018-11-28T07:20:32Z</time>
      </trkpt>
      <trkpt lat="42.33155" lon="2.45477">
        <ele>958.1</ele>
        <time>2018-11-28T07:20:37Z</time>
      </trkpt>
      <trkpt lat="42.33153" lon="2.45479">
        <ele>957.2</ele>
        <time>2018-11-28T07:20:38Z</time>
      </trkpt>
      <trkpt lat="42.33154" lon="2.45488">
        <ele>958.1</ele>
        <time>2018-11-28T07:20:40Z</time>
      </trkpt>
      <trkpt lat="42.33153" lon="2.4549">
        <ele>957.6</ele>
        <time>2018-11-28T07:20:41Z</time>
      </trkpt>
      <trkpt lat="42.33151" lon="2.45501">
        <ele>955.8</ele>
        <time>2018-11-28T07:20:44Z</time>
      </trkpt>
      <trkpt lat="42.33164" lon="2.45511">
        <ele>953.8</ele>
        <time>2018-11-28T07:20:51Z</time>
      </trkpt>
      <trkpt lat="42.3318" lon="2.45512">
        <ele>953.4</ele>
        <time>2018-11-28T07:20:57Z</time>
      </trkpt>
      <trkpt lat="42.33191" lon="2.45516">
        <ele>951.5</ele>
        <time>2018-11-28T07:21:01Z</time>
      </trkpt>
      <trkpt lat="42.33193" lon="2.4552">
        <ele>950.4</ele>
        <time>2018-11-28T07:21:03Z</time>
      </trkpt>
      <trkpt lat="42.33206" lon="2.45524">
        <ele>950.5</ele>
        <time>2018-11-28T07:21:08Z</time>
      </trkpt>
      <trkpt lat="42.33222" lon="2.45526">
        <ele>949.4</ele>
        <time>2018-11-28T07:21:15Z</time>
      </trkpt>
      <trkpt lat="42.33232" lon="2.45525">
        <ele>949</ele>
        <time>2018-11-28T07:21:19Z</time>
      </trkpt>
      <trkpt lat="42.33241" lon="2.45527">
        <ele>949.1</ele>
        <time>2018-11-28T07:21:22Z</time>
      </trkpt>
      <trkpt lat="42.33256" lon="2.45527">
        <ele>945.7</ele>
        <time>2018-11-28T07:21:28Z</time>
      </trkpt>
      <trkpt lat="42.33273" lon="2.45538">
        <ele>943.7</ele>
        <time>2018-11-28T07:21:36Z</time>
      </trkpt>
      <trkpt lat="42.33281" lon="2.45541">
        <ele>940.3</ele>
        <time>2018-11-28T07:21:39Z</time>
      </trkpt>
      <trkpt lat="42.33292" lon="2.45542">
        <ele>937.5</ele>
        <time>2018-11-28T07:21:44Z</time>
      </trkpt>
      <trkpt lat="42.33302" lon="2.45546">
        <ele>935.6</ele>
        <time>2018-11-28T07:21:48Z</time>
      </trkpt>
      <trkpt lat="42.33312" lon="2.45559">
        <ele>934.6</ele>
        <time>2018-11-28T07:21:53Z</time>
      </trkpt>
      <trkpt lat="42.33322" lon="2.45576">
        <ele>934.5</ele>
        <time>2018-11-28T07:22:00Z</time>
      </trkpt>
      <trkpt lat="42.33324" lon="2.45583">
        <ele>935.5</ele>
        <time>2018-11-28T07:22:02Z</time>
      </trkpt>
      <trkpt lat="42.33327" lon="2.45587">
        <ele>935.6</ele>
        <time>2018-11-28T07:22:04Z</time>
      </trkpt>
      <trkpt lat="42.33343" lon="2.45598">
        <ele>938</ele>
        <time>2018-11-28T07:22:11Z</time>
      </trkpt>
      <trkpt lat="42.33356" lon="2.45602">
        <ele>938.9</ele>
        <time>2018-11-28T07:22:16Z</time>
      </trkpt>
      <trkpt lat="42.33357" lon="2.45602">
        <ele>939</ele>
        <time>2018-11-28T07:22:17Z</time>
      </trkpt>
      <trkpt lat="42.33366" lon="2.45603">
        <ele>939.8</ele>
        <time>2018-11-28T07:22:20Z</time>
      </trkpt>
      <trkpt lat="42.33377" lon="2.45605">
        <ele>941.7</ele>
        <time>2018-11-28T07:22:24Z</time>
      </trkpt>
      <trkpt lat="42.33378" lon="2.45606">
        <ele>941.7</ele>
        <time>2018-11-28T07:22:25Z</time>
      </trkpt>
      <trkpt lat="42.33379" lon="2.45606">
        <ele>941.8</ele>
        <time>2018-11-28T07:22:25Z</time>
      </trkpt>
      <trkpt lat="42.33382" lon="2.45606">
        <ele>941.4</ele>
        <time>2018-11-28T07:22:27Z</time>
      </trkpt>
      <trkpt lat="42.33386" lon="2.45604">
        <ele>941.8</ele>
        <time>2018-11-28T07:22:28Z</time>
      </trkpt>
      <trkpt lat="42.33399" lon="2.45602">
        <ele>945.1</ele>
        <time>2018-11-28T07:22:34Z</time>
      </trkpt>
      <trkpt lat="42.33413" lon="2.45599">
        <ele>946.2</ele>
        <time>2018-11-28T07:22:39Z</time>
      </trkpt>
      <trkpt lat="42.33431" lon="2.456">
        <ele>946.6</ele>
        <time>2018-11-28T07:22:47Z</time>
      </trkpt>
      <trkpt lat="42.3344" lon="2.45601">
        <ele>948.1</ele>
        <time>2018-11-28T07:22:50Z</time>
      </trkpt>
      <trkpt lat="42.33459" lon="2.45606">
        <ele>947.6</ele>
        <time>2018-11-28T07:22:58Z</time>
      </trkpt>
      <trkpt lat="42.33483" lon="2.45613">
        <ele>948.6</ele>
        <time>2018-11-28T07:23:08Z</time>
      </trkpt>
      <trkpt lat="42.33493" lon="2.45615">
        <ele>949.4</ele>
        <time>2018-11-28T07:23:12Z</time>
      </trkpt>
      <trkpt lat="42.33507" lon="2.4561">
        <ele>950.9</ele>
        <time>2018-11-28T07:23:18Z</time>
      </trkpt>
      <trkpt lat="42.33526" lon="2.45599">
        <ele>952.3</ele>
        <time>2018-11-28T07:23:26Z</time>
      </trkpt>
      <trkpt lat="42.33532" lon="2.45591">
        <ele>952.3</ele>
        <time>2018-11-28T07:23:29Z</time>
      </trkpt>
      <trkpt lat="42.33538" lon="2.45585">
        <ele>954.2</ele>
        <time>2018-11-28T07:23:32Z</time>
      </trkpt>
      <trkpt lat="42.33542" lon="2.45578">
        <ele>956.6</ele>
        <time>2018-11-28T07:23:35Z</time>
      </trkpt>
      <trkpt lat="42.33543" lon="2.45574">
        <ele>956.7</ele>
        <time>2018-11-28T07:23:36Z</time>
      </trkpt>
      <trkpt lat="42.33543" lon="2.45572">
        <ele>956.6</ele>
        <time>2018-11-28T07:23:37Z</time>
      </trkpt>
      <trkpt lat="42.33549" lon="2.45578">
        <ele>956.3</ele>
        <time>2018-11-28T07:23:40Z</time>
      </trkpt>
      <trkpt lat="42.33564" lon="2.45586">
        <ele>956.7</ele>
        <time>2018-11-28T07:23:46Z</time>
      </trkpt>
      <trkpt lat="42.33578" lon="2.45591">
        <ele>956.7</ele>
        <time>2018-11-28T07:23:52Z</time>
      </trkpt>
      <trkpt lat="42.33595" lon="2.45593">
        <ele>957.1</ele>
        <time>2018-11-28T07:23:59Z</time>
      </trkpt>
      <trkpt lat="42.33598" lon="2.45593">
        <ele>958.2</ele>
        <time>2018-11-28T07:24:00Z</time>
      </trkpt>
      <trkpt lat="42.336" lon="2.45593">
        <ele>956.6</ele>
        <time>2018-11-28T07:24:01Z</time>
      </trkpt>
      <trkpt lat="42.33613" lon="2.45581">
        <ele>956.6</ele>
        <time>2018-11-28T07:24:07Z</time>
      </trkpt>
      <trkpt lat="42.33618" lon="2.45577">
        <ele>956.6</ele>
        <time>2018-11-28T07:24:09Z</time>
      </trkpt>
      <trkpt lat="42.33624" lon="2.45574">
        <ele>957.2</ele>
        <time>2018-11-28T07:24:12Z</time>
      </trkpt>
      <trkpt lat="42.33633" lon="2.45557">
        <ele>957.6</ele>
        <time>2018-11-28T07:24:18Z</time>
      </trkpt>
      <trkpt lat="42.33649" lon="2.4554">
        <ele>958.6</ele>
        <time>2018-11-28T07:24:26Z</time>
      </trkpt>
      <trkpt lat="42.33665" lon="2.45519">
        <ele>958.6</ele>
        <time>2018-11-28T07:24:35Z</time>
      </trkpt>
      <trkpt lat="42.33672" lon="2.45506">
        <ele>960.1</ele>
        <time>2018-11-28T07:24:40Z</time>
      </trkpt>
      <trkpt lat="42.33677" lon="2.45503">
        <ele>959.6</ele>
        <time>2018-11-28T07:24:42Z</time>
      </trkpt>
      <trkpt lat="42.33695" lon="2.45493">
        <ele>960.5</ele>
        <time>2018-11-28T07:24:50Z</time>
      </trkpt>
      <trkpt lat="42.33708" lon="2.45485">
        <ele>962.4</ele>
        <time>2018-11-28T07:24:56Z</time>
      </trkpt>
      <trkpt lat="42.3371" lon="2.45485">
        <ele>963</ele>
        <time>2018-11-28T07:24:56Z</time>
      </trkpt>
      <trkpt lat="42.33722" lon="2.45472">
        <ele>963.9</ele>
        <time>2018-11-28T07:25:03Z</time>
      </trkpt>
      <trkpt lat="42.33735" lon="2.4545">
        <ele>964.3</ele>
        <time>2018-11-28T07:25:11Z</time>
      </trkpt>
      <trkpt lat="42.33743" lon="2.4543">
        <ele>964.9</ele>
        <time>2018-11-28T07:25:18Z</time>
      </trkpt>
      <trkpt lat="42.33753" lon="2.4541">
        <ele>965.9</ele>
        <time>2018-11-28T07:25:25Z</time>
      </trkpt>
      <trkpt lat="42.33748" lon="2.45379">
        <ele>967.7</ele>
        <time>2018-11-28T07:25:34Z</time>
      </trkpt>
      <trkpt lat="42.33746" lon="2.45357">
        <ele>967.7</ele>
        <time>2018-11-28T07:25:41Z</time>
      </trkpt>
      <trkpt lat="42.33743" lon="2.45345">
        <ele>969.7</ele>
        <time>2018-11-28T07:25:44Z</time>
      </trkpt>
      <trkpt lat="42.33749" lon="2.45302">
        <ele>970.1</ele>
        <time>2018-11-28T07:25:57Z</time>
      </trkpt>
      <trkpt lat="42.33761" lon="2.45286">
        <ele>966.7</ele>
        <time>2018-11-28T07:26:04Z</time>
      </trkpt>
      <trkpt lat="42.33777" lon="2.45275">
        <ele>964.9</ele>
        <time>2018-11-28T07:26:11Z</time>
      </trkpt>
      <trkpt lat="42.33793" lon="2.45272">
        <ele>965.9</ele>
        <time>2018-11-28T07:26:18Z</time>
      </trkpt>
      <trkpt lat="42.33806" lon="2.45272">
        <ele>965.3</ele>
        <time>2018-11-28T07:26:23Z</time>
      </trkpt>
      <trkpt lat="42.3381" lon="2.45277">
        <ele>965.3</ele>
        <time>2018-11-28T07:26:25Z</time>
      </trkpt>
      <trkpt lat="42.3381" lon="2.45277">
        <ele>963.9</ele>
        <time>2018-11-28T07:26:25Z</time>
      </trkpt>
      <trkpt lat="42.33805" lon="2.45274">
        <ele>964.4</ele>
        <time>2018-11-28T07:26:27Z</time>
      </trkpt>
      <trkpt lat="42.3381" lon="2.45269">
        <ele>964.9</ele>
        <time>2018-11-28T07:26:29Z</time>
      </trkpt>
      <trkpt lat="42.3382" lon="2.45247">
        <ele>965.4</ele>
        <time>2018-11-28T07:26:37Z</time>
      </trkpt>
      <trkpt lat="42.33826" lon="2.45225">
        <ele>966.4</ele>
        <time>2018-11-28T07:26:44Z</time>
      </trkpt>
      <trkpt lat="42.33832" lon="2.45196">
        <ele>967.3</ele>
        <time>2018-11-28T07:26:53Z</time>
      </trkpt>
      <trkpt lat="42.33835" lon="2.45187">
        <ele>968.2</ele>
        <time>2018-11-28T07:26:56Z</time>
      </trkpt>
      <trkpt lat="42.33838" lon="2.45172">
        <ele>969.2</ele>
        <time>2018-11-28T07:27:00Z</time>
      </trkpt>
      <trkpt lat="42.3384" lon="2.45147">
        <ele>970.1</ele>
        <time>2018-11-28T07:27:08Z</time>
      </trkpt>
      <trkpt lat="42.33839" lon="2.45138">
        <ele>970.2</ele>
        <time>2018-11-28T07:27:10Z</time>
      </trkpt>
      <trkpt lat="42.33838" lon="2.45123">
        <ele>970.7</ele>
        <time>2018-11-28T07:27:15Z</time>
      </trkpt>
      <trkpt lat="42.33841" lon="2.45108">
        <ele>973</ele>
        <time>2018-11-28T07:27:19Z</time>
      </trkpt>
      <trkpt lat="42.33838" lon="2.45102">
        <ele>974</ele>
        <time>2018-11-28T07:27:21Z</time>
      </trkpt>
      <trkpt lat="42.33837" lon="2.45099">
        <ele>975.5</ele>
        <time>2018-11-28T07:27:22Z</time>
      </trkpt>
      <trkpt lat="42.33836" lon="2.45093">
        <ele>976.4</ele>
        <time>2018-11-28T07:27:24Z</time>
      </trkpt>
      <trkpt lat="42.33835" lon="2.45086">
        <ele>977.8</ele>
        <time>2018-11-28T07:27:26Z</time>
      </trkpt>
      <trkpt lat="42.33837" lon="2.45069">
        <ele>978.4</ele>
        <time>2018-11-28T07:27:31Z</time>
      </trkpt>
      <trkpt lat="42.33836" lon="2.45065">
        <ele>978.9</ele>
        <time>2018-11-28T07:27:33Z</time>
      </trkpt>
      <trkpt lat="42.33835" lon="2.45063">
        <ele>977.9</ele>
        <time>2018-11-28T07:27:33Z</time>
      </trkpt>
      <trkpt lat="42.33832" lon="2.45066">
        <ele>978.4</ele>
        <time>2018-11-28T07:27:35Z</time>
      </trkpt>
      <trkpt lat="42.3383" lon="2.45076">
        <ele>978.4</ele>
        <time>2018-11-28T07:27:38Z</time>
      </trkpt>
      <trkpt lat="42.33827" lon="2.45081">
        <ele>977.4</ele>
        <time>2018-11-28T07:27:40Z</time>
      </trkpt>
      <trkpt lat="42.33812" lon="2.45067">
        <ele>975.4</ele>
        <time>2018-11-28T07:27:47Z</time>
      </trkpt>
      <trkpt lat="42.33811" lon="2.4506">
        <ele>974.9</ele>
        <time>2018-11-28T07:27:49Z</time>
      </trkpt>
      <trkpt lat="42.33829" lon="2.45049">
        <ele>977.3</ele>
        <time>2018-11-28T07:27:57Z</time>
      </trkpt>
      <trkpt lat="42.33806" lon="2.45035">
        <ele>977.8</ele>
        <time>2018-11-28T07:28:08Z</time>
      </trkpt>
      <trkpt lat="42.33815" lon="2.45044">
        <ele>977.9</ele>
        <time>2018-11-28T07:28:12Z</time>
      </trkpt>
      <trkpt lat="42.33815" lon="2.4506">
        <ele>977.4</ele>
        <time>2018-11-28T07:28:17Z</time>
      </trkpt>
      <trkpt lat="42.33817" lon="2.45074">
        <ele>976</ele>
        <time>2018-11-28T07:28:21Z</time>
      </trkpt>
      <trkpt lat="42.33819" lon="2.45074">
        <ele>976</ele>
        <time>2018-11-28T07:28:22Z</time>
      </trkpt>
      <trkpt lat="42.33828" lon="2.45083">
        <ele>976.4</ele>
        <time>2018-11-28T07:28:26Z</time>
      </trkpt>
      <trkpt lat="42.3383" lon="2.45089">
        <ele>976</ele>
        <time>2018-11-28T07:28:28Z</time>
      </trkpt>
      <trkpt lat="42.33833" lon="2.45092">
        <ele>975.9</ele>
        <time>2018-11-28T07:28:30Z</time>
      </trkpt>
      <trkpt lat="42.33837" lon="2.451">
        <ele>975.9</ele>
        <time>2018-11-28T07:28:33Z</time>
      </trkpt>
      <trkpt lat="42.33838" lon="2.45103">
        <ele>975.5</ele>
        <time>2018-11-28T07:28:34Z</time>
      </trkpt>
      <trkpt lat="42.33838" lon="2.45105">
        <ele>975.4</ele>
        <time>2018-11-28T07:28:34Z</time>
      </trkpt>
      <trkpt lat="42.33841" lon="2.45115">
        <ele>972</ele>
        <time>2018-11-28T07:28:38Z</time>
      </trkpt>
      <trkpt lat="42.33802" lon="2.45263">
        <ele>948.6</ele>
        <time>2018-11-28T10:03:23Z</time>
      </trkpt>
      <trkpt lat="42.33864" lon="2.45311">
        <ele>956.2</ele>
        <time>2018-11-28T10:03:51Z</time>
      </trkpt>
      <trkpt lat="42.33869" lon="2.45373">
        <ele>968.7</ele>
        <time>2018-11-28T10:04:10Z</time>
      </trkpt>
      <trkpt lat="42.3386" lon="2.45445">
        <ele>973.5</ele>
        <time>2018-11-28T10:04:31Z</time>
      </trkpt>
      <trkpt lat="42.33868" lon="2.45487">
        <ele>976.5</ele>
        <time>2018-11-28T10:04:44Z</time>
      </trkpt>
      <trkpt lat="42.33879" lon="2.45511">
        <ele>979.3</ele>
        <time>2018-11-28T10:04:52Z</time>
      </trkpt>
      <trkpt lat="42.33904" lon="2.45452">
        <ele>988</ele>
        <time>2018-11-28T10:05:12Z</time>
      </trkpt>
      <trkpt lat="42.33923" lon="2.4532">
        <ele>1006.7</ele>
        <time>2018-11-28T10:05:52Z</time>
      </trkpt>
      <trkpt lat="42.33952" lon="2.45243">
        <ele>1016.4</ele>
        <time>2018-11-28T10:06:18Z</time>
      </trkpt>
      <trkpt lat="42.34" lon="2.45207">
        <ele>1023.5</ele>
        <time>2018-11-28T10:06:40Z</time>
      </trkpt>
      <trkpt lat="42.34034" lon="2.45198">
        <ele>1029.3</ele>
        <time>2018-11-28T10:06:54Z</time>
      </trkpt>
      <trkpt lat="42.34079" lon="2.45206">
        <ele>1038</ele>
        <time>2018-11-28T10:07:12Z</time>
      </trkpt>
      <trkpt lat="42.34091" lon="2.452">
        <ele>1040.4</ele>
        <time>2018-11-28T10:07:17Z</time>
      </trkpt>
      <trkpt lat="42.34102" lon="2.45207">
        <ele>1042.7</ele>
        <time>2018-11-28T10:07:22Z</time>
      </trkpt>
      <trkpt lat="42.34098" lon="2.45215">
        <ele>1044.6</ele>
        <time>2018-11-28T10:07:25Z</time>
      </trkpt>
      <trkpt lat="42.34068" lon="2.45226">
        <ele>1048</ele>
        <time>2018-11-28T10:07:37Z</time>
      </trkpt>
      <trkpt lat="42.34035" lon="2.45247">
        <ele>1050.9</ele>
        <time>2018-11-28T10:07:52Z</time>
      </trkpt>
      <trkpt lat="42.34004" lon="2.45283">
        <ele>1055.2</ele>
        <time>2018-11-28T10:08:08Z</time>
      </trkpt>
      <trkpt lat="42.33996" lon="2.4531">
        <ele>1056.1</ele>
        <time>2018-11-28T10:08:17Z</time>
      </trkpt>
      <trkpt lat="42.33993" lon="2.45371">
        <ele>1063.9</ele>
        <time>2018-11-28T10:08:35Z</time>
      </trkpt>
      <trkpt lat="42.34007" lon="2.45452">
        <ele>1072.5</ele>
        <time>2018-11-28T10:09:00Z</time>
      </trkpt>
      <trkpt lat="42.34023" lon="2.45482">
        <ele>1076.9</ele>
        <time>2018-11-28T10:09:11Z</time>
      </trkpt>
      <trkpt lat="42.34049" lon="2.45506">
        <ele>1080.7</ele>
        <time>2018-11-28T10:09:23Z</time>
      </trkpt>
      <trkpt lat="42.34082" lon="2.45524">
        <ele>1085.9</ele>
        <time>2018-11-28T10:09:38Z</time>
      </trkpt>
      <trkpt lat="42.34121" lon="2.4553">
        <ele>1090.9</ele>
        <time>2018-11-28T10:09:53Z</time>
      </trkpt>
      <trkpt lat="42.3417" lon="2.45552">
        <ele>1097</ele>
        <time>2018-11-28T10:10:14Z</time>
      </trkpt>
      <trkpt lat="42.34176" lon="2.4556">
        <ele>1098</ele>
        <time>2018-11-28T10:10:17Z</time>
      </trkpt>
      <trkpt lat="42.34187" lon="2.45607">
        <ele>1100.4</ele>
        <time>2018-11-28T10:10:32Z</time>
      </trkpt>
      <trkpt lat="42.34193" lon="2.45611">
        <ele>1101.8</ele>
        <time>2018-11-28T10:10:35Z</time>
      </trkpt>
      <trkpt lat="42.34194" lon="2.45565">
        <ele>1105.3</ele>
        <time>2018-11-28T10:10:48Z</time>
      </trkpt>
      <trkpt lat="42.34174" lon="2.45517">
        <ele>1111.4</ele>
        <time>2018-11-28T10:11:05Z</time>
      </trkpt>
      <trkpt lat="42.34134" lon="2.45467">
        <ele>1117.2</ele>
        <time>2018-11-28T10:11:26Z</time>
      </trkpt>
      <trkpt lat="42.34124" lon="2.45432">
        <ele>1121.1</ele>
        <time>2018-11-28T10:11:38Z</time>
      </trkpt>
      <trkpt lat="42.34123" lon="2.45413">
        <ele>1123.9</ele>
        <time>2018-11-28T10:11:43Z</time>
      </trkpt>
      <trkpt lat="42.34142" lon="2.45392">
        <ele>1125.5</ele>
        <time>2018-11-28T10:11:53Z</time>
      </trkpt>
      <trkpt lat="42.34158" lon="2.45392">
        <ele>1127.3</ele>
        <time>2018-11-28T10:11:59Z</time>
      </trkpt>
      <trkpt lat="42.34189" lon="2.45417">
        <ele>1131.7</ele>
        <time>2018-11-28T10:12:14Z</time>
      </trkpt>
      <trkpt lat="42.34232" lon="2.45472">
        <ele>1141.3</ele>
        <time>2018-11-28T10:12:38Z</time>
      </trkpt>
      <trkpt lat="42.34278" lon="2.45516">
        <ele>1149.9</ele>
        <time>2018-11-28T10:13:00Z</time>
      </trkpt>
      <trkpt lat="42.34334" lon="2.45593">
        <ele>1162.9</ele>
        <time>2018-11-28T10:13:32Z</time>
      </trkpt>
      <trkpt lat="42.34351" lon="2.45602">
        <ele>1164.9</ele>
        <time>2018-11-28T10:13:39Z</time>
      </trkpt>
      <trkpt lat="42.34382" lon="2.45603">
        <ele>1170.2</ele>
        <time>2018-11-28T10:13:52Z</time>
      </trkpt>
      <trkpt lat="42.34464" lon="2.45625">
        <ele>1183.6</ele>
        <time>2018-11-28T10:14:25Z</time>
      </trkpt>
      <trkpt lat="42.34496" lon="2.45624">
        <ele>1187.9</ele>
        <time>2018-11-28T10:14:38Z</time>
      </trkpt>
      <trkpt lat="42.34513" lon="2.45617">
        <ele>1189.9</ele>
        <time>2018-11-28T10:14:45Z</time>
      </trkpt>
      <trkpt lat="42.34581" lon="2.45547">
        <ele>1204.2</ele>
        <time>2018-11-28T10:15:20Z</time>
      </trkpt>
      <trkpt lat="42.34661" lon="2.45486">
        <ele>1220.2</ele>
        <time>2018-11-28T10:15:56Z</time>
      </trkpt>
      <trkpt lat="42.34697" lon="2.45438">
        <ele>1226.9</ele>
        <time>2018-11-28T10:16:16Z</time>
      </trkpt>
      <trkpt lat="42.34712" lon="2.45434">
        <ele>1227.8</ele>
        <time>2018-11-28T10:16:22Z</time>
      </trkpt>
      <trkpt lat="42.3472" lon="2.4544">
        <ele>1229.7</ele>
        <time>2018-11-28T10:16:26Z</time>
      </trkpt>
      <trkpt lat="42.34772" lon="2.45433">
        <ele>1233</ele>
        <time>2018-11-28T10:16:47Z</time>
      </trkpt>
      <trkpt lat="42.34876" lon="2.45451">
        <ele>1244.6</ele>
        <time>2018-11-28T10:17:29Z</time>
      </trkpt>
      <trkpt lat="42.34909" lon="2.45518">
        <ele>1250.8</ele>
        <time>2018-11-28T10:17:53Z</time>
      </trkpt>
      <trkpt lat="42.34958" lon="2.45572">
        <ele>1257.1</ele>
        <time>2018-11-28T10:18:18Z</time>
      </trkpt>
      <trkpt lat="42.34979" lon="2.45575">
        <ele>1259.1</ele>
        <time>2018-11-28T10:18:27Z</time>
      </trkpt>
      <trkpt lat="42.34996" lon="2.45568">
        <ele>1261.4</ele>
        <time>2018-11-28T10:18:34Z</time>
      </trkpt>
      <trkpt lat="42.35012" lon="2.45547">
        <ele>1262.3</ele>
        <time>2018-11-28T10:18:43Z</time>
      </trkpt>
      <trkpt lat="42.35033" lon="2.45535">
        <ele>1264.4</ele>
        <time>2018-11-28T10:18:52Z</time>
      </trkpt>
      <trkpt lat="42.35052" lon="2.45533">
        <ele>1265.2</ele>
        <time>2018-11-28T10:18:59Z</time>
      </trkpt>
      <trkpt lat="42.35111" lon="2.4555">
        <ele>1270</ele>
        <time>2018-11-28T10:19:24Z</time>
      </trkpt>
      <trkpt lat="42.35168" lon="2.45546">
        <ele>1272.9</ele>
        <time>2018-11-28T10:19:47Z</time>
      </trkpt>
      <trkpt lat="42.35203" lon="2.45568">
        <ele>1274.4</ele>
        <time>2018-11-28T10:20:02Z</time>
      </trkpt>
      <trkpt lat="42.35257" lon="2.45623">
        <ele>1279.7</ele>
        <time>2018-11-28T10:20:29Z</time>
      </trkpt>
      <trkpt lat="42.35271" lon="2.45633">
        <ele>1280.6</ele>
        <time>2018-11-28T10:20:36Z</time>
      </trkpt>
      <trkpt lat="42.35319" lon="2.45639">
        <ele>1285.4</ele>
        <time>2018-11-28T10:20:55Z</time>
      </trkpt>
      <trkpt lat="42.35333" lon="2.45657">
        <ele>1287</ele>
        <time>2018-11-28T10:21:03Z</time>
      </trkpt>
      <trkpt lat="42.35333" lon="2.45724">
        <ele>1285.5</ele>
        <time>2018-11-28T10:21:22Z</time>
      </trkpt>
      <trkpt lat="42.3535" lon="2.45755">
        <ele>1282.5</ele>
        <time>2018-11-28T10:21:34Z</time>
      </trkpt>
      <trkpt lat="42.35411" lon="2.45774">
        <ele>1274.4</ele>
        <time>2018-11-28T10:21:59Z</time>
      </trkpt>
      <trkpt lat="42.35435" lon="2.45776">
        <ele>1272.9</ele>
        <time>2018-11-28T10:22:09Z</time>
      </trkpt>
      <trkpt lat="42.35466" lon="2.45775">
        <ele>1274.5</ele>
        <time>2018-11-28T10:22:21Z</time>
      </trkpt>
      <trkpt lat="42.3549" lon="2.45754">
        <ele>1275.3</ele>
        <time>2018-11-28T10:22:32Z</time>
      </trkpt>
      <trkpt lat="42.35553" lon="2.45823">
        <ele>1282.5</ele>
        <time>2018-11-28T10:23:05Z</time>
      </trkpt>
      <trkpt lat="42.35576" lon="2.45822">
        <ele>1283.1</ele>
        <time>2018-11-28T10:23:14Z</time>
      </trkpt>
      <trkpt lat="42.35583" lon="2.45828">
        <ele>1283</ele>
        <time>2018-11-28T10:23:18Z</time>
      </trkpt>
      <trkpt lat="42.35591" lon="2.45848">
        <ele>1283</ele>
        <time>2018-11-28T10:23:24Z</time>
      </trkpt>
      <trkpt lat="42.35575" lon="2.45913">
        <ele>1287.9</ele>
        <time>2018-11-28T10:23:44Z</time>
      </trkpt>
      <trkpt lat="42.35581" lon="2.45952">
        <ele>1290.2</ele>
        <time>2018-11-28T10:23:56Z</time>
      </trkpt>
      <trkpt lat="42.35599" lon="2.45997">
        <ele>1293.6</ele>
        <time>2018-11-28T10:24:11Z</time>
      </trkpt>
      <trkpt lat="42.35628" lon="2.46027">
        <ele>1296.6</ele>
        <time>2018-11-28T10:24:26Z</time>
      </trkpt>
      <trkpt lat="42.35701" lon="2.46067">
        <ele>1303.8</ele>
        <time>2018-11-28T10:24:57Z</time>
      </trkpt>
      <trkpt lat="42.35666" lon="2.4613">
        <ele>1301.9</ele>
        <time>2018-11-28T10:25:21Z</time>
      </trkpt>
      <trkpt lat="42.35657" lon="2.46166">
        <ele>1300.4</ele>
        <time>2018-11-28T10:25:32Z</time>
      </trkpt>
      <trkpt lat="42.35651" lon="2.46189">
        <ele>1298</ele>
        <time>2018-11-28T10:25:39Z</time>
      </trkpt>
      <trkpt lat="42.35654" lon="2.46243">
        <ele>1295</ele>
        <time>2018-11-28T10:25:55Z</time>
      </trkpt>
      <trkpt lat="42.35663" lon="2.46258">
        <ele>1294.6</ele>
        <time>2018-11-28T10:26:01Z</time>
      </trkpt>
      <trkpt lat="42.35705" lon="2.4628">
        <ele>1290.7</ele>
        <time>2018-11-28T10:26:19Z</time>
      </trkpt>
      <trkpt lat="42.35723" lon="2.46297">
        <ele>1288.3</ele>
        <time>2018-11-28T10:26:28Z</time>
      </trkpt>
      <trkpt lat="42.35727" lon="2.46326">
        <ele>1286.5</ele>
        <time>2018-11-28T10:26:36Z</time>
      </trkpt>
      <trkpt lat="42.35749" lon="2.46379">
        <ele>1287</ele>
        <time>2018-11-28T10:26:54Z</time>
      </trkpt>
      <trkpt lat="42.35759" lon="2.46398">
        <ele>1286.5</ele>
        <time>2018-11-28T10:27:01Z</time>
      </trkpt>
      <trkpt lat="42.35775" lon="2.46409">
        <ele>1287</ele>
        <time>2018-11-28T10:27:08Z</time>
      </trkpt>
      <trkpt lat="42.3575" lon="2.46414">
        <ele>1289.8</ele>
        <time>2018-11-28T10:27:18Z</time>
      </trkpt>
      <trkpt lat="42.35768" lon="2.46539">
        <ele>1307.6</ele>
        <time>2018-11-28T10:27:56Z</time>
      </trkpt>
      <trkpt lat="42.35765" lon="2.46576">
        <ele>1313.3</ele>
        <time>2018-11-28T10:28:07Z</time>
      </trkpt>
      <trkpt lat="42.35745" lon="2.46613">
        <ele>1320.6</ele>
        <time>2018-11-28T10:28:20Z</time>
      </trkpt>
      <trkpt lat="42.35764" lon="2.46637">
        <ele>1331.6</ele>
        <time>2018-11-28T10:28:31Z</time>
      </trkpt>
      <trkpt lat="42.35804" lon="2.46651">
        <ele>1349.4</ele>
        <time>2018-11-28T10:28:47Z</time>
      </trkpt>
      <trkpt lat="42.35812" lon="2.46665">
        <ele>1354.6</ele>
        <time>2018-11-28T10:28:52Z</time>
      </trkpt>
      <trkpt lat="42.3582" lon="2.4667">
        <ele>1358</ele>
        <time>2018-11-28T10:28:56Z</time>
      </trkpt>
      <trkpt lat="42.35812" lon="2.46753">
        <ele>1373.9</ele>
        <time>2018-11-28T10:29:21Z</time>
      </trkpt>
      <trkpt lat="42.35808" lon="2.46758">
        <ele>1374.4</ele>
        <time>2018-11-28T10:29:23Z</time>
      </trkpt>
      <trkpt lat="42.358" lon="2.46756">
        <ele>1374.8</ele>
        <time>2018-11-28T10:29:26Z</time>
      </trkpt>
      <trkpt lat="42.358" lon="2.46761">
        <ele>1374.4</ele>
        <time>2018-11-28T10:29:28Z</time>
      </trkpt>
      <trkpt lat="42.35803" lon="2.46754">
        <ele>1373</ele>
        <time>2018-11-28T10:29:30Z</time>
      </trkpt>
      <trkpt lat="42.35809" lon="2.46759">
        <ele>1372.5</ele>
        <time>2018-11-28T10:29:33Z</time>
      </trkpt>
      <trkpt lat="42.35837" lon="2.46747">
        <ele>1375.8</ele>
        <time>2018-11-28T10:29:44Z</time>
      </trkpt>
      <trkpt lat="42.35855" lon="2.46743">
        <ele>1378.8</ele>
        <time>2018-11-28T10:29:52Z</time>
      </trkpt>
      <trkpt lat="42.35862" lon="2.46753">
        <ele>1378.7</ele>
        <time>2018-11-28T10:29:56Z</time>
      </trkpt>
      <trkpt lat="42.35866" lon="2.46749">
        <ele>1379.1</ele>
        <time>2018-11-28T10:29:58Z</time>
      </trkpt>
      <trkpt lat="42.35882" lon="2.46816">
        <ele>1372.9</ele>
        <time>2018-11-28T10:30:19Z</time>
      </trkpt>
      <trkpt lat="42.35932" lon="2.46904">
        <ele>1365.7</ele>
        <time>2018-11-28T10:30:51Z</time>
      </trkpt>
      <trkpt lat="42.35958" lon="2.47043">
        <ele>1356.2</ele>
        <time>2018-11-28T10:31:34Z</time>
      </trkpt>
      <trkpt lat="42.35971" lon="2.47082">
        <ele>1354.2</ele>
        <time>2018-11-28T10:31:46Z</time>
      </trkpt>
      <trkpt lat="42.35996" lon="2.47113">
        <ele>1350.9</ele>
        <time>2018-11-28T10:32:00Z</time>
      </trkpt>
      <trkpt lat="42.35984" lon="2.47144">
        <ele>1348.5</ele>
        <time>2018-11-28T10:32:10Z</time>
      </trkpt>
      <trkpt lat="42.35949" lon="2.47112">
        <ele>1343.2</ele>
        <time>2018-11-28T10:32:27Z</time>
      </trkpt>
      <trkpt lat="42.35927" lon="2.47064">
        <ele>1338.8</ele>
        <time>2018-11-28T10:32:44Z</time>
      </trkpt>
      <trkpt lat="42.35925" lon="2.4707">
        <ele>1338.3</ele>
        <time>2018-11-28T10:32:46Z</time>
      </trkpt>
      <trkpt lat="42.35936" lon="2.47139">
        <ele>1332.5</ele>
        <time>2018-11-28T10:33:07Z</time>
      </trkpt>
      <trkpt lat="42.35935" lon="2.47191">
        <ele>1329.3</ele>
        <time>2018-11-28T10:33:22Z</time>
      </trkpt>
      <trkpt lat="42.35942" lon="2.47255">
        <ele>1324.9</ele>
        <time>2018-11-28T10:33:41Z</time>
      </trkpt>
      <trkpt lat="42.35938" lon="2.475">
        <ele>1307.5</ele>
        <time>2018-11-28T10:34:54Z</time>
      </trkpt>
      <trkpt lat="42.35932" lon="2.47502">
        <ele>1305.1</ele>
        <time>2018-11-28T10:34:56Z</time>
      </trkpt>
      <trkpt lat="42.35944" lon="2.47531">
        <ele>1304.7</ele>
        <time>2018-11-28T10:35:06Z</time>
      </trkpt>
      <trkpt lat="42.3596" lon="2.47563">
        <ele>1302.8</ele>
        <time>2018-11-28T10:35:17Z</time>
      </trkpt>
      <trkpt lat="42.36012" lon="2.47604">
        <ele>1298.5</ele>
        <time>2018-11-28T10:35:41Z</time>
      </trkpt>
      <trkpt lat="42.36053" lon="2.47655">
        <ele>1293.1</ele>
        <time>2018-11-28T10:36:04Z</time>
      </trkpt>
      <trkpt lat="42.36088" lon="2.47749">
        <ele>1285.5</ele>
        <time>2018-11-28T10:36:35Z</time>
      </trkpt>
      <trkpt lat="42.36119" lon="2.47802">
        <ele>1280.2</ele>
        <time>2018-11-28T10:36:55Z</time>
      </trkpt>
      <trkpt lat="42.36131" lon="2.47901">
        <ele>1276.3</ele>
        <time>2018-11-28T10:37:25Z</time>
      </trkpt>
      <trkpt lat="42.36143" lon="2.47909">
        <ele>1274.8</ele>
        <time>2018-11-28T10:37:30Z</time>
      </trkpt>
      <trkpt lat="42.36146" lon="2.4796">
        <ele>1272.5</ele>
        <time>2018-11-28T10:37:45Z</time>
      </trkpt>
      <trkpt lat="42.36161" lon="2.47992">
        <ele>1270</ele>
        <time>2018-11-28T10:37:56Z</time>
      </trkpt>
      <trkpt lat="42.362" lon="2.48047">
        <ele>1266.7</ele>
        <time>2018-11-28T10:38:19Z</time>
      </trkpt>
      <trkpt lat="42.36226" lon="2.48128">
        <ele>1261.4</ele>
        <time>2018-11-28T10:38:45Z</time>
      </trkpt>
      <trkpt lat="42.36244" lon="2.48157">
        <ele>1258.5</ele>
        <time>2018-11-28T10:38:56Z</time>
      </trkpt>
      <trkpt lat="42.36265" lon="2.48178">
        <ele>1256.7</ele>
        <time>2018-11-28T10:39:07Z</time>
      </trkpt>
      <trkpt lat="42.36308" lon="2.48204">
        <ele>1252.4</ele>
        <time>2018-11-28T10:39:25Z</time>
      </trkpt>
      <trkpt lat="42.36345" lon="2.48245">
        <ele>1249.5</ele>
        <time>2018-11-28T10:39:45Z</time>
      </trkpt>
      <trkpt lat="42.36361" lon="2.4825">
        <ele>1248</ele>
        <time>2018-11-28T10:39:51Z</time>
      </trkpt>
      <trkpt lat="42.36324" lon="2.48213">
        <ele>1244.7</ele>
        <time>2018-11-28T10:40:10Z</time>
      </trkpt>
      <trkpt lat="42.3631" lon="2.48184">
        <ele>1242.2</ele>
        <time>2018-11-28T10:40:20Z</time>
      </trkpt>
      <trkpt lat="42.36293" lon="2.4817">
        <ele>1241.3</ele>
        <time>2018-11-28T10:40:28Z</time>
      </trkpt>
      <trkpt lat="42.36264" lon="2.48108">
        <ele>1239.3</ele>
        <time>2018-11-28T10:40:49Z</time>
      </trkpt>
      <trkpt lat="42.36257" lon="2.48045">
        <ele>1237</ele>
        <time>2018-11-28T10:41:08Z</time>
      </trkpt>
      <trkpt lat="42.36226" lon="2.4795">
        <ele>1229.7</ele>
        <time>2018-11-28T10:41:39Z</time>
      </trkpt>
      <trkpt lat="42.3626" lon="2.47849">
        <ele>1224.4</ele>
        <time>2018-11-28T10:42:12Z</time>
      </trkpt>
      <trkpt lat="42.36249" lon="2.47916">
        <ele>1221.1</ele>
        <time>2018-11-28T10:42:32Z</time>
      </trkpt>
      <trkpt lat="42.36252" lon="2.47934">
        <ele>1220.2</ele>
        <time>2018-11-28T10:42:38Z</time>
      </trkpt>
      <trkpt lat="42.36281" lon="2.47981">
        <ele>1217.7</ele>
        <time>2018-11-28T10:42:56Z</time>
      </trkpt>
      <trkpt lat="42.36315" lon="2.48081">
        <ele>1212.9</ele>
        <time>2018-11-28T10:43:28Z</time>
      </trkpt>
      <trkpt lat="42.36338" lon="2.48109">
        <ele>1210.5</ele>
        <time>2018-11-28T10:43:41Z</time>
      </trkpt>
      <trkpt lat="42.36414" lon="2.48156">
        <ele>1206.6</ele>
        <time>2018-11-28T10:44:14Z</time>
      </trkpt>
      <trkpt lat="42.36437" lon="2.48176">
        <ele>1205.1</ele>
        <time>2018-11-28T10:44:25Z</time>
      </trkpt>
      <trkpt lat="42.36451" lon="2.48215">
        <ele>1203.7</ele>
        <time>2018-11-28T10:44:38Z</time>
      </trkpt>
      <trkpt lat="42.36445" lon="2.48282">
        <ele>1200.9</ele>
        <time>2018-11-28T10:44:58Z</time>
      </trkpt>
      <trkpt lat="42.36455" lon="2.48307">
        <ele>1199.9</ele>
        <time>2018-11-28T10:45:06Z</time>
      </trkpt>
      <trkpt lat="42.3647" lon="2.48326">
        <ele>1198.4</ele>
        <time>2018-11-28T10:45:15Z</time>
      </trkpt>
      <trkpt lat="42.36515" lon="2.48352">
        <ele>1196</ele>
        <time>2018-11-28T10:45:34Z</time>
      </trkpt>
      <trkpt lat="42.3654" lon="2.48376">
        <ele>1193.7</ele>
        <time>2018-11-28T10:45:46Z</time>
      </trkpt>
      <trkpt lat="42.36569" lon="2.48387">
        <ele>1191.8</ele>
        <time>2018-11-28T10:45:58Z</time>
      </trkpt>
      <trkpt lat="42.36583" lon="2.48405">
        <ele>1191.2</ele>
        <time>2018-11-28T10:46:06Z</time>
      </trkpt>
      <trkpt lat="42.36607" lon="2.48511">
        <ele>1188.9</ele>
        <time>2018-11-28T10:46:39Z</time>
      </trkpt>
      <trkpt lat="42.36597" lon="2.48557">
        <ele>1187.4</ele>
        <time>2018-11-28T10:46:53Z</time>
      </trkpt>
      <trkpt lat="42.36574" lon="2.48613">
        <ele>1185.1</ele>
        <time>2018-11-28T10:47:12Z</time>
      </trkpt>
      <trkpt lat="42.36551" lon="2.48744">
        <ele>1179.2</ele>
        <time>2018-11-28T10:47:52Z</time>
      </trkpt>
      <trkpt lat="42.36541" lon="2.48762">
        <ele>1178.8</ele>
        <time>2018-11-28T10:47:58Z</time>
      </trkpt>
      <trkpt lat="42.36513" lon="2.48777">
        <ele>1177.4</ele>
        <time>2018-11-28T10:48:10Z</time>
      </trkpt>
      <trkpt lat="42.3645" lon="2.48769">
        <ele>1170.1</ele>
        <time>2018-11-28T10:48:36Z</time>
      </trkpt>
      <trkpt lat="42.36474" lon="2.48778">
        <ele>1162.4</ele>
        <time>2018-11-28T10:48:45Z</time>
      </trkpt>
      <trkpt lat="42.365" lon="2.4881">
        <ele>1156.6</ele>
        <time>2018-11-28T10:49:00Z</time>
      </trkpt>
      <trkpt lat="42.36552" lon="2.48861">
        <ele>1140.3</ele>
        <time>2018-11-28T10:49:25Z</time>
      </trkpt>
      <trkpt lat="42.36602" lon="2.48865">
        <ele>1132.7</ele>
        <time>2018-11-28T10:49:45Z</time>
      </trkpt>
      <trkpt lat="42.36616" lon="2.48868">
        <ele>1127.4</ele>
        <time>2018-11-28T10:49:51Z</time>
      </trkpt>
      <trkpt lat="42.3663" lon="2.48901">
        <ele>1120.6</ele>
        <time>2018-11-28T10:50:02Z</time>
      </trkpt>
      <trkpt lat="42.36638" lon="2.48943">
        <ele>1107.1</ele>
        <time>2018-11-28T10:50:15Z</time>
      </trkpt>
      <trkpt lat="42.36653" lon="2.4898">
        <ele>1108.6</ele>
        <time>2018-11-28T10:50:28Z</time>
      </trkpt>
      <trkpt lat="42.36646" lon="2.4898">
        <ele>1106.7</ele>
        <time>2018-11-28T10:50:30Z</time>
      </trkpt>
      <trkpt lat="42.36664" lon="2.48983">
        <ele>1107.1</ele>
        <time>2018-11-28T10:50:38Z</time>
      </trkpt>
      <trkpt lat="42.36695" lon="2.49017">
        <ele>1108.5</ele>
        <time>2018-11-28T10:50:54Z</time>
      </trkpt>
      <trkpt lat="42.36704" lon="2.49012">
        <ele>1106.1</ele>
        <time>2018-11-28T10:50:58Z</time>
      </trkpt>
      <trkpt lat="42.36732" lon="2.49016">
        <ele>1103.7</ele>
        <time>2018-11-28T10:51:09Z</time>
      </trkpt>
      <trkpt lat="42.36763" lon="2.49024">
        <ele>1098.4</ele>
        <time>2018-11-28T10:51:21Z</time>
      </trkpt>
      <trkpt lat="42.36806" lon="2.49047">
        <ele>1089.9</ele>
        <time>2018-11-28T10:51:40Z</time>
      </trkpt>
      <trkpt lat="42.36823" lon="2.49078">
        <ele>1085.6</ele>
        <time>2018-11-28T10:51:51Z</time>
      </trkpt>
      <trkpt lat="42.36823" lon="2.49103">
        <ele>1082.7</ele>
        <time>2018-11-28T10:51:58Z</time>
      </trkpt>
      <trkpt lat="42.36832" lon="2.49123">
        <ele>1079.7</ele>
        <time>2018-11-28T10:52:06Z</time>
      </trkpt>
      <trkpt lat="42.36806" lon="2.49156">
        <ele>1073</ele>
        <time>2018-11-28T10:52:20Z</time>
      </trkpt>
      <trkpt lat="42.36786" lon="2.49169">
        <ele>1070.7</ele>
        <time>2018-11-28T10:52:29Z</time>
      </trkpt>
      <trkpt lat="42.36764" lon="2.4917">
        <ele>1068.7</ele>
        <time>2018-11-28T10:52:37Z</time>
      </trkpt>
      <trkpt lat="42.3679" lon="2.49179">
        <ele>1065.4</ele>
        <time>2018-11-28T10:52:48Z</time>
      </trkpt>
      <trkpt lat="42.36829" lon="2.49181">
        <ele>1059.5</ele>
        <time>2018-11-28T10:53:04Z</time>
      </trkpt>
      <trkpt lat="42.36872" lon="2.4917">
        <ele>1054.3</ele>
        <time>2018-11-28T10:53:21Z</time>
      </trkpt>
      <trkpt lat="42.36876" lon="2.4916">
        <ele>1053.3</ele>
        <time>2018-11-28T10:53:25Z</time>
      </trkpt>
      <trkpt lat="42.36879" lon="2.49155">
        <ele>1087</ele>
        <time>2018-11-28T10:53:26Z</time>
      </trkpt>
      <trkpt lat="42.36885" lon="2.49145">
        <ele>1085</ele>
        <time>2018-11-28T10:53:30Z</time>
      </trkpt>
      <trkpt lat="42.36883" lon="2.49132">
        <ele>1085.1</ele>
        <time>2018-11-28T10:53:34Z</time>
      </trkpt>
      <trkpt lat="42.36883" lon="2.4912">
        <ele>1086</ele>
        <time>2018-11-28T10:53:38Z</time>
      </trkpt>
      <trkpt lat="42.36885" lon="2.49108">
        <ele>1083.1</ele>
        <time>2018-11-28T10:53:41Z</time>
      </trkpt>
      <trkpt lat="42.36884" lon="2.49093">
        <ele>1084.1</ele>
        <time>2018-11-28T10:53:46Z</time>
      </trkpt>
      <trkpt lat="42.36884" lon="2.4908">
        <ele>1077.1</ele>
        <time>2018-11-28T10:53:49Z</time>
      </trkpt>
      <trkpt lat="42.36883" lon="2.49067">
        <ele>1075</ele>
        <time>2018-11-28T10:53:53Z</time>
      </trkpt>
      <trkpt lat="42.36884" lon="2.49054">
        <ele>1076.1</ele>
        <time>2018-11-28T10:53:57Z</time>
      </trkpt>
      <trkpt lat="42.36878" lon="2.49043">
        <ele>1068</ele>
        <time>2018-11-28T10:54:01Z</time>
      </trkpt>
      <trkpt lat="42.36874" lon="2.49031">
        <ele>1066.1</ele>
        <time>2018-11-28T10:54:05Z</time>
      </trkpt>
      <trkpt lat="42.36875" lon="2.49025">
        <ele>1069</ele>
        <time>2018-11-28T10:54:07Z</time>
      </trkpt>
      <trkpt lat="42.36876" lon="2.49013">
        <ele>1075</ele>
        <time>2018-11-28T10:54:11Z</time>
      </trkpt>
      <trkpt lat="42.36873" lon="2.49001">
        <ele>1064</ele>
        <time>2018-11-28T10:54:14Z</time>
      </trkpt>
      <trkpt lat="42.36873" lon="2.48989">
        <ele>1065.1</ele>
        <time>2018-11-28T10:54:18Z</time>
      </trkpt>
      <trkpt lat="42.36874" lon="2.48981">
        <ele>1062</ele>
        <time>2018-11-28T10:54:20Z</time>
      </trkpt>
      <trkpt lat="42.36878" lon="2.48985">
        <ele>1060.1</ele>
        <time>2018-11-28T10:54:22Z</time>
      </trkpt>
      <trkpt lat="42.36888" lon="2.48993">
        <ele>1065.1</ele>
        <time>2018-11-28T10:54:27Z</time>
      </trkpt>
      <trkpt lat="42.36893" lon="2.48997">
        <ele>1063.1</ele>
        <time>2018-11-28T10:54:29Z</time>
      </trkpt>
      <trkpt lat="42.36895" lon="2.48989">
        <ele>1060.1</ele>
        <time>2018-11-28T10:54:31Z</time>
      </trkpt>
      <trkpt lat="42.36891" lon="2.48977">
        <ele>1057.1</ele>
        <time>2018-11-28T10:54:35Z</time>
      </trkpt>
      <trkpt lat="42.36887" lon="2.48965">
        <ele>1057.1</ele>
        <time>2018-11-28T10:54:39Z</time>
      </trkpt>
      <trkpt lat="42.36886" lon="2.48954">
        <ele>1060</ele>
        <time>2018-11-28T10:54:43Z</time>
      </trkpt>
      <trkpt lat="42.36884" lon="2.48948">
        <ele>1063</ele>
        <time>2018-11-28T10:54:45Z</time>
      </trkpt>
      <trkpt lat="42.36879" lon="2.48935">
        <ele>1064</ele>
        <time>2018-11-28T10:54:49Z</time>
      </trkpt>
      <trkpt lat="42.36873" lon="2.48921">
        <ele>1056</ele>
        <time>2018-11-28T10:54:53Z</time>
      </trkpt>
      <trkpt lat="42.36869" lon="2.4891">
        <ele>1057.1</ele>
        <time>2018-11-28T10:54:57Z</time>
      </trkpt>
      <trkpt lat="42.36862" lon="2.489">
        <ele>1060</ele>
        <time>2018-11-28T10:55:01Z</time>
      </trkpt>
      <trkpt lat="42.36859" lon="2.48889">
        <ele>1071</ele>
        <time>2018-11-28T10:55:05Z</time>
      </trkpt>
      <trkpt lat="42.36857" lon="2.48879">
        <ele>1090</ele>
        <time>2018-11-28T10:55:08Z</time>
      </trkpt>
      <trkpt lat="42.3685" lon="2.48868">
        <ele>1093.1</ele>
        <time>2018-11-28T10:55:12Z</time>
      </trkpt>
      <trkpt lat="42.3685" lon="2.4886">
        <ele>1092.1</ele>
        <time>2018-11-28T10:55:14Z</time>
      </trkpt>
      <trkpt lat="42.36852" lon="2.48855">
        <ele>1088.1</ele>
        <time>2018-11-28T10:55:16Z</time>
      </trkpt>
      <trkpt lat="42.36856" lon="2.48852">
        <ele>1085</ele>
        <time>2018-11-28T10:55:18Z</time>
      </trkpt>
      <trkpt lat="42.36864" lon="2.48861">
        <ele>1078.1</ele>
        <time>2018-11-28T10:55:22Z</time>
      </trkpt>
      <trkpt lat="42.36864" lon="2.48871">
        <ele>1079</ele>
        <time>2018-11-28T10:55:25Z</time>
      </trkpt>
      <trkpt lat="42.36871" lon="2.48877">
        <ele>1083</ele>
        <time>2018-11-28T10:55:29Z</time>
      </trkpt>
      <trkpt lat="42.3688" lon="2.48875">
        <ele>1078</ele>
        <time>2018-11-28T10:55:32Z</time>
      </trkpt>
      <trkpt lat="42.3689" lon="2.48871">
        <ele>1074.1</ele>
        <time>2018-11-28T10:55:36Z</time>
      </trkpt>
      <trkpt lat="42.36899" lon="2.48875">
        <ele>1074</ele>
        <time>2018-11-28T10:55:40Z</time>
      </trkpt>
      <trkpt lat="42.36907" lon="2.48881">
        <ele>1082.1</ele>
        <time>2018-11-28T10:55:44Z</time>
      </trkpt>
      <trkpt lat="42.36917" lon="2.48885">
        <ele>1075</ele>
        <time>2018-11-28T10:55:48Z</time>
      </trkpt>
      <trkpt lat="42.36928" lon="2.48889">
        <ele>1073.1</ele>
        <time>2018-11-28T10:55:53Z</time>
      </trkpt>
      <trkpt lat="42.36933" lon="2.48899">
        <ele>1063</ele>
        <time>2018-11-28T10:55:56Z</time>
      </trkpt>
      <trkpt lat="42.36936" lon="2.48911">
        <ele>1052.1</ele>
        <time>2018-11-28T10:56:00Z</time>
      </trkpt>
      <trkpt lat="42.36944" lon="2.48918">
        <ele>1045.1</ele>
        <time>2018-11-28T10:56:04Z</time>
      </trkpt>
      <trkpt lat="42.3695" lon="2.48928">
        <ele>1041.1</ele>
        <time>2018-11-28T10:56:08Z</time>
      </trkpt>
      <trkpt lat="42.3695" lon="2.48937">
        <ele>1040</ele>
        <time>2018-11-28T10:56:10Z</time>
      </trkpt>
      <trkpt lat="42.36955" lon="2.48939">
        <ele>1039</ele>
        <time>2018-11-28T10:56:13Z</time>
      </trkpt>
      <trkpt lat="42.36958" lon="2.48951">
        <ele>1041</ele>
        <time>2018-11-28T10:56:16Z</time>
      </trkpt>
      <trkpt lat="42.36962" lon="2.48954">
        <ele>1039</ele>
        <time>2018-11-28T10:56:18Z</time>
      </trkpt>
      <trkpt lat="42.36964" lon="2.48947">
        <ele>1028</ele>
        <time>2018-11-28T10:56:20Z</time>
      </trkpt>
      <trkpt lat="42.36959" lon="2.48938">
        <ele>1015.1</ele>
        <time>2018-11-28T10:56:24Z</time>
      </trkpt>
      <trkpt lat="42.36957" lon="2.48926">
        <ele>1014.1</ele>
        <time>2018-11-28T10:56:27Z</time>
      </trkpt>
      <trkpt lat="42.36958" lon="2.48923">
        <ele>1011.1</ele>
        <time>2018-11-28T10:56:28Z</time>
      </trkpt>
      <trkpt lat="42.36958" lon="2.48922">
        <ele>1012.1</ele>
        <time>2018-11-28T10:56:29Z</time>
      </trkpt>
      <trkpt lat="42.36959" lon="2.48915">
        <ele>1015.1</ele>
        <time>2018-11-28T10:56:31Z</time>
      </trkpt>
      <trkpt lat="42.3696" lon="2.48908">
        <ele>1017.1</ele>
        <time>2018-11-28T10:56:33Z</time>
      </trkpt>
      <trkpt lat="42.36954" lon="2.48898">
        <ele>1023.1</ele>
        <time>2018-11-28T10:56:36Z</time>
      </trkpt>
      <trkpt lat="42.36954" lon="2.48891">
        <ele>1023</ele>
        <time>2018-11-28T10:56:38Z</time>
      </trkpt>
      <trkpt lat="42.36954" lon="2.48883">
        <ele>1020</ele>
        <time>2018-11-28T10:56:41Z</time>
      </trkpt>
      <trkpt lat="42.36954" lon="2.48869">
        <ele>1023</ele>
        <time>2018-11-28T10:56:45Z</time>
      </trkpt>
      <trkpt lat="42.3696" lon="2.48862">
        <ele>1020</ele>
        <time>2018-11-28T10:56:48Z</time>
      </trkpt>
      <trkpt lat="42.36964" lon="2.48866">
        <ele>1020.1</ele>
        <time>2018-11-28T10:56:50Z</time>
      </trkpt>
      <trkpt lat="42.36971" lon="2.48875">
        <ele>1017.1</ele>
        <time>2018-11-28T10:56:54Z</time>
      </trkpt>
      <trkpt lat="42.36971" lon="2.48868">
        <ele>1012</ele>
        <time>2018-11-28T10:56:56Z</time>
      </trkpt>
      <trkpt lat="42.36968" lon="2.48856">
        <ele>1007.1</ele>
        <time>2018-11-28T10:57:00Z</time>
      </trkpt>
      <trkpt lat="42.3697" lon="2.4885">
        <ele>1006</ele>
        <time>2018-11-28T10:57:02Z</time>
      </trkpt>
      <trkpt lat="42.36975" lon="2.48837">
        <ele>1005</ele>
        <time>2018-11-28T10:57:06Z</time>
      </trkpt>
      <trkpt lat="42.36977" lon="2.48825">
        <ele>1008</ele>
        <time>2018-11-28T10:57:10Z</time>
      </trkpt>
      <trkpt lat="42.36981" lon="2.48812">
        <ele>1010</ele>
        <time>2018-11-28T10:57:14Z</time>
      </trkpt>
      <trkpt lat="42.36988" lon="2.48809">
        <ele>1010</ele>
        <time>2018-11-28T10:57:17Z</time>
      </trkpt>
      <trkpt lat="42.36995" lon="2.48809">
        <ele>1000</ele>
        <time>2018-11-28T10:57:20Z</time>
      </trkpt>
      <trkpt lat="42.37002" lon="2.48817">
        <ele>996.1</ele>
        <time>2018-11-28T10:57:24Z</time>
      </trkpt>
      <trkpt lat="42.37007" lon="2.48829">
        <ele>996</ele>
        <time>2018-11-28T10:57:27Z</time>
      </trkpt>
      <trkpt lat="42.37012" lon="2.48841">
        <ele>991.1</ele>
        <time>2018-11-28T10:57:32Z</time>
      </trkpt>
      <trkpt lat="42.37018" lon="2.48847">
        <ele>991.1</ele>
        <time>2018-11-28T10:57:35Z</time>
      </trkpt>
      <trkpt lat="42.37022" lon="2.48846">
        <ele>989.1</ele>
        <time>2018-11-28T10:57:37Z</time>
      </trkpt>
      <trkpt lat="42.37026" lon="2.4885">
        <ele>989</ele>
        <time>2018-11-28T10:57:39Z</time>
      </trkpt>
      <trkpt lat="42.37036" lon="2.48855">
        <ele>989</ele>
        <time>2018-11-28T10:57:43Z</time>
      </trkpt>
      <trkpt lat="42.37041" lon="2.4886">
        <ele>994</ele>
        <time>2018-11-28T10:57:45Z</time>
      </trkpt>
      <trkpt lat="42.37046" lon="2.48856">
        <ele>992</ele>
        <time>2018-11-28T10:57:47Z</time>
      </trkpt>
      <trkpt lat="42.37051" lon="2.48846">
        <ele>992</ele>
        <time>2018-11-28T10:57:51Z</time>
      </trkpt>
      <trkpt lat="42.37058" lon="2.48838">
        <ele>996</ele>
        <time>2018-11-28T10:57:55Z</time>
      </trkpt>
      <trkpt lat="42.37062" lon="2.4885">
        <ele>995</ele>
        <time>2018-11-28T10:57:59Z</time>
      </trkpt>
      <trkpt lat="42.37067" lon="2.48861">
        <ele>996.1</ele>
        <time>2018-11-28T10:58:02Z</time>
      </trkpt>
      <trkpt lat="42.37073" lon="2.48865">
        <ele>990</ele>
        <time>2018-11-28T10:58:05Z</time>
      </trkpt>
      <trkpt lat="42.37075" lon="2.48877">
        <ele>990.1</ele>
        <time>2018-11-28T10:58:09Z</time>
      </trkpt>
      <trkpt lat="42.37073" lon="2.48886">
        <ele>990.1</ele>
        <time>2018-11-28T10:58:11Z</time>
      </trkpt>
      <trkpt lat="42.37071" lon="2.48898">
        <ele>991</ele>
        <time>2018-11-28T10:58:15Z</time>
      </trkpt>
      <trkpt lat="42.37078" lon="2.48908">
        <ele>993.1</ele>
        <time>2018-11-28T10:58:19Z</time>
      </trkpt>
      <trkpt lat="42.37084" lon="2.48921">
        <ele>996.1</ele>
        <time>2018-11-28T10:58:24Z</time>
      </trkpt>
      <trkpt lat="42.37084" lon="2.48935">
        <ele>1002.1</ele>
        <time>2018-11-28T10:58:28Z</time>
      </trkpt>
      <trkpt lat="42.37085" lon="2.48946">
        <ele>1006.1</ele>
        <time>2018-11-28T10:58:31Z</time>
      </trkpt>
      <trkpt lat="42.37085" lon="2.48957">
        <ele>1013.1</ele>
        <time>2018-11-28T10:58:34Z</time>
      </trkpt>
      <trkpt lat="42.37091" lon="2.48963">
        <ele>1018</ele>
        <time>2018-11-28T10:58:37Z</time>
      </trkpt>
      <trkpt lat="42.37096" lon="2.48962">
        <ele>1014</ele>
        <time>2018-11-28T10:58:40Z</time>
      </trkpt>
      <trkpt lat="42.37096" lon="2.48973">
        <ele>1017</ele>
        <time>2018-11-28T10:58:43Z</time>
      </trkpt>
      <trkpt lat="42.37104" lon="2.48982">
        <ele>1016</ele>
        <time>2018-11-28T10:58:47Z</time>
      </trkpt>
      <trkpt lat="42.37109" lon="2.48991">
        <ele>1015.1</ele>
        <time>2018-11-28T10:58:50Z</time>
      </trkpt>
      <trkpt lat="42.37116" lon="2.48999">
        <ele>1011</ele>
        <time>2018-11-28T10:58:54Z</time>
      </trkpt>
      <trkpt lat="42.37121" lon="2.49009">
        <ele>1018</ele>
        <time>2018-11-28T10:58:57Z</time>
      </trkpt>
      <trkpt lat="42.37123" lon="2.4902">
        <ele>1021.1</ele>
        <time>2018-11-28T10:59:01Z</time>
      </trkpt>
      <trkpt lat="42.37118" lon="2.49031">
        <ele>1021</ele>
        <time>2018-11-28T10:59:04Z</time>
      </trkpt>
      <trkpt lat="42.37113" lon="2.49031">
        <ele>1020.1</ele>
        <time>2018-11-28T10:59:06Z</time>
      </trkpt>
      <trkpt lat="42.37109" lon="2.49042">
        <ele>1019.1</ele>
        <time>2018-11-28T10:59:10Z</time>
      </trkpt>
      <trkpt lat="42.37108" lon="2.4905">
        <ele>1030.1</ele>
        <time>2018-11-28T10:59:13Z</time>
      </trkpt>
      <trkpt lat="42.37106" lon="2.49056">
        <ele>1034</ele>
        <time>2018-11-28T10:59:14Z</time>
      </trkpt>
      <trkpt lat="42.37099" lon="2.49065">
        <ele>1024</ele>
        <time>2018-11-28T10:59:18Z</time>
      </trkpt>
      <trkpt lat="42.37096" lon="2.49076">
        <ele>1020.1</ele>
        <time>2018-11-28T10:59:22Z</time>
      </trkpt>
      <trkpt lat="42.37093" lon="2.49086">
        <ele>1023.1</ele>
        <time>2018-11-28T10:59:25Z</time>
      </trkpt>
      <trkpt lat="42.37092" lon="2.49098">
        <ele>1022.1</ele>
        <time>2018-11-28T10:59:28Z</time>
      </trkpt>
      <trkpt lat="42.37093" lon="2.4911">
        <ele>1026</ele>
        <time>2018-11-28T10:59:32Z</time>
      </trkpt>
      <trkpt lat="42.37093" lon="2.49124">
        <ele>1030.1</ele>
        <time>2018-11-28T10:59:36Z</time>
      </trkpt>
      <trkpt lat="42.37097" lon="2.49135">
        <ele>1029.1</ele>
        <time>2018-11-28T10:59:40Z</time>
      </trkpt>
      <trkpt lat="42.37102" lon="2.49144">
        <ele>1025.1</ele>
        <time>2018-11-28T10:59:43Z</time>
      </trkpt>
      <trkpt lat="42.37106" lon="2.49146">
        <ele>1025.1</ele>
        <time>2018-11-28T10:59:45Z</time>
      </trkpt>
      <trkpt lat="42.37104" lon="2.49139">
        <ele>1029.1</ele>
        <time>2018-11-28T10:59:47Z</time>
      </trkpt>
      <trkpt lat="42.37108" lon="2.49136">
        <ele>1032.1</ele>
        <time>2018-11-28T10:59:49Z</time>
      </trkpt>
      <trkpt lat="42.37113" lon="2.49141">
        <ele>1039</ele>
        <time>2018-11-28T10:59:51Z</time>
      </trkpt>
      <trkpt lat="42.3712" lon="2.49132">
        <ele>1037</ele>
        <time>2018-11-28T10:59:55Z</time>
      </trkpt>
      <trkpt lat="42.37126" lon="2.49124">
        <ele>1037.1</ele>
        <time>2018-11-28T10:59:59Z</time>
      </trkpt>
      <trkpt lat="42.3713" lon="2.49119">
        <ele>1041.1</ele>
        <time>2018-11-28T11:00:01Z</time>
      </trkpt>
      <trkpt lat="42.37136" lon="2.49112">
        <ele>1041.1</ele>
        <time>2018-11-28T11:00:04Z</time>
      </trkpt>
      <trkpt lat="42.37142" lon="2.49103">
        <ele>1042</ele>
        <time>2018-11-28T11:00:07Z</time>
      </trkpt>
      <trkpt lat="42.37149" lon="2.49096">
        <ele>1048</ele>
        <time>2018-11-28T11:00:11Z</time>
      </trkpt>
      <trkpt lat="42.37157" lon="2.49087">
        <ele>1045.1</ele>
        <time>2018-11-28T11:00:15Z</time>
      </trkpt>
      <trkpt lat="42.37164" lon="2.49079">
        <ele>1046.1</ele>
        <time>2018-11-28T11:00:19Z</time>
      </trkpt>
      <trkpt lat="42.37167" lon="2.49072">
        <ele>1048.1</ele>
        <time>2018-11-28T11:00:21Z</time>
      </trkpt>
      <trkpt lat="42.37169" lon="2.49062">
        <ele>1048</ele>
        <time>2018-11-28T11:00:24Z</time>
      </trkpt>
      <trkpt lat="42.37175" lon="2.49054">
        <ele>1050</ele>
        <time>2018-11-28T11:00:28Z</time>
      </trkpt>
      <trkpt lat="42.37173" lon="2.49046">
        <ele>1051</ele>
        <time>2018-11-28T11:00:30Z</time>
      </trkpt>
      <trkpt lat="42.37178" lon="2.49033">
        <ele>1050</ele>
        <time>2018-11-28T11:00:35Z</time>
      </trkpt>
      <trkpt lat="42.37178" lon="2.4902">
        <ele>1046</ele>
        <time>2018-11-28T11:00:38Z</time>
      </trkpt>
      <trkpt lat="42.37178" lon="2.4901">
        <ele>1042.1</ele>
        <time>2018-11-28T11:00:41Z</time>
      </trkpt>
      <trkpt lat="42.37187" lon="2.49008">
        <ele>1049.1</ele>
        <time>2018-11-28T11:00:45Z</time>
      </trkpt>
      <trkpt lat="42.37194" lon="2.49011">
        <ele>1055</ele>
        <time>2018-11-28T11:00:48Z</time>
      </trkpt>
      <trkpt lat="42.37196" lon="2.49017">
        <ele>1061.1</ele>
        <time>2018-11-28T11:00:50Z</time>
      </trkpt>
      <trkpt lat="42.372" lon="2.49013">
        <ele>1065.1</ele>
        <time>2018-11-28T11:00:52Z</time>
      </trkpt>
      <trkpt lat="42.37197" lon="2.49">
        <ele>1066.1</ele>
        <time>2018-11-28T11:00:56Z</time>
      </trkpt>
      <trkpt lat="42.37196" lon="2.48988">
        <ele>1066</ele>
        <time>2018-11-28T11:00:59Z</time>
      </trkpt>
      <trkpt lat="42.37198" lon="2.48978">
        <ele>1071.1</ele>
        <time>2018-11-28T11:01:02Z</time>
      </trkpt>
      <trkpt lat="42.37197" lon="2.48965">
        <ele>1074.1</ele>
        <time>2018-11-28T11:01:06Z</time>
      </trkpt>
      <trkpt lat="42.37198" lon="2.48954">
        <ele>1074</ele>
        <time>2018-11-28T11:01:09Z</time>
      </trkpt>
      <trkpt lat="42.37203" lon="2.48944">
        <ele>1077</ele>
        <time>2018-11-28T11:01:13Z</time>
      </trkpt>
      <trkpt lat="42.37209" lon="2.48933">
        <ele>1078</ele>
        <time>2018-11-28T11:01:17Z</time>
      </trkpt>
      <trkpt lat="42.3721" lon="2.48922">
        <ele>1080</ele>
        <time>2018-11-28T11:01:21Z</time>
      </trkpt>
      <trkpt lat="42.37213" lon="2.48916">
        <ele>1083.1</ele>
        <time>2018-11-28T11:01:23Z</time>
      </trkpt>
      <trkpt lat="42.37214" lon="2.48905">
        <ele>1080.1</ele>
        <time>2018-11-28T11:01:26Z</time>
      </trkpt>
      <trkpt lat="42.37217" lon="2.48898">
        <ele>1085.1</ele>
        <time>2018-11-28T11:01:29Z</time>
      </trkpt>
      <trkpt lat="42.37221" lon="2.48885">
        <ele>1086.1</ele>
        <time>2018-11-28T11:01:32Z</time>
      </trkpt>
      <trkpt lat="42.37223" lon="2.4888">
        <ele>1085.1</ele>
        <time>2018-11-28T11:01:34Z</time>
      </trkpt>
      <trkpt lat="42.3722" lon="2.4887">
        <ele>1087</ele>
        <time>2018-11-28T11:01:38Z</time>
      </trkpt>
      <trkpt lat="42.37229" lon="2.48866">
        <ele>1090</ele>
        <time>2018-11-28T11:01:41Z</time>
      </trkpt>
      <trkpt lat="42.37234" lon="2.48868">
        <ele>1092.1</ele>
        <time>2018-11-28T11:01:43Z</time>
      </trkpt>
      <trkpt lat="42.3724" lon="2.48868">
        <ele>1092</ele>
        <time>2018-11-28T11:01:46Z</time>
      </trkpt>
      <trkpt lat="42.37247" lon="2.48875">
        <ele>1095</ele>
        <time>2018-11-28T11:01:49Z</time>
      </trkpt>
      <trkpt lat="42.37245" lon="2.48877">
        <ele>1100.1</ele>
        <time>2018-11-28T11:01:50Z</time>
      </trkpt>
      <trkpt lat="42.3725" lon="2.48879">
        <ele>1103</ele>
        <time>2018-11-28T11:01:52Z</time>
      </trkpt>
      <trkpt lat="42.37251" lon="2.48887">
        <ele>1106.1</ele>
        <time>2018-11-28T11:01:55Z</time>
      </trkpt>
      <trkpt lat="42.37257" lon="2.489">
        <ele>1102.1</ele>
        <time>2018-11-28T11:01:59Z</time>
      </trkpt>
      <trkpt lat="42.37256" lon="2.48915">
        <ele>1107</ele>
        <time>2018-11-28T11:02:04Z</time>
      </trkpt>
      <trkpt lat="42.37248" lon="2.48923">
        <ele>1110.1</ele>
        <time>2018-11-28T11:02:08Z</time>
      </trkpt>
      <trkpt lat="42.37249" lon="2.48937">
        <ele>1113</ele>
        <time>2018-11-28T11:02:12Z</time>
      </trkpt>
      <trkpt lat="42.37251" lon="2.4895">
        <ele>1119.1</ele>
        <time>2018-11-28T11:02:16Z</time>
      </trkpt>
      <trkpt lat="42.37251" lon="2.48964">
        <ele>1121.1</ele>
        <time>2018-11-28T11:02:20Z</time>
      </trkpt>
      <trkpt lat="42.37258" lon="2.48975">
        <ele>1121</ele>
        <time>2018-11-28T11:02:24Z</time>
      </trkpt>
      <trkpt lat="42.37263" lon="2.4898">
        <ele>1127</ele>
        <time>2018-11-28T11:02:27Z</time>
      </trkpt>
      <trkpt lat="42.37267" lon="2.48975">
        <ele>1126</ele>
        <time>2018-11-28T11:02:29Z</time>
      </trkpt>
      <trkpt lat="42.37274" lon="2.48986">
        <ele>1124</ele>
        <time>2018-11-28T11:02:33Z</time>
      </trkpt>
      <trkpt lat="42.37286" lon="2.4899">
        <ele>1124.1</ele>
        <time>2018-11-28T11:02:38Z</time>
      </trkpt>
      <trkpt lat="42.37294" lon="2.48995">
        <ele>1123</ele>
        <time>2018-11-28T11:02:42Z</time>
      </trkpt>
      <trkpt lat="42.37304" lon="2.49004">
        <ele>1125</ele>
        <time>2018-11-28T11:02:46Z</time>
      </trkpt>
      <trkpt lat="42.37313" lon="2.49002">
        <ele>1122.1</ele>
        <time>2018-11-28T11:02:50Z</time>
      </trkpt>
      <trkpt lat="42.37321" lon="2.48995">
        <ele>1129.1</ele>
        <time>2018-11-28T11:02:54Z</time>
      </trkpt>
      <trkpt lat="42.37328" lon="2.48993">
        <ele>1133.1</ele>
        <time>2018-11-28T11:02:57Z</time>
      </trkpt>
      <trkpt lat="42.37338" lon="2.48995">
        <ele>1133.1</ele>
        <time>2018-11-28T11:03:01Z</time>
      </trkpt>
      <trkpt lat="42.37347" lon="2.48993">
        <ele>1135.1</ele>
        <time>2018-11-28T11:03:04Z</time>
      </trkpt>
      <trkpt lat="42.37352" lon="2.49002">
        <ele>1144.1</ele>
        <time>2018-11-28T11:03:08Z</time>
      </trkpt>
      <trkpt lat="42.37363" lon="2.49008">
        <ele>1144</ele>
        <time>2018-11-28T11:03:12Z</time>
      </trkpt>
      <trkpt lat="42.37369" lon="2.49011">
        <ele>1143</ele>
        <time>2018-11-28T11:03:15Z</time>
      </trkpt>
      <trkpt lat="42.37377" lon="2.4902">
        <ele>1141</ele>
        <time>2018-11-28T11:03:19Z</time>
      </trkpt>
      <trkpt lat="42.37383" lon="2.49026">
        <ele>1138.1</ele>
        <time>2018-11-28T11:03:22Z</time>
      </trkpt>
      <trkpt lat="42.37392" lon="2.4903">
        <ele>1134</ele>
        <time>2018-11-28T11:03:26Z</time>
      </trkpt>
      <trkpt lat="42.374" lon="2.4904">
        <ele>1137.1</ele>
        <time>2018-11-28T11:03:30Z</time>
      </trkpt>
      <trkpt lat="42.37407" lon="2.49046">
        <ele>1135.1</ele>
        <time>2018-11-28T11:03:33Z</time>
      </trkpt>
      <trkpt lat="42.37416" lon="2.49051">
        <ele>1132.1</ele>
        <time>2018-11-28T11:03:37Z</time>
      </trkpt>
      <trkpt lat="42.37422" lon="2.49052">
        <ele>1136</ele>
        <time>2018-11-28T11:03:40Z</time>
      </trkpt>
      <trkpt lat="42.37427" lon="2.49051">
        <ele>1133.1</ele>
        <time>2018-11-28T11:03:42Z</time>
      </trkpt>
      <trkpt lat="42.37433" lon="2.49052">
        <ele>1137.1</ele>
        <time>2018-11-28T11:03:44Z</time>
      </trkpt>
      <trkpt lat="42.3744" lon="2.49057">
        <ele>1139</ele>
        <time>2018-11-28T11:03:47Z</time>
      </trkpt>
      <trkpt lat="42.37444" lon="2.4905">
        <ele>1138</ele>
        <time>2018-11-28T11:03:50Z</time>
      </trkpt>
      <trkpt lat="42.37452" lon="2.49048">
        <ele>1138</ele>
        <time>2018-11-28T11:03:53Z</time>
      </trkpt>
      <trkpt lat="42.37455" lon="2.49044">
        <ele>1142.1</ele>
        <time>2018-11-28T11:03:55Z</time>
      </trkpt>
      <trkpt lat="42.3746" lon="2.49041">
        <ele>1142</ele>
        <time>2018-11-28T11:03:57Z</time>
      </trkpt>
      <trkpt lat="42.37467" lon="2.49044">
        <ele>1139.1</ele>
        <time>2018-11-28T11:04:00Z</time>
      </trkpt>
      <trkpt lat="42.37465" lon="2.49038">
        <ele>1145.1</ele>
        <time>2018-11-28T11:04:02Z</time>
      </trkpt>
      <trkpt lat="42.37469" lon="2.49034">
        <ele>1146.1</ele>
        <time>2018-11-28T11:04:03Z</time>
      </trkpt>
      <trkpt lat="42.37477" lon="2.49036">
        <ele>1146.1</ele>
        <time>2018-11-28T11:04:07Z</time>
      </trkpt>
      <trkpt lat="42.37485" lon="2.49033">
        <ele>1151</ele>
        <time>2018-11-28T11:04:10Z</time>
      </trkpt>
      <trkpt lat="42.37489" lon="2.4903">
        <ele>1153.1</ele>
        <time>2018-11-28T11:04:12Z</time>
      </trkpt>
      <trkpt lat="42.37496" lon="2.49025">
        <ele>1152.1</ele>
        <time>2018-11-28T11:04:15Z</time>
      </trkpt>
      <trkpt lat="42.37504" lon="2.49023">
        <ele>1155</ele>
        <time>2018-11-28T11:04:18Z</time>
      </trkpt>
      <trkpt lat="42.37508" lon="2.49018">
        <ele>1149</ele>
        <time>2018-11-28T11:04:20Z</time>
      </trkpt>
      <trkpt lat="42.37515" lon="2.4901">
        <ele>1148</ele>
        <time>2018-11-28T11:04:24Z</time>
      </trkpt>
      <trkpt lat="42.37524" lon="2.49005">
        <ele>1159</ele>
        <time>2018-11-28T11:04:28Z</time>
      </trkpt>
      <trkpt lat="42.37534" lon="2.49006">
        <ele>1153</ele>
        <time>2018-11-28T11:04:32Z</time>
      </trkpt>
      <trkpt lat="42.37541" lon="2.48999">
        <ele>1153</ele>
        <time>2018-11-28T11:04:36Z</time>
      </trkpt>
      <trkpt lat="42.37551" lon="2.48996">
        <ele>1153</ele>
        <time>2018-11-28T11:04:40Z</time>
      </trkpt>
      <trkpt lat="42.37559" lon="2.48992">
        <ele>1158.1</ele>
        <time>2018-11-28T11:04:43Z</time>
      </trkpt>
      <trkpt lat="42.37567" lon="2.48999">
        <ele>1165</ele>
        <time>2018-11-28T11:04:47Z</time>
      </trkpt>
      <trkpt lat="42.37578" lon="2.49">
        <ele>1167</ele>
        <time>2018-11-28T11:04:51Z</time>
      </trkpt>
      <trkpt lat="42.37589" lon="2.49002">
        <ele>1165.1</ele>
        <time>2018-11-28T11:04:56Z</time>
      </trkpt>
      <trkpt lat="42.37598" lon="2.49008">
        <ele>1171.1</ele>
        <time>2018-11-28T11:05:00Z</time>
      </trkpt>
      <trkpt lat="42.37607" lon="2.49007">
        <ele>1179.1</ele>
        <time>2018-11-28T11:05:03Z</time>
      </trkpt>
      <trkpt lat="42.37617" lon="2.49012">
        <ele>1180</ele>
        <time>2018-11-28T11:05:08Z</time>
      </trkpt>
      <trkpt lat="42.37621" lon="2.49023">
        <ele>1184</ele>
        <time>2018-11-28T11:05:11Z</time>
      </trkpt>
      <trkpt lat="42.37631" lon="2.4902">
        <ele>1180.1</ele>
        <time>2018-11-28T11:05:15Z</time>
      </trkpt>
      <trkpt lat="42.3764" lon="2.49024">
        <ele>1180.1</ele>
        <time>2018-11-28T11:05:19Z</time>
      </trkpt>
      <trkpt lat="42.37649" lon="2.49027">
        <ele>1180</ele>
        <time>2018-11-28T11:05:23Z</time>
      </trkpt>
      <trkpt lat="42.37658" lon="2.49027">
        <ele>1175.1</ele>
        <time>2018-11-28T11:05:27Z</time>
      </trkpt>
      <trkpt lat="42.37669" lon="2.4903">
        <ele>1162</ele>
        <time>2018-11-28T11:05:31Z</time>
      </trkpt>
      <trkpt lat="42.37679" lon="2.49029">
        <ele>1155.1</ele>
        <time>2018-11-28T11:05:35Z</time>
      </trkpt>
      <trkpt lat="42.3769" lon="2.49029">
        <ele>1150</ele>
        <time>2018-11-28T11:05:39Z</time>
      </trkpt>
      <trkpt lat="42.37699" lon="2.49027">
        <ele>1147</ele>
        <time>2018-11-28T11:05:43Z</time>
      </trkpt>
      <trkpt lat="42.37705" lon="2.4904">
        <ele>1161.1</ele>
        <time>2018-11-28T11:05:48Z</time>
      </trkpt>
      <trkpt lat="42.37713" lon="2.49044">
        <ele>1165</ele>
        <time>2018-11-28T11:05:51Z</time>
      </trkpt>
      <trkpt lat="42.37719" lon="2.49034">
        <ele>1165</ele>
        <time>2018-11-28T11:05:55Z</time>
      </trkpt>
      <trkpt lat="42.37725" lon="2.49042">
        <ele>1161</ele>
        <time>2018-11-28T11:05:58Z</time>
      </trkpt>
      <trkpt lat="42.37736" lon="2.49041">
        <ele>1168.1</ele>
        <time>2018-11-28T11:06:03Z</time>
      </trkpt>
      <trkpt lat="42.37745" lon="2.49041">
        <ele>1172.1</ele>
        <time>2018-11-28T11:06:06Z</time>
      </trkpt>
      <trkpt lat="42.37752" lon="2.49045">
        <ele>1180</ele>
        <time>2018-11-28T11:06:09Z</time>
      </trkpt>
      <trkpt lat="42.37761" lon="2.49044">
        <ele>1180</ele>
        <time>2018-11-28T11:06:13Z</time>
      </trkpt>
      <trkpt lat="42.3777" lon="2.49032">
        <ele>1180</ele>
        <time>2018-11-28T11:06:18Z</time>
      </trkpt>
      <trkpt lat="42.37777" lon="2.49028">
        <ele>1188</ele>
        <time>2018-11-28T11:06:21Z</time>
      </trkpt>
      <trkpt lat="42.37786" lon="2.49027">
        <ele>1191</ele>
        <time>2018-11-28T11:06:24Z</time>
      </trkpt>
      <trkpt lat="42.37794" lon="2.49029">
        <ele>1188.1</ele>
        <time>2018-11-28T11:06:28Z</time>
      </trkpt>
      <trkpt lat="42.37803" lon="2.49029">
        <ele>1191.1</ele>
        <time>2018-11-28T11:06:31Z</time>
      </trkpt>
      <trkpt lat="42.37808" lon="2.49029">
        <ele>1202.1</ele>
        <time>2018-11-28T11:06:34Z</time>
      </trkpt>
      <trkpt lat="42.37815" lon="2.49024">
        <ele>1200</ele>
        <time>2018-11-28T11:06:37Z</time>
      </trkpt>
      <trkpt lat="42.37821" lon="2.49017">
        <ele>1202</ele>
        <time>2018-11-28T11:06:40Z</time>
      </trkpt>
      <trkpt lat="42.37831" lon="2.49022">
        <ele>1209.1</ele>
        <time>2018-11-28T11:06:44Z</time>
      </trkpt>
      <trkpt lat="42.37842" lon="2.49024">
        <ele>1206</ele>
        <time>2018-11-28T11:06:49Z</time>
      </trkpt>
      <trkpt lat="42.37852" lon="2.49027">
        <ele>1200</ele>
        <time>2018-11-28T11:06:52Z</time>
      </trkpt>
      <trkpt lat="42.37857" lon="2.49021">
        <ele>1193</ele>
        <time>2018-11-28T11:06:55Z</time>
      </trkpt>
      <trkpt lat="42.37852" lon="2.49026">
        <ele>1204.1</ele>
        <time>2018-11-28T11:06:58Z</time>
      </trkpt>
      <trkpt lat="42.37848" lon="2.49037">
        <ele>1208.1</ele>
        <time>2018-11-28T11:07:01Z</time>
      </trkpt>
      <trkpt lat="42.37845" lon="2.4905">
        <ele>1210.1</ele>
        <time>2018-11-28T11:07:05Z</time>
      </trkpt>
      <trkpt lat="42.37845" lon="2.4906">
        <ele>1201.1</ele>
        <time>2018-11-28T11:07:08Z</time>
      </trkpt>
      <trkpt lat="42.37846" lon="2.49074">
        <ele>1196.1</ele>
        <time>2018-11-28T11:07:13Z</time>
      </trkpt>
      <trkpt lat="42.3785" lon="2.49086">
        <ele>1198</ele>
        <time>2018-11-28T11:07:16Z</time>
      </trkpt>
      <trkpt lat="42.37851" lon="2.491">
        <ele>1194</ele>
        <time>2018-11-28T11:07:21Z</time>
      </trkpt>
      <trkpt lat="42.37846" lon="2.491">
        <ele>1193</ele>
        <time>2018-11-28T11:07:23Z</time>
      </trkpt>
      <trkpt lat="42.37854" lon="2.49108">
        <ele>1185.1</ele>
        <time>2018-11-28T11:07:27Z</time>
      </trkpt>
      <trkpt lat="42.37861" lon="2.49113">
        <ele>1195.1</ele>
        <time>2018-11-28T11:07:30Z</time>
      </trkpt>
      <trkpt lat="42.37868" lon="2.49125">
        <ele>1186.1</ele>
        <time>2018-11-28T11:07:34Z</time>
      </trkpt>
      <trkpt lat="42.37875" lon="2.49136">
        <ele>1187</ele>
        <time>2018-11-28T11:07:39Z</time>
      </trkpt>
      <trkpt lat="42.37872" lon="2.49148">
        <ele>1186.1</ele>
        <time>2018-11-28T11:07:42Z</time>
      </trkpt>
      <trkpt lat="42.37871" lon="2.49159">
        <ele>1185.1</ele>
        <time>2018-11-28T11:07:46Z</time>
      </trkpt>
      <trkpt lat="42.3787" lon="2.49168">
        <ele>1182</ele>
        <time>2018-11-28T11:07:48Z</time>
      </trkpt>
      <trkpt lat="42.37866" lon="2.4918">
        <ele>1184.1</ele>
        <time>2018-11-28T11:07:52Z</time>
      </trkpt>
      <trkpt lat="42.37873" lon="2.49191">
        <ele>1188</ele>
        <time>2018-11-28T11:07:56Z</time>
      </trkpt>
      <trkpt lat="42.37867" lon="2.49202">
        <ele>1194.1</ele>
        <time>2018-11-28T11:08:00Z</time>
      </trkpt>
      <trkpt lat="42.37865" lon="2.49208">
        <ele>1197</ele>
        <time>2018-11-28T11:08:02Z</time>
      </trkpt>
      <trkpt lat="42.3786" lon="2.49217">
        <ele>1197</ele>
        <time>2018-11-28T11:08:06Z</time>
      </trkpt>
      <trkpt lat="42.37855" lon="2.49227">
        <ele>1205.1</ele>
        <time>2018-11-28T11:08:09Z</time>
      </trkpt>
      <trkpt lat="42.37846" lon="2.49232">
        <ele>1206</ele>
        <time>2018-11-28T11:08:13Z</time>
      </trkpt>
      <trkpt lat="42.37839" lon="2.4924">
        <ele>1206.1</ele>
        <time>2018-11-28T11:08:17Z</time>
      </trkpt>
      <trkpt lat="42.37829" lon="2.49246">
        <ele>1205.1</ele>
        <time>2018-11-28T11:08:21Z</time>
      </trkpt>
      <trkpt lat="42.37819" lon="2.49248">
        <ele>1205.1</ele>
        <time>2018-11-28T11:08:25Z</time>
      </trkpt>
      <trkpt lat="42.37808" lon="2.49258">
        <ele>1208</ele>
        <time>2018-11-28T11:08:30Z</time>
      </trkpt>
      <trkpt lat="42.37801" lon="2.49267">
        <ele>1209</ele>
        <time>2018-11-28T11:08:34Z</time>
      </trkpt>
      <trkpt lat="42.37795" lon="2.49278">
        <ele>1213</ele>
        <time>2018-11-28T11:08:38Z</time>
      </trkpt>
      <trkpt lat="42.37789" lon="2.49287">
        <ele>1209</ele>
        <time>2018-11-28T11:08:42Z</time>
      </trkpt>
      <trkpt lat="42.37785" lon="2.49299">
        <ele>1210</ele>
        <time>2018-11-28T11:08:46Z</time>
      </trkpt>
      <trkpt lat="42.37782" lon="2.49311">
        <ele>1212</ele>
        <time>2018-11-28T11:08:50Z</time>
      </trkpt>
      <trkpt lat="42.3778" lon="2.49325">
        <ele>1209</ele>
        <time>2018-11-28T11:08:54Z</time>
      </trkpt>
      <trkpt lat="42.37783" lon="2.49337">
        <ele>1208.1</ele>
        <time>2018-11-28T11:08:58Z</time>
      </trkpt>
      <trkpt lat="42.37783" lon="2.4935">
        <ele>1201</ele>
        <time>2018-11-28T11:09:01Z</time>
      </trkpt>
      <trkpt lat="42.3779" lon="2.49358">
        <ele>1205</ele>
        <time>2018-11-28T11:09:05Z</time>
      </trkpt>
      <trkpt lat="42.37797" lon="2.49367">
        <ele>1208.1</ele>
        <time>2018-11-28T11:09:09Z</time>
      </trkpt>
      <trkpt lat="42.37804" lon="2.49379">
        <ele>1209</ele>
        <time>2018-11-28T11:09:14Z</time>
      </trkpt>
      <trkpt lat="42.3781" lon="2.4939">
        <ele>1210.1</ele>
        <time>2018-11-28T11:09:18Z</time>
      </trkpt>
      <trkpt lat="42.37817" lon="2.49397">
        <ele>1211</ele>
        <time>2018-11-28T11:09:21Z</time>
      </trkpt>
      <trkpt lat="42.37825" lon="2.49405">
        <ele>1213</ele>
        <time>2018-11-28T11:09:25Z</time>
      </trkpt>
      <trkpt lat="42.37828" lon="2.49415">
        <ele>1215</ele>
        <time>2018-11-28T11:09:28Z</time>
      </trkpt>
      <trkpt lat="42.37835" lon="2.49423">
        <ele>1218.1</ele>
        <time>2018-11-28T11:09:32Z</time>
      </trkpt>
      <trkpt lat="42.3784" lon="2.49433">
        <ele>1217</ele>
        <time>2018-11-28T11:09:35Z</time>
      </trkpt>
      <trkpt lat="42.37847" lon="2.49441">
        <ele>1220</ele>
        <time>2018-11-28T11:09:39Z</time>
      </trkpt>
      <trkpt lat="42.37853" lon="2.4945">
        <ele>1222.1</ele>
        <time>2018-11-28T11:09:43Z</time>
      </trkpt>
      <trkpt lat="42.37861" lon="2.4946">
        <ele>1229.1</ele>
        <time>2018-11-28T11:09:47Z</time>
      </trkpt>
      <trkpt lat="42.37869" lon="2.49466">
        <ele>1228.1</ele>
        <time>2018-11-28T11:09:51Z</time>
      </trkpt>
      <trkpt lat="42.37876" lon="2.49476">
        <ele>1232</ele>
        <time>2018-11-28T11:09:55Z</time>
      </trkpt>
      <trkpt lat="42.37884" lon="2.49483">
        <ele>1231.1</ele>
        <time>2018-11-28T11:09:58Z</time>
      </trkpt>
      <trkpt lat="42.3789" lon="2.49491">
        <ele>1233.1</ele>
        <time>2018-11-28T11:10:02Z</time>
      </trkpt>
      <trkpt lat="42.37896" lon="2.49501">
        <ele>1232</ele>
        <time>2018-11-28T11:10:06Z</time>
      </trkpt>
      <trkpt lat="42.37905" lon="2.49509">
        <ele>1233.1</ele>
        <time>2018-11-28T11:10:10Z</time>
      </trkpt>
      <trkpt lat="42.37913" lon="2.49516">
        <ele>1235</ele>
        <time>2018-11-28T11:10:14Z</time>
      </trkpt>
      <trkpt lat="42.37921" lon="2.49521">
        <ele>1237.1</ele>
        <time>2018-11-28T11:10:18Z</time>
      </trkpt>
      <trkpt lat="42.3793" lon="2.49528">
        <ele>1236</ele>
        <time>2018-11-28T11:10:21Z</time>
      </trkpt>
      <trkpt lat="42.37935" lon="2.4954">
        <ele>1238</ele>
        <time>2018-11-28T11:10:25Z</time>
      </trkpt>
      <trkpt lat="42.37938" lon="2.49551">
        <ele>1236.1</ele>
        <time>2018-11-28T11:10:29Z</time>
      </trkpt>
      <trkpt lat="42.37945" lon="2.4956">
        <ele>1238.1</ele>
        <time>2018-11-28T11:10:33Z</time>
      </trkpt>
      <trkpt lat="42.37951" lon="2.49571">
        <ele>1241.1</ele>
        <time>2018-11-28T11:10:37Z</time>
      </trkpt>
      <trkpt lat="42.37957" lon="2.49582">
        <ele>1239.1</ele>
        <time>2018-11-28T11:10:41Z</time>
      </trkpt>
      <trkpt lat="42.37961" lon="2.49594">
        <ele>1239.1</ele>
        <time>2018-11-28T11:10:45Z</time>
      </trkpt>
      <trkpt lat="42.37963" lon="2.49607">
        <ele>1240.1</ele>
        <time>2018-11-28T11:10:49Z</time>
      </trkpt>
      <trkpt lat="42.37966" lon="2.49619">
        <ele>1239</ele>
        <time>2018-11-28T11:10:53Z</time>
      </trkpt>
      <trkpt lat="42.37969" lon="2.49631">
        <ele>1239</ele>
        <time>2018-11-28T11:10:56Z</time>
      </trkpt>
      <trkpt lat="42.37975" lon="2.49641">
        <ele>1241.1</ele>
        <time>2018-11-28T11:11:00Z</time>
      </trkpt>
      <trkpt lat="42.37983" lon="2.49649">
        <ele>1243</ele>
        <time>2018-11-28T11:11:04Z</time>
      </trkpt>
      <trkpt lat="42.37991" lon="2.49658">
        <ele>1244</ele>
        <time>2018-11-28T11:11:08Z</time>
      </trkpt>
      <trkpt lat="42.37997" lon="2.49666">
        <ele>1245</ele>
        <time>2018-11-28T11:11:12Z</time>
      </trkpt>
      <trkpt lat="42.38003" lon="2.4967">
        <ele>1246.1</ele>
        <time>2018-11-28T11:11:14Z</time>
      </trkpt>
      <trkpt lat="42.38008" lon="2.4967">
        <ele>1247.1</ele>
        <time>2018-11-28T11:11:16Z</time>
      </trkpt>
      <trkpt lat="42.38013" lon="2.49671">
        <ele>1247</ele>
        <time>2018-11-28T11:11:18Z</time>
      </trkpt>
      <trkpt lat="42.38018" lon="2.49673">
        <ele>1248.1</ele>
        <time>2018-11-28T11:11:20Z</time>
      </trkpt>
      <trkpt lat="42.38028" lon="2.49678">
        <ele>1248</ele>
        <time>2018-11-28T11:11:24Z</time>
      </trkpt>
      <trkpt lat="42.38035" lon="2.49686">
        <ele>1247.1</ele>
        <time>2018-11-28T11:11:28Z</time>
      </trkpt>
      <trkpt lat="42.38042" lon="2.49694">
        <ele>1246.1</ele>
        <time>2018-11-28T11:11:32Z</time>
      </trkpt>
      <trkpt lat="42.38049" lon="2.49699">
        <ele>1245.1</ele>
        <time>2018-11-28T11:11:35Z</time>
      </trkpt>
      <trkpt lat="42.38042" lon="2.49696">
        <ele>1245.1</ele>
        <time>2018-11-28T11:11:38Z</time>
      </trkpt>
      <trkpt lat="42.38032" lon="2.49692">
        <ele>1245.1</ele>
        <time>2018-11-28T11:11:42Z</time>
      </trkpt>
      <trkpt lat="42.38025" lon="2.49683">
        <ele>1244</ele>
        <time>2018-11-28T11:11:46Z</time>
      </trkpt>
      <trkpt lat="42.3802" lon="2.49678">
        <ele>1245</ele>
        <time>2018-11-28T11:11:49Z</time>
      </trkpt>
      <trkpt lat="42.38019" lon="2.49679">
        <ele>1245</ele>
        <time>2018-11-28T11:11:49Z</time>
      </trkpt>
      <trkpt lat="42.38019" lon="2.49679">
        <ele>1245.1</ele>
        <time>2018-11-28T11:11:49Z</time>
      </trkpt>
      <trkpt lat="42.38022" lon="2.49679">
        <ele>1248.1</ele>
        <time>2018-11-28T11:11:50Z</time>
      </trkpt>
      <trkpt lat="42.38021" lon="2.49681">
        <ele>1248.1</ele>
        <time>2018-11-28T11:11:50Z</time>
      </trkpt>
      <trkpt lat="42.3802" lon="2.49674">
        <ele>1246.1</ele>
        <time>2018-11-28T11:11:52Z</time>
      </trkpt>
      <trkpt lat="42.38018" lon="2.49662">
        <ele>1247.1</ele>
        <time>2018-11-28T11:11:56Z</time>
      </trkpt>
      <trkpt lat="42.38019" lon="2.49662">
        <ele>1246.1</ele>
        <time>2018-11-28T11:11:57Z</time>
      </trkpt>
      <trkpt lat="42.38019" lon="2.49662">
        <ele>1246</ele>
        <time>2018-11-28T11:11:57Z</time>
      </trkpt>
      <trkpt lat="42.38019" lon="2.49655">
        <ele>1245.1</ele>
        <time>2018-11-28T11:11:58Z</time>
      </trkpt>
      <trkpt lat="42.38023" lon="2.49643">
        <ele>1244.1</ele>
        <time>2018-11-28T11:12:02Z</time>
      </trkpt>
      <trkpt lat="42.38025" lon="2.49634">
        <ele>1242</ele>
        <time>2018-11-28T11:12:05Z</time>
      </trkpt>
      <trkpt lat="42.3803" lon="2.49625">
        <ele>1243</ele>
        <time>2018-11-28T11:12:08Z</time>
      </trkpt>
      <trkpt lat="42.38035" lon="2.49614">
        <ele>1242</ele>
        <time>2018-11-28T11:12:12Z</time>
      </trkpt>
      <trkpt lat="42.3804" lon="2.49604">
        <ele>1244.1</ele>
        <time>2018-11-28T11:12:16Z</time>
      </trkpt>
      <trkpt lat="42.38048" lon="2.49596">
        <ele>1247</ele>
        <time>2018-11-28T11:12:20Z</time>
      </trkpt>
      <trkpt lat="42.38055" lon="2.4959">
        <ele>1246</ele>
        <time>2018-11-28T11:12:23Z</time>
      </trkpt>
      <trkpt lat="42.38062" lon="2.49582">
        <ele>1245.1</ele>
        <time>2018-11-28T11:12:27Z</time>
      </trkpt>
      <trkpt lat="42.38073" lon="2.49577">
        <ele>1251</ele>
        <time>2018-11-28T11:12:31Z</time>
      </trkpt>
      <trkpt lat="42.38079" lon="2.49568">
        <ele>1256</ele>
        <time>2018-11-28T11:12:35Z</time>
      </trkpt>
      <trkpt lat="42.38086" lon="2.49558">
        <ele>1254.1</ele>
        <time>2018-11-28T11:12:39Z</time>
      </trkpt>
      <trkpt lat="42.38088" lon="2.49546">
        <ele>1249.1</ele>
        <time>2018-11-28T11:12:43Z</time>
      </trkpt>
      <trkpt lat="42.38085" lon="2.49533">
        <ele>1249.1</ele>
        <time>2018-11-28T11:12:46Z</time>
      </trkpt>
      <trkpt lat="42.38086" lon="2.4952">
        <ele>1246</ele>
        <time>2018-11-28T11:12:50Z</time>
      </trkpt>
      <trkpt lat="42.38085" lon="2.49508">
        <ele>1245</ele>
        <time>2018-11-28T11:12:54Z</time>
      </trkpt>
      <trkpt lat="42.38082" lon="2.49503">
        <ele>1244.1</ele>
        <time>2018-11-28T11:12:56Z</time>
      </trkpt>
      <trkpt lat="42.38087" lon="2.49494">
        <ele>1244</ele>
        <time>2018-11-28T11:12:59Z</time>
      </trkpt>
      <trkpt lat="42.38087" lon="2.49484">
        <ele>1242</ele>
        <time>2018-11-28T11:13:02Z</time>
      </trkpt>
      <trkpt lat="42.38086" lon="2.49471">
        <ele>1244</ele>
        <time>2018-11-28T11:13:06Z</time>
      </trkpt>
      <trkpt lat="42.38085" lon="2.49454">
        <ele>1246</ele>
        <time>2018-11-28T11:13:11Z</time>
      </trkpt>
      <trkpt lat="42.38085" lon="2.4944">
        <ele>1244.1</ele>
        <time>2018-11-28T11:13:15Z</time>
      </trkpt>
      <trkpt lat="42.38082" lon="2.49428">
        <ele>1245.1</ele>
        <time>2018-11-28T11:13:19Z</time>
      </trkpt>
      <trkpt lat="42.3809" lon="2.49434">
        <ele>1240.1</ele>
        <time>2018-11-28T11:13:23Z</time>
      </trkpt>
      <trkpt lat="42.38096" lon="2.49444">
        <ele>1240.1</ele>
        <time>2018-11-28T11:13:26Z</time>
      </trkpt>
      <trkpt lat="42.38103" lon="2.49452">
        <ele>1239.1</ele>
        <time>2018-11-28T11:13:30Z</time>
      </trkpt>
      <trkpt lat="42.38112" lon="2.49455">
        <ele>1237</ele>
        <time>2018-11-28T11:13:34Z</time>
      </trkpt>
      <trkpt lat="42.3812" lon="2.49459">
        <ele>1234</ele>
        <time>2018-11-28T11:13:37Z</time>
      </trkpt>
      <trkpt lat="42.38125" lon="2.49462">
        <ele>1233</ele>
        <time>2018-11-28T11:13:39Z</time>
      </trkpt>
      <trkpt lat="42.38134" lon="2.49466">
        <ele>1228</ele>
        <time>2018-11-28T11:13:43Z</time>
      </trkpt>
      <trkpt lat="42.38142" lon="2.49474">
        <ele>1227.1</ele>
        <time>2018-11-28T11:13:47Z</time>
      </trkpt>
      <trkpt lat="42.38153" lon="2.49476">
        <ele>1228.1</ele>
        <time>2018-11-28T11:13:52Z</time>
      </trkpt>
      <trkpt lat="42.38161" lon="2.49483">
        <ele>1229</ele>
        <time>2018-11-28T11:13:55Z</time>
      </trkpt>
      <trkpt lat="42.38167" lon="2.49494">
        <ele>1230</ele>
        <time>2018-11-28T11:13:59Z</time>
      </trkpt>
      <trkpt lat="42.38173" lon="2.49497">
        <ele>1227.1</ele>
        <time>2018-11-28T11:14:02Z</time>
      </trkpt>
      <trkpt lat="42.38182" lon="2.49505">
        <ele>1221.1</ele>
        <time>2018-11-28T11:14:06Z</time>
      </trkpt>
      <trkpt lat="42.38185" lon="2.49518">
        <ele>1218.1</ele>
        <time>2018-11-28T11:14:10Z</time>
      </trkpt>
      <trkpt lat="42.38195" lon="2.49523">
        <ele>1216.1</ele>
        <time>2018-11-28T11:14:14Z</time>
      </trkpt>
      <trkpt lat="42.38203" lon="2.4953">
        <ele>1216</ele>
        <time>2018-11-28T11:14:18Z</time>
      </trkpt>
      <trkpt lat="42.38212" lon="2.49536">
        <ele>1215</ele>
        <time>2018-11-28T11:14:22Z</time>
      </trkpt>
      <trkpt lat="42.38221" lon="2.49543">
        <ele>1217</ele>
        <time>2018-11-28T11:14:26Z</time>
      </trkpt>
      <trkpt lat="42.38227" lon="2.49551">
        <ele>1217.1</ele>
        <time>2018-11-28T11:14:30Z</time>
      </trkpt>
      <trkpt lat="42.38234" lon="2.49561">
        <ele>1214.1</ele>
        <time>2018-11-28T11:14:34Z</time>
      </trkpt>
      <trkpt lat="42.38244" lon="2.4956">
        <ele>1211.1</ele>
        <time>2018-11-28T11:14:38Z</time>
      </trkpt>
      <trkpt lat="42.38254" lon="2.49561">
        <ele>1208.1</ele>
        <time>2018-11-28T11:14:42Z</time>
      </trkpt>
      <trkpt lat="42.38258" lon="2.49572">
        <ele>1209</ele>
        <time>2018-11-28T11:14:46Z</time>
      </trkpt>
      <trkpt lat="42.38267" lon="2.49579">
        <ele>1209</ele>
        <time>2018-11-28T11:14:50Z</time>
      </trkpt>
      <trkpt lat="42.38276" lon="2.49584">
        <ele>1210.1</ele>
        <time>2018-11-28T11:14:54Z</time>
      </trkpt>
      <trkpt lat="42.38286" lon="2.49584">
        <ele>1209.1</ele>
        <time>2018-11-28T11:14:58Z</time>
      </trkpt>
      <trkpt lat="42.38296" lon="2.49585">
        <ele>1204.1</ele>
        <time>2018-11-28T11:15:02Z</time>
      </trkpt>
      <trkpt lat="42.38305" lon="2.49585">
        <ele>1201</ele>
        <time>2018-11-28T11:15:05Z</time>
      </trkpt>
      <trkpt lat="42.38315" lon="2.49584">
        <ele>1196</ele>
        <time>2018-11-28T11:15:09Z</time>
      </trkpt>
      <trkpt lat="42.38325" lon="2.49581">
        <ele>1197.1</ele>
        <time>2018-11-28T11:15:13Z</time>
      </trkpt>
      <trkpt lat="42.38336" lon="2.49581">
        <ele>1201</ele>
        <time>2018-11-28T11:15:18Z</time>
      </trkpt>
      <trkpt lat="42.38345" lon="2.49573">
        <ele>1202.1</ele>
        <time>2018-11-28T11:15:22Z</time>
      </trkpt>
      <trkpt lat="42.38352" lon="2.49565">
        <ele>1201.1</ele>
        <time>2018-11-28T11:15:26Z</time>
      </trkpt>
      <trkpt lat="42.38359" lon="2.49555">
        <ele>1203</ele>
        <time>2018-11-28T11:15:30Z</time>
      </trkpt>
      <trkpt lat="42.38366" lon="2.49548">
        <ele>1201</ele>
        <time>2018-11-28T11:15:33Z</time>
      </trkpt>
      <trkpt lat="42.3837" lon="2.49536">
        <ele>1202</ele>
        <time>2018-11-28T11:15:37Z</time>
      </trkpt>
      <trkpt lat="42.38378" lon="2.49526">
        <ele>1204.1</ele>
        <time>2018-11-28T11:15:42Z</time>
      </trkpt>
      <trkpt lat="42.38386" lon="2.49513">
        <ele>1207.1</ele>
        <time>2018-11-28T11:15:46Z</time>
      </trkpt>
      <trkpt lat="42.38386" lon="2.49503">
        <ele>1204</ele>
        <time>2018-11-28T11:15:49Z</time>
      </trkpt>
      <trkpt lat="42.38392" lon="2.49504">
        <ele>1201</ele>
        <time>2018-11-28T11:15:52Z</time>
      </trkpt>
      <trkpt lat="42.38402" lon="2.49504">
        <ele>1200</ele>
        <time>2018-11-28T11:15:56Z</time>
      </trkpt>
      <trkpt lat="42.3841" lon="2.49504">
        <ele>1196</ele>
        <time>2018-11-28T11:15:59Z</time>
      </trkpt>
      <trkpt lat="42.38417" lon="2.49505">
        <ele>1193.1</ele>
        <time>2018-11-28T11:16:02Z</time>
      </trkpt>
      <trkpt lat="42.38428" lon="2.49507">
        <ele>1192.1</ele>
        <time>2018-11-28T11:16:06Z</time>
      </trkpt>
      <trkpt lat="42.38437" lon="2.4951">
        <ele>1192.1</ele>
        <time>2018-11-28T11:16:10Z</time>
      </trkpt>
      <trkpt lat="42.38445" lon="2.49513">
        <ele>1192</ele>
        <time>2018-11-28T11:16:13Z</time>
      </trkpt>
      <trkpt lat="42.38454" lon="2.49511">
        <ele>1193.1</ele>
        <time>2018-11-28T11:16:17Z</time>
      </trkpt>
      <trkpt lat="42.38465" lon="2.49512">
        <ele>1192</ele>
        <time>2018-11-28T11:16:21Z</time>
      </trkpt>
      <trkpt lat="42.38468" lon="2.49519">
        <ele>1192</ele>
        <time>2018-11-28T11:16:24Z</time>
      </trkpt>
      <trkpt lat="42.38475" lon="2.49529">
        <ele>1189</ele>
        <time>2018-11-28T11:16:28Z</time>
      </trkpt>
      <trkpt lat="42.38483" lon="2.49535">
        <ele>1185.1</ele>
        <time>2018-11-28T11:16:31Z</time>
      </trkpt>
      <trkpt lat="42.38486" lon="2.49547">
        <ele>1184</ele>
        <time>2018-11-28T11:16:35Z</time>
      </trkpt>
      <trkpt lat="42.38494" lon="2.49554">
        <ele>1185</ele>
        <time>2018-11-28T11:16:39Z</time>
      </trkpt>
      <trkpt lat="42.38503" lon="2.49559">
        <ele>1186</ele>
        <time>2018-11-28T11:16:43Z</time>
      </trkpt>
      <trkpt lat="42.38512" lon="2.4956">
        <ele>1187.1</ele>
        <time>2018-11-28T11:16:46Z</time>
      </trkpt>
      <trkpt lat="42.38522" lon="2.49559">
        <ele>1193.1</ele>
        <time>2018-11-28T11:16:51Z</time>
      </trkpt>
      <trkpt lat="42.38529" lon="2.49557">
        <ele>1189.1</ele>
        <time>2018-11-28T11:16:54Z</time>
      </trkpt>
      <trkpt lat="42.38538" lon="2.49552">
        <ele>1189</ele>
        <time>2018-11-28T11:16:57Z</time>
      </trkpt>
      <trkpt lat="42.38548" lon="2.4955">
        <ele>1187</ele>
        <time>2018-11-28T11:17:01Z</time>
      </trkpt>
      <trkpt lat="42.38558" lon="2.4955">
        <ele>1186.1</ele>
        <time>2018-11-28T11:17:05Z</time>
      </trkpt>
      <trkpt lat="42.38566" lon="2.49543">
        <ele>1184.1</ele>
        <time>2018-11-28T11:17:09Z</time>
      </trkpt>
      <trkpt lat="42.38575" lon="2.49539">
        <ele>1182</ele>
        <time>2018-11-28T11:17:13Z</time>
      </trkpt>
      <trkpt lat="42.38582" lon="2.49535">
        <ele>1178.1</ele>
        <time>2018-11-28T11:17:16Z</time>
      </trkpt>
      <trkpt lat="42.38592" lon="2.49531">
        <ele>1184</ele>
        <time>2018-11-28T11:17:20Z</time>
      </trkpt>
      <trkpt lat="42.38602" lon="2.49528">
        <ele>1183</ele>
        <time>2018-11-28T11:17:24Z</time>
      </trkpt>
      <trkpt lat="42.3861" lon="2.49523">
        <ele>1181.1</ele>
        <time>2018-11-28T11:17:28Z</time>
      </trkpt>
      <trkpt lat="42.3862" lon="2.49527">
        <ele>1180.1</ele>
        <time>2018-11-28T11:17:32Z</time>
      </trkpt>
      <trkpt lat="42.38625" lon="2.49526">
        <ele>1178.1</ele>
        <time>2018-11-28T11:17:34Z</time>
      </trkpt>
      <trkpt lat="42.38635" lon="2.49522">
        <ele>1176</ele>
        <time>2018-11-28T11:17:38Z</time>
      </trkpt>
      <trkpt lat="42.38644" lon="2.49517">
        <ele>1179.1</ele>
        <time>2018-11-28T11:17:42Z</time>
      </trkpt>
      <trkpt lat="42.38653" lon="2.49513">
        <ele>1174.1</ele>
        <time>2018-11-28T11:17:46Z</time>
      </trkpt>
      <trkpt lat="42.38662" lon="2.49508">
        <ele>1176</ele>
        <time>2018-11-28T11:17:50Z</time>
      </trkpt>
      <trkpt lat="42.38669" lon="2.49506">
        <ele>1171</ele>
        <time>2018-11-28T11:17:52Z</time>
      </trkpt>
      <trkpt lat="42.38676" lon="2.49491">
        <ele>1167.1</ele>
        <time>2018-11-28T11:17:57Z</time>
      </trkpt>
      <trkpt lat="42.38684" lon="2.49479">
        <ele>1168</ele>
        <time>2018-11-28T11:18:03Z</time>
      </trkpt>
      <trkpt lat="42.38692" lon="2.49472">
        <ele>1168</ele>
        <time>2018-11-28T11:18:06Z</time>
      </trkpt>
      <trkpt lat="42.38698" lon="2.49462">
        <ele>1165</ele>
        <time>2018-11-28T11:18:10Z</time>
      </trkpt>
      <trkpt lat="42.38703" lon="2.49452">
        <ele>1165.1</ele>
        <time>2018-11-28T11:18:14Z</time>
      </trkpt>
      <trkpt lat="42.38708" lon="2.4944">
        <ele>1168</ele>
        <time>2018-11-28T11:18:18Z</time>
      </trkpt>
      <trkpt lat="42.38715" lon="2.49432">
        <ele>1165</ele>
        <time>2018-11-28T11:18:21Z</time>
      </trkpt>
      <trkpt lat="42.38718" lon="2.49418">
        <ele>1164.1</ele>
        <time>2018-11-28T11:18:26Z</time>
      </trkpt>
      <trkpt lat="42.38717" lon="2.49405">
        <ele>1166</ele>
        <time>2018-11-28T11:18:29Z</time>
      </trkpt>
      <trkpt lat="42.38716" lon="2.49392">
        <ele>1167</ele>
        <time>2018-11-28T11:18:33Z</time>
      </trkpt>
      <trkpt lat="42.38721" lon="2.49381">
        <ele>1167</ele>
        <time>2018-11-28T11:18:37Z</time>
      </trkpt>
      <trkpt lat="42.38719" lon="2.49368">
        <ele>1171.1</ele>
        <time>2018-11-28T11:18:41Z</time>
      </trkpt>
      <trkpt lat="42.38721" lon="2.49362">
        <ele>1173</ele>
        <time>2018-11-28T11:18:43Z</time>
      </trkpt>
      <trkpt lat="42.38726" lon="2.4936">
        <ele>1171</ele>
        <time>2018-11-28T11:18:45Z</time>
      </trkpt>
      <trkpt lat="42.38736" lon="2.49355">
        <ele>1170</ele>
        <time>2018-11-28T11:18:49Z</time>
      </trkpt>
      <trkpt lat="42.38745" lon="2.49356">
        <ele>1162</ele>
        <time>2018-11-28T11:18:53Z</time>
      </trkpt>
      <trkpt lat="42.38751" lon="2.49354">
        <ele>1166</ele>
        <time>2018-11-28T11:18:55Z</time>
      </trkpt>
      <trkpt lat="42.3876" lon="2.49344">
        <ele>1166.1</ele>
        <time>2018-11-28T11:19:00Z</time>
      </trkpt>
      <trkpt lat="42.38769" lon="2.49336">
        <ele>1166</ele>
        <time>2018-11-28T11:19:04Z</time>
      </trkpt>
      <trkpt lat="42.38776" lon="2.49327">
        <ele>1164.1</ele>
        <time>2018-11-28T11:19:08Z</time>
      </trkpt>
      <trkpt lat="42.38776" lon="2.49313">
        <ele>1168.1</ele>
        <time>2018-11-28T11:19:12Z</time>
      </trkpt>
      <trkpt lat="42.38787" lon="2.49315">
        <ele>1167.1</ele>
        <time>2018-11-28T11:19:17Z</time>
      </trkpt>
      <trkpt lat="42.38791" lon="2.49303">
        <ele>1171</ele>
        <time>2018-11-28T11:19:20Z</time>
      </trkpt>
      <trkpt lat="42.3879" lon="2.49293">
        <ele>1171.1</ele>
        <time>2018-11-28T11:19:24Z</time>
      </trkpt>
      <trkpt lat="42.388" lon="2.49284">
        <ele>1172.1</ele>
        <time>2018-11-28T11:19:29Z</time>
      </trkpt>
      <trkpt lat="42.38799" lon="2.49272">
        <ele>1169</ele>
        <time>2018-11-28T11:19:32Z</time>
      </trkpt>
      <trkpt lat="42.3881" lon="2.49264">
        <ele>1170</ele>
        <time>2018-11-28T11:19:37Z</time>
      </trkpt>
      <trkpt lat="42.38812" lon="2.4925">
        <ele>1167</ele>
        <time>2018-11-28T11:19:41Z</time>
      </trkpt>
      <trkpt lat="42.38813" lon="2.49239">
        <ele>1164</ele>
        <time>2018-11-28T11:19:45Z</time>
      </trkpt>
      <trkpt lat="42.38823" lon="2.49233">
        <ele>1165</ele>
        <time>2018-11-28T11:19:49Z</time>
      </trkpt>
      <trkpt lat="42.38831" lon="2.49224">
        <ele>1167.1</ele>
        <time>2018-11-28T11:19:53Z</time>
      </trkpt>
      <trkpt lat="42.38842" lon="2.4922">
        <ele>1167</ele>
        <time>2018-11-28T11:19:58Z</time>
      </trkpt>
      <trkpt lat="42.3885" lon="2.49219">
        <ele>1162.1</ele>
        <time>2018-11-28T11:20:01Z</time>
      </trkpt>
      <trkpt lat="42.3886" lon="2.49218">
        <ele>1158</ele>
        <time>2018-11-28T11:20:05Z</time>
      </trkpt>
      <trkpt lat="42.3887" lon="2.49219">
        <ele>1159.1</ele>
        <time>2018-11-28T11:20:09Z</time>
      </trkpt>
      <trkpt lat="42.38885" lon="2.49211">
        <ele>1162.1</ele>
        <time>2018-11-28T11:20:15Z</time>
      </trkpt>
      <trkpt lat="42.38897" lon="2.49201">
        <ele>1165.1</ele>
        <time>2018-11-28T11:20:21Z</time>
      </trkpt>
      <trkpt lat="42.38904" lon="2.49193">
        <ele>1166</ele>
        <time>2018-11-28T11:20:25Z</time>
      </trkpt>
      <trkpt lat="42.38916" lon="2.4919">
        <ele>1171</ele>
        <time>2018-11-28T11:20:30Z</time>
      </trkpt>
      <trkpt lat="42.38923" lon="2.49182">
        <ele>1172</ele>
        <time>2018-11-28T11:20:33Z</time>
      </trkpt>
      <trkpt lat="42.38927" lon="2.49175">
        <ele>1169.1</ele>
        <time>2018-11-28T11:20:36Z</time>
      </trkpt>
      <trkpt lat="42.38925" lon="2.49187">
        <ele>1161</ele>
        <time>2018-11-28T11:20:39Z</time>
      </trkpt>
      <trkpt lat="42.38928" lon="2.49194">
        <ele>1159.1</ele>
        <time>2018-11-28T11:20:42Z</time>
      </trkpt>
      <trkpt lat="42.38933" lon="2.49192">
        <ele>1159</ele>
        <time>2018-11-28T11:20:44Z</time>
      </trkpt>
      <trkpt lat="42.38941" lon="2.49197">
        <ele>1159.1</ele>
        <time>2018-11-28T11:20:48Z</time>
      </trkpt>
      <trkpt lat="42.38953" lon="2.49189">
        <ele>1153.1</ele>
        <time>2018-11-28T11:20:53Z</time>
      </trkpt>
      <trkpt lat="42.38959" lon="2.49181">
        <ele>1154.1</ele>
        <time>2018-11-28T11:20:56Z</time>
      </trkpt>
      <trkpt lat="42.38968" lon="2.49177">
        <ele>1158</ele>
        <time>2018-11-28T11:21:00Z</time>
      </trkpt>
      <trkpt lat="42.3898" lon="2.49171">
        <ele>1151</ele>
        <time>2018-11-28T11:21:05Z</time>
      </trkpt>
      <trkpt lat="42.38994" lon="2.49166">
        <ele>1150.1</ele>
        <time>2018-11-28T11:21:11Z</time>
      </trkpt>
      <trkpt lat="42.39003" lon="2.49162">
        <ele>1149</ele>
        <time>2018-11-28T11:21:15Z</time>
      </trkpt>
      <trkpt lat="42.39009" lon="2.4916">
        <ele>1145</ele>
        <time>2018-11-28T11:21:17Z</time>
      </trkpt>
      <trkpt lat="42.39019" lon="2.49158">
        <ele>1139.1</ele>
        <time>2018-11-28T11:21:21Z</time>
      </trkpt>
      <trkpt lat="42.39027" lon="2.49153">
        <ele>1139</ele>
        <time>2018-11-28T11:21:25Z</time>
      </trkpt>
      <trkpt lat="42.39036" lon="2.49151">
        <ele>1134.1</ele>
        <time>2018-11-28T11:21:29Z</time>
      </trkpt>
      <trkpt lat="42.39048" lon="2.49146">
        <ele>1136.1</ele>
        <time>2018-11-28T11:21:33Z</time>
      </trkpt>
      <trkpt lat="42.39055" lon="2.49139">
        <ele>1142</ele>
        <time>2018-11-28T11:21:37Z</time>
      </trkpt>
      <trkpt lat="42.39065" lon="2.49132">
        <ele>1143</ele>
        <time>2018-11-28T11:21:42Z</time>
      </trkpt>
      <trkpt lat="42.39068" lon="2.49139">
        <ele>1145</ele>
        <time>2018-11-28T11:21:44Z</time>
      </trkpt>
      <trkpt lat="42.39071" lon="2.49136">
        <ele>1146.1</ele>
        <time>2018-11-28T11:21:46Z</time>
      </trkpt>
      <trkpt lat="42.39078" lon="2.49131">
        <ele>1148</ele>
        <time>2018-11-28T11:21:49Z</time>
      </trkpt>
      <trkpt lat="42.39087" lon="2.49127">
        <ele>1147.1</ele>
        <time>2018-11-28T11:21:53Z</time>
      </trkpt>
      <trkpt lat="42.39095" lon="2.4912">
        <ele>1144</ele>
        <time>2018-11-28T11:21:56Z</time>
      </trkpt>
      <trkpt lat="42.39101" lon="2.49111">
        <ele>1147</ele>
        <time>2018-11-28T11:22:00Z</time>
      </trkpt>
      <trkpt lat="42.39109" lon="2.49105">
        <ele>1146</ele>
        <time>2018-11-28T11:22:04Z</time>
      </trkpt>
      <trkpt lat="42.39118" lon="2.49098">
        <ele>1149</ele>
        <time>2018-11-28T11:22:08Z</time>
      </trkpt>
      <trkpt lat="42.39127" lon="2.49094">
        <ele>1144</ele>
        <time>2018-11-28T11:22:12Z</time>
      </trkpt>
      <trkpt lat="42.39137" lon="2.49093">
        <ele>1143</ele>
        <time>2018-11-28T11:22:16Z</time>
      </trkpt>
      <trkpt lat="42.39147" lon="2.49092">
        <ele>1137.1</ele>
        <time>2018-11-28T11:22:20Z</time>
      </trkpt>
      <trkpt lat="42.39155" lon="2.49086">
        <ele>1140</ele>
        <time>2018-11-28T11:22:23Z</time>
      </trkpt>
      <trkpt lat="42.39161" lon="2.49088">
        <ele>1134</ele>
        <time>2018-11-28T11:22:26Z</time>
      </trkpt>
      <trkpt lat="42.39171" lon="2.49088">
        <ele>1130.1</ele>
        <time>2018-11-28T11:22:30Z</time>
      </trkpt>
      <trkpt lat="42.39181" lon="2.49088">
        <ele>1128.1</ele>
        <time>2018-11-28T11:22:34Z</time>
      </trkpt>
      <trkpt lat="42.3919" lon="2.49087">
        <ele>1127</ele>
        <time>2018-11-28T11:22:37Z</time>
      </trkpt>
      <trkpt lat="42.392" lon="2.49084">
        <ele>1122</ele>
        <time>2018-11-28T11:22:41Z</time>
      </trkpt>
      <trkpt lat="42.39208" lon="2.49084">
        <ele>1123</ele>
        <time>2018-11-28T11:22:45Z</time>
      </trkpt>
      <trkpt lat="42.39214" lon="2.49081">
        <ele>1123</ele>
        <time>2018-11-28T11:22:47Z</time>
      </trkpt>
      <trkpt lat="42.39222" lon="2.49074">
        <ele>1123.1</ele>
        <time>2018-11-28T11:22:51Z</time>
      </trkpt>
      <trkpt lat="42.39224" lon="2.49065">
        <ele>1122</ele>
        <time>2018-11-28T11:22:54Z</time>
      </trkpt>
      <trkpt lat="42.39229" lon="2.49053">
        <ele>1123</ele>
        <time>2018-11-28T11:22:58Z</time>
      </trkpt>
      <trkpt lat="42.3923" lon="2.49039">
        <ele>1127</ele>
        <time>2018-11-28T11:23:02Z</time>
      </trkpt>
      <trkpt lat="42.39235" lon="2.49026">
        <ele>1127</ele>
        <time>2018-11-28T11:23:06Z</time>
      </trkpt>
      <trkpt lat="42.39242" lon="2.49018">
        <ele>1127</ele>
        <time>2018-11-28T11:23:10Z</time>
      </trkpt>
      <trkpt lat="42.39248" lon="2.49013">
        <ele>1125</ele>
        <time>2018-11-28T11:23:13Z</time>
      </trkpt>
      <trkpt lat="42.39256" lon="2.49004">
        <ele>1124.1</ele>
        <time>2018-11-28T11:23:17Z</time>
      </trkpt>
      <trkpt lat="42.39266" lon="2.49001">
        <ele>1121</ele>
        <time>2018-11-28T11:23:21Z</time>
      </trkpt>
      <trkpt lat="42.39273" lon="2.49004">
        <ele>1118</ele>
        <time>2018-11-28T11:23:24Z</time>
      </trkpt>
      <trkpt lat="42.39277" lon="2.49">
        <ele>1118</ele>
        <time>2018-11-28T11:23:26Z</time>
      </trkpt>
      <trkpt lat="42.39282" lon="2.48999">
        <ele>1116.1</ele>
        <time>2018-11-28T11:23:28Z</time>
      </trkpt>
      <trkpt lat="42.39292" lon="2.48996">
        <ele>1114</ele>
        <time>2018-11-28T11:23:32Z</time>
      </trkpt>
      <trkpt lat="42.39294" lon="2.48983">
        <ele>1115</ele>
        <time>2018-11-28T11:23:36Z</time>
      </trkpt>
      <trkpt lat="42.39299" lon="2.48982">
        <ele>1115.1</ele>
        <time>2018-11-28T11:23:38Z</time>
      </trkpt>
      <trkpt lat="42.39306" lon="2.48975">
        <ele>1106.1</ele>
        <time>2018-11-28T11:23:41Z</time>
      </trkpt>
      <trkpt lat="42.39314" lon="2.48966">
        <ele>1107.1</ele>
        <time>2018-11-28T11:23:45Z</time>
      </trkpt>
      <trkpt lat="42.39319" lon="2.48963">
        <ele>1108</ele>
        <time>2018-11-28T11:23:48Z</time>
      </trkpt>
      <trkpt lat="42.39324" lon="2.48959">
        <ele>1109.1</ele>
        <time>2018-11-28T11:23:50Z</time>
      </trkpt>
      <trkpt lat="42.39329" lon="2.48956">
        <ele>1106</ele>
        <time>2018-11-28T11:23:52Z</time>
      </trkpt>
      <trkpt lat="42.39336" lon="2.48954">
        <ele>1104</ele>
        <time>2018-11-28T11:23:55Z</time>
      </trkpt>
      <trkpt lat="42.39342" lon="2.48952">
        <ele>1102</ele>
        <time>2018-11-28T11:23:58Z</time>
      </trkpt>
      <trkpt lat="42.39349" lon="2.48943">
        <ele>1101</ele>
        <time>2018-11-28T11:24:01Z</time>
      </trkpt>
      <trkpt lat="42.39356" lon="2.48933">
        <ele>1101</ele>
        <time>2018-11-28T11:24:05Z</time>
      </trkpt>
      <trkpt lat="42.39363" lon="2.48932">
        <ele>1099.1</ele>
        <time>2018-11-28T11:24:09Z</time>
      </trkpt>
      <trkpt lat="42.39369" lon="2.4893">
        <ele>1099.1</ele>
        <time>2018-11-28T11:24:11Z</time>
      </trkpt>
      <trkpt lat="42.39379" lon="2.48928">
        <ele>1098</ele>
        <time>2018-11-28T11:24:15Z</time>
      </trkpt>
      <trkpt lat="42.39386" lon="2.48923">
        <ele>1098.1</ele>
        <time>2018-11-28T11:24:18Z</time>
      </trkpt>
      <trkpt lat="42.39394" lon="2.48916">
        <ele>1098.1</ele>
        <time>2018-11-28T11:24:22Z</time>
      </trkpt>
      <trkpt lat="42.39395" lon="2.48903">
        <ele>1096</ele>
        <time>2018-11-28T11:24:26Z</time>
      </trkpt>
      <trkpt lat="42.394" lon="2.48893">
        <ele>1093.1</ele>
        <time>2018-11-28T11:24:29Z</time>
      </trkpt>
      <trkpt lat="42.3941" lon="2.48896">
        <ele>1095.1</ele>
        <time>2018-11-28T11:24:33Z</time>
      </trkpt>
      <trkpt lat="42.39414" lon="2.48891">
        <ele>1094.1</ele>
        <time>2018-11-28T11:24:36Z</time>
      </trkpt>
      <trkpt lat="42.39419" lon="2.48884">
        <ele>1092</ele>
        <time>2018-11-28T11:24:39Z</time>
      </trkpt>
      <trkpt lat="42.39423" lon="2.48878">
        <ele>1091</ele>
        <time>2018-11-28T11:24:41Z</time>
      </trkpt>
      <trkpt lat="42.39431" lon="2.48869">
        <ele>1090</ele>
        <time>2018-11-28T11:24:45Z</time>
      </trkpt>
      <trkpt lat="42.39433" lon="2.48856">
        <ele>1078.1</ele>
        <time>2018-11-28T11:24:49Z</time>
      </trkpt>
      <trkpt lat="42.39433" lon="2.48842">
        <ele>1078.1</ele>
        <time>2018-11-28T11:24:53Z</time>
      </trkpt>
      <trkpt lat="42.39438" lon="2.48832">
        <ele>1078</ele>
        <time>2018-11-28T11:24:57Z</time>
      </trkpt>
      <trkpt lat="42.39443" lon="2.4882">
        <ele>1078</ele>
        <time>2018-11-28T11:25:01Z</time>
      </trkpt>
      <trkpt lat="42.39444" lon="2.48808">
        <ele>1069</ele>
        <time>2018-11-28T11:25:04Z</time>
      </trkpt>
      <trkpt lat="42.39449" lon="2.48795">
        <ele>1068.1</ele>
        <time>2018-11-28T11:25:09Z</time>
      </trkpt>
      <trkpt lat="42.39458" lon="2.48792">
        <ele>1067</ele>
        <time>2018-11-28T11:25:12Z</time>
      </trkpt>
      <trkpt lat="42.39461" lon="2.48779">
        <ele>1067</ele>
        <time>2018-11-28T11:25:16Z</time>
      </trkpt>
      <trkpt lat="42.39463" lon="2.48767">
        <ele>1066</ele>
        <time>2018-11-28T11:25:20Z</time>
      </trkpt>
      <trkpt lat="42.39472" lon="2.48761">
        <ele>1063</ele>
        <time>2018-11-28T11:25:24Z</time>
      </trkpt>
      <trkpt lat="42.39473" lon="2.48747">
        <ele>1064</ele>
        <time>2018-11-28T11:25:28Z</time>
      </trkpt>
      <trkpt lat="42.39478" lon="2.48743">
        <ele>1063</ele>
        <time>2018-11-28T11:25:30Z</time>
      </trkpt>
      <trkpt lat="42.39484" lon="2.48733">
        <ele>1064</ele>
        <time>2018-11-28T11:25:34Z</time>
      </trkpt>
      <trkpt lat="42.3949" lon="2.48721">
        <ele>1064</ele>
        <time>2018-11-28T11:25:39Z</time>
      </trkpt>
      <trkpt lat="42.39498" lon="2.48712">
        <ele>1064</ele>
        <time>2018-11-28T11:25:43Z</time>
      </trkpt>
      <trkpt lat="42.39503" lon="2.48711">
        <ele>1060.1</ele>
        <time>2018-11-28T11:25:45Z</time>
      </trkpt>
      <trkpt lat="42.39507" lon="2.48712">
        <ele>1055.1</ele>
        <time>2018-11-28T11:25:46Z</time>
      </trkpt>
      <trkpt lat="42.39514" lon="2.48703">
        <ele>1053</ele>
        <time>2018-11-28T11:25:50Z</time>
      </trkpt>
      <trkpt lat="42.39519" lon="2.48692">
        <ele>1052.1</ele>
        <time>2018-11-28T11:25:54Z</time>
      </trkpt>
      <trkpt lat="42.39526" lon="2.48682">
        <ele>1052</ele>
        <time>2018-11-28T11:25:58Z</time>
      </trkpt>
      <trkpt lat="42.39534" lon="2.48674">
        <ele>1050</ele>
        <time>2018-11-28T11:26:02Z</time>
      </trkpt>
      <trkpt lat="42.39544" lon="2.48674">
        <ele>1047</ele>
        <time>2018-11-28T11:26:06Z</time>
      </trkpt>
      <trkpt lat="42.39537" lon="2.4867">
        <ele>1040</ele>
        <time>2018-11-28T11:26:10Z</time>
      </trkpt>
      <trkpt lat="42.39533" lon="2.48665">
        <ele>1040.1</ele>
        <time>2018-11-28T11:26:12Z</time>
      </trkpt>
      <trkpt lat="42.39538" lon="2.48663">
        <ele>1039.1</ele>
        <time>2018-11-28T11:26:13Z</time>
      </trkpt>
      <trkpt lat="42.39546" lon="2.48654">
        <ele>1038</ele>
        <time>2018-11-28T11:26:17Z</time>
      </trkpt>
      <trkpt lat="42.39548" lon="2.48641">
        <ele>1040</ele>
        <time>2018-11-28T11:26:21Z</time>
      </trkpt>
      <trkpt lat="42.39553" lon="2.48628">
        <ele>1041.1</ele>
        <time>2018-11-28T11:26:26Z</time>
      </trkpt>
      <trkpt lat="42.39556" lon="2.48617">
        <ele>1039.1</ele>
        <time>2018-11-28T11:26:29Z</time>
      </trkpt>
      <trkpt lat="42.39559" lon="2.48604">
        <ele>1037.1</ele>
        <time>2018-11-28T11:26:33Z</time>
      </trkpt>
      <trkpt lat="42.39556" lon="2.48592">
        <ele>1033.1</ele>
        <time>2018-11-28T11:26:37Z</time>
      </trkpt>
      <trkpt lat="42.39563" lon="2.48583">
        <ele>1029</ele>
        <time>2018-11-28T11:26:41Z</time>
      </trkpt>
      <trkpt lat="42.3957" lon="2.48575">
        <ele>1021</ele>
        <time>2018-11-28T11:26:45Z</time>
      </trkpt>
      <trkpt lat="42.39577" lon="2.48564">
        <ele>1021</ele>
        <time>2018-11-28T11:26:49Z</time>
      </trkpt>
      <trkpt lat="42.39584" lon="2.48556">
        <ele>1022</ele>
        <time>2018-11-28T11:26:53Z</time>
      </trkpt>
      <trkpt lat="42.39589" lon="2.48545">
        <ele>1028.1</ele>
        <time>2018-11-28T11:26:57Z</time>
      </trkpt>
      <trkpt lat="42.39596" lon="2.48536">
        <ele>1028</ele>
        <time>2018-11-28T11:27:00Z</time>
      </trkpt>
      <trkpt lat="42.39604" lon="2.48527">
        <ele>1029.1</ele>
        <time>2018-11-28T11:27:05Z</time>
      </trkpt>
      <trkpt lat="42.39612" lon="2.4852">
        <ele>1029</ele>
        <time>2018-11-28T11:27:08Z</time>
      </trkpt>
      <trkpt lat="42.39619" lon="2.48511">
        <ele>1029</ele>
        <time>2018-11-28T11:27:12Z</time>
      </trkpt>
      <trkpt lat="42.39622" lon="2.48501">
        <ele>1021</ele>
        <time>2018-11-28T11:27:15Z</time>
      </trkpt>
      <trkpt lat="42.39631" lon="2.48498">
        <ele>1020.1</ele>
        <time>2018-11-28T11:27:19Z</time>
      </trkpt>
      <trkpt lat="42.39638" lon="2.48491">
        <ele>1019</ele>
        <time>2018-11-28T11:27:22Z</time>
      </trkpt>
      <trkpt lat="42.39645" lon="2.4849">
        <ele>1006.1</ele>
        <time>2018-11-28T11:27:25Z</time>
      </trkpt>
      <trkpt lat="42.39654" lon="2.4849">
        <ele>996.1</ele>
        <time>2018-11-28T11:27:29Z</time>
      </trkpt>
      <trkpt lat="42.39661" lon="2.48481">
        <ele>994</ele>
        <time>2018-11-28T11:27:32Z</time>
      </trkpt>
      <trkpt lat="42.39666" lon="2.48471">
        <ele>990</ele>
        <time>2018-11-28T11:27:36Z</time>
      </trkpt>
      <trkpt lat="42.39668" lon="2.48458">
        <ele>989.1</ele>
        <time>2018-11-28T11:27:40Z</time>
      </trkpt>
      <trkpt lat="42.39666" lon="2.48446">
        <ele>992</ele>
        <time>2018-11-28T11:27:44Z</time>
      </trkpt>
      <trkpt lat="42.39663" lon="2.48437">
        <ele>995</ele>
        <time>2018-11-28T11:27:47Z</time>
      </trkpt>
      <trkpt lat="42.39663" lon="2.4843">
        <ele>991.1</ele>
        <time>2018-11-28T11:27:49Z</time>
      </trkpt>
      <trkpt lat="42.39662" lon="2.48418">
        <ele>992</ele>
        <time>2018-11-28T11:27:52Z</time>
      </trkpt>
      <trkpt lat="42.39668" lon="2.4841">
        <ele>983</ele>
        <time>2018-11-28T11:27:56Z</time>
      </trkpt>
      <trkpt lat="42.3967" lon="2.48397">
        <ele>985</ele>
        <time>2018-11-28T11:28:00Z</time>
      </trkpt>
      <trkpt lat="42.39669" lon="2.48384">
        <ele>987.1</ele>
        <time>2018-11-28T11:28:03Z</time>
      </trkpt>
      <trkpt lat="42.39675" lon="2.48371">
        <ele>986</ele>
        <time>2018-11-28T11:28:08Z</time>
      </trkpt>
      <trkpt lat="42.39674" lon="2.48358">
        <ele>984.1</ele>
        <time>2018-11-28T11:28:11Z</time>
      </trkpt>
      <trkpt lat="42.39673" lon="2.48344">
        <ele>982</ele>
        <time>2018-11-28T11:28:15Z</time>
      </trkpt>
      <trkpt lat="42.39677" lon="2.48336">
        <ele>974</ele>
        <time>2018-11-28T11:28:18Z</time>
      </trkpt>
      <trkpt lat="42.39674" lon="2.48323">
        <ele>975.1</ele>
        <time>2018-11-28T11:28:22Z</time>
      </trkpt>
      <trkpt lat="42.39673" lon="2.4831">
        <ele>975.1</ele>
        <time>2018-11-28T11:28:26Z</time>
      </trkpt>
      <trkpt lat="42.39674" lon="2.48298">
        <ele>973</ele>
        <time>2018-11-28T11:28:30Z</time>
      </trkpt>
      <trkpt lat="42.39672" lon="2.48286">
        <ele>970.1</ele>
        <time>2018-11-28T11:28:33Z</time>
      </trkpt>
      <trkpt lat="42.39675" lon="2.4828">
        <ele>963.1</ele>
        <time>2018-11-28T11:28:35Z</time>
      </trkpt>
      <trkpt lat="42.39677" lon="2.48268">
        <ele>965.1</ele>
        <time>2018-11-28T11:28:39Z</time>
      </trkpt>
      <trkpt lat="42.39679" lon="2.48261">
        <ele>963</ele>
        <time>2018-11-28T11:28:41Z</time>
      </trkpt>
      <trkpt lat="42.39676" lon="2.48252">
        <ele>960</ele>
        <time>2018-11-28T11:28:44Z</time>
      </trkpt>
      <trkpt lat="42.39672" lon="2.48239">
        <ele>959</ele>
        <time>2018-11-28T11:28:48Z</time>
      </trkpt>
      <trkpt lat="42.39668" lon="2.48229">
        <ele>957</ele>
        <time>2018-11-28T11:28:52Z</time>
      </trkpt>
      <trkpt lat="42.39669" lon="2.48217">
        <ele>949</ele>
        <time>2018-11-28T11:28:55Z</time>
      </trkpt>
      <trkpt lat="42.39675" lon="2.48207">
        <ele>945</ele>
        <time>2018-11-28T11:28:59Z</time>
      </trkpt>
      <trkpt lat="42.39681" lon="2.48198">
        <ele>943.1</ele>
        <time>2018-11-28T11:29:03Z</time>
      </trkpt>
      <trkpt lat="42.39687" lon="2.48187">
        <ele>941</ele>
        <time>2018-11-28T11:29:06Z</time>
      </trkpt>
      <trkpt lat="42.39692" lon="2.48178">
        <ele>939</ele>
        <time>2018-11-28T11:29:10Z</time>
      </trkpt>
      <trkpt lat="42.39696" lon="2.48165">
        <ele>938</ele>
        <time>2018-11-28T11:29:14Z</time>
      </trkpt>
      <trkpt lat="42.39702" lon="2.48156">
        <ele>936.1</ele>
        <time>2018-11-28T11:29:18Z</time>
      </trkpt>
      <trkpt lat="42.3971" lon="2.48147">
        <ele>935</ele>
        <time>2018-11-28T11:29:22Z</time>
      </trkpt>
      <trkpt lat="42.3972" lon="2.48142">
        <ele>935</ele>
        <time>2018-11-28T11:29:26Z</time>
      </trkpt>
      <trkpt lat="42.39723" lon="2.48136">
        <ele>927.1</ele>
        <time>2018-11-28T11:29:28Z</time>
      </trkpt>
      <trkpt lat="42.39722" lon="2.4813">
        <ele>924</ele>
        <time>2018-11-28T11:29:30Z</time>
      </trkpt>
      <trkpt lat="42.39729" lon="2.4812">
        <ele>923</ele>
        <time>2018-11-28T11:29:34Z</time>
      </trkpt>
      <trkpt lat="42.39734" lon="2.48119">
        <ele>922</ele>
        <time>2018-11-28T11:29:36Z</time>
      </trkpt>
      <trkpt lat="42.39741" lon="2.48113">
        <ele>916</ele>
        <time>2018-11-28T11:29:40Z</time>
      </trkpt>
      <trkpt lat="42.39745" lon="2.48107">
        <ele>911</ele>
        <time>2018-11-28T11:29:42Z</time>
      </trkpt>
      <trkpt lat="42.39747" lon="2.48099">
        <ele>914.1</ele>
        <time>2018-11-28T11:29:44Z</time>
      </trkpt>
      <trkpt lat="42.39752" lon="2.48087">
        <ele>914.1</ele>
        <time>2018-11-28T11:29:48Z</time>
      </trkpt>
      <trkpt lat="42.39759" lon="2.4808">
        <ele>906</ele>
        <time>2018-11-28T11:29:52Z</time>
      </trkpt>
      <trkpt lat="42.39754" lon="2.48069">
        <ele>903.1</ele>
        <time>2018-11-28T11:29:56Z</time>
      </trkpt>
      <trkpt lat="42.39759" lon="2.48059">
        <ele>905.1</ele>
        <time>2018-11-28T11:29:59Z</time>
      </trkpt>
      <trkpt lat="42.39764" lon="2.48054">
        <ele>903</ele>
        <time>2018-11-28T11:30:02Z</time>
      </trkpt>
      <trkpt lat="42.39763" lon="2.48043">
        <ele>900</ele>
        <time>2018-11-28T11:30:05Z</time>
      </trkpt>
      <trkpt lat="42.39772" lon="2.48048">
        <ele>894.1</ele>
        <time>2018-11-28T11:30:09Z</time>
      </trkpt>
      <trkpt lat="42.39768" lon="2.4804">
        <ele>892.1</ele>
        <time>2018-11-28T11:30:12Z</time>
      </trkpt>
      <trkpt lat="42.39778" lon="2.4804">
        <ele>887</ele>
        <time>2018-11-28T11:30:16Z</time>
      </trkpt>
      <trkpt lat="42.39774" lon="2.4803">
        <ele>885</ele>
        <time>2018-11-28T11:30:19Z</time>
      </trkpt>
      <trkpt lat="42.39783" lon="2.48029">
        <ele>870.1</ele>
        <time>2018-11-28T11:30:23Z</time>
      </trkpt>
      <trkpt lat="42.39793" lon="2.48025">
        <ele>870.1</ele>
        <time>2018-11-28T11:30:27Z</time>
      </trkpt>
      <trkpt lat="42.39792" lon="2.48018">
        <ele>872</ele>
        <time>2018-11-28T11:30:29Z</time>
      </trkpt>
      <trkpt lat="42.39795" lon="2.48006">
        <ele>873</ele>
        <time>2018-11-28T11:30:32Z</time>
      </trkpt>
      <trkpt lat="42.39802" lon="2.48003">
        <ele>869</ele>
        <time>2018-11-28T11:30:35Z</time>
      </trkpt>
      <trkpt lat="42.39807" lon="2.47997">
        <ele>870.1</ele>
        <time>2018-11-28T11:30:38Z</time>
      </trkpt>
      <trkpt lat="42.39803" lon="2.47993">
        <ele>862</ele>
        <time>2018-11-28T11:30:40Z</time>
      </trkpt>
      <trkpt lat="42.398" lon="2.47981">
        <ele>861</ele>
        <time>2018-11-28T11:30:44Z</time>
      </trkpt>
      <trkpt lat="42.39808" lon="2.47982">
        <ele>861</ele>
        <time>2018-11-28T11:30:48Z</time>
      </trkpt>
      <trkpt lat="42.39807" lon="2.47969">
        <ele>856.1</ele>
        <time>2018-11-28T11:30:52Z</time>
      </trkpt>
      <trkpt lat="42.39806" lon="2.47956">
        <ele>867</ele>
        <time>2018-11-28T11:30:55Z</time>
      </trkpt>
      <trkpt lat="42.39815" lon="2.47956">
        <ele>863</ele>
        <time>2018-11-28T11:30:59Z</time>
      </trkpt>
      <trkpt lat="42.39824" lon="2.47959">
        <ele>857.1</ele>
        <time>2018-11-28T11:31:03Z</time>
      </trkpt>
      <trkpt lat="42.39832" lon="2.47965">
        <ele>853.1</ele>
        <time>2018-11-28T11:31:06Z</time>
      </trkpt>
      <trkpt lat="42.39842" lon="2.47973">
        <ele>853</ele>
        <time>2018-11-28T11:31:11Z</time>
      </trkpt>
      <trkpt lat="42.39848" lon="2.47978">
        <ele>851.1</ele>
        <time>2018-11-28T11:31:14Z</time>
      </trkpt>
      <trkpt lat="42.39859" lon="2.4798">
        <ele>842.1</ele>
        <time>2018-11-28T11:31:18Z</time>
      </trkpt>
      <trkpt lat="42.39869" lon="2.47984">
        <ele>837.1</ele>
        <time>2018-11-28T11:31:22Z</time>
      </trkpt>
      <trkpt lat="42.39877" lon="2.47979">
        <ele>834.1</ele>
        <time>2018-11-28T11:31:26Z</time>
      </trkpt>
      <trkpt lat="42.39885" lon="2.47986">
        <ele>836.1</ele>
        <time>2018-11-28T11:31:30Z</time>
      </trkpt>
      <trkpt lat="42.39893" lon="2.4799">
        <ele>841.1</ele>
        <time>2018-11-28T11:31:33Z</time>
      </trkpt>
      <trkpt lat="42.39897" lon="2.47978">
        <ele>832.1</ele>
        <time>2018-11-28T11:31:37Z</time>
      </trkpt>
      <trkpt lat="42.39904" lon="2.47973">
        <ele>827</ele>
        <time>2018-11-28T11:31:40Z</time>
      </trkpt>
      <trkpt lat="42.39909" lon="2.47969">
        <ele>825</ele>
        <time>2018-11-28T11:31:43Z</time>
      </trkpt>
      <trkpt lat="42.39905" lon="2.47957">
        <ele>823.1</ele>
        <time>2018-11-28T11:31:46Z</time>
      </trkpt>
      <trkpt lat="42.39906" lon="2.47945">
        <ele>814</ele>
        <time>2018-11-28T11:31:50Z</time>
      </trkpt>
      <trkpt lat="42.39911" lon="2.47942">
        <ele>814</ele>
        <time>2018-11-28T11:31:52Z</time>
      </trkpt>
      <trkpt lat="42.3992" lon="2.47944">
        <ele>812.1</ele>
        <time>2018-11-28T11:31:56Z</time>
      </trkpt>
      <trkpt lat="42.39927" lon="2.47934">
        <ele>808.1</ele>
        <time>2018-11-28T11:32:00Z</time>
      </trkpt>
      <trkpt lat="42.39932" lon="2.47934">
        <ele>812</ele>
        <time>2018-11-28T11:32:02Z</time>
      </trkpt>
      <trkpt lat="42.39937" lon="2.47932">
        <ele>814.1</ele>
        <time>2018-11-28T11:32:04Z</time>
      </trkpt>
      <trkpt lat="42.39932" lon="2.47922">
        <ele>812.1</ele>
        <time>2018-11-28T11:32:07Z</time>
      </trkpt>
      <trkpt lat="42.39927" lon="2.47917">
        <ele>804.1</ele>
        <time>2018-11-28T11:32:10Z</time>
      </trkpt>
      <trkpt lat="42.39919" lon="2.47912">
        <ele>799.1</ele>
        <time>2018-11-28T11:32:13Z</time>
      </trkpt>
      <trkpt lat="42.39912" lon="2.47903">
        <ele>794</ele>
        <time>2018-11-28T11:32:17Z</time>
      </trkpt>
      <trkpt lat="42.39915" lon="2.47891">
        <ele>795</ele>
        <time>2018-11-28T11:32:21Z</time>
      </trkpt>
      <trkpt lat="42.39922" lon="2.47887">
        <ele>801</ele>
        <time>2018-11-28T11:32:24Z</time>
      </trkpt>
      <trkpt lat="42.39918" lon="2.47883">
        <ele>802.1</ele>
        <time>2018-11-28T11:32:26Z</time>
      </trkpt>
      <trkpt lat="42.39922" lon="2.47877">
        <ele>803.1</ele>
        <time>2018-11-28T11:32:28Z</time>
      </trkpt>
      <trkpt lat="42.39924" lon="2.47882">
        <ele>805</ele>
        <time>2018-11-28T11:32:30Z</time>
      </trkpt>
      <trkpt lat="42.39929" lon="2.47884">
        <ele>803.1</ele>
        <time>2018-11-28T11:32:32Z</time>
      </trkpt>
      <trkpt lat="42.39936" lon="2.4789">
        <ele>809.1</ele>
        <time>2018-11-28T11:32:35Z</time>
      </trkpt>
      <trkpt lat="42.3994" lon="2.47886">
        <ele>810.1</ele>
        <time>2018-11-28T11:32:37Z</time>
      </trkpt>
      <trkpt lat="42.39945" lon="2.47894">
        <ele>806</ele>
        <time>2018-11-28T11:32:40Z</time>
      </trkpt>
      <trkpt lat="42.39952" lon="2.47902">
        <ele>802.1</ele>
        <time>2018-11-28T11:32:44Z</time>
      </trkpt>
      <trkpt lat="42.39959" lon="2.47912">
        <ele>799</ele>
        <time>2018-11-28T11:32:48Z</time>
      </trkpt>
      <trkpt lat="42.39963" lon="2.47924">
        <ele>796</ele>
        <time>2018-11-28T11:32:52Z</time>
      </trkpt>
      <trkpt lat="42.39972" lon="2.47921">
        <ele>795</ele>
        <time>2018-11-28T11:32:55Z</time>
      </trkpt>
      <trkpt lat="42.39981" lon="2.47917">
        <ele>795.1</ele>
        <time>2018-11-28T11:32:59Z</time>
      </trkpt>
      <trkpt lat="42.39983" lon="2.47911">
        <ele>788.1</ele>
        <time>2018-11-28T11:33:01Z</time>
      </trkpt>
      <trkpt lat="42.39991" lon="2.47913">
        <ele>787.1</ele>
        <time>2018-11-28T11:33:04Z</time>
      </trkpt>
      <trkpt lat="42.40001" lon="2.47913">
        <ele>787.1</ele>
        <time>2018-11-28T11:33:08Z</time>
      </trkpt>
      <trkpt lat="42.40009" lon="2.47921">
        <ele>787.1</ele>
        <time>2018-11-28T11:33:12Z</time>
      </trkpt>
      <trkpt lat="42.40015" lon="2.47924">
        <ele>786.1</ele>
        <time>2018-11-28T11:33:15Z</time>
      </trkpt>
      <trkpt lat="42.40025" lon="2.47922">
        <ele>786.1</ele>
        <time>2018-11-28T11:33:19Z</time>
      </trkpt>
      <trkpt lat="42.40034" lon="2.47924">
        <ele>787</ele>
        <time>2018-11-28T11:33:22Z</time>
      </trkpt>
      <trkpt lat="42.40044" lon="2.47928">
        <ele>789.1</ele>
        <time>2018-11-28T11:33:27Z</time>
      </trkpt>
      <trkpt lat="42.40055" lon="2.47929">
        <ele>789</ele>
        <time>2018-11-28T11:33:31Z</time>
      </trkpt>
      <trkpt lat="42.40065" lon="2.47931">
        <ele>787</ele>
        <time>2018-11-28T11:33:35Z</time>
      </trkpt>
      <trkpt lat="42.40074" lon="2.47929">
        <ele>786</ele>
        <time>2018-11-28T11:33:39Z</time>
      </trkpt>
      <trkpt lat="42.40078" lon="2.47942">
        <ele>787</ele>
        <time>2018-11-28T11:33:43Z</time>
      </trkpt>
      <trkpt lat="42.40086" lon="2.47948">
        <ele>787</ele>
        <time>2018-11-28T11:33:46Z</time>
      </trkpt>
      <trkpt lat="42.40093" lon="2.47955">
        <ele>790</ele>
        <time>2018-11-28T11:33:50Z</time>
      </trkpt>
      <trkpt lat="42.40094" lon="2.47968">
        <ele>790</ele>
        <time>2018-11-28T11:33:54Z</time>
      </trkpt>
      <trkpt lat="42.40099" lon="2.4798">
        <ele>791</ele>
        <time>2018-11-28T11:33:58Z</time>
      </trkpt>
      <trkpt lat="42.40104" lon="2.47991">
        <ele>789</ele>
        <time>2018-11-28T11:34:02Z</time>
      </trkpt>
      <trkpt lat="42.40112" lon="2.47998">
        <ele>788</ele>
        <time>2018-11-28T11:34:06Z</time>
      </trkpt>
      <trkpt lat="42.40118" lon="2.47997">
        <ele>793.1</ele>
        <time>2018-11-28T11:34:08Z</time>
      </trkpt>
      <trkpt lat="42.40128" lon="2.47992">
        <ele>793</ele>
        <time>2018-11-28T11:34:12Z</time>
      </trkpt>
      <trkpt lat="42.40133" lon="2.4798">
        <ele>793.1</ele>
        <time>2018-11-28T11:34:16Z</time>
      </trkpt>
      <trkpt lat="42.4014" lon="2.47969">
        <ele>792</ele>
        <time>2018-11-28T11:34:20Z</time>
      </trkpt>
      <trkpt lat="42.4015" lon="2.47964">
        <ele>792</ele>
        <time>2018-11-28T11:34:25Z</time>
      </trkpt>
      <trkpt lat="42.40152" lon="2.47959">
        <ele>792</ele>
        <time>2018-11-28T11:34:26Z</time>
      </trkpt>
      <trkpt lat="42.40161" lon="2.47953">
        <ele>791.1</ele>
        <time>2018-11-28T11:34:30Z</time>
      </trkpt>
      <trkpt lat="42.40165" lon="2.47946">
        <ele>788.1</ele>
        <time>2018-11-28T11:34:33Z</time>
      </trkpt>
      <trkpt lat="42.40174" lon="2.47943">
        <ele>787</ele>
        <time>2018-11-28T11:34:37Z</time>
      </trkpt>
      <trkpt lat="42.40179" lon="2.47939">
        <ele>783.1</ele>
        <time>2018-11-28T11:34:39Z</time>
      </trkpt>
      <trkpt lat="42.40188" lon="2.47935">
        <ele>783</ele>
        <time>2018-11-28T11:34:43Z</time>
      </trkpt>
      <trkpt lat="42.40198" lon="2.47932">
        <ele>784.1</ele>
        <time>2018-11-28T11:34:47Z</time>
      </trkpt>
      <trkpt lat="42.40203" lon="2.4793">
        <ele>784</ele>
        <time>2018-11-28T11:34:49Z</time>
      </trkpt>
      <trkpt lat="42.40212" lon="2.47928">
        <ele>785</ele>
        <time>2018-11-28T11:34:53Z</time>
      </trkpt>
      <trkpt lat="42.40219" lon="2.47931">
        <ele>784.1</ele>
        <time>2018-11-28T11:34:56Z</time>
      </trkpt>
      <trkpt lat="42.40227" lon="2.47936">
        <ele>783</ele>
        <time>2018-11-28T11:34:59Z</time>
      </trkpt>
      <trkpt lat="42.40236" lon="2.47939">
        <ele>784</ele>
        <time>2018-11-28T11:35:03Z</time>
      </trkpt>
      <trkpt lat="42.40246" lon="2.47943">
        <ele>782.1</ele>
        <time>2018-11-28T11:35:07Z</time>
      </trkpt>
      <trkpt lat="42.40256" lon="2.47946">
        <ele>779</ele>
        <time>2018-11-28T11:35:11Z</time>
      </trkpt>
      <trkpt lat="42.40266" lon="2.47949">
        <ele>780</ele>
        <time>2018-11-28T11:35:15Z</time>
      </trkpt>
      <trkpt lat="42.40274" lon="2.47951">
        <ele>782.1</ele>
        <time>2018-11-28T11:35:19Z</time>
      </trkpt>
      <trkpt lat="42.40284" lon="2.47953">
        <ele>779.1</ele>
        <time>2018-11-28T11:35:23Z</time>
      </trkpt>
      <trkpt lat="42.40292" lon="2.47957">
        <ele>782.1</ele>
        <time>2018-11-28T11:35:26Z</time>
      </trkpt>
      <trkpt lat="42.40298" lon="2.47958">
        <ele>781.1</ele>
        <time>2018-11-28T11:35:28Z</time>
      </trkpt>
      <trkpt lat="42.40303" lon="2.47958">
        <ele>781</ele>
        <time>2018-11-28T11:35:30Z</time>
      </trkpt>
      <trkpt lat="42.40313" lon="2.47962">
        <ele>785</ele>
        <time>2018-11-28T11:35:35Z</time>
      </trkpt>
      <trkpt lat="42.40318" lon="2.47963">
        <ele>786</ele>
        <time>2018-11-28T11:35:37Z</time>
      </trkpt>
      <trkpt lat="42.40323" lon="2.47965">
        <ele>785</ele>
        <time>2018-11-28T11:35:39Z</time>
      </trkpt>
      <trkpt lat="42.40331" lon="2.47969">
        <ele>788</ele>
        <time>2018-11-28T11:35:42Z</time>
      </trkpt>
      <trkpt lat="42.4034" lon="2.47971">
        <ele>787</ele>
        <time>2018-11-28T11:35:46Z</time>
      </trkpt>
      <trkpt lat="42.4035" lon="2.47972">
        <ele>785</ele>
        <time>2018-11-28T11:35:50Z</time>
      </trkpt>
      <trkpt lat="42.40355" lon="2.47983">
        <ele>786.1</ele>
        <time>2018-11-28T11:35:54Z</time>
      </trkpt>
      <trkpt lat="42.40364" lon="2.47978">
        <ele>782.1</ele>
        <time>2018-11-28T11:35:57Z</time>
      </trkpt>
      <trkpt lat="42.4037" lon="2.47987">
        <ele>784.1</ele>
        <time>2018-11-28T11:36:01Z</time>
      </trkpt>
      <trkpt lat="42.40369" lon="2.47999">
        <ele>786.1</ele>
        <time>2018-11-28T11:36:05Z</time>
      </trkpt>
      <trkpt lat="42.40367" lon="2.48008">
        <ele>794.1</ele>
        <time>2018-11-28T11:36:07Z</time>
      </trkpt>
      <trkpt lat="42.40366" lon="2.4802">
        <ele>794.1</ele>
        <time>2018-11-28T11:36:11Z</time>
      </trkpt>
      <trkpt lat="42.40364" lon="2.48033">
        <ele>793.1</ele>
        <time>2018-11-28T11:36:15Z</time>
      </trkpt>
      <trkpt lat="42.40368" lon="2.48044">
        <ele>787</ele>
        <time>2018-11-28T11:36:19Z</time>
      </trkpt>
      <trkpt lat="42.40366" lon="2.48057">
        <ele>787</ele>
        <time>2018-11-28T11:36:22Z</time>
      </trkpt>
      <trkpt lat="42.40367" lon="2.48059">
        <ele>786</ele>
        <time>2018-11-28T11:36:23Z</time>
      </trkpt>
      <trkpt lat="42.40365" lon="2.48053">
        <ele>789</ele>
        <time>2018-11-28T11:36:25Z</time>
      </trkpt>
      <trkpt lat="42.40372" lon="2.48041">
        <ele>792.1</ele>
        <time>2018-11-28T11:36:30Z</time>
      </trkpt>
      <trkpt lat="42.40374" lon="2.48033">
        <ele>793</ele>
        <time>2018-11-28T11:36:32Z</time>
      </trkpt>
      <trkpt lat="42.40379" lon="2.48021">
        <ele>789.1</ele>
        <time>2018-11-28T11:36:36Z</time>
      </trkpt>
      <trkpt lat="42.40377" lon="2.48007">
        <ele>791.1</ele>
        <time>2018-11-28T11:36:40Z</time>
      </trkpt>
      <trkpt lat="42.4037" lon="2.47999">
        <ele>797.1</ele>
        <time>2018-11-28T11:36:44Z</time>
      </trkpt>
      <trkpt lat="42.40377" lon="2.4799">
        <ele>796.1</ele>
        <time>2018-11-28T11:36:48Z</time>
      </trkpt>
      <trkpt lat="42.40383" lon="2.47984">
        <ele>799.1</ele>
        <time>2018-11-28T11:36:51Z</time>
      </trkpt>
      <trkpt lat="42.40387" lon="2.47985">
        <ele>794.1</ele>
        <time>2018-11-28T11:36:53Z</time>
      </trkpt>
      <trkpt lat="42.40389" lon="2.47978">
        <ele>794</ele>
        <time>2018-11-28T11:36:55Z</time>
      </trkpt>
      <trkpt lat="42.40389" lon="2.47986">
        <ele>793</ele>
        <time>2018-11-28T11:36:57Z</time>
      </trkpt>
      <trkpt lat="42.40394" lon="2.47988">
        <ele>794</ele>
        <time>2018-11-28T11:37:00Z</time>
      </trkpt>
      <trkpt lat="42.4039" lon="2.47982">
        <ele>794</ele>
        <time>2018-11-28T11:37:02Z</time>
      </trkpt>
      <trkpt lat="42.40388" lon="2.4797">
        <ele>793.1</ele>
        <time>2018-11-28T11:37:05Z</time>
      </trkpt>
      <trkpt lat="42.40393" lon="2.47958">
        <ele>792.1</ele>
        <time>2018-11-28T11:37:09Z</time>
      </trkpt>
      <trkpt lat="42.40392" lon="2.47945">
        <ele>790</ele>
        <time>2018-11-28T11:37:13Z</time>
      </trkpt>
      <trkpt lat="42.40401" lon="2.47936">
        <ele>790.1</ele>
        <time>2018-11-28T11:37:18Z</time>
      </trkpt>
      <trkpt lat="42.40396" lon="2.47932">
        <ele>793.1</ele>
        <time>2018-11-28T11:37:20Z</time>
      </trkpt>
      <trkpt lat="42.40396" lon="2.47924">
        <ele>793.1</ele>
        <time>2018-11-28T11:37:23Z</time>
      </trkpt>
      <trkpt lat="42.40401" lon="2.47913">
        <ele>794</ele>
        <time>2018-11-28T11:37:27Z</time>
      </trkpt>
      <trkpt lat="42.40397" lon="2.47909">
        <ele>793.1</ele>
        <time>2018-11-28T11:37:29Z</time>
      </trkpt>
      <trkpt lat="42.40399" lon="2.47901">
        <ele>793</ele>
        <time>2018-11-28T11:37:31Z</time>
      </trkpt>
      <trkpt lat="42.40399" lon="2.47888">
        <ele>786</ele>
        <time>2018-11-28T11:37:35Z</time>
      </trkpt>
      <trkpt lat="42.40401" lon="2.4787">
        <ele>796</ele>
        <time>2018-11-28T11:37:40Z</time>
      </trkpt>
      <trkpt lat="42.40398" lon="2.47864">
        <ele>796</ele>
        <time>2018-11-28T11:37:42Z</time>
      </trkpt>
      <trkpt lat="42.40403" lon="2.47854">
        <ele>794.1</ele>
        <time>2018-11-28T11:37:46Z</time>
      </trkpt>
      <trkpt lat="42.40404" lon="2.47847">
        <ele>796.1</ele>
        <time>2018-11-28T11:37:48Z</time>
      </trkpt>
      <trkpt lat="42.40408" lon="2.47839">
        <ele>796.1</ele>
        <time>2018-11-28T11:37:51Z</time>
      </trkpt>
      <trkpt lat="42.40406" lon="2.47821">
        <ele>795</ele>
        <time>2018-11-28T11:37:56Z</time>
      </trkpt>
      <trkpt lat="42.40405" lon="2.47809">
        <ele>794.1</ele>
        <time>2018-11-28T11:38:00Z</time>
      </trkpt>
      <trkpt lat="42.40415" lon="2.478">
        <ele>795.1</ele>
        <time>2018-11-28T11:38:05Z</time>
      </trkpt>
      <trkpt lat="42.40423" lon="2.47793">
        <ele>793</ele>
        <time>2018-11-28T11:38:08Z</time>
      </trkpt>
      <trkpt lat="42.40423" lon="2.4778">
        <ele>799</ele>
        <time>2018-11-28T11:38:12Z</time>
      </trkpt>
      <trkpt lat="42.40418" lon="2.47778">
        <ele>807.1</ele>
        <time>2018-11-28T11:38:14Z</time>
      </trkpt>
      <trkpt lat="42.40417" lon="2.47778">
        <ele>810</ele>
        <time>2018-11-28T11:38:15Z</time>
      </trkpt>
      <trkpt lat="42.40418" lon="2.47771">
        <ele>809</ele>
        <time>2018-11-28T11:38:17Z</time>
      </trkpt>
      <trkpt lat="42.40423" lon="2.47772">
        <ele>804.1</ele>
        <time>2018-11-28T11:38:19Z</time>
      </trkpt>
      <trkpt lat="42.40428" lon="2.47774">
        <ele>799.1</ele>
        <time>2018-11-28T11:38:21Z</time>
      </trkpt>
      <trkpt lat="42.40428" lon="2.47782">
        <ele>798.1</ele>
        <time>2018-11-28T11:38:23Z</time>
      </trkpt>
      <trkpt lat="42.40425" lon="2.47774">
        <ele>800.1</ele>
        <time>2018-11-28T11:38:26Z</time>
      </trkpt>
      <trkpt lat="42.4043" lon="2.47777">
        <ele>800.1</ele>
        <time>2018-11-28T11:38:28Z</time>
      </trkpt>
      <trkpt lat="42.40446" lon="2.47771">
        <ele>789</ele>
        <time>2018-11-28T11:38:35Z</time>
      </trkpt>
      <trkpt lat="42.40456" lon="2.47772">
        <ele>783</ele>
        <time>2018-11-28T11:38:39Z</time>
      </trkpt>
      <trkpt lat="42.40451" lon="2.47787">
        <ele>780.1</ele>
        <time>2018-11-28T11:38:43Z</time>
      </trkpt>
      <trkpt lat="42.40456" lon="2.47782">
        <ele>784.1</ele>
        <time>2018-11-28T11:38:46Z</time>
      </trkpt>
      <trkpt lat="42.40463" lon="2.47774">
        <ele>784</ele>
        <time>2018-11-28T11:38:49Z</time>
      </trkpt>
      <trkpt lat="42.40467" lon="2.47785">
        <ele>786</ele>
        <time>2018-11-28T11:38:53Z</time>
      </trkpt>
      <trkpt lat="42.40465" lon="2.47796">
        <ele>788</ele>
        <time>2018-11-28T11:38:56Z</time>
      </trkpt>
      <trkpt lat="42.4047" lon="2.47799">
        <ele>791.1</ele>
        <time>2018-11-28T11:38:59Z</time>
      </trkpt>
      <trkpt lat="42.40462" lon="2.47804">
        <ele>795</ele>
        <time>2018-11-28T11:39:02Z</time>
      </trkpt>
      <trkpt lat="42.40455" lon="2.47802">
        <ele>797.1</ele>
        <time>2018-11-28T11:39:05Z</time>
      </trkpt>
      <trkpt lat="42.4045" lon="2.47807">
        <ele>796.1</ele>
        <time>2018-11-28T11:39:07Z</time>
      </trkpt>
      <trkpt lat="42.4045" lon="2.47808">
        <ele>797</ele>
        <time>2018-11-28T11:39:08Z</time>
      </trkpt>
      <trkpt lat="42.40455" lon="2.47815">
        <ele>802.1</ele>
        <time>2018-11-28T11:39:11Z</time>
      </trkpt>
      <trkpt lat="42.40457" lon="2.47828">
        <ele>802.1</ele>
        <time>2018-11-28T11:39:15Z</time>
      </trkpt>
      <trkpt lat="42.40455" lon="2.47841">
        <ele>811.1</ele>
        <time>2018-11-28T11:39:19Z</time>
      </trkpt>
      <trkpt lat="42.4045" lon="2.47851">
        <ele>808.1</ele>
        <time>2018-11-28T11:39:22Z</time>
      </trkpt>
      <trkpt lat="42.40449" lon="2.47857">
        <ele>808.1</ele>
        <time>2018-11-28T11:39:24Z</time>
      </trkpt>
      <trkpt lat="42.4045" lon="2.47858">
        <ele>807</ele>
        <time>2018-11-28T11:39:24Z</time>
      </trkpt>
      <trkpt lat="42.40443" lon="2.47867">
        <ele>806</ele>
        <time>2018-11-28T11:39:28Z</time>
      </trkpt>
      <trkpt lat="42.40445" lon="2.47875">
        <ele>809</ele>
        <time>2018-11-28T11:39:31Z</time>
      </trkpt>
      <trkpt lat="42.40448" lon="2.47887">
        <ele>804.1</ele>
        <time>2018-11-28T11:39:34Z</time>
      </trkpt>
      <trkpt lat="42.40449" lon="2.47893">
        <ele>804</ele>
        <time>2018-11-28T11:39:36Z</time>
      </trkpt>
      <trkpt lat="42.40456" lon="2.479">
        <ele>805.1</ele>
        <time>2018-11-28T11:39:40Z</time>
      </trkpt>
      <trkpt lat="42.4046" lon="2.47906">
        <ele>805.1</ele>
        <time>2018-11-28T11:39:42Z</time>
      </trkpt>
      <trkpt lat="42.40465" lon="2.47909">
        <ele>803</ele>
        <time>2018-11-28T11:39:44Z</time>
      </trkpt>
      <trkpt lat="42.40472" lon="2.4791">
        <ele>803.1</ele>
        <time>2018-11-28T11:39:47Z</time>
      </trkpt>
      <trkpt lat="42.40463" lon="2.47911">
        <ele>805.1</ele>
        <time>2018-11-28T11:39:51Z</time>
      </trkpt>
      <trkpt lat="42.40474" lon="2.47908">
        <ele>807.1</ele>
        <time>2018-11-28T11:39:56Z</time>
      </trkpt>
      <trkpt lat="42.40484" lon="2.47908">
        <ele>807</ele>
        <time>2018-11-28T11:40:00Z</time>
      </trkpt>
      <trkpt lat="42.40207" lon="2.4789">
        <ele>785.7</ele>
        <time>2018-11-28T15:03:49Z</time>
      </trkpt>
      <trkpt lat="42.40208" lon="2.4789">
        <ele>785.4</ele>
        <time>2018-11-28T15:03:49Z</time>
      </trkpt>
      <trkpt lat="42.40216" lon="2.47881">
        <ele>785.7</ele>
        <time>2018-11-28T15:03:53Z</time>
      </trkpt>
      <trkpt lat="42.40224" lon="2.47866">
        <ele>786.7</ele>
        <time>2018-11-28T15:03:58Z</time>
      </trkpt>
      <trkpt lat="42.4025" lon="2.47846">
        <ele>781.1</ele>
        <time>2018-11-28T15:04:10Z</time>
      </trkpt>
      <trkpt lat="42.40265" lon="2.47828">
        <ele>779.3</ele>
        <time>2018-11-28T15:04:18Z</time>
      </trkpt>
      <trkpt lat="42.40291" lon="2.47806">
        <ele>774.2</ele>
        <time>2018-11-28T15:04:30Z</time>
      </trkpt>
      <trkpt lat="42.40294" lon="2.47805">
        <ele>773.2</ele>
        <time>2018-11-28T15:04:32Z</time>
      </trkpt>
      <trkpt lat="42.40303" lon="2.47796">
        <ele>771.5</ele>
        <time>2018-11-28T15:04:36Z</time>
      </trkpt>
      <trkpt lat="42.40294" lon="2.47798">
        <ele>775.1</ele>
        <time>2018-11-28T15:04:40Z</time>
      </trkpt>
      <trkpt lat="42.40281" lon="2.478">
        <ele>780.6</ele>
        <time>2018-11-28T15:04:45Z</time>
      </trkpt>
      <trkpt lat="42.40254" lon="2.47817">
        <ele>787.6</ele>
        <time>2018-11-28T15:04:57Z</time>
      </trkpt>
      <trkpt lat="42.40241" lon="2.47827">
        <ele>790.1</ele>
        <time>2018-11-28T15:05:03Z</time>
      </trkpt>
      <trkpt lat="42.40249" lon="2.47838">
        <ele>783.7</ele>
        <time>2018-11-28T15:05:08Z</time>
      </trkpt>
      <trkpt lat="42.40246" lon="2.47836">
        <ele>785.6</ele>
        <time>2018-11-28T15:05:09Z</time>
      </trkpt>
      <trkpt lat="42.40228" lon="2.47848">
        <ele>789.9</ele>
        <time>2018-11-28T15:05:17Z</time>
      </trkpt>
      <trkpt lat="42.40215" lon="2.47854">
        <ele>794.4</ele>
        <time>2018-11-28T15:05:23Z</time>
      </trkpt>
      <trkpt lat="42.40195" lon="2.47867">
        <ele>793.6</ele>
        <time>2018-11-28T15:05:31Z</time>
      </trkpt>
      <trkpt lat="42.40185" lon="2.47871">
        <ele>792.5</ele>
        <time>2018-11-28T15:05:35Z</time>
      </trkpt>
      <trkpt lat="42.40178" lon="2.47883">
        <ele>788.8</ele>
        <time>2018-11-28T15:05:40Z</time>
      </trkpt>
      <trkpt lat="42.40164" lon="2.4789">
        <ele>786.3</ele>
        <time>2018-11-28T15:05:46Z</time>
      </trkpt>
      <trkpt lat="42.40153" lon="2.47902">
        <ele>782</ele>
        <time>2018-11-28T15:05:52Z</time>
      </trkpt>
      <trkpt lat="42.40142" lon="2.47918">
        <ele>777</ele>
        <time>2018-11-28T15:05:58Z</time>
      </trkpt>
      <trkpt lat="42.4013" lon="2.47909">
        <ele>780.1</ele>
        <time>2018-11-28T15:06:03Z</time>
      </trkpt>
      <trkpt lat="42.40124" lon="2.47907">
        <ele>780.4</ele>
        <time>2018-11-28T15:06:06Z</time>
      </trkpt>
      <trkpt lat="42.40089" lon="2.47891">
        <ele>774.1</ele>
        <time>2018-11-28T15:06:21Z</time>
      </trkpt>
      <trkpt lat="42.40085" lon="2.47886">
        <ele>774.1</ele>
        <time>2018-11-28T15:06:23Z</time>
      </trkpt>
      <trkpt lat="42.40069" lon="2.47866">
        <ele>772.4</ele>
        <time>2018-11-28T15:06:31Z</time>
      </trkpt>
      <trkpt lat="42.40057" lon="2.47848">
        <ele>771.4</ele>
        <time>2018-11-28T15:06:38Z</time>
      </trkpt>
      <trkpt lat="42.40048" lon="2.4783">
        <ele>771.3</ele>
        <time>2018-11-28T15:06:45Z</time>
      </trkpt>
      <trkpt lat="42.40041" lon="2.47801">
        <ele>774.2</ele>
        <time>2018-11-28T15:06:54Z</time>
      </trkpt>
      <trkpt lat="42.40048" lon="2.47791">
        <ele>779.1</ele>
        <time>2018-11-28T15:06:58Z</time>
      </trkpt>
      <trkpt lat="42.40057" lon="2.47806">
        <ele>779.8</ele>
        <time>2018-11-28T15:07:04Z</time>
      </trkpt>
      <trkpt lat="42.40072" lon="2.47811">
        <ele>785.3</ele>
        <time>2018-11-28T15:07:10Z</time>
      </trkpt>
      <trkpt lat="42.40098" lon="2.47811">
        <ele>796.1</ele>
        <time>2018-11-28T15:07:21Z</time>
      </trkpt>
      <trkpt lat="42.4011" lon="2.4781">
        <ele>801.3</ele>
        <time>2018-11-28T15:07:25Z</time>
      </trkpt>
      <trkpt lat="42.40104" lon="2.47793">
        <ele>802.6</ele>
        <time>2018-11-28T15:07:31Z</time>
      </trkpt>
      <trkpt lat="42.4009" lon="2.47766">
        <ele>800.3</ele>
        <time>2018-11-28T15:07:40Z</time>
      </trkpt>
      <trkpt lat="42.40077" lon="2.47736">
        <ele>798.6</ele>
        <time>2018-11-28T15:07:51Z</time>
      </trkpt>
      <trkpt lat="42.40078" lon="2.47719">
        <ele>801.2</ele>
        <time>2018-11-28T15:07:56Z</time>
      </trkpt>
      <trkpt lat="42.40071" lon="2.47689">
        <ele>802.9</ele>
        <time>2018-11-28T15:08:05Z</time>
      </trkpt>
      <trkpt lat="42.40071" lon="2.47666">
        <ele>808.1</ele>
        <time>2018-11-28T15:08:12Z</time>
      </trkpt>
      <trkpt lat="42.40076" lon="2.47651">
        <ele>813.6</ele>
        <time>2018-11-28T15:08:17Z</time>
      </trkpt>
      <trkpt lat="42.4007" lon="2.47629">
        <ele>815.6</ele>
        <time>2018-11-28T15:08:24Z</time>
      </trkpt>
      <trkpt lat="42.4006" lon="2.47604">
        <ele>814.3</ele>
        <time>2018-11-28T15:08:32Z</time>
      </trkpt>
      <trkpt lat="42.4005" lon="2.47578">
        <ele>813.1</ele>
        <time>2018-11-28T15:08:41Z</time>
      </trkpt>
      <trkpt lat="42.40046" lon="2.4755">
        <ele>814.9</ele>
        <time>2018-11-28T15:08:49Z</time>
      </trkpt>
      <trkpt lat="42.40042" lon="2.47528">
        <ele>818</ele>
        <time>2018-11-28T15:08:56Z</time>
      </trkpt>
      <trkpt lat="42.40039" lon="2.47502">
        <ele>824.3</ele>
        <time>2018-11-28T15:09:04Z</time>
      </trkpt>
      <trkpt lat="42.40037" lon="2.47473">
        <ele>831.5</ele>
        <time>2018-11-28T15:09:12Z</time>
      </trkpt>
      <trkpt lat="42.40035" lon="2.47435">
        <ele>842.4</ele>
        <time>2018-11-28T15:09:23Z</time>
      </trkpt>
      <trkpt lat="42.40041" lon="2.47429">
        <ele>846.8</ele>
        <time>2018-11-28T15:09:27Z</time>
      </trkpt>
      <trkpt lat="42.40047" lon="2.47454">
        <ele>841.2</ele>
        <time>2018-11-28T15:09:34Z</time>
      </trkpt>
      <trkpt lat="42.40052" lon="2.47472">
        <ele>838.5</ele>
        <time>2018-11-28T15:09:40Z</time>
      </trkpt>
      <trkpt lat="42.40067" lon="2.47499">
        <ele>837.2</ele>
        <time>2018-11-28T15:09:50Z</time>
      </trkpt>
      <trkpt lat="42.40069" lon="2.47503">
        <ele>837.2</ele>
        <time>2018-11-28T15:09:51Z</time>
      </trkpt>
      <trkpt lat="42.40086" lon="2.47522">
        <ele>840.3</ele>
        <time>2018-11-28T15:10:00Z</time>
      </trkpt>
      <trkpt lat="42.40106" lon="2.47523">
        <ele>849.2</ele>
        <time>2018-11-28T15:10:08Z</time>
      </trkpt>
      <trkpt lat="42.40111" lon="2.47502">
        <ele>855.7</ele>
        <time>2018-11-28T15:10:15Z</time>
      </trkpt>
      <trkpt lat="42.40099" lon="2.47491">
        <ele>852.6</ele>
        <time>2018-11-28T15:10:21Z</time>
      </trkpt>
      <trkpt lat="42.40103" lon="2.47476">
        <ele>857.1</ele>
        <time>2018-11-28T15:10:25Z</time>
      </trkpt>
      <trkpt lat="42.40106" lon="2.47444">
        <ele>865.4</ele>
        <time>2018-11-28T15:10:35Z</time>
      </trkpt>
      <trkpt lat="42.40111" lon="2.47431">
        <ele>869.6</ele>
        <time>2018-11-28T15:10:39Z</time>
      </trkpt>
      <trkpt lat="42.40101" lon="2.47418">
        <ele>869.4</ele>
        <time>2018-11-28T15:10:45Z</time>
      </trkpt>
      <trkpt lat="42.40095" lon="2.47396">
        <ele>872.7</ele>
        <time>2018-11-28T15:10:52Z</time>
      </trkpt>
      <trkpt lat="42.40095" lon="2.47394">
        <ele>873.3</ele>
        <time>2018-11-28T15:10:52Z</time>
      </trkpt>
      <trkpt lat="42.40094" lon="2.47382">
        <ele>875.7</ele>
        <time>2018-11-28T15:10:56Z</time>
      </trkpt>
      <trkpt lat="42.40093" lon="2.47365">
        <ele>879.7</ele>
        <time>2018-11-28T15:11:01Z</time>
      </trkpt>
      <trkpt lat="42.40091" lon="2.4734">
        <ele>884.7</ele>
        <time>2018-11-28T15:11:08Z</time>
      </trkpt>
      <trkpt lat="42.40092" lon="2.47331">
        <ele>886.9</ele>
        <time>2018-11-28T15:11:11Z</time>
      </trkpt>
      <trkpt lat="42.40092" lon="2.47307">
        <ele>892.5</ele>
        <time>2018-11-28T15:11:18Z</time>
      </trkpt>
      <trkpt lat="42.40087" lon="2.47295">
        <ele>894</ele>
        <time>2018-11-28T15:11:22Z</time>
      </trkpt>
      <trkpt lat="42.40075" lon="2.47285">
        <ele>893.7</ele>
        <time>2018-11-28T15:11:28Z</time>
      </trkpt>
      <trkpt lat="42.40076" lon="2.47269">
        <ele>896.8</ele>
        <time>2018-11-28T15:11:32Z</time>
      </trkpt>
      <trkpt lat="42.40071" lon="2.47261">
        <ele>897.1</ele>
        <time>2018-11-28T15:11:35Z</time>
      </trkpt>
      <trkpt lat="42.40064" lon="2.47252">
        <ele>897.5</ele>
        <time>2018-11-28T15:11:39Z</time>
      </trkpt>
      <trkpt lat="42.40055" lon="2.47233">
        <ele>899.2</ele>
        <time>2018-11-28T15:11:46Z</time>
      </trkpt>
      <trkpt lat="42.40048" lon="2.47235">
        <ele>897.3</ele>
        <time>2018-11-28T15:11:49Z</time>
      </trkpt>
      <trkpt lat="42.4004" lon="2.4722">
        <ele>898.1</ele>
        <time>2018-11-28T15:11:54Z</time>
      </trkpt>
      <trkpt lat="42.40039" lon="2.47219">
        <ele>898</ele>
        <time>2018-11-28T15:11:55Z</time>
      </trkpt>
      <trkpt lat="42.40033" lon="2.4721">
        <ele>898</ele>
        <time>2018-11-28T15:11:58Z</time>
      </trkpt>
      <trkpt lat="42.40029" lon="2.47204">
        <ele>898</ele>
        <time>2018-11-28T15:12:00Z</time>
      </trkpt>
      <trkpt lat="42.40026" lon="2.47204">
        <ele>897</ele>
        <time>2018-11-28T15:12:02Z</time>
      </trkpt>
      <trkpt lat="42.40021" lon="2.47201">
        <ele>896.3</ele>
        <time>2018-11-28T15:12:04Z</time>
      </trkpt>
      <trkpt lat="42.40015" lon="2.47189">
        <ele>897.2</ele>
        <time>2018-11-28T15:12:08Z</time>
      </trkpt>
      <trkpt lat="42.4001" lon="2.47174">
        <ele>898.7</ele>
        <time>2018-11-28T15:12:13Z</time>
      </trkpt>
      <trkpt lat="42.40004" lon="2.47158">
        <ele>900.3</ele>
        <time>2018-11-28T15:12:18Z</time>
      </trkpt>
      <trkpt lat="42.39997" lon="2.4715">
        <ele>900.2</ele>
        <time>2018-11-28T15:12:22Z</time>
      </trkpt>
      <trkpt lat="42.39994" lon="2.4714">
        <ele>901.4</ele>
        <time>2018-11-28T15:12:25Z</time>
      </trkpt>
      <trkpt lat="42.39988" lon="2.47108">
        <ele>908.4</ele>
        <time>2018-11-28T15:12:35Z</time>
      </trkpt>
      <trkpt lat="42.39985" lon="2.47096">
        <ele>911.5</ele>
        <time>2018-11-28T15:12:39Z</time>
      </trkpt>
      <trkpt lat="42.3998" lon="2.47079">
        <ele>915.6</ele>
        <time>2018-11-28T15:12:44Z</time>
      </trkpt>
      <trkpt lat="42.39978" lon="2.4707">
        <ele>918</ele>
        <time>2018-11-28T15:12:47Z</time>
      </trkpt>
      <trkpt lat="42.39977" lon="2.47069">
        <ele>918.3</ele>
        <time>2018-11-28T15:12:47Z</time>
      </trkpt>
      <trkpt lat="42.39975" lon="2.47049">
        <ele>924.2</ele>
        <time>2018-11-28T15:12:53Z</time>
      </trkpt>
      <trkpt lat="42.39968" lon="2.4703">
        <ele>928.2</ele>
        <time>2018-11-28T15:12:59Z</time>
      </trkpt>
      <trkpt lat="42.3996" lon="2.47019">
        <ele>930.1</ele>
        <time>2018-11-28T15:13:04Z</time>
      </trkpt>
      <trkpt lat="42.39958" lon="2.47009">
        <ele>932.8</ele>
        <time>2018-11-28T15:13:07Z</time>
      </trkpt>
      <trkpt lat="42.39952" lon="2.46981">
        <ele>940.5</ele>
        <time>2018-11-28T15:13:16Z</time>
      </trkpt>
      <trkpt lat="42.39944" lon="2.46966">
        <ele>944.5</ele>
        <time>2018-11-28T15:13:21Z</time>
      </trkpt>
      <trkpt lat="42.39934" lon="2.46941">
        <ele>949.1</ele>
        <time>2018-11-28T15:13:29Z</time>
      </trkpt>
      <trkpt lat="42.39927" lon="2.46928">
        <ele>951</ele>
        <time>2018-11-28T15:13:34Z</time>
      </trkpt>
      <trkpt lat="42.39904" lon="2.46935">
        <ele>948</ele>
        <time>2018-11-28T15:13:43Z</time>
      </trkpt>
      <trkpt lat="42.39881" lon="2.46949">
        <ele>943.5</ele>
        <time>2018-11-28T15:13:54Z</time>
      </trkpt>
      <trkpt lat="42.39871" lon="2.46924">
        <ele>948.3</ele>
        <time>2018-11-28T15:14:02Z</time>
      </trkpt>
      <trkpt lat="42.39856" lon="2.4691">
        <ele>950.5</ele>
        <time>2018-11-28T15:14:10Z</time>
      </trkpt>
      <trkpt lat="42.39837" lon="2.46896">
        <ele>953.1</ele>
        <time>2018-11-28T15:14:18Z</time>
      </trkpt>
      <trkpt lat="42.39809" lon="2.46876">
        <ele>957.3</ele>
        <time>2018-11-28T15:14:31Z</time>
      </trkpt>
      <trkpt lat="42.39793" lon="2.4687">
        <ele>958.7</ele>
        <time>2018-11-28T15:14:38Z</time>
      </trkpt>
      <trkpt lat="42.39769" lon="2.46866">
        <ele>961.7</ele>
        <time>2018-11-28T15:14:47Z</time>
      </trkpt>
      <trkpt lat="42.39758" lon="2.4686">
        <ele>964.1</ele>
        <time>2018-11-28T15:14:52Z</time>
      </trkpt>
      <trkpt lat="42.39741" lon="2.46854">
        <ele>967.5</ele>
        <time>2018-11-28T15:14:59Z</time>
      </trkpt>
      <trkpt lat="42.39714" lon="2.46849">
        <ele>971.4</ele>
        <time>2018-11-28T15:15:10Z</time>
      </trkpt>
      <trkpt lat="42.39714" lon="2.46839">
        <ele>974.5</ele>
        <time>2018-11-28T15:15:13Z</time>
      </trkpt>
      <trkpt lat="42.39702" lon="2.46827">
        <ele>978.1</ele>
        <time>2018-11-28T15:15:19Z</time>
      </trkpt>
      <trkpt lat="42.39682" lon="2.46826">
        <ele>977.3</ele>
        <time>2018-11-28T15:15:27Z</time>
      </trkpt>
      <trkpt lat="42.39663" lon="2.46842">
        <ele>972</ele>
        <time>2018-11-28T15:15:35Z</time>
      </trkpt>
      <trkpt lat="42.39643" lon="2.46832">
        <ele>973.8</ele>
        <time>2018-11-28T15:15:44Z</time>
      </trkpt>
      <trkpt lat="42.39634" lon="2.46825">
        <ele>975.1</ele>
        <time>2018-11-28T15:15:48Z</time>
      </trkpt>
      <trkpt lat="42.39632" lon="2.46823">
        <ele>975.4</ele>
        <time>2018-11-28T15:15:49Z</time>
      </trkpt>
      <trkpt lat="42.3962" lon="2.46808">
        <ele>978.5</ele>
        <time>2018-11-28T15:15:56Z</time>
      </trkpt>
      <trkpt lat="42.39603" lon="2.46803">
        <ele>979</ele>
        <time>2018-11-28T15:16:03Z</time>
      </trkpt>
      <trkpt lat="42.39588" lon="2.46796">
        <ele>979.6</ele>
        <time>2018-11-28T15:16:09Z</time>
      </trkpt>
      <trkpt lat="42.39566" lon="2.46777">
        <ele>984.2</ele>
        <time>2018-11-28T15:16:20Z</time>
      </trkpt>
      <trkpt lat="42.39562" lon="2.4677">
        <ele>986.6</ele>
        <time>2018-11-28T15:16:22Z</time>
      </trkpt>
      <trkpt lat="42.39544" lon="2.46753">
        <ele>991.8</ele>
        <time>2018-11-28T15:16:31Z</time>
      </trkpt>
      <trkpt lat="42.3953" lon="2.46748">
        <ele>993.4</ele>
        <time>2018-11-28T15:16:37Z</time>
      </trkpt>
      <trkpt lat="42.39509" lon="2.46739">
        <ele>995.2</ele>
        <time>2018-11-28T15:16:46Z</time>
      </trkpt>
      <trkpt lat="42.3949" lon="2.46743">
        <ele>993.1</ele>
        <time>2018-11-28T15:16:53Z</time>
      </trkpt>
      <trkpt lat="42.39473" lon="2.46749">
        <ele>990.8</ele>
        <time>2018-11-28T15:17:00Z</time>
      </trkpt>
      <trkpt lat="42.39458" lon="2.46745">
        <ele>991.1</ele>
        <time>2018-11-28T15:17:06Z</time>
      </trkpt>
      <trkpt lat="42.39445" lon="2.4675">
        <ele>986.1</ele>
        <time>2018-11-28T15:17:12Z</time>
      </trkpt>
      <trkpt lat="42.39431" lon="2.46733">
        <ele>985</ele>
        <time>2018-11-28T15:17:20Z</time>
      </trkpt>
      <trkpt lat="42.39426" lon="2.46718">
        <ele>986</ele>
        <time>2018-11-28T15:17:24Z</time>
      </trkpt>
      <trkpt lat="42.39442" lon="2.46708">
        <ele>993.4</ele>
        <time>2018-11-28T15:17:31Z</time>
      </trkpt>
      <trkpt lat="42.39458" lon="2.46722">
        <ele>995.9</ele>
        <time>2018-11-28T15:17:39Z</time>
      </trkpt>
      <trkpt lat="42.3945" lon="2.4672">
        <ele>993.7</ele>
        <time>2018-11-28T15:17:42Z</time>
      </trkpt>
      <trkpt lat="42.39468" lon="2.46725">
        <ele>996.4</ele>
        <time>2018-11-28T15:17:50Z</time>
      </trkpt>
      <trkpt lat="42.39485" lon="2.46706">
        <ele>1002.3</ele>
        <time>2018-11-28T15:17:58Z</time>
      </trkpt>
      <trkpt lat="42.39495" lon="2.46691">
        <ele>1006.3</ele>
        <time>2018-11-28T15:18:05Z</time>
      </trkpt>
      <trkpt lat="42.39514" lon="2.46678">
        <ele>1010.6</ele>
        <time>2018-11-28T15:18:13Z</time>
      </trkpt>
      <trkpt lat="42.39524" lon="2.46666">
        <ele>1014</ele>
        <time>2018-11-28T15:18:18Z</time>
      </trkpt>
      <trkpt lat="42.39511" lon="2.46659">
        <ele>1013.8</ele>
        <time>2018-11-28T15:18:24Z</time>
      </trkpt>
      <trkpt lat="42.395" lon="2.46664">
        <ele>1011.6</ele>
        <time>2018-11-28T15:18:28Z</time>
      </trkpt>
      <trkpt lat="42.39506" lon="2.46642">
        <ele>1016.3</ele>
        <time>2018-11-28T15:18:35Z</time>
      </trkpt>
      <trkpt lat="42.39515" lon="2.46617">
        <ele>1021.9</ele>
        <time>2018-11-28T15:18:44Z</time>
      </trkpt>
      <trkpt lat="42.39531" lon="2.46597">
        <ele>1027.2</ele>
        <time>2018-11-28T15:18:52Z</time>
      </trkpt>
      <trkpt lat="42.39546" lon="2.46581">
        <ele>1031.1</ele>
        <time>2018-11-28T15:19:00Z</time>
      </trkpt>
      <trkpt lat="42.39563" lon="2.4657">
        <ele>1033.6</ele>
        <time>2018-11-28T15:19:07Z</time>
      </trkpt>
      <trkpt lat="42.39571" lon="2.4657">
        <ele>1034</ele>
        <time>2018-11-28T15:19:11Z</time>
      </trkpt>
      <trkpt lat="42.39563" lon="2.46569">
        <ele>1033.9</ele>
        <time>2018-11-28T15:19:14Z</time>
      </trkpt>
      <trkpt lat="42.39553" lon="2.46559">
        <ele>1034.9</ele>
        <time>2018-11-28T15:19:19Z</time>
      </trkpt>
      <trkpt lat="42.39535" lon="2.46556">
        <ele>1034.3</ele>
        <time>2018-11-28T15:19:26Z</time>
      </trkpt>
      <trkpt lat="42.39529" lon="2.46551">
        <ele>1034.7</ele>
        <time>2018-11-28T15:19:29Z</time>
      </trkpt>
      <trkpt lat="42.39527" lon="2.46547">
        <ele>1035.4</ele>
        <time>2018-11-28T15:19:31Z</time>
      </trkpt>
      <trkpt lat="42.39526" lon="2.46545">
        <ele>1035.6</ele>
        <time>2018-11-28T15:19:32Z</time>
      </trkpt>
      <trkpt lat="42.39525" lon="2.46544">
        <ele>1035.7</ele>
        <time>2018-11-28T15:19:32Z</time>
      </trkpt>
      <trkpt lat="42.39515" lon="2.46531">
        <ele>1037.4</ele>
        <time>2018-11-28T15:19:38Z</time>
      </trkpt>
      <trkpt lat="42.39502" lon="2.46519">
        <ele>1038.6</ele>
        <time>2018-11-28T15:19:44Z</time>
      </trkpt>
      <trkpt lat="42.39493" lon="2.46504">
        <ele>1040.5</ele>
        <time>2018-11-28T15:19:49Z</time>
      </trkpt>
      <trkpt lat="42.39487" lon="2.46486">
        <ele>1043.3</ele>
        <time>2018-11-28T15:19:55Z</time>
      </trkpt>
      <trkpt lat="42.39474" lon="2.46448">
        <ele>1048.5</ele>
        <time>2018-11-28T15:20:08Z</time>
      </trkpt>
      <trkpt lat="42.39466" lon="2.46437">
        <ele>1049.3</ele>
        <time>2018-11-28T15:20:12Z</time>
      </trkpt>
      <trkpt lat="42.39452" lon="2.46427">
        <ele>1048.2</ele>
        <time>2018-11-28T15:20:19Z</time>
      </trkpt>
      <trkpt lat="42.39437" lon="2.46425">
        <ele>1044.8</ele>
        <time>2018-11-28T15:20:25Z</time>
      </trkpt>
      <trkpt lat="42.3943" lon="2.46414">
        <ele>1044.4</ele>
        <time>2018-11-28T15:20:29Z</time>
      </trkpt>
      <trkpt lat="42.39428" lon="2.46411">
        <ele>1044.4</ele>
        <time>2018-11-28T15:20:30Z</time>
      </trkpt>
      <trkpt lat="42.39428" lon="2.46391">
        <ele>1046.7</ele>
        <time>2018-11-28T15:20:36Z</time>
      </trkpt>
      <trkpt lat="42.39423" lon="2.46369">
        <ele>1048.5</ele>
        <time>2018-11-28T15:20:43Z</time>
      </trkpt>
      <trkpt lat="42.39417" lon="2.46353">
        <ele>1049.9</ele>
        <time>2018-11-28T15:20:48Z</time>
      </trkpt>
      <trkpt lat="42.39411" lon="2.46328">
        <ele>1052.4</ele>
        <time>2018-11-28T15:20:56Z</time>
      </trkpt>
      <trkpt lat="42.39409" lon="2.46321">
        <ele>1053.2</ele>
        <time>2018-11-28T15:20:58Z</time>
      </trkpt>
      <trkpt lat="42.39399" lon="2.46292">
        <ele>1055.5</ele>
        <time>2018-11-28T15:21:07Z</time>
      </trkpt>
      <trkpt lat="42.39397" lon="2.46279">
        <ele>1056.5</ele>
        <time>2018-11-28T15:21:11Z</time>
      </trkpt>
      <trkpt lat="42.39395" lon="2.46272">
        <ele>1057.2</ele>
        <time>2018-11-28T15:21:13Z</time>
      </trkpt>
      <trkpt lat="42.39394" lon="2.4627">
        <ele>1057.2</ele>
        <time>2018-11-28T15:21:14Z</time>
      </trkpt>
      <trkpt lat="42.39388" lon="2.46241">
        <ele>1059.9</ele>
        <time>2018-11-28T15:21:23Z</time>
      </trkpt>
      <trkpt lat="42.39388" lon="2.46235">
        <ele>1060.5</ele>
        <time>2018-11-28T15:21:25Z</time>
      </trkpt>
      <trkpt lat="42.39382" lon="2.46211">
        <ele>1062.4</ele>
        <time>2018-11-28T15:21:33Z</time>
      </trkpt>
      <trkpt lat="42.39381" lon="2.46204">
        <ele>1063.2</ele>
        <time>2018-11-28T15:21:35Z</time>
      </trkpt>
      <trkpt lat="42.39381" lon="2.46202">
        <ele>1063.4</ele>
        <time>2018-11-28T15:21:35Z</time>
      </trkpt>
      <trkpt lat="42.39375" lon="2.4618">
        <ele>1065.2</ele>
        <time>2018-11-28T15:21:42Z</time>
      </trkpt>
      <trkpt lat="42.39371" lon="2.46159">
        <ele>1066.6</ele>
        <time>2018-11-28T15:21:48Z</time>
      </trkpt>
      <trkpt lat="42.39362" lon="2.46139">
        <ele>1066</ele>
        <time>2018-11-28T15:21:56Z</time>
      </trkpt>
      <trkpt lat="42.39359" lon="2.46131">
        <ele>1065.8</ele>
        <time>2018-11-28T15:21:58Z</time>
      </trkpt>
      <trkpt lat="42.39356" lon="2.46117">
        <ele>1065.3</ele>
        <time>2018-11-28T15:22:03Z</time>
      </trkpt>
      <trkpt lat="42.3935" lon="2.46095">
        <ele>1063.3</ele>
        <time>2018-11-28T15:22:09Z</time>
      </trkpt>
      <trkpt lat="42.39342" lon="2.46082">
        <ele>1060.7</ele>
        <time>2018-11-28T15:22:14Z</time>
      </trkpt>
      <trkpt lat="42.39341" lon="2.4608">
        <ele>1060.2</ele>
        <time>2018-11-28T15:22:15Z</time>
      </trkpt>
      <trkpt lat="42.39339" lon="2.46074">
        <ele>1059.6</ele>
        <time>2018-11-28T15:22:17Z</time>
      </trkpt>
      <trkpt lat="42.39338" lon="2.46065">
        <ele>1059.6</ele>
        <time>2018-11-28T15:22:20Z</time>
      </trkpt>
      <trkpt lat="42.39338" lon="2.46064">
        <ele>1059.5</ele>
        <time>2018-11-28T15:22:20Z</time>
      </trkpt>
      <trkpt lat="42.39337" lon="2.46057">
        <ele>1059.3</ele>
        <time>2018-11-28T15:22:22Z</time>
      </trkpt>
      <trkpt lat="42.39337" lon="2.46054">
        <ele>1059.6</ele>
        <time>2018-11-28T15:22:23Z</time>
      </trkpt>
      <trkpt lat="42.39339" lon="2.46047">
        <ele>1060</ele>
        <time>2018-11-28T15:22:25Z</time>
      </trkpt>
      <trkpt lat="42.39339" lon="2.46044">
        <ele>1060.3</ele>
        <time>2018-11-28T15:22:26Z</time>
      </trkpt>
      <trkpt lat="42.3935" lon="2.46037">
        <ele>1063.8</ele>
        <time>2018-11-28T15:22:31Z</time>
      </trkpt>
      <trkpt lat="42.39352" lon="2.46035">
        <ele>1065</ele>
        <time>2018-11-28T15:22:32Z</time>
      </trkpt>
      <trkpt lat="42.39356" lon="2.46032">
        <ele>1066.3</ele>
        <time>2018-11-28T15:22:34Z</time>
      </trkpt>
      <trkpt lat="42.39366" lon="2.46028">
        <ele>1069.3</ele>
        <time>2018-11-28T15:22:38Z</time>
      </trkpt>
      <trkpt lat="42.39383" lon="2.4603">
        <ele>1073.8</ele>
        <time>2018-11-28T15:22:45Z</time>
      </trkpt>
      <trkpt lat="42.39389" lon="2.46033">
        <ele>1075.6</ele>
        <time>2018-11-28T15:22:47Z</time>
      </trkpt>
      <trkpt lat="42.39397" lon="2.4606">
        <ele>1077.6</ele>
        <time>2018-11-28T15:22:56Z</time>
      </trkpt>
      <trkpt lat="42.39399" lon="2.46063">
        <ele>1078</ele>
        <time>2018-11-28T15:22:57Z</time>
      </trkpt>
      <trkpt lat="42.39404" lon="2.46064">
        <ele>1079.2</ele>
        <time>2018-11-28T15:22:59Z</time>
      </trkpt>
      <trkpt lat="42.39409" lon="2.46056">
        <ele>1080.6</ele>
        <time>2018-11-28T15:23:02Z</time>
      </trkpt>
      <trkpt lat="42.39413" lon="2.46034">
        <ele>1082.3</ele>
        <time>2018-11-28T15:23:09Z</time>
      </trkpt>
      <trkpt lat="42.39415" lon="2.46022">
        <ele>1083.3</ele>
        <time>2018-11-28T15:23:13Z</time>
      </trkpt>
      <trkpt lat="42.39423" lon="2.45992">
        <ele>1086.5</ele>
        <time>2018-11-28T15:23:22Z</time>
      </trkpt>
      <trkpt lat="42.39431" lon="2.4599">
        <ele>1088.7</ele>
        <time>2018-11-28T15:23:25Z</time>
      </trkpt>
      <trkpt lat="42.39436" lon="2.45989">
        <ele>1089.9</ele>
        <time>2018-11-28T15:23:27Z</time>
      </trkpt>
      <trkpt lat="42.39446" lon="2.45993">
        <ele>1092.4</ele>
        <time>2018-11-28T15:23:31Z</time>
      </trkpt>
      <trkpt lat="42.39452" lon="2.46011">
        <ele>1093.6</ele>
        <time>2018-11-28T15:23:37Z</time>
      </trkpt>
      <trkpt lat="42.39453" lon="2.46021">
        <ele>1093.9</ele>
        <time>2018-11-28T15:23:40Z</time>
      </trkpt>
      <trkpt lat="42.39461" lon="2.46037">
        <ele>1095.6</ele>
        <time>2018-11-28T15:23:46Z</time>
      </trkpt>
      <trkpt lat="42.39461" lon="2.4604">
        <ele>1095.6</ele>
        <time>2018-11-28T15:23:47Z</time>
      </trkpt>
      <trkpt lat="42.39464" lon="2.46049">
        <ele>1095.7</ele>
        <time>2018-11-28T15:23:50Z</time>
      </trkpt>
      <trkpt lat="42.39477" lon="2.4606">
        <ele>1097.7</ele>
        <time>2018-11-28T15:23:56Z</time>
      </trkpt>
      <trkpt lat="42.39488" lon="2.46076">
        <ele>1098.6</ele>
        <time>2018-11-28T15:24:02Z</time>
      </trkpt>
      <trkpt lat="42.39504" lon="2.46102">
        <ele>1099.4</ele>
        <time>2018-11-28T15:24:12Z</time>
      </trkpt>
      <trkpt lat="42.39521" lon="2.46117">
        <ele>1101.2</ele>
        <time>2018-11-28T15:24:20Z</time>
      </trkpt>
      <trkpt lat="42.39523" lon="2.46118">
        <ele>1101.6</ele>
        <time>2018-11-28T15:24:21Z</time>
      </trkpt>
      <trkpt lat="42.39536" lon="2.46122">
        <ele>1103.2</ele>
        <time>2018-11-28T15:24:26Z</time>
      </trkpt>
      <trkpt lat="42.39542" lon="2.46125">
        <ele>1104.2</ele>
        <time>2018-11-28T15:24:29Z</time>
      </trkpt>
      <trkpt lat="42.39546" lon="2.46128">
        <ele>1104.6</ele>
        <time>2018-11-28T15:24:31Z</time>
      </trkpt>
      <trkpt lat="42.39549" lon="2.46129">
        <ele>1105</ele>
        <time>2018-11-28T15:24:32Z</time>
      </trkpt>
      <trkpt lat="42.39551" lon="2.46129">
        <ele>1105.4</ele>
        <time>2018-11-28T15:24:33Z</time>
      </trkpt>
      <trkpt lat="42.39556" lon="2.46127">
        <ele>1106.4</ele>
        <time>2018-11-28T15:24:35Z</time>
      </trkpt>
      <trkpt lat="42.39556" lon="2.46127">
        <ele>1106.4</ele>
        <time>2018-11-28T15:24:35Z</time>
      </trkpt>
      <trkpt lat="42.39566" lon="2.46111">
        <ele>1109.9</ele>
        <time>2018-11-28T15:24:41Z</time>
      </trkpt>
      <trkpt lat="42.3957" lon="2.46103">
        <ele>1111.3</ele>
        <time>2018-11-28T15:24:44Z</time>
      </trkpt>
      <trkpt lat="42.3958" lon="2.46083">
        <ele>1115.5</ele>
        <time>2018-11-28T15:24:51Z</time>
      </trkpt>
      <trkpt lat="42.39582" lon="2.46079">
        <ele>1116.2</ele>
        <time>2018-11-28T15:24:53Z</time>
      </trkpt>
      <trkpt lat="42.39585" lon="2.4607">
        <ele>1117.8</ele>
        <time>2018-11-28T15:24:56Z</time>
      </trkpt>
      <trkpt lat="42.3959" lon="2.46054">
        <ele>1120.5</ele>
        <time>2018-11-28T15:25:01Z</time>
      </trkpt>
      <trkpt lat="42.39593" lon="2.46051">
        <ele>1121.5</ele>
        <time>2018-11-28T15:25:02Z</time>
      </trkpt>
      <trkpt lat="42.39595" lon="2.46045">
        <ele>1122.5</ele>
        <time>2018-11-28T15:25:04Z</time>
      </trkpt>
      <trkpt lat="42.39597" lon="2.46038">
        <ele>1123.8</ele>
        <time>2018-11-28T15:25:07Z</time>
      </trkpt>
      <trkpt lat="42.39599" lon="2.46019">
        <ele>1125.7</ele>
        <time>2018-11-28T15:25:12Z</time>
      </trkpt>
      <trkpt lat="42.39601" lon="2.45997">
        <ele>1128.2</ele>
        <time>2018-11-28T15:25:19Z</time>
      </trkpt>
      <trkpt lat="42.39607" lon="2.45982">
        <ele>1131</ele>
        <time>2018-11-28T15:25:24Z</time>
      </trkpt>
      <trkpt lat="42.39611" lon="2.45982">
        <ele>1132.1</ele>
        <time>2018-11-28T15:25:26Z</time>
      </trkpt>
      <trkpt lat="42.39614" lon="2.45981">
        <ele>1132.9</ele>
        <time>2018-11-28T15:25:27Z</time>
      </trkpt>
      <trkpt lat="42.39617" lon="2.45981">
        <ele>1133.4</ele>
        <time>2018-11-28T15:25:28Z</time>
      </trkpt>
      <trkpt lat="42.39618" lon="2.45979">
        <ele>1134</ele>
        <time>2018-11-28T15:25:29Z</time>
      </trkpt>
      <trkpt lat="42.39625" lon="2.45978">
        <ele>1135.7</ele>
        <time>2018-11-28T15:25:31Z</time>
      </trkpt>
      <trkpt lat="42.39627" lon="2.45974">
        <ele>1136.9</ele>
        <time>2018-11-28T15:25:33Z</time>
      </trkpt>
      <trkpt lat="42.3963" lon="2.4597">
        <ele>1137.9</ele>
        <time>2018-11-28T15:25:35Z</time>
      </trkpt>
      <trkpt lat="42.39633" lon="2.45968">
        <ele>1138.5</ele>
        <time>2018-11-28T15:25:36Z</time>
      </trkpt>
      <trkpt lat="42.39639" lon="2.45958">
        <ele>1140.7</ele>
        <time>2018-11-28T15:25:40Z</time>
      </trkpt>
      <trkpt lat="42.39643" lon="2.45947">
        <ele>1143.3</ele>
        <time>2018-11-28T15:25:43Z</time>
      </trkpt>
      <trkpt lat="42.39645" lon="2.45937">
        <ele>1145.4</ele>
        <time>2018-11-28T15:25:46Z</time>
      </trkpt>
      <trkpt lat="42.39648" lon="2.45921">
        <ele>1148.9</ele>
        <time>2018-11-28T15:25:51Z</time>
      </trkpt>
      <trkpt lat="42.39661" lon="2.45916">
        <ele>1152.6</ele>
        <time>2018-11-28T15:25:56Z</time>
      </trkpt>
      <trkpt lat="42.39664" lon="2.4592">
        <ele>1152.6</ele>
        <time>2018-11-28T15:25:58Z</time>
      </trkpt>
      <trkpt lat="42.39671" lon="2.45922">
        <ele>1153.8</ele>
        <time>2018-11-28T15:26:01Z</time>
      </trkpt>
      <trkpt lat="42.39669" lon="2.45905">
        <ele>1156.7</ele>
        <time>2018-11-28T15:26:06Z</time>
      </trkpt>
      <trkpt lat="42.39667" lon="2.45887">
        <ele>1159.5</ele>
        <time>2018-11-28T15:26:11Z</time>
      </trkpt>
      <trkpt lat="42.39668" lon="2.45871">
        <ele>1162.8</ele>
        <time>2018-11-28T15:26:16Z</time>
      </trkpt>
      <trkpt lat="42.3967" lon="2.45842">
        <ele>1169.2</ele>
        <time>2018-11-28T15:26:25Z</time>
      </trkpt>
      <trkpt lat="42.39674" lon="2.45816">
        <ele>1175.6</ele>
        <time>2018-11-28T15:26:33Z</time>
      </trkpt>
      <trkpt lat="42.39669" lon="2.45788">
        <ele>1180.1</ele>
        <time>2018-11-28T15:26:41Z</time>
      </trkpt>
      <trkpt lat="42.39664" lon="2.45765">
        <ele>1183.4</ele>
        <time>2018-11-28T15:26:48Z</time>
      </trkpt>
      <trkpt lat="42.39664" lon="2.45764">
        <ele>1183.5</ele>
        <time>2018-11-28T15:26:49Z</time>
      </trkpt>
      <trkpt lat="42.39659" lon="2.45748">
        <ele>1185.6</ele>
        <time>2018-11-28T15:26:54Z</time>
      </trkpt>
      <trkpt lat="42.39651" lon="2.45734">
        <ele>1186.7</ele>
        <time>2018-11-28T15:26:59Z</time>
      </trkpt>
      <trkpt lat="42.39642" lon="2.45717">
        <ele>1188.2</ele>
        <time>2018-11-28T15:27:05Z</time>
      </trkpt>
      <trkpt lat="42.39627" lon="2.45693">
        <ele>1190.8</ele>
        <time>2018-11-28T15:27:14Z</time>
      </trkpt>
      <trkpt lat="42.39619" lon="2.45679">
        <ele>1192.2</ele>
        <time>2018-11-28T15:27:20Z</time>
      </trkpt>
      <trkpt lat="42.396" lon="2.45648">
        <ele>1195.8</ele>
        <time>2018-11-28T15:27:32Z</time>
      </trkpt>
      <trkpt lat="42.39597" lon="2.45632">
        <ele>1199.8</ele>
        <time>2018-11-28T15:27:36Z</time>
      </trkpt>
      <trkpt lat="42.3961" lon="2.45632">
        <ele>1203</ele>
        <time>2018-11-28T15:27:41Z</time>
      </trkpt>
      <trkpt lat="42.39614" lon="2.45634">
        <ele>1203.4</ele>
        <time>2018-11-28T15:27:43Z</time>
      </trkpt>
      <trkpt lat="42.39622" lon="2.45639">
        <ele>1204.6</ele>
        <time>2018-11-28T15:27:47Z</time>
      </trkpt>
      <trkpt lat="42.3963" lon="2.45647">
        <ele>1203.8</ele>
        <time>2018-11-28T15:27:51Z</time>
      </trkpt>
      <trkpt lat="42.39642" lon="2.45655">
        <ele>1204.2</ele>
        <time>2018-11-28T15:27:56Z</time>
      </trkpt>
      <trkpt lat="42.39657" lon="2.45658">
        <ele>1206.4</ele>
        <time>2018-11-28T15:28:02Z</time>
      </trkpt>
      <trkpt lat="42.39667" lon="2.45664">
        <ele>1206.8</ele>
        <time>2018-11-28T15:28:07Z</time>
      </trkpt>
      <trkpt lat="42.39673" lon="2.45665">
        <ele>1207.6</ele>
        <time>2018-11-28T15:28:09Z</time>
      </trkpt>
      <trkpt lat="42.3968" lon="2.45666">
        <ele>1208.9</ele>
        <time>2018-11-28T15:28:12Z</time>
      </trkpt>
      <trkpt lat="42.39691" lon="2.45662">
        <ele>1212.2</ele>
        <time>2018-11-28T15:28:16Z</time>
      </trkpt>
      <trkpt lat="42.39701" lon="2.45655">
        <ele>1215.5</ele>
        <time>2018-11-28T15:28:21Z</time>
      </trkpt>
      <trkpt lat="42.39715" lon="2.45653">
        <ele>1219</ele>
        <time>2018-11-28T15:28:26Z</time>
      </trkpt>
      <trkpt lat="42.39736" lon="2.45684">
        <ele>1217.6</ele>
        <time>2018-11-28T15:28:39Z</time>
      </trkpt>
      <trkpt lat="42.39756" lon="2.45713">
        <ele>1216.1</ele>
        <time>2018-11-28T15:28:51Z</time>
      </trkpt>
      <trkpt lat="42.39765" lon="2.45725">
        <ele>1216.5</ele>
        <time>2018-11-28T15:28:56Z</time>
      </trkpt>
      <trkpt lat="42.3978" lon="2.45732">
        <ele>1219</ele>
        <time>2018-11-28T15:29:02Z</time>
      </trkpt>
      <trkpt lat="42.398" lon="2.45748">
        <ele>1222.2</ele>
        <time>2018-11-28T15:29:11Z</time>
      </trkpt>
      <trkpt lat="42.39809" lon="2.45759">
        <ele>1223.4</ele>
        <time>2018-11-28T15:29:16Z</time>
      </trkpt>
      <trkpt lat="42.39818" lon="2.45771">
        <ele>1224.5</ele>
        <time>2018-11-28T15:29:21Z</time>
      </trkpt>
      <trkpt lat="42.39818" lon="2.45772">
        <ele>1224.2</ele>
        <time>2018-11-28T15:29:22Z</time>
      </trkpt>
      <trkpt lat="42.39826" lon="2.45769">
        <ele>1226.9</ele>
        <time>2018-11-28T15:29:25Z</time>
      </trkpt>
      <trkpt lat="42.39838" lon="2.45774">
        <ele>1230</ele>
        <time>2018-11-28T15:29:30Z</time>
      </trkpt>
      <trkpt lat="42.3985" lon="2.45785">
        <ele>1232</ele>
        <time>2018-11-28T15:29:36Z</time>
      </trkpt>
      <trkpt lat="42.39862" lon="2.45797">
        <ele>1233.4</ele>
        <time>2018-11-28T15:29:42Z</time>
      </trkpt>
      <trkpt lat="42.39874" lon="2.45805">
        <ele>1235.4</ele>
        <time>2018-11-28T15:29:47Z</time>
      </trkpt>
      <trkpt lat="42.39893" lon="2.45815">
        <ele>1237.8</ele>
        <time>2018-11-28T15:29:55Z</time>
      </trkpt>
      <trkpt lat="42.39912" lon="2.45819">
        <ele>1241.5</ele>
        <time>2018-11-28T15:30:03Z</time>
      </trkpt>
      <trkpt lat="42.39919" lon="2.4582">
        <ele>1242.9</ele>
        <time>2018-11-28T15:30:06Z</time>
      </trkpt>
      <trkpt lat="42.39932" lon="2.45809">
        <ele>1247.6</ele>
        <time>2018-11-28T15:30:12Z</time>
      </trkpt>
      <trkpt lat="42.39942" lon="2.45803">
        <ele>1250.8</ele>
        <time>2018-11-28T15:30:16Z</time>
      </trkpt>
      <trkpt lat="42.39952" lon="2.45798">
        <ele>1253.7</ele>
        <time>2018-11-28T15:30:20Z</time>
      </trkpt>
      <trkpt lat="42.39932" lon="2.4578">
        <ele>1251.6</ele>
        <time>2018-11-28T15:30:30Z</time>
      </trkpt>
      <trkpt lat="42.39915" lon="2.45756">
        <ele>1251</ele>
        <time>2018-11-28T15:30:40Z</time>
      </trkpt>
      <trkpt lat="42.39907" lon="2.45746">
        <ele>1250.7</ele>
        <time>2018-11-28T15:30:44Z</time>
      </trkpt>
      <trkpt lat="42.39898" lon="2.45726">
        <ele>1251.6</ele>
        <time>2018-11-28T15:30:51Z</time>
      </trkpt>
      <trkpt lat="42.399" lon="2.45713">
        <ele>1253.7</ele>
        <time>2018-11-28T15:30:55Z</time>
      </trkpt>
      <trkpt lat="42.39908" lon="2.45689">
        <ele>1257.5</ele>
        <time>2018-11-28T15:31:03Z</time>
      </trkpt>
      <trkpt lat="42.39914" lon="2.45675">
        <ele>1259.4</ele>
        <time>2018-11-28T15:31:08Z</time>
      </trkpt>
      <trkpt lat="42.39917" lon="2.45669">
        <ele>1260.1</ele>
        <time>2018-11-28T15:31:10Z</time>
      </trkpt>
      <trkpt lat="42.39921" lon="2.45652">
        <ele>1261.4</ele>
        <time>2018-11-28T15:31:15Z</time>
      </trkpt>
      <trkpt lat="42.39907" lon="2.4564">
        <ele>1262.6</ele>
        <time>2018-11-28T15:31:22Z</time>
      </trkpt>
      <trkpt lat="42.39898" lon="2.45633">
        <ele>1263.7</ele>
        <time>2018-11-28T15:31:26Z</time>
      </trkpt>
      <trkpt lat="42.39897" lon="2.4563">
        <ele>1264</ele>
        <time>2018-11-28T15:31:27Z</time>
      </trkpt>
      <trkpt lat="42.39877" lon="2.4561">
        <ele>1268.3</ele>
        <time>2018-11-28T15:31:36Z</time>
      </trkpt>
      <trkpt lat="42.39861" lon="2.45588">
        <ele>1269.5</ele>
        <time>2018-11-28T15:31:46Z</time>
      </trkpt>
      <trkpt lat="42.39855" lon="2.45577">
        <ele>1270.4</ele>
        <time>2018-11-28T15:31:49Z</time>
      </trkpt>
      <trkpt lat="42.39855" lon="2.45576">
        <ele>1270.7</ele>
        <time>2018-11-28T15:31:50Z</time>
      </trkpt>
      <trkpt lat="42.39848" lon="2.45554">
        <ele>1274.1</ele>
        <time>2018-11-28T15:31:57Z</time>
      </trkpt>
      <trkpt lat="42.39846" lon="2.45551">
        <ele>1274.5</ele>
        <time>2018-11-28T15:31:58Z</time>
      </trkpt>
      <trkpt lat="42.39841" lon="2.45535">
        <ele>1277</ele>
        <time>2018-11-28T15:32:03Z</time>
      </trkpt>
      <trkpt lat="42.39838" lon="2.45513">
        <ele>1281</ele>
        <time>2018-11-28T15:32:10Z</time>
      </trkpt>
      <trkpt lat="42.39836" lon="2.4549">
        <ele>1285.7</ele>
        <time>2018-11-28T15:32:17Z</time>
      </trkpt>
      <trkpt lat="42.39832" lon="2.4547">
        <ele>1289.5</ele>
        <time>2018-11-28T15:32:23Z</time>
      </trkpt>
      <trkpt lat="42.39822" lon="2.45455">
        <ele>1291.6</ele>
        <time>2018-11-28T15:32:29Z</time>
      </trkpt>
      <trkpt lat="42.39819" lon="2.45441">
        <ele>1292.3</ele>
        <time>2018-11-28T15:32:33Z</time>
      </trkpt>
      <trkpt lat="42.39812" lon="2.45426">
        <ele>1293.2</ele>
        <time>2018-11-28T15:32:38Z</time>
      </trkpt>
      <trkpt lat="42.39801" lon="2.45401">
        <ele>1295.7</ele>
        <time>2018-11-28T15:32:47Z</time>
      </trkpt>
      <trkpt lat="42.39793" lon="2.4538">
        <ele>1298.4</ele>
        <time>2018-11-28T15:32:54Z</time>
      </trkpt>
      <trkpt lat="42.39787" lon="2.45366">
        <ele>1299.1</ele>
        <time>2018-11-28T15:32:59Z</time>
      </trkpt>
      <trkpt lat="42.39785" lon="2.45365">
        <ele>1299.3</ele>
        <time>2018-11-28T15:32:59Z</time>
      </trkpt>
      <trkpt lat="42.39774" lon="2.45344">
        <ele>1300.7</ele>
        <time>2018-11-28T15:33:07Z</time>
      </trkpt>
      <trkpt lat="42.39767" lon="2.45333">
        <ele>1302.4</ele>
        <time>2018-11-28T15:33:12Z</time>
      </trkpt>
      <trkpt lat="42.39748" lon="2.45317">
        <ele>1307.1</ele>
        <time>2018-11-28T15:33:20Z</time>
      </trkpt>
      <trkpt lat="42.39743" lon="2.45314">
        <ele>1308.5</ele>
        <time>2018-11-28T15:33:23Z</time>
      </trkpt>
      <trkpt lat="42.39735" lon="2.45309">
        <ele>1310.7</ele>
        <time>2018-11-28T15:33:26Z</time>
      </trkpt>
      <trkpt lat="42.39726" lon="2.45306">
        <ele>1313.4</ele>
        <time>2018-11-28T15:33:30Z</time>
      </trkpt>
      <trkpt lat="42.39725" lon="2.45302">
        <ele>1314.4</ele>
        <time>2018-11-28T15:33:31Z</time>
      </trkpt>
      <trkpt lat="42.39712" lon="2.45298">
        <ele>1318.5</ele>
        <time>2018-11-28T15:33:36Z</time>
      </trkpt>
      <trkpt lat="42.39702" lon="2.4528">
        <ele>1324.9</ele>
        <time>2018-11-28T15:33:43Z</time>
      </trkpt>
      <trkpt lat="42.39681" lon="2.45279">
        <ele>1327.2</ele>
        <time>2018-11-28T15:33:51Z</time>
      </trkpt>
      <trkpt lat="42.39677" lon="2.45281">
        <ele>1327</ele>
        <time>2018-11-28T15:33:53Z</time>
      </trkpt>
      <trkpt lat="42.39671" lon="2.45282">
        <ele>1326.9</ele>
        <time>2018-11-28T15:33:55Z</time>
      </trkpt>
      <trkpt lat="42.39661" lon="2.45282">
        <ele>1327.6</ele>
        <time>2018-11-28T15:33:59Z</time>
      </trkpt>
      <trkpt lat="42.39659" lon="2.45273">
        <ele>1331.7</ele>
        <time>2018-11-28T15:34:02Z</time>
      </trkpt>
      <trkpt lat="42.39652" lon="2.45263">
        <ele>1336.7</ele>
        <time>2018-11-28T15:34:06Z</time>
      </trkpt>
      <trkpt lat="42.39646" lon="2.45256">
        <ele>1340.9</ele>
        <time>2018-11-28T15:34:09Z</time>
      </trkpt>
      <trkpt lat="42.39638" lon="2.45248">
        <ele>1345.6</ele>
        <time>2018-11-28T15:34:13Z</time>
      </trkpt>
      <trkpt lat="42.39636" lon="2.45239">
        <ele>1350.4</ele>
        <time>2018-11-28T15:34:16Z</time>
      </trkpt>
      <trkpt lat="42.39632" lon="2.45231">
        <ele>1355.4</ele>
        <time>2018-11-28T15:34:19Z</time>
      </trkpt>
      <trkpt lat="42.39622" lon="2.4522">
        <ele>1361.9</ele>
        <time>2018-11-28T15:34:24Z</time>
      </trkpt>
      <trkpt lat="42.39609" lon="2.45213">
        <ele>1364.7</ele>
        <time>2018-11-28T15:34:30Z</time>
      </trkpt>
      <trkpt lat="42.39602" lon="2.45212">
        <ele>1364.5</ele>
        <time>2018-11-28T15:34:33Z</time>
      </trkpt>
      <trkpt lat="42.39589" lon="2.45196">
        <ele>1372.8</ele>
        <time>2018-11-28T15:34:39Z</time>
      </trkpt>
      <trkpt lat="42.39579" lon="2.45189">
        <ele>1376</ele>
        <time>2018-11-28T15:34:44Z</time>
      </trkpt>
      <trkpt lat="42.39567" lon="2.45187">
        <ele>1376.5</ele>
        <time>2018-11-28T15:34:49Z</time>
      </trkpt>
      <trkpt lat="42.39558" lon="2.45178">
        <ele>1381.1</ele>
        <time>2018-11-28T15:34:53Z</time>
      </trkpt>
      <trkpt lat="42.39555" lon="2.45165">
        <ele>1388</ele>
        <time>2018-11-28T15:34:57Z</time>
      </trkpt>
      <trkpt lat="42.39546" lon="2.45154">
        <ele>1393.5</ele>
        <time>2018-11-28T15:35:02Z</time>
      </trkpt>
      <trkpt lat="42.39538" lon="2.45144">
        <ele>1397.3</ele>
        <time>2018-11-28T15:35:07Z</time>
      </trkpt>
      <trkpt lat="42.39527" lon="2.45145">
        <ele>1392.8</ele>
        <time>2018-11-28T15:35:11Z</time>
      </trkpt>
      <trkpt lat="42.39527" lon="2.45135">
        <ele>1397.9</ele>
        <time>2018-11-28T15:35:14Z</time>
      </trkpt>
      <trkpt lat="42.39523" lon="2.45126">
        <ele>1401.2</ele>
        <time>2018-11-28T15:35:17Z</time>
      </trkpt>
      <trkpt lat="42.39516" lon="2.45114">
        <ele>1404.9</ele>
        <time>2018-11-28T15:35:22Z</time>
      </trkpt>
      <trkpt lat="42.39508" lon="2.45109">
        <ele>1404.4</ele>
        <time>2018-11-28T15:35:25Z</time>
      </trkpt>
      <trkpt lat="42.39502" lon="2.45105">
        <ele>1404.3</ele>
        <time>2018-11-28T15:35:28Z</time>
      </trkpt>
      <trkpt lat="42.39496" lon="2.45093">
        <ele>1408.1</ele>
        <time>2018-11-28T15:35:32Z</time>
      </trkpt>
      <trkpt lat="42.39491" lon="2.45083">
        <ele>1411.6</ele>
        <time>2018-11-28T15:35:36Z</time>
      </trkpt>
      <trkpt lat="42.39479" lon="2.4507">
        <ele>1414.1</ele>
        <time>2018-11-28T15:35:42Z</time>
      </trkpt>
      <trkpt lat="42.39467" lon="2.45057">
        <ele>1416</ele>
        <time>2018-11-28T15:35:48Z</time>
      </trkpt>
      <trkpt lat="42.39459" lon="2.45038">
        <ele>1423.1</ele>
        <time>2018-11-28T15:35:55Z</time>
      </trkpt>
      <trkpt lat="42.39453" lon="2.45031">
        <ele>1424.2</ele>
        <time>2018-11-28T15:35:58Z</time>
      </trkpt>
      <trkpt lat="42.39448" lon="2.45027">
        <ele>1424.3</ele>
        <time>2018-11-28T15:36:00Z</time>
      </trkpt>
      <trkpt lat="42.39442" lon="2.4502">
        <ele>1425.5</ele>
        <time>2018-11-28T15:36:03Z</time>
      </trkpt>
      <trkpt lat="42.39433" lon="2.45008">
        <ele>1427.8</ele>
        <time>2018-11-28T15:36:08Z</time>
      </trkpt>
      <trkpt lat="42.39431" lon="2.45006">
        <ele>1428.3</ele>
        <time>2018-11-28T15:36:09Z</time>
      </trkpt>
      <trkpt lat="42.39427" lon="2.45004">
        <ele>1427.4</ele>
        <time>2018-11-28T15:36:11Z</time>
      </trkpt>
      <trkpt lat="42.39422" lon="2.44991">
        <ele>1432.1</ele>
        <time>2018-11-28T15:36:15Z</time>
      </trkpt>
      <trkpt lat="42.39411" lon="2.44979">
        <ele>1433.6</ele>
        <time>2018-11-28T15:36:21Z</time>
      </trkpt>
      <trkpt lat="42.39405" lon="2.44965">
        <ele>1437.5</ele>
        <time>2018-11-28T15:36:26Z</time>
      </trkpt>
      <trkpt lat="42.39395" lon="2.44951">
        <ele>1440.3</ele>
        <time>2018-11-28T15:36:32Z</time>
      </trkpt>
      <trkpt lat="42.39389" lon="2.44938">
        <ele>1445.2</ele>
        <time>2018-11-28T15:36:36Z</time>
      </trkpt>
      <trkpt lat="42.39375" lon="2.44929">
        <ele>1444.9</ele>
        <time>2018-11-28T15:36:42Z</time>
      </trkpt>
      <trkpt lat="42.39373" lon="2.44923">
        <ele>1447.2</ele>
        <time>2018-11-28T15:36:44Z</time>
      </trkpt>
      <trkpt lat="42.39362" lon="2.44913">
        <ele>1447.5</ele>
        <time>2018-11-28T15:36:49Z</time>
      </trkpt>
      <trkpt lat="42.39355" lon="2.4489">
        <ele>1456.1</ele>
        <time>2018-11-28T15:36:57Z</time>
      </trkpt>
      <trkpt lat="42.39342" lon="2.44877">
        <ele>1455.6</ele>
        <time>2018-11-28T15:37:03Z</time>
      </trkpt>
      <trkpt lat="42.39332" lon="2.44866">
        <ele>1454</ele>
        <time>2018-11-28T15:37:09Z</time>
      </trkpt>
      <trkpt lat="42.39322" lon="2.44856">
        <ele>1452.3</ele>
        <time>2018-11-28T15:37:13Z</time>
      </trkpt>
      <trkpt lat="42.39314" lon="2.44844">
        <ele>1451.7</ele>
        <time>2018-11-28T15:37:18Z</time>
      </trkpt>
      <trkpt lat="42.39305" lon="2.44834">
        <ele>1449.6</ele>
        <time>2018-11-28T15:37:23Z</time>
      </trkpt>
      <trkpt lat="42.39297" lon="2.44832">
        <ele>1446.2</ele>
        <time>2018-11-28T15:37:26Z</time>
      </trkpt>
      <trkpt lat="42.39293" lon="2.44811">
        <ele>1449.9</ele>
        <time>2018-11-28T15:37:32Z</time>
      </trkpt>
      <trkpt lat="42.39286" lon="2.44782">
        <ele>1454.8</ele>
        <time>2018-11-28T15:37:41Z</time>
      </trkpt>
      <trkpt lat="42.39286" lon="2.44761">
        <ele>1461.9</ele>
        <time>2018-11-28T15:37:48Z</time>
      </trkpt>
      <trkpt lat="42.39282" lon="2.44739">
        <ele>1466.7</ele>
        <time>2018-11-28T15:37:54Z</time>
      </trkpt>
      <trkpt lat="42.39278" lon="2.44722">
        <ele>1469.9</ele>
        <time>2018-11-28T15:38:00Z</time>
      </trkpt>
      <trkpt lat="42.3927" lon="2.44708">
        <ele>1470.6</ele>
        <time>2018-11-28T15:38:05Z</time>
      </trkpt>
      <trkpt lat="42.39265" lon="2.44694">
        <ele>1472</ele>
        <time>2018-11-28T15:38:09Z</time>
      </trkpt>
      <trkpt lat="42.39261" lon="2.44687">
        <ele>1472</ele>
        <time>2018-11-28T15:38:12Z</time>
      </trkpt>
      <trkpt lat="42.39258" lon="2.44667">
        <ele>1476.1</ele>
        <time>2018-11-28T15:38:18Z</time>
      </trkpt>
      <trkpt lat="42.39255" lon="2.44649">
        <ele>1480.1</ele>
        <time>2018-11-28T15:38:24Z</time>
      </trkpt>
      <trkpt lat="42.39255" lon="2.44633">
        <ele>1484.6</ele>
        <time>2018-11-28T15:38:28Z</time>
      </trkpt>
      <trkpt lat="42.39251" lon="2.446">
        <ele>1492</ele>
        <time>2018-11-28T15:38:38Z</time>
      </trkpt>
      <trkpt lat="42.39242" lon="2.44572">
        <ele>1496.6</ele>
        <time>2018-11-28T15:38:47Z</time>
      </trkpt>
      <trkpt lat="42.39231" lon="2.44543">
        <ele>1502.2</ele>
        <time>2018-11-28T15:38:57Z</time>
      </trkpt>
      <trkpt lat="42.39219" lon="2.4452">
        <ele>1502.7</ele>
        <time>2018-11-28T15:39:05Z</time>
      </trkpt>
      <trkpt lat="42.39224" lon="2.44517">
        <ele>1504.7</ele>
        <time>2018-11-28T15:39:07Z</time>
      </trkpt>
      <trkpt lat="42.39233" lon="2.44526">
        <ele>1505.8</ele>
        <time>2018-11-28T15:39:12Z</time>
      </trkpt>
      <trkpt lat="42.39244" lon="2.44539">
        <ele>1506.9</ele>
        <time>2018-11-28T15:39:18Z</time>
      </trkpt>
      <trkpt lat="42.39266" lon="2.44551">
        <ele>1510.1</ele>
        <time>2018-11-28T15:39:27Z</time>
      </trkpt>
      <trkpt lat="42.39281" lon="2.44565">
        <ele>1511.3</ele>
        <time>2018-11-28T15:39:35Z</time>
      </trkpt>
      <trkpt lat="42.39299" lon="2.44581">
        <ele>1513.2</ele>
        <time>2018-11-28T15:39:43Z</time>
      </trkpt>
      <trkpt lat="42.3932" lon="2.44594">
        <ele>1516.3</ele>
        <time>2018-11-28T15:39:53Z</time>
      </trkpt>
      <trkpt lat="42.39334" lon="2.44605">
        <ele>1518.1</ele>
        <time>2018-11-28T15:39:59Z</time>
      </trkpt>
      <trkpt lat="42.3935" lon="2.4463">
        <ele>1518.7</ele>
        <time>2018-11-28T15:40:09Z</time>
      </trkpt>
      <trkpt lat="42.39351" lon="2.44625">
        <ele>1519.9</ele>
        <time>2018-11-28T15:40:10Z</time>
      </trkpt>
      <trkpt lat="42.39345" lon="2.44604">
        <ele>1521.1</ele>
        <time>2018-11-28T15:40:17Z</time>
      </trkpt>
      <trkpt lat="42.39344" lon="2.4457">
        <ele>1525.8</ele>
        <time>2018-11-28T15:40:27Z</time>
      </trkpt>
      <trkpt lat="42.39335" lon="2.44557">
        <ele>1526</ele>
        <time>2018-11-28T15:40:32Z</time>
      </trkpt>
      <trkpt lat="42.39339" lon="2.44562">
        <ele>1525.9</ele>
        <time>2018-11-28T15:40:34Z</time>
      </trkpt>
      <trkpt lat="42.39346" lon="2.44549">
        <ele>1529.3</ele>
        <time>2018-11-28T15:40:39Z</time>
      </trkpt>
      <trkpt lat="42.39357" lon="2.4454">
        <ele>1532.8</ele>
        <time>2018-11-28T15:40:45Z</time>
      </trkpt>
      <trkpt lat="42.39375" lon="2.44533">
        <ele>1536.7</ele>
        <time>2018-11-28T15:40:52Z</time>
      </trkpt>
      <trkpt lat="42.39389" lon="2.44512">
        <ele>1536.8</ele>
        <time>2018-11-28T15:41:00Z</time>
      </trkpt>
      <trkpt lat="42.394" lon="2.44476">
        <ele>1537.2</ele>
        <time>2018-11-28T15:41:12Z</time>
      </trkpt>
      <trkpt lat="42.394" lon="2.44462">
        <ele>1538.1</ele>
        <time>2018-11-28T15:41:16Z</time>
      </trkpt>
      <trkpt lat="42.39403" lon="2.4445">
        <ele>1537.6</ele>
        <time>2018-11-28T15:41:20Z</time>
      </trkpt>
      <trkpt lat="42.39404" lon="2.44434">
        <ele>1537.2</ele>
        <time>2018-11-28T15:41:24Z</time>
      </trkpt>
      <trkpt lat="42.39404" lon="2.44431">
        <ele>1537.3</ele>
        <time>2018-11-28T15:41:25Z</time>
      </trkpt>
      <trkpt lat="42.39403" lon="2.44409">
        <ele>1537.5</ele>
        <time>2018-11-28T15:41:32Z</time>
      </trkpt>
      <trkpt lat="42.39396" lon="2.44388">
        <ele>1539.4</ele>
        <time>2018-11-28T15:41:39Z</time>
      </trkpt>
      <trkpt lat="42.3939" lon="2.44363">
        <ele>1540.2</ele>
        <time>2018-11-28T15:41:46Z</time>
      </trkpt>
      <trkpt lat="42.39383" lon="2.4435">
        <ele>1540.7</ele>
        <time>2018-11-28T15:41:51Z</time>
      </trkpt>
      <trkpt lat="42.39368" lon="2.44319">
        <ele>1539.3</ele>
        <time>2018-11-28T15:42:02Z</time>
      </trkpt>
      <trkpt lat="42.39342" lon="2.4429">
        <ele>1537.6</ele>
        <time>2018-11-28T15:42:16Z</time>
      </trkpt>
      <trkpt lat="42.39331" lon="2.44277">
        <ele>1538.2</ele>
        <time>2018-11-28T15:42:22Z</time>
      </trkpt>
      <trkpt lat="42.39313" lon="2.44262">
        <ele>1539.4</ele>
        <time>2018-11-28T15:42:30Z</time>
      </trkpt>
      <trkpt lat="42.39292" lon="2.44262">
        <ele>1540.8</ele>
        <time>2018-11-28T15:42:39Z</time>
      </trkpt>
      <trkpt lat="42.39287" lon="2.44263">
        <ele>1540.3</ele>
        <time>2018-11-28T15:42:40Z</time>
      </trkpt>
      <trkpt lat="42.39296" lon="2.44267">
        <ele>1540.4</ele>
        <time>2018-11-28T15:42:44Z</time>
      </trkpt>
      <trkpt lat="42.39294" lon="2.44265">
        <ele>1540.6</ele>
        <time>2018-11-28T15:42:45Z</time>
      </trkpt>
      <trkpt lat="42.39293" lon="2.44265">
        <ele>1540.7</ele>
        <time>2018-11-28T15:42:45Z</time>
      </trkpt>
      <trkpt lat="42.39297" lon="2.44268">
        <ele>1540.2</ele>
        <time>2018-11-28T15:42:47Z</time>
      </trkpt>
      <trkpt lat="42.39294" lon="2.44266">
        <ele>1540.5</ele>
        <time>2018-11-28T15:42:49Z</time>
      </trkpt>
      <trkpt lat="42.39304" lon="2.44275">
        <ele>1539.7</ele>
        <time>2018-11-28T15:42:54Z</time>
      </trkpt>
      <trkpt lat="42.39301" lon="2.44266">
        <ele>1540.1</ele>
        <time>2018-11-28T15:42:57Z</time>
      </trkpt>
      <trkpt lat="42.39296" lon="2.44264">
        <ele>1540.4</ele>
        <time>2018-11-28T15:42:59Z</time>
      </trkpt>
      <trkpt lat="42.39292" lon="2.44255">
        <ele>1541</ele>
        <time>2018-11-28T15:43:02Z</time>
      </trkpt>
      <trkpt lat="42.39298" lon="2.44283">
        <ele>1540</ele>
        <time>2018-11-28T15:43:11Z</time>
      </trkpt>
      <trkpt lat="42.393" lon="2.44276">
        <ele>1540</ele>
        <time>2018-11-28T15:43:13Z</time>
      </trkpt>
      <trkpt lat="42.39301" lon="2.44276">
        <ele>1539.8</ele>
        <time>2018-11-28T15:43:14Z</time>
      </trkpt>
      <trkpt lat="42.39303" lon="2.44274">
        <ele>1539.9</ele>
        <time>2018-11-28T15:43:14Z</time>
      </trkpt>
      <trkpt lat="42.39298" lon="2.44281">
        <ele>1540</ele>
        <time>2018-11-28T15:43:17Z</time>
      </trkpt>
      <trkpt lat="42.39298" lon="2.44277">
        <ele>1540</ele>
        <time>2018-11-28T15:43:18Z</time>
      </trkpt>
      <trkpt lat="42.393" lon="2.44272">
        <ele>1540.1</ele>
        <time>2018-11-28T15:43:20Z</time>
      </trkpt>
      <trkpt lat="42.39296" lon="2.44275">
        <ele>1540.1</ele>
        <time>2018-11-28T15:43:21Z</time>
      </trkpt>
      <trkpt lat="42.39298" lon="2.44275">
        <ele>1540.2</ele>
        <time>2018-11-28T15:43:22Z</time>
      </trkpt>
      <trkpt lat="42.39303" lon="2.44273">
        <ele>1539.8</ele>
        <time>2018-11-28T15:43:24Z</time>
      </trkpt>
      <trkpt lat="42.39295" lon="2.44271">
        <ele>1540.3</ele>
        <time>2018-11-28T15:43:27Z</time>
      </trkpt>
      <trkpt lat="42.39294" lon="2.44271">
        <ele>1540.5</ele>
        <time>2018-11-28T15:43:28Z</time>
      </trkpt>
      <trkpt lat="42.39296" lon="2.44266">
        <ele>1540.4</ele>
        <time>2018-11-28T15:43:30Z</time>
      </trkpt>
      <trkpt lat="42.39298" lon="2.44266">
        <ele>1540.3</ele>
        <time>2018-11-28T15:43:30Z</time>
      </trkpt>
      <trkpt lat="42.39293" lon="2.44272">
        <ele>1540.4</ele>
        <time>2018-11-28T15:43:33Z</time>
      </trkpt>
      <trkpt lat="42.39289" lon="2.4428">
        <ele>1540</ele>
        <time>2018-11-28T15:43:35Z</time>
      </trkpt>
      <trkpt lat="42.39287" lon="2.44266">
        <ele>1540.3</ele>
        <time>2018-11-28T15:43:40Z</time>
      </trkpt>
      <trkpt lat="42.39278" lon="2.44254">
        <ele>1539.7</ele>
        <time>2018-11-28T15:43:45Z</time>
      </trkpt>
      <trkpt lat="42.39266" lon="2.44239">
        <ele>1539.1</ele>
        <time>2018-11-28T15:43:51Z</time>
      </trkpt>
      <trkpt lat="42.39263" lon="2.44232">
        <ele>1539.3</ele>
        <time>2018-11-28T15:43:54Z</time>
      </trkpt>
      <trkpt lat="42.3926" lon="2.44205">
        <ele>1540.3</ele>
        <time>2018-11-28T15:44:02Z</time>
      </trkpt>
      <trkpt lat="42.39259" lon="2.44202">
        <ele>1540.5</ele>
        <time>2018-11-28T15:44:03Z</time>
      </trkpt>
      <trkpt lat="42.39259" lon="2.44194">
        <ele>1541.3</ele>
        <time>2018-11-28T15:44:05Z</time>
      </trkpt>
      <trkpt lat="42.39259" lon="2.44178">
        <ele>1542.6</ele>
        <time>2018-11-28T15:44:10Z</time>
      </trkpt>
      <trkpt lat="42.39261" lon="2.44163">
        <ele>1543.9</ele>
        <time>2018-11-28T15:44:15Z</time>
      </trkpt>
      <trkpt lat="42.3926" lon="2.4415">
        <ele>1544.8</ele>
        <time>2018-11-28T15:44:18Z</time>
      </trkpt>
      <trkpt lat="42.39262" lon="2.44125">
        <ele>1547</ele>
        <time>2018-11-28T15:44:26Z</time>
      </trkpt>
      <trkpt lat="42.39262" lon="2.44121">
        <ele>1547.3</ele>
        <time>2018-11-28T15:44:27Z</time>
      </trkpt>
      <trkpt lat="42.39265" lon="2.44111">
        <ele>1548.7</ele>
        <time>2018-11-28T15:44:30Z</time>
      </trkpt>
      <trkpt lat="42.39273" lon="2.44079">
        <ele>1552.7</ele>
        <time>2018-11-28T15:44:40Z</time>
      </trkpt>
      <trkpt lat="42.39273" lon="2.44068">
        <ele>1554</ele>
        <time>2018-11-28T15:44:43Z</time>
      </trkpt>
      <trkpt lat="42.39274" lon="2.44065">
        <ele>1554.4</ele>
        <time>2018-11-28T15:44:44Z</time>
      </trkpt>
      <trkpt lat="42.39273" lon="2.44059">
        <ele>1555.1</ele>
        <time>2018-11-28T15:44:46Z</time>
      </trkpt>
      <trkpt lat="42.39276" lon="2.44051">
        <ele>1556.2</ele>
        <time>2018-11-28T15:44:49Z</time>
      </trkpt>
      <trkpt lat="42.39278" lon="2.44041">
        <ele>1557.7</ele>
        <time>2018-11-28T15:44:52Z</time>
      </trkpt>
      <trkpt lat="42.39279" lon="2.4404">
        <ele>1557.8</ele>
        <time>2018-11-28T15:44:52Z</time>
      </trkpt>
      <trkpt lat="42.39281" lon="2.4403">
        <ele>1559.5</ele>
        <time>2018-11-28T15:44:55Z</time>
      </trkpt>
      <trkpt lat="42.39289" lon="2.44016">
        <ele>1562</ele>
        <time>2018-11-28T15:45:00Z</time>
      </trkpt>
      <trkpt lat="42.39293" lon="2.44002">
        <ele>1564.6</ele>
        <time>2018-11-28T15:45:05Z</time>
      </trkpt>
      <trkpt lat="42.39305" lon="2.43972">
        <ele>1569.8</ele>
        <time>2018-11-28T15:45:15Z</time>
      </trkpt>
      <trkpt lat="42.39311" lon="2.43955">
        <ele>1572.8</ele>
        <time>2018-11-28T15:45:21Z</time>
      </trkpt>
      <trkpt lat="42.39322" lon="2.43935">
        <ele>1577</ele>
        <time>2018-11-28T15:45:28Z</time>
      </trkpt>
      <trkpt lat="42.39323" lon="2.43935">
        <ele>1577.3</ele>
        <time>2018-11-28T15:45:28Z</time>
      </trkpt>
      <trkpt lat="42.39344" lon="2.4394">
        <ele>1579</ele>
        <time>2018-11-28T15:45:37Z</time>
      </trkpt>
      <trkpt lat="42.39347" lon="2.43941">
        <ele>1579.2</ele>
        <time>2018-11-28T15:45:38Z</time>
      </trkpt>
      <trkpt lat="42.39361" lon="2.43947">
        <ele>1580</ele>
        <time>2018-11-28T15:45:44Z</time>
      </trkpt>
      <trkpt lat="42.39375" lon="2.43959">
        <ele>1579.8</ele>
        <time>2018-11-28T15:45:50Z</time>
      </trkpt>
      <trkpt lat="42.39381" lon="2.43952">
        <ele>1581.4</ele>
        <time>2018-11-28T15:45:54Z</time>
      </trkpt>
      <trkpt lat="42.3937" lon="2.43945">
        <ele>1581.4</ele>
        <time>2018-11-28T15:45:59Z</time>
      </trkpt>
      <trkpt lat="42.39362" lon="2.4393">
        <ele>1582.8</ele>
        <time>2018-11-28T15:46:04Z</time>
      </trkpt>
      <trkpt lat="42.3935" lon="2.43919">
        <ele>1582.8</ele>
        <time>2018-11-28T15:46:10Z</time>
      </trkpt>
      <trkpt lat="42.39353" lon="2.43914">
        <ele>1584</ele>
        <time>2018-11-28T15:46:12Z</time>
      </trkpt>
      <trkpt lat="42.39345" lon="2.43897">
        <ele>1585.3</ele>
        <time>2018-11-28T15:46:17Z</time>
      </trkpt>
      <trkpt lat="42.39344" lon="2.43893">
        <ele>1585.8</ele>
        <time>2018-11-28T15:46:19Z</time>
      </trkpt>
      <trkpt lat="42.3934" lon="2.43868">
        <ele>1588.4</ele>
        <time>2018-11-28T15:46:26Z</time>
      </trkpt>
      <trkpt lat="42.39334" lon="2.43842">
        <ele>1589.3</ele>
        <time>2018-11-28T15:46:34Z</time>
      </trkpt>
      <trkpt lat="42.39331" lon="2.43841">
        <ele>1589</ele>
        <time>2018-11-28T15:46:36Z</time>
      </trkpt>
      <trkpt lat="42.39313" lon="2.43808">
        <ele>1589.1</ele>
        <time>2018-11-28T15:46:48Z</time>
      </trkpt>
      <trkpt lat="42.39308" lon="2.43788">
        <ele>1593.3</ele>
        <time>2018-11-28T15:46:54Z</time>
      </trkpt>
      <trkpt lat="42.39304" lon="2.4378">
        <ele>1592.6</ele>
        <time>2018-11-28T15:46:57Z</time>
      </trkpt>
      <trkpt lat="42.39304" lon="2.43766">
        <ele>1592.7</ele>
        <time>2018-11-28T15:47:01Z</time>
      </trkpt>
      <trkpt lat="42.39304" lon="2.43759">
        <ele>1592.7</ele>
        <time>2018-11-28T15:47:03Z</time>
      </trkpt>
      <trkpt lat="42.39302" lon="2.43757">
        <ele>1592.3</ele>
        <time>2018-11-28T15:47:04Z</time>
      </trkpt>
      <trkpt lat="42.39303" lon="2.43748">
        <ele>1592.7</ele>
        <time>2018-11-28T15:47:07Z</time>
      </trkpt>
      <trkpt lat="42.39304" lon="2.43729">
        <ele>1593.1</ele>
        <time>2018-11-28T15:47:12Z</time>
      </trkpt>
      <trkpt lat="42.3931" lon="2.43695">
        <ele>1594.5</ele>
        <time>2018-11-28T15:47:23Z</time>
      </trkpt>
      <trkpt lat="42.39308" lon="2.43692">
        <ele>1594.4</ele>
        <time>2018-11-28T15:47:24Z</time>
      </trkpt>
      <trkpt lat="42.39306" lon="2.4368">
        <ele>1594.8</ele>
        <time>2018-11-28T15:47:27Z</time>
      </trkpt>
      <trkpt lat="42.39313" lon="2.43677">
        <ele>1595.1</ele>
        <time>2018-11-28T15:47:30Z</time>
      </trkpt>
      <trkpt lat="42.39324" lon="2.43662">
        <ele>1595.8</ele>
        <time>2018-11-28T15:47:36Z</time>
      </trkpt>
      <trkpt lat="42.39333" lon="2.43642">
        <ele>1596.1</ele>
        <time>2018-11-28T15:47:43Z</time>
      </trkpt>
      <trkpt lat="42.39333" lon="2.43639">
        <ele>1596.1</ele>
        <time>2018-11-28T15:47:44Z</time>
      </trkpt>
      <trkpt lat="42.3933" lon="2.4362">
        <ele>1596.4</ele>
        <time>2018-11-28T15:47:50Z</time>
      </trkpt>
      <trkpt lat="42.39321" lon="2.43603">
        <ele>1597.3</ele>
        <time>2018-11-28T15:47:56Z</time>
      </trkpt>
      <trkpt lat="42.39313" lon="2.43581">
        <ele>1598.9</ele>
        <time>2018-11-28T15:48:03Z</time>
      </trkpt>
      <trkpt lat="42.39309" lon="2.43569">
        <ele>1600</ele>
        <time>2018-11-28T15:48:07Z</time>
      </trkpt>
      <trkpt lat="42.39311" lon="2.43555">
        <ele>1601.2</ele>
        <time>2018-11-28T15:48:11Z</time>
      </trkpt>
      <trkpt lat="42.39309" lon="2.43549">
        <ele>1601.9</ele>
        <time>2018-11-28T15:48:13Z</time>
      </trkpt>
      <trkpt lat="42.39307" lon="2.43544">
        <ele>1602.6</ele>
        <time>2018-11-28T15:48:15Z</time>
      </trkpt>
      <trkpt lat="42.39306" lon="2.43541">
        <ele>1602.9</ele>
        <time>2018-11-28T15:48:16Z</time>
      </trkpt>
      <trkpt lat="42.39306" lon="2.43533">
        <ele>1604</ele>
        <time>2018-11-28T15:48:18Z</time>
      </trkpt>
      <trkpt lat="42.39305" lon="2.4353">
        <ele>1604.5</ele>
        <time>2018-11-28T15:48:19Z</time>
      </trkpt>
      <trkpt lat="42.39304" lon="2.43525">
        <ele>1605.2</ele>
        <time>2018-11-28T15:48:21Z</time>
      </trkpt>
      <trkpt lat="42.39305" lon="2.43507">
        <ele>1607.7</ele>
        <time>2018-11-28T15:48:26Z</time>
      </trkpt>
      <trkpt lat="42.39306" lon="2.435">
        <ele>1608.4</ele>
        <time>2018-11-28T15:48:28Z</time>
      </trkpt>
      <trkpt lat="42.39308" lon="2.43491">
        <ele>1609.4</ele>
        <time>2018-11-28T15:48:31Z</time>
      </trkpt>
      <trkpt lat="42.39309" lon="2.43482">
        <ele>1610.6</ele>
        <time>2018-11-28T15:48:34Z</time>
      </trkpt>
      <trkpt lat="42.39308" lon="2.43478">
        <ele>1611.3</ele>
        <time>2018-11-28T15:48:35Z</time>
      </trkpt>
      <trkpt lat="42.39307" lon="2.43462">
        <ele>1613.2</ele>
        <time>2018-11-28T15:48:40Z</time>
      </trkpt>
      <trkpt lat="42.39307" lon="2.43448">
        <ele>1614.6</ele>
        <time>2018-11-28T15:48:44Z</time>
      </trkpt>
      <trkpt lat="42.39308" lon="2.43438">
        <ele>1615.4</ele>
        <time>2018-11-28T15:48:47Z</time>
      </trkpt>
      <trkpt lat="42.39308" lon="2.43424">
        <ele>1616.6</ele>
        <time>2018-11-28T15:48:51Z</time>
      </trkpt>
      <trkpt lat="42.39308" lon="2.43416">
        <ele>1617.3</ele>
        <time>2018-11-28T15:48:53Z</time>
      </trkpt>
      <trkpt lat="42.39306" lon="2.43403">
        <ele>1618.3</ele>
        <time>2018-11-28T15:48:57Z</time>
      </trkpt>
      <trkpt lat="42.39305" lon="2.43398">
        <ele>1618.8</ele>
        <time>2018-11-28T15:48:59Z</time>
      </trkpt>
      <trkpt lat="42.39298" lon="2.43385">
        <ele>1619.7</ele>
        <time>2018-11-28T15:49:04Z</time>
      </trkpt>
      <trkpt lat="42.39292" lon="2.43365">
        <ele>1620.8</ele>
        <time>2018-11-28T15:49:10Z</time>
      </trkpt>
      <trkpt lat="42.39291" lon="2.4336">
        <ele>1621.1</ele>
        <time>2018-11-28T15:49:12Z</time>
      </trkpt>
      <trkpt lat="42.39291" lon="2.4336">
        <ele>1621</ele>
        <time>2018-11-28T15:49:12Z</time>
      </trkpt>
      <trkpt lat="42.39289" lon="2.43359">
        <ele>1621.2</ele>
        <time>2018-11-28T15:49:12Z</time>
      </trkpt>
      <trkpt lat="42.39293" lon="2.43351">
        <ele>1621.3</ele>
        <time>2018-11-28T15:49:15Z</time>
      </trkpt>
      <trkpt lat="42.39301" lon="2.43344">
        <ele>1621.6</ele>
        <time>2018-11-28T15:49:19Z</time>
      </trkpt>
      <trkpt lat="42.39306" lon="2.43337">
        <ele>1622.4</ele>
        <time>2018-11-28T15:49:22Z</time>
      </trkpt>
      <trkpt lat="42.39312" lon="2.43331">
        <ele>1623</ele>
        <time>2018-11-28T15:49:25Z</time>
      </trkpt>
      <trkpt lat="42.3932" lon="2.43321">
        <ele>1624</ele>
        <time>2018-11-28T15:49:29Z</time>
      </trkpt>
      <trkpt lat="42.39325" lon="2.43316">
        <ele>1624.3</ele>
        <time>2018-11-28T15:49:32Z</time>
      </trkpt>
      <trkpt lat="42.39337" lon="2.43298">
        <ele>1625.4</ele>
        <time>2018-11-28T15:49:39Z</time>
      </trkpt>
      <trkpt lat="42.39351" lon="2.43286">
        <ele>1626</ele>
        <time>2018-11-28T15:49:45Z</time>
      </trkpt>
      <trkpt lat="42.39354" lon="2.43282">
        <ele>1626.1</ele>
        <time>2018-11-28T15:49:47Z</time>
      </trkpt>
      <trkpt lat="42.3936" lon="2.43278">
        <ele>1626.3</ele>
        <time>2018-11-28T15:49:50Z</time>
      </trkpt>
      <trkpt lat="42.39368" lon="2.43267">
        <ele>1626.5</ele>
        <time>2018-11-28T15:49:54Z</time>
      </trkpt>
      <trkpt lat="42.3937" lon="2.43258">
        <ele>1626.5</ele>
        <time>2018-11-28T15:49:57Z</time>
      </trkpt>
      <trkpt lat="42.39374" lon="2.43241">
        <ele>1626.4</ele>
        <time>2018-11-28T15:50:02Z</time>
      </trkpt>
      <trkpt lat="42.3938" lon="2.43201">
        <ele>1628.5</ele>
        <time>2018-11-28T15:50:15Z</time>
      </trkpt>
      <trkpt lat="42.3938" lon="2.4317">
        <ele>1630.7</ele>
        <time>2018-11-28T15:50:24Z</time>
      </trkpt>
      <trkpt lat="42.39378" lon="2.43152">
        <ele>1632.1</ele>
        <time>2018-11-28T15:50:29Z</time>
      </trkpt>
      <trkpt lat="42.39375" lon="2.43123">
        <ele>1634.1</ele>
        <time>2018-11-28T15:50:38Z</time>
      </trkpt>
      <trkpt lat="42.39381" lon="2.43092">
        <ele>1636.1</ele>
        <time>2018-11-28T15:50:47Z</time>
      </trkpt>
      <trkpt lat="42.39381" lon="2.4309">
        <ele>1636.2</ele>
        <time>2018-11-28T15:50:48Z</time>
      </trkpt>
      <trkpt lat="42.39387" lon="2.43057">
        <ele>1636.8</ele>
        <time>2018-11-28T15:50:58Z</time>
      </trkpt>
      <trkpt lat="42.39388" lon="2.43056">
        <ele>1636.8</ele>
        <time>2018-11-28T15:50:58Z</time>
      </trkpt>
      <trkpt lat="42.39399" lon="2.4303">
        <ele>1635.6</ele>
        <time>2018-11-28T15:51:07Z</time>
      </trkpt>
      <trkpt lat="42.39404" lon="2.43024">
        <ele>1634.9</ele>
        <time>2018-11-28T15:51:10Z</time>
      </trkpt>
      <trkpt lat="42.3941" lon="2.42998">
        <ele>1633.1</ele>
        <time>2018-11-28T15:51:18Z</time>
      </trkpt>
      <trkpt lat="42.39415" lon="2.42976">
        <ele>1631.3</ele>
        <time>2018-11-28T15:51:25Z</time>
      </trkpt>
      <trkpt lat="42.39416" lon="2.42949">
        <ele>1629.5</ele>
        <time>2018-11-28T15:51:33Z</time>
      </trkpt>
      <trkpt lat="42.39418" lon="2.42916">
        <ele>1627.5</ele>
        <time>2018-11-28T15:51:43Z</time>
      </trkpt>
      <trkpt lat="42.39416" lon="2.42875">
        <ele>1625.9</ele>
        <time>2018-11-28T15:51:55Z</time>
      </trkpt>
      <trkpt lat="42.39417" lon="2.42872">
        <ele>1625.9</ele>
        <time>2018-11-28T15:51:55Z</time>
      </trkpt>
      <trkpt lat="42.39415" lon="2.42835">
        <ele>1625.7</ele>
        <time>2018-11-28T15:52:07Z</time>
      </trkpt>
      <trkpt lat="42.39408" lon="2.42823">
        <ele>1625.7</ele>
        <time>2018-11-28T15:52:11Z</time>
      </trkpt>
      <trkpt lat="42.39407" lon="2.42816">
        <ele>1625.9</ele>
        <time>2018-11-28T15:52:13Z</time>
      </trkpt>
      <trkpt lat="42.39397" lon="2.42791">
        <ele>1626</ele>
        <time>2018-11-28T15:52:21Z</time>
      </trkpt>
      <trkpt lat="42.39396" lon="2.42787">
        <ele>1626</ele>
        <time>2018-11-28T15:52:23Z</time>
      </trkpt>
      <trkpt lat="42.39396" lon="2.42787">
        <ele>1626.1</ele>
        <time>2018-11-28T15:52:23Z</time>
      </trkpt>
      <trkpt lat="42.394" lon="2.42789">
        <ele>1626</ele>
        <time>2018-11-28T15:52:25Z</time>
      </trkpt>
      <trkpt lat="42.39401" lon="2.42778">
        <ele>1626.3</ele>
        <time>2018-11-28T15:52:28Z</time>
      </trkpt>
      <trkpt lat="42.39395" lon="2.4275">
        <ele>1627.6</ele>
        <time>2018-11-28T15:52:36Z</time>
      </trkpt>
      <trkpt lat="42.3939" lon="2.42712">
        <ele>1630.2</ele>
        <time>2018-11-28T15:52:48Z</time>
      </trkpt>
      <trkpt lat="42.39389" lon="2.42687">
        <ele>1632.8</ele>
        <time>2018-11-28T15:52:55Z</time>
      </trkpt>
      <trkpt lat="42.39386" lon="2.42666">
        <ele>1635.1</ele>
        <time>2018-11-28T15:53:01Z</time>
      </trkpt>
      <trkpt lat="42.39383" lon="2.42639">
        <ele>1638.9</ele>
        <time>2018-11-28T15:53:10Z</time>
      </trkpt>
      <trkpt lat="42.39385" lon="2.42641">
        <ele>1638.4</ele>
        <time>2018-11-28T15:53:11Z</time>
      </trkpt>
      <trkpt lat="42.39385" lon="2.42639">
        <ele>1638.9</ele>
        <time>2018-11-28T15:53:12Z</time>
      </trkpt>
      <trkpt lat="42.3938" lon="2.42607">
        <ele>1642.6</ele>
        <time>2018-11-28T15:53:21Z</time>
      </trkpt>
      <trkpt lat="42.39373" lon="2.42587">
        <ele>1644.8</ele>
        <time>2018-11-28T15:53:28Z</time>
      </trkpt>
      <trkpt lat="42.39369" lon="2.42555">
        <ele>1647.4</ele>
        <time>2018-11-28T15:53:37Z</time>
      </trkpt>
      <trkpt lat="42.39365" lon="2.4254">
        <ele>1649.1</ele>
        <time>2018-11-28T15:53:42Z</time>
      </trkpt>
      <trkpt lat="42.39363" lon="2.42527">
        <ele>1650.4</ele>
        <time>2018-11-28T15:53:46Z</time>
      </trkpt>
      <trkpt lat="42.39355" lon="2.425">
        <ele>1651.6</ele>
        <time>2018-11-28T15:53:55Z</time>
      </trkpt>
      <trkpt lat="42.39355" lon="2.42487">
        <ele>1651.7</ele>
        <time>2018-11-28T15:53:59Z</time>
      </trkpt>
      <trkpt lat="42.39355" lon="2.42474">
        <ele>1651.2</ele>
        <time>2018-11-28T15:54:02Z</time>
      </trkpt>
      <trkpt lat="42.39353" lon="2.42469">
        <ele>1650.7</ele>
        <time>2018-11-28T15:54:04Z</time>
      </trkpt>
      <trkpt lat="42.39352" lon="2.42466">
        <ele>1650.5</ele>
        <time>2018-11-28T15:54:05Z</time>
      </trkpt>
      <trkpt lat="42.39349" lon="2.42458">
        <ele>1649.7</ele>
        <time>2018-11-28T15:54:08Z</time>
      </trkpt>
      <trkpt lat="42.39349" lon="2.42458">
        <ele>1649.8</ele>
        <time>2018-11-28T15:54:08Z</time>
      </trkpt>
      <trkpt lat="42.39346" lon="2.42455">
        <ele>1649.2</ele>
        <time>2018-11-28T15:54:09Z</time>
      </trkpt>
      <trkpt lat="42.39341" lon="2.42445">
        <ele>1647.9</ele>
        <time>2018-11-28T15:54:13Z</time>
      </trkpt>
      <trkpt lat="42.39329" lon="2.42437">
        <ele>1646</ele>
        <time>2018-11-28T15:54:18Z</time>
      </trkpt>
      <trkpt lat="42.39324" lon="2.42425">
        <ele>1644.4</ele>
        <time>2018-11-28T15:54:22Z</time>
      </trkpt>
      <trkpt lat="42.39323" lon="2.42408">
        <ele>1643.3</ele>
        <time>2018-11-28T15:54:27Z</time>
      </trkpt>
      <trkpt lat="42.39322" lon="2.42397">
        <ele>1641.7</ele>
        <time>2018-11-28T15:54:31Z</time>
      </trkpt>
      <trkpt lat="42.39323" lon="2.42379">
        <ele>1639.9</ele>
        <time>2018-11-28T15:54:36Z</time>
      </trkpt>
      <trkpt lat="42.39327" lon="2.42368">
        <ele>1639.1</ele>
        <time>2018-11-28T15:54:39Z</time>
      </trkpt>
      <trkpt lat="42.39333" lon="2.42357">
        <ele>1638.4</ele>
        <time>2018-11-28T15:54:44Z</time>
      </trkpt>
      <trkpt lat="42.39334" lon="2.42356">
        <ele>1638.3</ele>
        <time>2018-11-28T15:54:44Z</time>
      </trkpt>
      <trkpt lat="42.39336" lon="2.42339">
        <ele>1636.6</ele>
        <time>2018-11-28T15:54:49Z</time>
      </trkpt>
      <trkpt lat="42.39334" lon="2.42322">
        <ele>1633.9</ele>
        <time>2018-11-28T15:54:54Z</time>
      </trkpt>
      <trkpt lat="42.39332" lon="2.4231">
        <ele>1631.9</ele>
        <time>2018-11-28T15:54:58Z</time>
      </trkpt>
      <trkpt lat="42.39331" lon="2.42299">
        <ele>1630.1</ele>
        <time>2018-11-28T15:55:01Z</time>
      </trkpt>
      <trkpt lat="42.39329" lon="2.42293">
        <ele>1628.6</ele>
        <time>2018-11-28T15:55:03Z</time>
      </trkpt>
      <trkpt lat="42.3933" lon="2.42285">
        <ele>1627.3</ele>
        <time>2018-11-28T15:55:05Z</time>
      </trkpt>
      <trkpt lat="42.39331" lon="2.42278">
        <ele>1625.8</ele>
        <time>2018-11-28T15:55:08Z</time>
      </trkpt>
      <trkpt lat="42.39334" lon="2.42268">
        <ele>1624.1</ele>
        <time>2018-11-28T15:55:11Z</time>
      </trkpt>
      <trkpt lat="42.39336" lon="2.42256">
        <ele>1621.8</ele>
        <time>2018-11-28T15:55:14Z</time>
      </trkpt>
      <trkpt lat="42.39338" lon="2.42237">
        <ele>1618.2</ele>
        <time>2018-11-28T15:55:20Z</time>
      </trkpt>
      <trkpt lat="42.39336" lon="2.4224">
        <ele>1618.5</ele>
        <time>2018-11-28T15:55:21Z</time>
      </trkpt>
      <trkpt lat="42.39327" lon="2.42193">
        <ele>1610.4</ele>
        <time>2018-11-28T15:55:35Z</time>
      </trkpt>
      <trkpt lat="42.39327" lon="2.42191">
        <ele>1610</ele>
        <time>2018-11-28T15:55:36Z</time>
      </trkpt>
      <trkpt lat="42.39313" lon="2.4214">
        <ele>1602.3</ele>
        <time>2018-11-28T15:55:52Z</time>
      </trkpt>
      <trkpt lat="42.39284" lon="2.42047">
        <ele>1600.8</ele>
        <time>2018-11-28T15:56:22Z</time>
      </trkpt>
      <trkpt lat="42.39266" lon="2.41982">
        <ele>1603</ele>
        <time>2018-11-28T15:56:42Z</time>
      </trkpt>
      <trkpt lat="42.39284" lon="2.41933">
        <ele>1597.5</ele>
        <time>2018-11-28T15:56:58Z</time>
      </trkpt>
      <trkpt lat="42.39289" lon="2.41928">
        <ele>1595.9</ele>
        <time>2018-11-28T15:57:01Z</time>
      </trkpt>
      <trkpt lat="42.39298" lon="2.41882">
        <ele>1584.5</ele>
        <time>2018-11-28T15:57:15Z</time>
      </trkpt>
      <trkpt lat="42.39309" lon="2.41809">
        <ele>1573.5</ele>
        <time>2018-11-28T15:57:37Z</time>
      </trkpt>
      <trkpt lat="42.39297" lon="2.41731">
        <ele>1568.4</ele>
        <time>2018-11-28T15:58:01Z</time>
      </trkpt>
      <trkpt lat="42.39273" lon="2.41663">
        <ele>1569</ele>
        <time>2018-11-28T15:58:23Z</time>
      </trkpt>
      <trkpt lat="42.39273" lon="2.41658">
        <ele>1569.1</ele>
        <time>2018-11-28T15:58:24Z</time>
      </trkpt>
      <trkpt lat="42.39248" lon="2.41602">
        <ele>1570.3</ele>
        <time>2018-11-28T15:58:44Z</time>
      </trkpt>
      <trkpt lat="42.39261" lon="2.41566">
        <ele>1569.6</ele>
        <time>2018-11-28T15:58:55Z</time>
      </trkpt>
      <trkpt lat="42.39262" lon="2.41563">
        <ele>1569.4</ele>
        <time>2018-11-28T15:58:56Z</time>
      </trkpt>
      <trkpt lat="42.39273" lon="2.4152">
        <ele>1568.5</ele>
        <time>2018-11-28T15:59:10Z</time>
      </trkpt>
      <trkpt lat="42.39277" lon="2.41459">
        <ele>1568.2</ele>
        <time>2018-11-28T15:59:28Z</time>
      </trkpt>
      <trkpt lat="42.39277" lon="2.41391">
        <ele>1567.1</ele>
        <time>2018-11-28T15:59:48Z</time>
      </trkpt>
      <trkpt lat="42.39271" lon="2.41318">
        <ele>1566.2</ele>
        <time>2018-11-28T16:00:10Z</time>
      </trkpt>
      <trkpt lat="42.39271" lon="2.41247">
        <ele>1563.2</ele>
        <time>2018-11-28T16:00:31Z</time>
      </trkpt>
      <trkpt lat="42.39282" lon="2.41169">
        <ele>1558.2</ele>
        <time>2018-11-28T16:00:54Z</time>
      </trkpt>
      <trkpt lat="42.39275" lon="2.41139">
        <ele>1557.3</ele>
        <time>2018-11-28T16:01:04Z</time>
      </trkpt>
      <trkpt lat="42.39278" lon="2.41108">
        <ele>1555.4</ele>
        <time>2018-11-28T16:01:13Z</time>
      </trkpt>
      <trkpt lat="42.39283" lon="2.4107">
        <ele>1553.2</ele>
        <time>2018-11-28T16:01:25Z</time>
      </trkpt>
      <trkpt lat="42.39284" lon="2.41061">
        <ele>1552.8</ele>
        <time>2018-11-28T16:01:27Z</time>
      </trkpt>
      <trkpt lat="42.39283" lon="2.41044">
        <ele>1551.8</ele>
        <time>2018-11-28T16:01:32Z</time>
      </trkpt>
      <trkpt lat="42.3929" lon="2.41017">
        <ele>1549.7</ele>
        <time>2018-11-28T16:01:41Z</time>
      </trkpt>
      <trkpt lat="42.3929" lon="2.41015">
        <ele>1549.6</ele>
        <time>2018-11-28T16:01:41Z</time>
      </trkpt>
      <trkpt lat="42.39289" lon="2.40996">
        <ele>1547.9</ele>
        <time>2018-11-28T16:01:47Z</time>
      </trkpt>
      <trkpt lat="42.39289" lon="2.40972">
        <ele>1545.6</ele>
        <time>2018-11-28T16:01:54Z</time>
      </trkpt>
      <trkpt lat="42.39292" lon="2.40952">
        <ele>1543.5</ele>
        <time>2018-11-28T16:02:00Z</time>
      </trkpt>
      <trkpt lat="42.39294" lon="2.40934">
        <ele>1541.7</ele>
        <time>2018-11-28T16:02:05Z</time>
      </trkpt>
      <trkpt lat="42.39297" lon="2.40931">
        <ele>1541.4</ele>
        <time>2018-11-28T16:02:07Z</time>
      </trkpt>
      <trkpt lat="42.39297" lon="2.4093">
        <ele>1541.3</ele>
        <time>2018-11-28T16:02:07Z</time>
      </trkpt>
      <trkpt lat="42.39297" lon="2.40899">
        <ele>1538.7</ele>
        <time>2018-11-28T16:02:16Z</time>
      </trkpt>
      <trkpt lat="42.39297" lon="2.40886">
        <ele>1537.8</ele>
        <time>2018-11-28T16:02:20Z</time>
      </trkpt>
      <trkpt lat="42.39296" lon="2.4086">
        <ele>1536.1</ele>
        <time>2018-11-28T16:02:28Z</time>
      </trkpt>
      <trkpt lat="42.39297" lon="2.40854">
        <ele>1535.8</ele>
        <time>2018-11-28T16:02:30Z</time>
      </trkpt>
      <trkpt lat="42.39297" lon="2.40849">
        <ele>1535.5</ele>
        <time>2018-11-28T16:02:31Z</time>
      </trkpt>
      <trkpt lat="42.39299" lon="2.40832">
        <ele>1534.8</ele>
        <time>2018-11-28T16:02:36Z</time>
      </trkpt>
      <trkpt lat="42.39299" lon="2.40829">
        <ele>1534.7</ele>
        <time>2018-11-28T16:02:37Z</time>
      </trkpt>
      <trkpt lat="42.39299" lon="2.40813">
        <ele>1534.2</ele>
        <time>2018-11-28T16:02:42Z</time>
      </trkpt>
      <trkpt lat="42.39296" lon="2.40813">
        <ele>1534.3</ele>
        <time>2018-11-28T16:02:43Z</time>
      </trkpt>
      <trkpt lat="42.39301" lon="2.40807">
        <ele>1534.1</ele>
        <time>2018-11-28T16:02:46Z</time>
      </trkpt>
      <trkpt lat="42.39299" lon="2.40802">
        <ele>1534.1</ele>
        <time>2018-11-28T16:02:47Z</time>
      </trkpt>
      <trkpt lat="42.39282" lon="2.4079">
        <ele>1533.6</ele>
        <time>2018-11-28T16:02:55Z</time>
      </trkpt>
      <trkpt lat="42.39277" lon="2.40787">
        <ele>1533.3</ele>
        <time>2018-11-28T16:02:57Z</time>
      </trkpt>
      <trkpt lat="42.39276" lon="2.40784">
        <ele>1533.2</ele>
        <time>2018-11-28T16:02:58Z</time>
      </trkpt>
      <trkpt lat="42.39269" lon="2.4078">
        <ele>1532.5</ele>
        <time>2018-11-28T16:03:01Z</time>
      </trkpt>
      <trkpt lat="42.39254" lon="2.40771">
        <ele>1531</ele>
        <time>2018-11-28T16:03:07Z</time>
      </trkpt>
      <trkpt lat="42.39238" lon="2.40765">
        <ele>1529.7</ele>
        <time>2018-11-28T16:03:14Z</time>
      </trkpt>
      <trkpt lat="42.39229" lon="2.40761">
        <ele>1528.5</ele>
        <time>2018-11-28T16:03:18Z</time>
      </trkpt>
      <trkpt lat="42.39217" lon="2.40755">
        <ele>1526.7</ele>
        <time>2018-11-28T16:03:23Z</time>
      </trkpt>
      <trkpt lat="42.39201" lon="2.40753">
        <ele>1524.1</ele>
        <time>2018-11-28T16:03:30Z</time>
      </trkpt>
      <trkpt lat="42.39191" lon="2.40745">
        <ele>1522</ele>
        <time>2018-11-28T16:03:34Z</time>
      </trkpt>
      <trkpt lat="42.39183" lon="2.4074">
        <ele>1520</ele>
        <time>2018-11-28T16:03:38Z</time>
      </trkpt>
      <trkpt lat="42.3917" lon="2.40731">
        <ele>1516.7</ele>
        <time>2018-11-28T16:03:43Z</time>
      </trkpt>
      <trkpt lat="42.39165" lon="2.4073">
        <ele>1515</ele>
        <time>2018-11-28T16:03:46Z</time>
      </trkpt>
      <trkpt lat="42.39154" lon="2.40738">
        <ele>1512.1</ele>
        <time>2018-11-28T16:03:51Z</time>
      </trkpt>
      <trkpt lat="42.39147" lon="2.40743">
        <ele>1510.7</ele>
        <time>2018-11-28T16:03:54Z</time>
      </trkpt>
      <trkpt lat="42.39146" lon="2.40747">
        <ele>1510.5</ele>
        <time>2018-11-28T16:03:55Z</time>
      </trkpt>
      <trkpt lat="42.39145" lon="2.40749">
        <ele>1510.6</ele>
        <time>2018-11-28T16:03:56Z</time>
      </trkpt>
      <trkpt lat="42.39147" lon="2.40748">
        <ele>1511</ele>
        <time>2018-11-28T16:03:56Z</time>
      </trkpt>
      <trkpt lat="42.39148" lon="2.40745">
        <ele>1511</ele>
        <time>2018-11-28T16:03:57Z</time>
      </trkpt>
      <trkpt lat="42.39144" lon="2.40742">
        <ele>1509.6</ele>
        <time>2018-11-28T16:03:59Z</time>
      </trkpt>
      <trkpt lat="42.39133" lon="2.40742">
        <ele>1506.5</ele>
        <time>2018-11-28T16:04:04Z</time>
      </trkpt>
      <trkpt lat="42.39124" lon="2.40746">
        <ele>1504.1</ele>
        <time>2018-11-28T16:04:07Z</time>
      </trkpt>
      <trkpt lat="42.39118" lon="2.40746">
        <ele>1502.4</ele>
        <time>2018-11-28T16:04:10Z</time>
      </trkpt>
      <trkpt lat="42.3911" lon="2.40747">
        <ele>1499.9</ele>
        <time>2018-11-28T16:04:13Z</time>
      </trkpt>
      <trkpt lat="42.39105" lon="2.40738">
        <ele>1497.3</ele>
        <time>2018-11-28T16:04:16Z</time>
      </trkpt>
      <trkpt lat="42.39103" lon="2.40722">
        <ele>1495.7</ele>
        <time>2018-11-28T16:04:21Z</time>
      </trkpt>
      <trkpt lat="42.39095" lon="2.4072">
        <ele>1492.9</ele>
        <time>2018-11-28T16:04:24Z</time>
      </trkpt>
      <trkpt lat="42.39085" lon="2.40736">
        <ele>1490.7</ele>
        <time>2018-11-28T16:04:30Z</time>
      </trkpt>
      <trkpt lat="42.39079" lon="2.40742">
        <ele>1489.7</ele>
        <time>2018-11-28T16:04:33Z</time>
      </trkpt>
      <trkpt lat="42.39072" lon="2.40743">
        <ele>1487.8</ele>
        <time>2018-11-28T16:04:36Z</time>
      </trkpt>
      <trkpt lat="42.39066" lon="2.40735">
        <ele>1484.5</ele>
        <time>2018-11-28T16:04:39Z</time>
      </trkpt>
      <trkpt lat="42.39056" lon="2.40729">
        <ele>1480.5</ele>
        <time>2018-11-28T16:04:44Z</time>
      </trkpt>
      <trkpt lat="42.39055" lon="2.40729">
        <ele>1480.4</ele>
        <time>2018-11-28T16:04:44Z</time>
      </trkpt>
      <trkpt lat="42.3905" lon="2.40726">
        <ele>1478</ele>
        <time>2018-11-28T16:04:46Z</time>
      </trkpt>
      <trkpt lat="42.39045" lon="2.40721">
        <ele>1475.7</ele>
        <time>2018-11-28T16:04:49Z</time>
      </trkpt>
      <trkpt lat="42.39044" lon="2.4072">
        <ele>1475.3</ele>
        <time>2018-11-28T16:04:49Z</time>
      </trkpt>
      <trkpt lat="42.39044" lon="2.40715">
        <ele>1474.4</ele>
        <time>2018-11-28T16:04:51Z</time>
      </trkpt>
      <trkpt lat="42.39037" lon="2.4071">
        <ele>1471.1</ele>
        <time>2018-11-28T16:04:54Z</time>
      </trkpt>
      <trkpt lat="42.39024" lon="2.40711">
        <ele>1466.9</ele>
        <time>2018-11-28T16:04:59Z</time>
      </trkpt>
      <trkpt lat="42.3902" lon="2.40708">
        <ele>1464.6</ele>
        <time>2018-11-28T16:05:01Z</time>
      </trkpt>
      <trkpt lat="42.39011" lon="2.40699">
        <ele>1461.2</ele>
        <time>2018-11-28T16:05:05Z</time>
      </trkpt>
      <trkpt lat="42.39008" lon="2.40697">
        <ele>1460.4</ele>
        <time>2018-11-28T16:05:07Z</time>
      </trkpt>
      <trkpt lat="42.39014" lon="2.40689">
        <ele>1461.6</ele>
        <time>2018-11-28T16:05:10Z</time>
      </trkpt>
      <trkpt lat="42.39015" lon="2.40679">
        <ele>1461.6</ele>
        <time>2018-11-28T16:05:13Z</time>
      </trkpt>
      <trkpt lat="42.39016" lon="2.4067">
        <ele>1461.5</ele>
        <time>2018-11-28T16:05:16Z</time>
      </trkpt>
      <trkpt lat="42.39003" lon="2.4067">
        <ele>1459.1</ele>
        <time>2018-11-28T16:05:21Z</time>
      </trkpt>
      <trkpt lat="42.38997" lon="2.4067">
        <ele>1458.1</ele>
        <time>2018-11-28T16:05:23Z</time>
      </trkpt>
      <trkpt lat="42.38986" lon="2.40671">
        <ele>1456.5</ele>
        <time>2018-11-28T16:05:28Z</time>
      </trkpt>
      <trkpt lat="42.38972" lon="2.40666">
        <ele>1455.6</ele>
        <time>2018-11-28T16:05:34Z</time>
      </trkpt>
      <trkpt lat="42.38968" lon="2.40665">
        <ele>1455.4</ele>
        <time>2018-11-28T16:05:35Z</time>
      </trkpt>
      <trkpt lat="42.38955" lon="2.40668">
        <ele>1454.7</ele>
        <time>2018-11-28T16:05:40Z</time>
      </trkpt>
      <trkpt lat="42.38944" lon="2.40667">
        <ele>1455.1</ele>
        <time>2018-11-28T16:05:45Z</time>
      </trkpt>
      <trkpt lat="42.38938" lon="2.40665">
        <ele>1455.8</ele>
        <time>2018-11-28T16:05:47Z</time>
      </trkpt>
      <trkpt lat="42.3893" lon="2.40658">
        <ele>1456.4</ele>
        <time>2018-11-28T16:05:51Z</time>
      </trkpt>
      <trkpt lat="42.38919" lon="2.40647">
        <ele>1457</ele>
        <time>2018-11-28T16:05:57Z</time>
      </trkpt>
      <trkpt lat="42.38913" lon="2.40644">
        <ele>1456.3</ele>
        <time>2018-11-28T16:05:59Z</time>
      </trkpt>
      <trkpt lat="42.38909" lon="2.4064">
        <ele>1456.2</ele>
        <time>2018-11-28T16:06:01Z</time>
      </trkpt>
      <trkpt lat="42.38902" lon="2.40629">
        <ele>1456.7</ele>
        <time>2018-11-28T16:06:06Z</time>
      </trkpt>
      <trkpt lat="42.38899" lon="2.40627">
        <ele>1456.1</ele>
        <time>2018-11-28T16:06:07Z</time>
      </trkpt>
      <trkpt lat="42.38898" lon="2.40626">
        <ele>1456</ele>
        <time>2018-11-28T16:06:07Z</time>
      </trkpt>
      <trkpt lat="42.38889" lon="2.40611">
        <ele>1455.3</ele>
        <time>2018-11-28T16:06:13Z</time>
      </trkpt>
      <trkpt lat="42.38886" lon="2.40596">
        <ele>1456.6</ele>
        <time>2018-11-28T16:06:18Z</time>
      </trkpt>
      <trkpt lat="42.38879" lon="2.40579">
        <ele>1455.5</ele>
        <time>2018-11-28T16:06:23Z</time>
      </trkpt>
      <trkpt lat="42.38879" lon="2.40573">
        <ele>1455.9</ele>
        <time>2018-11-28T16:06:25Z</time>
      </trkpt>
      <trkpt lat="42.38878" lon="2.40571">
        <ele>1455.9</ele>
        <time>2018-11-28T16:06:26Z</time>
      </trkpt>
      <trkpt lat="42.38879" lon="2.40556">
        <ele>1457.5</ele>
        <time>2018-11-28T16:06:30Z</time>
      </trkpt>
      <trkpt lat="42.38877" lon="2.40542">
        <ele>1457.9</ele>
        <time>2018-11-28T16:06:35Z</time>
      </trkpt>
      <trkpt lat="42.38874" lon="2.40531">
        <ele>1457.4</ele>
        <time>2018-11-28T16:06:38Z</time>
      </trkpt>
      <trkpt lat="42.38872" lon="2.40525">
        <ele>1457.4</ele>
        <time>2018-11-28T16:06:40Z</time>
      </trkpt>
      <trkpt lat="42.38863" lon="2.40513">
        <ele>1456</ele>
        <time>2018-11-28T16:06:45Z</time>
      </trkpt>
      <trkpt lat="42.38863" lon="2.4051">
        <ele>1456.5</ele>
        <time>2018-11-28T16:06:46Z</time>
      </trkpt>
      <trkpt lat="42.3886" lon="2.40505">
        <ele>1456.4</ele>
        <time>2018-11-28T16:06:48Z</time>
      </trkpt>
      <trkpt lat="42.38858" lon="2.40502">
        <ele>1456.2</ele>
        <time>2018-11-28T16:06:49Z</time>
      </trkpt>
      <trkpt lat="42.38857" lon="2.40501">
        <ele>1456.3</ele>
        <time>2018-11-28T16:06:49Z</time>
      </trkpt>
      <trkpt lat="42.38848" lon="2.40488">
        <ele>1456.3</ele>
        <time>2018-11-28T16:06:55Z</time>
      </trkpt>
      <trkpt lat="42.38848" lon="2.40485">
        <ele>1456.6</ele>
        <time>2018-11-28T16:06:56Z</time>
      </trkpt>
      <trkpt lat="42.38843" lon="2.40478">
        <ele>1456.3</ele>
        <time>2018-11-28T16:06:58Z</time>
      </trkpt>
      <trkpt lat="42.38838" lon="2.40473">
        <ele>1455.5</ele>
        <time>2018-11-28T16:07:01Z</time>
      </trkpt>
      <trkpt lat="42.38837" lon="2.40471">
        <ele>1455.5</ele>
        <time>2018-11-28T16:07:02Z</time>
      </trkpt>
      <trkpt lat="42.38833" lon="2.40463">
        <ele>1455.4</ele>
        <time>2018-11-28T16:07:04Z</time>
      </trkpt>
      <trkpt lat="42.38825" lon="2.40452">
        <ele>1455.2</ele>
        <time>2018-11-28T16:07:09Z</time>
      </trkpt>
      <trkpt lat="42.38815" lon="2.40439">
        <ele>1453.3</ele>
        <time>2018-11-28T16:07:15Z</time>
      </trkpt>
      <trkpt lat="42.3881" lon="2.40421">
        <ele>1452.7</ele>
        <time>2018-11-28T16:07:20Z</time>
      </trkpt>
      <trkpt lat="42.38811" lon="2.40396">
        <ele>1452.5</ele>
        <time>2018-11-28T16:07:28Z</time>
      </trkpt>
      <trkpt lat="42.38811" lon="2.40376">
        <ele>1451.6</ele>
        <time>2018-11-28T16:07:33Z</time>
      </trkpt>
      <trkpt lat="42.38813" lon="2.40356">
        <ele>1450.6</ele>
        <time>2018-11-28T16:07:39Z</time>
      </trkpt>
      <trkpt lat="42.38817" lon="2.40347">
        <ele>1451.3</ele>
        <time>2018-11-28T16:07:43Z</time>
      </trkpt>
      <trkpt lat="42.38814" lon="2.40338">
        <ele>1449.3</ele>
        <time>2018-11-28T16:07:46Z</time>
      </trkpt>
      <trkpt lat="42.38798" lon="2.4033">
        <ele>1445.6</ele>
        <time>2018-11-28T16:07:53Z</time>
      </trkpt>
      <trkpt lat="42.38782" lon="2.40321">
        <ele>1442</ele>
        <time>2018-11-28T16:07:59Z</time>
      </trkpt>
      <trkpt lat="42.38765" lon="2.40311">
        <ele>1438.8</ele>
        <time>2018-11-28T16:08:07Z</time>
      </trkpt>
      <trkpt lat="42.38754" lon="2.40305">
        <ele>1436.7</ele>
        <time>2018-11-28T16:08:12Z</time>
      </trkpt>
      <trkpt lat="42.38746" lon="2.403">
        <ele>1435.6</ele>
        <time>2018-11-28T16:08:15Z</time>
      </trkpt>
      <trkpt lat="42.38737" lon="2.403">
        <ele>1432.9</ele>
        <time>2018-11-28T16:08:19Z</time>
      </trkpt>
      <trkpt lat="42.38731" lon="2.40299">
        <ele>1431.5</ele>
        <time>2018-11-28T16:08:21Z</time>
      </trkpt>
      <trkpt lat="42.38716" lon="2.40299">
        <ele>1427.4</ele>
        <time>2018-11-28T16:08:27Z</time>
      </trkpt>
      <trkpt lat="42.38703" lon="2.40294">
        <ele>1426</ele>
        <time>2018-11-28T16:08:32Z</time>
      </trkpt>
      <trkpt lat="42.38699" lon="2.40292">
        <ele>1425.6</ele>
        <time>2018-11-28T16:08:34Z</time>
      </trkpt>
      <trkpt lat="42.38686" lon="2.40263">
        <ele>1425.7</ele>
        <time>2018-11-28T16:08:44Z</time>
      </trkpt>
      <trkpt lat="42.38669" lon="2.40234">
        <ele>1424.7</ele>
        <time>2018-11-28T16:08:55Z</time>
      </trkpt>
      <trkpt lat="42.38654" lon="2.40213">
        <ele>1424.1</ele>
        <time>2018-11-28T16:09:04Z</time>
      </trkpt>
      <trkpt lat="42.3865" lon="2.40206">
        <ele>1424.1</ele>
        <time>2018-11-28T16:09:06Z</time>
      </trkpt>
      <trkpt lat="42.38639" lon="2.40187">
        <ele>1424.4</ele>
        <time>2018-11-28T16:09:13Z</time>
      </trkpt>
      <trkpt lat="42.38628" lon="2.40176">
        <ele>1423.8</ele>
        <time>2018-11-28T16:09:19Z</time>
      </trkpt>
      <trkpt lat="42.38607" lon="2.40174">
        <ele>1420.8</ele>
        <time>2018-11-28T16:09:27Z</time>
      </trkpt>
      <trkpt lat="42.38591" lon="2.40178">
        <ele>1417.9</ele>
        <time>2018-11-28T16:09:34Z</time>
      </trkpt>
      <trkpt lat="42.38581" lon="2.40176">
        <ele>1416.2</ele>
        <time>2018-11-28T16:09:38Z</time>
      </trkpt>
      <trkpt lat="42.38567" lon="2.40174">
        <ele>1413.4</ele>
        <time>2018-11-28T16:09:43Z</time>
      </trkpt>
      <trkpt lat="42.38558" lon="2.40167">
        <ele>1412.7</ele>
        <time>2018-11-28T16:09:48Z</time>
      </trkpt>
      <trkpt lat="42.38544" lon="2.40164">
        <ele>1409.3</ele>
        <time>2018-11-28T16:09:53Z</time>
      </trkpt>
      <trkpt lat="42.38536" lon="2.4016">
        <ele>1407.9</ele>
        <time>2018-11-28T16:09:57Z</time>
      </trkpt>
      <trkpt lat="42.38525" lon="2.40157">
        <ele>1405.9</ele>
        <time>2018-11-28T16:10:01Z</time>
      </trkpt>
      <trkpt lat="42.38524" lon="2.40157">
        <ele>1405.8</ele>
        <time>2018-11-28T16:10:02Z</time>
      </trkpt>
      <trkpt lat="42.38516" lon="2.40155">
        <ele>1404.8</ele>
        <time>2018-11-28T16:10:05Z</time>
      </trkpt>
      <trkpt lat="42.38512" lon="2.40155">
        <ele>1404.2</ele>
        <time>2018-11-28T16:10:07Z</time>
      </trkpt>
      <trkpt lat="42.38512" lon="2.40155">
        <ele>1404.1</ele>
        <time>2018-11-28T16:10:07Z</time>
      </trkpt>
      <trkpt lat="42.38495" lon="2.40145">
        <ele>1403.4</ele>
        <time>2018-11-28T16:10:14Z</time>
      </trkpt>
      <trkpt lat="42.3848" lon="2.40142">
        <ele>1402.1</ele>
        <time>2018-11-28T16:10:20Z</time>
      </trkpt>
      <trkpt lat="42.38478" lon="2.40142">
        <ele>1402</ele>
        <time>2018-11-28T16:10:21Z</time>
      </trkpt>
      <trkpt lat="42.38473" lon="2.40142">
        <ele>1401.1</ele>
        <time>2018-11-28T16:10:23Z</time>
      </trkpt>
      <trkpt lat="42.38457" lon="2.40145">
        <ele>1398.5</ele>
        <time>2018-11-28T16:10:29Z</time>
      </trkpt>
      <trkpt lat="42.38454" lon="2.40148">
        <ele>1397.4</ele>
        <time>2018-11-28T16:10:31Z</time>
      </trkpt>
      <trkpt lat="42.38444" lon="2.40141">
        <ele>1396.9</ele>
        <time>2018-11-28T16:10:35Z</time>
      </trkpt>
      <trkpt lat="42.38436" lon="2.40132">
        <ele>1397.1</ele>
        <time>2018-11-28T16:10:39Z</time>
      </trkpt>
      <trkpt lat="42.38431" lon="2.40127">
        <ele>1397</ele>
        <time>2018-11-28T16:10:42Z</time>
      </trkpt>
      <trkpt lat="42.38429" lon="2.40126">
        <ele>1397.1</ele>
        <time>2018-11-28T16:10:43Z</time>
      </trkpt>
      <trkpt lat="42.38418" lon="2.40121">
        <ele>1395.3</ele>
        <time>2018-11-28T16:10:47Z</time>
      </trkpt>
      <trkpt lat="42.38411" lon="2.40118">
        <ele>1393.5</ele>
        <time>2018-11-28T16:10:50Z</time>
      </trkpt>
      <trkpt lat="42.38409" lon="2.40117">
        <ele>1393.2</ele>
        <time>2018-11-28T16:10:51Z</time>
      </trkpt>
      <trkpt lat="42.38402" lon="2.4011">
        <ele>1392.3</ele>
        <time>2018-11-28T16:10:55Z</time>
      </trkpt>
      <trkpt lat="42.38389" lon="2.40099">
        <ele>1390.7</ele>
        <time>2018-11-28T16:11:01Z</time>
      </trkpt>
      <trkpt lat="42.38381" lon="2.40093">
        <ele>1389</ele>
        <time>2018-11-28T16:11:04Z</time>
      </trkpt>
      <trkpt lat="42.38373" lon="2.40087">
        <ele>1387.9</ele>
        <time>2018-11-28T16:11:08Z</time>
      </trkpt>
      <trkpt lat="42.38362" lon="2.40084">
        <ele>1384.9</ele>
        <time>2018-11-28T16:11:13Z</time>
      </trkpt>
      <trkpt lat="42.38346" lon="2.40081">
        <ele>1381.4</ele>
        <time>2018-11-28T16:11:19Z</time>
      </trkpt>
      <trkpt lat="42.38331" lon="2.40075">
        <ele>1379</ele>
        <time>2018-11-28T16:11:25Z</time>
      </trkpt>
      <trkpt lat="42.38323" lon="2.40067">
        <ele>1379.2</ele>
        <time>2018-11-28T16:11:29Z</time>
      </trkpt>
      <trkpt lat="42.3831" lon="2.40059">
        <ele>1378.2</ele>
        <time>2018-11-28T16:11:35Z</time>
      </trkpt>
      <trkpt lat="42.38303" lon="2.40058">
        <ele>1376.5</ele>
        <time>2018-11-28T16:11:38Z</time>
      </trkpt>
      <trkpt lat="42.38298" lon="2.40057">
        <ele>1375.8</ele>
        <time>2018-11-28T16:11:40Z</time>
      </trkpt>
      <trkpt lat="42.3829" lon="2.40055">
        <ele>1373.9</ele>
        <time>2018-11-28T16:11:43Z</time>
      </trkpt>
      <trkpt lat="42.38288" lon="2.40056">
        <ele>1373.2</ele>
        <time>2018-11-28T16:11:44Z</time>
      </trkpt>
      <trkpt lat="42.38288" lon="2.40052">
        <ele>1374.3</ele>
        <time>2018-11-28T16:11:45Z</time>
      </trkpt>
      <trkpt lat="42.38286" lon="2.4005">
        <ele>1374.4</ele>
        <time>2018-11-28T16:11:46Z</time>
      </trkpt>
      <trkpt lat="42.38275" lon="2.40049">
        <ele>1371.9</ele>
        <time>2018-11-28T16:11:50Z</time>
      </trkpt>
      <trkpt lat="42.38264" lon="2.40041">
        <ele>1371</ele>
        <time>2018-11-28T16:11:55Z</time>
      </trkpt>
      <trkpt lat="42.38254" lon="2.40038">
        <ele>1369</ele>
        <time>2018-11-28T16:12:00Z</time>
      </trkpt>
      <trkpt lat="42.38243" lon="2.40031">
        <ele>1367.4</ele>
        <time>2018-11-28T16:12:04Z</time>
      </trkpt>
      <trkpt lat="42.38238" lon="2.40025">
        <ele>1367.8</ele>
        <time>2018-11-28T16:12:07Z</time>
      </trkpt>
      <trkpt lat="42.38227" lon="2.40019">
        <ele>1366.9</ele>
        <time>2018-11-28T16:12:12Z</time>
      </trkpt>
      <trkpt lat="42.38208" lon="2.40004">
        <ele>1366.4</ele>
        <time>2018-11-28T16:12:21Z</time>
      </trkpt>
      <trkpt lat="42.38193" lon="2.39993">
        <ele>1366.1</ele>
        <time>2018-11-28T16:12:27Z</time>
      </trkpt>
      <trkpt lat="42.38185" lon="2.39989">
        <ele>1365.2</ele>
        <time>2018-11-28T16:12:31Z</time>
      </trkpt>
      <trkpt lat="42.3818" lon="2.39984">
        <ele>1365.5</ele>
        <time>2018-11-28T16:12:33Z</time>
      </trkpt>
      <trkpt lat="42.3818" lon="2.39983">
        <ele>1365.7</ele>
        <time>2018-11-28T16:12:34Z</time>
      </trkpt>
      <trkpt lat="42.38164" lon="2.39974">
        <ele>1364.7</ele>
        <time>2018-11-28T16:12:40Z</time>
      </trkpt>
      <trkpt lat="42.38151" lon="2.39963">
        <ele>1365.1</ele>
        <time>2018-11-28T16:12:47Z</time>
      </trkpt>
      <trkpt lat="42.38143" lon="2.39958">
        <ele>1364.1</ele>
        <time>2018-11-28T16:12:50Z</time>
      </trkpt>
      <trkpt lat="42.38133" lon="2.39952">
        <ele>1363.6</ele>
        <time>2018-11-28T16:12:54Z</time>
      </trkpt>
      <trkpt lat="42.38119" lon="2.39942">
        <ele>1362.5</ele>
        <time>2018-11-28T16:13:01Z</time>
      </trkpt>
      <trkpt lat="42.38112" lon="2.39935">
        <ele>1361.4</ele>
        <time>2018-11-28T16:13:04Z</time>
      </trkpt>
      <trkpt lat="42.38112" lon="2.39935">
        <ele>1361.5</ele>
        <time>2018-11-28T16:13:04Z</time>
      </trkpt>
      <trkpt lat="42.38108" lon="2.39936">
        <ele>1359.8</ele>
        <time>2018-11-28T16:13:06Z</time>
      </trkpt>
      <trkpt lat="42.38102" lon="2.39925">
        <ele>1359.5</ele>
        <time>2018-11-28T16:13:10Z</time>
      </trkpt>
      <trkpt lat="42.38097" lon="2.39916">
        <ele>1358.8</ele>
        <time>2018-11-28T16:13:13Z</time>
      </trkpt>
      <trkpt lat="42.38092" lon="2.39905">
        <ele>1357.7</ele>
        <time>2018-11-28T16:13:17Z</time>
      </trkpt>
      <trkpt lat="42.38088" lon="2.39896">
        <ele>1355.5</ele>
        <time>2018-11-28T16:13:20Z</time>
      </trkpt>
      <trkpt lat="42.38087" lon="2.39888">
        <ele>1354.8</ele>
        <time>2018-11-28T16:13:23Z</time>
      </trkpt>
      <trkpt lat="42.38087" lon="2.3988">
        <ele>1354.1</ele>
        <time>2018-11-28T16:13:25Z</time>
      </trkpt>
      <trkpt lat="42.38091" lon="2.3987">
        <ele>1354.2</ele>
        <time>2018-11-28T16:13:28Z</time>
      </trkpt>
      <trkpt lat="42.38094" lon="2.39862">
        <ele>1353.4</ele>
        <time>2018-11-28T16:13:31Z</time>
      </trkpt>
      <trkpt lat="42.38094" lon="2.39862">
        <ele>1353.4</ele>
        <time>2018-11-28T16:13:31Z</time>
      </trkpt>
      <trkpt lat="42.38097" lon="2.39855">
        <ele>1352.9</ele>
        <time>2018-11-28T16:13:34Z</time>
      </trkpt>
      <trkpt lat="42.38097" lon="2.39855">
        <ele>1352.9</ele>
        <time>2018-11-28T16:13:34Z</time>
      </trkpt>
      <trkpt lat="42.38101" lon="2.39845">
        <ele>1352.4</ele>
        <time>2018-11-28T16:13:37Z</time>
      </trkpt>
      <trkpt lat="42.38095" lon="2.39847">
        <ele>1350.8</ele>
        <time>2018-11-28T16:13:39Z</time>
      </trkpt>
      <trkpt lat="42.38088" lon="2.39851">
        <ele>1349.6</ele>
        <time>2018-11-28T16:13:42Z</time>
      </trkpt>
      <trkpt lat="42.38079" lon="2.39855">
        <ele>1347.8</ele>
        <time>2018-11-28T16:13:46Z</time>
      </trkpt>
      <trkpt lat="42.38071" lon="2.39858">
        <ele>1346.2</ele>
        <time>2018-11-28T16:13:49Z</time>
      </trkpt>
      <trkpt lat="42.38062" lon="2.39862">
        <ele>1344.1</ele>
        <time>2018-11-28T16:13:53Z</time>
      </trkpt>
      <trkpt lat="42.3806" lon="2.39865">
        <ele>1344</ele>
        <time>2018-11-28T16:13:54Z</time>
      </trkpt>
      <trkpt lat="42.38056" lon="2.39873">
        <ele>1343.7</ele>
        <time>2018-11-28T16:13:57Z</time>
      </trkpt>
      <trkpt lat="42.3805" lon="2.39884">
        <ele>1342.1</ele>
        <time>2018-11-28T16:14:01Z</time>
      </trkpt>
      <trkpt lat="42.38045" lon="2.39892">
        <ele>1340.8</ele>
        <time>2018-11-28T16:14:04Z</time>
      </trkpt>
      <trkpt lat="42.38043" lon="2.39888">
        <ele>1339.8</ele>
        <time>2018-11-28T16:14:06Z</time>
      </trkpt>
      <trkpt lat="42.38039" lon="2.39866">
        <ele>1337.5</ele>
        <time>2018-11-28T16:14:13Z</time>
      </trkpt>
      <trkpt lat="42.3803" lon="2.39854">
        <ele>1333.5</ele>
        <time>2018-11-28T16:14:17Z</time>
      </trkpt>
      <trkpt lat="42.38025" lon="2.39853">
        <ele>1332</ele>
        <time>2018-11-28T16:14:19Z</time>
      </trkpt>
      <trkpt lat="42.38023" lon="2.39856">
        <ele>1331.5</ele>
        <time>2018-11-28T16:14:21Z</time>
      </trkpt>
      <trkpt lat="42.3802" lon="2.3986">
        <ele>1331</ele>
        <time>2018-11-28T16:14:22Z</time>
      </trkpt>
      <trkpt lat="42.38011" lon="2.39861">
        <ele>1328</ele>
        <time>2018-11-28T16:14:26Z</time>
      </trkpt>
      <trkpt lat="42.38006" lon="2.39863">
        <ele>1326.6</ele>
        <time>2018-11-28T16:14:28Z</time>
      </trkpt>
      <trkpt lat="42.38" lon="2.39873">
        <ele>1325.4</ele>
        <time>2018-11-28T16:14:32Z</time>
      </trkpt>
      <trkpt lat="42.37995" lon="2.39883">
        <ele>1323.5</ele>
        <time>2018-11-28T16:14:35Z</time>
      </trkpt>
      <trkpt lat="42.37981" lon="2.39888">
        <ele>1318.6</ele>
        <time>2018-11-28T16:14:41Z</time>
      </trkpt>
      <trkpt lat="42.37976" lon="2.39902">
        <ele>1316.5</ele>
        <time>2018-11-28T16:14:46Z</time>
      </trkpt>
      <trkpt lat="42.37972" lon="2.399">
        <ele>1315.2</ele>
        <time>2018-11-28T16:14:48Z</time>
      </trkpt>
      <trkpt lat="42.37966" lon="2.39889">
        <ele>1313.2</ele>
        <time>2018-11-28T16:14:52Z</time>
      </trkpt>
      <trkpt lat="42.37961" lon="2.39887">
        <ele>1311.7</ele>
        <time>2018-11-28T16:14:54Z</time>
      </trkpt>
      <trkpt lat="42.3795" lon="2.39888">
        <ele>1307.1</ele>
        <time>2018-11-28T16:14:58Z</time>
      </trkpt>
      <trkpt lat="42.37938" lon="2.3989">
        <ele>1302.1</ele>
        <time>2018-11-28T16:15:03Z</time>
      </trkpt>
      <trkpt lat="42.37931" lon="2.39893">
        <ele>1299.6</ele>
        <time>2018-11-28T16:15:06Z</time>
      </trkpt>
      <trkpt lat="42.3793" lon="2.39883">
        <ele>1298.7</ele>
        <time>2018-11-28T16:15:09Z</time>
      </trkpt>
      <trkpt lat="42.3793" lon="2.39865">
        <ele>1297.4</ele>
        <time>2018-11-28T16:15:14Z</time>
      </trkpt>
      <trkpt lat="42.37938" lon="2.39846">
        <ele>1297.2</ele>
        <time>2018-11-28T16:15:21Z</time>
      </trkpt>
      <trkpt lat="42.37938" lon="2.39844">
        <ele>1296.8</ele>
        <time>2018-11-28T16:15:21Z</time>
      </trkpt>
      <trkpt lat="42.37938" lon="2.39844">
        <ele>1296.6</ele>
        <time>2018-11-28T16:15:22Z</time>
      </trkpt>
      <trkpt lat="42.37928" lon="2.3985">
        <ele>1293.3</ele>
        <time>2018-11-28T16:15:26Z</time>
      </trkpt>
      <trkpt lat="42.37924" lon="2.39854">
        <ele>1292.6</ele>
        <time>2018-11-28T16:15:28Z</time>
      </trkpt>
      <trkpt lat="42.37923" lon="2.39854">
        <ele>1292.3</ele>
        <time>2018-11-28T16:15:28Z</time>
      </trkpt>
      <trkpt lat="42.3792" lon="2.39854">
        <ele>1290.8</ele>
        <time>2018-11-28T16:15:30Z</time>
      </trkpt>
      <trkpt lat="42.37916" lon="2.3986">
        <ele>1290.5</ele>
        <time>2018-11-28T16:15:32Z</time>
      </trkpt>
      <trkpt lat="42.3791" lon="2.39866">
        <ele>1289.1</ele>
        <time>2018-11-28T16:15:35Z</time>
      </trkpt>
      <trkpt lat="42.37898" lon="2.39875">
        <ele>1286.3</ele>
        <time>2018-11-28T16:15:40Z</time>
      </trkpt>
      <trkpt lat="42.37892" lon="2.39883">
        <ele>1284.1</ele>
        <time>2018-11-28T16:15:44Z</time>
      </trkpt>
      <trkpt lat="42.37883" lon="2.39885">
        <ele>1280.8</ele>
        <time>2018-11-28T16:15:47Z</time>
      </trkpt>
      <trkpt lat="42.37878" lon="2.39882">
        <ele>1278.7</ele>
        <time>2018-11-28T16:15:50Z</time>
      </trkpt>
      <trkpt lat="42.37862" lon="2.39888">
        <ele>1273.7</ele>
        <time>2018-11-28T16:15:56Z</time>
      </trkpt>
      <trkpt lat="42.37853" lon="2.39877">
        <ele>1270.3</ele>
        <time>2018-11-28T16:16:01Z</time>
      </trkpt>
      <trkpt lat="42.37842" lon="2.39878">
        <ele>1266.2</ele>
        <time>2018-11-28T16:16:06Z</time>
      </trkpt>
      <trkpt lat="42.37838" lon="2.3989">
        <ele>1265.1</ele>
        <time>2018-11-28T16:16:09Z</time>
      </trkpt>
      <trkpt lat="42.37837" lon="2.39891">
        <ele>1264.9</ele>
        <time>2018-11-28T16:16:10Z</time>
      </trkpt>
      <trkpt lat="42.3783" lon="2.39894">
        <ele>1262.4</ele>
        <time>2018-11-28T16:16:13Z</time>
      </trkpt>
      <trkpt lat="42.3782" lon="2.39891">
        <ele>1258.8</ele>
        <time>2018-11-28T16:16:17Z</time>
      </trkpt>
      <trkpt lat="42.37814" lon="2.39898">
        <ele>1257.3</ele>
        <time>2018-11-28T16:16:20Z</time>
      </trkpt>
      <trkpt lat="42.37813" lon="2.39904">
        <ele>1257.4</ele>
        <time>2018-11-28T16:16:22Z</time>
      </trkpt>
      <trkpt lat="42.37806" lon="2.39918">
        <ele>1254.1</ele>
        <time>2018-11-28T16:16:27Z</time>
      </trkpt>
      <trkpt lat="42.378" lon="2.3992">
        <ele>1252.1</ele>
        <time>2018-11-28T16:16:29Z</time>
      </trkpt>
      <trkpt lat="42.37797" lon="2.39928">
        <ele>1250</ele>
        <time>2018-11-28T16:16:32Z</time>
      </trkpt>
      <trkpt lat="42.37795" lon="2.39923">
        <ele>1250</ele>
        <time>2018-11-28T16:16:33Z</time>
      </trkpt>
      <trkpt lat="42.37782" lon="2.39919">
        <ele>1247</ele>
        <time>2018-11-28T16:16:39Z</time>
      </trkpt>
      <trkpt lat="42.37764" lon="2.39919">
        <ele>1241.8</ele>
        <time>2018-11-28T16:16:46Z</time>
      </trkpt>
      <trkpt lat="42.37754" lon="2.39916">
        <ele>1238.9</ele>
        <time>2018-11-28T16:16:50Z</time>
      </trkpt>
      <trkpt lat="42.37743" lon="2.39909">
        <ele>1236.1</ele>
        <time>2018-11-28T16:16:55Z</time>
      </trkpt>
      <trkpt lat="42.37736" lon="2.39908">
        <ele>1234.3</ele>
        <time>2018-11-28T16:16:58Z</time>
      </trkpt>
      <trkpt lat="42.37736" lon="2.39907">
        <ele>1234</ele>
        <time>2018-11-28T16:16:58Z</time>
      </trkpt>
      <trkpt lat="42.37735" lon="2.39895">
        <ele>1232.1</ele>
        <time>2018-11-28T16:17:02Z</time>
      </trkpt>
      <trkpt lat="42.37738" lon="2.3988">
        <ele>1231.5</ele>
        <time>2018-11-28T16:17:06Z</time>
      </trkpt>
      <trkpt lat="42.37751" lon="2.39857">
        <ele>1229.4</ele>
        <time>2018-11-28T16:17:15Z</time>
      </trkpt>
      <trkpt lat="42.37758" lon="2.39852">
        <ele>1230.2</ele>
        <time>2018-11-28T16:17:18Z</time>
      </trkpt>
      <trkpt lat="42.37773" lon="2.39837">
        <ele>1230.8</ele>
        <time>2018-11-28T16:17:26Z</time>
      </trkpt>
      <trkpt lat="42.37776" lon="2.39841">
        <ele>1233.1</ele>
        <time>2018-11-28T16:17:27Z</time>
      </trkpt>
      <trkpt lat="42.3776" lon="2.39848">
        <ele>1229.6</ele>
        <time>2018-11-28T16:17:34Z</time>
      </trkpt>
      <trkpt lat="42.37754" lon="2.39851">
        <ele>1228.5</ele>
        <time>2018-11-28T16:17:37Z</time>
      </trkpt>
      <trkpt lat="42.37746" lon="2.39856">
        <ele>1227.6</ele>
        <time>2018-11-28T16:17:40Z</time>
      </trkpt>
      <trkpt lat="42.37739" lon="2.39862">
        <ele>1227.1</ele>
        <time>2018-11-28T16:17:43Z</time>
      </trkpt>
      <trkpt lat="42.37733" lon="2.39865">
        <ele>1226.2</ele>
        <time>2018-11-28T16:17:46Z</time>
      </trkpt>
      <trkpt lat="42.37731" lon="2.39866">
        <ele>1225.7</ele>
        <time>2018-11-28T16:17:47Z</time>
      </trkpt>
      <trkpt lat="42.37726" lon="2.39866">
        <ele>1224.3</ele>
        <time>2018-11-28T16:17:48Z</time>
      </trkpt>
      <trkpt lat="42.37715" lon="2.39873">
        <ele>1222.9</ele>
        <time>2018-11-28T16:17:54Z</time>
      </trkpt>
      <trkpt lat="42.37694" lon="2.39878">
        <ele>1218</ele>
        <time>2018-11-28T16:18:02Z</time>
      </trkpt>
      <trkpt lat="42.37683" lon="2.39876">
        <ele>1214.4</ele>
        <time>2018-11-28T16:18:06Z</time>
      </trkpt>
      <trkpt lat="42.37686" lon="2.39875">
        <ele>1215</ele>
        <time>2018-11-28T16:18:08Z</time>
      </trkpt>
      <trkpt lat="42.37672" lon="2.39872">
        <ele>1210.3</ele>
        <time>2018-11-28T16:18:13Z</time>
      </trkpt>
      <trkpt lat="42.37664" lon="2.39871">
        <ele>1207.9</ele>
        <time>2018-11-28T16:18:16Z</time>
      </trkpt>
      <trkpt lat="42.37662" lon="2.3986">
        <ele>1203.6</ele>
        <time>2018-11-28T16:18:20Z</time>
      </trkpt>
      <trkpt lat="42.37659" lon="2.3986">
        <ele>1203</ele>
        <time>2018-11-28T16:18:21Z</time>
      </trkpt>
      <trkpt lat="42.37647" lon="2.39863">
        <ele>1200.7</ele>
        <time>2018-11-28T16:18:26Z</time>
      </trkpt>
      <trkpt lat="42.3763" lon="2.39867">
        <ele>1197</ele>
        <time>2018-11-28T16:18:33Z</time>
      </trkpt>
      <trkpt lat="42.37618" lon="2.39878">
        <ele>1194.7</ele>
        <time>2018-11-28T16:18:39Z</time>
      </trkpt>
      <trkpt lat="42.37606" lon="2.39876">
        <ele>1191.8</ele>
        <time>2018-11-28T16:18:44Z</time>
      </trkpt>
      <trkpt lat="42.37588" lon="2.39875">
        <ele>1189.6</ele>
        <time>2018-11-28T16:18:51Z</time>
      </trkpt>
      <trkpt lat="42.3757" lon="2.39873">
        <ele>1187.8</ele>
        <time>2018-11-28T16:18:58Z</time>
      </trkpt>
      <trkpt lat="42.37552" lon="2.39849">
        <ele>1186</ele>
        <time>2018-11-28T16:19:08Z</time>
      </trkpt>
      <trkpt lat="42.37548" lon="2.3986">
        <ele>1186.2</ele>
        <time>2018-11-28T16:19:12Z</time>
      </trkpt>
      <trkpt lat="42.37544" lon="2.39859">
        <ele>1186.1</ele>
        <time>2018-11-28T16:19:13Z</time>
      </trkpt>
      <trkpt lat="42.37532" lon="2.39855">
        <ele>1185.4</ele>
        <time>2018-11-28T16:19:18Z</time>
      </trkpt>
      <trkpt lat="42.37514" lon="2.39849">
        <ele>1183.8</ele>
        <time>2018-11-28T16:19:26Z</time>
      </trkpt>
      <trkpt lat="42.37495" lon="2.39833">
        <ele>1182.2</ele>
        <time>2018-11-28T16:19:34Z</time>
      </trkpt>
      <trkpt lat="42.37493" lon="2.39829">
        <ele>1182.3</ele>
        <time>2018-11-28T16:19:36Z</time>
      </trkpt>
      <trkpt lat="42.37468" lon="2.39818">
        <ele>1185.4</ele>
        <time>2018-11-28T16:19:46Z</time>
      </trkpt>
      <trkpt lat="42.37446" lon="2.39839">
        <ele>1183.2</ele>
        <time>2018-11-28T16:19:57Z</time>
      </trkpt>
      <trkpt lat="42.37433" lon="2.39838">
        <ele>1186</ele>
        <time>2018-11-28T16:20:02Z</time>
      </trkpt>
      <trkpt lat="42.37427" lon="2.3983">
        <ele>1189.5</ele>
        <time>2018-11-28T16:20:06Z</time>
      </trkpt>
      <trkpt lat="42.37416" lon="2.39825">
        <ele>1192.4</ele>
        <time>2018-11-28T16:20:10Z</time>
      </trkpt>
      <trkpt lat="42.37406" lon="2.3982">
        <ele>1195.1</ele>
        <time>2018-11-28T16:20:15Z</time>
      </trkpt>
      <trkpt lat="42.37372" lon="2.39813">
        <ele>1204.8</ele>
        <time>2018-11-28T16:20:29Z</time>
      </trkpt>
      <trkpt lat="42.37361" lon="2.39831">
        <ele>1201.3</ele>
        <time>2018-11-28T16:20:35Z</time>
      </trkpt>
      <trkpt lat="42.37352" lon="2.39833">
        <ele>1204.2</ele>
        <time>2018-11-28T16:20:39Z</time>
      </trkpt>
      <trkpt lat="42.3734" lon="2.39834">
        <ele>1208.5</ele>
        <time>2018-11-28T16:20:44Z</time>
      </trkpt>
      <trkpt lat="42.37329" lon="2.39839">
        <ele>1211.2</ele>
        <time>2018-11-28T16:20:49Z</time>
      </trkpt>
      <trkpt lat="42.37316" lon="2.39842">
        <ele>1215</ele>
        <time>2018-11-28T16:20:54Z</time>
      </trkpt>
      <trkpt lat="42.37307" lon="2.39844">
        <ele>1217.1</ele>
        <time>2018-11-28T16:20:57Z</time>
      </trkpt>
      <trkpt lat="42.37307" lon="2.39847">
        <ele>1215.9</ele>
        <time>2018-11-28T16:20:58Z</time>
      </trkpt>
      <trkpt lat="42.37305" lon="2.39846">
        <ele>1216.9</ele>
        <time>2018-11-28T16:20:59Z</time>
      </trkpt>
      <trkpt lat="42.37314" lon="2.39848">
        <ele>1213.2</ele>
        <time>2018-11-28T16:21:03Z</time>
      </trkpt>
      <trkpt lat="42.37304" lon="2.39842">
        <ele>1219.2</ele>
        <time>2018-11-28T16:21:07Z</time>
      </trkpt>
      <trkpt lat="42.3729" lon="2.39852">
        <ele>1219.1</ele>
        <time>2018-11-28T16:21:13Z</time>
      </trkpt>
      <trkpt lat="42.37279" lon="2.39849">
        <ele>1222.5</ele>
        <time>2018-11-28T16:21:18Z</time>
      </trkpt>
      <trkpt lat="42.37267" lon="2.39846">
        <ele>1224.8</ele>
        <time>2018-11-28T16:21:23Z</time>
      </trkpt>
      <trkpt lat="42.37249" lon="2.39842">
        <ele>1225.9</ele>
        <time>2018-11-28T16:21:30Z</time>
      </trkpt>
      <trkpt lat="42.37236" lon="2.39833">
        <ele>1228.1</ele>
        <time>2018-11-28T16:21:36Z</time>
      </trkpt>
      <trkpt lat="42.37214" lon="2.39819">
        <ele>1230.6</ele>
        <time>2018-11-28T16:21:46Z</time>
      </trkpt>
      <trkpt lat="42.37185" lon="2.3981">
        <ele>1234.1</ele>
        <time>2018-11-28T16:21:58Z</time>
      </trkpt>
      <trkpt lat="42.37172" lon="2.39805">
        <ele>1238</ele>
        <time>2018-11-28T16:22:03Z</time>
      </trkpt>
      <trkpt lat="42.37166" lon="2.39784">
        <ele>1247.9</ele>
        <time>2018-11-28T16:22:10Z</time>
      </trkpt>
      <trkpt lat="42.37139" lon="2.39795">
        <ele>1251.8</ele>
        <time>2018-11-28T16:22:21Z</time>
      </trkpt>
      <trkpt lat="42.37132" lon="2.39819">
        <ele>1249.2</ele>
        <time>2018-11-28T16:22:29Z</time>
      </trkpt>
      <trkpt lat="42.37127" lon="2.39842">
        <ele>1248.5</ele>
        <time>2018-11-28T16:22:36Z</time>
      </trkpt>
      <trkpt lat="42.37122" lon="2.39851">
        <ele>1250.1</ele>
        <time>2018-11-28T16:22:39Z</time>
      </trkpt>
      <trkpt lat="42.37112" lon="2.39856">
        <ele>1251.5</ele>
        <time>2018-11-28T16:22:44Z</time>
      </trkpt>
      <trkpt lat="42.37091" lon="2.39856">
        <ele>1255.1</ele>
        <time>2018-11-28T16:22:52Z</time>
      </trkpt>
      <trkpt lat="42.37091" lon="2.3985">
        <ele>1256.4</ele>
        <time>2018-11-28T16:22:54Z</time>
      </trkpt>
      <trkpt lat="42.37062" lon="2.39836">
        <ele>1262.2</ele>
        <time>2018-11-28T16:23:06Z</time>
      </trkpt>
      <trkpt lat="42.37043" lon="2.39834">
        <ele>1264</ele>
        <time>2018-11-28T16:23:13Z</time>
      </trkpt>
      <trkpt lat="42.37026" lon="2.39835">
        <ele>1265.8</ele>
        <time>2018-11-28T16:23:20Z</time>
      </trkpt>
      <trkpt lat="42.3701" lon="2.39835">
        <ele>1267.6</ele>
        <time>2018-11-28T16:23:27Z</time>
      </trkpt>
      <trkpt lat="42.36991" lon="2.39831">
        <ele>1270.9</ele>
        <time>2018-11-28T16:23:34Z</time>
      </trkpt>
      <trkpt lat="42.36973" lon="2.39829">
        <ele>1272.7</ele>
        <time>2018-11-28T16:23:42Z</time>
      </trkpt>
      <trkpt lat="42.36954" lon="2.39823">
        <ele>1276.1</ele>
        <time>2018-11-28T16:23:50Z</time>
      </trkpt>
      <trkpt lat="42.36941" lon="2.39821">
        <ele>1277.4</ele>
        <time>2018-11-28T16:23:55Z</time>
      </trkpt>
      <trkpt lat="42.3692" lon="2.39816">
        <ele>1279.8</ele>
        <time>2018-11-28T16:24:03Z</time>
      </trkpt>
      <trkpt lat="42.36892" lon="2.39807">
        <ele>1282.7</ele>
        <time>2018-11-28T16:24:15Z</time>
      </trkpt>
      <trkpt lat="42.36874" lon="2.39797">
        <ele>1285.1</ele>
        <time>2018-11-28T16:24:23Z</time>
      </trkpt>
      <trkpt lat="42.36858" lon="2.39788">
        <ele>1286.4</ele>
        <time>2018-11-28T16:24:30Z</time>
      </trkpt>
      <trkpt lat="42.3684" lon="2.3977">
        <ele>1288.1</ele>
        <time>2018-11-28T16:24:38Z</time>
      </trkpt>
      <trkpt lat="42.3684" lon="2.39742">
        <ele>1291.9</ele>
        <time>2018-11-28T16:24:47Z</time>
      </trkpt>
      <trkpt lat="42.36847" lon="2.39711">
        <ele>1296.1</ele>
        <time>2018-11-28T16:24:56Z</time>
      </trkpt>
      <trkpt lat="42.3685" lon="2.397">
        <ele>1297.9</ele>
        <time>2018-11-28T16:25:00Z</time>
      </trkpt>
      <trkpt lat="42.36854" lon="2.39673">
        <ele>1301</ele>
        <time>2018-11-28T16:25:08Z</time>
      </trkpt>
      <trkpt lat="42.36863" lon="2.39657">
        <ele>1304.7</ele>
        <time>2018-11-28T16:25:14Z</time>
      </trkpt>
      <trkpt lat="42.36872" lon="2.39641">
        <ele>1307.6</ele>
        <time>2018-11-28T16:25:20Z</time>
      </trkpt>
      <trkpt lat="42.36867" lon="2.3961">
        <ele>1307</ele>
        <time>2018-11-28T16:25:29Z</time>
      </trkpt>
      <trkpt lat="42.36857" lon="2.39585">
        <ele>1306.6</ele>
        <time>2018-11-28T16:25:38Z</time>
      </trkpt>
      <trkpt lat="42.36854" lon="2.3958">
        <ele>1306.4</ele>
        <time>2018-11-28T16:25:40Z</time>
      </trkpt>
      <trkpt lat="42.36846" lon="2.39555">
        <ele>1305.5</ele>
        <time>2018-11-28T16:25:48Z</time>
      </trkpt>
      <trkpt lat="42.36842" lon="2.39535">
        <ele>1305.4</ele>
        <time>2018-11-28T16:25:54Z</time>
      </trkpt>
      <trkpt lat="42.3684" lon="2.39525">
        <ele>1305.4</ele>
        <time>2018-11-28T16:25:57Z</time>
      </trkpt>
      <trkpt lat="42.36833" lon="2.39521">
        <ele>1301.9</ele>
        <time>2018-11-28T16:26:00Z</time>
      </trkpt>
      <trkpt lat="42.36827" lon="2.39506">
        <ele>1301.4</ele>
        <time>2018-11-28T16:26:05Z</time>
      </trkpt>
      <trkpt lat="42.36815" lon="2.39481">
        <ele>1299.4</ele>
        <time>2018-11-28T16:26:14Z</time>
      </trkpt>
      <trkpt lat="42.36804" lon="2.39465">
        <ele>1297.8</ele>
        <time>2018-11-28T16:26:20Z</time>
      </trkpt>
      <trkpt lat="42.36789" lon="2.39453">
        <ele>1293.7</ele>
        <time>2018-11-28T16:26:27Z</time>
      </trkpt>
      <trkpt lat="42.36783" lon="2.39447">
        <ele>1292.4</ele>
        <time>2018-11-28T16:26:30Z</time>
      </trkpt>
      <trkpt lat="42.36772" lon="2.3943">
        <ele>1290.9</ele>
        <time>2018-11-28T16:26:37Z</time>
      </trkpt>
      <trkpt lat="42.3676" lon="2.39421">
        <ele>1289.5</ele>
        <time>2018-11-28T16:26:42Z</time>
      </trkpt>
      <trkpt lat="42.3674" lon="2.39406">
        <ele>1288.1</ele>
        <time>2018-11-28T16:26:52Z</time>
      </trkpt>
      <trkpt lat="42.36735" lon="2.39393">
        <ele>1292</ele>
        <time>2018-11-28T16:26:56Z</time>
      </trkpt>
      <trkpt lat="42.36727" lon="2.39398">
        <ele>1293.6</ele>
        <time>2018-11-28T16:26:59Z</time>
      </trkpt>
      <trkpt lat="42.36725" lon="2.39412">
        <ele>1294.2</ele>
        <time>2018-11-28T16:27:03Z</time>
      </trkpt>
      <trkpt lat="42.36725" lon="2.39445">
        <ele>1295.1</ele>
        <time>2018-11-28T16:27:13Z</time>
      </trkpt>
      <trkpt lat="42.36726" lon="2.39471">
        <ele>1294.5</ele>
        <time>2018-11-28T16:27:21Z</time>
      </trkpt>
      <trkpt lat="42.36719" lon="2.39501">
        <ele>1296.7</ele>
        <time>2018-11-28T16:27:30Z</time>
      </trkpt>
      <trkpt lat="42.36711" lon="2.39536">
        <ele>1298</ele>
        <time>2018-11-28T16:27:41Z</time>
      </trkpt>
      <trkpt lat="42.36699" lon="2.39562">
        <ele>1300.4</ele>
        <time>2018-11-28T16:27:50Z</time>
      </trkpt>
      <trkpt lat="42.36677" lon="2.39582">
        <ele>1305.2</ele>
        <time>2018-11-28T16:28:01Z</time>
      </trkpt>
      <trkpt lat="42.36655" lon="2.39594">
        <ele>1308.9</ele>
        <time>2018-11-28T16:28:10Z</time>
      </trkpt>
      <trkpt lat="42.3663" lon="2.39602">
        <ele>1312.4</ele>
        <time>2018-11-28T16:28:20Z</time>
      </trkpt>
      <trkpt lat="42.36605" lon="2.39621">
        <ele>1310.7</ele>
        <time>2018-11-28T16:28:32Z</time>
      </trkpt>
      <trkpt lat="42.36584" lon="2.39641">
        <ele>1310</ele>
        <time>2018-11-28T16:28:42Z</time>
      </trkpt>
      <trkpt lat="42.36567" lon="2.39651">
        <ele>1310.8</ele>
        <time>2018-11-28T16:28:50Z</time>
      </trkpt>
      <trkpt lat="42.36554" lon="2.39664">
        <ele>1310.5</ele>
        <time>2018-11-28T16:28:56Z</time>
      </trkpt>
      <trkpt lat="42.36551" lon="2.39665">
        <ele>1310.7</ele>
        <time>2018-11-28T16:28:57Z</time>
      </trkpt>
      <trkpt lat="42.36537" lon="2.39667">
        <ele>1311.9</ele>
        <time>2018-11-28T16:29:03Z</time>
      </trkpt>
      <trkpt lat="42.36518" lon="2.3966">
        <ele>1315.5</ele>
        <time>2018-11-28T16:29:11Z</time>
      </trkpt>
      <trkpt lat="42.36514" lon="2.39659">
        <ele>1316.1</ele>
        <time>2018-11-28T16:29:12Z</time>
      </trkpt>
      <trkpt lat="42.36501" lon="2.39675">
        <ele>1315.8</ele>
        <time>2018-11-28T16:29:19Z</time>
      </trkpt>
      <trkpt lat="42.36497" lon="2.39679">
        <ele>1316.1</ele>
        <time>2018-11-28T16:29:21Z</time>
      </trkpt>
      <trkpt lat="42.36496" lon="2.39679">
        <ele>1316.5</ele>
        <time>2018-11-28T16:29:22Z</time>
      </trkpt>
      <trkpt lat="42.36477" lon="2.39696">
        <ele>1317.8</ele>
        <time>2018-11-28T16:29:31Z</time>
      </trkpt>
      <trkpt lat="42.36459" lon="2.39705">
        <ele>1319.6</ele>
        <time>2018-11-28T16:29:39Z</time>
      </trkpt>
      <trkpt lat="42.36453" lon="2.39711">
        <ele>1319.9</ele>
        <time>2018-11-28T16:29:41Z</time>
      </trkpt>
      <trkpt lat="42.36451" lon="2.39713">
        <ele>1319.9</ele>
        <time>2018-11-28T16:29:43Z</time>
      </trkpt>
      <trkpt lat="42.36443" lon="2.39719">
        <ele>1320.6</ele>
        <time>2018-11-28T16:29:46Z</time>
      </trkpt>
      <trkpt lat="42.36427" lon="2.39733">
        <ele>1321.6</ele>
        <time>2018-11-28T16:29:54Z</time>
      </trkpt>
      <trkpt lat="42.3642" lon="2.39743">
        <ele>1321.5</ele>
        <time>2018-11-28T16:29:58Z</time>
      </trkpt>
      <trkpt lat="42.36412" lon="2.39741">
        <ele>1322.5</ele>
        <time>2018-11-28T16:30:01Z</time>
      </trkpt>
      <trkpt lat="42.36407" lon="2.39746">
        <ele>1323</ele>
        <time>2018-11-28T16:30:04Z</time>
      </trkpt>
      <trkpt lat="42.36399" lon="2.39751">
        <ele>1323.6</ele>
        <time>2018-11-28T16:30:07Z</time>
      </trkpt>
      <trkpt lat="42.36401" lon="2.39756">
        <ele>1323.2</ele>
        <time>2018-11-28T16:30:09Z</time>
      </trkpt>
      <trkpt lat="42.36397" lon="2.3975">
        <ele>1323.8</ele>
        <time>2018-11-28T16:30:11Z</time>
      </trkpt>
      <trkpt lat="42.36392" lon="2.39751">
        <ele>1324.1</ele>
        <time>2018-11-28T16:30:13Z</time>
      </trkpt>
      <trkpt lat="42.3639" lon="2.39744">
        <ele>1324.4</ele>
        <time>2018-11-28T16:30:15Z</time>
      </trkpt>
      <trkpt lat="42.36391" lon="2.39744">
        <ele>1324.3</ele>
        <time>2018-11-28T16:30:16Z</time>
      </trkpt>
      <trkpt lat="42.364" lon="2.3975">
        <ele>1323.4</ele>
        <time>2018-11-28T16:30:19Z</time>
      </trkpt>
      <trkpt lat="42.36405" lon="2.39749">
        <ele>1323</ele>
        <time>2018-11-28T16:30:21Z</time>
      </trkpt>
      <trkpt lat="42.36404" lon="2.39749">
        <ele>1323</ele>
        <time>2018-11-28T16:30:22Z</time>
      </trkpt>
      <trkpt lat="42.36398" lon="2.39749">
        <ele>1323.8</ele>
        <time>2018-11-28T16:30:24Z</time>
      </trkpt>
      <trkpt lat="42.36396" lon="2.39748">
        <ele>1324.1</ele>
        <time>2018-11-28T16:30:25Z</time>
      </trkpt>
      <trkpt lat="42.36393" lon="2.3975">
        <ele>1324.2</ele>
        <time>2018-11-28T16:30:26Z</time>
      </trkpt>
      <trkpt lat="42.36385" lon="2.39748">
        <ele>1324.2</ele>
        <time>2018-11-28T16:30:30Z</time>
      </trkpt>
      <trkpt lat="42.36378" lon="2.39746">
        <ele>1324.3</ele>
        <time>2018-11-28T16:30:33Z</time>
      </trkpt>
      <trkpt lat="42.36374" lon="2.39743">
        <ele>1324.3</ele>
        <time>2018-11-28T16:30:34Z</time>
      </trkpt>
      <trkpt lat="42.36368" lon="2.39743">
        <ele>1324.3</ele>
        <time>2018-11-28T16:30:37Z</time>
      </trkpt>
      <trkpt lat="42.36368" lon="2.39744">
        <ele>1324.2</ele>
        <time>2018-11-28T16:30:37Z</time>
      </trkpt>
      <trkpt lat="42.36366" lon="2.3974">
        <ele>1324.6</ele>
        <time>2018-11-28T16:30:39Z</time>
      </trkpt>
      <trkpt lat="42.36361" lon="2.39736">
        <ele>1324.6</ele>
        <time>2018-11-28T16:30:41Z</time>
      </trkpt>
      <trkpt lat="42.36352" lon="2.39728">
        <ele>1325</ele>
        <time>2018-11-28T16:30:46Z</time>
      </trkpt>
      <trkpt lat="42.36333" lon="2.39724">
        <ele>1324.6</ele>
        <time>2018-11-28T16:30:53Z</time>
      </trkpt>
      <trkpt lat="42.36325" lon="2.39717">
        <ele>1325.2</ele>
        <time>2018-11-28T16:30:57Z</time>
      </trkpt>
      <trkpt lat="42.36316" lon="2.39717">
        <ele>1324.7</ele>
        <time>2018-11-28T16:31:01Z</time>
      </trkpt>
      <trkpt lat="42.36318" lon="2.39711">
        <ele>1325.8</ele>
        <time>2018-11-28T16:31:02Z</time>
      </trkpt>
      <trkpt lat="42.36317" lon="2.39711">
        <ele>1325.6</ele>
        <time>2018-11-28T16:31:03Z</time>
      </trkpt>
      <trkpt lat="42.36306" lon="2.39711">
        <ele>1323.9</ele>
        <time>2018-11-28T16:31:07Z</time>
      </trkpt>
      <trkpt lat="42.36299" lon="2.39712">
        <ele>1322.5</ele>
        <time>2018-11-28T16:31:10Z</time>
      </trkpt>
      <trkpt lat="42.36307" lon="2.39711">
        <ele>1324.4</ele>
        <time>2018-11-28T16:31:13Z</time>
      </trkpt>
      <trkpt lat="42.36305" lon="2.39707">
        <ele>1324.7</ele>
        <time>2018-11-28T16:31:15Z</time>
      </trkpt>
      <trkpt lat="42.36305" lon="2.39704">
        <ele>1325</ele>
        <time>2018-11-28T16:31:16Z</time>
      </trkpt>
      <trkpt lat="42.36294" lon="2.39689">
        <ele>1324.6</ele>
        <time>2018-11-28T16:31:22Z</time>
      </trkpt>
      <trkpt lat="42.3628" lon="2.39661">
        <ele>1325.1</ele>
        <time>2018-11-28T16:31:32Z</time>
      </trkpt>
      <trkpt lat="42.36267" lon="2.39644">
        <ele>1325.5</ele>
        <time>2018-11-28T16:31:39Z</time>
      </trkpt>
      <trkpt lat="42.3626" lon="2.39637">
        <ele>1326</ele>
        <time>2018-11-28T16:31:42Z</time>
      </trkpt>
      <trkpt lat="42.36255" lon="2.39636">
        <ele>1327.1</ele>
        <time>2018-11-28T16:31:45Z</time>
      </trkpt>
      <trkpt lat="42.36249" lon="2.39649">
        <ele>1326.1</ele>
        <time>2018-11-28T16:31:49Z</time>
      </trkpt>
      <trkpt lat="42.36245" lon="2.39664">
        <ele>1324.4</ele>
        <time>2018-11-28T16:31:54Z</time>
      </trkpt>
      <trkpt lat="42.36239" lon="2.39675">
        <ele>1323.9</ele>
        <time>2018-11-28T16:31:58Z</time>
      </trkpt>
      <trkpt lat="42.36228" lon="2.39697">
        <ele>1322.3</ele>
        <time>2018-11-28T16:32:06Z</time>
      </trkpt>
      <trkpt lat="42.36211" lon="2.39721">
        <ele>1322.6</ele>
        <time>2018-11-28T16:32:15Z</time>
      </trkpt>
      <trkpt lat="42.36199" lon="2.3975">
        <ele>1320.6</ele>
        <time>2018-11-28T16:32:25Z</time>
      </trkpt>
      <trkpt lat="42.36193" lon="2.39776">
        <ele>1317.1</ele>
        <time>2018-11-28T16:32:34Z</time>
      </trkpt>
      <trkpt lat="42.36185" lon="2.39799">
        <ele>1315.1</ele>
        <time>2018-11-28T16:32:41Z</time>
      </trkpt>
      <trkpt lat="42.36178" lon="2.39823">
        <ele>1312.3</ele>
        <time>2018-11-28T16:32:49Z</time>
      </trkpt>
      <trkpt lat="42.36174" lon="2.3983">
        <ele>1311.4</ele>
        <time>2018-11-28T16:32:51Z</time>
      </trkpt>
      <trkpt lat="42.36171" lon="2.39834">
        <ele>1311.5</ele>
        <time>2018-11-28T16:32:53Z</time>
      </trkpt>
      <trkpt lat="42.36161" lon="2.39851">
        <ele>1310.4</ele>
        <time>2018-11-28T16:32:59Z</time>
      </trkpt>
      <trkpt lat="42.36147" lon="2.3987">
        <ele>1308.3</ele>
        <time>2018-11-28T16:33:07Z</time>
      </trkpt>
      <trkpt lat="42.3613" lon="2.39884">
        <ele>1307.7</ele>
        <time>2018-11-28T16:33:15Z</time>
      </trkpt>
      <trkpt lat="42.36112" lon="2.39899">
        <ele>1306.6</ele>
        <time>2018-11-28T16:33:24Z</time>
      </trkpt>
      <trkpt lat="42.36099" lon="2.39905">
        <ele>1306.9</ele>
        <time>2018-11-28T16:33:29Z</time>
      </trkpt>
      <trkpt lat="42.36083" lon="2.39915">
        <ele>1306.4</ele>
        <time>2018-11-28T16:33:36Z</time>
      </trkpt>
      <trkpt lat="42.36071" lon="2.39924">
        <ele>1305.3</ele>
        <time>2018-11-28T16:33:42Z</time>
      </trkpt>
      <trkpt lat="42.36058" lon="2.39932">
        <ele>1304.8</ele>
        <time>2018-11-28T16:33:48Z</time>
      </trkpt>
      <trkpt lat="42.36037" lon="2.39939">
        <ele>1304.9</ele>
        <time>2018-11-28T16:33:56Z</time>
      </trkpt>
      <trkpt lat="42.36017" lon="2.39943">
        <ele>1305.1</ele>
        <time>2018-11-28T16:34:04Z</time>
      </trkpt>
      <trkpt lat="42.36001" lon="2.39949">
        <ele>1304</ele>
        <time>2018-11-28T16:34:11Z</time>
      </trkpt>
      <trkpt lat="42.35994" lon="2.39951">
        <ele>1304</ele>
        <time>2018-11-28T16:34:14Z</time>
      </trkpt>
      <trkpt lat="42.35977" lon="2.39955">
        <ele>1303.1</ele>
        <time>2018-11-28T16:34:21Z</time>
      </trkpt>
      <trkpt lat="42.35957" lon="2.3996">
        <ele>1301.8</ele>
        <time>2018-11-28T16:34:29Z</time>
      </trkpt>
      <trkpt lat="42.35933" lon="2.39963">
        <ele>1299.5</ele>
        <time>2018-11-28T16:34:38Z</time>
      </trkpt>
      <trkpt lat="42.35916" lon="2.39955">
        <ele>1296.7</ele>
        <time>2018-11-28T16:34:46Z</time>
      </trkpt>
      <trkpt lat="42.35904" lon="2.39937">
        <ele>1297.7</ele>
        <time>2018-11-28T16:34:53Z</time>
      </trkpt>
      <trkpt lat="42.35897" lon="2.3992">
        <ele>1299.9</ele>
        <time>2018-11-28T16:34:58Z</time>
      </trkpt>
      <trkpt lat="42.35889" lon="2.39911">
        <ele>1298.6</ele>
        <time>2018-11-28T16:35:03Z</time>
      </trkpt>
      <trkpt lat="42.35875" lon="2.39901">
        <ele>1294.9</ele>
        <time>2018-11-28T16:35:09Z</time>
      </trkpt>
      <trkpt lat="42.35858" lon="2.39872">
        <ele>1291.6</ele>
        <time>2018-11-28T16:35:20Z</time>
      </trkpt>
      <trkpt lat="42.35852" lon="2.39862">
        <ele>1290</ele>
        <time>2018-11-28T16:35:24Z</time>
      </trkpt>
      <trkpt lat="42.35845" lon="2.3985">
        <ele>1287.8</ele>
        <time>2018-11-28T16:35:28Z</time>
      </trkpt>
      <trkpt lat="42.3584" lon="2.39834">
        <ele>1287.1</ele>
        <time>2018-11-28T16:35:34Z</time>
      </trkpt>
      <trkpt lat="42.35839" lon="2.39824">
        <ele>1288.1</ele>
        <time>2018-11-28T16:35:37Z</time>
      </trkpt>
      <trkpt lat="42.3584" lon="2.39805">
        <ele>1289.7</ele>
        <time>2018-11-28T16:35:42Z</time>
      </trkpt>
      <trkpt lat="42.35838" lon="2.3979">
        <ele>1289.7</ele>
        <time>2018-11-28T16:35:47Z</time>
      </trkpt>
      <trkpt lat="42.35838" lon="2.39786">
        <ele>1289.8</ele>
        <time>2018-11-28T16:35:48Z</time>
      </trkpt>
      <trkpt lat="42.35837" lon="2.39783">
        <ele>1289.8</ele>
        <time>2018-11-28T16:35:49Z</time>
      </trkpt>
      <trkpt lat="42.35838" lon="2.39778">
        <ele>1290.1</ele>
        <time>2018-11-28T16:35:50Z</time>
      </trkpt>
      <trkpt lat="42.35838" lon="2.39776">
        <ele>1290.3</ele>
        <time>2018-11-28T16:35:51Z</time>
      </trkpt>
      <trkpt lat="42.35837" lon="2.39743">
        <ele>1290.4</ele>
        <time>2018-11-28T16:36:01Z</time>
      </trkpt>
      <trkpt lat="42.35834" lon="2.3973">
        <ele>1289.1</ele>
        <time>2018-11-28T16:36:05Z</time>
      </trkpt>
      <trkpt lat="42.35821" lon="2.39725">
        <ele>1282.5</ele>
        <time>2018-11-28T16:36:10Z</time>
      </trkpt>
      <trkpt lat="42.35817" lon="2.39742">
        <ele>1279.8</ele>
        <time>2018-11-28T16:36:15Z</time>
      </trkpt>
      <trkpt lat="42.35808" lon="2.3976">
        <ele>1274.1</ele>
        <time>2018-11-28T16:36:21Z</time>
      </trkpt>
      <trkpt lat="42.35808" lon="2.39782">
        <ele>1272.4</ele>
        <time>2018-11-28T16:36:28Z</time>
      </trkpt>
      <trkpt lat="42.35811" lon="2.39796">
        <ele>1273.1</ele>
        <time>2018-11-28T16:36:32Z</time>
      </trkpt>
      <trkpt lat="42.35808" lon="2.39812">
        <ele>1270.7</ele>
        <time>2018-11-28T16:36:37Z</time>
      </trkpt>
      <trkpt lat="42.35803" lon="2.39818">
        <ele>1267.3</ele>
        <time>2018-11-28T16:36:40Z</time>
      </trkpt>
      <trkpt lat="42.35811" lon="2.3984">
        <ele>1269.3</ele>
        <time>2018-11-28T16:36:47Z</time>
      </trkpt>
      <trkpt lat="42.35818" lon="2.39857">
        <ele>1270.9</ele>
        <time>2018-11-28T16:36:53Z</time>
      </trkpt>
      <trkpt lat="42.35809" lon="2.39842">
        <ele>1267.6</ele>
        <time>2018-11-28T16:36:59Z</time>
      </trkpt>
      <trkpt lat="42.35799" lon="2.39821">
        <ele>1264.9</ele>
        <time>2018-11-28T16:37:06Z</time>
      </trkpt>
      <trkpt lat="42.35801" lon="2.39816">
        <ele>1266.2</ele>
        <time>2018-11-28T16:37:08Z</time>
      </trkpt>
      <trkpt lat="42.35793" lon="2.39796">
        <ele>1265.6</ele>
        <time>2018-11-28T16:37:14Z</time>
      </trkpt>
      <trkpt lat="42.35785" lon="2.39793">
        <ele>1265.2</ele>
        <time>2018-11-28T16:37:18Z</time>
      </trkpt>
      <trkpt lat="42.35769" lon="2.39827">
        <ele>1257.6</ele>
        <time>2018-11-28T16:37:30Z</time>
      </trkpt>
      <trkpt lat="42.3575" lon="2.3986">
        <ele>1257.2</ele>
        <time>2018-11-28T16:37:42Z</time>
      </trkpt>
      <trkpt lat="42.3574" lon="2.39881">
        <ele>1257.8</ele>
        <time>2018-11-28T16:37:50Z</time>
      </trkpt>
      <trkpt lat="42.35738" lon="2.39883">
        <ele>1258.1</ele>
        <time>2018-11-28T16:37:50Z</time>
      </trkpt>
      <trkpt lat="42.35732" lon="2.39891">
        <ele>1258.9</ele>
        <time>2018-11-28T16:37:54Z</time>
      </trkpt>
      <trkpt lat="42.35723" lon="2.39906">
        <ele>1259.4</ele>
        <time>2018-11-28T16:37:59Z</time>
      </trkpt>
      <trkpt lat="42.35716" lon="2.39938">
        <ele>1257.5</ele>
        <time>2018-11-28T16:38:10Z</time>
      </trkpt>
      <trkpt lat="42.35708" lon="2.39966">
        <ele>1257.5</ele>
        <time>2018-11-28T16:38:18Z</time>
      </trkpt>
      <trkpt lat="42.35704" lon="2.39992">
        <ele>1256.9</ele>
        <time>2018-11-28T16:38:26Z</time>
      </trkpt>
      <trkpt lat="42.35698" lon="2.40013">
        <ele>1257</ele>
        <time>2018-11-28T16:38:33Z</time>
      </trkpt>
      <trkpt lat="42.35695" lon="2.40032">
        <ele>1256</ele>
        <time>2018-11-28T16:38:39Z</time>
      </trkpt>
      <trkpt lat="42.35688" lon="2.40057">
        <ele>1253.9</ele>
        <time>2018-11-28T16:38:46Z</time>
      </trkpt>
      <trkpt lat="42.3567" lon="2.40086">
        <ele>1252.8</ele>
        <time>2018-11-28T16:38:58Z</time>
      </trkpt>
      <trkpt lat="42.35662" lon="2.40102">
        <ele>1251.4</ele>
        <time>2018-11-28T16:39:03Z</time>
      </trkpt>
      <trkpt lat="42.35647" lon="2.40127">
        <ele>1249.6</ele>
        <time>2018-11-28T16:39:13Z</time>
      </trkpt>
      <trkpt lat="42.35627" lon="2.40147">
        <ele>1249.7</ele>
        <time>2018-11-28T16:39:23Z</time>
      </trkpt>
      <trkpt lat="42.3562" lon="2.40157">
        <ele>1249</ele>
        <time>2018-11-28T16:39:27Z</time>
      </trkpt>
      <trkpt lat="42.35603" lon="2.40178">
        <ele>1248.4</ele>
        <time>2018-11-28T16:39:36Z</time>
      </trkpt>
      <trkpt lat="42.35593" lon="2.40188">
        <ele>1247.9</ele>
        <time>2018-11-28T16:39:41Z</time>
      </trkpt>
      <trkpt lat="42.35584" lon="2.40197">
        <ele>1247.5</ele>
        <time>2018-11-28T16:39:46Z</time>
      </trkpt>
      <trkpt lat="42.35568" lon="2.40209">
        <ele>1246.2</ele>
        <time>2018-11-28T16:39:53Z</time>
      </trkpt>
      <trkpt lat="42.35566" lon="2.40211">
        <ele>1245.9</ele>
        <time>2018-11-28T16:39:54Z</time>
      </trkpt>
      <trkpt lat="42.35546" lon="2.40226">
        <ele>1243.8</ele>
        <time>2018-11-28T16:40:03Z</time>
      </trkpt>
      <trkpt lat="42.35532" lon="2.40235">
        <ele>1242.2</ele>
        <time>2018-11-28T16:40:09Z</time>
      </trkpt>
      <trkpt lat="42.35525" lon="2.40238">
        <ele>1241.9</ele>
        <time>2018-11-28T16:40:12Z</time>
      </trkpt>
      <trkpt lat="42.35501" lon="2.40249">
        <ele>1240.6</ele>
        <time>2018-11-28T16:40:22Z</time>
      </trkpt>
      <trkpt lat="42.35474" lon="2.40265">
        <ele>1240.3</ele>
        <time>2018-11-28T16:40:34Z</time>
      </trkpt>
      <trkpt lat="42.35463" lon="2.4027">
        <ele>1240.6</ele>
        <time>2018-11-28T16:40:39Z</time>
      </trkpt>
      <trkpt lat="42.35441" lon="2.40283">
        <ele>1240.2</ele>
        <time>2018-11-28T16:40:48Z</time>
      </trkpt>
      <trkpt lat="42.35416" lon="2.40297">
        <ele>1240.4</ele>
        <time>2018-11-28T16:40:59Z</time>
      </trkpt>
      <trkpt lat="42.35391" lon="2.40309">
        <ele>1239.3</ele>
        <time>2018-11-28T16:41:10Z</time>
      </trkpt>
      <trkpt lat="42.35366" lon="2.40314">
        <ele>1239.2</ele>
        <time>2018-11-28T16:41:20Z</time>
      </trkpt>
      <trkpt lat="42.35338" lon="2.40309">
        <ele>1239.2</ele>
        <time>2018-11-28T16:41:31Z</time>
      </trkpt>
      <trkpt lat="42.35312" lon="2.403">
        <ele>1240.6</ele>
        <time>2018-11-28T16:41:42Z</time>
      </trkpt>
      <trkpt lat="42.35294" lon="2.40303">
        <ele>1241.5</ele>
        <time>2018-11-28T16:41:49Z</time>
      </trkpt>
      <trkpt lat="42.35272" lon="2.4031">
        <ele>1240.6</ele>
        <time>2018-11-28T16:41:58Z</time>
      </trkpt>
      <trkpt lat="42.35247" lon="2.40321">
        <ele>1238.6</ele>
        <time>2018-11-28T16:42:09Z</time>
      </trkpt>
      <trkpt lat="42.35223" lon="2.40328">
        <ele>1238</ele>
        <time>2018-11-28T16:42:19Z</time>
      </trkpt>
      <trkpt lat="42.35204" lon="2.40332">
        <ele>1237.7</ele>
        <time>2018-11-28T16:42:26Z</time>
      </trkpt>
      <trkpt lat="42.35186" lon="2.40338">
        <ele>1237.5</ele>
        <time>2018-11-28T16:42:34Z</time>
      </trkpt>
      <trkpt lat="42.35164" lon="2.40353">
        <ele>1236</ele>
        <time>2018-11-28T16:42:44Z</time>
      </trkpt>
      <trkpt lat="42.35146" lon="2.40376">
        <ele>1234.5</ele>
        <time>2018-11-28T16:42:54Z</time>
      </trkpt>
      <trkpt lat="42.35132" lon="2.40394">
        <ele>1233</ele>
        <time>2018-11-28T16:43:01Z</time>
      </trkpt>
      <trkpt lat="42.35126" lon="2.40401">
        <ele>1232.9</ele>
        <time>2018-11-28T16:43:05Z</time>
      </trkpt>
      <trkpt lat="42.35124" lon="2.40397">
        <ele>1233.2</ele>
        <time>2018-11-28T16:43:06Z</time>
      </trkpt>
      <trkpt lat="42.35122" lon="2.40398">
        <ele>1233.1</ele>
        <time>2018-11-28T16:43:07Z</time>
      </trkpt>
      <trkpt lat="42.35116" lon="2.40388">
        <ele>1233.7</ele>
        <time>2018-11-28T16:43:10Z</time>
      </trkpt>
      <trkpt lat="42.35112" lon="2.40372">
        <ele>1234.4</ele>
        <time>2018-11-28T16:43:16Z</time>
      </trkpt>
      <trkpt lat="42.35106" lon="2.40347">
        <ele>1234.4</ele>
        <time>2018-11-28T16:43:23Z</time>
      </trkpt>
      <trkpt lat="42.35104" lon="2.40329">
        <ele>1234.7</ele>
        <time>2018-11-28T16:43:28Z</time>
      </trkpt>
      <trkpt lat="42.35102" lon="2.40324">
        <ele>1234.6</ele>
        <time>2018-11-28T16:43:30Z</time>
      </trkpt>
      <trkpt lat="42.35104" lon="2.40313">
        <ele>1235.2</ele>
        <time>2018-11-28T16:43:34Z</time>
      </trkpt>
      <trkpt lat="42.35101" lon="2.40313">
        <ele>1234.8</ele>
        <time>2018-11-28T16:43:35Z</time>
      </trkpt>
      <trkpt lat="42.35094" lon="2.40316">
        <ele>1233.8</ele>
        <time>2018-11-28T16:43:38Z</time>
      </trkpt>
      <trkpt lat="42.35087" lon="2.40323">
        <ele>1232.7</ele>
        <time>2018-11-28T16:43:41Z</time>
      </trkpt>
      <trkpt lat="42.35074" lon="2.40332">
        <ele>1230.6</ele>
        <time>2018-11-28T16:43:47Z</time>
      </trkpt>
      <trkpt lat="42.35069" lon="2.40337">
        <ele>1229.9</ele>
        <time>2018-11-28T16:43:50Z</time>
      </trkpt>
      <trkpt lat="42.35061" lon="2.40343">
        <ele>1228.4</ele>
        <time>2018-11-28T16:43:54Z</time>
      </trkpt>
      <trkpt lat="42.35044" lon="2.40348">
        <ele>1225.6</ele>
        <time>2018-11-28T16:44:00Z</time>
      </trkpt>
      <trkpt lat="42.3503" lon="2.40348">
        <ele>1223</ele>
        <time>2018-11-28T16:44:06Z</time>
      </trkpt>
      <trkpt lat="42.35026" lon="2.40348">
        <ele>1222.5</ele>
        <time>2018-11-28T16:44:07Z</time>
      </trkpt>
      <trkpt lat="42.35026" lon="2.40347">
        <ele>1222.4</ele>
        <time>2018-11-28T16:44:08Z</time>
      </trkpt>
      <trkpt lat="42.35011" lon="2.40349">
        <ele>1219.4</ele>
        <time>2018-11-28T16:44:14Z</time>
      </trkpt>
      <trkpt lat="42.34996" lon="2.40355">
        <ele>1216</ele>
        <time>2018-11-28T16:44:20Z</time>
      </trkpt>
      <trkpt lat="42.34987" lon="2.40364">
        <ele>1214</ele>
        <time>2018-11-28T16:44:24Z</time>
      </trkpt>
      <trkpt lat="42.34986" lon="2.40367">
        <ele>1213.8</ele>
        <time>2018-11-28T16:44:25Z</time>
      </trkpt>
      <trkpt lat="42.34985" lon="2.40367">
        <ele>1213.6</ele>
        <time>2018-11-28T16:44:26Z</time>
      </trkpt>
      <trkpt lat="42.34968" lon="2.40382">
        <ele>1210.3</ele>
        <time>2018-11-28T16:44:34Z</time>
      </trkpt>
      <trkpt lat="42.34961" lon="2.40382">
        <ele>1209.1</ele>
        <time>2018-11-28T16:44:37Z</time>
      </trkpt>
      <trkpt lat="42.34957" lon="2.40384">
        <ele>1208.8</ele>
        <time>2018-11-28T16:44:38Z</time>
      </trkpt>
      <trkpt lat="42.34951" lon="2.40384">
        <ele>1207.9</ele>
        <time>2018-11-28T16:44:41Z</time>
      </trkpt>
      <trkpt lat="42.34936" lon="2.40393">
        <ele>1205.9</ele>
        <time>2018-11-28T16:44:47Z</time>
      </trkpt>
      <trkpt lat="42.34914" lon="2.40405">
        <ele>1202.5</ele>
        <time>2018-11-28T16:44:57Z</time>
      </trkpt>
      <trkpt lat="42.34905" lon="2.40413">
        <ele>1200.7</ele>
        <time>2018-11-28T16:45:01Z</time>
      </trkpt>
      <trkpt lat="42.34898" lon="2.40421">
        <ele>1198.8</ele>
        <time>2018-11-28T16:45:05Z</time>
      </trkpt>
      <trkpt lat="42.34884" lon="2.40434">
        <ele>1195.2</ele>
        <time>2018-11-28T16:45:11Z</time>
      </trkpt>
      <trkpt lat="42.34881" lon="2.40434">
        <ele>1194.7</ele>
        <time>2018-11-28T16:45:13Z</time>
      </trkpt>
      <trkpt lat="42.34868" lon="2.40434">
        <ele>1192.6</ele>
        <time>2018-11-28T16:45:18Z</time>
      </trkpt>
      <trkpt lat="42.34856" lon="2.40437">
        <ele>1190.6</ele>
        <time>2018-11-28T16:45:23Z</time>
      </trkpt>
      <trkpt lat="42.34853" lon="2.40437">
        <ele>1190.2</ele>
        <time>2018-11-28T16:45:24Z</time>
      </trkpt>
      <trkpt lat="42.3484" lon="2.40431">
        <ele>1188.1</ele>
        <time>2018-11-28T16:45:30Z</time>
      </trkpt>
      <trkpt lat="42.34836" lon="2.40431">
        <ele>1187.3</ele>
        <time>2018-11-28T16:45:31Z</time>
      </trkpt>
      <trkpt lat="42.34835" lon="2.4043">
        <ele>1187.2</ele>
        <time>2018-11-28T16:45:32Z</time>
      </trkpt>
      <trkpt lat="42.3483" lon="2.40432">
        <ele>1186.4</ele>
        <time>2018-11-28T16:45:34Z</time>
      </trkpt>
      <trkpt lat="42.34826" lon="2.40436">
        <ele>1186</ele>
        <time>2018-11-28T16:45:36Z</time>
      </trkpt>
      <trkpt lat="42.34824" lon="2.40441">
        <ele>1186.1</ele>
        <time>2018-11-28T16:45:37Z</time>
      </trkpt>
      <trkpt lat="42.34838" lon="2.40455">
        <ele>1187.1</ele>
        <time>2018-11-28T16:45:44Z</time>
      </trkpt>
      <trkpt lat="42.3484" lon="2.40473">
        <ele>1184.6</ele>
        <time>2018-11-28T16:45:50Z</time>
      </trkpt>
      <trkpt lat="42.34851" lon="2.40485">
        <ele>1185</ele>
        <time>2018-11-28T16:45:55Z</time>
      </trkpt>
      <trkpt lat="42.34849" lon="2.40493">
        <ele>1183.2</ele>
        <time>2018-11-28T16:45:58Z</time>
      </trkpt>
      <trkpt lat="42.34849" lon="2.40495">
        <ele>1182.9</ele>
        <time>2018-11-28T16:45:58Z</time>
      </trkpt>
      <trkpt lat="42.34849" lon="2.40496">
        <ele>1182.9</ele>
        <time>2018-11-28T16:45:58Z</time>
      </trkpt>
      <trkpt lat="42.34849" lon="2.40505">
        <ele>1181.5</ele>
        <time>2018-11-28T16:46:01Z</time>
      </trkpt>
      <trkpt lat="42.34854" lon="2.40517">
        <ele>1180.2</ele>
        <time>2018-11-28T16:46:05Z</time>
      </trkpt>
      <trkpt lat="42.34855" lon="2.40521">
        <ele>1179.6</ele>
        <time>2018-11-28T16:46:06Z</time>
      </trkpt>
      <trkpt lat="42.34855" lon="2.40521">
        <ele>1179.5</ele>
        <time>2018-11-28T16:46:07Z</time>
      </trkpt>
      <trkpt lat="42.34854" lon="2.40528">
        <ele>1178.5</ele>
        <time>2018-11-28T16:46:09Z</time>
      </trkpt>
      <trkpt lat="42.3485" lon="2.4054">
        <ele>1176.1</ele>
        <time>2018-11-28T16:46:13Z</time>
      </trkpt>
      <trkpt lat="42.34849" lon="2.40556">
        <ele>1173.6</ele>
        <time>2018-11-28T16:46:17Z</time>
      </trkpt>
      <trkpt lat="42.34848" lon="2.40568">
        <ele>1171.1</ele>
        <time>2018-11-28T16:46:21Z</time>
      </trkpt>
      <trkpt lat="42.34848" lon="2.40574">
        <ele>1170.2</ele>
        <time>2018-11-28T16:46:23Z</time>
      </trkpt>
      <trkpt lat="42.34851" lon="2.40582">
        <ele>1169</ele>
        <time>2018-11-28T16:46:25Z</time>
      </trkpt>
      <trkpt lat="42.34849" lon="2.40595">
        <ele>1166.3</ele>
        <time>2018-11-28T16:46:29Z</time>
      </trkpt>
      <trkpt lat="42.34848" lon="2.40597">
        <ele>1165.7</ele>
        <time>2018-11-28T16:46:30Z</time>
      </trkpt>
      <trkpt lat="42.34843" lon="2.40603">
        <ele>1163.9</ele>
        <time>2018-11-28T16:46:33Z</time>
      </trkpt>
      <trkpt lat="42.34842" lon="2.40617">
        <ele>1160.3</ele>
        <time>2018-11-28T16:46:37Z</time>
      </trkpt>
      <trkpt lat="42.34842" lon="2.40627">
        <ele>1157.9</ele>
        <time>2018-11-28T16:46:40Z</time>
      </trkpt>
      <trkpt lat="42.34856" lon="2.40641">
        <ele>1155.6</ele>
        <time>2018-11-28T16:46:47Z</time>
      </trkpt>
      <trkpt lat="42.34878" lon="2.40653">
        <ele>1157.4</ele>
        <time>2018-11-28T16:46:56Z</time>
      </trkpt>
      <trkpt lat="42.34885" lon="2.40658">
        <ele>1158.4</ele>
        <time>2018-11-28T16:46:59Z</time>
      </trkpt>
      <trkpt lat="42.34899" lon="2.40661">
        <ele>1160.6</ele>
        <time>2018-11-28T16:47:05Z</time>
      </trkpt>
      <trkpt lat="42.34909" lon="2.40669">
        <ele>1161.4</ele>
        <time>2018-11-28T16:47:10Z</time>
      </trkpt>
      <trkpt lat="42.34913" lon="2.40678">
        <ele>1160.1</ele>
        <time>2018-11-28T16:47:13Z</time>
      </trkpt>
      <trkpt lat="42.3492" lon="2.40682">
        <ele>1160.5</ele>
        <time>2018-11-28T16:47:16Z</time>
      </trkpt>
      <trkpt lat="42.34925" lon="2.40685">
        <ele>1161</ele>
        <time>2018-11-28T16:47:18Z</time>
      </trkpt>
      <trkpt lat="42.34942" lon="2.40685">
        <ele>1164.1</ele>
        <time>2018-11-28T16:47:24Z</time>
      </trkpt>
      <trkpt lat="42.34947" lon="2.40687">
        <ele>1164.9</ele>
        <time>2018-11-28T16:47:27Z</time>
      </trkpt>
      <trkpt lat="42.34964" lon="2.40697">
        <ele>1166.5</ele>
        <time>2018-11-28T16:47:34Z</time>
      </trkpt>
      <trkpt lat="42.34975" lon="2.40706">
        <ele>1166.5</ele>
        <time>2018-11-28T16:47:39Z</time>
      </trkpt>
      <trkpt lat="42.34984" lon="2.40712">
        <ele>1167.1</ele>
        <time>2018-11-28T16:47:43Z</time>
      </trkpt>
      <trkpt lat="42.34988" lon="2.40714">
        <ele>1167.7</ele>
        <time>2018-11-28T16:47:45Z</time>
      </trkpt>
      <trkpt lat="42.35006" lon="2.40723">
        <ele>1171</ele>
        <time>2018-11-28T16:47:53Z</time>
      </trkpt>
      <trkpt lat="42.35017" lon="2.40732">
        <ele>1171</ele>
        <time>2018-11-28T16:47:58Z</time>
      </trkpt>
      <trkpt lat="42.35023" lon="2.40737">
        <ele>1169.3</ele>
        <time>2018-11-28T16:48:01Z</time>
      </trkpt>
      <trkpt lat="42.35037" lon="2.40735">
        <ele>1171</ele>
        <time>2018-11-28T16:48:06Z</time>
      </trkpt>
      <trkpt lat="42.35046" lon="2.40751">
        <ele>1164.8</ele>
        <time>2018-11-28T16:48:13Z</time>
      </trkpt>
      <trkpt lat="42.35051" lon="2.40762">
        <ele>1160</ele>
        <time>2018-11-28T16:48:16Z</time>
      </trkpt>
      <trkpt lat="42.35047" lon="2.40748">
        <ele>1165.8</ele>
        <time>2018-11-28T16:48:20Z</time>
      </trkpt>
      <trkpt lat="42.35047" lon="2.40748">
        <ele>1165.9</ele>
        <time>2018-11-28T16:48:20Z</time>
      </trkpt>
      <trkpt lat="42.35047" lon="2.40748">
        <ele>1165.9</ele>
        <time>2018-11-28T16:48:21Z</time>
      </trkpt>
    </trkseg>
  </trk>
</gpx>